<?xml version="1.0" encoding="UTF-8" standalone="no" ?>
<gpx xmlns="http://www.topografix.com/GPX/1/1" xmlns:xsi="http://www.w3.org/2001/XMLSchema-instance" xsi:schemaLocation="http://www.topografix.com/GPX/1/1 http://www.topografix.com/GPX/1/1/gpx.xsd" version="1.1" creator="VisuGPX - https://www.visugpx.com">
  <metadata>
    <name>Glaris-Engelberg(tout)</name>
  </metadata>
  <trk>
    <name><![CDATA[Glaris-Engelberg(tout)_12]]></name>
    <extensions>
      <line xmlns="http://www.topografix.com/GPX/gpx_style/0/2">
        <color>0000FF</color>
        <width>4</width>
      </line>
    </extensions>
    <trkseg>
      <trkpt lat="46.84617" lon="8.46269">
        <ele>2287</ele>
        <time>2021-08-13T07:19:09.153Z</time>
      </trkpt>
      <trkpt lat="46.84617" lon="8.46268">
        <ele>2287</ele>
        <time>2021-08-13T07:19:10.154Z</time>
      </trkpt>
      <trkpt lat="46.84617" lon="8.46268">
        <ele>2287</ele>
        <time>2021-08-13T07:19:11.154Z</time>
      </trkpt>
      <trkpt lat="46.84617" lon="8.46267">
        <ele>2287</ele>
        <time>2021-08-13T07:19:12.154Z</time>
      </trkpt>
      <trkpt lat="46.84617" lon="8.46267">
        <ele>2287</ele>
        <time>2021-08-13T07:19:13.153Z</time>
      </trkpt>
      <trkpt lat="46.84617" lon="8.46266">
        <ele>2287</ele>
        <time>2021-08-13T07:19:14.153Z</time>
      </trkpt>
      <trkpt lat="46.84616" lon="8.46264">
        <ele>2288</ele>
        <time>2021-08-13T07:19:15.153Z</time>
      </trkpt>
      <trkpt lat="46.84617" lon="8.46263">
        <ele>2288</ele>
        <time>2021-08-13T07:19:16.153Z</time>
      </trkpt>
      <trkpt lat="46.84617" lon="8.46262">
        <ele>2288</ele>
        <time>2021-08-13T07:19:17.153Z</time>
      </trkpt>
      <trkpt lat="46.84618" lon="8.4626">
        <ele>2288</ele>
        <time>2021-08-13T07:19:18.153Z</time>
      </trkpt>
      <trkpt lat="46.84619" lon="8.46259">
        <ele>2288</ele>
        <time>2021-08-13T07:19:19.153Z</time>
      </trkpt>
      <trkpt lat="46.84619" lon="8.46258">
        <ele>2288</ele>
        <time>2021-08-13T07:19:20.153Z</time>
      </trkpt>
      <trkpt lat="46.84619" lon="8.46258">
        <ele>2288</ele>
        <time>2021-08-13T07:19:21.153Z</time>
      </trkpt>
      <trkpt lat="46.84618" lon="8.46257">
        <ele>2288</ele>
        <time>2021-08-13T07:19:22.153Z</time>
      </trkpt>
      <trkpt lat="46.84618" lon="8.46257">
        <ele>2288</ele>
        <time>2021-08-13T07:19:23.154Z</time>
      </trkpt>
      <trkpt lat="46.84618" lon="8.46256">
        <ele>2288</ele>
        <time>2021-08-13T07:19:24.153Z</time>
      </trkpt>
      <trkpt lat="46.84619" lon="8.46255">
        <ele>2288</ele>
        <time>2021-08-13T07:19:25.154Z</time>
      </trkpt>
      <trkpt lat="46.8462" lon="8.46254">
        <ele>2288</ele>
        <time>2021-08-13T07:19:26.153Z</time>
      </trkpt>
      <trkpt lat="46.8462" lon="8.46253">
        <ele>2288</ele>
        <time>2021-08-13T07:19:27.154Z</time>
      </trkpt>
      <trkpt lat="46.84621" lon="8.46251">
        <ele>2288</ele>
        <time>2021-08-13T07:19:28.153Z</time>
      </trkpt>
      <trkpt lat="46.84621" lon="8.46251">
        <ele>2288</ele>
        <time>2021-08-13T07:19:29.153Z</time>
      </trkpt>
      <trkpt lat="46.8462" lon="8.4625">
        <ele>2287</ele>
        <time>2021-08-13T07:19:30.153Z</time>
      </trkpt>
      <trkpt lat="46.8462" lon="8.4625">
        <ele>2287</ele>
        <time>2021-08-13T07:19:31.154Z</time>
      </trkpt>
      <trkpt lat="46.8462" lon="8.46251">
        <ele>2287</ele>
        <time>2021-08-13T07:19:32.154Z</time>
      </trkpt>
      <trkpt lat="46.84621" lon="8.46251">
        <ele>2287</ele>
        <time>2021-08-13T07:19:33.153Z</time>
      </trkpt>
      <trkpt lat="46.84621" lon="8.46251">
        <ele>2286</ele>
        <time>2021-08-13T07:19:34.154Z</time>
      </trkpt>
      <trkpt lat="46.84621" lon="8.46251">
        <ele>2286</ele>
        <time>2021-08-13T07:19:35.154Z</time>
      </trkpt>
      <trkpt lat="46.84621" lon="8.4625">
        <ele>2285</ele>
        <time>2021-08-13T07:19:36.154Z</time>
      </trkpt>
      <trkpt lat="46.84622" lon="8.4625">
        <ele>2285</ele>
        <time>2021-08-13T07:19:37.154Z</time>
      </trkpt>
      <trkpt lat="46.84622" lon="8.46248">
        <ele>2284</ele>
        <time>2021-08-13T07:19:38.153Z</time>
      </trkpt>
      <trkpt lat="46.84622" lon="8.46247">
        <ele>2284</ele>
        <time>2021-08-13T07:19:39.154Z</time>
      </trkpt>
      <trkpt lat="46.84623" lon="8.46246">
        <ele>2284</ele>
        <time>2021-08-13T07:19:40.154Z</time>
      </trkpt>
      <trkpt lat="46.84623" lon="8.46245">
        <ele>2284</ele>
        <time>2021-08-13T07:19:41.153Z</time>
      </trkpt>
      <trkpt lat="46.84623" lon="8.46244">
        <ele>2284</ele>
        <time>2021-08-13T07:19:42.154Z</time>
      </trkpt>
      <trkpt lat="46.84623" lon="8.46243">
        <ele>2283</ele>
        <time>2021-08-13T07:19:43.154Z</time>
      </trkpt>
      <trkpt lat="46.84623" lon="8.46242">
        <ele>2283</ele>
        <time>2021-08-13T07:19:44.154Z</time>
      </trkpt>
      <trkpt lat="46.84623" lon="8.4624">
        <ele>2283</ele>
        <time>2021-08-13T07:19:45.153Z</time>
      </trkpt>
      <trkpt lat="46.84623" lon="8.4624">
        <ele>2283</ele>
        <time>2021-08-13T07:19:46.154Z</time>
      </trkpt>
      <trkpt lat="46.84623" lon="8.46239">
        <ele>2283</ele>
        <time>2021-08-13T07:19:47.154Z</time>
      </trkpt>
      <trkpt lat="46.84623" lon="8.46238">
        <ele>2283</ele>
        <time>2021-08-13T07:19:48.154Z</time>
      </trkpt>
      <trkpt lat="46.84623" lon="8.46237">
        <ele>2283</ele>
        <time>2021-08-13T07:19:49.153Z</time>
      </trkpt>
      <trkpt lat="46.84623" lon="8.46236">
        <ele>2283</ele>
        <time>2021-08-13T07:19:50.154Z</time>
      </trkpt>
      <trkpt lat="46.84622" lon="8.46236">
        <ele>2283</ele>
        <time>2021-08-13T07:19:51.153Z</time>
      </trkpt>
      <trkpt lat="46.84622" lon="8.46235">
        <ele>2283</ele>
        <time>2021-08-13T07:19:52.154Z</time>
      </trkpt>
      <trkpt lat="46.84621" lon="8.46234">
        <ele>2283</ele>
        <time>2021-08-13T07:19:53.153Z</time>
      </trkpt>
      <trkpt lat="46.84622" lon="8.46233">
        <ele>2283</ele>
        <time>2021-08-13T07:19:54.153Z</time>
      </trkpt>
      <trkpt lat="46.84622" lon="8.46232">
        <ele>2283</ele>
        <time>2021-08-13T07:19:55.153Z</time>
      </trkpt>
      <trkpt lat="46.84622" lon="8.46232">
        <ele>2283</ele>
        <time>2021-08-13T07:19:56.154Z</time>
      </trkpt>
      <trkpt lat="46.84622" lon="8.46231">
        <ele>2283</ele>
        <time>2021-08-13T07:19:57.153Z</time>
      </trkpt>
      <trkpt lat="46.84622" lon="8.4623">
        <ele>2283</ele>
        <time>2021-08-13T07:19:58.154Z</time>
      </trkpt>
      <trkpt lat="46.84623" lon="8.46229">
        <ele>2283</ele>
        <time>2021-08-13T07:19:59.154Z</time>
      </trkpt>
      <trkpt lat="46.84623" lon="8.46228">
        <ele>2283</ele>
        <time>2021-08-13T07:20:00.153Z</time>
      </trkpt>
      <trkpt lat="46.84623" lon="8.46227">
        <ele>2283</ele>
        <time>2021-08-13T07:20:01.154Z</time>
      </trkpt>
      <trkpt lat="46.84623" lon="8.46226">
        <ele>2283</ele>
        <time>2021-08-13T07:20:02.153Z</time>
      </trkpt>
      <trkpt lat="46.84623" lon="8.46225">
        <ele>2283</ele>
        <time>2021-08-13T07:20:03.154Z</time>
      </trkpt>
      <trkpt lat="46.84624" lon="8.46224">
        <ele>2282</ele>
        <time>2021-08-13T07:20:04.154Z</time>
      </trkpt>
      <trkpt lat="46.84624" lon="8.46224">
        <ele>2282</ele>
        <time>2021-08-13T07:20:05.154Z</time>
      </trkpt>
      <trkpt lat="46.84624" lon="8.46223">
        <ele>2282</ele>
        <time>2021-08-13T07:20:06.154Z</time>
      </trkpt>
      <trkpt lat="46.84624" lon="8.46222">
        <ele>2282</ele>
        <time>2021-08-13T07:20:07.154Z</time>
      </trkpt>
      <trkpt lat="46.84624" lon="8.46222">
        <ele>2282</ele>
        <time>2021-08-13T07:20:08.154Z</time>
      </trkpt>
      <trkpt lat="46.84624" lon="8.46221">
        <ele>2282</ele>
        <time>2021-08-13T07:20:09.154Z</time>
      </trkpt>
      <trkpt lat="46.84624" lon="8.4622">
        <ele>2281</ele>
        <time>2021-08-13T07:20:10.154Z</time>
      </trkpt>
      <trkpt lat="46.84624" lon="8.46219">
        <ele>2281</ele>
        <time>2021-08-13T07:20:11.154Z</time>
      </trkpt>
      <trkpt lat="46.84625" lon="8.46218">
        <ele>2280</ele>
        <time>2021-08-13T07:20:12.154Z</time>
      </trkpt>
      <trkpt lat="46.84625" lon="8.46217">
        <ele>2280</ele>
        <time>2021-08-13T07:20:13.154Z</time>
      </trkpt>
      <trkpt lat="46.84626" lon="8.46216">
        <ele>2279</ele>
        <time>2021-08-13T07:20:14.154Z</time>
      </trkpt>
      <trkpt lat="46.84626" lon="8.46215">
        <ele>2278</ele>
        <time>2021-08-13T07:20:15.153Z</time>
      </trkpt>
      <trkpt lat="46.84627" lon="8.46214">
        <ele>2278</ele>
        <time>2021-08-13T07:20:16.153Z</time>
      </trkpt>
      <trkpt lat="46.84627" lon="8.46212">
        <ele>2277</ele>
        <time>2021-08-13T07:20:17.154Z</time>
      </trkpt>
      <trkpt lat="46.84628" lon="8.46211">
        <ele>2277</ele>
        <time>2021-08-13T07:20:18.153Z</time>
      </trkpt>
      <trkpt lat="46.84628" lon="8.4621">
        <ele>2276</ele>
        <time>2021-08-13T07:20:19.154Z</time>
      </trkpt>
      <trkpt lat="46.84629" lon="8.46209">
        <ele>2276</ele>
        <time>2021-08-13T07:20:20.154Z</time>
      </trkpt>
      <trkpt lat="46.84629" lon="8.46208">
        <ele>2275</ele>
        <time>2021-08-13T07:20:21.153Z</time>
      </trkpt>
      <trkpt lat="46.8463" lon="8.46207">
        <ele>2275</ele>
        <time>2021-08-13T07:20:22.154Z</time>
      </trkpt>
      <trkpt lat="46.8463" lon="8.46206">
        <ele>2275</ele>
        <time>2021-08-13T07:20:23.154Z</time>
      </trkpt>
      <trkpt lat="46.84631" lon="8.46205">
        <ele>2275</ele>
        <time>2021-08-13T07:20:24.153Z</time>
      </trkpt>
      <trkpt lat="46.84631" lon="8.46204">
        <ele>2274</ele>
        <time>2021-08-13T07:20:25.154Z</time>
      </trkpt>
      <trkpt lat="46.84632" lon="8.46203">
        <ele>2274</ele>
        <time>2021-08-13T07:20:26.153Z</time>
      </trkpt>
      <trkpt lat="46.84633" lon="8.46203">
        <ele>2274</ele>
        <time>2021-08-13T07:20:27.154Z</time>
      </trkpt>
      <trkpt lat="46.84633" lon="8.46202">
        <ele>2273</ele>
        <time>2021-08-13T07:20:28.153Z</time>
      </trkpt>
      <trkpt lat="46.84633" lon="8.46201">
        <ele>2273</ele>
        <time>2021-08-13T07:20:29.154Z</time>
      </trkpt>
      <trkpt lat="46.84634" lon="8.462">
        <ele>2273</ele>
        <time>2021-08-13T07:20:30.154Z</time>
      </trkpt>
      <trkpt lat="46.84634" lon="8.46199">
        <ele>2273</ele>
        <time>2021-08-13T07:20:31.154Z</time>
      </trkpt>
      <trkpt lat="46.84634" lon="8.46199">
        <ele>2273</ele>
        <time>2021-08-13T07:20:32.153Z</time>
      </trkpt>
      <trkpt lat="46.84634" lon="8.46198">
        <ele>2273</ele>
        <time>2021-08-13T07:20:33.154Z</time>
      </trkpt>
      <trkpt lat="46.84635" lon="8.46197">
        <ele>2272</ele>
        <time>2021-08-13T07:20:34.153Z</time>
      </trkpt>
      <trkpt lat="46.84635" lon="8.46196">
        <ele>2272</ele>
        <time>2021-08-13T07:20:35.153Z</time>
      </trkpt>
      <trkpt lat="46.84636" lon="8.46195">
        <ele>2272</ele>
        <time>2021-08-13T07:20:36.153Z</time>
      </trkpt>
      <trkpt lat="46.84636" lon="8.46194">
        <ele>2272</ele>
        <time>2021-08-13T07:20:37.154Z</time>
      </trkpt>
      <trkpt lat="46.84636" lon="8.46193">
        <ele>2272</ele>
        <time>2021-08-13T07:20:38.154Z</time>
      </trkpt>
      <trkpt lat="46.84637" lon="8.46192">
        <ele>2272</ele>
        <time>2021-08-13T07:20:39.153Z</time>
      </trkpt>
      <trkpt lat="46.84637" lon="8.46191">
        <ele>2272</ele>
        <time>2021-08-13T07:20:40.154Z</time>
      </trkpt>
      <trkpt lat="46.84638" lon="8.4619">
        <ele>2272</ele>
        <time>2021-08-13T07:20:41.154Z</time>
      </trkpt>
      <trkpt lat="46.84638" lon="8.46189">
        <ele>2272</ele>
        <time>2021-08-13T07:20:42.154Z</time>
      </trkpt>
      <trkpt lat="46.84639" lon="8.46188">
        <ele>2272</ele>
        <time>2021-08-13T07:20:43.154Z</time>
      </trkpt>
      <trkpt lat="46.84639" lon="8.46187">
        <ele>2272</ele>
        <time>2021-08-13T07:20:44.153Z</time>
      </trkpt>
      <trkpt lat="46.84639" lon="8.46187">
        <ele>2273</ele>
        <time>2021-08-13T07:20:45.154Z</time>
      </trkpt>
      <trkpt lat="46.84639" lon="8.46186">
        <ele>2273</ele>
        <time>2021-08-13T07:20:46.154Z</time>
      </trkpt>
      <trkpt lat="46.84638" lon="8.46187">
        <ele>2275</ele>
        <time>2021-08-13T07:20:47.156Z</time>
      </trkpt>
      <trkpt lat="46.84638" lon="8.46187">
        <ele>2275</ele>
        <time>2021-08-13T07:20:48.155Z</time>
      </trkpt>
      <trkpt lat="46.84637" lon="8.46188">
        <ele>2275</ele>
        <time>2021-08-13T07:20:49.155Z</time>
      </trkpt>
      <trkpt lat="46.84636" lon="8.46188">
        <ele>2275</ele>
        <time>2021-08-13T07:20:50.156Z</time>
      </trkpt>
      <trkpt lat="46.84635" lon="8.4619">
        <ele>2275</ele>
        <time>2021-08-13T07:20:51.155Z</time>
      </trkpt>
      <trkpt lat="46.84634" lon="8.4619">
        <ele>2275</ele>
        <time>2021-08-13T07:20:52.155Z</time>
      </trkpt>
      <trkpt lat="46.84633" lon="8.4619">
        <ele>2275</ele>
        <time>2021-08-13T07:20:53.155Z</time>
      </trkpt>
      <trkpt lat="46.84632" lon="8.4619">
        <ele>2275</ele>
        <time>2021-08-13T07:20:54.156Z</time>
      </trkpt>
      <trkpt lat="46.84631" lon="8.4619">
        <ele>2275</ele>
        <time>2021-08-13T07:20:55.155Z</time>
      </trkpt>
      <trkpt lat="46.8463" lon="8.4619">
        <ele>2274</ele>
        <time>2021-08-13T07:20:56.155Z</time>
      </trkpt>
      <trkpt lat="46.84629" lon="8.46189">
        <ele>2274</ele>
        <time>2021-08-13T07:20:57.156Z</time>
      </trkpt>
      <trkpt lat="46.84628" lon="8.46189">
        <ele>2274</ele>
        <time>2021-08-13T07:20:58.155Z</time>
      </trkpt>
      <trkpt lat="46.84628" lon="8.46189">
        <ele>2274</ele>
        <time>2021-08-13T07:20:59.155Z</time>
      </trkpt>
      <trkpt lat="46.84627" lon="8.46188">
        <ele>2274</ele>
        <time>2021-08-13T07:21:00.156Z</time>
      </trkpt>
      <trkpt lat="46.84627" lon="8.46188">
        <ele>2274</ele>
        <time>2021-08-13T07:21:01.156Z</time>
      </trkpt>
      <trkpt lat="46.84627" lon="8.46187">
        <ele>2274</ele>
        <time>2021-08-13T07:21:02.156Z</time>
      </trkpt>
      <trkpt lat="46.84627" lon="8.46186">
        <ele>2274</ele>
        <time>2021-08-13T07:21:03.156Z</time>
      </trkpt>
      <trkpt lat="46.84627" lon="8.46185">
        <ele>2274</ele>
        <time>2021-08-13T07:21:04.156Z</time>
      </trkpt>
      <trkpt lat="46.84627" lon="8.46184">
        <ele>2274</ele>
        <time>2021-08-13T07:21:05.156Z</time>
      </trkpt>
      <trkpt lat="46.84628" lon="8.46183">
        <ele>2274</ele>
        <time>2021-08-13T07:21:06.156Z</time>
      </trkpt>
      <trkpt lat="46.84628" lon="8.46182">
        <ele>2274</ele>
        <time>2021-08-13T07:21:07.156Z</time>
      </trkpt>
      <trkpt lat="46.84628" lon="8.4618">
        <ele>2274</ele>
        <time>2021-08-13T07:21:08.155Z</time>
      </trkpt>
      <trkpt lat="46.84629" lon="8.46179">
        <ele>2274</ele>
        <time>2021-08-13T07:21:09.156Z</time>
      </trkpt>
      <trkpt lat="46.84629" lon="8.46178">
        <ele>2273</ele>
        <time>2021-08-13T07:21:10.155Z</time>
      </trkpt>
      <trkpt lat="46.84629" lon="8.46177">
        <ele>2273</ele>
        <time>2021-08-13T07:21:11.156Z</time>
      </trkpt>
      <trkpt lat="46.8463" lon="8.46176">
        <ele>2273</ele>
        <time>2021-08-13T07:21:12.155Z</time>
      </trkpt>
      <trkpt lat="46.8463" lon="8.46175">
        <ele>2273</ele>
        <time>2021-08-13T07:21:13.156Z</time>
      </trkpt>
      <trkpt lat="46.84631" lon="8.46174">
        <ele>2273</ele>
        <time>2021-08-13T07:21:14.156Z</time>
      </trkpt>
      <trkpt lat="46.84631" lon="8.46173">
        <ele>2273</ele>
        <time>2021-08-13T07:21:15.156Z</time>
      </trkpt>
      <trkpt lat="46.84632" lon="8.46171">
        <ele>2273</ele>
        <time>2021-08-13T07:21:16.155Z</time>
      </trkpt>
      <trkpt lat="46.84632" lon="8.46171">
        <ele>2273</ele>
        <time>2021-08-13T07:21:17.156Z</time>
      </trkpt>
      <trkpt lat="46.84632" lon="8.4617">
        <ele>2272</ele>
        <time>2021-08-13T07:21:18.155Z</time>
      </trkpt>
      <trkpt lat="46.84632" lon="8.46169">
        <ele>2272</ele>
        <time>2021-08-13T07:21:19.155Z</time>
      </trkpt>
      <trkpt lat="46.84633" lon="8.46168">
        <ele>2272</ele>
        <time>2021-08-13T07:21:20.156Z</time>
      </trkpt>
      <trkpt lat="46.84633" lon="8.46167">
        <ele>2272</ele>
        <time>2021-08-13T07:21:21.156Z</time>
      </trkpt>
      <trkpt lat="46.84634" lon="8.46166">
        <ele>2271</ele>
        <time>2021-08-13T07:21:22.156Z</time>
      </trkpt>
      <trkpt lat="46.84634" lon="8.46165">
        <ele>2271</ele>
        <time>2021-08-13T07:21:23.156Z</time>
      </trkpt>
      <trkpt lat="46.84635" lon="8.46164">
        <ele>2271</ele>
        <time>2021-08-13T07:21:24.155Z</time>
      </trkpt>
      <trkpt lat="46.84635" lon="8.46163">
        <ele>2271</ele>
        <time>2021-08-13T07:21:25.156Z</time>
      </trkpt>
      <trkpt lat="46.84636" lon="8.46162">
        <ele>2271</ele>
        <time>2021-08-13T07:21:26.155Z</time>
      </trkpt>
      <trkpt lat="46.84637" lon="8.46162">
        <ele>2271</ele>
        <time>2021-08-13T07:21:27.155Z</time>
      </trkpt>
      <trkpt lat="46.84638" lon="8.46162">
        <ele>2271</ele>
        <time>2021-08-13T07:21:28.155Z</time>
      </trkpt>
      <trkpt lat="46.84639" lon="8.46162">
        <ele>2271</ele>
        <time>2021-08-13T07:21:29.155Z</time>
      </trkpt>
      <trkpt lat="46.8464" lon="8.46162">
        <ele>2270</ele>
        <time>2021-08-13T07:21:30.156Z</time>
      </trkpt>
      <trkpt lat="46.8464" lon="8.46161">
        <ele>2270</ele>
        <time>2021-08-13T07:21:31.156Z</time>
      </trkpt>
      <trkpt lat="46.8464" lon="8.46161">
        <ele>2270</ele>
        <time>2021-08-13T07:21:32.155Z</time>
      </trkpt>
      <trkpt lat="46.84641" lon="8.46161">
        <ele>2270</ele>
        <time>2021-08-13T07:21:33.156Z</time>
      </trkpt>
      <trkpt lat="46.84641" lon="8.46161">
        <ele>2270</ele>
        <time>2021-08-13T07:21:34.156Z</time>
      </trkpt>
      <trkpt lat="46.84642" lon="8.46161">
        <ele>2270</ele>
        <time>2021-08-13T07:21:35.156Z</time>
      </trkpt>
      <trkpt lat="46.84642" lon="8.4616">
        <ele>2270</ele>
        <time>2021-08-13T07:21:36.156Z</time>
      </trkpt>
      <trkpt lat="46.84643" lon="8.4616">
        <ele>2270</ele>
        <time>2021-08-13T07:21:37.155Z</time>
      </trkpt>
      <trkpt lat="46.84644" lon="8.46159">
        <ele>2270</ele>
        <time>2021-08-13T07:21:38.155Z</time>
      </trkpt>
      <trkpt lat="46.84645" lon="8.4616">
        <ele>2270</ele>
        <time>2021-08-13T07:21:39.155Z</time>
      </trkpt>
      <trkpt lat="46.84645" lon="8.4616">
        <ele>2270</ele>
        <time>2021-08-13T07:21:40.155Z</time>
      </trkpt>
      <trkpt lat="46.84646" lon="8.46159">
        <ele>2269</ele>
        <time>2021-08-13T07:21:41.155Z</time>
      </trkpt>
      <trkpt lat="46.84647" lon="8.46158">
        <ele>2269</ele>
        <time>2021-08-13T07:21:42.155Z</time>
      </trkpt>
      <trkpt lat="46.84648" lon="8.46158">
        <ele>2269</ele>
        <time>2021-08-13T07:21:43.155Z</time>
      </trkpt>
      <trkpt lat="46.84649" lon="8.46157">
        <ele>2268</ele>
        <time>2021-08-13T07:21:44.156Z</time>
      </trkpt>
      <trkpt lat="46.8465" lon="8.46157">
        <ele>2268</ele>
        <time>2021-08-13T07:21:45.155Z</time>
      </trkpt>
      <trkpt lat="46.84651" lon="8.46156">
        <ele>2267</ele>
        <time>2021-08-13T07:21:46.155Z</time>
      </trkpt>
      <trkpt lat="46.84651" lon="8.46156">
        <ele>2267</ele>
        <time>2021-08-13T07:21:47.155Z</time>
      </trkpt>
      <trkpt lat="46.84652" lon="8.46155">
        <ele>2266</ele>
        <time>2021-08-13T07:21:48.155Z</time>
      </trkpt>
      <trkpt lat="46.84652" lon="8.46155">
        <ele>2265</ele>
        <time>2021-08-13T07:21:49.155Z</time>
      </trkpt>
      <trkpt lat="46.84653" lon="8.46155">
        <ele>2265</ele>
        <time>2021-08-13T07:21:50.155Z</time>
      </trkpt>
      <trkpt lat="46.84654" lon="8.46154">
        <ele>2264</ele>
        <time>2021-08-13T07:21:51.155Z</time>
      </trkpt>
      <trkpt lat="46.84654" lon="8.46154">
        <ele>2263</ele>
        <time>2021-08-13T07:21:52.155Z</time>
      </trkpt>
      <trkpt lat="46.84655" lon="8.46153">
        <ele>2263</ele>
        <time>2021-08-13T07:21:53.155Z</time>
      </trkpt>
      <trkpt lat="46.84655" lon="8.46153">
        <ele>2262</ele>
        <time>2021-08-13T07:21:54.155Z</time>
      </trkpt>
      <trkpt lat="46.84656" lon="8.46152">
        <ele>2262</ele>
        <time>2021-08-13T07:21:55.155Z</time>
      </trkpt>
      <trkpt lat="46.84656" lon="8.46151">
        <ele>2262</ele>
        <time>2021-08-13T07:21:56.155Z</time>
      </trkpt>
      <trkpt lat="46.84656" lon="8.46151">
        <ele>2261</ele>
        <time>2021-08-13T07:21:57.155Z</time>
      </trkpt>
      <trkpt lat="46.84656" lon="8.4615">
        <ele>2261</ele>
        <time>2021-08-13T07:21:58.155Z</time>
      </trkpt>
      <trkpt lat="46.84657" lon="8.4615">
        <ele>2261</ele>
        <time>2021-08-13T07:21:59.155Z</time>
      </trkpt>
      <trkpt lat="46.84657" lon="8.46151">
        <ele>2260</ele>
        <time>2021-08-13T07:22:00.155Z</time>
      </trkpt>
      <trkpt lat="46.84656" lon="8.46151">
        <ele>2260</ele>
        <time>2021-08-13T07:22:01.155Z</time>
      </trkpt>
      <trkpt lat="46.84656" lon="8.46151">
        <ele>2259</ele>
        <time>2021-08-13T07:22:02.155Z</time>
      </trkpt>
      <trkpt lat="46.84656" lon="8.46151">
        <ele>2259</ele>
        <time>2021-08-13T07:22:03.155Z</time>
      </trkpt>
      <trkpt lat="46.84658" lon="8.4615">
        <ele>2257</ele>
        <time>2021-08-13T07:22:04.155Z</time>
      </trkpt>
      <trkpt lat="46.84658" lon="8.4615">
        <ele>2257</ele>
        <time>2021-08-13T07:22:05.156Z</time>
      </trkpt>
      <trkpt lat="46.84659" lon="8.4615">
        <ele>2257</ele>
        <time>2021-08-13T07:22:06.155Z</time>
      </trkpt>
      <trkpt lat="46.84659" lon="8.46149">
        <ele>2256</ele>
        <time>2021-08-13T07:22:07.155Z</time>
      </trkpt>
      <trkpt lat="46.8466" lon="8.46149">
        <ele>2256</ele>
        <time>2021-08-13T07:22:08.156Z</time>
      </trkpt>
      <trkpt lat="46.8466" lon="8.46148">
        <ele>2256</ele>
        <time>2021-08-13T07:22:09.156Z</time>
      </trkpt>
      <trkpt lat="46.84661" lon="8.46147">
        <ele>2255</ele>
        <time>2021-08-13T07:22:10.155Z</time>
      </trkpt>
      <trkpt lat="46.84661" lon="8.46146">
        <ele>2255</ele>
        <time>2021-08-13T07:22:11.156Z</time>
      </trkpt>
      <trkpt lat="46.84662" lon="8.46144">
        <ele>2254</ele>
        <time>2021-08-13T07:22:12.155Z</time>
      </trkpt>
      <trkpt lat="46.84662" lon="8.46143">
        <ele>2254</ele>
        <time>2021-08-13T07:22:13.156Z</time>
      </trkpt>
      <trkpt lat="46.84662" lon="8.46143">
        <ele>2253</ele>
        <time>2021-08-13T07:22:14.156Z</time>
      </trkpt>
      <trkpt lat="46.84662" lon="8.46142">
        <ele>2253</ele>
        <time>2021-08-13T07:22:15.155Z</time>
      </trkpt>
      <trkpt lat="46.84663" lon="8.46141">
        <ele>2253</ele>
        <time>2021-08-13T07:22:16.156Z</time>
      </trkpt>
      <trkpt lat="46.84663" lon="8.4614">
        <ele>2253</ele>
        <time>2021-08-13T07:22:17.156Z</time>
      </trkpt>
      <trkpt lat="46.84664" lon="8.46139">
        <ele>2252</ele>
        <time>2021-08-13T07:22:18.156Z</time>
      </trkpt>
      <trkpt lat="46.84664" lon="8.46138">
        <ele>2252</ele>
        <time>2021-08-13T07:22:19.156Z</time>
      </trkpt>
      <trkpt lat="46.84665" lon="8.46137">
        <ele>2252</ele>
        <time>2021-08-13T07:22:20.156Z</time>
      </trkpt>
      <trkpt lat="46.84665" lon="8.46136">
        <ele>2251</ele>
        <time>2021-08-13T07:22:21.155Z</time>
      </trkpt>
      <trkpt lat="46.84666" lon="8.46134">
        <ele>2251</ele>
        <time>2021-08-13T07:22:22.155Z</time>
      </trkpt>
      <trkpt lat="46.84666" lon="8.46133">
        <ele>2251</ele>
        <time>2021-08-13T07:22:23.156Z</time>
      </trkpt>
      <trkpt lat="46.84667" lon="8.46132">
        <ele>2251</ele>
        <time>2021-08-13T07:22:24.156Z</time>
      </trkpt>
      <trkpt lat="46.84668" lon="8.4613">
        <ele>2251</ele>
        <time>2021-08-13T07:22:25.156Z</time>
      </trkpt>
      <trkpt lat="46.84668" lon="8.46129">
        <ele>2251</ele>
        <time>2021-08-13T07:22:26.156Z</time>
      </trkpt>
      <trkpt lat="46.84669" lon="8.46127">
        <ele>2251</ele>
        <time>2021-08-13T07:22:27.156Z</time>
      </trkpt>
      <trkpt lat="46.8467" lon="8.46125">
        <ele>2251</ele>
        <time>2021-08-13T07:22:28.156Z</time>
      </trkpt>
      <trkpt lat="46.84671" lon="8.46123">
        <ele>2251</ele>
        <time>2021-08-13T07:22:29.156Z</time>
      </trkpt>
      <trkpt lat="46.84672" lon="8.46122">
        <ele>2252</ele>
        <time>2021-08-13T07:22:30.155Z</time>
      </trkpt>
      <trkpt lat="46.84672" lon="8.46121">
        <ele>2252</ele>
        <time>2021-08-13T07:22:31.156Z</time>
      </trkpt>
      <trkpt lat="46.84673" lon="8.4612">
        <ele>2251</ele>
        <time>2021-08-13T07:22:32.156Z</time>
      </trkpt>
      <trkpt lat="46.84674" lon="8.46118">
        <ele>2251</ele>
        <time>2021-08-13T07:22:33.156Z</time>
      </trkpt>
      <trkpt lat="46.84674" lon="8.46118">
        <ele>2251</ele>
        <time>2021-08-13T07:22:34.156Z</time>
      </trkpt>
      <trkpt lat="46.84675" lon="8.46116">
        <ele>2251</ele>
        <time>2021-08-13T07:22:35.155Z</time>
      </trkpt>
      <trkpt lat="46.84676" lon="8.46115">
        <ele>2250</ele>
        <time>2021-08-13T07:22:36.156Z</time>
      </trkpt>
      <trkpt lat="46.84676" lon="8.46113">
        <ele>2250</ele>
        <time>2021-08-13T07:22:37.156Z</time>
      </trkpt>
      <trkpt lat="46.84677" lon="8.46112">
        <ele>2249</ele>
        <time>2021-08-13T07:22:38.156Z</time>
      </trkpt>
      <trkpt lat="46.84676" lon="8.4611">
        <ele>2249</ele>
        <time>2021-08-13T07:22:39.156Z</time>
      </trkpt>
      <trkpt lat="46.84676" lon="8.46109">
        <ele>2248</ele>
        <time>2021-08-13T07:22:40.155Z</time>
      </trkpt>
      <trkpt lat="46.84676" lon="8.46108">
        <ele>2248</ele>
        <time>2021-08-13T07:22:41.155Z</time>
      </trkpt>
      <trkpt lat="46.84676" lon="8.46107">
        <ele>2248</ele>
        <time>2021-08-13T07:22:42.155Z</time>
      </trkpt>
      <trkpt lat="46.84677" lon="8.46106">
        <ele>2248</ele>
        <time>2021-08-13T07:22:43.155Z</time>
      </trkpt>
      <trkpt lat="46.84677" lon="8.46105">
        <ele>2247</ele>
        <time>2021-08-13T07:22:44.155Z</time>
      </trkpt>
      <trkpt lat="46.84677" lon="8.46104">
        <ele>2247</ele>
        <time>2021-08-13T07:22:45.155Z</time>
      </trkpt>
      <trkpt lat="46.84678" lon="8.46102">
        <ele>2247</ele>
        <time>2021-08-13T07:22:46.155Z</time>
      </trkpt>
      <trkpt lat="46.84677" lon="8.46101">
        <ele>2247</ele>
        <time>2021-08-13T07:22:47.155Z</time>
      </trkpt>
      <trkpt lat="46.84677" lon="8.461">
        <ele>2247</ele>
        <time>2021-08-13T07:22:48.155Z</time>
      </trkpt>
      <trkpt lat="46.84677" lon="8.46099">
        <ele>2248</ele>
        <time>2021-08-13T07:22:49.155Z</time>
      </trkpt>
      <trkpt lat="46.84678" lon="8.46097">
        <ele>2248</ele>
        <time>2021-08-13T07:22:50.155Z</time>
      </trkpt>
      <trkpt lat="46.84678" lon="8.46096">
        <ele>2248</ele>
        <time>2021-08-13T07:22:51.155Z</time>
      </trkpt>
      <trkpt lat="46.84679" lon="8.46095">
        <ele>2248</ele>
        <time>2021-08-13T07:22:52.155Z</time>
      </trkpt>
      <trkpt lat="46.84679" lon="8.46094">
        <ele>2248</ele>
        <time>2021-08-13T07:22:53.155Z</time>
      </trkpt>
      <trkpt lat="46.84679" lon="8.46092">
        <ele>2248</ele>
        <time>2021-08-13T07:22:54.155Z</time>
      </trkpt>
      <trkpt lat="46.84679" lon="8.46091">
        <ele>2248</ele>
        <time>2021-08-13T07:22:55.156Z</time>
      </trkpt>
      <trkpt lat="46.8468" lon="8.46089">
        <ele>2247</ele>
        <time>2021-08-13T07:22:56.155Z</time>
      </trkpt>
      <trkpt lat="46.8468" lon="8.46088">
        <ele>2247</ele>
        <time>2021-08-13T07:22:57.155Z</time>
      </trkpt>
      <trkpt lat="46.8468" lon="8.46087">
        <ele>2247</ele>
        <time>2021-08-13T07:22:58.156Z</time>
      </trkpt>
      <trkpt lat="46.8468" lon="8.46087">
        <ele>2247</ele>
        <time>2021-08-13T07:22:59.155Z</time>
      </trkpt>
      <trkpt lat="46.8468" lon="8.46085">
        <ele>2248</ele>
        <time>2021-08-13T07:23:00.156Z</time>
      </trkpt>
      <trkpt lat="46.8468" lon="8.46084">
        <ele>2248</ele>
        <time>2021-08-13T07:23:01.155Z</time>
      </trkpt>
      <trkpt lat="46.8468" lon="8.46083">
        <ele>2248</ele>
        <time>2021-08-13T07:23:02.156Z</time>
      </trkpt>
      <trkpt lat="46.8468" lon="8.46083">
        <ele>2249</ele>
        <time>2021-08-13T07:23:03.155Z</time>
      </trkpt>
      <trkpt lat="46.8468" lon="8.46083">
        <ele>2249</ele>
        <time>2021-08-13T07:23:04.155Z</time>
      </trkpt>
      <trkpt lat="46.8468" lon="8.46083">
        <ele>2242</ele>
        <time>2021-08-13T07:23:05.157Z</time>
      </trkpt>
      <trkpt lat="46.8468" lon="8.4608">
        <ele>2244</ele>
        <time>2021-08-13T07:23:06.158Z</time>
      </trkpt>
      <trkpt lat="46.8468" lon="8.46078">
        <ele>2243</ele>
        <time>2021-08-13T07:23:07.157Z</time>
      </trkpt>
      <trkpt lat="46.8468" lon="8.46077">
        <ele>2244</ele>
        <time>2021-08-13T07:23:08.158Z</time>
      </trkpt>
      <trkpt lat="46.8468" lon="8.46075">
        <ele>2244</ele>
        <time>2021-08-13T07:23:09.158Z</time>
      </trkpt>
      <trkpt lat="46.8468" lon="8.46074">
        <ele>2244</ele>
        <time>2021-08-13T07:23:10.158Z</time>
      </trkpt>
      <trkpt lat="46.8468" lon="8.46073">
        <ele>2244</ele>
        <time>2021-08-13T07:23:11.158Z</time>
      </trkpt>
      <trkpt lat="46.8468" lon="8.46071">
        <ele>2244</ele>
        <time>2021-08-13T07:23:12.158Z</time>
      </trkpt>
      <trkpt lat="46.84679" lon="8.4607">
        <ele>2244</ele>
        <time>2021-08-13T07:23:13.158Z</time>
      </trkpt>
      <trkpt lat="46.84679" lon="8.46069">
        <ele>2244</ele>
        <time>2021-08-13T07:23:14.157Z</time>
      </trkpt>
      <trkpt lat="46.8468" lon="8.46068">
        <ele>2244</ele>
        <time>2021-08-13T07:23:15.158Z</time>
      </trkpt>
      <trkpt lat="46.8468" lon="8.46066">
        <ele>2243</ele>
        <time>2021-08-13T07:23:16.158Z</time>
      </trkpt>
      <trkpt lat="46.8468" lon="8.46065">
        <ele>2243</ele>
        <time>2021-08-13T07:23:17.158Z</time>
      </trkpt>
      <trkpt lat="46.84681" lon="8.46063">
        <ele>2243</ele>
        <time>2021-08-13T07:23:18.158Z</time>
      </trkpt>
      <trkpt lat="46.84681" lon="8.46062">
        <ele>2243</ele>
        <time>2021-08-13T07:23:19.158Z</time>
      </trkpt>
      <trkpt lat="46.84681" lon="8.46061">
        <ele>2243</ele>
        <time>2021-08-13T07:23:20.158Z</time>
      </trkpt>
      <trkpt lat="46.84681" lon="8.4606">
        <ele>2242</ele>
        <time>2021-08-13T07:23:21.158Z</time>
      </trkpt>
      <trkpt lat="46.84681" lon="8.46058">
        <ele>2242</ele>
        <time>2021-08-13T07:23:22.157Z</time>
      </trkpt>
      <trkpt lat="46.84681" lon="8.46057">
        <ele>2242</ele>
        <time>2021-08-13T07:23:23.158Z</time>
      </trkpt>
      <trkpt lat="46.84681" lon="8.46055">
        <ele>2241</ele>
        <time>2021-08-13T07:23:24.158Z</time>
      </trkpt>
      <trkpt lat="46.84682" lon="8.46054">
        <ele>2242</ele>
        <time>2021-08-13T07:23:25.158Z</time>
      </trkpt>
      <trkpt lat="46.84682" lon="8.46052">
        <ele>2242</ele>
        <time>2021-08-13T07:23:26.158Z</time>
      </trkpt>
      <trkpt lat="46.84682" lon="8.46051">
        <ele>2242</ele>
        <time>2021-08-13T07:23:27.157Z</time>
      </trkpt>
      <trkpt lat="46.84683" lon="8.46049">
        <ele>2243</ele>
        <time>2021-08-13T07:23:28.158Z</time>
      </trkpt>
      <trkpt lat="46.84683" lon="8.46048">
        <ele>2243</ele>
        <time>2021-08-13T07:23:29.157Z</time>
      </trkpt>
      <trkpt lat="46.84684" lon="8.46047">
        <ele>2243</ele>
        <time>2021-08-13T07:23:30.158Z</time>
      </trkpt>
      <trkpt lat="46.84683" lon="8.46045">
        <ele>2243</ele>
        <time>2021-08-13T07:23:31.157Z</time>
      </trkpt>
      <trkpt lat="46.84683" lon="8.46043">
        <ele>2242</ele>
        <time>2021-08-13T07:23:32.157Z</time>
      </trkpt>
      <trkpt lat="46.84684" lon="8.46042">
        <ele>2242</ele>
        <time>2021-08-13T07:23:33.157Z</time>
      </trkpt>
      <trkpt lat="46.84684" lon="8.4604">
        <ele>2241</ele>
        <time>2021-08-13T07:23:34.157Z</time>
      </trkpt>
      <trkpt lat="46.84685" lon="8.46039">
        <ele>2241</ele>
        <time>2021-08-13T07:23:35.157Z</time>
      </trkpt>
      <trkpt lat="46.84685" lon="8.46037">
        <ele>2240</ele>
        <time>2021-08-13T07:23:36.158Z</time>
      </trkpt>
      <trkpt lat="46.84685" lon="8.46035">
        <ele>2239</ele>
        <time>2021-08-13T07:23:37.158Z</time>
      </trkpt>
      <trkpt lat="46.84685" lon="8.46033">
        <ele>2238</ele>
        <time>2021-08-13T07:23:38.157Z</time>
      </trkpt>
      <trkpt lat="46.84685" lon="8.46032">
        <ele>2238</ele>
        <time>2021-08-13T07:23:39.157Z</time>
      </trkpt>
      <trkpt lat="46.84685" lon="8.46031">
        <ele>2237</ele>
        <time>2021-08-13T07:23:40.157Z</time>
      </trkpt>
      <trkpt lat="46.84685" lon="8.46031">
        <ele>2237</ele>
        <time>2021-08-13T07:23:41.157Z</time>
      </trkpt>
      <trkpt lat="46.84685" lon="8.4603">
        <ele>2236</ele>
        <time>2021-08-13T07:23:42.157Z</time>
      </trkpt>
      <trkpt lat="46.84686" lon="8.46029">
        <ele>2236</ele>
        <time>2021-08-13T07:23:43.158Z</time>
      </trkpt>
      <trkpt lat="46.84686" lon="8.46029">
        <ele>2235</ele>
        <time>2021-08-13T07:23:44.157Z</time>
      </trkpt>
      <trkpt lat="46.84686" lon="8.46028">
        <ele>2235</ele>
        <time>2021-08-13T07:23:45.158Z</time>
      </trkpt>
      <trkpt lat="46.84687" lon="8.46027">
        <ele>2235</ele>
        <time>2021-08-13T07:23:46.157Z</time>
      </trkpt>
      <trkpt lat="46.84687" lon="8.46025">
        <ele>2235</ele>
        <time>2021-08-13T07:23:47.158Z</time>
      </trkpt>
      <trkpt lat="46.84687" lon="8.46024">
        <ele>2235</ele>
        <time>2021-08-13T07:23:48.157Z</time>
      </trkpt>
      <trkpt lat="46.84687" lon="8.46023">
        <ele>2235</ele>
        <time>2021-08-13T07:23:49.158Z</time>
      </trkpt>
      <trkpt lat="46.84687" lon="8.46021">
        <ele>2235</ele>
        <time>2021-08-13T07:23:50.157Z</time>
      </trkpt>
      <trkpt lat="46.84687" lon="8.46019">
        <ele>2235</ele>
        <time>2021-08-13T07:23:51.157Z</time>
      </trkpt>
      <trkpt lat="46.84687" lon="8.46018">
        <ele>2235</ele>
        <time>2021-08-13T07:23:52.158Z</time>
      </trkpt>
      <trkpt lat="46.84688" lon="8.46017">
        <ele>2235</ele>
        <time>2021-08-13T07:23:53.157Z</time>
      </trkpt>
      <trkpt lat="46.84688" lon="8.46016">
        <ele>2236</ele>
        <time>2021-08-13T07:23:54.157Z</time>
      </trkpt>
      <trkpt lat="46.84689" lon="8.46015">
        <ele>2236</ele>
        <time>2021-08-13T07:23:55.157Z</time>
      </trkpt>
      <trkpt lat="46.84689" lon="8.46014">
        <ele>2236</ele>
        <time>2021-08-13T07:23:56.157Z</time>
      </trkpt>
      <trkpt lat="46.8469" lon="8.46013">
        <ele>2236</ele>
        <time>2021-08-13T07:23:57.157Z</time>
      </trkpt>
      <trkpt lat="46.8469" lon="8.46012">
        <ele>2236</ele>
        <time>2021-08-13T07:23:58.158Z</time>
      </trkpt>
      <trkpt lat="46.84691" lon="8.46012">
        <ele>2235</ele>
        <time>2021-08-13T07:23:59.158Z</time>
      </trkpt>
      <trkpt lat="46.84692" lon="8.46011">
        <ele>2234</ele>
        <time>2021-08-13T07:24:00.157Z</time>
      </trkpt>
      <trkpt lat="46.84693" lon="8.4601">
        <ele>2234</ele>
        <time>2021-08-13T07:24:01.158Z</time>
      </trkpt>
      <trkpt lat="46.84693" lon="8.4601">
        <ele>2233</ele>
        <time>2021-08-13T07:24:02.157Z</time>
      </trkpt>
      <trkpt lat="46.84694" lon="8.46009">
        <ele>2232</ele>
        <time>2021-08-13T07:24:03.157Z</time>
      </trkpt>
      <trkpt lat="46.84695" lon="8.46009">
        <ele>2231</ele>
        <time>2021-08-13T07:24:04.157Z</time>
      </trkpt>
      <trkpt lat="46.84696" lon="8.46009">
        <ele>2230</ele>
        <time>2021-08-13T07:24:05.157Z</time>
      </trkpt>
      <trkpt lat="46.84697" lon="8.46009">
        <ele>2230</ele>
        <time>2021-08-13T07:24:06.158Z</time>
      </trkpt>
      <trkpt lat="46.84698" lon="8.46009">
        <ele>2229</ele>
        <time>2021-08-13T07:24:07.157Z</time>
      </trkpt>
      <trkpt lat="46.84699" lon="8.46008">
        <ele>2228</ele>
        <time>2021-08-13T07:24:08.158Z</time>
      </trkpt>
      <trkpt lat="46.847" lon="8.46008">
        <ele>2228</ele>
        <time>2021-08-13T07:24:09.157Z</time>
      </trkpt>
      <trkpt lat="46.847" lon="8.46007">
        <ele>2227</ele>
        <time>2021-08-13T07:24:10.157Z</time>
      </trkpt>
      <trkpt lat="46.84701" lon="8.46006">
        <ele>2227</ele>
        <time>2021-08-13T07:24:11.157Z</time>
      </trkpt>
      <trkpt lat="46.84702" lon="8.46006">
        <ele>2226</ele>
        <time>2021-08-13T07:24:12.157Z</time>
      </trkpt>
      <trkpt lat="46.84704" lon="8.46005">
        <ele>2226</ele>
        <time>2021-08-13T07:24:13.157Z</time>
      </trkpt>
      <trkpt lat="46.84704" lon="8.46004">
        <ele>2226</ele>
        <time>2021-08-13T07:24:14.158Z</time>
      </trkpt>
      <trkpt lat="46.84705" lon="8.46004">
        <ele>2225</ele>
        <time>2021-08-13T07:24:15.157Z</time>
      </trkpt>
      <trkpt lat="46.84706" lon="8.46003">
        <ele>2225</ele>
        <time>2021-08-13T07:24:16.157Z</time>
      </trkpt>
      <trkpt lat="46.84706" lon="8.46002">
        <ele>2225</ele>
        <time>2021-08-13T07:24:17.157Z</time>
      </trkpt>
      <trkpt lat="46.84707" lon="8.46001">
        <ele>2225</ele>
        <time>2021-08-13T07:24:18.157Z</time>
      </trkpt>
      <trkpt lat="46.84708" lon="8.46">
        <ele>2225</ele>
        <time>2021-08-13T07:24:19.158Z</time>
      </trkpt>
      <trkpt lat="46.84709" lon="8.46">
        <ele>2224</ele>
        <time>2021-08-13T07:24:20.158Z</time>
      </trkpt>
      <trkpt lat="46.84709" lon="8.45999">
        <ele>2224</ele>
        <time>2021-08-13T07:24:21.157Z</time>
      </trkpt>
      <trkpt lat="46.8471" lon="8.45997">
        <ele>2224</ele>
        <time>2021-08-13T07:24:22.157Z</time>
      </trkpt>
      <trkpt lat="46.8471" lon="8.45996">
        <ele>2224</ele>
        <time>2021-08-13T07:24:23.157Z</time>
      </trkpt>
      <trkpt lat="46.84711" lon="8.45996">
        <ele>2224</ele>
        <time>2021-08-13T07:24:24.158Z</time>
      </trkpt>
      <trkpt lat="46.84711" lon="8.45995">
        <ele>2224</ele>
        <time>2021-08-13T07:24:25.157Z</time>
      </trkpt>
      <trkpt lat="46.84712" lon="8.45994">
        <ele>2224</ele>
        <time>2021-08-13T07:24:26.157Z</time>
      </trkpt>
      <trkpt lat="46.84712" lon="8.45993">
        <ele>2224</ele>
        <time>2021-08-13T07:24:27.157Z</time>
      </trkpt>
      <trkpt lat="46.84713" lon="8.45992">
        <ele>2224</ele>
        <time>2021-08-13T07:24:28.157Z</time>
      </trkpt>
      <trkpt lat="46.84713" lon="8.45991">
        <ele>2224</ele>
        <time>2021-08-13T07:24:29.158Z</time>
      </trkpt>
      <trkpt lat="46.84714" lon="8.4599">
        <ele>2224</ele>
        <time>2021-08-13T07:24:30.158Z</time>
      </trkpt>
      <trkpt lat="46.84714" lon="8.45988">
        <ele>2224</ele>
        <time>2021-08-13T07:24:31.158Z</time>
      </trkpt>
      <trkpt lat="46.84715" lon="8.45987">
        <ele>2224</ele>
        <time>2021-08-13T07:24:32.157Z</time>
      </trkpt>
      <trkpt lat="46.84716" lon="8.45986">
        <ele>2224</ele>
        <time>2021-08-13T07:24:33.157Z</time>
      </trkpt>
      <trkpt lat="46.84716" lon="8.45984">
        <ele>2224</ele>
        <time>2021-08-13T07:24:34.157Z</time>
      </trkpt>
      <trkpt lat="46.84716" lon="8.45982">
        <ele>2224</ele>
        <time>2021-08-13T07:24:35.158Z</time>
      </trkpt>
      <trkpt lat="46.84716" lon="8.45981">
        <ele>2224</ele>
        <time>2021-08-13T07:24:36.158Z</time>
      </trkpt>
      <trkpt lat="46.84716" lon="8.4598">
        <ele>2224</ele>
        <time>2021-08-13T07:24:37.157Z</time>
      </trkpt>
      <trkpt lat="46.84716" lon="8.45979">
        <ele>2224</ele>
        <time>2021-08-13T07:24:38.157Z</time>
      </trkpt>
      <trkpt lat="46.84716" lon="8.45977">
        <ele>2224</ele>
        <time>2021-08-13T07:24:39.157Z</time>
      </trkpt>
      <trkpt lat="46.84717" lon="8.45976">
        <ele>2224</ele>
        <time>2021-08-13T07:24:40.157Z</time>
      </trkpt>
      <trkpt lat="46.84717" lon="8.45975">
        <ele>2224</ele>
        <time>2021-08-13T07:24:41.157Z</time>
      </trkpt>
      <trkpt lat="46.84718" lon="8.45974">
        <ele>2224</ele>
        <time>2021-08-13T07:24:42.157Z</time>
      </trkpt>
      <trkpt lat="46.84718" lon="8.45972">
        <ele>2224</ele>
        <time>2021-08-13T07:24:43.157Z</time>
      </trkpt>
      <trkpt lat="46.84718" lon="8.45971">
        <ele>2224</ele>
        <time>2021-08-13T07:24:44.157Z</time>
      </trkpt>
      <trkpt lat="46.84719" lon="8.4597">
        <ele>2224</ele>
        <time>2021-08-13T07:24:45.157Z</time>
      </trkpt>
      <trkpt lat="46.84719" lon="8.45969">
        <ele>2224</ele>
        <time>2021-08-13T07:24:46.158Z</time>
      </trkpt>
      <trkpt lat="46.84719" lon="8.45968">
        <ele>2224</ele>
        <time>2021-08-13T07:24:47.157Z</time>
      </trkpt>
      <trkpt lat="46.8472" lon="8.45967">
        <ele>2224</ele>
        <time>2021-08-13T07:24:48.158Z</time>
      </trkpt>
      <trkpt lat="46.8472" lon="8.45966">
        <ele>2223</ele>
        <time>2021-08-13T07:24:49.158Z</time>
      </trkpt>
      <trkpt lat="46.84721" lon="8.45965">
        <ele>2223</ele>
        <time>2021-08-13T07:24:50.158Z</time>
      </trkpt>
      <trkpt lat="46.84721" lon="8.45964">
        <ele>2222</ele>
        <time>2021-08-13T07:24:51.157Z</time>
      </trkpt>
      <trkpt lat="46.84721" lon="8.45963">
        <ele>2222</ele>
        <time>2021-08-13T07:24:52.157Z</time>
      </trkpt>
      <trkpt lat="46.84722" lon="8.45962">
        <ele>2222</ele>
        <time>2021-08-13T07:24:53.158Z</time>
      </trkpt>
      <trkpt lat="46.84722" lon="8.45961">
        <ele>2222</ele>
        <time>2021-08-13T07:24:54.158Z</time>
      </trkpt>
      <trkpt lat="46.84723" lon="8.45961">
        <ele>2223</ele>
        <time>2021-08-13T07:24:55.157Z</time>
      </trkpt>
      <trkpt lat="46.84723" lon="8.4596">
        <ele>2223</ele>
        <time>2021-08-13T07:24:56.157Z</time>
      </trkpt>
      <trkpt lat="46.84723" lon="8.45959">
        <ele>2223</ele>
        <time>2021-08-13T07:24:57.157Z</time>
      </trkpt>
      <trkpt lat="46.84724" lon="8.45958">
        <ele>2223</ele>
        <time>2021-08-13T07:24:58.157Z</time>
      </trkpt>
      <trkpt lat="46.84724" lon="8.45957">
        <ele>2223</ele>
        <time>2021-08-13T07:24:59.158Z</time>
      </trkpt>
      <trkpt lat="46.84724" lon="8.45957">
        <ele>2223</ele>
        <time>2021-08-13T07:25:00.157Z</time>
      </trkpt>
      <trkpt lat="46.84725" lon="8.45956">
        <ele>2222</ele>
        <time>2021-08-13T07:25:01.157Z</time>
      </trkpt>
      <trkpt lat="46.84725" lon="8.45956">
        <ele>2222</ele>
        <time>2021-08-13T07:25:02.157Z</time>
      </trkpt>
      <trkpt lat="46.84725" lon="8.45956">
        <ele>2222</ele>
        <time>2021-08-13T07:25:03.157Z</time>
      </trkpt>
      <trkpt lat="46.84725" lon="8.45955">
        <ele>2222</ele>
        <time>2021-08-13T07:25:04.157Z</time>
      </trkpt>
      <trkpt lat="46.84726" lon="8.45954">
        <ele>2221</ele>
        <time>2021-08-13T07:25:05.157Z</time>
      </trkpt>
      <trkpt lat="46.84726" lon="8.45954">
        <ele>2221</ele>
        <time>2021-08-13T07:25:06.157Z</time>
      </trkpt>
      <trkpt lat="46.84727" lon="8.45953">
        <ele>2215</ele>
        <time>2021-08-13T07:25:07.158Z</time>
      </trkpt>
      <trkpt lat="46.84727" lon="8.45952">
        <ele>2214</ele>
        <time>2021-08-13T07:25:08.158Z</time>
      </trkpt>
      <trkpt lat="46.84727" lon="8.45951">
        <ele>2214</ele>
        <time>2021-08-13T07:25:09.158Z</time>
      </trkpt>
      <trkpt lat="46.84727" lon="8.4595">
        <ele>2214</ele>
        <time>2021-08-13T07:25:10.158Z</time>
      </trkpt>
      <trkpt lat="46.84727" lon="8.45949">
        <ele>2214</ele>
        <time>2021-08-13T07:25:11.158Z</time>
      </trkpt>
      <trkpt lat="46.84727" lon="8.45948">
        <ele>2214</ele>
        <time>2021-08-13T07:25:12.158Z</time>
      </trkpt>
      <trkpt lat="46.84727" lon="8.45947">
        <ele>2214</ele>
        <time>2021-08-13T07:25:13.158Z</time>
      </trkpt>
      <trkpt lat="46.84727" lon="8.45946">
        <ele>2213</ele>
        <time>2021-08-13T07:25:14.158Z</time>
      </trkpt>
      <trkpt lat="46.84727" lon="8.45945">
        <ele>2213</ele>
        <time>2021-08-13T07:25:15.158Z</time>
      </trkpt>
      <trkpt lat="46.84727" lon="8.45943">
        <ele>2213</ele>
        <time>2021-08-13T07:25:16.158Z</time>
      </trkpt>
      <trkpt lat="46.84727" lon="8.45942">
        <ele>2213</ele>
        <time>2021-08-13T07:25:17.158Z</time>
      </trkpt>
      <trkpt lat="46.84727" lon="8.45941">
        <ele>2213</ele>
        <time>2021-08-13T07:25:18.158Z</time>
      </trkpt>
      <trkpt lat="46.84726" lon="8.4594">
        <ele>2213</ele>
        <time>2021-08-13T07:25:19.158Z</time>
      </trkpt>
      <trkpt lat="46.84726" lon="8.45938">
        <ele>2212</ele>
        <time>2021-08-13T07:25:20.159Z</time>
      </trkpt>
      <trkpt lat="46.84726" lon="8.45936">
        <ele>2212</ele>
        <time>2021-08-13T07:25:21.158Z</time>
      </trkpt>
      <trkpt lat="46.84726" lon="8.45935">
        <ele>2212</ele>
        <time>2021-08-13T07:25:22.159Z</time>
      </trkpt>
      <trkpt lat="46.84726" lon="8.45934">
        <ele>2212</ele>
        <time>2021-08-13T07:25:23.158Z</time>
      </trkpt>
      <trkpt lat="46.84726" lon="8.45933">
        <ele>2212</ele>
        <time>2021-08-13T07:25:24.158Z</time>
      </trkpt>
      <trkpt lat="46.84726" lon="8.45931">
        <ele>2212</ele>
        <time>2021-08-13T07:25:25.159Z</time>
      </trkpt>
      <trkpt lat="46.84726" lon="8.4593">
        <ele>2212</ele>
        <time>2021-08-13T07:25:26.158Z</time>
      </trkpt>
      <trkpt lat="46.84726" lon="8.45929">
        <ele>2212</ele>
        <time>2021-08-13T07:25:27.159Z</time>
      </trkpt>
      <trkpt lat="46.84726" lon="8.45928">
        <ele>2211</ele>
        <time>2021-08-13T07:25:28.158Z</time>
      </trkpt>
      <trkpt lat="46.84726" lon="8.45927">
        <ele>2211</ele>
        <time>2021-08-13T07:25:29.158Z</time>
      </trkpt>
      <trkpt lat="46.84726" lon="8.45926">
        <ele>2211</ele>
        <time>2021-08-13T07:25:30.158Z</time>
      </trkpt>
      <trkpt lat="46.84726" lon="8.45925">
        <ele>2212</ele>
        <time>2021-08-13T07:25:31.158Z</time>
      </trkpt>
      <trkpt lat="46.84727" lon="8.45924">
        <ele>2212</ele>
        <time>2021-08-13T07:25:32.158Z</time>
      </trkpt>
      <trkpt lat="46.84727" lon="8.45923">
        <ele>2212</ele>
        <time>2021-08-13T07:25:33.159Z</time>
      </trkpt>
      <trkpt lat="46.84728" lon="8.45921">
        <ele>2212</ele>
        <time>2021-08-13T07:25:34.158Z</time>
      </trkpt>
      <trkpt lat="46.84728" lon="8.4592">
        <ele>2212</ele>
        <time>2021-08-13T07:25:35.158Z</time>
      </trkpt>
      <trkpt lat="46.84728" lon="8.45918">
        <ele>2212</ele>
        <time>2021-08-13T07:25:36.158Z</time>
      </trkpt>
      <trkpt lat="46.84728" lon="8.45917">
        <ele>2213</ele>
        <time>2021-08-13T07:25:37.158Z</time>
      </trkpt>
      <trkpt lat="46.84729" lon="8.45916">
        <ele>2213</ele>
        <time>2021-08-13T07:25:38.158Z</time>
      </trkpt>
      <trkpt lat="46.84729" lon="8.45914">
        <ele>2213</ele>
        <time>2021-08-13T07:25:39.158Z</time>
      </trkpt>
      <trkpt lat="46.8473" lon="8.45913">
        <ele>2213</ele>
        <time>2021-08-13T07:25:40.158Z</time>
      </trkpt>
      <trkpt lat="46.8473" lon="8.45912">
        <ele>2213</ele>
        <time>2021-08-13T07:25:41.159Z</time>
      </trkpt>
      <trkpt lat="46.84731" lon="8.45911">
        <ele>2212</ele>
        <time>2021-08-13T07:25:42.158Z</time>
      </trkpt>
      <trkpt lat="46.84731" lon="8.45909">
        <ele>2211</ele>
        <time>2021-08-13T07:25:43.158Z</time>
      </trkpt>
      <trkpt lat="46.84732" lon="8.45907">
        <ele>2211</ele>
        <time>2021-08-13T07:25:44.158Z</time>
      </trkpt>
      <trkpt lat="46.84733" lon="8.45906">
        <ele>2211</ele>
        <time>2021-08-13T07:25:45.158Z</time>
      </trkpt>
      <trkpt lat="46.84734" lon="8.45905">
        <ele>2210</ele>
        <time>2021-08-13T07:25:46.159Z</time>
      </trkpt>
      <trkpt lat="46.84734" lon="8.45904">
        <ele>2210</ele>
        <time>2021-08-13T07:25:47.158Z</time>
      </trkpt>
      <trkpt lat="46.84735" lon="8.45903">
        <ele>2210</ele>
        <time>2021-08-13T07:25:48.158Z</time>
      </trkpt>
      <trkpt lat="46.84735" lon="8.45902">
        <ele>2210</ele>
        <time>2021-08-13T07:25:49.158Z</time>
      </trkpt>
      <trkpt lat="46.84736" lon="8.45902">
        <ele>2210</ele>
        <time>2021-08-13T07:25:50.158Z</time>
      </trkpt>
      <trkpt lat="46.84736" lon="8.45901">
        <ele>2210</ele>
        <time>2021-08-13T07:25:51.159Z</time>
      </trkpt>
      <trkpt lat="46.84736" lon="8.45899">
        <ele>2210</ele>
        <time>2021-08-13T07:25:52.158Z</time>
      </trkpt>
      <trkpt lat="46.84737" lon="8.45898">
        <ele>2210</ele>
        <time>2021-08-13T07:25:53.158Z</time>
      </trkpt>
      <trkpt lat="46.84737" lon="8.45897">
        <ele>2210</ele>
        <time>2021-08-13T07:25:54.159Z</time>
      </trkpt>
      <trkpt lat="46.84738" lon="8.45896">
        <ele>2210</ele>
        <time>2021-08-13T07:25:55.158Z</time>
      </trkpt>
      <trkpt lat="46.84738" lon="8.45896">
        <ele>2210</ele>
        <time>2021-08-13T07:25:56.159Z</time>
      </trkpt>
      <trkpt lat="46.84739" lon="8.45895">
        <ele>2209</ele>
        <time>2021-08-13T07:25:57.159Z</time>
      </trkpt>
      <trkpt lat="46.8474" lon="8.45894">
        <ele>2209</ele>
        <time>2021-08-13T07:25:58.158Z</time>
      </trkpt>
      <trkpt lat="46.8474" lon="8.45893">
        <ele>2209</ele>
        <time>2021-08-13T07:25:59.159Z</time>
      </trkpt>
      <trkpt lat="46.84741" lon="8.45893">
        <ele>2209</ele>
        <time>2021-08-13T07:26:00.158Z</time>
      </trkpt>
      <trkpt lat="46.84741" lon="8.45892">
        <ele>2209</ele>
        <time>2021-08-13T07:26:01.158Z</time>
      </trkpt>
      <trkpt lat="46.84741" lon="8.45891">
        <ele>2209</ele>
        <time>2021-08-13T07:26:02.158Z</time>
      </trkpt>
      <trkpt lat="46.84742" lon="8.4589">
        <ele>2209</ele>
        <time>2021-08-13T07:26:03.158Z</time>
      </trkpt>
      <trkpt lat="46.84744" lon="8.4589">
        <ele>2208</ele>
        <time>2021-08-13T07:26:04.158Z</time>
      </trkpt>
      <trkpt lat="46.84745" lon="8.45889">
        <ele>2208</ele>
        <time>2021-08-13T07:26:05.158Z</time>
      </trkpt>
      <trkpt lat="46.84746" lon="8.45888">
        <ele>2208</ele>
        <time>2021-08-13T07:26:06.158Z</time>
      </trkpt>
      <trkpt lat="46.84747" lon="8.45887">
        <ele>2209</ele>
        <time>2021-08-13T07:26:07.158Z</time>
      </trkpt>
      <trkpt lat="46.84748" lon="8.45886">
        <ele>2209</ele>
        <time>2021-08-13T07:26:08.158Z</time>
      </trkpt>
      <trkpt lat="46.84748" lon="8.45885">
        <ele>2209</ele>
        <time>2021-08-13T07:26:09.159Z</time>
      </trkpt>
      <trkpt lat="46.84748" lon="8.45884">
        <ele>2209</ele>
        <time>2021-08-13T07:26:10.159Z</time>
      </trkpt>
      <trkpt lat="46.84748" lon="8.45882">
        <ele>2209</ele>
        <time>2021-08-13T07:26:11.158Z</time>
      </trkpt>
      <trkpt lat="46.84748" lon="8.45881">
        <ele>2209</ele>
        <time>2021-08-13T07:26:12.158Z</time>
      </trkpt>
      <trkpt lat="46.84748" lon="8.45879">
        <ele>2209</ele>
        <time>2021-08-13T07:26:13.159Z</time>
      </trkpt>
      <trkpt lat="46.84748" lon="8.45878">
        <ele>2209</ele>
        <time>2021-08-13T07:26:14.158Z</time>
      </trkpt>
      <trkpt lat="46.84748" lon="8.45877">
        <ele>2209</ele>
        <time>2021-08-13T07:26:15.158Z</time>
      </trkpt>
      <trkpt lat="46.84748" lon="8.45876">
        <ele>2209</ele>
        <time>2021-08-13T07:26:16.158Z</time>
      </trkpt>
      <trkpt lat="46.84749" lon="8.45874">
        <ele>2208</ele>
        <time>2021-08-13T07:26:17.158Z</time>
      </trkpt>
      <trkpt lat="46.84749" lon="8.45873">
        <ele>2208</ele>
        <time>2021-08-13T07:26:18.158Z</time>
      </trkpt>
      <trkpt lat="46.84749" lon="8.45871">
        <ele>2208</ele>
        <time>2021-08-13T07:26:19.158Z</time>
      </trkpt>
      <trkpt lat="46.84749" lon="8.45868">
        <ele>2208</ele>
        <time>2021-08-13T07:26:20.158Z</time>
      </trkpt>
      <trkpt lat="46.84748" lon="8.45866">
        <ele>2207</ele>
        <time>2021-08-13T07:26:21.158Z</time>
      </trkpt>
      <trkpt lat="46.84748" lon="8.45865">
        <ele>2207</ele>
        <time>2021-08-13T07:26:22.158Z</time>
      </trkpt>
      <trkpt lat="46.84747" lon="8.45864">
        <ele>2207</ele>
        <time>2021-08-13T07:26:23.158Z</time>
      </trkpt>
      <trkpt lat="46.84746" lon="8.45862">
        <ele>2208</ele>
        <time>2021-08-13T07:26:24.158Z</time>
      </trkpt>
      <trkpt lat="46.84745" lon="8.4586">
        <ele>2208</ele>
        <time>2021-08-13T07:26:25.158Z</time>
      </trkpt>
      <trkpt lat="46.84744" lon="8.45859">
        <ele>2207</ele>
        <time>2021-08-13T07:26:26.159Z</time>
      </trkpt>
      <trkpt lat="46.84743" lon="8.45857">
        <ele>2207</ele>
        <time>2021-08-13T07:26:27.158Z</time>
      </trkpt>
      <trkpt lat="46.84743" lon="8.45857">
        <ele>2207</ele>
        <time>2021-08-13T07:26:28.159Z</time>
      </trkpt>
      <trkpt lat="46.84743" lon="8.45855">
        <ele>2207</ele>
        <time>2021-08-13T07:26:29.158Z</time>
      </trkpt>
      <trkpt lat="46.84743" lon="8.45854">
        <ele>2207</ele>
        <time>2021-08-13T07:26:30.158Z</time>
      </trkpt>
      <trkpt lat="46.84742" lon="8.45853">
        <ele>2208</ele>
        <time>2021-08-13T07:26:31.158Z</time>
      </trkpt>
      <trkpt lat="46.84742" lon="8.45852">
        <ele>2208</ele>
        <time>2021-08-13T07:26:32.158Z</time>
      </trkpt>
      <trkpt lat="46.84741" lon="8.4585">
        <ele>2208</ele>
        <time>2021-08-13T07:26:33.158Z</time>
      </trkpt>
      <trkpt lat="46.8474" lon="8.45848">
        <ele>2208</ele>
        <time>2021-08-13T07:26:34.158Z</time>
      </trkpt>
      <trkpt lat="46.8474" lon="8.45847">
        <ele>2208</ele>
        <time>2021-08-13T07:26:35.158Z</time>
      </trkpt>
      <trkpt lat="46.8474" lon="8.45845">
        <ele>2208</ele>
        <time>2021-08-13T07:26:36.158Z</time>
      </trkpt>
      <trkpt lat="46.84739" lon="8.45844">
        <ele>2209</ele>
        <time>2021-08-13T07:26:37.158Z</time>
      </trkpt>
      <trkpt lat="46.84738" lon="8.45843">
        <ele>2209</ele>
        <time>2021-08-13T07:26:38.159Z</time>
      </trkpt>
      <trkpt lat="46.84738" lon="8.45841">
        <ele>2208</ele>
        <time>2021-08-13T07:26:39.158Z</time>
      </trkpt>
      <trkpt lat="46.84737" lon="8.4584">
        <ele>2208</ele>
        <time>2021-08-13T07:26:40.158Z</time>
      </trkpt>
      <trkpt lat="46.84737" lon="8.4584">
        <ele>2208</ele>
        <time>2021-08-13T07:26:41.158Z</time>
      </trkpt>
      <trkpt lat="46.84736" lon="8.45838">
        <ele>2207</ele>
        <time>2021-08-13T07:26:42.158Z</time>
      </trkpt>
      <trkpt lat="46.84736" lon="8.45837">
        <ele>2206</ele>
        <time>2021-08-13T07:26:43.158Z</time>
      </trkpt>
      <trkpt lat="46.84735" lon="8.45836">
        <ele>2206</ele>
        <time>2021-08-13T07:26:44.158Z</time>
      </trkpt>
      <trkpt lat="46.84734" lon="8.45834">
        <ele>2206</ele>
        <time>2021-08-13T07:26:45.158Z</time>
      </trkpt>
      <trkpt lat="46.84733" lon="8.45834">
        <ele>2206</ele>
        <time>2021-08-13T07:26:46.158Z</time>
      </trkpt>
      <trkpt lat="46.84732" lon="8.45832">
        <ele>2205</ele>
        <time>2021-08-13T07:26:47.158Z</time>
      </trkpt>
      <trkpt lat="46.84731" lon="8.45831">
        <ele>2205</ele>
        <time>2021-08-13T07:26:48.158Z</time>
      </trkpt>
      <trkpt lat="46.8473" lon="8.4583">
        <ele>2205</ele>
        <time>2021-08-13T07:26:49.158Z</time>
      </trkpt>
      <trkpt lat="46.84729" lon="8.45829">
        <ele>2205</ele>
        <time>2021-08-13T07:26:50.159Z</time>
      </trkpt>
      <trkpt lat="46.84728" lon="8.45828">
        <ele>2205</ele>
        <time>2021-08-13T07:26:51.158Z</time>
      </trkpt>
      <trkpt lat="46.84727" lon="8.45826">
        <ele>2205</ele>
        <time>2021-08-13T07:26:52.158Z</time>
      </trkpt>
      <trkpt lat="46.84726" lon="8.45824">
        <ele>2204</ele>
        <time>2021-08-13T07:26:53.158Z</time>
      </trkpt>
      <trkpt lat="46.84725" lon="8.45823">
        <ele>2204</ele>
        <time>2021-08-13T07:26:54.158Z</time>
      </trkpt>
      <trkpt lat="46.84725" lon="8.45821">
        <ele>2204</ele>
        <time>2021-08-13T07:26:55.158Z</time>
      </trkpt>
      <trkpt lat="46.84723" lon="8.45819">
        <ele>2204</ele>
        <time>2021-08-13T07:26:56.158Z</time>
      </trkpt>
      <trkpt lat="46.84722" lon="8.45818">
        <ele>2204</ele>
        <time>2021-08-13T07:26:57.158Z</time>
      </trkpt>
      <trkpt lat="46.84721" lon="8.45816">
        <ele>2205</ele>
        <time>2021-08-13T07:26:58.158Z</time>
      </trkpt>
      <trkpt lat="46.8472" lon="8.45815">
        <ele>2205</ele>
        <time>2021-08-13T07:26:59.158Z</time>
      </trkpt>
      <trkpt lat="46.84719" lon="8.45814">
        <ele>2205</ele>
        <time>2021-08-13T07:27:00.158Z</time>
      </trkpt>
      <trkpt lat="46.84718" lon="8.45812">
        <ele>2205</ele>
        <time>2021-08-13T07:27:01.158Z</time>
      </trkpt>
      <trkpt lat="46.84717" lon="8.45812">
        <ele>2205</ele>
        <time>2021-08-13T07:27:02.158Z</time>
      </trkpt>
      <trkpt lat="46.84716" lon="8.45811">
        <ele>2205</ele>
        <time>2021-08-13T07:27:03.158Z</time>
      </trkpt>
      <trkpt lat="46.84715" lon="8.45809">
        <ele>2205</ele>
        <time>2021-08-13T07:27:04.158Z</time>
      </trkpt>
      <trkpt lat="46.84714" lon="8.45808">
        <ele>2205</ele>
        <time>2021-08-13T07:27:05.159Z</time>
      </trkpt>
      <trkpt lat="46.84713" lon="8.45808">
        <ele>2205</ele>
        <time>2021-08-13T07:27:06.158Z</time>
      </trkpt>
      <trkpt lat="46.84711" lon="8.45806">
        <ele>2205</ele>
        <time>2021-08-13T07:27:07.158Z</time>
      </trkpt>
      <trkpt lat="46.84711" lon="8.45806">
        <ele>2205</ele>
        <time>2021-08-13T07:27:08.158Z</time>
      </trkpt>
      <trkpt lat="46.84709" lon="8.45805">
        <ele>2204</ele>
        <time>2021-08-13T07:27:09.158Z</time>
      </trkpt>
      <trkpt lat="46.84708" lon="8.45804">
        <ele>2204</ele>
        <time>2021-08-13T07:27:10.158Z</time>
      </trkpt>
      <trkpt lat="46.84707" lon="8.45803">
        <ele>2204</ele>
        <time>2021-08-13T07:27:11.158Z</time>
      </trkpt>
      <trkpt lat="46.84706" lon="8.45803">
        <ele>2204</ele>
        <time>2021-08-13T07:27:12.158Z</time>
      </trkpt>
      <trkpt lat="46.84705" lon="8.45802">
        <ele>2203</ele>
        <time>2021-08-13T07:27:13.159Z</time>
      </trkpt>
      <trkpt lat="46.84703" lon="8.45801">
        <ele>2203</ele>
        <time>2021-08-13T07:27:14.158Z</time>
      </trkpt>
      <trkpt lat="46.84702" lon="8.458">
        <ele>2202</ele>
        <time>2021-08-13T07:27:15.158Z</time>
      </trkpt>
      <trkpt lat="46.84701" lon="8.458">
        <ele>2202</ele>
        <time>2021-08-13T07:27:16.158Z</time>
      </trkpt>
      <trkpt lat="46.847" lon="8.45799">
        <ele>2202</ele>
        <time>2021-08-13T07:27:17.158Z</time>
      </trkpt>
      <trkpt lat="46.84699" lon="8.45798">
        <ele>2202</ele>
        <time>2021-08-13T07:27:18.158Z</time>
      </trkpt>
      <trkpt lat="46.84699" lon="8.45797">
        <ele>2202</ele>
        <time>2021-08-13T07:27:19.158Z</time>
      </trkpt>
      <trkpt lat="46.84698" lon="8.45796">
        <ele>2202</ele>
        <time>2021-08-13T07:27:20.158Z</time>
      </trkpt>
      <trkpt lat="46.84697" lon="8.45795">
        <ele>2202</ele>
        <time>2021-08-13T07:27:21.158Z</time>
      </trkpt>
      <trkpt lat="46.84696" lon="8.45794">
        <ele>2203</ele>
        <time>2021-08-13T07:27:22.158Z</time>
      </trkpt>
      <trkpt lat="46.84695" lon="8.45793">
        <ele>2203</ele>
        <time>2021-08-13T07:27:23.159Z</time>
      </trkpt>
      <trkpt lat="46.84694" lon="8.45792">
        <ele>2203</ele>
        <time>2021-08-13T07:27:24.159Z</time>
      </trkpt>
      <trkpt lat="46.84693" lon="8.45791">
        <ele>2203</ele>
        <time>2021-08-13T07:27:25.158Z</time>
      </trkpt>
      <trkpt lat="46.84692" lon="8.4579">
        <ele>2204</ele>
        <time>2021-08-13T07:27:26.158Z</time>
      </trkpt>
      <trkpt lat="46.84691" lon="8.45789">
        <ele>2204</ele>
        <time>2021-08-13T07:27:27.158Z</time>
      </trkpt>
      <trkpt lat="46.84691" lon="8.45788">
        <ele>2204</ele>
        <time>2021-08-13T07:27:28.158Z</time>
      </trkpt>
      <trkpt lat="46.84691" lon="8.45787">
        <ele>2203</ele>
        <time>2021-08-13T07:27:29.158Z</time>
      </trkpt>
      <trkpt lat="46.8469" lon="8.45785">
        <ele>2203</ele>
        <time>2021-08-13T07:27:30.158Z</time>
      </trkpt>
      <trkpt lat="46.8469" lon="8.45784">
        <ele>2203</ele>
        <time>2021-08-13T07:27:31.158Z</time>
      </trkpt>
      <trkpt lat="46.84689" lon="8.45783">
        <ele>2203</ele>
        <time>2021-08-13T07:27:32.158Z</time>
      </trkpt>
      <trkpt lat="46.84689" lon="8.45781">
        <ele>2203</ele>
        <time>2021-08-13T07:27:33.158Z</time>
      </trkpt>
      <trkpt lat="46.84689" lon="8.4578">
        <ele>2203</ele>
        <time>2021-08-13T07:27:34.158Z</time>
      </trkpt>
      <trkpt lat="46.84688" lon="8.45779">
        <ele>2202</ele>
        <time>2021-08-13T07:27:35.158Z</time>
      </trkpt>
      <trkpt lat="46.84687" lon="8.45778">
        <ele>2202</ele>
        <time>2021-08-13T07:27:36.159Z</time>
      </trkpt>
      <trkpt lat="46.84687" lon="8.45776">
        <ele>2202</ele>
        <time>2021-08-13T07:27:37.159Z</time>
      </trkpt>
      <trkpt lat="46.84687" lon="8.45775">
        <ele>2202</ele>
        <time>2021-08-13T07:27:38.158Z</time>
      </trkpt>
      <trkpt lat="46.84688" lon="8.45775">
        <ele>2202</ele>
        <time>2021-08-13T07:27:39.159Z</time>
      </trkpt>
      <trkpt lat="46.84689" lon="8.45773">
        <ele>2202</ele>
        <time>2021-08-13T07:27:40.159Z</time>
      </trkpt>
      <trkpt lat="46.84689" lon="8.45772">
        <ele>2202</ele>
        <time>2021-08-13T07:27:41.158Z</time>
      </trkpt>
      <trkpt lat="46.84689" lon="8.4577">
        <ele>2202</ele>
        <time>2021-08-13T07:27:42.158Z</time>
      </trkpt>
      <trkpt lat="46.84689" lon="8.45769">
        <ele>2202</ele>
        <time>2021-08-13T07:27:43.158Z</time>
      </trkpt>
      <trkpt lat="46.84688" lon="8.45769">
        <ele>2202</ele>
        <time>2021-08-13T07:27:44.159Z</time>
      </trkpt>
      <trkpt lat="46.84688" lon="8.45768">
        <ele>2202</ele>
        <time>2021-08-13T07:27:45.158Z</time>
      </trkpt>
      <trkpt lat="46.84688" lon="8.45767">
        <ele>2202</ele>
        <time>2021-08-13T07:27:46.158Z</time>
      </trkpt>
      <trkpt lat="46.84688" lon="8.45766">
        <ele>2202</ele>
        <time>2021-08-13T07:27:47.158Z</time>
      </trkpt>
      <trkpt lat="46.84687" lon="8.45766">
        <ele>2201</ele>
        <time>2021-08-13T07:27:48.158Z</time>
      </trkpt>
      <trkpt lat="46.84687" lon="8.45764">
        <ele>2201</ele>
        <time>2021-08-13T07:27:49.159Z</time>
      </trkpt>
      <trkpt lat="46.84687" lon="8.45763">
        <ele>2201</ele>
        <time>2021-08-13T07:27:50.158Z</time>
      </trkpt>
      <trkpt lat="46.84687" lon="8.45762">
        <ele>2202</ele>
        <time>2021-08-13T07:27:51.158Z</time>
      </trkpt>
      <trkpt lat="46.84686" lon="8.4576">
        <ele>2202</ele>
        <time>2021-08-13T07:27:52.158Z</time>
      </trkpt>
      <trkpt lat="46.84686" lon="8.45759">
        <ele>2202</ele>
        <time>2021-08-13T07:27:53.158Z</time>
      </trkpt>
      <trkpt lat="46.84686" lon="8.45758">
        <ele>2202</ele>
        <time>2021-08-13T07:27:54.158Z</time>
      </trkpt>
      <trkpt lat="46.84685" lon="8.45757">
        <ele>2202</ele>
        <time>2021-08-13T07:27:55.159Z</time>
      </trkpt>
      <trkpt lat="46.84685" lon="8.45756">
        <ele>2202</ele>
        <time>2021-08-13T07:27:56.159Z</time>
      </trkpt>
      <trkpt lat="46.84684" lon="8.45754">
        <ele>2203</ele>
        <time>2021-08-13T07:27:57.158Z</time>
      </trkpt>
      <trkpt lat="46.84683" lon="8.45753">
        <ele>2203</ele>
        <time>2021-08-13T07:27:58.158Z</time>
      </trkpt>
      <trkpt lat="46.84683" lon="8.45752">
        <ele>2203</ele>
        <time>2021-08-13T07:27:59.159Z</time>
      </trkpt>
      <trkpt lat="46.84682" lon="8.45752">
        <ele>2202</ele>
        <time>2021-08-13T07:28:00.159Z</time>
      </trkpt>
      <trkpt lat="46.84681" lon="8.4575">
        <ele>2202</ele>
        <time>2021-08-13T07:28:01.158Z</time>
      </trkpt>
      <trkpt lat="46.84681" lon="8.4575">
        <ele>2202</ele>
        <time>2021-08-13T07:28:02.158Z</time>
      </trkpt>
      <trkpt lat="46.8468" lon="8.45748">
        <ele>2202</ele>
        <time>2021-08-13T07:28:03.159Z</time>
      </trkpt>
      <trkpt lat="46.84679" lon="8.45747">
        <ele>2202</ele>
        <time>2021-08-13T07:28:04.158Z</time>
      </trkpt>
      <trkpt lat="46.84679" lon="8.45746">
        <ele>2202</ele>
        <time>2021-08-13T07:28:05.159Z</time>
      </trkpt>
      <trkpt lat="46.84678" lon="8.45745">
        <ele>2201</ele>
        <time>2021-08-13T07:28:06.158Z</time>
      </trkpt>
      <trkpt lat="46.84678" lon="8.45743">
        <ele>2201</ele>
        <time>2021-08-13T07:28:07.159Z</time>
      </trkpt>
      <trkpt lat="46.84677" lon="8.45742">
        <ele>2201</ele>
        <time>2021-08-13T07:28:08.159Z</time>
      </trkpt>
      <trkpt lat="46.84677" lon="8.45741">
        <ele>2201</ele>
        <time>2021-08-13T07:28:09.158Z</time>
      </trkpt>
      <trkpt lat="46.84675" lon="8.45739">
        <ele>2200</ele>
        <time>2021-08-13T07:28:10.158Z</time>
      </trkpt>
      <trkpt lat="46.84675" lon="8.45738">
        <ele>2200</ele>
        <time>2021-08-13T07:28:11.158Z</time>
      </trkpt>
      <trkpt lat="46.84674" lon="8.45736">
        <ele>2200</ele>
        <time>2021-08-13T07:28:12.158Z</time>
      </trkpt>
      <trkpt lat="46.84674" lon="8.45735">
        <ele>2199</ele>
        <time>2021-08-13T07:28:13.158Z</time>
      </trkpt>
      <trkpt lat="46.84674" lon="8.45733">
        <ele>2199</ele>
        <time>2021-08-13T07:28:14.159Z</time>
      </trkpt>
      <trkpt lat="46.84674" lon="8.45732">
        <ele>2199</ele>
        <time>2021-08-13T07:28:15.159Z</time>
      </trkpt>
      <trkpt lat="46.84674" lon="8.4573">
        <ele>2198</ele>
        <time>2021-08-13T07:28:16.158Z</time>
      </trkpt>
      <trkpt lat="46.84674" lon="8.45729">
        <ele>2198</ele>
        <time>2021-08-13T07:28:17.158Z</time>
      </trkpt>
      <trkpt lat="46.84673" lon="8.45728">
        <ele>2198</ele>
        <time>2021-08-13T07:28:18.158Z</time>
      </trkpt>
      <trkpt lat="46.84673" lon="8.45727">
        <ele>2197</ele>
        <time>2021-08-13T07:28:19.159Z</time>
      </trkpt>
      <trkpt lat="46.84673" lon="8.45725">
        <ele>2197</ele>
        <time>2021-08-13T07:28:20.158Z</time>
      </trkpt>
      <trkpt lat="46.84673" lon="8.45724">
        <ele>2196</ele>
        <time>2021-08-13T07:28:21.158Z</time>
      </trkpt>
      <trkpt lat="46.84672" lon="8.45723">
        <ele>2196</ele>
        <time>2021-08-13T07:28:22.158Z</time>
      </trkpt>
      <trkpt lat="46.84672" lon="8.45723">
        <ele>2195</ele>
        <time>2021-08-13T07:28:23.158Z</time>
      </trkpt>
      <trkpt lat="46.84672" lon="8.45722">
        <ele>2195</ele>
        <time>2021-08-13T07:28:24.158Z</time>
      </trkpt>
      <trkpt lat="46.84671" lon="8.45721">
        <ele>2195</ele>
        <time>2021-08-13T07:28:25.158Z</time>
      </trkpt>
      <trkpt lat="46.84671" lon="8.45719">
        <ele>2195</ele>
        <time>2021-08-13T07:28:26.158Z</time>
      </trkpt>
      <trkpt lat="46.8467" lon="8.45718">
        <ele>2194</ele>
        <time>2021-08-13T07:28:27.158Z</time>
      </trkpt>
      <trkpt lat="46.8467" lon="8.45717">
        <ele>2194</ele>
        <time>2021-08-13T07:28:28.158Z</time>
      </trkpt>
      <trkpt lat="46.8467" lon="8.45715">
        <ele>2193</ele>
        <time>2021-08-13T07:28:29.159Z</time>
      </trkpt>
      <trkpt lat="46.84669" lon="8.45714">
        <ele>2192</ele>
        <time>2021-08-13T07:28:30.158Z</time>
      </trkpt>
      <trkpt lat="46.84669" lon="8.45712">
        <ele>2192</ele>
        <time>2021-08-13T07:28:31.158Z</time>
      </trkpt>
      <trkpt lat="46.84669" lon="8.45711">
        <ele>2192</ele>
        <time>2021-08-13T07:28:32.158Z</time>
      </trkpt>
      <trkpt lat="46.84668" lon="8.45709">
        <ele>2192</ele>
        <time>2021-08-13T07:28:33.158Z</time>
      </trkpt>
      <trkpt lat="46.84667" lon="8.45708">
        <ele>2192</ele>
        <time>2021-08-13T07:28:34.158Z</time>
      </trkpt>
      <trkpt lat="46.84667" lon="8.45707">
        <ele>2193</ele>
        <time>2021-08-13T07:28:35.158Z</time>
      </trkpt>
      <trkpt lat="46.84667" lon="8.45705">
        <ele>2193</ele>
        <time>2021-08-13T07:28:36.159Z</time>
      </trkpt>
      <trkpt lat="46.84666" lon="8.45703">
        <ele>2192</ele>
        <time>2021-08-13T07:28:37.158Z</time>
      </trkpt>
      <trkpt lat="46.84666" lon="8.45702">
        <ele>2192</ele>
        <time>2021-08-13T07:28:38.158Z</time>
      </trkpt>
      <trkpt lat="46.84666" lon="8.457">
        <ele>2192</ele>
        <time>2021-08-13T07:28:39.158Z</time>
      </trkpt>
      <trkpt lat="46.84665" lon="8.457">
        <ele>2192</ele>
        <time>2021-08-13T07:28:40.158Z</time>
      </trkpt>
      <trkpt lat="46.84665" lon="8.45699">
        <ele>2191</ele>
        <time>2021-08-13T07:28:41.158Z</time>
      </trkpt>
      <trkpt lat="46.84664" lon="8.45699">
        <ele>2191</ele>
        <time>2021-08-13T07:28:42.158Z</time>
      </trkpt>
      <trkpt lat="46.84663" lon="8.45698">
        <ele>2191</ele>
        <time>2021-08-13T07:28:43.158Z</time>
      </trkpt>
      <trkpt lat="46.84662" lon="8.45698">
        <ele>2190</ele>
        <time>2021-08-13T07:28:44.158Z</time>
      </trkpt>
      <trkpt lat="46.84661" lon="8.45698">
        <ele>2190</ele>
        <time>2021-08-13T07:28:45.158Z</time>
      </trkpt>
      <trkpt lat="46.8466" lon="8.45698">
        <ele>2189</ele>
        <time>2021-08-13T07:28:46.158Z</time>
      </trkpt>
      <trkpt lat="46.84659" lon="8.45699">
        <ele>2189</ele>
        <time>2021-08-13T07:28:47.158Z</time>
      </trkpt>
      <trkpt lat="46.84657" lon="8.45699">
        <ele>2189</ele>
        <time>2021-08-13T07:28:48.158Z</time>
      </trkpt>
      <trkpt lat="46.84655" lon="8.457">
        <ele>2189</ele>
        <time>2021-08-13T07:28:49.159Z</time>
      </trkpt>
      <trkpt lat="46.84654" lon="8.45701">
        <ele>2189</ele>
        <time>2021-08-13T07:28:50.158Z</time>
      </trkpt>
      <trkpt lat="46.84653" lon="8.45702">
        <ele>2188</ele>
        <time>2021-08-13T07:28:51.158Z</time>
      </trkpt>
      <trkpt lat="46.84652" lon="8.45703">
        <ele>2188</ele>
        <time>2021-08-13T07:28:52.158Z</time>
      </trkpt>
      <trkpt lat="46.84652" lon="8.45704">
        <ele>2188</ele>
        <time>2021-08-13T07:28:53.158Z</time>
      </trkpt>
      <trkpt lat="46.84651" lon="8.45705">
        <ele>2188</ele>
        <time>2021-08-13T07:28:54.158Z</time>
      </trkpt>
      <trkpt lat="46.84651" lon="8.45705">
        <ele>2188</ele>
        <time>2021-08-13T07:28:55.159Z</time>
      </trkpt>
      <trkpt lat="46.8465" lon="8.45706">
        <ele>2187</ele>
        <time>2021-08-13T07:28:56.158Z</time>
      </trkpt>
      <trkpt lat="46.8465" lon="8.45708">
        <ele>2187</ele>
        <time>2021-08-13T07:28:57.158Z</time>
      </trkpt>
      <trkpt lat="46.8465" lon="8.45709">
        <ele>2186</ele>
        <time>2021-08-13T07:28:58.158Z</time>
      </trkpt>
      <trkpt lat="46.84649" lon="8.45709">
        <ele>2186</ele>
        <time>2021-08-13T07:28:59.158Z</time>
      </trkpt>
      <trkpt lat="46.84648" lon="8.4571">
        <ele>2185</ele>
        <time>2021-08-13T07:29:00.158Z</time>
      </trkpt>
      <trkpt lat="46.84647" lon="8.45711">
        <ele>2185</ele>
        <time>2021-08-13T07:29:01.158Z</time>
      </trkpt>
      <trkpt lat="46.84646" lon="8.4571">
        <ele>2185</ele>
        <time>2021-08-13T07:29:02.158Z</time>
      </trkpt>
      <trkpt lat="46.84646" lon="8.45709">
        <ele>2185</ele>
        <time>2021-08-13T07:29:03.158Z</time>
      </trkpt>
      <trkpt lat="46.84645" lon="8.45708">
        <ele>2185</ele>
        <time>2021-08-13T07:29:04.159Z</time>
      </trkpt>
      <trkpt lat="46.84644" lon="8.45707">
        <ele>2185</ele>
        <time>2021-08-13T07:29:05.158Z</time>
      </trkpt>
      <trkpt lat="46.84642" lon="8.45706">
        <ele>2185</ele>
        <time>2021-08-13T07:29:06.158Z</time>
      </trkpt>
      <trkpt lat="46.84641" lon="8.45705">
        <ele>2185</ele>
        <time>2021-08-13T07:29:07.159Z</time>
      </trkpt>
      <trkpt lat="46.8464" lon="8.45704">
        <ele>2185</ele>
        <time>2021-08-13T07:29:08.158Z</time>
      </trkpt>
      <trkpt lat="46.84639" lon="8.45703">
        <ele>2185</ele>
        <time>2021-08-13T07:29:09.158Z</time>
      </trkpt>
      <trkpt lat="46.84639" lon="8.45703">
        <ele>2184</ele>
        <time>2021-08-13T07:29:10.158Z</time>
      </trkpt>
      <trkpt lat="46.84638" lon="8.45702">
        <ele>2184</ele>
        <time>2021-08-13T07:29:11.158Z</time>
      </trkpt>
      <trkpt lat="46.84637" lon="8.45701">
        <ele>2184</ele>
        <time>2021-08-13T07:29:12.158Z</time>
      </trkpt>
      <trkpt lat="46.84637" lon="8.457">
        <ele>2184</ele>
        <time>2021-08-13T07:29:13.159Z</time>
      </trkpt>
      <trkpt lat="46.84636" lon="8.457">
        <ele>2184</ele>
        <time>2021-08-13T07:29:14.158Z</time>
      </trkpt>
      <trkpt lat="46.84636" lon="8.45699">
        <ele>2184</ele>
        <time>2021-08-13T07:29:15.158Z</time>
      </trkpt>
      <trkpt lat="46.84635" lon="8.45698">
        <ele>2184</ele>
        <time>2021-08-13T07:29:16.158Z</time>
      </trkpt>
      <trkpt lat="46.84634" lon="8.45697">
        <ele>2184</ele>
        <time>2021-08-13T07:29:17.158Z</time>
      </trkpt>
      <trkpt lat="46.84633" lon="8.45696">
        <ele>2184</ele>
        <time>2021-08-13T07:29:18.158Z</time>
      </trkpt>
      <trkpt lat="46.84632" lon="8.45695">
        <ele>2185</ele>
        <time>2021-08-13T07:29:19.158Z</time>
      </trkpt>
      <trkpt lat="46.84632" lon="8.45694">
        <ele>2185</ele>
        <time>2021-08-13T07:29:20.158Z</time>
      </trkpt>
      <trkpt lat="46.84631" lon="8.45692">
        <ele>2185</ele>
        <time>2021-08-13T07:29:21.158Z</time>
      </trkpt>
      <trkpt lat="46.84629" lon="8.45691">
        <ele>2185</ele>
        <time>2021-08-13T07:29:22.159Z</time>
      </trkpt>
      <trkpt lat="46.84628" lon="8.4569">
        <ele>2185</ele>
        <time>2021-08-13T07:29:23.158Z</time>
      </trkpt>
      <trkpt lat="46.84627" lon="8.45689">
        <ele>2185</ele>
        <time>2021-08-13T07:29:24.158Z</time>
      </trkpt>
      <trkpt lat="46.84626" lon="8.45688">
        <ele>2185</ele>
        <time>2021-08-13T07:29:25.159Z</time>
      </trkpt>
      <trkpt lat="46.84625" lon="8.45688">
        <ele>2185</ele>
        <time>2021-08-13T07:29:26.159Z</time>
      </trkpt>
      <trkpt lat="46.84624" lon="8.45687">
        <ele>2185</ele>
        <time>2021-08-13T07:29:27.158Z</time>
      </trkpt>
      <trkpt lat="46.84624" lon="8.45686">
        <ele>2184</ele>
        <time>2021-08-13T07:29:28.158Z</time>
      </trkpt>
      <trkpt lat="46.84624" lon="8.45685">
        <ele>2184</ele>
        <time>2021-08-13T07:29:29.158Z</time>
      </trkpt>
      <trkpt lat="46.84624" lon="8.45684">
        <ele>2184</ele>
        <time>2021-08-13T07:29:30.158Z</time>
      </trkpt>
      <trkpt lat="46.84623" lon="8.45683">
        <ele>2184</ele>
        <time>2021-08-13T07:29:31.159Z</time>
      </trkpt>
      <trkpt lat="46.84623" lon="8.45682">
        <ele>2185</ele>
        <time>2021-08-13T07:29:32.158Z</time>
      </trkpt>
      <trkpt lat="46.84622" lon="8.45681">
        <ele>2185</ele>
        <time>2021-08-13T07:29:33.158Z</time>
      </trkpt>
      <trkpt lat="46.84621" lon="8.4568">
        <ele>2185</ele>
        <time>2021-08-13T07:29:34.158Z</time>
      </trkpt>
      <trkpt lat="46.8462" lon="8.45679">
        <ele>2185</ele>
        <time>2021-08-13T07:29:35.158Z</time>
      </trkpt>
      <trkpt lat="46.84619" lon="8.45678">
        <ele>2184</ele>
        <time>2021-08-13T07:29:36.158Z</time>
      </trkpt>
      <trkpt lat="46.84618" lon="8.45676">
        <ele>2184</ele>
        <time>2021-08-13T07:29:37.158Z</time>
      </trkpt>
      <trkpt lat="46.84618" lon="8.45675">
        <ele>2184</ele>
        <time>2021-08-13T07:29:38.158Z</time>
      </trkpt>
      <trkpt lat="46.84618" lon="8.45673">
        <ele>2184</ele>
        <time>2021-08-13T07:29:39.158Z</time>
      </trkpt>
      <trkpt lat="46.84618" lon="8.45671">
        <ele>2184</ele>
        <time>2021-08-13T07:29:40.158Z</time>
      </trkpt>
      <trkpt lat="46.84618" lon="8.45669">
        <ele>2183</ele>
        <time>2021-08-13T07:29:41.158Z</time>
      </trkpt>
      <trkpt lat="46.84618" lon="8.45667">
        <ele>2183</ele>
        <time>2021-08-13T07:29:42.158Z</time>
      </trkpt>
      <trkpt lat="46.84618" lon="8.45664">
        <ele>2182</ele>
        <time>2021-08-13T07:29:43.158Z</time>
      </trkpt>
      <trkpt lat="46.84618" lon="8.45663">
        <ele>2181</ele>
        <time>2021-08-13T07:29:44.158Z</time>
      </trkpt>
      <trkpt lat="46.84618" lon="8.45661">
        <ele>2180</ele>
        <time>2021-08-13T07:29:45.158Z</time>
      </trkpt>
      <trkpt lat="46.84618" lon="8.45659">
        <ele>2179</ele>
        <time>2021-08-13T07:29:46.158Z</time>
      </trkpt>
      <trkpt lat="46.84617" lon="8.45657">
        <ele>2179</ele>
        <time>2021-08-13T07:29:47.158Z</time>
      </trkpt>
      <trkpt lat="46.84617" lon="8.45655">
        <ele>2178</ele>
        <time>2021-08-13T07:29:48.158Z</time>
      </trkpt>
      <trkpt lat="46.84616" lon="8.45653">
        <ele>2177</ele>
        <time>2021-08-13T07:29:49.158Z</time>
      </trkpt>
      <trkpt lat="46.84616" lon="8.45652">
        <ele>2177</ele>
        <time>2021-08-13T07:29:50.158Z</time>
      </trkpt>
      <trkpt lat="46.84616" lon="8.4565">
        <ele>2177</ele>
        <time>2021-08-13T07:29:51.158Z</time>
      </trkpt>
      <trkpt lat="46.84615" lon="8.45649">
        <ele>2177</ele>
        <time>2021-08-13T07:29:52.158Z</time>
      </trkpt>
      <trkpt lat="46.84615" lon="8.45648">
        <ele>2177</ele>
        <time>2021-08-13T07:29:53.158Z</time>
      </trkpt>
      <trkpt lat="46.84614" lon="8.45646">
        <ele>2177</ele>
        <time>2021-08-13T07:29:54.158Z</time>
      </trkpt>
      <trkpt lat="46.84613" lon="8.45646">
        <ele>2177</ele>
        <time>2021-08-13T07:29:55.158Z</time>
      </trkpt>
      <trkpt lat="46.84612" lon="8.45644">
        <ele>2176</ele>
        <time>2021-08-13T07:29:56.158Z</time>
      </trkpt>
      <trkpt lat="46.84611" lon="8.45643">
        <ele>2176</ele>
        <time>2021-08-13T07:29:57.158Z</time>
      </trkpt>
      <trkpt lat="46.8461" lon="8.45642">
        <ele>2176</ele>
        <time>2021-08-13T07:29:58.158Z</time>
      </trkpt>
      <trkpt lat="46.8461" lon="8.45641">
        <ele>2176</ele>
        <time>2021-08-13T07:29:59.158Z</time>
      </trkpt>
      <trkpt lat="46.84609" lon="8.4564">
        <ele>2175</ele>
        <time>2021-08-13T07:30:00.158Z</time>
      </trkpt>
      <trkpt lat="46.84609" lon="8.45639">
        <ele>2175</ele>
        <time>2021-08-13T07:30:01.158Z</time>
      </trkpt>
      <trkpt lat="46.84608" lon="8.45637">
        <ele>2175</ele>
        <time>2021-08-13T07:30:02.158Z</time>
      </trkpt>
      <trkpt lat="46.84607" lon="8.45635">
        <ele>2175</ele>
        <time>2021-08-13T07:30:03.158Z</time>
      </trkpt>
      <trkpt lat="46.84607" lon="8.45634">
        <ele>2175</ele>
        <time>2021-08-13T07:30:04.159Z</time>
      </trkpt>
      <trkpt lat="46.84606" lon="8.45633">
        <ele>2175</ele>
        <time>2021-08-13T07:30:05.159Z</time>
      </trkpt>
      <trkpt lat="46.84606" lon="8.45631">
        <ele>2175</ele>
        <time>2021-08-13T07:30:06.158Z</time>
      </trkpt>
      <trkpt lat="46.84605" lon="8.4563">
        <ele>2175</ele>
        <time>2021-08-13T07:30:07.158Z</time>
      </trkpt>
      <trkpt lat="46.84605" lon="8.45629">
        <ele>2176</ele>
        <time>2021-08-13T07:30:08.158Z</time>
      </trkpt>
      <trkpt lat="46.84605" lon="8.45628">
        <ele>2176</ele>
        <time>2021-08-13T07:30:09.158Z</time>
      </trkpt>
      <trkpt lat="46.84604" lon="8.45626">
        <ele>2176</ele>
        <time>2021-08-13T07:30:10.158Z</time>
      </trkpt>
      <trkpt lat="46.84604" lon="8.45625">
        <ele>2176</ele>
        <time>2021-08-13T07:30:11.158Z</time>
      </trkpt>
      <trkpt lat="46.84603" lon="8.45624">
        <ele>2177</ele>
        <time>2021-08-13T07:30:12.158Z</time>
      </trkpt>
      <trkpt lat="46.84603" lon="8.45623">
        <ele>2177</ele>
        <time>2021-08-13T07:30:13.158Z</time>
      </trkpt>
      <trkpt lat="46.84602" lon="8.45621">
        <ele>2177</ele>
        <time>2021-08-13T07:30:14.158Z</time>
      </trkpt>
      <trkpt lat="46.84602" lon="8.4562">
        <ele>2177</ele>
        <time>2021-08-13T07:30:15.158Z</time>
      </trkpt>
      <trkpt lat="46.84601" lon="8.45618">
        <ele>2177</ele>
        <time>2021-08-13T07:30:16.158Z</time>
      </trkpt>
      <trkpt lat="46.84601" lon="8.45617">
        <ele>2177</ele>
        <time>2021-08-13T07:30:17.158Z</time>
      </trkpt>
      <trkpt lat="46.84601" lon="8.45616">
        <ele>2177</ele>
        <time>2021-08-13T07:30:18.158Z</time>
      </trkpt>
      <trkpt lat="46.846" lon="8.45615">
        <ele>2178</ele>
        <time>2021-08-13T07:30:19.159Z</time>
      </trkpt>
      <trkpt lat="46.846" lon="8.45614">
        <ele>2178</ele>
        <time>2021-08-13T07:30:20.158Z</time>
      </trkpt>
      <trkpt lat="46.84599" lon="8.45613">
        <ele>2178</ele>
        <time>2021-08-13T07:30:21.159Z</time>
      </trkpt>
      <trkpt lat="46.84599" lon="8.45612">
        <ele>2178</ele>
        <time>2021-08-13T07:30:22.158Z</time>
      </trkpt>
      <trkpt lat="46.84598" lon="8.4561">
        <ele>2177</ele>
        <time>2021-08-13T07:30:23.159Z</time>
      </trkpt>
      <trkpt lat="46.84598" lon="8.45608">
        <ele>2176</ele>
        <time>2021-08-13T07:30:24.158Z</time>
      </trkpt>
      <trkpt lat="46.84597" lon="8.45607">
        <ele>2176</ele>
        <time>2021-08-13T07:30:25.158Z</time>
      </trkpt>
      <trkpt lat="46.84596" lon="8.45606">
        <ele>2175</ele>
        <time>2021-08-13T07:30:26.159Z</time>
      </trkpt>
      <trkpt lat="46.84596" lon="8.45604">
        <ele>2174</ele>
        <time>2021-08-13T07:30:27.158Z</time>
      </trkpt>
      <trkpt lat="46.84595" lon="8.45602">
        <ele>2174</ele>
        <time>2021-08-13T07:30:28.158Z</time>
      </trkpt>
      <trkpt lat="46.84594" lon="8.45601">
        <ele>2173</ele>
        <time>2021-08-13T07:30:29.158Z</time>
      </trkpt>
      <trkpt lat="46.84594" lon="8.456">
        <ele>2172</ele>
        <time>2021-08-13T07:30:30.158Z</time>
      </trkpt>
      <trkpt lat="46.84593" lon="8.45599">
        <ele>2172</ele>
        <time>2021-08-13T07:30:31.158Z</time>
      </trkpt>
      <trkpt lat="46.84593" lon="8.45597">
        <ele>2172</ele>
        <time>2021-08-13T07:30:32.158Z</time>
      </trkpt>
      <trkpt lat="46.84592" lon="8.45596">
        <ele>2171</ele>
        <time>2021-08-13T07:30:33.158Z</time>
      </trkpt>
      <trkpt lat="46.84592" lon="8.45594">
        <ele>2171</ele>
        <time>2021-08-13T07:30:34.159Z</time>
      </trkpt>
      <trkpt lat="46.84591" lon="8.45593">
        <ele>2171</ele>
        <time>2021-08-13T07:30:35.159Z</time>
      </trkpt>
      <trkpt lat="46.8459" lon="8.45591">
        <ele>2171</ele>
        <time>2021-08-13T07:30:36.158Z</time>
      </trkpt>
      <trkpt lat="46.8459" lon="8.4559">
        <ele>2171</ele>
        <time>2021-08-13T07:30:37.159Z</time>
      </trkpt>
      <trkpt lat="46.84589" lon="8.45588">
        <ele>2171</ele>
        <time>2021-08-13T07:30:38.158Z</time>
      </trkpt>
      <trkpt lat="46.84589" lon="8.45587">
        <ele>2171</ele>
        <time>2021-08-13T07:30:39.158Z</time>
      </trkpt>
      <trkpt lat="46.84588" lon="8.45586">
        <ele>2171</ele>
        <time>2021-08-13T07:30:40.158Z</time>
      </trkpt>
      <trkpt lat="46.84588" lon="8.45585">
        <ele>2171</ele>
        <time>2021-08-13T07:30:41.158Z</time>
      </trkpt>
      <trkpt lat="46.84587" lon="8.45583">
        <ele>2170</ele>
        <time>2021-08-13T07:30:42.158Z</time>
      </trkpt>
      <trkpt lat="46.84587" lon="8.45582">
        <ele>2170</ele>
        <time>2021-08-13T07:30:43.158Z</time>
      </trkpt>
      <trkpt lat="46.84587" lon="8.45581">
        <ele>2170</ele>
        <time>2021-08-13T07:30:44.158Z</time>
      </trkpt>
      <trkpt lat="46.84586" lon="8.4558">
        <ele>2170</ele>
        <time>2021-08-13T07:30:45.158Z</time>
      </trkpt>
      <trkpt lat="46.84585" lon="8.45578">
        <ele>2169</ele>
        <time>2021-08-13T07:30:46.158Z</time>
      </trkpt>
      <trkpt lat="46.84585" lon="8.45576">
        <ele>2169</ele>
        <time>2021-08-13T07:30:47.158Z</time>
      </trkpt>
      <trkpt lat="46.84585" lon="8.45575">
        <ele>2169</ele>
        <time>2021-08-13T07:30:48.159Z</time>
      </trkpt>
      <trkpt lat="46.84584" lon="8.45573">
        <ele>2169</ele>
        <time>2021-08-13T07:30:49.158Z</time>
      </trkpt>
      <trkpt lat="46.84584" lon="8.45572">
        <ele>2168</ele>
        <time>2021-08-13T07:30:50.158Z</time>
      </trkpt>
      <trkpt lat="46.84584" lon="8.4557">
        <ele>2168</ele>
        <time>2021-08-13T07:30:51.158Z</time>
      </trkpt>
      <trkpt lat="46.84583" lon="8.45568">
        <ele>2168</ele>
        <time>2021-08-13T07:30:52.158Z</time>
      </trkpt>
      <trkpt lat="46.84583" lon="8.45566">
        <ele>2168</ele>
        <time>2021-08-13T07:30:53.158Z</time>
      </trkpt>
      <trkpt lat="46.84582" lon="8.45565">
        <ele>2167</ele>
        <time>2021-08-13T07:30:54.158Z</time>
      </trkpt>
      <trkpt lat="46.84582" lon="8.45563">
        <ele>2167</ele>
        <time>2021-08-13T07:30:55.158Z</time>
      </trkpt>
      <trkpt lat="46.84581" lon="8.45562">
        <ele>2167</ele>
        <time>2021-08-13T07:30:56.158Z</time>
      </trkpt>
      <trkpt lat="46.84581" lon="8.45561">
        <ele>2167</ele>
        <time>2021-08-13T07:30:57.158Z</time>
      </trkpt>
      <trkpt lat="46.8458" lon="8.4556">
        <ele>2166</ele>
        <time>2021-08-13T07:30:58.158Z</time>
      </trkpt>
      <trkpt lat="46.8458" lon="8.45559">
        <ele>2166</ele>
        <time>2021-08-13T07:30:59.158Z</time>
      </trkpt>
      <trkpt lat="46.84579" lon="8.45557">
        <ele>2166</ele>
        <time>2021-08-13T07:31:00.158Z</time>
      </trkpt>
      <trkpt lat="46.84579" lon="8.45556">
        <ele>2166</ele>
        <time>2021-08-13T07:31:01.158Z</time>
      </trkpt>
      <trkpt lat="46.84578" lon="8.45554">
        <ele>2165</ele>
        <time>2021-08-13T07:31:02.158Z</time>
      </trkpt>
      <trkpt lat="46.84577" lon="8.45553">
        <ele>2165</ele>
        <time>2021-08-13T07:31:03.159Z</time>
      </trkpt>
      <trkpt lat="46.84577" lon="8.45551">
        <ele>2164</ele>
        <time>2021-08-13T07:31:04.158Z</time>
      </trkpt>
      <trkpt lat="46.84576" lon="8.45551">
        <ele>2164</ele>
        <time>2021-08-13T07:31:05.158Z</time>
      </trkpt>
      <trkpt lat="46.84576" lon="8.4555">
        <ele>2164</ele>
        <time>2021-08-13T07:31:06.158Z</time>
      </trkpt>
      <trkpt lat="46.84576" lon="8.45549">
        <ele>2164</ele>
        <time>2021-08-13T07:31:07.158Z</time>
      </trkpt>
      <trkpt lat="46.84576" lon="8.45549">
        <ele>2164</ele>
        <time>2021-08-13T07:31:08.158Z</time>
      </trkpt>
      <trkpt lat="46.84576" lon="8.45548">
        <ele>2164</ele>
        <time>2021-08-13T07:31:09.158Z</time>
      </trkpt>
      <trkpt lat="46.84576" lon="8.45548">
        <ele>2163</ele>
        <time>2021-08-13T07:31:10.158Z</time>
      </trkpt>
      <trkpt lat="46.84576" lon="8.45547">
        <ele>2163</ele>
        <time>2021-08-13T07:31:11.159Z</time>
      </trkpt>
      <trkpt lat="46.84576" lon="8.45546">
        <ele>2162</ele>
        <time>2021-08-13T07:31:12.158Z</time>
      </trkpt>
      <trkpt lat="46.84575" lon="8.45545">
        <ele>2162</ele>
        <time>2021-08-13T07:31:13.158Z</time>
      </trkpt>
      <trkpt lat="46.84575" lon="8.45544">
        <ele>2161</ele>
        <time>2021-08-13T07:31:14.158Z</time>
      </trkpt>
      <trkpt lat="46.84575" lon="8.45544">
        <ele>2161</ele>
        <time>2021-08-13T07:31:15.158Z</time>
      </trkpt>
      <trkpt lat="46.84574" lon="8.45543">
        <ele>2161</ele>
        <time>2021-08-13T07:31:16.158Z</time>
      </trkpt>
      <trkpt lat="46.84574" lon="8.45542">
        <ele>2161</ele>
        <time>2021-08-13T07:31:17.158Z</time>
      </trkpt>
      <trkpt lat="46.84574" lon="8.45541">
        <ele>2161</ele>
        <time>2021-08-13T07:31:18.158Z</time>
      </trkpt>
      <trkpt lat="46.84574" lon="8.4554">
        <ele>2161</ele>
        <time>2021-08-13T07:31:19.158Z</time>
      </trkpt>
      <trkpt lat="46.84573" lon="8.45538">
        <ele>2161</ele>
        <time>2021-08-13T07:31:20.158Z</time>
      </trkpt>
      <trkpt lat="46.84573" lon="8.45537">
        <ele>2162</ele>
        <time>2021-08-13T07:31:21.158Z</time>
      </trkpt>
      <trkpt lat="46.84573" lon="8.45536">
        <ele>2162</ele>
        <time>2021-08-13T07:31:22.158Z</time>
      </trkpt>
      <trkpt lat="46.84572" lon="8.45534">
        <ele>2162</ele>
        <time>2021-08-13T07:31:23.158Z</time>
      </trkpt>
      <trkpt lat="46.84572" lon="8.45533">
        <ele>2162</ele>
        <time>2021-08-13T07:31:24.158Z</time>
      </trkpt>
      <trkpt lat="46.84571" lon="8.45532">
        <ele>2161</ele>
        <time>2021-08-13T07:31:25.158Z</time>
      </trkpt>
      <trkpt lat="46.84571" lon="8.45531">
        <ele>2161</ele>
        <time>2021-08-13T07:31:26.159Z</time>
      </trkpt>
      <trkpt lat="46.8457" lon="8.45529">
        <ele>2161</ele>
        <time>2021-08-13T07:31:27.158Z</time>
      </trkpt>
      <trkpt lat="46.84569" lon="8.45528">
        <ele>2161</ele>
        <time>2021-08-13T07:31:28.158Z</time>
      </trkpt>
      <trkpt lat="46.84569" lon="8.45526">
        <ele>2161</ele>
        <time>2021-08-13T07:31:29.158Z</time>
      </trkpt>
      <trkpt lat="46.84569" lon="8.45525">
        <ele>2161</ele>
        <time>2021-08-13T07:31:30.159Z</time>
      </trkpt>
      <trkpt lat="46.84569" lon="8.45523">
        <ele>2161</ele>
        <time>2021-08-13T07:31:31.158Z</time>
      </trkpt>
      <trkpt lat="46.84568" lon="8.45521">
        <ele>2160</ele>
        <time>2021-08-13T07:31:32.158Z</time>
      </trkpt>
      <trkpt lat="46.84568" lon="8.4552">
        <ele>2160</ele>
        <time>2021-08-13T07:31:33.158Z</time>
      </trkpt>
      <trkpt lat="46.84567" lon="8.45519">
        <ele>2160</ele>
        <time>2021-08-13T07:31:34.158Z</time>
      </trkpt>
      <trkpt lat="46.84566" lon="8.45518">
        <ele>2159</ele>
        <time>2021-08-13T07:31:35.158Z</time>
      </trkpt>
      <trkpt lat="46.84565" lon="8.45516">
        <ele>2159</ele>
        <time>2021-08-13T07:31:36.158Z</time>
      </trkpt>
      <trkpt lat="46.84564" lon="8.45514">
        <ele>2158</ele>
        <time>2021-08-13T07:31:37.158Z</time>
      </trkpt>
      <trkpt lat="46.84563" lon="8.45514">
        <ele>2157</ele>
        <time>2021-08-13T07:31:38.158Z</time>
      </trkpt>
      <trkpt lat="46.84563" lon="8.45513">
        <ele>2157</ele>
        <time>2021-08-13T07:31:39.158Z</time>
      </trkpt>
      <trkpt lat="46.84562" lon="8.45513">
        <ele>2156</ele>
        <time>2021-08-13T07:31:40.158Z</time>
      </trkpt>
      <trkpt lat="46.84562" lon="8.45512">
        <ele>2156</ele>
        <time>2021-08-13T07:31:41.158Z</time>
      </trkpt>
      <trkpt lat="46.84561" lon="8.45512">
        <ele>2155</ele>
        <time>2021-08-13T07:31:42.158Z</time>
      </trkpt>
      <trkpt lat="46.8456" lon="8.45511">
        <ele>2155</ele>
        <time>2021-08-13T07:31:43.158Z</time>
      </trkpt>
      <trkpt lat="46.84559" lon="8.45511">
        <ele>2154</ele>
        <time>2021-08-13T07:31:44.158Z</time>
      </trkpt>
      <trkpt lat="46.84558" lon="8.4551">
        <ele>2154</ele>
        <time>2021-08-13T07:31:45.158Z</time>
      </trkpt>
      <trkpt lat="46.84557" lon="8.4551">
        <ele>2154</ele>
        <time>2021-08-13T07:31:46.158Z</time>
      </trkpt>
      <trkpt lat="46.84556" lon="8.45509">
        <ele>2154</ele>
        <time>2021-08-13T07:31:47.158Z</time>
      </trkpt>
      <trkpt lat="46.84555" lon="8.45509">
        <ele>2153</ele>
        <time>2021-08-13T07:31:48.159Z</time>
      </trkpt>
      <trkpt lat="46.84554" lon="8.45508">
        <ele>2153</ele>
        <time>2021-08-13T07:31:49.159Z</time>
      </trkpt>
      <trkpt lat="46.84553" lon="8.45508">
        <ele>2153</ele>
        <time>2021-08-13T07:31:50.159Z</time>
      </trkpt>
      <trkpt lat="46.84552" lon="8.45507">
        <ele>2153</ele>
        <time>2021-08-13T07:31:51.158Z</time>
      </trkpt>
      <trkpt lat="46.84552" lon="8.45507">
        <ele>2153</ele>
        <time>2021-08-13T07:31:52.158Z</time>
      </trkpt>
      <trkpt lat="46.84551" lon="8.45507">
        <ele>2153</ele>
        <time>2021-08-13T07:31:53.158Z</time>
      </trkpt>
      <trkpt lat="46.8455" lon="8.45507">
        <ele>2153</ele>
        <time>2021-08-13T07:31:54.158Z</time>
      </trkpt>
      <trkpt lat="46.84549" lon="8.45506">
        <ele>2152</ele>
        <time>2021-08-13T07:31:55.158Z</time>
      </trkpt>
      <trkpt lat="46.84548" lon="8.45506">
        <ele>2152</ele>
        <time>2021-08-13T07:31:56.159Z</time>
      </trkpt>
      <trkpt lat="46.84547" lon="8.45506">
        <ele>2152</ele>
        <time>2021-08-13T07:31:57.158Z</time>
      </trkpt>
      <trkpt lat="46.84546" lon="8.45506">
        <ele>2151</ele>
        <time>2021-08-13T07:31:58.159Z</time>
      </trkpt>
      <trkpt lat="46.84546" lon="8.45506">
        <ele>2151</ele>
        <time>2021-08-13T07:31:59.159Z</time>
      </trkpt>
      <trkpt lat="46.84545" lon="8.45505">
        <ele>2151</ele>
        <time>2021-08-13T07:32:00.159Z</time>
      </trkpt>
      <trkpt lat="46.84544" lon="8.45505">
        <ele>2151</ele>
        <time>2021-08-13T07:32:01.159Z</time>
      </trkpt>
      <trkpt lat="46.84543" lon="8.45504">
        <ele>2151</ele>
        <time>2021-08-13T07:32:02.158Z</time>
      </trkpt>
      <trkpt lat="46.84542" lon="8.45504">
        <ele>2150</ele>
        <time>2021-08-13T07:32:03.159Z</time>
      </trkpt>
      <trkpt lat="46.84542" lon="8.45503">
        <ele>2150</ele>
        <time>2021-08-13T07:32:04.158Z</time>
      </trkpt>
      <trkpt lat="46.84542" lon="8.45503">
        <ele>2150</ele>
        <time>2021-08-13T07:32:05.158Z</time>
      </trkpt>
      <trkpt lat="46.84541" lon="8.45502">
        <ele>2150</ele>
        <time>2021-08-13T07:32:06.158Z</time>
      </trkpt>
      <trkpt lat="46.84541" lon="8.45501">
        <ele>2150</ele>
        <time>2021-08-13T07:32:07.159Z</time>
      </trkpt>
      <trkpt lat="46.84541" lon="8.455">
        <ele>2150</ele>
        <time>2021-08-13T07:32:08.158Z</time>
      </trkpt>
      <trkpt lat="46.8454" lon="8.45498">
        <ele>2150</ele>
        <time>2021-08-13T07:32:09.158Z</time>
      </trkpt>
      <trkpt lat="46.84539" lon="8.45496">
        <ele>2151</ele>
        <time>2021-08-13T07:32:10.158Z</time>
      </trkpt>
      <trkpt lat="46.84539" lon="8.45495">
        <ele>2151</ele>
        <time>2021-08-13T07:32:11.158Z</time>
      </trkpt>
      <trkpt lat="46.84538" lon="8.45494">
        <ele>2151</ele>
        <time>2021-08-13T07:32:12.158Z</time>
      </trkpt>
      <trkpt lat="46.84538" lon="8.45494">
        <ele>2152</ele>
        <time>2021-08-13T07:32:13.158Z</time>
      </trkpt>
      <trkpt lat="46.84537" lon="8.45493">
        <ele>2152</ele>
        <time>2021-08-13T07:32:14.158Z</time>
      </trkpt>
      <trkpt lat="46.84537" lon="8.45492">
        <ele>2152</ele>
        <time>2021-08-13T07:32:15.158Z</time>
      </trkpt>
      <trkpt lat="46.84536" lon="8.4549">
        <ele>2152</ele>
        <time>2021-08-13T07:32:16.158Z</time>
      </trkpt>
      <trkpt lat="46.84536" lon="8.45489">
        <ele>2152</ele>
        <time>2021-08-13T07:32:17.158Z</time>
      </trkpt>
      <trkpt lat="46.84535" lon="8.45488">
        <ele>2153</ele>
        <time>2021-08-13T07:32:18.158Z</time>
      </trkpt>
      <trkpt lat="46.84535" lon="8.45487">
        <ele>2152</ele>
        <time>2021-08-13T07:32:19.158Z</time>
      </trkpt>
      <trkpt lat="46.84534" lon="8.45486">
        <ele>2152</ele>
        <time>2021-08-13T07:32:20.158Z</time>
      </trkpt>
      <trkpt lat="46.84534" lon="8.45484">
        <ele>2152</ele>
        <time>2021-08-13T07:32:21.158Z</time>
      </trkpt>
      <trkpt lat="46.84533" lon="8.45483">
        <ele>2152</ele>
        <time>2021-08-13T07:32:22.158Z</time>
      </trkpt>
      <trkpt lat="46.84532" lon="8.45482">
        <ele>2152</ele>
        <time>2021-08-13T07:32:23.158Z</time>
      </trkpt>
      <trkpt lat="46.84532" lon="8.4548">
        <ele>2151</ele>
        <time>2021-08-13T07:32:24.158Z</time>
      </trkpt>
      <trkpt lat="46.84531" lon="8.4548">
        <ele>2151</ele>
        <time>2021-08-13T07:32:25.159Z</time>
      </trkpt>
      <trkpt lat="46.8453" lon="8.45478">
        <ele>2150</ele>
        <time>2021-08-13T07:32:26.158Z</time>
      </trkpt>
      <trkpt lat="46.8453" lon="8.45477">
        <ele>2149</ele>
        <time>2021-08-13T07:32:27.158Z</time>
      </trkpt>
      <trkpt lat="46.8453" lon="8.45476">
        <ele>2149</ele>
        <time>2021-08-13T07:32:28.158Z</time>
      </trkpt>
      <trkpt lat="46.8453" lon="8.45475">
        <ele>2148</ele>
        <time>2021-08-13T07:32:29.158Z</time>
      </trkpt>
      <trkpt lat="46.84529" lon="8.45474">
        <ele>2148</ele>
        <time>2021-08-13T07:32:30.159Z</time>
      </trkpt>
      <trkpt lat="46.84529" lon="8.45473">
        <ele>2148</ele>
        <time>2021-08-13T07:32:31.158Z</time>
      </trkpt>
      <trkpt lat="46.84529" lon="8.45472">
        <ele>2148</ele>
        <time>2021-08-13T07:32:32.158Z</time>
      </trkpt>
      <trkpt lat="46.84529" lon="8.45471">
        <ele>2147</ele>
        <time>2021-08-13T07:32:33.158Z</time>
      </trkpt>
      <trkpt lat="46.84529" lon="8.4547">
        <ele>2147</ele>
        <time>2021-08-13T07:32:34.158Z</time>
      </trkpt>
      <trkpt lat="46.84529" lon="8.45469">
        <ele>2146</ele>
        <time>2021-08-13T07:32:35.159Z</time>
      </trkpt>
      <trkpt lat="46.84529" lon="8.45468">
        <ele>2146</ele>
        <time>2021-08-13T07:32:36.158Z</time>
      </trkpt>
      <trkpt lat="46.84528" lon="8.45467">
        <ele>2145</ele>
        <time>2021-08-13T07:32:37.158Z</time>
      </trkpt>
      <trkpt lat="46.84528" lon="8.45465">
        <ele>2146</ele>
        <time>2021-08-13T07:32:38.159Z</time>
      </trkpt>
      <trkpt lat="46.84527" lon="8.45464">
        <ele>2146</ele>
        <time>2021-08-13T07:32:39.158Z</time>
      </trkpt>
      <trkpt lat="46.84526" lon="8.45463">
        <ele>2146</ele>
        <time>2021-08-13T07:32:40.159Z</time>
      </trkpt>
      <trkpt lat="46.84526" lon="8.45462">
        <ele>2146</ele>
        <time>2021-08-13T07:32:41.158Z</time>
      </trkpt>
      <trkpt lat="46.84525" lon="8.4546">
        <ele>2146</ele>
        <time>2021-08-13T07:32:42.158Z</time>
      </trkpt>
      <trkpt lat="46.84524" lon="8.45459">
        <ele>2147</ele>
        <time>2021-08-13T07:32:43.158Z</time>
      </trkpt>
      <trkpt lat="46.84524" lon="8.45458">
        <ele>2146</ele>
        <time>2021-08-13T07:32:44.158Z</time>
      </trkpt>
      <trkpt lat="46.84523" lon="8.45457">
        <ele>2146</ele>
        <time>2021-08-13T07:32:45.159Z</time>
      </trkpt>
      <trkpt lat="46.84522" lon="8.45456">
        <ele>2146</ele>
        <time>2021-08-13T07:32:46.158Z</time>
      </trkpt>
      <trkpt lat="46.84522" lon="8.45456">
        <ele>2145</ele>
        <time>2021-08-13T07:32:47.159Z</time>
      </trkpt>
      <trkpt lat="46.84521" lon="8.45455">
        <ele>2144</ele>
        <time>2021-08-13T07:32:48.159Z</time>
      </trkpt>
      <trkpt lat="46.84521" lon="8.45454">
        <ele>2144</ele>
        <time>2021-08-13T07:32:49.159Z</time>
      </trkpt>
      <trkpt lat="46.8452" lon="8.45453">
        <ele>2143</ele>
        <time>2021-08-13T07:32:50.158Z</time>
      </trkpt>
      <trkpt lat="46.8452" lon="8.45452">
        <ele>2142</ele>
        <time>2021-08-13T07:32:51.159Z</time>
      </trkpt>
      <trkpt lat="46.8452" lon="8.45451">
        <ele>2142</ele>
        <time>2021-08-13T07:32:52.159Z</time>
      </trkpt>
      <trkpt lat="46.84519" lon="8.4545">
        <ele>2142</ele>
        <time>2021-08-13T07:32:53.158Z</time>
      </trkpt>
      <trkpt lat="46.84518" lon="8.45449">
        <ele>2141</ele>
        <time>2021-08-13T07:32:54.158Z</time>
      </trkpt>
      <trkpt lat="46.84518" lon="8.45448">
        <ele>2140</ele>
        <time>2021-08-13T07:32:55.158Z</time>
      </trkpt>
      <trkpt lat="46.84517" lon="8.45447">
        <ele>2140</ele>
        <time>2021-08-13T07:32:56.158Z</time>
      </trkpt>
      <trkpt lat="46.84516" lon="8.45446">
        <ele>2139</ele>
        <time>2021-08-13T07:32:57.158Z</time>
      </trkpt>
      <trkpt lat="46.84516" lon="8.45446">
        <ele>2139</ele>
        <time>2021-08-13T07:32:58.158Z</time>
      </trkpt>
      <trkpt lat="46.84515" lon="8.45445">
        <ele>2138</ele>
        <time>2021-08-13T07:32:59.158Z</time>
      </trkpt>
      <trkpt lat="46.84514" lon="8.45444">
        <ele>2138</ele>
        <time>2021-08-13T07:33:00.158Z</time>
      </trkpt>
      <trkpt lat="46.84514" lon="8.45443">
        <ele>2138</ele>
        <time>2021-08-13T07:33:01.158Z</time>
      </trkpt>
      <trkpt lat="46.84513" lon="8.45442">
        <ele>2138</ele>
        <time>2021-08-13T07:33:02.158Z</time>
      </trkpt>
      <trkpt lat="46.84513" lon="8.4544">
        <ele>2137</ele>
        <time>2021-08-13T07:33:03.158Z</time>
      </trkpt>
      <trkpt lat="46.84513" lon="8.45439">
        <ele>2137</ele>
        <time>2021-08-13T07:33:04.159Z</time>
      </trkpt>
      <trkpt lat="46.84513" lon="8.45438">
        <ele>2137</ele>
        <time>2021-08-13T07:33:05.158Z</time>
      </trkpt>
      <trkpt lat="46.84512" lon="8.45438">
        <ele>2137</ele>
        <time>2021-08-13T07:33:06.158Z</time>
      </trkpt>
      <trkpt lat="46.84512" lon="8.45437">
        <ele>2137</ele>
        <time>2021-08-13T07:33:07.158Z</time>
      </trkpt>
      <trkpt lat="46.84512" lon="8.45437">
        <ele>2137</ele>
        <time>2021-08-13T07:33:08.158Z</time>
      </trkpt>
      <trkpt lat="46.8451" lon="8.45434">
        <ele>2136</ele>
        <time>2021-08-13T07:33:09.159Z</time>
      </trkpt>
      <trkpt lat="46.8451" lon="8.45434">
        <ele>2136</ele>
        <time>2021-08-13T07:33:10.159Z</time>
      </trkpt>
      <trkpt lat="46.8451" lon="8.45433">
        <ele>2136</ele>
        <time>2021-08-13T07:33:11.158Z</time>
      </trkpt>
      <trkpt lat="46.84509" lon="8.45432">
        <ele>2136</ele>
        <time>2021-08-13T07:33:12.158Z</time>
      </trkpt>
      <trkpt lat="46.84508" lon="8.45431">
        <ele>2136</ele>
        <time>2021-08-13T07:33:13.159Z</time>
      </trkpt>
      <trkpt lat="46.84508" lon="8.4543">
        <ele>2136</ele>
        <time>2021-08-13T07:33:14.158Z</time>
      </trkpt>
      <trkpt lat="46.84508" lon="8.45429">
        <ele>2135</ele>
        <time>2021-08-13T07:33:15.158Z</time>
      </trkpt>
      <trkpt lat="46.84508" lon="8.45428">
        <ele>2135</ele>
        <time>2021-08-13T07:33:16.158Z</time>
      </trkpt>
      <trkpt lat="46.84507" lon="8.45426">
        <ele>2135</ele>
        <time>2021-08-13T07:33:17.159Z</time>
      </trkpt>
      <trkpt lat="46.84507" lon="8.45424">
        <ele>2135</ele>
        <time>2021-08-13T07:33:18.158Z</time>
      </trkpt>
      <trkpt lat="46.84507" lon="8.45423">
        <ele>2135</ele>
        <time>2021-08-13T07:33:19.159Z</time>
      </trkpt>
      <trkpt lat="46.84506" lon="8.45422">
        <ele>2134</ele>
        <time>2021-08-13T07:33:20.158Z</time>
      </trkpt>
      <trkpt lat="46.84506" lon="8.45421">
        <ele>2134</ele>
        <time>2021-08-13T07:33:21.159Z</time>
      </trkpt>
      <trkpt lat="46.84506" lon="8.4542">
        <ele>2133</ele>
        <time>2021-08-13T07:33:22.159Z</time>
      </trkpt>
      <trkpt lat="46.84506" lon="8.45418">
        <ele>2133</ele>
        <time>2021-08-13T07:33:23.159Z</time>
      </trkpt>
      <trkpt lat="46.84506" lon="8.45417">
        <ele>2133</ele>
        <time>2021-08-13T07:33:24.158Z</time>
      </trkpt>
      <trkpt lat="46.84506" lon="8.45416">
        <ele>2133</ele>
        <time>2021-08-13T07:33:25.159Z</time>
      </trkpt>
      <trkpt lat="46.84506" lon="8.45416">
        <ele>2133</ele>
        <time>2021-08-13T07:33:26.158Z</time>
      </trkpt>
      <trkpt lat="46.84506" lon="8.45415">
        <ele>2133</ele>
        <time>2021-08-13T07:33:27.158Z</time>
      </trkpt>
      <trkpt lat="46.84505" lon="8.45414">
        <ele>2132</ele>
        <time>2021-08-13T07:33:28.159Z</time>
      </trkpt>
      <trkpt lat="46.84505" lon="8.45412">
        <ele>2133</ele>
        <time>2021-08-13T07:33:29.159Z</time>
      </trkpt>
      <trkpt lat="46.84505" lon="8.45411">
        <ele>2133</ele>
        <time>2021-08-13T07:33:30.158Z</time>
      </trkpt>
      <trkpt lat="46.84505" lon="8.4541">
        <ele>2133</ele>
        <time>2021-08-13T07:33:31.159Z</time>
      </trkpt>
      <trkpt lat="46.84504" lon="8.45408">
        <ele>2132</ele>
        <time>2021-08-13T07:33:32.159Z</time>
      </trkpt>
      <trkpt lat="46.84504" lon="8.45407">
        <ele>2132</ele>
        <time>2021-08-13T07:33:33.158Z</time>
      </trkpt>
      <trkpt lat="46.84504" lon="8.45406">
        <ele>2132</ele>
        <time>2021-08-13T07:33:34.159Z</time>
      </trkpt>
      <trkpt lat="46.84504" lon="8.45404">
        <ele>2132</ele>
        <time>2021-08-13T07:33:35.158Z</time>
      </trkpt>
      <trkpt lat="46.84503" lon="8.45403">
        <ele>2131</ele>
        <time>2021-08-13T07:33:36.158Z</time>
      </trkpt>
      <trkpt lat="46.84503" lon="8.45402">
        <ele>2131</ele>
        <time>2021-08-13T07:33:37.159Z</time>
      </trkpt>
      <trkpt lat="46.84504" lon="8.45402">
        <ele>2131</ele>
        <time>2021-08-13T07:33:38.159Z</time>
      </trkpt>
      <trkpt lat="46.84504" lon="8.454">
        <ele>2131</ele>
        <time>2021-08-13T07:33:39.158Z</time>
      </trkpt>
      <trkpt lat="46.84503" lon="8.45398">
        <ele>2130</ele>
        <time>2021-08-13T07:33:40.159Z</time>
      </trkpt>
      <trkpt lat="46.84503" lon="8.45397">
        <ele>2130</ele>
        <time>2021-08-13T07:33:41.158Z</time>
      </trkpt>
      <trkpt lat="46.84503" lon="8.45396">
        <ele>2130</ele>
        <time>2021-08-13T07:33:42.158Z</time>
      </trkpt>
      <trkpt lat="46.84503" lon="8.45395">
        <ele>2130</ele>
        <time>2021-08-13T07:33:43.159Z</time>
      </trkpt>
      <trkpt lat="46.84503" lon="8.45394">
        <ele>2130</ele>
        <time>2021-08-13T07:33:44.159Z</time>
      </trkpt>
      <trkpt lat="46.84503" lon="8.45393">
        <ele>2130</ele>
        <time>2021-08-13T07:33:45.158Z</time>
      </trkpt>
      <trkpt lat="46.84503" lon="8.45392">
        <ele>2130</ele>
        <time>2021-08-13T07:33:46.159Z</time>
      </trkpt>
      <trkpt lat="46.84503" lon="8.45391">
        <ele>2129</ele>
        <time>2021-08-13T07:33:47.158Z</time>
      </trkpt>
      <trkpt lat="46.84503" lon="8.4539">
        <ele>2129</ele>
        <time>2021-08-13T07:33:48.159Z</time>
      </trkpt>
      <trkpt lat="46.84502" lon="8.45389">
        <ele>2129</ele>
        <time>2021-08-13T07:33:49.159Z</time>
      </trkpt>
      <trkpt lat="46.84502" lon="8.45388">
        <ele>2129</ele>
        <time>2021-08-13T07:33:50.159Z</time>
      </trkpt>
      <trkpt lat="46.84502" lon="8.45387">
        <ele>2129</ele>
        <time>2021-08-13T07:33:51.158Z</time>
      </trkpt>
      <trkpt lat="46.84502" lon="8.45386">
        <ele>2129</ele>
        <time>2021-08-13T07:33:52.158Z</time>
      </trkpt>
      <trkpt lat="46.84502" lon="8.45384">
        <ele>2129</ele>
        <time>2021-08-13T07:33:53.158Z</time>
      </trkpt>
      <trkpt lat="46.84502" lon="8.45382">
        <ele>2129</ele>
        <time>2021-08-13T07:33:54.158Z</time>
      </trkpt>
      <trkpt lat="46.84502" lon="8.45381">
        <ele>2129</ele>
        <time>2021-08-13T07:33:55.158Z</time>
      </trkpt>
      <trkpt lat="46.84501" lon="8.4538">
        <ele>2129</ele>
        <time>2021-08-13T07:33:56.159Z</time>
      </trkpt>
      <trkpt lat="46.84501" lon="8.45379">
        <ele>2129</ele>
        <time>2021-08-13T07:33:57.158Z</time>
      </trkpt>
      <trkpt lat="46.84501" lon="8.45378">
        <ele>2128</ele>
        <time>2021-08-13T07:33:58.159Z</time>
      </trkpt>
      <trkpt lat="46.84501" lon="8.45377">
        <ele>2128</ele>
        <time>2021-08-13T07:33:59.158Z</time>
      </trkpt>
      <trkpt lat="46.84501" lon="8.45376">
        <ele>2128</ele>
        <time>2021-08-13T07:34:00.158Z</time>
      </trkpt>
      <trkpt lat="46.84501" lon="8.45375">
        <ele>2128</ele>
        <time>2021-08-13T07:34:01.158Z</time>
      </trkpt>
      <trkpt lat="46.84501" lon="8.45375">
        <ele>2128</ele>
        <time>2021-08-13T07:34:02.158Z</time>
      </trkpt>
      <trkpt lat="46.845" lon="8.45373">
        <ele>2129</ele>
        <time>2021-08-13T07:34:03.159Z</time>
      </trkpt>
      <trkpt lat="46.845" lon="8.45371">
        <ele>2129</ele>
        <time>2021-08-13T07:34:04.159Z</time>
      </trkpt>
      <trkpt lat="46.845" lon="8.45371">
        <ele>2129</ele>
        <time>2021-08-13T07:34:05.159Z</time>
      </trkpt>
      <trkpt lat="46.845" lon="8.45369">
        <ele>2129</ele>
        <time>2021-08-13T07:34:06.158Z</time>
      </trkpt>
      <trkpt lat="46.845" lon="8.45368">
        <ele>2129</ele>
        <time>2021-08-13T07:34:07.158Z</time>
      </trkpt>
      <trkpt lat="46.845" lon="8.45366">
        <ele>2129</ele>
        <time>2021-08-13T07:34:08.158Z</time>
      </trkpt>
      <trkpt lat="46.845" lon="8.45365">
        <ele>2129</ele>
        <time>2021-08-13T07:34:09.158Z</time>
      </trkpt>
      <trkpt lat="46.84499" lon="8.45364">
        <ele>2129</ele>
        <time>2021-08-13T07:34:10.158Z</time>
      </trkpt>
      <trkpt lat="46.84498" lon="8.45363">
        <ele>2129</ele>
        <time>2021-08-13T07:34:11.158Z</time>
      </trkpt>
      <trkpt lat="46.84498" lon="8.45361">
        <ele>2128</ele>
        <time>2021-08-13T07:34:12.158Z</time>
      </trkpt>
      <trkpt lat="46.84497" lon="8.4536">
        <ele>2128</ele>
        <time>2021-08-13T07:34:13.158Z</time>
      </trkpt>
      <trkpt lat="46.84497" lon="8.45359">
        <ele>2127</ele>
        <time>2021-08-13T07:34:14.158Z</time>
      </trkpt>
      <trkpt lat="46.84496" lon="8.45358">
        <ele>2127</ele>
        <time>2021-08-13T07:34:15.158Z</time>
      </trkpt>
      <trkpt lat="46.84496" lon="8.45357">
        <ele>2126</ele>
        <time>2021-08-13T07:34:16.159Z</time>
      </trkpt>
      <trkpt lat="46.84496" lon="8.45356">
        <ele>2125</ele>
        <time>2021-08-13T07:34:17.158Z</time>
      </trkpt>
      <trkpt lat="46.84496" lon="8.45355">
        <ele>2125</ele>
        <time>2021-08-13T07:34:18.158Z</time>
      </trkpt>
      <trkpt lat="46.84496" lon="8.45354">
        <ele>2124</ele>
        <time>2021-08-13T07:34:19.158Z</time>
      </trkpt>
      <trkpt lat="46.84495" lon="8.45353">
        <ele>2124</ele>
        <time>2021-08-13T07:34:20.159Z</time>
      </trkpt>
      <trkpt lat="46.84495" lon="8.45352">
        <ele>2123</ele>
        <time>2021-08-13T07:34:21.158Z</time>
      </trkpt>
      <trkpt lat="46.84495" lon="8.45351">
        <ele>2123</ele>
        <time>2021-08-13T07:34:22.158Z</time>
      </trkpt>
      <trkpt lat="46.84495" lon="8.45349">
        <ele>2123</ele>
        <time>2021-08-13T07:34:23.159Z</time>
      </trkpt>
      <trkpt lat="46.84495" lon="8.45348">
        <ele>2123</ele>
        <time>2021-08-13T07:34:24.159Z</time>
      </trkpt>
      <trkpt lat="46.84494" lon="8.45346">
        <ele>2123</ele>
        <time>2021-08-13T07:34:25.158Z</time>
      </trkpt>
      <trkpt lat="46.84494" lon="8.45344">
        <ele>2123</ele>
        <time>2021-08-13T07:34:26.158Z</time>
      </trkpt>
      <trkpt lat="46.84494" lon="8.45343">
        <ele>2123</ele>
        <time>2021-08-13T07:34:27.158Z</time>
      </trkpt>
      <trkpt lat="46.84494" lon="8.45342">
        <ele>2123</ele>
        <time>2021-08-13T07:34:28.158Z</time>
      </trkpt>
      <trkpt lat="46.84494" lon="8.45341">
        <ele>2123</ele>
        <time>2021-08-13T07:34:29.158Z</time>
      </trkpt>
      <trkpt lat="46.84493" lon="8.4534">
        <ele>2123</ele>
        <time>2021-08-13T07:34:30.158Z</time>
      </trkpt>
      <trkpt lat="46.84493" lon="8.45338">
        <ele>2122</ele>
        <time>2021-08-13T07:34:31.159Z</time>
      </trkpt>
      <trkpt lat="46.84492" lon="8.45337">
        <ele>2122</ele>
        <time>2021-08-13T07:34:32.158Z</time>
      </trkpt>
      <trkpt lat="46.84491" lon="8.45336">
        <ele>2121</ele>
        <time>2021-08-13T07:34:33.158Z</time>
      </trkpt>
      <trkpt lat="46.84491" lon="8.45335">
        <ele>2121</ele>
        <time>2021-08-13T07:34:34.158Z</time>
      </trkpt>
      <trkpt lat="46.8449" lon="8.45333">
        <ele>2120</ele>
        <time>2021-08-13T07:34:35.158Z</time>
      </trkpt>
      <trkpt lat="46.8449" lon="8.45332">
        <ele>2120</ele>
        <time>2021-08-13T07:34:36.158Z</time>
      </trkpt>
      <trkpt lat="46.8449" lon="8.45331">
        <ele>2119</ele>
        <time>2021-08-13T07:34:37.158Z</time>
      </trkpt>
      <trkpt lat="46.84489" lon="8.4533">
        <ele>2119</ele>
        <time>2021-08-13T07:34:38.158Z</time>
      </trkpt>
      <trkpt lat="46.84489" lon="8.45328">
        <ele>2118</ele>
        <time>2021-08-13T07:34:39.159Z</time>
      </trkpt>
      <trkpt lat="46.84488" lon="8.45326">
        <ele>2118</ele>
        <time>2021-08-13T07:34:40.158Z</time>
      </trkpt>
      <trkpt lat="46.84488" lon="8.45325">
        <ele>2117</ele>
        <time>2021-08-13T07:34:41.158Z</time>
      </trkpt>
      <trkpt lat="46.84488" lon="8.45325">
        <ele>2117</ele>
        <time>2021-08-13T07:34:42.158Z</time>
      </trkpt>
      <trkpt lat="46.84488" lon="8.45324">
        <ele>2116</ele>
        <time>2021-08-13T07:34:43.159Z</time>
      </trkpt>
      <trkpt lat="46.84487" lon="8.45322">
        <ele>2112</ele>
        <time>2021-08-13T07:34:44.159Z</time>
      </trkpt>
      <trkpt lat="46.84487" lon="8.45322">
        <ele>2112</ele>
        <time>2021-08-13T07:34:45.158Z</time>
      </trkpt>
      <trkpt lat="46.84486" lon="8.45321">
        <ele>2112</ele>
        <time>2021-08-13T07:34:46.159Z</time>
      </trkpt>
      <trkpt lat="46.84487" lon="8.45321">
        <ele>2112</ele>
        <time>2021-08-13T07:34:47.160Z</time>
      </trkpt>
      <trkpt lat="46.84486" lon="8.45321">
        <ele>2112</ele>
        <time>2021-08-13T07:34:48.159Z</time>
      </trkpt>
      <trkpt lat="46.84486" lon="8.4532">
        <ele>2112</ele>
        <time>2021-08-13T07:34:49.160Z</time>
      </trkpt>
      <trkpt lat="46.84486" lon="8.45319">
        <ele>2112</ele>
        <time>2021-08-13T07:34:50.159Z</time>
      </trkpt>
      <trkpt lat="46.84485" lon="8.45319">
        <ele>2111</ele>
        <time>2021-08-13T07:34:51.159Z</time>
      </trkpt>
      <trkpt lat="46.84485" lon="8.45318">
        <ele>2111</ele>
        <time>2021-08-13T07:34:52.160Z</time>
      </trkpt>
      <trkpt lat="46.84485" lon="8.45317">
        <ele>2111</ele>
        <time>2021-08-13T07:34:53.160Z</time>
      </trkpt>
      <trkpt lat="46.84485" lon="8.45316">
        <ele>2111</ele>
        <time>2021-08-13T07:34:54.159Z</time>
      </trkpt>
      <trkpt lat="46.84484" lon="8.45315">
        <ele>2111</ele>
        <time>2021-08-13T07:34:55.160Z</time>
      </trkpt>
      <trkpt lat="46.84484" lon="8.45314">
        <ele>2111</ele>
        <time>2021-08-13T07:34:56.160Z</time>
      </trkpt>
      <trkpt lat="46.84484" lon="8.45313">
        <ele>2111</ele>
        <time>2021-08-13T07:34:57.159Z</time>
      </trkpt>
      <trkpt lat="46.84484" lon="8.45312">
        <ele>2111</ele>
        <time>2021-08-13T07:34:58.160Z</time>
      </trkpt>
      <trkpt lat="46.84483" lon="8.4531">
        <ele>2112</ele>
        <time>2021-08-13T07:34:59.159Z</time>
      </trkpt>
      <trkpt lat="46.84483" lon="8.45309">
        <ele>2112</ele>
        <time>2021-08-13T07:35:00.159Z</time>
      </trkpt>
      <trkpt lat="46.84483" lon="8.45308">
        <ele>2111</ele>
        <time>2021-08-13T07:35:01.159Z</time>
      </trkpt>
      <trkpt lat="46.84482" lon="8.45307">
        <ele>2111</ele>
        <time>2021-08-13T07:35:02.159Z</time>
      </trkpt>
      <trkpt lat="46.84482" lon="8.45305">
        <ele>2111</ele>
        <time>2021-08-13T07:35:03.159Z</time>
      </trkpt>
      <trkpt lat="46.84482" lon="8.45304">
        <ele>2111</ele>
        <time>2021-08-13T07:35:04.159Z</time>
      </trkpt>
      <trkpt lat="46.84481" lon="8.45302">
        <ele>2111</ele>
        <time>2021-08-13T07:35:05.159Z</time>
      </trkpt>
      <trkpt lat="46.84481" lon="8.45301">
        <ele>2111</ele>
        <time>2021-08-13T07:35:06.160Z</time>
      </trkpt>
      <trkpt lat="46.8448" lon="8.45299">
        <ele>2111</ele>
        <time>2021-08-13T07:35:07.159Z</time>
      </trkpt>
      <trkpt lat="46.84479" lon="8.45297">
        <ele>2112</ele>
        <time>2021-08-13T07:35:08.160Z</time>
      </trkpt>
      <trkpt lat="46.84478" lon="8.45296">
        <ele>2112</ele>
        <time>2021-08-13T07:35:09.159Z</time>
      </trkpt>
      <trkpt lat="46.84478" lon="8.45294">
        <ele>2112</ele>
        <time>2021-08-13T07:35:10.160Z</time>
      </trkpt>
      <trkpt lat="46.84477" lon="8.45293">
        <ele>2112</ele>
        <time>2021-08-13T07:35:11.159Z</time>
      </trkpt>
      <trkpt lat="46.84476" lon="8.45292">
        <ele>2111</ele>
        <time>2021-08-13T07:35:12.160Z</time>
      </trkpt>
      <trkpt lat="46.84476" lon="8.4529">
        <ele>2111</ele>
        <time>2021-08-13T07:35:13.159Z</time>
      </trkpt>
      <trkpt lat="46.84475" lon="8.45289">
        <ele>2111</ele>
        <time>2021-08-13T07:35:14.160Z</time>
      </trkpt>
      <trkpt lat="46.84474" lon="8.45288">
        <ele>2111</ele>
        <time>2021-08-13T07:35:15.160Z</time>
      </trkpt>
      <trkpt lat="46.84473" lon="8.45286">
        <ele>2111</ele>
        <time>2021-08-13T07:35:16.159Z</time>
      </trkpt>
      <trkpt lat="46.84473" lon="8.45284">
        <ele>2110</ele>
        <time>2021-08-13T07:35:17.159Z</time>
      </trkpt>
      <trkpt lat="46.84472" lon="8.45283">
        <ele>2110</ele>
        <time>2021-08-13T07:35:18.159Z</time>
      </trkpt>
      <trkpt lat="46.84472" lon="8.45281">
        <ele>2110</ele>
        <time>2021-08-13T07:35:19.159Z</time>
      </trkpt>
      <trkpt lat="46.84472" lon="8.4528">
        <ele>2110</ele>
        <time>2021-08-13T07:35:20.159Z</time>
      </trkpt>
      <trkpt lat="46.84471" lon="8.45279">
        <ele>2109</ele>
        <time>2021-08-13T07:35:21.160Z</time>
      </trkpt>
      <trkpt lat="46.84471" lon="8.45278">
        <ele>2109</ele>
        <time>2021-08-13T07:35:22.160Z</time>
      </trkpt>
      <trkpt lat="46.84471" lon="8.45276">
        <ele>2109</ele>
        <time>2021-08-13T07:35:23.159Z</time>
      </trkpt>
      <trkpt lat="46.84471" lon="8.45275">
        <ele>2109</ele>
        <time>2021-08-13T07:35:24.159Z</time>
      </trkpt>
      <trkpt lat="46.8447" lon="8.45274">
        <ele>2109</ele>
        <time>2021-08-13T07:35:25.160Z</time>
      </trkpt>
      <trkpt lat="46.84469" lon="8.45272">
        <ele>2109</ele>
        <time>2021-08-13T07:35:26.159Z</time>
      </trkpt>
      <trkpt lat="46.84469" lon="8.4527">
        <ele>2109</ele>
        <time>2021-08-13T07:35:27.159Z</time>
      </trkpt>
      <trkpt lat="46.84467" lon="8.45269">
        <ele>2109</ele>
        <time>2021-08-13T07:35:28.160Z</time>
      </trkpt>
      <trkpt lat="46.84467" lon="8.45268">
        <ele>2109</ele>
        <time>2021-08-13T07:35:29.160Z</time>
      </trkpt>
      <trkpt lat="46.84465" lon="8.45267">
        <ele>2109</ele>
        <time>2021-08-13T07:35:30.159Z</time>
      </trkpt>
      <trkpt lat="46.84464" lon="8.45266">
        <ele>2109</ele>
        <time>2021-08-13T07:35:31.159Z</time>
      </trkpt>
      <trkpt lat="46.84462" lon="8.45265">
        <ele>2109</ele>
        <time>2021-08-13T07:35:32.159Z</time>
      </trkpt>
      <trkpt lat="46.84461" lon="8.45265">
        <ele>2109</ele>
        <time>2021-08-13T07:35:33.159Z</time>
      </trkpt>
      <trkpt lat="46.84461" lon="8.45265">
        <ele>2109</ele>
        <time>2021-08-13T07:35:34.159Z</time>
      </trkpt>
      <trkpt lat="46.8446" lon="8.45264">
        <ele>2109</ele>
        <time>2021-08-13T07:35:35.159Z</time>
      </trkpt>
      <trkpt lat="46.84458" lon="8.45264">
        <ele>2109</ele>
        <time>2021-08-13T07:35:36.159Z</time>
      </trkpt>
      <trkpt lat="46.84457" lon="8.45264">
        <ele>2108</ele>
        <time>2021-08-13T07:35:37.159Z</time>
      </trkpt>
      <trkpt lat="46.84456" lon="8.45263">
        <ele>2108</ele>
        <time>2021-08-13T07:35:38.159Z</time>
      </trkpt>
      <trkpt lat="46.84456" lon="8.45263">
        <ele>2107</ele>
        <time>2021-08-13T07:35:39.160Z</time>
      </trkpt>
      <trkpt lat="46.84456" lon="8.45263">
        <ele>2106</ele>
        <time>2021-08-13T07:35:40.159Z</time>
      </trkpt>
      <trkpt lat="46.84456" lon="8.45262">
        <ele>2106</ele>
        <time>2021-08-13T07:35:41.159Z</time>
      </trkpt>
      <trkpt lat="46.84456" lon="8.45262">
        <ele>2105</ele>
        <time>2021-08-13T07:35:42.160Z</time>
      </trkpt>
      <trkpt lat="46.84456" lon="8.45261">
        <ele>2105</ele>
        <time>2021-08-13T07:35:43.159Z</time>
      </trkpt>
      <trkpt lat="46.84456" lon="8.4526">
        <ele>2104</ele>
        <time>2021-08-13T07:35:44.159Z</time>
      </trkpt>
      <trkpt lat="46.84456" lon="8.45258">
        <ele>2104</ele>
        <time>2021-08-13T07:35:45.159Z</time>
      </trkpt>
      <trkpt lat="46.84456" lon="8.45256">
        <ele>2104</ele>
        <time>2021-08-13T07:35:46.159Z</time>
      </trkpt>
      <trkpt lat="46.84456" lon="8.45255">
        <ele>2104</ele>
        <time>2021-08-13T07:35:47.159Z</time>
      </trkpt>
      <trkpt lat="46.84456" lon="8.45253">
        <ele>2105</ele>
        <time>2021-08-13T07:35:48.160Z</time>
      </trkpt>
      <trkpt lat="46.84455" lon="8.45252">
        <ele>2105</ele>
        <time>2021-08-13T07:35:49.159Z</time>
      </trkpt>
      <trkpt lat="46.84455" lon="8.45251">
        <ele>2105</ele>
        <time>2021-08-13T07:35:50.160Z</time>
      </trkpt>
      <trkpt lat="46.84454" lon="8.45249">
        <ele>2105</ele>
        <time>2021-08-13T07:35:51.159Z</time>
      </trkpt>
      <trkpt lat="46.84454" lon="8.45247">
        <ele>2105</ele>
        <time>2021-08-13T07:35:52.159Z</time>
      </trkpt>
      <trkpt lat="46.84453" lon="8.45246">
        <ele>2105</ele>
        <time>2021-08-13T07:35:53.159Z</time>
      </trkpt>
      <trkpt lat="46.84452" lon="8.45244">
        <ele>2106</ele>
        <time>2021-08-13T07:35:54.160Z</time>
      </trkpt>
      <trkpt lat="46.84452" lon="8.45242">
        <ele>2106</ele>
        <time>2021-08-13T07:35:55.159Z</time>
      </trkpt>
      <trkpt lat="46.84451" lon="8.45241">
        <ele>2106</ele>
        <time>2021-08-13T07:35:56.159Z</time>
      </trkpt>
      <trkpt lat="46.84451" lon="8.4524">
        <ele>2106</ele>
        <time>2021-08-13T07:35:57.159Z</time>
      </trkpt>
      <trkpt lat="46.8445" lon="8.45238">
        <ele>2106</ele>
        <time>2021-08-13T07:35:58.160Z</time>
      </trkpt>
      <trkpt lat="46.8445" lon="8.45237">
        <ele>2106</ele>
        <time>2021-08-13T07:35:59.159Z</time>
      </trkpt>
      <trkpt lat="46.84449" lon="8.45235">
        <ele>2106</ele>
        <time>2021-08-13T07:36:00.160Z</time>
      </trkpt>
      <trkpt lat="46.84448" lon="8.45234">
        <ele>2106</ele>
        <time>2021-08-13T07:36:01.159Z</time>
      </trkpt>
      <trkpt lat="46.84447" lon="8.45233">
        <ele>2106</ele>
        <time>2021-08-13T07:36:02.160Z</time>
      </trkpt>
      <trkpt lat="46.84446" lon="8.45231">
        <ele>2106</ele>
        <time>2021-08-13T07:36:03.159Z</time>
      </trkpt>
      <trkpt lat="46.84446" lon="8.4523">
        <ele>2105</ele>
        <time>2021-08-13T07:36:04.159Z</time>
      </trkpt>
      <trkpt lat="46.84445" lon="8.45229">
        <ele>2105</ele>
        <time>2021-08-13T07:36:05.160Z</time>
      </trkpt>
      <trkpt lat="46.84445" lon="8.45228">
        <ele>2106</ele>
        <time>2021-08-13T07:36:06.160Z</time>
      </trkpt>
      <trkpt lat="46.84444" lon="8.45227">
        <ele>2106</ele>
        <time>2021-08-13T07:36:07.160Z</time>
      </trkpt>
      <trkpt lat="46.84444" lon="8.45226">
        <ele>2106</ele>
        <time>2021-08-13T07:36:08.159Z</time>
      </trkpt>
      <trkpt lat="46.84444" lon="8.45225">
        <ele>2106</ele>
        <time>2021-08-13T07:36:09.159Z</time>
      </trkpt>
      <trkpt lat="46.84444" lon="8.45224">
        <ele>2105</ele>
        <time>2021-08-13T07:36:10.160Z</time>
      </trkpt>
      <trkpt lat="46.84444" lon="8.45223">
        <ele>2104</ele>
        <time>2021-08-13T07:36:11.160Z</time>
      </trkpt>
      <trkpt lat="46.84443" lon="8.45222">
        <ele>2104</ele>
        <time>2021-08-13T07:36:12.160Z</time>
      </trkpt>
      <trkpt lat="46.84443" lon="8.4522">
        <ele>2103</ele>
        <time>2021-08-13T07:36:13.159Z</time>
      </trkpt>
      <trkpt lat="46.84443" lon="8.45219">
        <ele>2103</ele>
        <time>2021-08-13T07:36:14.160Z</time>
      </trkpt>
      <trkpt lat="46.84443" lon="8.45217">
        <ele>2102</ele>
        <time>2021-08-13T07:36:15.159Z</time>
      </trkpt>
      <trkpt lat="46.84442" lon="8.45215">
        <ele>2102</ele>
        <time>2021-08-13T07:36:16.159Z</time>
      </trkpt>
      <trkpt lat="46.84442" lon="8.45213">
        <ele>2102</ele>
        <time>2021-08-13T07:36:17.160Z</time>
      </trkpt>
      <trkpt lat="46.84441" lon="8.45212">
        <ele>2102</ele>
        <time>2021-08-13T07:36:18.159Z</time>
      </trkpt>
      <trkpt lat="46.84441" lon="8.4521">
        <ele>2102</ele>
        <time>2021-08-13T07:36:19.159Z</time>
      </trkpt>
      <trkpt lat="46.8444" lon="8.4521">
        <ele>2102</ele>
        <time>2021-08-13T07:36:20.159Z</time>
      </trkpt>
      <trkpt lat="46.8444" lon="8.4521">
        <ele>2101</ele>
        <time>2021-08-13T07:36:21.159Z</time>
      </trkpt>
      <trkpt lat="46.8444" lon="8.45209">
        <ele>2101</ele>
        <time>2021-08-13T07:36:22.159Z</time>
      </trkpt>
      <trkpt lat="46.8444" lon="8.45209">
        <ele>2101</ele>
        <time>2021-08-13T07:36:23.160Z</time>
      </trkpt>
      <trkpt lat="46.8444" lon="8.45208">
        <ele>2098</ele>
        <time>2021-08-13T07:36:24.160Z</time>
      </trkpt>
      <trkpt lat="46.8444" lon="8.45206">
        <ele>2098</ele>
        <time>2021-08-13T07:36:25.160Z</time>
      </trkpt>
      <trkpt lat="46.8444" lon="8.45205">
        <ele>2097</ele>
        <time>2021-08-13T07:36:26.160Z</time>
      </trkpt>
      <trkpt lat="46.84439" lon="8.45204">
        <ele>2097</ele>
        <time>2021-08-13T07:36:27.160Z</time>
      </trkpt>
      <trkpt lat="46.84439" lon="8.45203">
        <ele>2097</ele>
        <time>2021-08-13T07:36:28.160Z</time>
      </trkpt>
      <trkpt lat="46.84439" lon="8.45201">
        <ele>2097</ele>
        <time>2021-08-13T07:36:29.160Z</time>
      </trkpt>
      <trkpt lat="46.84438" lon="8.452">
        <ele>2097</ele>
        <time>2021-08-13T07:36:30.160Z</time>
      </trkpt>
      <trkpt lat="46.84438" lon="8.45199">
        <ele>2097</ele>
        <time>2021-08-13T07:36:31.160Z</time>
      </trkpt>
      <trkpt lat="46.84437" lon="8.45198">
        <ele>2097</ele>
        <time>2021-08-13T07:36:32.160Z</time>
      </trkpt>
      <trkpt lat="46.84437" lon="8.45197">
        <ele>2097</ele>
        <time>2021-08-13T07:36:33.160Z</time>
      </trkpt>
      <trkpt lat="46.84436" lon="8.45195">
        <ele>2097</ele>
        <time>2021-08-13T07:36:34.160Z</time>
      </trkpt>
      <trkpt lat="46.84436" lon="8.45194">
        <ele>2097</ele>
        <time>2021-08-13T07:36:35.160Z</time>
      </trkpt>
      <trkpt lat="46.84436" lon="8.45193">
        <ele>2096</ele>
        <time>2021-08-13T07:36:36.160Z</time>
      </trkpt>
      <trkpt lat="46.84436" lon="8.45192">
        <ele>2096</ele>
        <time>2021-08-13T07:36:37.160Z</time>
      </trkpt>
      <trkpt lat="46.84437" lon="8.4519">
        <ele>2096</ele>
        <time>2021-08-13T07:36:38.160Z</time>
      </trkpt>
      <trkpt lat="46.84437" lon="8.45188">
        <ele>2095</ele>
        <time>2021-08-13T07:36:39.160Z</time>
      </trkpt>
      <trkpt lat="46.84438" lon="8.45185">
        <ele>2095</ele>
        <time>2021-08-13T07:36:40.160Z</time>
      </trkpt>
      <trkpt lat="46.84438" lon="8.45183">
        <ele>2095</ele>
        <time>2021-08-13T07:36:41.160Z</time>
      </trkpt>
      <trkpt lat="46.84438" lon="8.45181">
        <ele>2095</ele>
        <time>2021-08-13T07:36:42.160Z</time>
      </trkpt>
      <trkpt lat="46.84438" lon="8.4518">
        <ele>2095</ele>
        <time>2021-08-13T07:36:43.160Z</time>
      </trkpt>
      <trkpt lat="46.84437" lon="8.45178">
        <ele>2095</ele>
        <time>2021-08-13T07:36:44.160Z</time>
      </trkpt>
      <trkpt lat="46.84436" lon="8.45178">
        <ele>2095</ele>
        <time>2021-08-13T07:36:45.160Z</time>
      </trkpt>
      <trkpt lat="46.84436" lon="8.45177">
        <ele>2094</ele>
        <time>2021-08-13T07:36:46.160Z</time>
      </trkpt>
      <trkpt lat="46.84436" lon="8.45176">
        <ele>2094</ele>
        <time>2021-08-13T07:36:47.160Z</time>
      </trkpt>
      <trkpt lat="46.84435" lon="8.45175">
        <ele>2094</ele>
        <time>2021-08-13T07:36:48.160Z</time>
      </trkpt>
      <trkpt lat="46.84435" lon="8.45174">
        <ele>2094</ele>
        <time>2021-08-13T07:36:49.160Z</time>
      </trkpt>
      <trkpt lat="46.84434" lon="8.45173">
        <ele>2094</ele>
        <time>2021-08-13T07:36:50.160Z</time>
      </trkpt>
      <trkpt lat="46.84434" lon="8.45172">
        <ele>2094</ele>
        <time>2021-08-13T07:36:51.160Z</time>
      </trkpt>
      <trkpt lat="46.84434" lon="8.45171">
        <ele>2094</ele>
        <time>2021-08-13T07:36:52.160Z</time>
      </trkpt>
      <trkpt lat="46.84433" lon="8.4517">
        <ele>2094</ele>
        <time>2021-08-13T07:36:53.160Z</time>
      </trkpt>
      <trkpt lat="46.84433" lon="8.45168">
        <ele>2094</ele>
        <time>2021-08-13T07:36:54.160Z</time>
      </trkpt>
      <trkpt lat="46.84433" lon="8.45167">
        <ele>2094</ele>
        <time>2021-08-13T07:36:55.160Z</time>
      </trkpt>
      <trkpt lat="46.84433" lon="8.45166">
        <ele>2094</ele>
        <time>2021-08-13T07:36:56.160Z</time>
      </trkpt>
      <trkpt lat="46.84433" lon="8.45165">
        <ele>2094</ele>
        <time>2021-08-13T07:36:57.160Z</time>
      </trkpt>
      <trkpt lat="46.84433" lon="8.45164">
        <ele>2093</ele>
        <time>2021-08-13T07:36:58.160Z</time>
      </trkpt>
      <trkpt lat="46.84433" lon="8.45163">
        <ele>2093</ele>
        <time>2021-08-13T07:36:59.160Z</time>
      </trkpt>
      <trkpt lat="46.84433" lon="8.45161">
        <ele>2093</ele>
        <time>2021-08-13T07:37:00.160Z</time>
      </trkpt>
      <trkpt lat="46.84434" lon="8.4516">
        <ele>2093</ele>
        <time>2021-08-13T07:37:01.160Z</time>
      </trkpt>
      <trkpt lat="46.84434" lon="8.45158">
        <ele>2093</ele>
        <time>2021-08-13T07:37:02.160Z</time>
      </trkpt>
      <trkpt lat="46.84434" lon="8.45157">
        <ele>2092</ele>
        <time>2021-08-13T07:37:03.160Z</time>
      </trkpt>
      <trkpt lat="46.84434" lon="8.45155">
        <ele>2092</ele>
        <time>2021-08-13T07:37:04.160Z</time>
      </trkpt>
      <trkpt lat="46.84435" lon="8.45154">
        <ele>2093</ele>
        <time>2021-08-13T07:37:05.160Z</time>
      </trkpt>
      <trkpt lat="46.84435" lon="8.45153">
        <ele>2093</ele>
        <time>2021-08-13T07:37:06.160Z</time>
      </trkpt>
      <trkpt lat="46.84436" lon="8.45152">
        <ele>2093</ele>
        <time>2021-08-13T07:37:07.160Z</time>
      </trkpt>
      <trkpt lat="46.84436" lon="8.45152">
        <ele>2093</ele>
        <time>2021-08-13T07:37:08.160Z</time>
      </trkpt>
      <trkpt lat="46.84436" lon="8.45151">
        <ele>2092</ele>
        <time>2021-08-13T07:37:09.160Z</time>
      </trkpt>
      <trkpt lat="46.84436" lon="8.45151">
        <ele>2092</ele>
        <time>2021-08-13T07:37:10.160Z</time>
      </trkpt>
      <trkpt lat="46.84436" lon="8.45152">
        <ele>2088</ele>
        <time>2021-08-13T07:37:11.160Z</time>
      </trkpt>
      <trkpt lat="46.84437" lon="8.45151">
        <ele>2087</ele>
        <time>2021-08-13T07:37:12.161Z</time>
      </trkpt>
      <trkpt lat="46.84437" lon="8.45151">
        <ele>2087</ele>
        <time>2021-08-13T07:37:13.161Z</time>
      </trkpt>
      <trkpt lat="46.84438" lon="8.4515">
        <ele>2087</ele>
        <time>2021-08-13T07:37:14.161Z</time>
      </trkpt>
      <trkpt lat="46.84438" lon="8.45149">
        <ele>2087</ele>
        <time>2021-08-13T07:37:15.160Z</time>
      </trkpt>
      <trkpt lat="46.84439" lon="8.45149">
        <ele>2087</ele>
        <time>2021-08-13T07:37:16.160Z</time>
      </trkpt>
      <trkpt lat="46.8444" lon="8.45148">
        <ele>2087</ele>
        <time>2021-08-13T07:37:17.161Z</time>
      </trkpt>
      <trkpt lat="46.8444" lon="8.45147">
        <ele>2087</ele>
        <time>2021-08-13T07:37:18.161Z</time>
      </trkpt>
      <trkpt lat="46.84441" lon="8.45146">
        <ele>2087</ele>
        <time>2021-08-13T07:37:19.160Z</time>
      </trkpt>
      <trkpt lat="46.84442" lon="8.45145">
        <ele>2086</ele>
        <time>2021-08-13T07:37:20.160Z</time>
      </trkpt>
      <trkpt lat="46.84442" lon="8.45144">
        <ele>2086</ele>
        <time>2021-08-13T07:37:21.160Z</time>
      </trkpt>
      <trkpt lat="46.84443" lon="8.45142">
        <ele>2086</ele>
        <time>2021-08-13T07:37:22.161Z</time>
      </trkpt>
      <trkpt lat="46.84443" lon="8.45141">
        <ele>2085</ele>
        <time>2021-08-13T07:37:23.160Z</time>
      </trkpt>
      <trkpt lat="46.84443" lon="8.4514">
        <ele>2085</ele>
        <time>2021-08-13T07:37:24.160Z</time>
      </trkpt>
      <trkpt lat="46.84443" lon="8.4514">
        <ele>2084</ele>
        <time>2021-08-13T07:37:25.160Z</time>
      </trkpt>
      <trkpt lat="46.84444" lon="8.45139">
        <ele>2084</ele>
        <time>2021-08-13T07:37:26.160Z</time>
      </trkpt>
      <trkpt lat="46.84445" lon="8.45139">
        <ele>2084</ele>
        <time>2021-08-13T07:37:27.161Z</time>
      </trkpt>
      <trkpt lat="46.84445" lon="8.45139">
        <ele>2084</ele>
        <time>2021-08-13T07:37:28.160Z</time>
      </trkpt>
      <trkpt lat="46.84445" lon="8.45139">
        <ele>2084</ele>
        <time>2021-08-13T07:37:29.160Z</time>
      </trkpt>
      <trkpt lat="46.84446" lon="8.45138">
        <ele>2084</ele>
        <time>2021-08-13T07:37:30.160Z</time>
      </trkpt>
      <trkpt lat="46.84447" lon="8.45137">
        <ele>2084</ele>
        <time>2021-08-13T07:37:31.160Z</time>
      </trkpt>
      <trkpt lat="46.84447" lon="8.45137">
        <ele>2084</ele>
        <time>2021-08-13T07:37:32.160Z</time>
      </trkpt>
      <trkpt lat="46.84448" lon="8.45136">
        <ele>2083</ele>
        <time>2021-08-13T07:37:33.161Z</time>
      </trkpt>
      <trkpt lat="46.84448" lon="8.45136">
        <ele>2083</ele>
        <time>2021-08-13T07:37:34.160Z</time>
      </trkpt>
      <trkpt lat="46.84449" lon="8.45135">
        <ele>2082</ele>
        <time>2021-08-13T07:37:35.160Z</time>
      </trkpt>
      <trkpt lat="46.8445" lon="8.45134">
        <ele>2082</ele>
        <time>2021-08-13T07:37:36.160Z</time>
      </trkpt>
      <trkpt lat="46.8445" lon="8.45134">
        <ele>2082</ele>
        <time>2021-08-13T07:37:37.161Z</time>
      </trkpt>
      <trkpt lat="46.84451" lon="8.45133">
        <ele>2081</ele>
        <time>2021-08-13T07:37:38.161Z</time>
      </trkpt>
      <trkpt lat="46.84451" lon="8.45132">
        <ele>2081</ele>
        <time>2021-08-13T07:37:39.160Z</time>
      </trkpt>
      <trkpt lat="46.84452" lon="8.45131">
        <ele>2081</ele>
        <time>2021-08-13T07:37:40.160Z</time>
      </trkpt>
      <trkpt lat="46.84452" lon="8.4513">
        <ele>2081</ele>
        <time>2021-08-13T07:37:41.160Z</time>
      </trkpt>
      <trkpt lat="46.84453" lon="8.4513">
        <ele>2081</ele>
        <time>2021-08-13T07:37:42.160Z</time>
      </trkpt>
      <trkpt lat="46.84453" lon="8.4513">
        <ele>2081</ele>
        <time>2021-08-13T07:37:43.160Z</time>
      </trkpt>
      <trkpt lat="46.84454" lon="8.4513">
        <ele>2081</ele>
        <time>2021-08-13T07:37:44.160Z</time>
      </trkpt>
      <trkpt lat="46.84454" lon="8.45129">
        <ele>2081</ele>
        <time>2021-08-13T07:37:45.160Z</time>
      </trkpt>
      <trkpt lat="46.84454" lon="8.45128">
        <ele>2081</ele>
        <time>2021-08-13T07:37:46.160Z</time>
      </trkpt>
      <trkpt lat="46.84455" lon="8.45128">
        <ele>2081</ele>
        <time>2021-08-13T07:37:47.160Z</time>
      </trkpt>
      <trkpt lat="46.84456" lon="8.45127">
        <ele>2081</ele>
        <time>2021-08-13T07:37:48.160Z</time>
      </trkpt>
      <trkpt lat="46.84457" lon="8.45126">
        <ele>2080</ele>
        <time>2021-08-13T07:37:49.160Z</time>
      </trkpt>
      <trkpt lat="46.84457" lon="8.45125">
        <ele>2080</ele>
        <time>2021-08-13T07:37:50.161Z</time>
      </trkpt>
      <trkpt lat="46.84458" lon="8.45125">
        <ele>2080</ele>
        <time>2021-08-13T07:37:51.160Z</time>
      </trkpt>
      <trkpt lat="46.8446" lon="8.45124">
        <ele>2080</ele>
        <time>2021-08-13T07:37:52.160Z</time>
      </trkpt>
      <trkpt lat="46.84461" lon="8.45123">
        <ele>2079</ele>
        <time>2021-08-13T07:37:53.160Z</time>
      </trkpt>
      <trkpt lat="46.84462" lon="8.45122">
        <ele>2078</ele>
        <time>2021-08-13T07:37:54.160Z</time>
      </trkpt>
      <trkpt lat="46.84463" lon="8.45121">
        <ele>2078</ele>
        <time>2021-08-13T07:37:55.161Z</time>
      </trkpt>
      <trkpt lat="46.84464" lon="8.4512">
        <ele>2077</ele>
        <time>2021-08-13T07:37:56.161Z</time>
      </trkpt>
      <trkpt lat="46.84465" lon="8.45118">
        <ele>2076</ele>
        <time>2021-08-13T07:37:57.160Z</time>
      </trkpt>
      <trkpt lat="46.84466" lon="8.45117">
        <ele>2075</ele>
        <time>2021-08-13T07:37:58.161Z</time>
      </trkpt>
      <trkpt lat="46.84467" lon="8.45115">
        <ele>2075</ele>
        <time>2021-08-13T07:37:59.161Z</time>
      </trkpt>
      <trkpt lat="46.84467" lon="8.45113">
        <ele>2075</ele>
        <time>2021-08-13T07:38:00.161Z</time>
      </trkpt>
      <trkpt lat="46.84468" lon="8.45112">
        <ele>2075</ele>
        <time>2021-08-13T07:38:01.161Z</time>
      </trkpt>
      <trkpt lat="46.84468" lon="8.4511">
        <ele>2074</ele>
        <time>2021-08-13T07:38:02.161Z</time>
      </trkpt>
      <trkpt lat="46.84469" lon="8.45108">
        <ele>2074</ele>
        <time>2021-08-13T07:38:03.161Z</time>
      </trkpt>
      <trkpt lat="46.84469" lon="8.45107">
        <ele>2074</ele>
        <time>2021-08-13T07:38:04.161Z</time>
      </trkpt>
      <trkpt lat="46.84469" lon="8.45105">
        <ele>2074</ele>
        <time>2021-08-13T07:38:05.161Z</time>
      </trkpt>
      <trkpt lat="46.84469" lon="8.45105">
        <ele>2074</ele>
        <time>2021-08-13T07:38:06.161Z</time>
      </trkpt>
      <trkpt lat="46.8447" lon="8.45104">
        <ele>2074</ele>
        <time>2021-08-13T07:38:07.161Z</time>
      </trkpt>
      <trkpt lat="46.8447" lon="8.45103">
        <ele>2074</ele>
        <time>2021-08-13T07:38:08.161Z</time>
      </trkpt>
      <trkpt lat="46.84471" lon="8.45102">
        <ele>2074</ele>
        <time>2021-08-13T07:38:09.161Z</time>
      </trkpt>
      <trkpt lat="46.84471" lon="8.45102">
        <ele>2073</ele>
        <time>2021-08-13T07:38:10.160Z</time>
      </trkpt>
      <trkpt lat="46.84472" lon="8.45101">
        <ele>2073</ele>
        <time>2021-08-13T07:38:11.161Z</time>
      </trkpt>
      <trkpt lat="46.84473" lon="8.45101">
        <ele>2073</ele>
        <time>2021-08-13T07:38:12.161Z</time>
      </trkpt>
      <trkpt lat="46.84473" lon="8.451">
        <ele>2073</ele>
        <time>2021-08-13T07:38:13.161Z</time>
      </trkpt>
      <trkpt lat="46.84474" lon="8.451">
        <ele>2073</ele>
        <time>2021-08-13T07:38:14.161Z</time>
      </trkpt>
      <trkpt lat="46.84474" lon="8.45101">
        <ele>2072</ele>
        <time>2021-08-13T07:38:15.161Z</time>
      </trkpt>
      <trkpt lat="46.84475" lon="8.45101">
        <ele>2072</ele>
        <time>2021-08-13T07:38:16.160Z</time>
      </trkpt>
      <trkpt lat="46.84476" lon="8.45101">
        <ele>2072</ele>
        <time>2021-08-13T07:38:17.161Z</time>
      </trkpt>
      <trkpt lat="46.84477" lon="8.45101">
        <ele>2072</ele>
        <time>2021-08-13T07:38:18.161Z</time>
      </trkpt>
      <trkpt lat="46.84477" lon="8.45101">
        <ele>2072</ele>
        <time>2021-08-13T07:38:19.160Z</time>
      </trkpt>
      <trkpt lat="46.84478" lon="8.451">
        <ele>2071</ele>
        <time>2021-08-13T07:38:20.160Z</time>
      </trkpt>
      <trkpt lat="46.84479" lon="8.45099">
        <ele>2071</ele>
        <time>2021-08-13T07:38:21.161Z</time>
      </trkpt>
      <trkpt lat="46.8448" lon="8.45098">
        <ele>2071</ele>
        <time>2021-08-13T07:38:22.160Z</time>
      </trkpt>
      <trkpt lat="46.8448" lon="8.45097">
        <ele>2070</ele>
        <time>2021-08-13T07:38:23.160Z</time>
      </trkpt>
      <trkpt lat="46.8448" lon="8.45096">
        <ele>2070</ele>
        <time>2021-08-13T07:38:24.161Z</time>
      </trkpt>
      <trkpt lat="46.84481" lon="8.45095">
        <ele>2070</ele>
        <time>2021-08-13T07:38:25.160Z</time>
      </trkpt>
      <trkpt lat="46.84482" lon="8.45094">
        <ele>2070</ele>
        <time>2021-08-13T07:38:26.160Z</time>
      </trkpt>
      <trkpt lat="46.84483" lon="8.45093">
        <ele>2070</ele>
        <time>2021-08-13T07:38:27.161Z</time>
      </trkpt>
      <trkpt lat="46.84484" lon="8.45092">
        <ele>2070</ele>
        <time>2021-08-13T07:38:28.161Z</time>
      </trkpt>
      <trkpt lat="46.84485" lon="8.45091">
        <ele>2070</ele>
        <time>2021-08-13T07:38:29.160Z</time>
      </trkpt>
      <trkpt lat="46.84485" lon="8.4509">
        <ele>2071</ele>
        <time>2021-08-13T07:38:30.160Z</time>
      </trkpt>
      <trkpt lat="46.84486" lon="8.45088">
        <ele>2071</ele>
        <time>2021-08-13T07:38:31.160Z</time>
      </trkpt>
      <trkpt lat="46.84486" lon="8.45086">
        <ele>2072</ele>
        <time>2021-08-13T07:38:32.161Z</time>
      </trkpt>
      <trkpt lat="46.84487" lon="8.45085">
        <ele>2072</ele>
        <time>2021-08-13T07:38:33.161Z</time>
      </trkpt>
      <trkpt lat="46.84487" lon="8.45083">
        <ele>2073</ele>
        <time>2021-08-13T07:38:34.160Z</time>
      </trkpt>
      <trkpt lat="46.84487" lon="8.45083">
        <ele>2073</ele>
        <time>2021-08-13T07:38:35.160Z</time>
      </trkpt>
      <trkpt lat="46.84487" lon="8.45083">
        <ele>2073</ele>
        <time>2021-08-13T07:38:36.161Z</time>
      </trkpt>
      <trkpt lat="46.84488" lon="8.45083">
        <ele>2073</ele>
        <time>2021-08-13T07:38:37.161Z</time>
      </trkpt>
      <trkpt lat="46.84488" lon="8.45084">
        <ele>2073</ele>
        <time>2021-08-13T07:38:38.160Z</time>
      </trkpt>
      <trkpt lat="46.84488" lon="8.45085">
        <ele>2073</ele>
        <time>2021-08-13T07:38:39.160Z</time>
      </trkpt>
      <trkpt lat="46.84489" lon="8.45086">
        <ele>2073</ele>
        <time>2021-08-13T07:38:40.160Z</time>
      </trkpt>
      <trkpt lat="46.84489" lon="8.45087">
        <ele>2073</ele>
        <time>2021-08-13T07:38:41.161Z</time>
      </trkpt>
      <trkpt lat="46.8449" lon="8.45087">
        <ele>2072</ele>
        <time>2021-08-13T07:38:42.161Z</time>
      </trkpt>
      <trkpt lat="46.84491" lon="8.45087">
        <ele>2072</ele>
        <time>2021-08-13T07:38:43.161Z</time>
      </trkpt>
      <trkpt lat="46.84491" lon="8.45087">
        <ele>2072</ele>
        <time>2021-08-13T07:38:44.160Z</time>
      </trkpt>
      <trkpt lat="46.84492" lon="8.45087">
        <ele>2071</ele>
        <time>2021-08-13T07:38:45.161Z</time>
      </trkpt>
      <trkpt lat="46.84492" lon="8.45087">
        <ele>2071</ele>
        <time>2021-08-13T07:38:46.161Z</time>
      </trkpt>
      <trkpt lat="46.84493" lon="8.45087">
        <ele>2071</ele>
        <time>2021-08-13T07:38:47.161Z</time>
      </trkpt>
      <trkpt lat="46.84494" lon="8.45087">
        <ele>2070</ele>
        <time>2021-08-13T07:38:48.160Z</time>
      </trkpt>
      <trkpt lat="46.84495" lon="8.45087">
        <ele>2070</ele>
        <time>2021-08-13T07:38:49.161Z</time>
      </trkpt>
      <trkpt lat="46.84495" lon="8.45087">
        <ele>2070</ele>
        <time>2021-08-13T07:38:50.161Z</time>
      </trkpt>
      <trkpt lat="46.84496" lon="8.45087">
        <ele>2070</ele>
        <time>2021-08-13T07:38:51.160Z</time>
      </trkpt>
      <trkpt lat="46.84497" lon="8.45087">
        <ele>2070</ele>
        <time>2021-08-13T07:38:52.161Z</time>
      </trkpt>
      <trkpt lat="46.84498" lon="8.45087">
        <ele>2070</ele>
        <time>2021-08-13T07:38:53.160Z</time>
      </trkpt>
      <trkpt lat="46.84498" lon="8.45087">
        <ele>2069</ele>
        <time>2021-08-13T07:38:54.161Z</time>
      </trkpt>
      <trkpt lat="46.84499" lon="8.45086">
        <ele>2070</ele>
        <time>2021-08-13T07:38:55.161Z</time>
      </trkpt>
      <trkpt lat="46.84499" lon="8.45087">
        <ele>2070</ele>
        <time>2021-08-13T07:38:56.161Z</time>
      </trkpt>
      <trkpt lat="46.845" lon="8.45087">
        <ele>2070</ele>
        <time>2021-08-13T07:38:57.160Z</time>
      </trkpt>
      <trkpt lat="46.84501" lon="8.45087">
        <ele>2069</ele>
        <time>2021-08-13T07:38:58.161Z</time>
      </trkpt>
      <trkpt lat="46.84502" lon="8.45086">
        <ele>2069</ele>
        <time>2021-08-13T07:38:59.161Z</time>
      </trkpt>
      <trkpt lat="46.84503" lon="8.45086">
        <ele>2069</ele>
        <time>2021-08-13T07:39:00.160Z</time>
      </trkpt>
      <trkpt lat="46.84504" lon="8.45085">
        <ele>2069</ele>
        <time>2021-08-13T07:39:01.160Z</time>
      </trkpt>
      <trkpt lat="46.84506" lon="8.45085">
        <ele>2069</ele>
        <time>2021-08-13T07:39:02.160Z</time>
      </trkpt>
      <trkpt lat="46.84507" lon="8.45086">
        <ele>2069</ele>
        <time>2021-08-13T07:39:03.160Z</time>
      </trkpt>
      <trkpt lat="46.84508" lon="8.45086">
        <ele>2069</ele>
        <time>2021-08-13T07:39:04.161Z</time>
      </trkpt>
      <trkpt lat="46.84508" lon="8.45086">
        <ele>2069</ele>
        <time>2021-08-13T07:39:05.160Z</time>
      </trkpt>
      <trkpt lat="46.84509" lon="8.45087">
        <ele>2069</ele>
        <time>2021-08-13T07:39:06.160Z</time>
      </trkpt>
      <trkpt lat="46.8451" lon="8.45086">
        <ele>2068</ele>
        <time>2021-08-13T07:39:07.160Z</time>
      </trkpt>
      <trkpt lat="46.84511" lon="8.45086">
        <ele>2068</ele>
        <time>2021-08-13T07:39:08.160Z</time>
      </trkpt>
      <trkpt lat="46.84512" lon="8.45086">
        <ele>2067</ele>
        <time>2021-08-13T07:39:09.160Z</time>
      </trkpt>
      <trkpt lat="46.84513" lon="8.45086">
        <ele>2067</ele>
        <time>2021-08-13T07:39:10.160Z</time>
      </trkpt>
      <trkpt lat="46.84514" lon="8.45086">
        <ele>2066</ele>
        <time>2021-08-13T07:39:11.160Z</time>
      </trkpt>
      <trkpt lat="46.84515" lon="8.45086">
        <ele>2065</ele>
        <time>2021-08-13T07:39:12.161Z</time>
      </trkpt>
      <trkpt lat="46.84515" lon="8.45085">
        <ele>2065</ele>
        <time>2021-08-13T07:39:13.160Z</time>
      </trkpt>
      <trkpt lat="46.84516" lon="8.45084">
        <ele>2065</ele>
        <time>2021-08-13T07:39:14.161Z</time>
      </trkpt>
      <trkpt lat="46.84516" lon="8.45084">
        <ele>2065</ele>
        <time>2021-08-13T07:39:15.161Z</time>
      </trkpt>
      <trkpt lat="46.84517" lon="8.45082">
        <ele>2064</ele>
        <time>2021-08-13T07:39:16.161Z</time>
      </trkpt>
      <trkpt lat="46.84517" lon="8.45081">
        <ele>2063</ele>
        <time>2021-08-13T07:39:17.161Z</time>
      </trkpt>
      <trkpt lat="46.84517" lon="8.45079">
        <ele>2063</ele>
        <time>2021-08-13T07:39:18.161Z</time>
      </trkpt>
      <trkpt lat="46.84517" lon="8.45078">
        <ele>2063</ele>
        <time>2021-08-13T07:39:19.160Z</time>
      </trkpt>
      <trkpt lat="46.84518" lon="8.45077">
        <ele>2063</ele>
        <time>2021-08-13T07:39:20.161Z</time>
      </trkpt>
      <trkpt lat="46.84518" lon="8.45075">
        <ele>2063</ele>
        <time>2021-08-13T07:39:21.161Z</time>
      </trkpt>
      <trkpt lat="46.84518" lon="8.45074">
        <ele>2063</ele>
        <time>2021-08-13T07:39:22.161Z</time>
      </trkpt>
      <trkpt lat="46.84519" lon="8.45072">
        <ele>2062</ele>
        <time>2021-08-13T07:39:23.161Z</time>
      </trkpt>
      <trkpt lat="46.84519" lon="8.45071">
        <ele>2062</ele>
        <time>2021-08-13T07:39:24.161Z</time>
      </trkpt>
      <trkpt lat="46.8452" lon="8.45069">
        <ele>2062</ele>
        <time>2021-08-13T07:39:25.161Z</time>
      </trkpt>
      <trkpt lat="46.84521" lon="8.45068">
        <ele>2062</ele>
        <time>2021-08-13T07:39:26.161Z</time>
      </trkpt>
      <trkpt lat="46.84522" lon="8.45066">
        <ele>2061</ele>
        <time>2021-08-13T07:39:27.160Z</time>
      </trkpt>
      <trkpt lat="46.84523" lon="8.45065">
        <ele>2061</ele>
        <time>2021-08-13T07:39:28.160Z</time>
      </trkpt>
      <trkpt lat="46.84524" lon="8.45064">
        <ele>2061</ele>
        <time>2021-08-13T07:39:29.161Z</time>
      </trkpt>
      <trkpt lat="46.84524" lon="8.45062">
        <ele>2061</ele>
        <time>2021-08-13T07:39:30.161Z</time>
      </trkpt>
      <trkpt lat="46.84525" lon="8.45061">
        <ele>2061</ele>
        <time>2021-08-13T07:39:31.161Z</time>
      </trkpt>
      <trkpt lat="46.84526" lon="8.4506">
        <ele>2060</ele>
        <time>2021-08-13T07:39:32.161Z</time>
      </trkpt>
      <trkpt lat="46.84526" lon="8.45059">
        <ele>2060</ele>
        <time>2021-08-13T07:39:33.160Z</time>
      </trkpt>
      <trkpt lat="46.84527" lon="8.45057">
        <ele>2060</ele>
        <time>2021-08-13T07:39:34.161Z</time>
      </trkpt>
      <trkpt lat="46.84527" lon="8.45056">
        <ele>2060</ele>
        <time>2021-08-13T07:39:35.161Z</time>
      </trkpt>
      <trkpt lat="46.84528" lon="8.45055">
        <ele>2060</ele>
        <time>2021-08-13T07:39:36.161Z</time>
      </trkpt>
      <trkpt lat="46.84528" lon="8.45054">
        <ele>2060</ele>
        <time>2021-08-13T07:39:37.160Z</time>
      </trkpt>
      <trkpt lat="46.84528" lon="8.45053">
        <ele>2060</ele>
        <time>2021-08-13T07:39:38.161Z</time>
      </trkpt>
      <trkpt lat="46.84529" lon="8.45053">
        <ele>2060</ele>
        <time>2021-08-13T07:39:39.161Z</time>
      </trkpt>
      <trkpt lat="46.8453" lon="8.45053">
        <ele>2060</ele>
        <time>2021-08-13T07:39:40.160Z</time>
      </trkpt>
      <trkpt lat="46.8453" lon="8.45052">
        <ele>2060</ele>
        <time>2021-08-13T07:39:41.161Z</time>
      </trkpt>
      <trkpt lat="46.8453" lon="8.45051">
        <ele>2060</ele>
        <time>2021-08-13T07:39:42.161Z</time>
      </trkpt>
      <trkpt lat="46.84531" lon="8.4505">
        <ele>2060</ele>
        <time>2021-08-13T07:39:43.161Z</time>
      </trkpt>
      <trkpt lat="46.84531" lon="8.45049">
        <ele>2060</ele>
        <time>2021-08-13T07:39:44.161Z</time>
      </trkpt>
      <trkpt lat="46.84531" lon="8.45048">
        <ele>2059</ele>
        <time>2021-08-13T07:39:45.161Z</time>
      </trkpt>
      <trkpt lat="46.84531" lon="8.45048">
        <ele>2059</ele>
        <time>2021-08-13T07:39:46.161Z</time>
      </trkpt>
      <trkpt lat="46.84531" lon="8.45047">
        <ele>2059</ele>
        <time>2021-08-13T07:39:47.160Z</time>
      </trkpt>
      <trkpt lat="46.84531" lon="8.45046">
        <ele>2058</ele>
        <time>2021-08-13T07:39:48.161Z</time>
      </trkpt>
      <trkpt lat="46.84531" lon="8.45045">
        <ele>2057</ele>
        <time>2021-08-13T07:39:49.161Z</time>
      </trkpt>
      <trkpt lat="46.84531" lon="8.45044">
        <ele>2057</ele>
        <time>2021-08-13T07:39:50.160Z</time>
      </trkpt>
      <trkpt lat="46.84532" lon="8.45043">
        <ele>2056</ele>
        <time>2021-08-13T07:39:51.160Z</time>
      </trkpt>
      <trkpt lat="46.84532" lon="8.45042">
        <ele>2056</ele>
        <time>2021-08-13T07:39:52.161Z</time>
      </trkpt>
      <trkpt lat="46.84532" lon="8.45041">
        <ele>2055</ele>
        <time>2021-08-13T07:39:53.161Z</time>
      </trkpt>
      <trkpt lat="46.84532" lon="8.45041">
        <ele>2055</ele>
        <time>2021-08-13T07:39:54.161Z</time>
      </trkpt>
      <trkpt lat="46.84533" lon="8.4504">
        <ele>2055</ele>
        <time>2021-08-13T07:39:55.160Z</time>
      </trkpt>
      <trkpt lat="46.84533" lon="8.4504">
        <ele>2054</ele>
        <time>2021-08-13T07:39:56.160Z</time>
      </trkpt>
      <trkpt lat="46.84533" lon="8.45039">
        <ele>2054</ele>
        <time>2021-08-13T07:39:57.161Z</time>
      </trkpt>
      <trkpt lat="46.84533" lon="8.45038">
        <ele>2054</ele>
        <time>2021-08-13T07:39:58.160Z</time>
      </trkpt>
      <trkpt lat="46.84533" lon="8.45037">
        <ele>2054</ele>
        <time>2021-08-13T07:39:59.160Z</time>
      </trkpt>
      <trkpt lat="46.84533" lon="8.45037">
        <ele>2054</ele>
        <time>2021-08-13T07:40:00.161Z</time>
      </trkpt>
      <trkpt lat="46.84534" lon="8.45036">
        <ele>2054</ele>
        <time>2021-08-13T07:40:01.160Z</time>
      </trkpt>
      <trkpt lat="46.84534" lon="8.45035">
        <ele>2054</ele>
        <time>2021-08-13T07:40:02.161Z</time>
      </trkpt>
      <trkpt lat="46.84534" lon="8.45034">
        <ele>2054</ele>
        <time>2021-08-13T07:40:03.161Z</time>
      </trkpt>
      <trkpt lat="46.84535" lon="8.45033">
        <ele>2054</ele>
        <time>2021-08-13T07:40:04.160Z</time>
      </trkpt>
      <trkpt lat="46.84535" lon="8.45032">
        <ele>2054</ele>
        <time>2021-08-13T07:40:05.160Z</time>
      </trkpt>
      <trkpt lat="46.84536" lon="8.4503">
        <ele>2053</ele>
        <time>2021-08-13T07:40:06.161Z</time>
      </trkpt>
      <trkpt lat="46.84536" lon="8.45029">
        <ele>2053</ele>
        <time>2021-08-13T07:40:07.161Z</time>
      </trkpt>
      <trkpt lat="46.84537" lon="8.45028">
        <ele>2053</ele>
        <time>2021-08-13T07:40:08.160Z</time>
      </trkpt>
      <trkpt lat="46.84537" lon="8.45027">
        <ele>2053</ele>
        <time>2021-08-13T07:40:09.161Z</time>
      </trkpt>
      <trkpt lat="46.84537" lon="8.45026">
        <ele>2052</ele>
        <time>2021-08-13T07:40:10.160Z</time>
      </trkpt>
      <trkpt lat="46.84538" lon="8.45025">
        <ele>2052</ele>
        <time>2021-08-13T07:40:11.161Z</time>
      </trkpt>
      <trkpt lat="46.84538" lon="8.45023">
        <ele>2052</ele>
        <time>2021-08-13T07:40:12.160Z</time>
      </trkpt>
      <trkpt lat="46.84538" lon="8.45022">
        <ele>2052</ele>
        <time>2021-08-13T07:40:13.161Z</time>
      </trkpt>
      <trkpt lat="46.84538" lon="8.4502">
        <ele>2051</ele>
        <time>2021-08-13T07:40:14.160Z</time>
      </trkpt>
      <trkpt lat="46.84538" lon="8.45018">
        <ele>2051</ele>
        <time>2021-08-13T07:40:15.161Z</time>
      </trkpt>
      <trkpt lat="46.84539" lon="8.45016">
        <ele>2051</ele>
        <time>2021-08-13T07:40:16.161Z</time>
      </trkpt>
      <trkpt lat="46.84539" lon="8.45014">
        <ele>2051</ele>
        <time>2021-08-13T07:40:17.161Z</time>
      </trkpt>
      <trkpt lat="46.84539" lon="8.45012">
        <ele>2051</ele>
        <time>2021-08-13T07:40:18.161Z</time>
      </trkpt>
      <trkpt lat="46.84539" lon="8.4501">
        <ele>2051</ele>
        <time>2021-08-13T07:40:19.160Z</time>
      </trkpt>
      <trkpt lat="46.8454" lon="8.45009">
        <ele>2051</ele>
        <time>2021-08-13T07:40:20.161Z</time>
      </trkpt>
      <trkpt lat="46.84539" lon="8.45007">
        <ele>2051</ele>
        <time>2021-08-13T07:40:21.161Z</time>
      </trkpt>
      <trkpt lat="46.8454" lon="8.45006">
        <ele>2051</ele>
        <time>2021-08-13T07:40:22.161Z</time>
      </trkpt>
      <trkpt lat="46.8454" lon="8.45005">
        <ele>2051</ele>
        <time>2021-08-13T07:40:23.161Z</time>
      </trkpt>
      <trkpt lat="46.8454" lon="8.45004">
        <ele>2051</ele>
        <time>2021-08-13T07:40:24.160Z</time>
      </trkpt>
      <trkpt lat="46.8454" lon="8.45002">
        <ele>2051</ele>
        <time>2021-08-13T07:40:25.161Z</time>
      </trkpt>
      <trkpt lat="46.8454" lon="8.45001">
        <ele>2051</ele>
        <time>2021-08-13T07:40:26.160Z</time>
      </trkpt>
      <trkpt lat="46.8454" lon="8.45">
        <ele>2051</ele>
        <time>2021-08-13T07:40:27.160Z</time>
      </trkpt>
      <trkpt lat="46.8454" lon="8.44999">
        <ele>2051</ele>
        <time>2021-08-13T07:40:28.161Z</time>
      </trkpt>
      <trkpt lat="46.8454" lon="8.44998">
        <ele>2051</ele>
        <time>2021-08-13T07:40:29.161Z</time>
      </trkpt>
      <trkpt lat="46.8454" lon="8.44996">
        <ele>2051</ele>
        <time>2021-08-13T07:40:30.161Z</time>
      </trkpt>
      <trkpt lat="46.84541" lon="8.44995">
        <ele>2051</ele>
        <time>2021-08-13T07:40:31.160Z</time>
      </trkpt>
      <trkpt lat="46.84541" lon="8.44993">
        <ele>2050</ele>
        <time>2021-08-13T07:40:32.160Z</time>
      </trkpt>
      <trkpt lat="46.84541" lon="8.44992">
        <ele>2050</ele>
        <time>2021-08-13T07:40:33.160Z</time>
      </trkpt>
      <trkpt lat="46.84541" lon="8.4499">
        <ele>2050</ele>
        <time>2021-08-13T07:40:34.160Z</time>
      </trkpt>
      <trkpt lat="46.84541" lon="8.44989">
        <ele>2050</ele>
        <time>2021-08-13T07:40:35.160Z</time>
      </trkpt>
      <trkpt lat="46.84541" lon="8.44988">
        <ele>2049</ele>
        <time>2021-08-13T07:40:36.161Z</time>
      </trkpt>
      <trkpt lat="46.84542" lon="8.44986">
        <ele>2049</ele>
        <time>2021-08-13T07:40:37.161Z</time>
      </trkpt>
      <trkpt lat="46.84542" lon="8.44985">
        <ele>2050</ele>
        <time>2021-08-13T07:40:38.161Z</time>
      </trkpt>
      <trkpt lat="46.84542" lon="8.44984">
        <ele>2050</ele>
        <time>2021-08-13T07:40:39.161Z</time>
      </trkpt>
      <trkpt lat="46.84542" lon="8.44983">
        <ele>2050</ele>
        <time>2021-08-13T07:40:40.161Z</time>
      </trkpt>
      <trkpt lat="46.84542" lon="8.44981">
        <ele>2049</ele>
        <time>2021-08-13T07:40:41.161Z</time>
      </trkpt>
      <trkpt lat="46.84543" lon="8.4498">
        <ele>2049</ele>
        <time>2021-08-13T07:40:42.161Z</time>
      </trkpt>
      <trkpt lat="46.84543" lon="8.44979">
        <ele>2048</ele>
        <time>2021-08-13T07:40:43.161Z</time>
      </trkpt>
      <trkpt lat="46.84543" lon="8.44978">
        <ele>2048</ele>
        <time>2021-08-13T07:40:44.161Z</time>
      </trkpt>
      <trkpt lat="46.84543" lon="8.44976">
        <ele>2047</ele>
        <time>2021-08-13T07:40:45.161Z</time>
      </trkpt>
      <trkpt lat="46.84543" lon="8.44975">
        <ele>2047</ele>
        <time>2021-08-13T07:40:46.161Z</time>
      </trkpt>
      <trkpt lat="46.84543" lon="8.44974">
        <ele>2046</ele>
        <time>2021-08-13T07:40:47.160Z</time>
      </trkpt>
      <trkpt lat="46.84543" lon="8.44973">
        <ele>2046</ele>
        <time>2021-08-13T07:40:48.161Z</time>
      </trkpt>
      <trkpt lat="46.84543" lon="8.44972">
        <ele>2045</ele>
        <time>2021-08-13T07:40:49.161Z</time>
      </trkpt>
      <trkpt lat="46.84544" lon="8.44971">
        <ele>2045</ele>
        <time>2021-08-13T07:40:50.161Z</time>
      </trkpt>
      <trkpt lat="46.84544" lon="8.4497">
        <ele>2044</ele>
        <time>2021-08-13T07:40:51.161Z</time>
      </trkpt>
      <trkpt lat="46.84545" lon="8.44968">
        <ele>2044</ele>
        <time>2021-08-13T07:40:52.161Z</time>
      </trkpt>
      <trkpt lat="46.84545" lon="8.44967">
        <ele>2044</ele>
        <time>2021-08-13T07:40:53.161Z</time>
      </trkpt>
      <trkpt lat="46.84546" lon="8.44966">
        <ele>2044</ele>
        <time>2021-08-13T07:40:54.160Z</time>
      </trkpt>
      <trkpt lat="46.84546" lon="8.44964">
        <ele>2044</ele>
        <time>2021-08-13T07:40:55.160Z</time>
      </trkpt>
      <trkpt lat="46.84546" lon="8.44963">
        <ele>2044</ele>
        <time>2021-08-13T07:40:56.161Z</time>
      </trkpt>
      <trkpt lat="46.84546" lon="8.44962">
        <ele>2044</ele>
        <time>2021-08-13T07:40:57.161Z</time>
      </trkpt>
      <trkpt lat="46.84546" lon="8.4496">
        <ele>2045</ele>
        <time>2021-08-13T07:40:58.161Z</time>
      </trkpt>
      <trkpt lat="46.84547" lon="8.44959">
        <ele>2045</ele>
        <time>2021-08-13T07:40:59.161Z</time>
      </trkpt>
      <trkpt lat="46.84547" lon="8.44958">
        <ele>2045</ele>
        <time>2021-08-13T07:41:00.161Z</time>
      </trkpt>
      <trkpt lat="46.84547" lon="8.44957">
        <ele>2045</ele>
        <time>2021-08-13T07:41:01.161Z</time>
      </trkpt>
      <trkpt lat="46.84548" lon="8.44956">
        <ele>2044</ele>
        <time>2021-08-13T07:41:02.161Z</time>
      </trkpt>
      <trkpt lat="46.84548" lon="8.44955">
        <ele>2044</ele>
        <time>2021-08-13T07:41:03.160Z</time>
      </trkpt>
      <trkpt lat="46.84548" lon="8.44954">
        <ele>2044</ele>
        <time>2021-08-13T07:41:04.161Z</time>
      </trkpt>
      <trkpt lat="46.84548" lon="8.44952">
        <ele>2043</ele>
        <time>2021-08-13T07:41:05.160Z</time>
      </trkpt>
      <trkpt lat="46.84549" lon="8.44951">
        <ele>2043</ele>
        <time>2021-08-13T07:41:06.161Z</time>
      </trkpt>
      <trkpt lat="46.84549" lon="8.44949">
        <ele>2044</ele>
        <time>2021-08-13T07:41:07.161Z</time>
      </trkpt>
      <trkpt lat="46.84549" lon="8.44948">
        <ele>2044</ele>
        <time>2021-08-13T07:41:08.161Z</time>
      </trkpt>
      <trkpt lat="46.84549" lon="8.44946">
        <ele>2044</ele>
        <time>2021-08-13T07:41:09.161Z</time>
      </trkpt>
      <trkpt lat="46.84549" lon="8.44945">
        <ele>2044</ele>
        <time>2021-08-13T07:41:10.160Z</time>
      </trkpt>
      <trkpt lat="46.84549" lon="8.44944">
        <ele>2045</ele>
        <time>2021-08-13T07:41:11.160Z</time>
      </trkpt>
      <trkpt lat="46.84549" lon="8.44943">
        <ele>2045</ele>
        <time>2021-08-13T07:41:12.160Z</time>
      </trkpt>
      <trkpt lat="46.84549" lon="8.44941">
        <ele>2046</ele>
        <time>2021-08-13T07:41:13.160Z</time>
      </trkpt>
      <trkpt lat="46.8455" lon="8.4494">
        <ele>2046</ele>
        <time>2021-08-13T07:41:14.160Z</time>
      </trkpt>
      <trkpt lat="46.8455" lon="8.44939">
        <ele>2046</ele>
        <time>2021-08-13T07:41:15.161Z</time>
      </trkpt>
      <trkpt lat="46.84551" lon="8.44938">
        <ele>2046</ele>
        <time>2021-08-13T07:41:16.160Z</time>
      </trkpt>
      <trkpt lat="46.84551" lon="8.44936">
        <ele>2046</ele>
        <time>2021-08-13T07:41:17.161Z</time>
      </trkpt>
      <trkpt lat="46.84551" lon="8.44935">
        <ele>2046</ele>
        <time>2021-08-13T07:41:18.160Z</time>
      </trkpt>
      <trkpt lat="46.84552" lon="8.44933">
        <ele>2045</ele>
        <time>2021-08-13T07:41:19.161Z</time>
      </trkpt>
      <trkpt lat="46.84552" lon="8.44932">
        <ele>2045</ele>
        <time>2021-08-13T07:41:20.160Z</time>
      </trkpt>
      <trkpt lat="46.84552" lon="8.44931">
        <ele>2045</ele>
        <time>2021-08-13T07:41:21.160Z</time>
      </trkpt>
      <trkpt lat="46.84552" lon="8.4493">
        <ele>2044</ele>
        <time>2021-08-13T07:41:22.160Z</time>
      </trkpt>
      <trkpt lat="46.84552" lon="8.44928">
        <ele>2044</ele>
        <time>2021-08-13T07:41:23.160Z</time>
      </trkpt>
      <trkpt lat="46.84552" lon="8.44927">
        <ele>2043</ele>
        <time>2021-08-13T07:41:24.160Z</time>
      </trkpt>
      <trkpt lat="46.84552" lon="8.44926">
        <ele>2043</ele>
        <time>2021-08-13T07:41:25.161Z</time>
      </trkpt>
      <trkpt lat="46.84552" lon="8.44926">
        <ele>2042</ele>
        <time>2021-08-13T07:41:26.160Z</time>
      </trkpt>
      <trkpt lat="46.84553" lon="8.44925">
        <ele>2042</ele>
        <time>2021-08-13T07:41:27.160Z</time>
      </trkpt>
      <trkpt lat="46.84553" lon="8.44924">
        <ele>2041</ele>
        <time>2021-08-13T07:41:28.160Z</time>
      </trkpt>
      <trkpt lat="46.84553" lon="8.44922">
        <ele>2041</ele>
        <time>2021-08-13T07:41:29.160Z</time>
      </trkpt>
      <trkpt lat="46.84553" lon="8.44921">
        <ele>2041</ele>
        <time>2021-08-13T07:41:30.160Z</time>
      </trkpt>
      <trkpt lat="46.84554" lon="8.4492">
        <ele>2040</ele>
        <time>2021-08-13T07:41:31.161Z</time>
      </trkpt>
      <trkpt lat="46.84555" lon="8.44919">
        <ele>2040</ele>
        <time>2021-08-13T07:41:32.161Z</time>
      </trkpt>
      <trkpt lat="46.84555" lon="8.44918">
        <ele>2039</ele>
        <time>2021-08-13T07:41:33.161Z</time>
      </trkpt>
      <trkpt lat="46.84555" lon="8.44917">
        <ele>2038</ele>
        <time>2021-08-13T07:41:34.160Z</time>
      </trkpt>
      <trkpt lat="46.84556" lon="8.44916">
        <ele>2037</ele>
        <time>2021-08-13T07:41:35.161Z</time>
      </trkpt>
      <trkpt lat="46.84556" lon="8.44915">
        <ele>2037</ele>
        <time>2021-08-13T07:41:36.160Z</time>
      </trkpt>
      <trkpt lat="46.84556" lon="8.44913">
        <ele>2036</ele>
        <time>2021-08-13T07:41:37.161Z</time>
      </trkpt>
      <trkpt lat="46.84557" lon="8.44912">
        <ele>2035</ele>
        <time>2021-08-13T07:41:38.161Z</time>
      </trkpt>
      <trkpt lat="46.84557" lon="8.44911">
        <ele>2035</ele>
        <time>2021-08-13T07:41:39.161Z</time>
      </trkpt>
      <trkpt lat="46.84557" lon="8.4491">
        <ele>2034</ele>
        <time>2021-08-13T07:41:40.161Z</time>
      </trkpt>
      <trkpt lat="46.84557" lon="8.44908">
        <ele>2034</ele>
        <time>2021-08-13T07:41:41.161Z</time>
      </trkpt>
      <trkpt lat="46.84557" lon="8.44907">
        <ele>2033</ele>
        <time>2021-08-13T07:41:42.161Z</time>
      </trkpt>
      <trkpt lat="46.84557" lon="8.44906">
        <ele>2033</ele>
        <time>2021-08-13T07:41:43.160Z</time>
      </trkpt>
      <trkpt lat="46.84558" lon="8.44904">
        <ele>2033</ele>
        <time>2021-08-13T07:41:44.160Z</time>
      </trkpt>
      <trkpt lat="46.84558" lon="8.44903">
        <ele>2033</ele>
        <time>2021-08-13T07:41:45.161Z</time>
      </trkpt>
      <trkpt lat="46.84558" lon="8.44902">
        <ele>2033</ele>
        <time>2021-08-13T07:41:46.161Z</time>
      </trkpt>
      <trkpt lat="46.84558" lon="8.449">
        <ele>2033</ele>
        <time>2021-08-13T07:41:47.161Z</time>
      </trkpt>
      <trkpt lat="46.84558" lon="8.44899">
        <ele>2033</ele>
        <time>2021-08-13T07:41:48.161Z</time>
      </trkpt>
      <trkpt lat="46.84558" lon="8.44897">
        <ele>2033</ele>
        <time>2021-08-13T07:41:49.161Z</time>
      </trkpt>
      <trkpt lat="46.84559" lon="8.44896">
        <ele>2033</ele>
        <time>2021-08-13T07:41:50.160Z</time>
      </trkpt>
      <trkpt lat="46.84559" lon="8.44895">
        <ele>2033</ele>
        <time>2021-08-13T07:41:51.161Z</time>
      </trkpt>
      <trkpt lat="46.8456" lon="8.44893">
        <ele>2033</ele>
        <time>2021-08-13T07:41:52.161Z</time>
      </trkpt>
      <trkpt lat="46.8456" lon="8.44891">
        <ele>2033</ele>
        <time>2021-08-13T07:41:53.161Z</time>
      </trkpt>
      <trkpt lat="46.8456" lon="8.4489">
        <ele>2033</ele>
        <time>2021-08-13T07:41:54.161Z</time>
      </trkpt>
      <trkpt lat="46.84561" lon="8.44889">
        <ele>2033</ele>
        <time>2021-08-13T07:41:55.161Z</time>
      </trkpt>
      <trkpt lat="46.84561" lon="8.44888">
        <ele>2033</ele>
        <time>2021-08-13T07:41:56.161Z</time>
      </trkpt>
      <trkpt lat="46.84561" lon="8.44888">
        <ele>2033</ele>
        <time>2021-08-13T07:41:57.160Z</time>
      </trkpt>
      <trkpt lat="46.84562" lon="8.44887">
        <ele>2033</ele>
        <time>2021-08-13T07:41:58.161Z</time>
      </trkpt>
      <trkpt lat="46.84562" lon="8.44886">
        <ele>2033</ele>
        <time>2021-08-13T07:41:59.160Z</time>
      </trkpt>
      <trkpt lat="46.84562" lon="8.44885">
        <ele>2033</ele>
        <time>2021-08-13T07:42:00.161Z</time>
      </trkpt>
      <trkpt lat="46.84562" lon="8.44884">
        <ele>2033</ele>
        <time>2021-08-13T07:42:01.160Z</time>
      </trkpt>
      <trkpt lat="46.84562" lon="8.44883">
        <ele>2032</ele>
        <time>2021-08-13T07:42:02.161Z</time>
      </trkpt>
      <trkpt lat="46.84562" lon="8.44882">
        <ele>2032</ele>
        <time>2021-08-13T07:42:03.160Z</time>
      </trkpt>
      <trkpt lat="46.84562" lon="8.44881">
        <ele>2032</ele>
        <time>2021-08-13T07:42:04.160Z</time>
      </trkpt>
      <trkpt lat="46.84562" lon="8.4488">
        <ele>2032</ele>
        <time>2021-08-13T07:42:05.161Z</time>
      </trkpt>
      <trkpt lat="46.84562" lon="8.44879">
        <ele>2031</ele>
        <time>2021-08-13T07:42:06.161Z</time>
      </trkpt>
      <trkpt lat="46.84562" lon="8.44878">
        <ele>2031</ele>
        <time>2021-08-13T07:42:07.161Z</time>
      </trkpt>
      <trkpt lat="46.84562" lon="8.44877">
        <ele>2031</ele>
        <time>2021-08-13T07:42:08.161Z</time>
      </trkpt>
      <trkpt lat="46.84562" lon="8.44875">
        <ele>2030</ele>
        <time>2021-08-13T07:42:09.161Z</time>
      </trkpt>
      <trkpt lat="46.84562" lon="8.44875">
        <ele>2030</ele>
        <time>2021-08-13T07:42:10.161Z</time>
      </trkpt>
      <trkpt lat="46.84562" lon="8.44874">
        <ele>2030</ele>
        <time>2021-08-13T07:42:11.160Z</time>
      </trkpt>
      <trkpt lat="46.84563" lon="8.44873">
        <ele>2030</ele>
        <time>2021-08-13T07:42:12.160Z</time>
      </trkpt>
      <trkpt lat="46.84563" lon="8.44872">
        <ele>2030</ele>
        <time>2021-08-13T07:42:13.160Z</time>
      </trkpt>
      <trkpt lat="46.84564" lon="8.4487">
        <ele>2030</ele>
        <time>2021-08-13T07:42:14.161Z</time>
      </trkpt>
      <trkpt lat="46.84564" lon="8.4487">
        <ele>2030</ele>
        <time>2021-08-13T07:42:15.161Z</time>
      </trkpt>
      <trkpt lat="46.84564" lon="8.44869">
        <ele>2030</ele>
        <time>2021-08-13T07:42:16.160Z</time>
      </trkpt>
      <trkpt lat="46.84565" lon="8.44868">
        <ele>2029</ele>
        <time>2021-08-13T07:42:17.160Z</time>
      </trkpt>
      <trkpt lat="46.84566" lon="8.44867">
        <ele>2029</ele>
        <time>2021-08-13T07:42:18.161Z</time>
      </trkpt>
      <trkpt lat="46.84567" lon="8.44866">
        <ele>2029</ele>
        <time>2021-08-13T07:42:19.161Z</time>
      </trkpt>
      <trkpt lat="46.84567" lon="8.44865">
        <ele>2030</ele>
        <time>2021-08-13T07:42:20.160Z</time>
      </trkpt>
      <trkpt lat="46.84568" lon="8.44864">
        <ele>2030</ele>
        <time>2021-08-13T07:42:21.161Z</time>
      </trkpt>
      <trkpt lat="46.84568" lon="8.44863">
        <ele>2030</ele>
        <time>2021-08-13T07:42:22.161Z</time>
      </trkpt>
      <trkpt lat="46.84568" lon="8.44861">
        <ele>2030</ele>
        <time>2021-08-13T07:42:23.161Z</time>
      </trkpt>
      <trkpt lat="46.84568" lon="8.4486">
        <ele>2030</ele>
        <time>2021-08-13T07:42:24.161Z</time>
      </trkpt>
      <trkpt lat="46.84567" lon="8.44859">
        <ele>2030</ele>
        <time>2021-08-13T07:42:25.161Z</time>
      </trkpt>
      <trkpt lat="46.84567" lon="8.44857">
        <ele>2030</ele>
        <time>2021-08-13T07:42:26.161Z</time>
      </trkpt>
      <trkpt lat="46.84566" lon="8.44856">
        <ele>2030</ele>
        <time>2021-08-13T07:42:27.160Z</time>
      </trkpt>
      <trkpt lat="46.84566" lon="8.44855">
        <ele>2030</ele>
        <time>2021-08-13T07:42:28.160Z</time>
      </trkpt>
      <trkpt lat="46.84566" lon="8.44853">
        <ele>2029</ele>
        <time>2021-08-13T07:42:29.161Z</time>
      </trkpt>
      <trkpt lat="46.84565" lon="8.44851">
        <ele>2029</ele>
        <time>2021-08-13T07:42:30.160Z</time>
      </trkpt>
      <trkpt lat="46.84565" lon="8.4485">
        <ele>2028</ele>
        <time>2021-08-13T07:42:31.160Z</time>
      </trkpt>
      <trkpt lat="46.84565" lon="8.44848">
        <ele>2028</ele>
        <time>2021-08-13T07:42:32.161Z</time>
      </trkpt>
      <trkpt lat="46.84565" lon="8.44847">
        <ele>2028</ele>
        <time>2021-08-13T07:42:33.161Z</time>
      </trkpt>
      <trkpt lat="46.84566" lon="8.44846">
        <ele>2028</ele>
        <time>2021-08-13T07:42:34.161Z</time>
      </trkpt>
      <trkpt lat="46.84566" lon="8.44845">
        <ele>2028</ele>
        <time>2021-08-13T07:42:35.161Z</time>
      </trkpt>
      <trkpt lat="46.84566" lon="8.44844">
        <ele>2028</ele>
        <time>2021-08-13T07:42:36.161Z</time>
      </trkpt>
      <trkpt lat="46.84566" lon="8.44843">
        <ele>2028</ele>
        <time>2021-08-13T07:42:37.161Z</time>
      </trkpt>
      <trkpt lat="46.84566" lon="8.44842">
        <ele>2028</ele>
        <time>2021-08-13T07:42:38.160Z</time>
      </trkpt>
      <trkpt lat="46.84566" lon="8.44841">
        <ele>2029</ele>
        <time>2021-08-13T07:42:39.160Z</time>
      </trkpt>
      <trkpt lat="46.84566" lon="8.4484">
        <ele>2029</ele>
        <time>2021-08-13T07:42:40.160Z</time>
      </trkpt>
      <trkpt lat="46.84566" lon="8.44839">
        <ele>2029</ele>
        <time>2021-08-13T07:42:41.161Z</time>
      </trkpt>
      <trkpt lat="46.84566" lon="8.44838">
        <ele>2029</ele>
        <time>2021-08-13T07:42:42.161Z</time>
      </trkpt>
      <trkpt lat="46.84566" lon="8.44837">
        <ele>2029</ele>
        <time>2021-08-13T07:42:43.161Z</time>
      </trkpt>
      <trkpt lat="46.84567" lon="8.44835">
        <ele>2028</ele>
        <time>2021-08-13T07:42:44.161Z</time>
      </trkpt>
      <trkpt lat="46.84568" lon="8.44835">
        <ele>2028</ele>
        <time>2021-08-13T07:42:45.161Z</time>
      </trkpt>
      <trkpt lat="46.84568" lon="8.44834">
        <ele>2028</ele>
        <time>2021-08-13T07:42:46.160Z</time>
      </trkpt>
      <trkpt lat="46.84569" lon="8.44832">
        <ele>2027</ele>
        <time>2021-08-13T07:42:47.161Z</time>
      </trkpt>
      <trkpt lat="46.84569" lon="8.44831">
        <ele>2026</ele>
        <time>2021-08-13T07:42:48.160Z</time>
      </trkpt>
      <trkpt lat="46.8457" lon="8.4483">
        <ele>2026</ele>
        <time>2021-08-13T07:42:49.161Z</time>
      </trkpt>
      <trkpt lat="46.8457" lon="8.44828">
        <ele>2025</ele>
        <time>2021-08-13T07:42:50.161Z</time>
      </trkpt>
      <trkpt lat="46.8457" lon="8.44827">
        <ele>2025</ele>
        <time>2021-08-13T07:42:51.161Z</time>
      </trkpt>
      <trkpt lat="46.8457" lon="8.44825">
        <ele>2024</ele>
        <time>2021-08-13T07:42:52.160Z</time>
      </trkpt>
      <trkpt lat="46.8457" lon="8.44824">
        <ele>2024</ele>
        <time>2021-08-13T07:42:53.161Z</time>
      </trkpt>
      <trkpt lat="46.84571" lon="8.44823">
        <ele>2024</ele>
        <time>2021-08-13T07:42:54.160Z</time>
      </trkpt>
      <trkpt lat="46.84572" lon="8.44822">
        <ele>2024</ele>
        <time>2021-08-13T07:42:55.161Z</time>
      </trkpt>
      <trkpt lat="46.84573" lon="8.44821">
        <ele>2023</ele>
        <time>2021-08-13T07:42:56.161Z</time>
      </trkpt>
      <trkpt lat="46.84574" lon="8.4482">
        <ele>2023</ele>
        <time>2021-08-13T07:42:57.161Z</time>
      </trkpt>
      <trkpt lat="46.84574" lon="8.4482">
        <ele>2022</ele>
        <time>2021-08-13T07:42:58.160Z</time>
      </trkpt>
      <trkpt lat="46.84575" lon="8.4482">
        <ele>2022</ele>
        <time>2021-08-13T07:42:59.161Z</time>
      </trkpt>
      <trkpt lat="46.84576" lon="8.44819">
        <ele>2021</ele>
        <time>2021-08-13T07:43:00.160Z</time>
      </trkpt>
      <trkpt lat="46.84576" lon="8.44819">
        <ele>2021</ele>
        <time>2021-08-13T07:43:01.160Z</time>
      </trkpt>
      <trkpt lat="46.84577" lon="8.44818">
        <ele>2021</ele>
        <time>2021-08-13T07:43:02.161Z</time>
      </trkpt>
      <trkpt lat="46.84578" lon="8.44818">
        <ele>2020</ele>
        <time>2021-08-13T07:43:03.161Z</time>
      </trkpt>
      <trkpt lat="46.84579" lon="8.44817">
        <ele>2019</ele>
        <time>2021-08-13T07:43:04.161Z</time>
      </trkpt>
      <trkpt lat="46.8458" lon="8.44817">
        <ele>2018</ele>
        <time>2021-08-13T07:43:05.160Z</time>
      </trkpt>
      <trkpt lat="46.84581" lon="8.44816">
        <ele>2018</ele>
        <time>2021-08-13T07:43:06.161Z</time>
      </trkpt>
      <trkpt lat="46.84582" lon="8.44816">
        <ele>2017</ele>
        <time>2021-08-13T07:43:07.161Z</time>
      </trkpt>
      <trkpt lat="46.84583" lon="8.44816">
        <ele>2016</ele>
        <time>2021-08-13T07:43:08.161Z</time>
      </trkpt>
      <trkpt lat="46.84584" lon="8.44816">
        <ele>2015</ele>
        <time>2021-08-13T07:43:09.161Z</time>
      </trkpt>
      <trkpt lat="46.84585" lon="8.44815">
        <ele>2014</ele>
        <time>2021-08-13T07:43:10.161Z</time>
      </trkpt>
      <trkpt lat="46.84587" lon="8.44815">
        <ele>2014</ele>
        <time>2021-08-13T07:43:11.161Z</time>
      </trkpt>
      <trkpt lat="46.84588" lon="8.44815">
        <ele>2014</ele>
        <time>2021-08-13T07:43:12.161Z</time>
      </trkpt>
      <trkpt lat="46.84589" lon="8.44815">
        <ele>2013</ele>
        <time>2021-08-13T07:43:13.161Z</time>
      </trkpt>
      <trkpt lat="46.84589" lon="8.44814">
        <ele>2013</ele>
        <time>2021-08-13T07:43:14.160Z</time>
      </trkpt>
      <trkpt lat="46.8459" lon="8.44814">
        <ele>2012</ele>
        <time>2021-08-13T07:43:15.161Z</time>
      </trkpt>
      <trkpt lat="46.84591" lon="8.44814">
        <ele>2012</ele>
        <time>2021-08-13T07:43:16.161Z</time>
      </trkpt>
      <trkpt lat="46.84592" lon="8.44814">
        <ele>2013</ele>
        <time>2021-08-13T07:43:17.160Z</time>
      </trkpt>
      <trkpt lat="46.84593" lon="8.44814">
        <ele>2013</ele>
        <time>2021-08-13T07:43:18.161Z</time>
      </trkpt>
      <trkpt lat="46.84594" lon="8.44815">
        <ele>2013</ele>
        <time>2021-08-13T07:43:19.160Z</time>
      </trkpt>
      <trkpt lat="46.84595" lon="8.44815">
        <ele>2013</ele>
        <time>2021-08-13T07:43:20.161Z</time>
      </trkpt>
      <trkpt lat="46.84596" lon="8.44816">
        <ele>2013</ele>
        <time>2021-08-13T07:43:21.161Z</time>
      </trkpt>
      <trkpt lat="46.84596" lon="8.44816">
        <ele>2013</ele>
        <time>2021-08-13T07:43:22.161Z</time>
      </trkpt>
      <trkpt lat="46.84597" lon="8.44817">
        <ele>2013</ele>
        <time>2021-08-13T07:43:23.160Z</time>
      </trkpt>
      <trkpt lat="46.84598" lon="8.44818">
        <ele>2014</ele>
        <time>2021-08-13T07:43:24.161Z</time>
      </trkpt>
      <trkpt lat="46.84599" lon="8.44818">
        <ele>2014</ele>
        <time>2021-08-13T07:43:25.161Z</time>
      </trkpt>
      <trkpt lat="46.846" lon="8.44818">
        <ele>2014</ele>
        <time>2021-08-13T07:43:26.160Z</time>
      </trkpt>
      <trkpt lat="46.84601" lon="8.44818">
        <ele>2015</ele>
        <time>2021-08-13T07:43:27.161Z</time>
      </trkpt>
      <trkpt lat="46.84601" lon="8.44819">
        <ele>2015</ele>
        <time>2021-08-13T07:43:28.161Z</time>
      </trkpt>
      <trkpt lat="46.84603" lon="8.44819">
        <ele>2015</ele>
        <time>2021-08-13T07:43:29.161Z</time>
      </trkpt>
      <trkpt lat="46.84604" lon="8.44819">
        <ele>2015</ele>
        <time>2021-08-13T07:43:30.161Z</time>
      </trkpt>
      <trkpt lat="46.84605" lon="8.4482">
        <ele>2015</ele>
        <time>2021-08-13T07:43:31.161Z</time>
      </trkpt>
      <trkpt lat="46.84606" lon="8.4482">
        <ele>2014</ele>
        <time>2021-08-13T07:43:32.160Z</time>
      </trkpt>
      <trkpt lat="46.84606" lon="8.44821">
        <ele>2014</ele>
        <time>2021-08-13T07:43:33.161Z</time>
      </trkpt>
      <trkpt lat="46.84607" lon="8.44821">
        <ele>2014</ele>
        <time>2021-08-13T07:43:34.160Z</time>
      </trkpt>
      <trkpt lat="46.84608" lon="8.44821">
        <ele>2013</ele>
        <time>2021-08-13T07:43:35.161Z</time>
      </trkpt>
      <trkpt lat="46.84609" lon="8.44821">
        <ele>2013</ele>
        <time>2021-08-13T07:43:36.161Z</time>
      </trkpt>
      <trkpt lat="46.8461" lon="8.44822">
        <ele>2012</ele>
        <time>2021-08-13T07:43:37.161Z</time>
      </trkpt>
      <trkpt lat="46.84611" lon="8.44822">
        <ele>2012</ele>
        <time>2021-08-13T07:43:38.161Z</time>
      </trkpt>
      <trkpt lat="46.84612" lon="8.44822">
        <ele>2011</ele>
        <time>2021-08-13T07:43:39.161Z</time>
      </trkpt>
      <trkpt lat="46.84613" lon="8.44823">
        <ele>2011</ele>
        <time>2021-08-13T07:43:40.161Z</time>
      </trkpt>
      <trkpt lat="46.84614" lon="8.44823">
        <ele>2010</ele>
        <time>2021-08-13T07:43:41.161Z</time>
      </trkpt>
      <trkpt lat="46.84614" lon="8.44824">
        <ele>2010</ele>
        <time>2021-08-13T07:43:42.160Z</time>
      </trkpt>
      <trkpt lat="46.84615" lon="8.44824">
        <ele>2010</ele>
        <time>2021-08-13T07:43:43.161Z</time>
      </trkpt>
      <trkpt lat="46.84616" lon="8.44824">
        <ele>2010</ele>
        <time>2021-08-13T07:43:44.161Z</time>
      </trkpt>
      <trkpt lat="46.84617" lon="8.44824">
        <ele>2009</ele>
        <time>2021-08-13T07:43:45.161Z</time>
      </trkpt>
      <trkpt lat="46.84618" lon="8.44823">
        <ele>2009</ele>
        <time>2021-08-13T07:43:46.161Z</time>
      </trkpt>
      <trkpt lat="46.84619" lon="8.44822">
        <ele>2009</ele>
        <time>2021-08-13T07:43:47.161Z</time>
      </trkpt>
      <trkpt lat="46.8462" lon="8.44822">
        <ele>2009</ele>
        <time>2021-08-13T07:43:48.161Z</time>
      </trkpt>
      <trkpt lat="46.84622" lon="8.44822">
        <ele>2009</ele>
        <time>2021-08-13T07:43:49.160Z</time>
      </trkpt>
      <trkpt lat="46.84623" lon="8.44822">
        <ele>2008</ele>
        <time>2021-08-13T07:43:50.160Z</time>
      </trkpt>
      <trkpt lat="46.84624" lon="8.44822">
        <ele>2008</ele>
        <time>2021-08-13T07:43:51.161Z</time>
      </trkpt>
      <trkpt lat="46.84625" lon="8.44821">
        <ele>2008</ele>
        <time>2021-08-13T07:43:52.161Z</time>
      </trkpt>
      <trkpt lat="46.84626" lon="8.44821">
        <ele>2008</ele>
        <time>2021-08-13T07:43:53.161Z</time>
      </trkpt>
      <trkpt lat="46.84627" lon="8.44821">
        <ele>2008</ele>
        <time>2021-08-13T07:43:54.161Z</time>
      </trkpt>
      <trkpt lat="46.84628" lon="8.4482">
        <ele>2008</ele>
        <time>2021-08-13T07:43:55.161Z</time>
      </trkpt>
      <trkpt lat="46.84629" lon="8.4482">
        <ele>2008</ele>
        <time>2021-08-13T07:43:56.161Z</time>
      </trkpt>
      <trkpt lat="46.8463" lon="8.44819">
        <ele>2009</ele>
        <time>2021-08-13T07:43:57.161Z</time>
      </trkpt>
      <trkpt lat="46.8463" lon="8.44818">
        <ele>2009</ele>
        <time>2021-08-13T07:43:58.161Z</time>
      </trkpt>
      <trkpt lat="46.84632" lon="8.44816">
        <ele>2010</ele>
        <time>2021-08-13T07:43:59.160Z</time>
      </trkpt>
      <trkpt lat="46.84633" lon="8.44815">
        <ele>2010</ele>
        <time>2021-08-13T07:44:00.161Z</time>
      </trkpt>
      <trkpt lat="46.84634" lon="8.44814">
        <ele>2011</ele>
        <time>2021-08-13T07:44:01.161Z</time>
      </trkpt>
      <trkpt lat="46.84635" lon="8.44813">
        <ele>2011</ele>
        <time>2021-08-13T07:44:02.160Z</time>
      </trkpt>
      <trkpt lat="46.84636" lon="8.44812">
        <ele>2011</ele>
        <time>2021-08-13T07:44:03.160Z</time>
      </trkpt>
      <trkpt lat="46.84637" lon="8.44812">
        <ele>2011</ele>
        <time>2021-08-13T07:44:04.161Z</time>
      </trkpt>
      <trkpt lat="46.84638" lon="8.44811">
        <ele>2011</ele>
        <time>2021-08-13T07:44:05.161Z</time>
      </trkpt>
      <trkpt lat="46.84639" lon="8.4481">
        <ele>2011</ele>
        <time>2021-08-13T07:44:06.161Z</time>
      </trkpt>
      <trkpt lat="46.84639" lon="8.44809">
        <ele>2011</ele>
        <time>2021-08-13T07:44:07.160Z</time>
      </trkpt>
      <trkpt lat="46.8464" lon="8.44807">
        <ele>2011</ele>
        <time>2021-08-13T07:44:08.161Z</time>
      </trkpt>
      <trkpt lat="46.84641" lon="8.44806">
        <ele>2011</ele>
        <time>2021-08-13T07:44:09.161Z</time>
      </trkpt>
      <trkpt lat="46.84642" lon="8.44804">
        <ele>2010</ele>
        <time>2021-08-13T07:44:10.161Z</time>
      </trkpt>
      <trkpt lat="46.84643" lon="8.44802">
        <ele>2010</ele>
        <time>2021-08-13T07:44:11.161Z</time>
      </trkpt>
      <trkpt lat="46.84643" lon="8.44801">
        <ele>2010</ele>
        <time>2021-08-13T07:44:12.160Z</time>
      </trkpt>
      <trkpt lat="46.84643" lon="8.44799">
        <ele>2009</ele>
        <time>2021-08-13T07:44:13.161Z</time>
      </trkpt>
      <trkpt lat="46.84643" lon="8.44797">
        <ele>2009</ele>
        <time>2021-08-13T07:44:14.160Z</time>
      </trkpt>
      <trkpt lat="46.84643" lon="8.44795">
        <ele>2009</ele>
        <time>2021-08-13T07:44:15.161Z</time>
      </trkpt>
      <trkpt lat="46.84644" lon="8.44794">
        <ele>2009</ele>
        <time>2021-08-13T07:44:16.161Z</time>
      </trkpt>
      <trkpt lat="46.84644" lon="8.44792">
        <ele>2009</ele>
        <time>2021-08-13T07:44:17.161Z</time>
      </trkpt>
      <trkpt lat="46.84644" lon="8.4479">
        <ele>2009</ele>
        <time>2021-08-13T07:44:18.161Z</time>
      </trkpt>
      <trkpt lat="46.84644" lon="8.44788">
        <ele>2008</ele>
        <time>2021-08-13T07:44:19.161Z</time>
      </trkpt>
      <trkpt lat="46.84644" lon="8.44787">
        <ele>2008</ele>
        <time>2021-08-13T07:44:20.160Z</time>
      </trkpt>
      <trkpt lat="46.84644" lon="8.44785">
        <ele>2007</ele>
        <time>2021-08-13T07:44:21.161Z</time>
      </trkpt>
      <trkpt lat="46.84644" lon="8.44783">
        <ele>2007</ele>
        <time>2021-08-13T07:44:22.161Z</time>
      </trkpt>
      <trkpt lat="46.84643" lon="8.44781">
        <ele>2006</ele>
        <time>2021-08-13T07:44:23.161Z</time>
      </trkpt>
      <trkpt lat="46.84643" lon="8.44779">
        <ele>2006</ele>
        <time>2021-08-13T07:44:24.160Z</time>
      </trkpt>
      <trkpt lat="46.84643" lon="8.44778">
        <ele>2006</ele>
        <time>2021-08-13T07:44:25.161Z</time>
      </trkpt>
      <trkpt lat="46.84643" lon="8.44776">
        <ele>2005</ele>
        <time>2021-08-13T07:44:26.160Z</time>
      </trkpt>
      <trkpt lat="46.84642" lon="8.44775">
        <ele>2005</ele>
        <time>2021-08-13T07:44:27.161Z</time>
      </trkpt>
      <trkpt lat="46.84643" lon="8.44773">
        <ele>2005</ele>
        <time>2021-08-13T07:44:28.161Z</time>
      </trkpt>
      <trkpt lat="46.84642" lon="8.44772">
        <ele>2004</ele>
        <time>2021-08-13T07:44:29.161Z</time>
      </trkpt>
      <trkpt lat="46.84642" lon="8.4477">
        <ele>2004</ele>
        <time>2021-08-13T07:44:30.161Z</time>
      </trkpt>
      <trkpt lat="46.84642" lon="8.44768">
        <ele>2004</ele>
        <time>2021-08-13T07:44:31.161Z</time>
      </trkpt>
      <trkpt lat="46.84642" lon="8.44767">
        <ele>2003</ele>
        <time>2021-08-13T07:44:32.161Z</time>
      </trkpt>
      <trkpt lat="46.84642" lon="8.44765">
        <ele>2003</ele>
        <time>2021-08-13T07:44:33.160Z</time>
      </trkpt>
      <trkpt lat="46.84642" lon="8.44764">
        <ele>2003</ele>
        <time>2021-08-13T07:44:34.161Z</time>
      </trkpt>
      <trkpt lat="46.84642" lon="8.44762">
        <ele>2003</ele>
        <time>2021-08-13T07:44:35.160Z</time>
      </trkpt>
      <trkpt lat="46.84642" lon="8.4476">
        <ele>2003</ele>
        <time>2021-08-13T07:44:36.161Z</time>
      </trkpt>
      <trkpt lat="46.84643" lon="8.44759">
        <ele>2003</ele>
        <time>2021-08-13T07:44:37.161Z</time>
      </trkpt>
      <trkpt lat="46.84643" lon="8.44757">
        <ele>2003</ele>
        <time>2021-08-13T07:44:38.161Z</time>
      </trkpt>
      <trkpt lat="46.84644" lon="8.44756">
        <ele>2003</ele>
        <time>2021-08-13T07:44:39.161Z</time>
      </trkpt>
      <trkpt lat="46.84644" lon="8.44755">
        <ele>2003</ele>
        <time>2021-08-13T07:44:40.161Z</time>
      </trkpt>
      <trkpt lat="46.84645" lon="8.44754">
        <ele>2003</ele>
        <time>2021-08-13T07:44:41.161Z</time>
      </trkpt>
      <trkpt lat="46.84646" lon="8.44753">
        <ele>2004</ele>
        <time>2021-08-13T07:44:42.161Z</time>
      </trkpt>
      <trkpt lat="46.84647" lon="8.44751">
        <ele>2004</ele>
        <time>2021-08-13T07:44:43.160Z</time>
      </trkpt>
      <trkpt lat="46.84648" lon="8.4475">
        <ele>2004</ele>
        <time>2021-08-13T07:44:44.161Z</time>
      </trkpt>
      <trkpt lat="46.84648" lon="8.44748">
        <ele>2003</ele>
        <time>2021-08-13T07:44:45.161Z</time>
      </trkpt>
      <trkpt lat="46.84649" lon="8.44747">
        <ele>2003</ele>
        <time>2021-08-13T07:44:46.161Z</time>
      </trkpt>
      <trkpt lat="46.84649" lon="8.44745">
        <ele>2003</ele>
        <time>2021-08-13T07:44:47.160Z</time>
      </trkpt>
      <trkpt lat="46.84649" lon="8.44743">
        <ele>2003</ele>
        <time>2021-08-13T07:44:48.161Z</time>
      </trkpt>
      <trkpt lat="46.8465" lon="8.44741">
        <ele>2003</ele>
        <time>2021-08-13T07:44:49.161Z</time>
      </trkpt>
      <trkpt lat="46.8465" lon="8.4474">
        <ele>2002</ele>
        <time>2021-08-13T07:44:50.161Z</time>
      </trkpt>
      <trkpt lat="46.84651" lon="8.44738">
        <ele>2002</ele>
        <time>2021-08-13T07:44:51.161Z</time>
      </trkpt>
      <trkpt lat="46.84651" lon="8.44737">
        <ele>2002</ele>
        <time>2021-08-13T07:44:52.160Z</time>
      </trkpt>
      <trkpt lat="46.84651" lon="8.44735">
        <ele>2002</ele>
        <time>2021-08-13T07:44:53.161Z</time>
      </trkpt>
      <trkpt lat="46.84652" lon="8.44734">
        <ele>2003</ele>
        <time>2021-08-13T07:44:54.160Z</time>
      </trkpt>
      <trkpt lat="46.84652" lon="8.44732">
        <ele>2003</ele>
        <time>2021-08-13T07:44:55.161Z</time>
      </trkpt>
      <trkpt lat="46.84653" lon="8.44731">
        <ele>2004</ele>
        <time>2021-08-13T07:44:56.160Z</time>
      </trkpt>
      <trkpt lat="46.84653" lon="8.4473">
        <ele>2004</ele>
        <time>2021-08-13T07:44:57.160Z</time>
      </trkpt>
      <trkpt lat="46.84654" lon="8.44728">
        <ele>2004</ele>
        <time>2021-08-13T07:44:58.160Z</time>
      </trkpt>
      <trkpt lat="46.84655" lon="8.44727">
        <ele>2004</ele>
        <time>2021-08-13T07:44:59.161Z</time>
      </trkpt>
      <trkpt lat="46.84655" lon="8.44726">
        <ele>2005</ele>
        <time>2021-08-13T07:45:00.161Z</time>
      </trkpt>
      <trkpt lat="46.84656" lon="8.44724">
        <ele>2005</ele>
        <time>2021-08-13T07:45:01.160Z</time>
      </trkpt>
      <trkpt lat="46.84656" lon="8.44722">
        <ele>2005</ele>
        <time>2021-08-13T07:45:02.161Z</time>
      </trkpt>
      <trkpt lat="46.84656" lon="8.4472">
        <ele>2006</ele>
        <time>2021-08-13T07:45:03.160Z</time>
      </trkpt>
      <trkpt lat="46.84656" lon="8.44718">
        <ele>2007</ele>
        <time>2021-08-13T07:45:04.161Z</time>
      </trkpt>
      <trkpt lat="46.84656" lon="8.44716">
        <ele>2007</ele>
        <time>2021-08-13T07:45:05.160Z</time>
      </trkpt>
      <trkpt lat="46.84656" lon="8.44715">
        <ele>2008</ele>
        <time>2021-08-13T07:45:06.160Z</time>
      </trkpt>
      <trkpt lat="46.84656" lon="8.44713">
        <ele>2008</ele>
        <time>2021-08-13T07:45:07.161Z</time>
      </trkpt>
      <trkpt lat="46.84655" lon="8.44711">
        <ele>2009</ele>
        <time>2021-08-13T07:45:08.161Z</time>
      </trkpt>
      <trkpt lat="46.84655" lon="8.4471">
        <ele>2009</ele>
        <time>2021-08-13T07:45:09.160Z</time>
      </trkpt>
      <trkpt lat="46.84655" lon="8.44708">
        <ele>2010</ele>
        <time>2021-08-13T07:45:10.161Z</time>
      </trkpt>
      <trkpt lat="46.84655" lon="8.44707">
        <ele>2010</ele>
        <time>2021-08-13T07:45:11.161Z</time>
      </trkpt>
      <trkpt lat="46.84655" lon="8.44706">
        <ele>2010</ele>
        <time>2021-08-13T07:45:12.161Z</time>
      </trkpt>
      <trkpt lat="46.84655" lon="8.44704">
        <ele>2010</ele>
        <time>2021-08-13T07:45:13.160Z</time>
      </trkpt>
      <trkpt lat="46.84655" lon="8.44702">
        <ele>2010</ele>
        <time>2021-08-13T07:45:14.161Z</time>
      </trkpt>
      <trkpt lat="46.84655" lon="8.44701">
        <ele>2010</ele>
        <time>2021-08-13T07:45:15.161Z</time>
      </trkpt>
      <trkpt lat="46.84654" lon="8.447">
        <ele>2010</ele>
        <time>2021-08-13T07:45:16.161Z</time>
      </trkpt>
      <trkpt lat="46.84654" lon="8.44699">
        <ele>2010</ele>
        <time>2021-08-13T07:45:17.161Z</time>
      </trkpt>
      <trkpt lat="46.84653" lon="8.44698">
        <ele>2010</ele>
        <time>2021-08-13T07:45:18.161Z</time>
      </trkpt>
      <trkpt lat="46.84652" lon="8.44698">
        <ele>2010</ele>
        <time>2021-08-13T07:45:19.161Z</time>
      </trkpt>
      <trkpt lat="46.84652" lon="8.44698">
        <ele>2010</ele>
        <time>2021-08-13T07:45:20.161Z</time>
      </trkpt>
      <trkpt lat="46.8465" lon="8.44696">
        <ele>2010</ele>
        <time>2021-08-13T07:45:21.160Z</time>
      </trkpt>
      <trkpt lat="46.8465" lon="8.44695">
        <ele>2009</ele>
        <time>2021-08-13T07:45:22.161Z</time>
      </trkpt>
      <trkpt lat="46.84649" lon="8.44694">
        <ele>2009</ele>
        <time>2021-08-13T07:45:23.161Z</time>
      </trkpt>
      <trkpt lat="46.84649" lon="8.44693">
        <ele>2009</ele>
        <time>2021-08-13T07:45:24.160Z</time>
      </trkpt>
      <trkpt lat="46.84648" lon="8.44692">
        <ele>2009</ele>
        <time>2021-08-13T07:45:25.160Z</time>
      </trkpt>
      <trkpt lat="46.84648" lon="8.44691">
        <ele>2009</ele>
        <time>2021-08-13T07:45:26.160Z</time>
      </trkpt>
      <trkpt lat="46.84647" lon="8.44691">
        <ele>2008</ele>
        <time>2021-08-13T07:45:27.161Z</time>
      </trkpt>
      <trkpt lat="46.84647" lon="8.4469">
        <ele>2008</ele>
        <time>2021-08-13T07:45:28.161Z</time>
      </trkpt>
      <trkpt lat="46.84647" lon="8.4469">
        <ele>2007</ele>
        <time>2021-08-13T07:45:29.161Z</time>
      </trkpt>
      <trkpt lat="46.84647" lon="8.44689">
        <ele>2007</ele>
        <time>2021-08-13T07:45:30.160Z</time>
      </trkpt>
      <trkpt lat="46.84646" lon="8.44689">
        <ele>2006</ele>
        <time>2021-08-13T07:45:31.161Z</time>
      </trkpt>
      <trkpt lat="46.84646" lon="8.44689">
        <ele>2006</ele>
        <time>2021-08-13T07:45:32.160Z</time>
      </trkpt>
      <trkpt lat="46.84645" lon="8.44688">
        <ele>2006</ele>
        <time>2021-08-13T07:45:33.161Z</time>
      </trkpt>
      <trkpt lat="46.84644" lon="8.44688">
        <ele>2006</ele>
        <time>2021-08-13T07:45:34.160Z</time>
      </trkpt>
      <trkpt lat="46.84643" lon="8.44687">
        <ele>2006</ele>
        <time>2021-08-13T07:45:35.161Z</time>
      </trkpt>
      <trkpt lat="46.84642" lon="8.44685">
        <ele>2006</ele>
        <time>2021-08-13T07:45:36.160Z</time>
      </trkpt>
      <trkpt lat="46.84642" lon="8.44684">
        <ele>2006</ele>
        <time>2021-08-13T07:45:37.161Z</time>
      </trkpt>
      <trkpt lat="46.84641" lon="8.44682">
        <ele>2005</ele>
        <time>2021-08-13T07:45:38.161Z</time>
      </trkpt>
      <trkpt lat="46.8464" lon="8.44681">
        <ele>2005</ele>
        <time>2021-08-13T07:45:39.161Z</time>
      </trkpt>
      <trkpt lat="46.84639" lon="8.44679">
        <ele>2005</ele>
        <time>2021-08-13T07:45:40.161Z</time>
      </trkpt>
      <trkpt lat="46.84638" lon="8.44679">
        <ele>2004</ele>
        <time>2021-08-13T07:45:41.161Z</time>
      </trkpt>
      <trkpt lat="46.84637" lon="8.44678">
        <ele>2004</ele>
        <time>2021-08-13T07:45:42.161Z</time>
      </trkpt>
      <trkpt lat="46.84637" lon="8.44677">
        <ele>2003</ele>
        <time>2021-08-13T07:45:43.160Z</time>
      </trkpt>
      <trkpt lat="46.84636" lon="8.44675">
        <ele>2003</ele>
        <time>2021-08-13T07:45:44.161Z</time>
      </trkpt>
      <trkpt lat="46.84635" lon="8.44674">
        <ele>2003</ele>
        <time>2021-08-13T07:45:45.161Z</time>
      </trkpt>
      <trkpt lat="46.84635" lon="8.44673">
        <ele>2003</ele>
        <time>2021-08-13T07:45:46.160Z</time>
      </trkpt>
      <trkpt lat="46.84635" lon="8.44672">
        <ele>2003</ele>
        <time>2021-08-13T07:45:47.160Z</time>
      </trkpt>
      <trkpt lat="46.84634" lon="8.44671">
        <ele>2003</ele>
        <time>2021-08-13T07:45:48.161Z</time>
      </trkpt>
      <trkpt lat="46.84634" lon="8.44669">
        <ele>2003</ele>
        <time>2021-08-13T07:45:49.161Z</time>
      </trkpt>
      <trkpt lat="46.84633" lon="8.44668">
        <ele>2004</ele>
        <time>2021-08-13T07:45:50.161Z</time>
      </trkpt>
      <trkpt lat="46.84632" lon="8.44666">
        <ele>2004</ele>
        <time>2021-08-13T07:45:51.160Z</time>
      </trkpt>
      <trkpt lat="46.84632" lon="8.44664">
        <ele>2004</ele>
        <time>2021-08-13T07:45:52.161Z</time>
      </trkpt>
      <trkpt lat="46.84631" lon="8.44662">
        <ele>2004</ele>
        <time>2021-08-13T07:45:53.161Z</time>
      </trkpt>
      <trkpt lat="46.84631" lon="8.4466">
        <ele>2004</ele>
        <time>2021-08-13T07:45:54.160Z</time>
      </trkpt>
      <trkpt lat="46.8463" lon="8.44658">
        <ele>2004</ele>
        <time>2021-08-13T07:45:55.160Z</time>
      </trkpt>
      <trkpt lat="46.8463" lon="8.44656">
        <ele>2003</ele>
        <time>2021-08-13T07:45:56.160Z</time>
      </trkpt>
      <trkpt lat="46.84629" lon="8.44654">
        <ele>2003</ele>
        <time>2021-08-13T07:45:57.161Z</time>
      </trkpt>
      <trkpt lat="46.84629" lon="8.44653">
        <ele>2002</ele>
        <time>2021-08-13T07:45:58.160Z</time>
      </trkpt>
      <trkpt lat="46.84629" lon="8.44651">
        <ele>2002</ele>
        <time>2021-08-13T07:45:59.161Z</time>
      </trkpt>
      <trkpt lat="46.84629" lon="8.4465">
        <ele>2001</ele>
        <time>2021-08-13T07:46:00.161Z</time>
      </trkpt>
      <trkpt lat="46.84629" lon="8.44648">
        <ele>2001</ele>
        <time>2021-08-13T07:46:01.160Z</time>
      </trkpt>
      <trkpt lat="46.84629" lon="8.44646">
        <ele>2001</ele>
        <time>2021-08-13T07:46:02.161Z</time>
      </trkpt>
      <trkpt lat="46.84629" lon="8.44644">
        <ele>2001</ele>
        <time>2021-08-13T07:46:03.161Z</time>
      </trkpt>
      <trkpt lat="46.84629" lon="8.44643">
        <ele>2001</ele>
        <time>2021-08-13T07:46:04.161Z</time>
      </trkpt>
      <trkpt lat="46.84628" lon="8.44641">
        <ele>2001</ele>
        <time>2021-08-13T07:46:05.160Z</time>
      </trkpt>
      <trkpt lat="46.84628" lon="8.4464">
        <ele>2001</ele>
        <time>2021-08-13T07:46:06.160Z</time>
      </trkpt>
      <trkpt lat="46.84627" lon="8.44638">
        <ele>2001</ele>
        <time>2021-08-13T07:46:07.160Z</time>
      </trkpt>
      <trkpt lat="46.84626" lon="8.44637">
        <ele>2000</ele>
        <time>2021-08-13T07:46:08.160Z</time>
      </trkpt>
      <trkpt lat="46.84626" lon="8.44636">
        <ele>2000</ele>
        <time>2021-08-13T07:46:09.160Z</time>
      </trkpt>
      <trkpt lat="46.84625" lon="8.44634">
        <ele>2000</ele>
        <time>2021-08-13T07:46:10.160Z</time>
      </trkpt>
      <trkpt lat="46.84625" lon="8.44632">
        <ele>1999</ele>
        <time>2021-08-13T07:46:11.160Z</time>
      </trkpt>
      <trkpt lat="46.84624" lon="8.44631">
        <ele>1999</ele>
        <time>2021-08-13T07:46:12.160Z</time>
      </trkpt>
      <trkpt lat="46.84623" lon="8.4463">
        <ele>1999</ele>
        <time>2021-08-13T07:46:13.160Z</time>
      </trkpt>
      <trkpt lat="46.84623" lon="8.44628">
        <ele>1999</ele>
        <time>2021-08-13T07:46:14.160Z</time>
      </trkpt>
      <trkpt lat="46.84622" lon="8.44627">
        <ele>1998</ele>
        <time>2021-08-13T07:46:15.160Z</time>
      </trkpt>
      <trkpt lat="46.84622" lon="8.44625">
        <ele>1998</ele>
        <time>2021-08-13T07:46:16.160Z</time>
      </trkpt>
      <trkpt lat="46.84621" lon="8.44624">
        <ele>1997</ele>
        <time>2021-08-13T07:46:17.160Z</time>
      </trkpt>
      <trkpt lat="46.84621" lon="8.44623">
        <ele>1997</ele>
        <time>2021-08-13T07:46:18.160Z</time>
      </trkpt>
      <trkpt lat="46.84621" lon="8.44622">
        <ele>1997</ele>
        <time>2021-08-13T07:46:19.161Z</time>
      </trkpt>
      <trkpt lat="46.8462" lon="8.4462">
        <ele>1997</ele>
        <time>2021-08-13T07:46:20.160Z</time>
      </trkpt>
      <trkpt lat="46.84621" lon="8.44619">
        <ele>1997</ele>
        <time>2021-08-13T07:46:21.161Z</time>
      </trkpt>
      <trkpt lat="46.8462" lon="8.44617">
        <ele>1998</ele>
        <time>2021-08-13T07:46:22.161Z</time>
      </trkpt>
      <trkpt lat="46.8462" lon="8.44615">
        <ele>1997</ele>
        <time>2021-08-13T07:46:23.161Z</time>
      </trkpt>
      <trkpt lat="46.8462" lon="8.44614">
        <ele>1997</ele>
        <time>2021-08-13T07:46:24.160Z</time>
      </trkpt>
      <trkpt lat="46.8462" lon="8.44612">
        <ele>1997</ele>
        <time>2021-08-13T07:46:25.161Z</time>
      </trkpt>
      <trkpt lat="46.8462" lon="8.4461">
        <ele>1997</ele>
        <time>2021-08-13T07:46:26.161Z</time>
      </trkpt>
      <trkpt lat="46.84619" lon="8.44609">
        <ele>1997</ele>
        <time>2021-08-13T07:46:27.161Z</time>
      </trkpt>
      <trkpt lat="46.84618" lon="8.44607">
        <ele>1997</ele>
        <time>2021-08-13T07:46:28.161Z</time>
      </trkpt>
      <trkpt lat="46.84618" lon="8.44605">
        <ele>1997</ele>
        <time>2021-08-13T07:46:29.161Z</time>
      </trkpt>
      <trkpt lat="46.84618" lon="8.44603">
        <ele>1997</ele>
        <time>2021-08-13T07:46:30.161Z</time>
      </trkpt>
      <trkpt lat="46.84618" lon="8.44601">
        <ele>1998</ele>
        <time>2021-08-13T07:46:31.161Z</time>
      </trkpt>
      <trkpt lat="46.84618" lon="8.446">
        <ele>1998</ele>
        <time>2021-08-13T07:46:32.161Z</time>
      </trkpt>
      <trkpt lat="46.84618" lon="8.44599">
        <ele>1998</ele>
        <time>2021-08-13T07:46:33.161Z</time>
      </trkpt>
      <trkpt lat="46.84618" lon="8.44597">
        <ele>1998</ele>
        <time>2021-08-13T07:46:34.160Z</time>
      </trkpt>
      <trkpt lat="46.84618" lon="8.44595">
        <ele>1998</ele>
        <time>2021-08-13T07:46:35.161Z</time>
      </trkpt>
      <trkpt lat="46.84618" lon="8.44593">
        <ele>1997</ele>
        <time>2021-08-13T07:46:36.161Z</time>
      </trkpt>
      <trkpt lat="46.84617" lon="8.44591">
        <ele>1997</ele>
        <time>2021-08-13T07:46:37.161Z</time>
      </trkpt>
      <trkpt lat="46.84617" lon="8.4459">
        <ele>1997</ele>
        <time>2021-08-13T07:46:38.161Z</time>
      </trkpt>
      <trkpt lat="46.84617" lon="8.44587">
        <ele>1997</ele>
        <time>2021-08-13T07:46:39.161Z</time>
      </trkpt>
      <trkpt lat="46.84617" lon="8.44585">
        <ele>1997</ele>
        <time>2021-08-13T07:46:40.161Z</time>
      </trkpt>
      <trkpt lat="46.84616" lon="8.44583">
        <ele>1997</ele>
        <time>2021-08-13T07:46:41.160Z</time>
      </trkpt>
      <trkpt lat="46.84616" lon="8.44582">
        <ele>1997</ele>
        <time>2021-08-13T07:46:42.161Z</time>
      </trkpt>
      <trkpt lat="46.84616" lon="8.4458">
        <ele>1997</ele>
        <time>2021-08-13T07:46:43.160Z</time>
      </trkpt>
      <trkpt lat="46.84616" lon="8.44578">
        <ele>1997</ele>
        <time>2021-08-13T07:46:44.161Z</time>
      </trkpt>
      <trkpt lat="46.84616" lon="8.44576">
        <ele>1997</ele>
        <time>2021-08-13T07:46:45.160Z</time>
      </trkpt>
      <trkpt lat="46.84616" lon="8.44575">
        <ele>1998</ele>
        <time>2021-08-13T07:46:46.160Z</time>
      </trkpt>
      <trkpt lat="46.84615" lon="8.44573">
        <ele>1998</ele>
        <time>2021-08-13T07:46:47.160Z</time>
      </trkpt>
      <trkpt lat="46.84615" lon="8.44572">
        <ele>1998</ele>
        <time>2021-08-13T07:46:48.160Z</time>
      </trkpt>
      <trkpt lat="46.84614" lon="8.4457">
        <ele>1998</ele>
        <time>2021-08-13T07:46:49.161Z</time>
      </trkpt>
      <trkpt lat="46.84614" lon="8.44568">
        <ele>1998</ele>
        <time>2021-08-13T07:46:50.161Z</time>
      </trkpt>
      <trkpt lat="46.84613" lon="8.44567">
        <ele>1998</ele>
        <time>2021-08-13T07:46:51.160Z</time>
      </trkpt>
      <trkpt lat="46.84613" lon="8.44565">
        <ele>1998</ele>
        <time>2021-08-13T07:46:52.161Z</time>
      </trkpt>
      <trkpt lat="46.84613" lon="8.44563">
        <ele>1998</ele>
        <time>2021-08-13T07:46:53.161Z</time>
      </trkpt>
      <trkpt lat="46.84613" lon="8.44562">
        <ele>1997</ele>
        <time>2021-08-13T07:46:54.161Z</time>
      </trkpt>
      <trkpt lat="46.84612" lon="8.4456">
        <ele>1997</ele>
        <time>2021-08-13T07:46:55.161Z</time>
      </trkpt>
      <trkpt lat="46.84612" lon="8.44559">
        <ele>1997</ele>
        <time>2021-08-13T07:46:56.161Z</time>
      </trkpt>
      <trkpt lat="46.84612" lon="8.44557">
        <ele>1997</ele>
        <time>2021-08-13T07:46:57.160Z</time>
      </trkpt>
      <trkpt lat="46.84612" lon="8.44555">
        <ele>1997</ele>
        <time>2021-08-13T07:46:58.161Z</time>
      </trkpt>
      <trkpt lat="46.84612" lon="8.44553">
        <ele>1997</ele>
        <time>2021-08-13T07:46:59.161Z</time>
      </trkpt>
      <trkpt lat="46.84612" lon="8.44552">
        <ele>1997</ele>
        <time>2021-08-13T07:47:00.161Z</time>
      </trkpt>
      <trkpt lat="46.84613" lon="8.4455">
        <ele>1997</ele>
        <time>2021-08-13T07:47:01.161Z</time>
      </trkpt>
      <trkpt lat="46.84613" lon="8.44548">
        <ele>1997</ele>
        <time>2021-08-13T07:47:02.161Z</time>
      </trkpt>
      <trkpt lat="46.84613" lon="8.44547">
        <ele>1997</ele>
        <time>2021-08-13T07:47:03.160Z</time>
      </trkpt>
      <trkpt lat="46.84612" lon="8.44545">
        <ele>1997</ele>
        <time>2021-08-13T07:47:04.161Z</time>
      </trkpt>
      <trkpt lat="46.84611" lon="8.44544">
        <ele>1997</ele>
        <time>2021-08-13T07:47:05.160Z</time>
      </trkpt>
      <trkpt lat="46.84611" lon="8.44543">
        <ele>1997</ele>
        <time>2021-08-13T07:47:06.161Z</time>
      </trkpt>
      <trkpt lat="46.8461" lon="8.44542">
        <ele>1997</ele>
        <time>2021-08-13T07:47:07.161Z</time>
      </trkpt>
      <trkpt lat="46.8461" lon="8.4454">
        <ele>1997</ele>
        <time>2021-08-13T07:47:08.160Z</time>
      </trkpt>
      <trkpt lat="46.84609" lon="8.44538">
        <ele>1997</ele>
        <time>2021-08-13T07:47:09.160Z</time>
      </trkpt>
      <trkpt lat="46.84609" lon="8.44537">
        <ele>1997</ele>
        <time>2021-08-13T07:47:10.161Z</time>
      </trkpt>
      <trkpt lat="46.84609" lon="8.44535">
        <ele>1997</ele>
        <time>2021-08-13T07:47:11.160Z</time>
      </trkpt>
      <trkpt lat="46.84609" lon="8.44533">
        <ele>1997</ele>
        <time>2021-08-13T07:47:12.161Z</time>
      </trkpt>
      <trkpt lat="46.84608" lon="8.44532">
        <ele>1997</ele>
        <time>2021-08-13T07:47:13.161Z</time>
      </trkpt>
      <trkpt lat="46.84609" lon="8.4453">
        <ele>1997</ele>
        <time>2021-08-13T07:47:14.160Z</time>
      </trkpt>
      <trkpt lat="46.84609" lon="8.44528">
        <ele>1997</ele>
        <time>2021-08-13T07:47:15.161Z</time>
      </trkpt>
      <trkpt lat="46.84609" lon="8.44526">
        <ele>1997</ele>
        <time>2021-08-13T07:47:16.161Z</time>
      </trkpt>
      <trkpt lat="46.84609" lon="8.44524">
        <ele>1997</ele>
        <time>2021-08-13T07:47:17.161Z</time>
      </trkpt>
      <trkpt lat="46.84609" lon="8.44522">
        <ele>1997</ele>
        <time>2021-08-13T07:47:18.160Z</time>
      </trkpt>
      <trkpt lat="46.8461" lon="8.4452">
        <ele>1997</ele>
        <time>2021-08-13T07:47:19.160Z</time>
      </trkpt>
      <trkpt lat="46.8461" lon="8.44518">
        <ele>1997</ele>
        <time>2021-08-13T07:47:20.161Z</time>
      </trkpt>
      <trkpt lat="46.8461" lon="8.44516">
        <ele>1996</ele>
        <time>2021-08-13T07:47:21.161Z</time>
      </trkpt>
      <trkpt lat="46.8461" lon="8.44514">
        <ele>1996</ele>
        <time>2021-08-13T07:47:22.161Z</time>
      </trkpt>
      <trkpt lat="46.8461" lon="8.44513">
        <ele>1995</ele>
        <time>2021-08-13T07:47:23.161Z</time>
      </trkpt>
      <trkpt lat="46.84611" lon="8.44511">
        <ele>1995</ele>
        <time>2021-08-13T07:47:24.161Z</time>
      </trkpt>
      <trkpt lat="46.84611" lon="8.44509">
        <ele>1994</ele>
        <time>2021-08-13T07:47:25.161Z</time>
      </trkpt>
      <trkpt lat="46.84611" lon="8.44508">
        <ele>1994</ele>
        <time>2021-08-13T07:47:26.160Z</time>
      </trkpt>
      <trkpt lat="46.84612" lon="8.44506">
        <ele>1994</ele>
        <time>2021-08-13T07:47:27.161Z</time>
      </trkpt>
      <trkpt lat="46.84612" lon="8.44504">
        <ele>1994</ele>
        <time>2021-08-13T07:47:28.161Z</time>
      </trkpt>
      <trkpt lat="46.84612" lon="8.44503">
        <ele>1993</ele>
        <time>2021-08-13T07:47:29.161Z</time>
      </trkpt>
      <trkpt lat="46.84612" lon="8.44502">
        <ele>1993</ele>
        <time>2021-08-13T07:47:30.160Z</time>
      </trkpt>
      <trkpt lat="46.84613" lon="8.44501">
        <ele>1993</ele>
        <time>2021-08-13T07:47:31.160Z</time>
      </trkpt>
      <trkpt lat="46.84613" lon="8.445">
        <ele>1993</ele>
        <time>2021-08-13T07:47:32.161Z</time>
      </trkpt>
      <trkpt lat="46.84614" lon="8.44499">
        <ele>1992</ele>
        <time>2021-08-13T07:47:33.161Z</time>
      </trkpt>
      <trkpt lat="46.84614" lon="8.44498">
        <ele>1992</ele>
        <time>2021-08-13T07:47:34.161Z</time>
      </trkpt>
      <trkpt lat="46.84616" lon="8.44497">
        <ele>1990</ele>
        <time>2021-08-13T07:47:35.160Z</time>
      </trkpt>
      <trkpt lat="46.84616" lon="8.44496">
        <ele>1989</ele>
        <time>2021-08-13T07:47:36.161Z</time>
      </trkpt>
      <trkpt lat="46.84616" lon="8.44495">
        <ele>1988</ele>
        <time>2021-08-13T07:47:37.161Z</time>
      </trkpt>
      <trkpt lat="46.84616" lon="8.44494">
        <ele>1988</ele>
        <time>2021-08-13T07:47:38.160Z</time>
      </trkpt>
      <trkpt lat="46.84616" lon="8.44493">
        <ele>1988</ele>
        <time>2021-08-13T07:47:39.161Z</time>
      </trkpt>
      <trkpt lat="46.84616" lon="8.44493">
        <ele>1987</ele>
        <time>2021-08-13T07:47:40.161Z</time>
      </trkpt>
      <trkpt lat="46.84617" lon="8.44496">
        <ele>1992</ele>
        <time>2021-08-13T07:47:41.163Z</time>
      </trkpt>
      <trkpt lat="46.84617" lon="8.44496">
        <ele>1992</ele>
        <time>2021-08-13T07:47:42.163Z</time>
      </trkpt>
      <trkpt lat="46.84618" lon="8.44496">
        <ele>1991</ele>
        <time>2021-08-13T07:47:43.162Z</time>
      </trkpt>
      <trkpt lat="46.84618" lon="8.44496">
        <ele>1991</ele>
        <time>2021-08-13T07:47:44.163Z</time>
      </trkpt>
      <trkpt lat="46.84619" lon="8.44497">
        <ele>1991</ele>
        <time>2021-08-13T07:47:45.163Z</time>
      </trkpt>
      <trkpt lat="46.84619" lon="8.44497">
        <ele>1990</ele>
        <time>2021-08-13T07:47:46.162Z</time>
      </trkpt>
      <trkpt lat="46.8462" lon="8.44497">
        <ele>1989</ele>
        <time>2021-08-13T07:47:47.162Z</time>
      </trkpt>
      <trkpt lat="46.8462" lon="8.44496">
        <ele>1989</ele>
        <time>2021-08-13T07:47:48.163Z</time>
      </trkpt>
      <trkpt lat="46.84621" lon="8.44496">
        <ele>1989</ele>
        <time>2021-08-13T07:47:49.163Z</time>
      </trkpt>
      <trkpt lat="46.84621" lon="8.44495">
        <ele>1989</ele>
        <time>2021-08-13T07:47:50.163Z</time>
      </trkpt>
      <trkpt lat="46.84622" lon="8.44494">
        <ele>1989</ele>
        <time>2021-08-13T07:47:51.163Z</time>
      </trkpt>
      <trkpt lat="46.84623" lon="8.44494">
        <ele>1989</ele>
        <time>2021-08-13T07:47:52.163Z</time>
      </trkpt>
      <trkpt lat="46.84624" lon="8.44494">
        <ele>1989</ele>
        <time>2021-08-13T07:47:53.163Z</time>
      </trkpt>
      <trkpt lat="46.84625" lon="8.44493">
        <ele>1990</ele>
        <time>2021-08-13T07:47:54.162Z</time>
      </trkpt>
      <trkpt lat="46.84626" lon="8.44494">
        <ele>1990</ele>
        <time>2021-08-13T07:47:55.163Z</time>
      </trkpt>
      <trkpt lat="46.84626" lon="8.44494">
        <ele>1990</ele>
        <time>2021-08-13T07:47:56.163Z</time>
      </trkpt>
      <trkpt lat="46.84626" lon="8.44493">
        <ele>1990</ele>
        <time>2021-08-13T07:47:57.163Z</time>
      </trkpt>
      <trkpt lat="46.84626" lon="8.44492">
        <ele>1990</ele>
        <time>2021-08-13T07:47:58.162Z</time>
      </trkpt>
      <trkpt lat="46.84626" lon="8.4449">
        <ele>1990</ele>
        <time>2021-08-13T07:47:59.163Z</time>
      </trkpt>
      <trkpt lat="46.84626" lon="8.44489">
        <ele>1990</ele>
        <time>2021-08-13T07:48:00.163Z</time>
      </trkpt>
      <trkpt lat="46.84625" lon="8.44488">
        <ele>1989</ele>
        <time>2021-08-13T07:48:01.163Z</time>
      </trkpt>
      <trkpt lat="46.84625" lon="8.44487">
        <ele>1989</ele>
        <time>2021-08-13T07:48:02.162Z</time>
      </trkpt>
      <trkpt lat="46.84624" lon="8.44486">
        <ele>1988</ele>
        <time>2021-08-13T07:48:03.163Z</time>
      </trkpt>
      <trkpt lat="46.84624" lon="8.44485">
        <ele>1988</ele>
        <time>2021-08-13T07:48:04.163Z</time>
      </trkpt>
      <trkpt lat="46.84623" lon="8.44484">
        <ele>1988</ele>
        <time>2021-08-13T07:48:05.163Z</time>
      </trkpt>
      <trkpt lat="46.84622" lon="8.44483">
        <ele>1988</ele>
        <time>2021-08-13T07:48:06.163Z</time>
      </trkpt>
      <trkpt lat="46.84622" lon="8.44482">
        <ele>1988</ele>
        <time>2021-08-13T07:48:07.162Z</time>
      </trkpt>
      <trkpt lat="46.84621" lon="8.44481">
        <ele>1988</ele>
        <time>2021-08-13T07:48:08.162Z</time>
      </trkpt>
      <trkpt lat="46.8462" lon="8.4448">
        <ele>1988</ele>
        <time>2021-08-13T07:48:09.162Z</time>
      </trkpt>
      <trkpt lat="46.84619" lon="8.44478">
        <ele>1988</ele>
        <time>2021-08-13T07:48:10.163Z</time>
      </trkpt>
      <trkpt lat="46.84619" lon="8.44476">
        <ele>1988</ele>
        <time>2021-08-13T07:48:11.163Z</time>
      </trkpt>
      <trkpt lat="46.84618" lon="8.44475">
        <ele>1987</ele>
        <time>2021-08-13T07:48:12.163Z</time>
      </trkpt>
      <trkpt lat="46.84618" lon="8.44473">
        <ele>1987</ele>
        <time>2021-08-13T07:48:13.162Z</time>
      </trkpt>
      <trkpt lat="46.84617" lon="8.44471">
        <ele>1987</ele>
        <time>2021-08-13T07:48:14.163Z</time>
      </trkpt>
      <trkpt lat="46.84617" lon="8.44469">
        <ele>1986</ele>
        <time>2021-08-13T07:48:15.163Z</time>
      </trkpt>
      <trkpt lat="46.84617" lon="8.44467">
        <ele>1986</ele>
        <time>2021-08-13T07:48:16.163Z</time>
      </trkpt>
      <trkpt lat="46.84617" lon="8.44466">
        <ele>1985</ele>
        <time>2021-08-13T07:48:17.163Z</time>
      </trkpt>
      <trkpt lat="46.84617" lon="8.44464">
        <ele>1985</ele>
        <time>2021-08-13T07:48:18.163Z</time>
      </trkpt>
      <trkpt lat="46.84617" lon="8.44462">
        <ele>1985</ele>
        <time>2021-08-13T07:48:19.163Z</time>
      </trkpt>
      <trkpt lat="46.84618" lon="8.44461">
        <ele>1985</ele>
        <time>2021-08-13T07:48:20.163Z</time>
      </trkpt>
      <trkpt lat="46.84618" lon="8.44459">
        <ele>1985</ele>
        <time>2021-08-13T07:48:21.163Z</time>
      </trkpt>
      <trkpt lat="46.84618" lon="8.44458">
        <ele>1985</ele>
        <time>2021-08-13T07:48:22.162Z</time>
      </trkpt>
      <trkpt lat="46.84618" lon="8.44456">
        <ele>1985</ele>
        <time>2021-08-13T07:48:23.162Z</time>
      </trkpt>
      <trkpt lat="46.84618" lon="8.44455">
        <ele>1984</ele>
        <time>2021-08-13T07:48:24.162Z</time>
      </trkpt>
      <trkpt lat="46.84617" lon="8.44453">
        <ele>1984</ele>
        <time>2021-08-13T07:48:25.163Z</time>
      </trkpt>
      <trkpt lat="46.84617" lon="8.44452">
        <ele>1984</ele>
        <time>2021-08-13T07:48:26.163Z</time>
      </trkpt>
      <trkpt lat="46.84617" lon="8.4445">
        <ele>1984</ele>
        <time>2021-08-13T07:48:27.163Z</time>
      </trkpt>
      <trkpt lat="46.84617" lon="8.44448">
        <ele>1985</ele>
        <time>2021-08-13T07:48:28.163Z</time>
      </trkpt>
      <trkpt lat="46.84617" lon="8.44446">
        <ele>1985</ele>
        <time>2021-08-13T07:48:29.162Z</time>
      </trkpt>
      <trkpt lat="46.84618" lon="8.44444">
        <ele>1985</ele>
        <time>2021-08-13T07:48:30.163Z</time>
      </trkpt>
      <trkpt lat="46.84618" lon="8.44442">
        <ele>1985</ele>
        <time>2021-08-13T07:48:31.163Z</time>
      </trkpt>
      <trkpt lat="46.84619" lon="8.44441">
        <ele>1984</ele>
        <time>2021-08-13T07:48:32.163Z</time>
      </trkpt>
      <trkpt lat="46.84619" lon="8.44439">
        <ele>1984</ele>
        <time>2021-08-13T07:48:33.163Z</time>
      </trkpt>
      <trkpt lat="46.8462" lon="8.44438">
        <ele>1984</ele>
        <time>2021-08-13T07:48:34.163Z</time>
      </trkpt>
      <trkpt lat="46.8462" lon="8.44436">
        <ele>1984</ele>
        <time>2021-08-13T07:48:35.162Z</time>
      </trkpt>
      <trkpt lat="46.84621" lon="8.44434">
        <ele>1984</ele>
        <time>2021-08-13T07:48:36.162Z</time>
      </trkpt>
      <trkpt lat="46.84622" lon="8.44432">
        <ele>1984</ele>
        <time>2021-08-13T07:48:37.163Z</time>
      </trkpt>
      <trkpt lat="46.84622" lon="8.4443">
        <ele>1984</ele>
        <time>2021-08-13T07:48:38.163Z</time>
      </trkpt>
      <trkpt lat="46.84622" lon="8.44429">
        <ele>1983</ele>
        <time>2021-08-13T07:48:39.163Z</time>
      </trkpt>
      <trkpt lat="46.84623" lon="8.44427">
        <ele>1983</ele>
        <time>2021-08-13T07:48:40.163Z</time>
      </trkpt>
      <trkpt lat="46.84623" lon="8.44425">
        <ele>1983</ele>
        <time>2021-08-13T07:48:41.162Z</time>
      </trkpt>
      <trkpt lat="46.84623" lon="8.44424">
        <ele>1984</ele>
        <time>2021-08-13T07:48:42.163Z</time>
      </trkpt>
      <trkpt lat="46.84623" lon="8.44422">
        <ele>1984</ele>
        <time>2021-08-13T07:48:43.163Z</time>
      </trkpt>
      <trkpt lat="46.84623" lon="8.4442">
        <ele>1984</ele>
        <time>2021-08-13T07:48:44.163Z</time>
      </trkpt>
      <trkpt lat="46.84624" lon="8.44419">
        <ele>1984</ele>
        <time>2021-08-13T07:48:45.163Z</time>
      </trkpt>
      <trkpt lat="46.84624" lon="8.44417">
        <ele>1984</ele>
        <time>2021-08-13T07:48:46.162Z</time>
      </trkpt>
      <trkpt lat="46.84625" lon="8.44415">
        <ele>1984</ele>
        <time>2021-08-13T07:48:47.163Z</time>
      </trkpt>
      <trkpt lat="46.84625" lon="8.44414">
        <ele>1984</ele>
        <time>2021-08-13T07:48:48.163Z</time>
      </trkpt>
      <trkpt lat="46.84625" lon="8.44412">
        <ele>1983</ele>
        <time>2021-08-13T07:48:49.163Z</time>
      </trkpt>
      <trkpt lat="46.84625" lon="8.44411">
        <ele>1983</ele>
        <time>2021-08-13T07:48:50.162Z</time>
      </trkpt>
      <trkpt lat="46.84625" lon="8.44409">
        <ele>1983</ele>
        <time>2021-08-13T07:48:51.163Z</time>
      </trkpt>
      <trkpt lat="46.84625" lon="8.44407">
        <ele>1982</ele>
        <time>2021-08-13T07:48:52.163Z</time>
      </trkpt>
      <trkpt lat="46.84625" lon="8.44404">
        <ele>1983</ele>
        <time>2021-08-13T07:48:53.163Z</time>
      </trkpt>
      <trkpt lat="46.84624" lon="8.44403">
        <ele>1983</ele>
        <time>2021-08-13T07:48:54.163Z</time>
      </trkpt>
      <trkpt lat="46.84624" lon="8.44401">
        <ele>1983</ele>
        <time>2021-08-13T07:48:55.162Z</time>
      </trkpt>
      <trkpt lat="46.84623" lon="8.44399">
        <ele>1983</ele>
        <time>2021-08-13T07:48:56.163Z</time>
      </trkpt>
      <trkpt lat="46.84622" lon="8.44397">
        <ele>1984</ele>
        <time>2021-08-13T07:48:57.162Z</time>
      </trkpt>
      <trkpt lat="46.84622" lon="8.44395">
        <ele>1984</ele>
        <time>2021-08-13T07:48:58.163Z</time>
      </trkpt>
      <trkpt lat="46.84622" lon="8.44394">
        <ele>1985</ele>
        <time>2021-08-13T07:48:59.162Z</time>
      </trkpt>
      <trkpt lat="46.84621" lon="8.44392">
        <ele>1985</ele>
        <time>2021-08-13T07:49:00.162Z</time>
      </trkpt>
      <trkpt lat="46.84622" lon="8.44391">
        <ele>1986</ele>
        <time>2021-08-13T07:49:01.162Z</time>
      </trkpt>
      <trkpt lat="46.84621" lon="8.44389">
        <ele>1986</ele>
        <time>2021-08-13T07:49:02.163Z</time>
      </trkpt>
      <trkpt lat="46.84621" lon="8.44388">
        <ele>1986</ele>
        <time>2021-08-13T07:49:03.163Z</time>
      </trkpt>
      <trkpt lat="46.84621" lon="8.44386">
        <ele>1986</ele>
        <time>2021-08-13T07:49:04.163Z</time>
      </trkpt>
      <trkpt lat="46.8462" lon="8.44385">
        <ele>1986</ele>
        <time>2021-08-13T07:49:05.163Z</time>
      </trkpt>
      <trkpt lat="46.8462" lon="8.44383">
        <ele>1986</ele>
        <time>2021-08-13T07:49:06.162Z</time>
      </trkpt>
      <trkpt lat="46.84619" lon="8.44381">
        <ele>1985</ele>
        <time>2021-08-13T07:49:07.163Z</time>
      </trkpt>
      <trkpt lat="46.84619" lon="8.4438">
        <ele>1985</ele>
        <time>2021-08-13T07:49:08.163Z</time>
      </trkpt>
      <trkpt lat="46.84619" lon="8.44379">
        <ele>1985</ele>
        <time>2021-08-13T07:49:09.163Z</time>
      </trkpt>
      <trkpt lat="46.84619" lon="8.44377">
        <ele>1985</ele>
        <time>2021-08-13T07:49:10.163Z</time>
      </trkpt>
      <trkpt lat="46.84619" lon="8.44377">
        <ele>1984</ele>
        <time>2021-08-13T07:49:11.163Z</time>
      </trkpt>
      <trkpt lat="46.84619" lon="8.44375">
        <ele>1984</ele>
        <time>2021-08-13T07:49:12.162Z</time>
      </trkpt>
      <trkpt lat="46.84619" lon="8.44374">
        <ele>1984</ele>
        <time>2021-08-13T07:49:13.163Z</time>
      </trkpt>
      <trkpt lat="46.84619" lon="8.44372">
        <ele>1984</ele>
        <time>2021-08-13T07:49:14.163Z</time>
      </trkpt>
      <trkpt lat="46.84619" lon="8.4437">
        <ele>1984</ele>
        <time>2021-08-13T07:49:15.163Z</time>
      </trkpt>
      <trkpt lat="46.8462" lon="8.44368">
        <ele>1984</ele>
        <time>2021-08-13T07:49:16.163Z</time>
      </trkpt>
      <trkpt lat="46.8462" lon="8.44367">
        <ele>1984</ele>
        <time>2021-08-13T07:49:17.163Z</time>
      </trkpt>
      <trkpt lat="46.8462" lon="8.44366">
        <ele>1983</ele>
        <time>2021-08-13T07:49:18.163Z</time>
      </trkpt>
      <trkpt lat="46.84621" lon="8.44364">
        <ele>1983</ele>
        <time>2021-08-13T07:49:19.163Z</time>
      </trkpt>
      <trkpt lat="46.84621" lon="8.44363">
        <ele>1983</ele>
        <time>2021-08-13T07:49:20.163Z</time>
      </trkpt>
      <trkpt lat="46.84622" lon="8.44361">
        <ele>1984</ele>
        <time>2021-08-13T07:49:21.163Z</time>
      </trkpt>
      <trkpt lat="46.84622" lon="8.4436">
        <ele>1984</ele>
        <time>2021-08-13T07:49:22.163Z</time>
      </trkpt>
      <trkpt lat="46.84623" lon="8.44358">
        <ele>1984</ele>
        <time>2021-08-13T07:49:23.163Z</time>
      </trkpt>
      <trkpt lat="46.84623" lon="8.44357">
        <ele>1985</ele>
        <time>2021-08-13T07:49:24.163Z</time>
      </trkpt>
      <trkpt lat="46.84624" lon="8.44356">
        <ele>1985</ele>
        <time>2021-08-13T07:49:25.162Z</time>
      </trkpt>
      <trkpt lat="46.84624" lon="8.44355">
        <ele>1985</ele>
        <time>2021-08-13T07:49:26.163Z</time>
      </trkpt>
      <trkpt lat="46.84625" lon="8.44353">
        <ele>1985</ele>
        <time>2021-08-13T07:49:27.163Z</time>
      </trkpt>
      <trkpt lat="46.84626" lon="8.44352">
        <ele>1986</ele>
        <time>2021-08-13T07:49:28.162Z</time>
      </trkpt>
      <trkpt lat="46.84626" lon="8.4435">
        <ele>1986</ele>
        <time>2021-08-13T07:49:29.163Z</time>
      </trkpt>
      <trkpt lat="46.84627" lon="8.44349">
        <ele>1986</ele>
        <time>2021-08-13T07:49:30.162Z</time>
      </trkpt>
      <trkpt lat="46.84627" lon="8.44347">
        <ele>1986</ele>
        <time>2021-08-13T07:49:31.162Z</time>
      </trkpt>
      <trkpt lat="46.84628" lon="8.44346">
        <ele>1986</ele>
        <time>2021-08-13T07:49:32.162Z</time>
      </trkpt>
      <trkpt lat="46.84628" lon="8.44344">
        <ele>1987</ele>
        <time>2021-08-13T07:49:33.162Z</time>
      </trkpt>
      <trkpt lat="46.84628" lon="8.44343">
        <ele>1987</ele>
        <time>2021-08-13T07:49:34.163Z</time>
      </trkpt>
      <trkpt lat="46.84629" lon="8.44342">
        <ele>1987</ele>
        <time>2021-08-13T07:49:35.162Z</time>
      </trkpt>
      <trkpt lat="46.84629" lon="8.44341">
        <ele>1987</ele>
        <time>2021-08-13T07:49:36.163Z</time>
      </trkpt>
      <trkpt lat="46.8463" lon="8.44339">
        <ele>1986</ele>
        <time>2021-08-13T07:49:37.163Z</time>
      </trkpt>
      <trkpt lat="46.8463" lon="8.44338">
        <ele>1986</ele>
        <time>2021-08-13T07:49:38.163Z</time>
      </trkpt>
      <trkpt lat="46.84631" lon="8.44336">
        <ele>1986</ele>
        <time>2021-08-13T07:49:39.163Z</time>
      </trkpt>
      <trkpt lat="46.84631" lon="8.44334">
        <ele>1986</ele>
        <time>2021-08-13T07:49:40.162Z</time>
      </trkpt>
      <trkpt lat="46.84631" lon="8.44333">
        <ele>1986</ele>
        <time>2021-08-13T07:49:41.163Z</time>
      </trkpt>
      <trkpt lat="46.84632" lon="8.44331">
        <ele>1986</ele>
        <time>2021-08-13T07:49:42.162Z</time>
      </trkpt>
      <trkpt lat="46.84633" lon="8.4433">
        <ele>1987</ele>
        <time>2021-08-13T07:49:43.162Z</time>
      </trkpt>
      <trkpt lat="46.84633" lon="8.44328">
        <ele>1987</ele>
        <time>2021-08-13T07:49:44.163Z</time>
      </trkpt>
      <trkpt lat="46.84634" lon="8.44326">
        <ele>1987</ele>
        <time>2021-08-13T07:49:45.162Z</time>
      </trkpt>
      <trkpt lat="46.84634" lon="8.44324">
        <ele>1987</ele>
        <time>2021-08-13T07:49:46.163Z</time>
      </trkpt>
      <trkpt lat="46.84635" lon="8.44322">
        <ele>1988</ele>
        <time>2021-08-13T07:49:47.163Z</time>
      </trkpt>
      <trkpt lat="46.84635" lon="8.44321">
        <ele>1988</ele>
        <time>2021-08-13T07:49:48.163Z</time>
      </trkpt>
      <trkpt lat="46.84635" lon="8.44319">
        <ele>1988</ele>
        <time>2021-08-13T07:49:49.163Z</time>
      </trkpt>
      <trkpt lat="46.84635" lon="8.44318">
        <ele>1988</ele>
        <time>2021-08-13T07:49:50.163Z</time>
      </trkpt>
      <trkpt lat="46.84636" lon="8.44316">
        <ele>1988</ele>
        <time>2021-08-13T07:49:51.163Z</time>
      </trkpt>
      <trkpt lat="46.84636" lon="8.44314">
        <ele>1989</ele>
        <time>2021-08-13T07:49:52.162Z</time>
      </trkpt>
      <trkpt lat="46.84636" lon="8.44313">
        <ele>1989</ele>
        <time>2021-08-13T07:49:53.163Z</time>
      </trkpt>
      <trkpt lat="46.84636" lon="8.44311">
        <ele>1990</ele>
        <time>2021-08-13T07:49:54.162Z</time>
      </trkpt>
      <trkpt lat="46.84636" lon="8.4431">
        <ele>1990</ele>
        <time>2021-08-13T07:49:55.163Z</time>
      </trkpt>
      <trkpt lat="46.84636" lon="8.44308">
        <ele>1991</ele>
        <time>2021-08-13T07:49:56.163Z</time>
      </trkpt>
      <trkpt lat="46.84636" lon="8.44306">
        <ele>1991</ele>
        <time>2021-08-13T07:49:57.162Z</time>
      </trkpt>
      <trkpt lat="46.84636" lon="8.44305">
        <ele>1991</ele>
        <time>2021-08-13T07:49:58.163Z</time>
      </trkpt>
      <trkpt lat="46.84636" lon="8.44303">
        <ele>1991</ele>
        <time>2021-08-13T07:49:59.162Z</time>
      </trkpt>
      <trkpt lat="46.84636" lon="8.44302">
        <ele>1990</ele>
        <time>2021-08-13T07:50:00.162Z</time>
      </trkpt>
      <trkpt lat="46.84637" lon="8.443">
        <ele>1990</ele>
        <time>2021-08-13T07:50:01.162Z</time>
      </trkpt>
      <trkpt lat="46.84637" lon="8.44298">
        <ele>1990</ele>
        <time>2021-08-13T07:50:02.162Z</time>
      </trkpt>
      <trkpt lat="46.84638" lon="8.44297">
        <ele>1989</ele>
        <time>2021-08-13T07:50:03.162Z</time>
      </trkpt>
      <trkpt lat="46.84638" lon="8.44295">
        <ele>1989</ele>
        <time>2021-08-13T07:50:04.162Z</time>
      </trkpt>
      <trkpt lat="46.84639" lon="8.44293">
        <ele>1989</ele>
        <time>2021-08-13T07:50:05.162Z</time>
      </trkpt>
      <trkpt lat="46.84639" lon="8.44291">
        <ele>1989</ele>
        <time>2021-08-13T07:50:06.162Z</time>
      </trkpt>
      <trkpt lat="46.8464" lon="8.44289">
        <ele>1989</ele>
        <time>2021-08-13T07:50:07.163Z</time>
      </trkpt>
      <trkpt lat="46.8464" lon="8.44287">
        <ele>1989</ele>
        <time>2021-08-13T07:50:08.162Z</time>
      </trkpt>
      <trkpt lat="46.84641" lon="8.44285">
        <ele>1989</ele>
        <time>2021-08-13T07:50:09.162Z</time>
      </trkpt>
      <trkpt lat="46.84641" lon="8.44284">
        <ele>1989</ele>
        <time>2021-08-13T07:50:10.163Z</time>
      </trkpt>
      <trkpt lat="46.84642" lon="8.44282">
        <ele>1989</ele>
        <time>2021-08-13T07:50:11.162Z</time>
      </trkpt>
      <trkpt lat="46.84642" lon="8.44281">
        <ele>1989</ele>
        <time>2021-08-13T07:50:12.162Z</time>
      </trkpt>
      <trkpt lat="46.84643" lon="8.4428">
        <ele>1989</ele>
        <time>2021-08-13T07:50:13.163Z</time>
      </trkpt>
      <trkpt lat="46.84643" lon="8.44278">
        <ele>1989</ele>
        <time>2021-08-13T07:50:14.162Z</time>
      </trkpt>
      <trkpt lat="46.84644" lon="8.44277">
        <ele>1988</ele>
        <time>2021-08-13T07:50:15.162Z</time>
      </trkpt>
      <trkpt lat="46.84644" lon="8.44275">
        <ele>1988</ele>
        <time>2021-08-13T07:50:16.162Z</time>
      </trkpt>
      <trkpt lat="46.84645" lon="8.44273">
        <ele>1987</ele>
        <time>2021-08-13T07:50:17.162Z</time>
      </trkpt>
      <trkpt lat="46.84644" lon="8.44271">
        <ele>1987</ele>
        <time>2021-08-13T07:50:18.162Z</time>
      </trkpt>
      <trkpt lat="46.84644" lon="8.44269">
        <ele>1986</ele>
        <time>2021-08-13T07:50:19.162Z</time>
      </trkpt>
      <trkpt lat="46.84644" lon="8.44268">
        <ele>1986</ele>
        <time>2021-08-13T07:50:20.162Z</time>
      </trkpt>
      <trkpt lat="46.84644" lon="8.44267">
        <ele>1986</ele>
        <time>2021-08-13T07:50:21.163Z</time>
      </trkpt>
      <trkpt lat="46.84644" lon="8.44265">
        <ele>1985</ele>
        <time>2021-08-13T07:50:22.162Z</time>
      </trkpt>
      <trkpt lat="46.84645" lon="8.44264">
        <ele>1985</ele>
        <time>2021-08-13T07:50:23.162Z</time>
      </trkpt>
      <trkpt lat="46.84645" lon="8.44262">
        <ele>1985</ele>
        <time>2021-08-13T07:50:24.163Z</time>
      </trkpt>
      <trkpt lat="46.84645" lon="8.4426">
        <ele>1985</ele>
        <time>2021-08-13T07:50:25.162Z</time>
      </trkpt>
      <trkpt lat="46.84645" lon="8.44258">
        <ele>1985</ele>
        <time>2021-08-13T07:50:26.162Z</time>
      </trkpt>
      <trkpt lat="46.84646" lon="8.44256">
        <ele>1985</ele>
        <time>2021-08-13T07:50:27.163Z</time>
      </trkpt>
      <trkpt lat="46.84646" lon="8.44255">
        <ele>1985</ele>
        <time>2021-08-13T07:50:28.163Z</time>
      </trkpt>
      <trkpt lat="46.84646" lon="8.44254">
        <ele>1985</ele>
        <time>2021-08-13T07:50:29.163Z</time>
      </trkpt>
      <trkpt lat="46.84646" lon="8.44252">
        <ele>1985</ele>
        <time>2021-08-13T07:50:30.163Z</time>
      </trkpt>
      <trkpt lat="46.84646" lon="8.44251">
        <ele>1985</ele>
        <time>2021-08-13T07:50:31.163Z</time>
      </trkpt>
      <trkpt lat="46.84647" lon="8.44249">
        <ele>1984</ele>
        <time>2021-08-13T07:50:32.162Z</time>
      </trkpt>
      <trkpt lat="46.84647" lon="8.44248">
        <ele>1984</ele>
        <time>2021-08-13T07:50:33.162Z</time>
      </trkpt>
      <trkpt lat="46.84647" lon="8.44246">
        <ele>1984</ele>
        <time>2021-08-13T07:50:34.163Z</time>
      </trkpt>
      <trkpt lat="46.84647" lon="8.44244">
        <ele>1983</ele>
        <time>2021-08-13T07:50:35.162Z</time>
      </trkpt>
      <trkpt lat="46.84647" lon="8.44241">
        <ele>1983</ele>
        <time>2021-08-13T07:50:36.163Z</time>
      </trkpt>
      <trkpt lat="46.84648" lon="8.4424">
        <ele>1984</ele>
        <time>2021-08-13T07:50:37.163Z</time>
      </trkpt>
      <trkpt lat="46.84647" lon="8.44238">
        <ele>1984</ele>
        <time>2021-08-13T07:50:38.162Z</time>
      </trkpt>
      <trkpt lat="46.84647" lon="8.44236">
        <ele>1984</ele>
        <time>2021-08-13T07:50:39.163Z</time>
      </trkpt>
      <trkpt lat="46.84647" lon="8.44235">
        <ele>1984</ele>
        <time>2021-08-13T07:50:40.163Z</time>
      </trkpt>
      <trkpt lat="46.84647" lon="8.44234">
        <ele>1985</ele>
        <time>2021-08-13T07:50:41.162Z</time>
      </trkpt>
      <trkpt lat="46.84647" lon="8.44232">
        <ele>1985</ele>
        <time>2021-08-13T07:50:42.162Z</time>
      </trkpt>
      <trkpt lat="46.84647" lon="8.4423">
        <ele>1985</ele>
        <time>2021-08-13T07:50:43.163Z</time>
      </trkpt>
      <trkpt lat="46.84647" lon="8.44229">
        <ele>1984</ele>
        <time>2021-08-13T07:50:44.162Z</time>
      </trkpt>
      <trkpt lat="46.84647" lon="8.44227">
        <ele>1984</ele>
        <time>2021-08-13T07:50:45.163Z</time>
      </trkpt>
      <trkpt lat="46.84647" lon="8.44226">
        <ele>1984</ele>
        <time>2021-08-13T07:50:46.162Z</time>
      </trkpt>
      <trkpt lat="46.84647" lon="8.44224">
        <ele>1984</ele>
        <time>2021-08-13T07:50:47.163Z</time>
      </trkpt>
      <trkpt lat="46.84647" lon="8.44223">
        <ele>1984</ele>
        <time>2021-08-13T07:50:48.163Z</time>
      </trkpt>
      <trkpt lat="46.84647" lon="8.44221">
        <ele>1984</ele>
        <time>2021-08-13T07:50:49.163Z</time>
      </trkpt>
      <trkpt lat="46.84647" lon="8.4422">
        <ele>1984</ele>
        <time>2021-08-13T07:50:50.163Z</time>
      </trkpt>
      <trkpt lat="46.84647" lon="8.44218">
        <ele>1984</ele>
        <time>2021-08-13T07:50:51.163Z</time>
      </trkpt>
      <trkpt lat="46.84647" lon="8.44217">
        <ele>1984</ele>
        <time>2021-08-13T07:50:52.163Z</time>
      </trkpt>
      <trkpt lat="46.84647" lon="8.44215">
        <ele>1983</ele>
        <time>2021-08-13T07:50:53.162Z</time>
      </trkpt>
      <trkpt lat="46.84647" lon="8.44213">
        <ele>1982</ele>
        <time>2021-08-13T07:50:54.163Z</time>
      </trkpt>
      <trkpt lat="46.84647" lon="8.44211">
        <ele>1982</ele>
        <time>2021-08-13T07:50:55.162Z</time>
      </trkpt>
      <trkpt lat="46.84647" lon="8.44209">
        <ele>1981</ele>
        <time>2021-08-13T07:50:56.163Z</time>
      </trkpt>
      <trkpt lat="46.84647" lon="8.44208">
        <ele>1981</ele>
        <time>2021-08-13T07:50:57.163Z</time>
      </trkpt>
      <trkpt lat="46.84647" lon="8.44206">
        <ele>1981</ele>
        <time>2021-08-13T07:50:58.163Z</time>
      </trkpt>
      <trkpt lat="46.84647" lon="8.44205">
        <ele>1981</ele>
        <time>2021-08-13T07:50:59.162Z</time>
      </trkpt>
      <trkpt lat="46.84647" lon="8.44204">
        <ele>1981</ele>
        <time>2021-08-13T07:51:00.163Z</time>
      </trkpt>
      <trkpt lat="46.84647" lon="8.44203">
        <ele>1981</ele>
        <time>2021-08-13T07:51:01.162Z</time>
      </trkpt>
      <trkpt lat="46.84647" lon="8.44201">
        <ele>1980</ele>
        <time>2021-08-13T07:51:02.163Z</time>
      </trkpt>
      <trkpt lat="46.84646" lon="8.442">
        <ele>1980</ele>
        <time>2021-08-13T07:51:03.163Z</time>
      </trkpt>
      <trkpt lat="46.84646" lon="8.44199">
        <ele>1980</ele>
        <time>2021-08-13T07:51:04.163Z</time>
      </trkpt>
      <trkpt lat="46.84645" lon="8.44198">
        <ele>1980</ele>
        <time>2021-08-13T07:51:05.162Z</time>
      </trkpt>
      <trkpt lat="46.84645" lon="8.44197">
        <ele>1980</ele>
        <time>2021-08-13T07:51:06.163Z</time>
      </trkpt>
      <trkpt lat="46.84645" lon="8.44196">
        <ele>1979</ele>
        <time>2021-08-13T07:51:07.163Z</time>
      </trkpt>
      <trkpt lat="46.84645" lon="8.44195">
        <ele>1979</ele>
        <time>2021-08-13T07:51:08.163Z</time>
      </trkpt>
      <trkpt lat="46.84645" lon="8.44194">
        <ele>1979</ele>
        <time>2021-08-13T07:51:09.163Z</time>
      </trkpt>
      <trkpt lat="46.84645" lon="8.44192">
        <ele>1979</ele>
        <time>2021-08-13T07:51:10.163Z</time>
      </trkpt>
      <trkpt lat="46.84644" lon="8.4419">
        <ele>1979</ele>
        <time>2021-08-13T07:51:11.163Z</time>
      </trkpt>
      <trkpt lat="46.84644" lon="8.44189">
        <ele>1979</ele>
        <time>2021-08-13T07:51:12.163Z</time>
      </trkpt>
      <trkpt lat="46.84644" lon="8.44187">
        <ele>1979</ele>
        <time>2021-08-13T07:51:13.162Z</time>
      </trkpt>
      <trkpt lat="46.84644" lon="8.44186">
        <ele>1979</ele>
        <time>2021-08-13T07:51:14.163Z</time>
      </trkpt>
      <trkpt lat="46.84645" lon="8.44184">
        <ele>1979</ele>
        <time>2021-08-13T07:51:15.163Z</time>
      </trkpt>
      <trkpt lat="46.84645" lon="8.44183">
        <ele>1979</ele>
        <time>2021-08-13T07:51:16.162Z</time>
      </trkpt>
      <trkpt lat="46.84646" lon="8.44181">
        <ele>1979</ele>
        <time>2021-08-13T07:51:17.162Z</time>
      </trkpt>
      <trkpt lat="46.84646" lon="8.4418">
        <ele>1980</ele>
        <time>2021-08-13T07:51:18.163Z</time>
      </trkpt>
      <trkpt lat="46.84646" lon="8.44178">
        <ele>1980</ele>
        <time>2021-08-13T07:51:19.163Z</time>
      </trkpt>
      <trkpt lat="46.84646" lon="8.44177">
        <ele>1980</ele>
        <time>2021-08-13T07:51:20.162Z</time>
      </trkpt>
      <trkpt lat="46.84646" lon="8.44176">
        <ele>1981</ele>
        <time>2021-08-13T07:51:21.163Z</time>
      </trkpt>
      <trkpt lat="46.84647" lon="8.44175">
        <ele>1981</ele>
        <time>2021-08-13T07:51:22.163Z</time>
      </trkpt>
      <trkpt lat="46.84647" lon="8.44174">
        <ele>1981</ele>
        <time>2021-08-13T07:51:23.163Z</time>
      </trkpt>
      <trkpt lat="46.84647" lon="8.44174">
        <ele>1981</ele>
        <time>2021-08-13T07:51:24.162Z</time>
      </trkpt>
      <trkpt lat="46.84648" lon="8.44173">
        <ele>1980</ele>
        <time>2021-08-13T07:51:25.163Z</time>
      </trkpt>
      <trkpt lat="46.84649" lon="8.44173">
        <ele>1981</ele>
        <time>2021-08-13T07:51:26.163Z</time>
      </trkpt>
      <trkpt lat="46.8465" lon="8.44174">
        <ele>1982</ele>
        <time>2021-08-13T07:51:27.163Z</time>
      </trkpt>
      <trkpt lat="46.8465" lon="8.44173">
        <ele>1982</ele>
        <time>2021-08-13T07:51:28.163Z</time>
      </trkpt>
      <trkpt lat="46.84651" lon="8.44173">
        <ele>1982</ele>
        <time>2021-08-13T07:51:29.163Z</time>
      </trkpt>
      <trkpt lat="46.84652" lon="8.44172">
        <ele>1982</ele>
        <time>2021-08-13T07:51:30.163Z</time>
      </trkpt>
      <trkpt lat="46.84652" lon="8.44171">
        <ele>1982</ele>
        <time>2021-08-13T07:51:31.164Z</time>
      </trkpt>
      <trkpt lat="46.84653" lon="8.4417">
        <ele>1982</ele>
        <time>2021-08-13T07:51:32.163Z</time>
      </trkpt>
      <trkpt lat="46.84655" lon="8.44169">
        <ele>1982</ele>
        <time>2021-08-13T07:51:33.163Z</time>
      </trkpt>
      <trkpt lat="46.84655" lon="8.44168">
        <ele>1982</ele>
        <time>2021-08-13T07:51:34.164Z</time>
      </trkpt>
      <trkpt lat="46.84656" lon="8.44168">
        <ele>1982</ele>
        <time>2021-08-13T07:51:35.164Z</time>
      </trkpt>
      <trkpt lat="46.84657" lon="8.44167">
        <ele>1982</ele>
        <time>2021-08-13T07:51:36.164Z</time>
      </trkpt>
      <trkpt lat="46.84658" lon="8.44166">
        <ele>1982</ele>
        <time>2021-08-13T07:51:37.164Z</time>
      </trkpt>
      <trkpt lat="46.84659" lon="8.44166">
        <ele>1981</ele>
        <time>2021-08-13T07:51:38.164Z</time>
      </trkpt>
      <trkpt lat="46.8466" lon="8.44166">
        <ele>1981</ele>
        <time>2021-08-13T07:51:39.164Z</time>
      </trkpt>
      <trkpt lat="46.84661" lon="8.44166">
        <ele>1981</ele>
        <time>2021-08-13T07:51:40.164Z</time>
      </trkpt>
      <trkpt lat="46.84662" lon="8.44166">
        <ele>1980</ele>
        <time>2021-08-13T07:51:41.164Z</time>
      </trkpt>
      <trkpt lat="46.84663" lon="8.44166">
        <ele>1980</ele>
        <time>2021-08-13T07:51:42.164Z</time>
      </trkpt>
      <trkpt lat="46.84664" lon="8.44166">
        <ele>1979</ele>
        <time>2021-08-13T07:51:43.163Z</time>
      </trkpt>
      <trkpt lat="46.84665" lon="8.44165">
        <ele>1979</ele>
        <time>2021-08-13T07:51:44.163Z</time>
      </trkpt>
      <trkpt lat="46.84667" lon="8.44165">
        <ele>1979</ele>
        <time>2021-08-13T07:51:45.164Z</time>
      </trkpt>
      <trkpt lat="46.84668" lon="8.44165">
        <ele>1979</ele>
        <time>2021-08-13T07:51:46.163Z</time>
      </trkpt>
      <trkpt lat="46.84669" lon="8.44165">
        <ele>1979</ele>
        <time>2021-08-13T07:51:47.164Z</time>
      </trkpt>
      <trkpt lat="46.8467" lon="8.44165">
        <ele>1979</ele>
        <time>2021-08-13T07:51:48.164Z</time>
      </trkpt>
      <trkpt lat="46.8467" lon="8.44166">
        <ele>1980</ele>
        <time>2021-08-13T07:51:49.164Z</time>
      </trkpt>
      <trkpt lat="46.84671" lon="8.44166">
        <ele>1980</ele>
        <time>2021-08-13T07:51:50.163Z</time>
      </trkpt>
      <trkpt lat="46.84671" lon="8.44167">
        <ele>1981</ele>
        <time>2021-08-13T07:51:51.163Z</time>
      </trkpt>
      <trkpt lat="46.84672" lon="8.44168">
        <ele>1981</ele>
        <time>2021-08-13T07:51:52.164Z</time>
      </trkpt>
      <trkpt lat="46.84673" lon="8.44168">
        <ele>1981</ele>
        <time>2021-08-13T07:51:53.164Z</time>
      </trkpt>
      <trkpt lat="46.84674" lon="8.44169">
        <ele>1981</ele>
        <time>2021-08-13T07:51:54.164Z</time>
      </trkpt>
      <trkpt lat="46.84674" lon="8.44169">
        <ele>1982</ele>
        <time>2021-08-13T07:51:55.164Z</time>
      </trkpt>
      <trkpt lat="46.84675" lon="8.44169">
        <ele>1982</ele>
        <time>2021-08-13T07:51:56.164Z</time>
      </trkpt>
      <trkpt lat="46.84676" lon="8.44169">
        <ele>1982</ele>
        <time>2021-08-13T07:51:57.163Z</time>
      </trkpt>
      <trkpt lat="46.84677" lon="8.44169">
        <ele>1981</ele>
        <time>2021-08-13T07:51:58.164Z</time>
      </trkpt>
      <trkpt lat="46.84678" lon="8.44169">
        <ele>1981</ele>
        <time>2021-08-13T07:51:59.164Z</time>
      </trkpt>
      <trkpt lat="46.84679" lon="8.4417">
        <ele>1980</ele>
        <time>2021-08-13T07:52:00.163Z</time>
      </trkpt>
      <trkpt lat="46.8468" lon="8.44171">
        <ele>1980</ele>
        <time>2021-08-13T07:52:01.163Z</time>
      </trkpt>
      <trkpt lat="46.84681" lon="8.44172">
        <ele>1980</ele>
        <time>2021-08-13T07:52:02.163Z</time>
      </trkpt>
      <trkpt lat="46.84682" lon="8.44173">
        <ele>1980</ele>
        <time>2021-08-13T07:52:03.164Z</time>
      </trkpt>
      <trkpt lat="46.84683" lon="8.44174">
        <ele>1979</ele>
        <time>2021-08-13T07:52:04.163Z</time>
      </trkpt>
      <trkpt lat="46.84684" lon="8.44175">
        <ele>1979</ele>
        <time>2021-08-13T07:52:05.164Z</time>
      </trkpt>
      <trkpt lat="46.84685" lon="8.44175">
        <ele>1979</ele>
        <time>2021-08-13T07:52:06.164Z</time>
      </trkpt>
      <trkpt lat="46.84687" lon="8.44175">
        <ele>1978</ele>
        <time>2021-08-13T07:52:07.164Z</time>
      </trkpt>
      <trkpt lat="46.84688" lon="8.44174">
        <ele>1977</ele>
        <time>2021-08-13T07:52:08.164Z</time>
      </trkpt>
      <trkpt lat="46.8469" lon="8.44173">
        <ele>1975</ele>
        <time>2021-08-13T07:52:09.164Z</time>
      </trkpt>
      <trkpt lat="46.84691" lon="8.44173">
        <ele>1975</ele>
        <time>2021-08-13T07:52:10.164Z</time>
      </trkpt>
      <trkpt lat="46.84693" lon="8.44172">
        <ele>1974</ele>
        <time>2021-08-13T07:52:11.163Z</time>
      </trkpt>
      <trkpt lat="46.84695" lon="8.4417">
        <ele>1974</ele>
        <time>2021-08-13T07:52:12.163Z</time>
      </trkpt>
      <trkpt lat="46.84697" lon="8.44169">
        <ele>1974</ele>
        <time>2021-08-13T07:52:13.164Z</time>
      </trkpt>
      <trkpt lat="46.84698" lon="8.44167">
        <ele>1974</ele>
        <time>2021-08-13T07:52:14.164Z</time>
      </trkpt>
      <trkpt lat="46.84699" lon="8.44166">
        <ele>1974</ele>
        <time>2021-08-13T07:52:15.164Z</time>
      </trkpt>
      <trkpt lat="46.84699" lon="8.44165">
        <ele>1974</ele>
        <time>2021-08-13T07:52:16.164Z</time>
      </trkpt>
      <trkpt lat="46.847" lon="8.44164">
        <ele>1974</ele>
        <time>2021-08-13T07:52:17.164Z</time>
      </trkpt>
      <trkpt lat="46.84701" lon="8.44163">
        <ele>1974</ele>
        <time>2021-08-13T07:52:18.164Z</time>
      </trkpt>
      <trkpt lat="46.84702" lon="8.44163">
        <ele>1974</ele>
        <time>2021-08-13T07:52:19.164Z</time>
      </trkpt>
      <trkpt lat="46.84703" lon="8.44163">
        <ele>1974</ele>
        <time>2021-08-13T07:52:20.164Z</time>
      </trkpt>
      <trkpt lat="46.84704" lon="8.44163">
        <ele>1973</ele>
        <time>2021-08-13T07:52:21.163Z</time>
      </trkpt>
      <trkpt lat="46.84706" lon="8.44163">
        <ele>1972</ele>
        <time>2021-08-13T07:52:22.164Z</time>
      </trkpt>
      <trkpt lat="46.84707" lon="8.44163">
        <ele>1971</ele>
        <time>2021-08-13T07:52:23.163Z</time>
      </trkpt>
      <trkpt lat="46.84708" lon="8.44162">
        <ele>1970</ele>
        <time>2021-08-13T07:52:24.164Z</time>
      </trkpt>
      <trkpt lat="46.84709" lon="8.44162">
        <ele>1969</ele>
        <time>2021-08-13T07:52:25.164Z</time>
      </trkpt>
      <trkpt lat="46.8471" lon="8.44161">
        <ele>1969</ele>
        <time>2021-08-13T07:52:26.164Z</time>
      </trkpt>
      <trkpt lat="46.84711" lon="8.4416">
        <ele>1968</ele>
        <time>2021-08-13T07:52:27.164Z</time>
      </trkpt>
      <trkpt lat="46.84712" lon="8.4416">
        <ele>1968</ele>
        <time>2021-08-13T07:52:28.164Z</time>
      </trkpt>
      <trkpt lat="46.84712" lon="8.4416">
        <ele>1967</ele>
        <time>2021-08-13T07:52:29.163Z</time>
      </trkpt>
      <trkpt lat="46.84712" lon="8.4416">
        <ele>1967</ele>
        <time>2021-08-13T07:52:30.164Z</time>
      </trkpt>
      <trkpt lat="46.84712" lon="8.44155">
        <ele>1961</ele>
        <time>2021-08-13T07:52:31.163Z</time>
      </trkpt>
      <trkpt lat="46.84712" lon="8.44154">
        <ele>1961</ele>
        <time>2021-08-13T07:52:32.164Z</time>
      </trkpt>
      <trkpt lat="46.84712" lon="8.44154">
        <ele>1960</ele>
        <time>2021-08-13T07:52:33.163Z</time>
      </trkpt>
      <trkpt lat="46.84712" lon="8.44152">
        <ele>1961</ele>
        <time>2021-08-13T07:52:34.164Z</time>
      </trkpt>
      <trkpt lat="46.84713" lon="8.44151">
        <ele>1961</ele>
        <time>2021-08-13T07:52:35.164Z</time>
      </trkpt>
      <trkpt lat="46.84713" lon="8.4415">
        <ele>1961</ele>
        <time>2021-08-13T07:52:36.163Z</time>
      </trkpt>
      <trkpt lat="46.84713" lon="8.44148">
        <ele>1961</ele>
        <time>2021-08-13T07:52:37.164Z</time>
      </trkpt>
      <trkpt lat="46.84713" lon="8.44148">
        <ele>1961</ele>
        <time>2021-08-13T07:52:38.163Z</time>
      </trkpt>
      <trkpt lat="46.84714" lon="8.44148">
        <ele>1961</ele>
        <time>2021-08-13T07:52:39.164Z</time>
      </trkpt>
      <trkpt lat="46.84713" lon="8.44148">
        <ele>1962</ele>
        <time>2021-08-13T07:52:40.164Z</time>
      </trkpt>
      <trkpt lat="46.84713" lon="8.44148">
        <ele>1962</ele>
        <time>2021-08-13T07:52:41.164Z</time>
      </trkpt>
      <trkpt lat="46.84713" lon="8.44146">
        <ele>1962</ele>
        <time>2021-08-13T07:52:42.163Z</time>
      </trkpt>
      <trkpt lat="46.84714" lon="8.44145">
        <ele>1962</ele>
        <time>2021-08-13T07:52:43.164Z</time>
      </trkpt>
      <trkpt lat="46.84714" lon="8.44144">
        <ele>1962</ele>
        <time>2021-08-13T07:52:44.163Z</time>
      </trkpt>
      <trkpt lat="46.84714" lon="8.44143">
        <ele>1962</ele>
        <time>2021-08-13T07:52:45.163Z</time>
      </trkpt>
      <trkpt lat="46.84714" lon="8.44142">
        <ele>1962</ele>
        <time>2021-08-13T07:52:46.164Z</time>
      </trkpt>
      <trkpt lat="46.84714" lon="8.44141">
        <ele>1962</ele>
        <time>2021-08-13T07:52:47.163Z</time>
      </trkpt>
      <trkpt lat="46.84713" lon="8.4414">
        <ele>1963</ele>
        <time>2021-08-13T07:52:48.164Z</time>
      </trkpt>
      <trkpt lat="46.84712" lon="8.4414">
        <ele>1963</ele>
        <time>2021-08-13T07:52:49.164Z</time>
      </trkpt>
      <trkpt lat="46.84712" lon="8.44139">
        <ele>1962</ele>
        <time>2021-08-13T07:52:50.164Z</time>
      </trkpt>
      <trkpt lat="46.84711" lon="8.44138">
        <ele>1962</ele>
        <time>2021-08-13T07:52:51.164Z</time>
      </trkpt>
      <trkpt lat="46.84711" lon="8.44137">
        <ele>1962</ele>
        <time>2021-08-13T07:52:52.164Z</time>
      </trkpt>
      <trkpt lat="46.8471" lon="8.44136">
        <ele>1962</ele>
        <time>2021-08-13T07:52:53.164Z</time>
      </trkpt>
      <trkpt lat="46.8471" lon="8.44135">
        <ele>1962</ele>
        <time>2021-08-13T07:52:54.163Z</time>
      </trkpt>
      <trkpt lat="46.84709" lon="8.44134">
        <ele>1962</ele>
        <time>2021-08-13T07:52:55.164Z</time>
      </trkpt>
      <trkpt lat="46.84709" lon="8.44132">
        <ele>1962</ele>
        <time>2021-08-13T07:52:56.163Z</time>
      </trkpt>
      <trkpt lat="46.84708" lon="8.44131">
        <ele>1963</ele>
        <time>2021-08-13T07:52:57.164Z</time>
      </trkpt>
      <trkpt lat="46.84708" lon="8.44131">
        <ele>1963</ele>
        <time>2021-08-13T07:52:58.164Z</time>
      </trkpt>
      <trkpt lat="46.84707" lon="8.44129">
        <ele>1963</ele>
        <time>2021-08-13T07:52:59.164Z</time>
      </trkpt>
      <trkpt lat="46.84707" lon="8.44128">
        <ele>1963</ele>
        <time>2021-08-13T07:53:00.163Z</time>
      </trkpt>
      <trkpt lat="46.84707" lon="8.44127">
        <ele>1963</ele>
        <time>2021-08-13T07:53:01.164Z</time>
      </trkpt>
      <trkpt lat="46.84705" lon="8.44126">
        <ele>1963</ele>
        <time>2021-08-13T07:53:02.164Z</time>
      </trkpt>
      <trkpt lat="46.84704" lon="8.44125">
        <ele>1963</ele>
        <time>2021-08-13T07:53:03.163Z</time>
      </trkpt>
      <trkpt lat="46.84704" lon="8.44124">
        <ele>1963</ele>
        <time>2021-08-13T07:53:04.163Z</time>
      </trkpt>
      <trkpt lat="46.84703" lon="8.44123">
        <ele>1963</ele>
        <time>2021-08-13T07:53:05.164Z</time>
      </trkpt>
      <trkpt lat="46.84703" lon="8.44122">
        <ele>1963</ele>
        <time>2021-08-13T07:53:06.164Z</time>
      </trkpt>
      <trkpt lat="46.84702" lon="8.44121">
        <ele>1963</ele>
        <time>2021-08-13T07:53:07.164Z</time>
      </trkpt>
      <trkpt lat="46.84702" lon="8.44119">
        <ele>1963</ele>
        <time>2021-08-13T07:53:08.164Z</time>
      </trkpt>
      <trkpt lat="46.84702" lon="8.44118">
        <ele>1963</ele>
        <time>2021-08-13T07:53:09.163Z</time>
      </trkpt>
      <trkpt lat="46.84702" lon="8.44117">
        <ele>1963</ele>
        <time>2021-08-13T07:53:10.163Z</time>
      </trkpt>
      <trkpt lat="46.84702" lon="8.44116">
        <ele>1963</ele>
        <time>2021-08-13T07:53:11.164Z</time>
      </trkpt>
      <trkpt lat="46.84702" lon="8.44114">
        <ele>1963</ele>
        <time>2021-08-13T07:53:12.164Z</time>
      </trkpt>
      <trkpt lat="46.84702" lon="8.44113">
        <ele>1963</ele>
        <time>2021-08-13T07:53:13.164Z</time>
      </trkpt>
      <trkpt lat="46.84702" lon="8.44111">
        <ele>1963</ele>
        <time>2021-08-13T07:53:14.163Z</time>
      </trkpt>
      <trkpt lat="46.84702" lon="8.44109">
        <ele>1963</ele>
        <time>2021-08-13T07:53:15.164Z</time>
      </trkpt>
      <trkpt lat="46.84701" lon="8.44108">
        <ele>1963</ele>
        <time>2021-08-13T07:53:16.163Z</time>
      </trkpt>
      <trkpt lat="46.84701" lon="8.44106">
        <ele>1963</ele>
        <time>2021-08-13T07:53:17.164Z</time>
      </trkpt>
      <trkpt lat="46.84701" lon="8.44104">
        <ele>1963</ele>
        <time>2021-08-13T07:53:18.164Z</time>
      </trkpt>
      <trkpt lat="46.847" lon="8.44103">
        <ele>1962</ele>
        <time>2021-08-13T07:53:19.164Z</time>
      </trkpt>
      <trkpt lat="46.847" lon="8.44102">
        <ele>1962</ele>
        <time>2021-08-13T07:53:20.164Z</time>
      </trkpt>
      <trkpt lat="46.84699" lon="8.441">
        <ele>1963</ele>
        <time>2021-08-13T07:53:21.164Z</time>
      </trkpt>
      <trkpt lat="46.84698" lon="8.44099">
        <ele>1963</ele>
        <time>2021-08-13T07:53:22.164Z</time>
      </trkpt>
      <trkpt lat="46.84697" lon="8.44097">
        <ele>1962</ele>
        <time>2021-08-13T07:53:23.164Z</time>
      </trkpt>
      <trkpt lat="46.84697" lon="8.44096">
        <ele>1962</ele>
        <time>2021-08-13T07:53:24.164Z</time>
      </trkpt>
      <trkpt lat="46.84696" lon="8.44095">
        <ele>1962</ele>
        <time>2021-08-13T07:53:25.164Z</time>
      </trkpt>
      <trkpt lat="46.84695" lon="8.44094">
        <ele>1962</ele>
        <time>2021-08-13T07:53:26.164Z</time>
      </trkpt>
      <trkpt lat="46.84694" lon="8.44093">
        <ele>1963</ele>
        <time>2021-08-13T07:53:27.164Z</time>
      </trkpt>
      <trkpt lat="46.84693" lon="8.44092">
        <ele>1963</ele>
        <time>2021-08-13T07:53:28.164Z</time>
      </trkpt>
      <trkpt lat="46.84692" lon="8.44091">
        <ele>1963</ele>
        <time>2021-08-13T07:53:29.163Z</time>
      </trkpt>
      <trkpt lat="46.84692" lon="8.4409">
        <ele>1963</ele>
        <time>2021-08-13T07:53:30.164Z</time>
      </trkpt>
      <trkpt lat="46.84691" lon="8.44089">
        <ele>1963</ele>
        <time>2021-08-13T07:53:31.163Z</time>
      </trkpt>
      <trkpt lat="46.8469" lon="8.44088">
        <ele>1963</ele>
        <time>2021-08-13T07:53:32.164Z</time>
      </trkpt>
      <trkpt lat="46.84689" lon="8.44086">
        <ele>1963</ele>
        <time>2021-08-13T07:53:33.164Z</time>
      </trkpt>
      <trkpt lat="46.84689" lon="8.44085">
        <ele>1963</ele>
        <time>2021-08-13T07:53:34.164Z</time>
      </trkpt>
      <trkpt lat="46.84688" lon="8.44084">
        <ele>1963</ele>
        <time>2021-08-13T07:53:35.164Z</time>
      </trkpt>
      <trkpt lat="46.84687" lon="8.44083">
        <ele>1963</ele>
        <time>2021-08-13T07:53:36.164Z</time>
      </trkpt>
      <trkpt lat="46.84686" lon="8.44081">
        <ele>1962</ele>
        <time>2021-08-13T07:53:37.163Z</time>
      </trkpt>
      <trkpt lat="46.84685" lon="8.4408">
        <ele>1962</ele>
        <time>2021-08-13T07:53:38.164Z</time>
      </trkpt>
      <trkpt lat="46.84685" lon="8.44078">
        <ele>1961</ele>
        <time>2021-08-13T07:53:39.164Z</time>
      </trkpt>
      <trkpt lat="46.84684" lon="8.44077">
        <ele>1960</ele>
        <time>2021-08-13T07:53:40.163Z</time>
      </trkpt>
      <trkpt lat="46.84683" lon="8.44075">
        <ele>1959</ele>
        <time>2021-08-13T07:53:41.164Z</time>
      </trkpt>
      <trkpt lat="46.84683" lon="8.44074">
        <ele>1959</ele>
        <time>2021-08-13T07:53:42.164Z</time>
      </trkpt>
      <trkpt lat="46.84682" lon="8.44073">
        <ele>1958</ele>
        <time>2021-08-13T07:53:43.164Z</time>
      </trkpt>
      <trkpt lat="46.84682" lon="8.44072">
        <ele>1958</ele>
        <time>2021-08-13T07:53:44.163Z</time>
      </trkpt>
      <trkpt lat="46.84681" lon="8.4407">
        <ele>1958</ele>
        <time>2021-08-13T07:53:45.164Z</time>
      </trkpt>
      <trkpt lat="46.8468" lon="8.44069">
        <ele>1958</ele>
        <time>2021-08-13T07:53:46.164Z</time>
      </trkpt>
      <trkpt lat="46.84679" lon="8.44068">
        <ele>1958</ele>
        <time>2021-08-13T07:53:47.164Z</time>
      </trkpt>
      <trkpt lat="46.84679" lon="8.44065">
        <ele>1958</ele>
        <time>2021-08-13T07:53:48.163Z</time>
      </trkpt>
      <trkpt lat="46.84679" lon="8.44064">
        <ele>1958</ele>
        <time>2021-08-13T07:53:49.164Z</time>
      </trkpt>
      <trkpt lat="46.84679" lon="8.44063">
        <ele>1958</ele>
        <time>2021-08-13T07:53:50.164Z</time>
      </trkpt>
      <trkpt lat="46.84678" lon="8.44062">
        <ele>1958</ele>
        <time>2021-08-13T07:53:51.163Z</time>
      </trkpt>
      <trkpt lat="46.84678" lon="8.44061">
        <ele>1958</ele>
        <time>2021-08-13T07:53:52.164Z</time>
      </trkpt>
      <trkpt lat="46.84677" lon="8.4406">
        <ele>1958</ele>
        <time>2021-08-13T07:53:53.163Z</time>
      </trkpt>
      <trkpt lat="46.84676" lon="8.44059">
        <ele>1958</ele>
        <time>2021-08-13T07:53:54.164Z</time>
      </trkpt>
      <trkpt lat="46.84675" lon="8.44059">
        <ele>1958</ele>
        <time>2021-08-13T07:53:55.164Z</time>
      </trkpt>
      <trkpt lat="46.84675" lon="8.44057">
        <ele>1958</ele>
        <time>2021-08-13T07:53:56.163Z</time>
      </trkpt>
      <trkpt lat="46.84674" lon="8.44056">
        <ele>1957</ele>
        <time>2021-08-13T07:53:57.163Z</time>
      </trkpt>
      <trkpt lat="46.84673" lon="8.44054">
        <ele>1956</ele>
        <time>2021-08-13T07:53:58.164Z</time>
      </trkpt>
      <trkpt lat="46.84673" lon="8.44053">
        <ele>1956</ele>
        <time>2021-08-13T07:53:59.164Z</time>
      </trkpt>
      <trkpt lat="46.84673" lon="8.44052">
        <ele>1956</ele>
        <time>2021-08-13T07:54:00.164Z</time>
      </trkpt>
      <trkpt lat="46.84672" lon="8.44052">
        <ele>1955</ele>
        <time>2021-08-13T07:54:01.164Z</time>
      </trkpt>
      <trkpt lat="46.84671" lon="8.44052">
        <ele>1955</ele>
        <time>2021-08-13T07:54:02.164Z</time>
      </trkpt>
      <trkpt lat="46.8467" lon="8.44051">
        <ele>1955</ele>
        <time>2021-08-13T07:54:03.163Z</time>
      </trkpt>
      <trkpt lat="46.84669" lon="8.44051">
        <ele>1956</ele>
        <time>2021-08-13T07:54:04.163Z</time>
      </trkpt>
      <trkpt lat="46.84668" lon="8.4405">
        <ele>1956</ele>
        <time>2021-08-13T07:54:05.164Z</time>
      </trkpt>
      <trkpt lat="46.84667" lon="8.44049">
        <ele>1956</ele>
        <time>2021-08-13T07:54:06.164Z</time>
      </trkpt>
      <trkpt lat="46.84666" lon="8.44048">
        <ele>1956</ele>
        <time>2021-08-13T07:54:07.163Z</time>
      </trkpt>
      <trkpt lat="46.84665" lon="8.44048">
        <ele>1956</ele>
        <time>2021-08-13T07:54:08.164Z</time>
      </trkpt>
      <trkpt lat="46.84664" lon="8.44047">
        <ele>1955</ele>
        <time>2021-08-13T07:54:09.163Z</time>
      </trkpt>
      <trkpt lat="46.84663" lon="8.44046">
        <ele>1955</ele>
        <time>2021-08-13T07:54:10.163Z</time>
      </trkpt>
      <trkpt lat="46.84662" lon="8.44045">
        <ele>1954</ele>
        <time>2021-08-13T07:54:11.164Z</time>
      </trkpt>
      <trkpt lat="46.84661" lon="8.44044">
        <ele>1954</ele>
        <time>2021-08-13T07:54:12.164Z</time>
      </trkpt>
      <trkpt lat="46.8466" lon="8.44042">
        <ele>1954</ele>
        <time>2021-08-13T07:54:13.164Z</time>
      </trkpt>
      <trkpt lat="46.84659" lon="8.44041">
        <ele>1954</ele>
        <time>2021-08-13T07:54:14.163Z</time>
      </trkpt>
      <trkpt lat="46.84659" lon="8.4404">
        <ele>1954</ele>
        <time>2021-08-13T07:54:15.164Z</time>
      </trkpt>
      <trkpt lat="46.84658" lon="8.4404">
        <ele>1954</ele>
        <time>2021-08-13T07:54:16.163Z</time>
      </trkpt>
      <trkpt lat="46.84658" lon="8.44039">
        <ele>1953</ele>
        <time>2021-08-13T07:54:17.164Z</time>
      </trkpt>
      <trkpt lat="46.84657" lon="8.44038">
        <ele>1953</ele>
        <time>2021-08-13T07:54:18.164Z</time>
      </trkpt>
      <trkpt lat="46.84657" lon="8.44037">
        <ele>1953</ele>
        <time>2021-08-13T07:54:19.163Z</time>
      </trkpt>
      <trkpt lat="46.84656" lon="8.44036">
        <ele>1953</ele>
        <time>2021-08-13T07:54:20.164Z</time>
      </trkpt>
      <trkpt lat="46.84656" lon="8.44034">
        <ele>1953</ele>
        <time>2021-08-13T07:54:21.163Z</time>
      </trkpt>
      <trkpt lat="46.84655" lon="8.44032">
        <ele>1953</ele>
        <time>2021-08-13T07:54:22.164Z</time>
      </trkpt>
      <trkpt lat="46.84654" lon="8.44031">
        <ele>1953</ele>
        <time>2021-08-13T07:54:23.164Z</time>
      </trkpt>
      <trkpt lat="46.84653" lon="8.4403">
        <ele>1953</ele>
        <time>2021-08-13T07:54:24.163Z</time>
      </trkpt>
      <trkpt lat="46.84652" lon="8.44029">
        <ele>1954</ele>
        <time>2021-08-13T07:54:25.164Z</time>
      </trkpt>
      <trkpt lat="46.84651" lon="8.44029">
        <ele>1954</ele>
        <time>2021-08-13T07:54:26.163Z</time>
      </trkpt>
      <trkpt lat="46.84651" lon="8.44029">
        <ele>1954</ele>
        <time>2021-08-13T07:54:27.164Z</time>
      </trkpt>
      <trkpt lat="46.84651" lon="8.44029">
        <ele>1954</ele>
        <time>2021-08-13T07:54:28.164Z</time>
      </trkpt>
      <trkpt lat="46.8465" lon="8.44029">
        <ele>1955</ele>
        <time>2021-08-13T07:54:29.163Z</time>
      </trkpt>
      <trkpt lat="46.8465" lon="8.44029">
        <ele>1955</ele>
        <time>2021-08-13T07:54:30.164Z</time>
      </trkpt>
      <trkpt lat="46.84649" lon="8.44028">
        <ele>1955</ele>
        <time>2021-08-13T07:54:31.164Z</time>
      </trkpt>
      <trkpt lat="46.84649" lon="8.44027">
        <ele>1956</ele>
        <time>2021-08-13T07:54:32.164Z</time>
      </trkpt>
      <trkpt lat="46.84649" lon="8.44026">
        <ele>1956</ele>
        <time>2021-08-13T07:54:33.164Z</time>
      </trkpt>
      <trkpt lat="46.84648" lon="8.44025">
        <ele>1956</ele>
        <time>2021-08-13T07:54:34.164Z</time>
      </trkpt>
      <trkpt lat="46.84648" lon="8.44024">
        <ele>1957</ele>
        <time>2021-08-13T07:54:35.164Z</time>
      </trkpt>
      <trkpt lat="46.84647" lon="8.44023">
        <ele>1957</ele>
        <time>2021-08-13T07:54:36.164Z</time>
      </trkpt>
      <trkpt lat="46.84646" lon="8.44022">
        <ele>1956</ele>
        <time>2021-08-13T07:54:37.164Z</time>
      </trkpt>
      <trkpt lat="46.84645" lon="8.44021">
        <ele>1956</ele>
        <time>2021-08-13T07:54:38.163Z</time>
      </trkpt>
      <trkpt lat="46.84645" lon="8.4402">
        <ele>1956</ele>
        <time>2021-08-13T07:54:39.164Z</time>
      </trkpt>
      <trkpt lat="46.84645" lon="8.44019">
        <ele>1957</ele>
        <time>2021-08-13T07:54:40.163Z</time>
      </trkpt>
      <trkpt lat="46.84644" lon="8.44018">
        <ele>1957</ele>
        <time>2021-08-13T07:54:41.164Z</time>
      </trkpt>
      <trkpt lat="46.84644" lon="8.44017">
        <ele>1958</ele>
        <time>2021-08-13T07:54:42.164Z</time>
      </trkpt>
      <trkpt lat="46.84644" lon="8.44015">
        <ele>1958</ele>
        <time>2021-08-13T07:54:43.163Z</time>
      </trkpt>
      <trkpt lat="46.84644" lon="8.44013">
        <ele>1959</ele>
        <time>2021-08-13T07:54:44.163Z</time>
      </trkpt>
      <trkpt lat="46.84644" lon="8.44012">
        <ele>1960</ele>
        <time>2021-08-13T07:54:45.164Z</time>
      </trkpt>
      <trkpt lat="46.84645" lon="8.44011">
        <ele>1960</ele>
        <time>2021-08-13T07:54:46.164Z</time>
      </trkpt>
      <trkpt lat="46.84645" lon="8.4401">
        <ele>1961</ele>
        <time>2021-08-13T07:54:47.164Z</time>
      </trkpt>
      <trkpt lat="46.84646" lon="8.44009">
        <ele>1962</ele>
        <time>2021-08-13T07:54:48.164Z</time>
      </trkpt>
      <trkpt lat="46.84646" lon="8.44008">
        <ele>1963</ele>
        <time>2021-08-13T07:54:49.164Z</time>
      </trkpt>
      <trkpt lat="46.84647" lon="8.44007">
        <ele>1963</ele>
        <time>2021-08-13T07:54:50.164Z</time>
      </trkpt>
      <trkpt lat="46.84647" lon="8.44006">
        <ele>1962</ele>
        <time>2021-08-13T07:54:51.164Z</time>
      </trkpt>
      <trkpt lat="46.84647" lon="8.44006">
        <ele>1962</ele>
        <time>2021-08-13T07:54:52.163Z</time>
      </trkpt>
      <trkpt lat="46.84647" lon="8.44007">
        <ele>1961</ele>
        <time>2021-08-13T07:54:53.164Z</time>
      </trkpt>
      <trkpt lat="46.84646" lon="8.44007">
        <ele>1960</ele>
        <time>2021-08-13T07:54:54.164Z</time>
      </trkpt>
      <trkpt lat="46.84648" lon="8.44005">
        <ele>1958</ele>
        <time>2021-08-13T07:54:55.165Z</time>
      </trkpt>
      <trkpt lat="46.84648" lon="8.44003">
        <ele>1958</ele>
        <time>2021-08-13T07:54:56.164Z</time>
      </trkpt>
      <trkpt lat="46.84649" lon="8.44002">
        <ele>1957</ele>
        <time>2021-08-13T07:54:57.164Z</time>
      </trkpt>
      <trkpt lat="46.84649" lon="8.44">
        <ele>1957</ele>
        <time>2021-08-13T07:54:58.165Z</time>
      </trkpt>
      <trkpt lat="46.84649" lon="8.43999">
        <ele>1957</ele>
        <time>2021-08-13T07:54:59.164Z</time>
      </trkpt>
      <trkpt lat="46.8465" lon="8.43997">
        <ele>1958</ele>
        <time>2021-08-13T07:55:00.164Z</time>
      </trkpt>
      <trkpt lat="46.8465" lon="8.43995">
        <ele>1958</ele>
        <time>2021-08-13T07:55:01.164Z</time>
      </trkpt>
      <trkpt lat="46.8465" lon="8.43994">
        <ele>1958</ele>
        <time>2021-08-13T07:55:02.165Z</time>
      </trkpt>
      <trkpt lat="46.8465" lon="8.43992">
        <ele>1959</ele>
        <time>2021-08-13T07:55:03.165Z</time>
      </trkpt>
      <trkpt lat="46.8465" lon="8.4399">
        <ele>1959</ele>
        <time>2021-08-13T07:55:04.164Z</time>
      </trkpt>
      <trkpt lat="46.8465" lon="8.43989">
        <ele>1959</ele>
        <time>2021-08-13T07:55:05.165Z</time>
      </trkpt>
      <trkpt lat="46.8465" lon="8.43988">
        <ele>1958</ele>
        <time>2021-08-13T07:55:06.164Z</time>
      </trkpt>
      <trkpt lat="46.8465" lon="8.43986">
        <ele>1958</ele>
        <time>2021-08-13T07:55:07.165Z</time>
      </trkpt>
      <trkpt lat="46.8465" lon="8.43985">
        <ele>1958</ele>
        <time>2021-08-13T07:55:08.165Z</time>
      </trkpt>
      <trkpt lat="46.8465" lon="8.43983">
        <ele>1957</ele>
        <time>2021-08-13T07:55:09.165Z</time>
      </trkpt>
      <trkpt lat="46.8465" lon="8.43982">
        <ele>1957</ele>
        <time>2021-08-13T07:55:10.165Z</time>
      </trkpt>
      <trkpt lat="46.8465" lon="8.43981">
        <ele>1957</ele>
        <time>2021-08-13T07:55:11.165Z</time>
      </trkpt>
      <trkpt lat="46.8465" lon="8.43979">
        <ele>1957</ele>
        <time>2021-08-13T07:55:12.165Z</time>
      </trkpt>
      <trkpt lat="46.84651" lon="8.43977">
        <ele>1956</ele>
        <time>2021-08-13T07:55:13.165Z</time>
      </trkpt>
      <trkpt lat="46.84651" lon="8.43976">
        <ele>1956</ele>
        <time>2021-08-13T07:55:14.165Z</time>
      </trkpt>
      <trkpt lat="46.84651" lon="8.43975">
        <ele>1956</ele>
        <time>2021-08-13T07:55:15.165Z</time>
      </trkpt>
      <trkpt lat="46.84651" lon="8.43974">
        <ele>1955</ele>
        <time>2021-08-13T07:55:16.165Z</time>
      </trkpt>
      <trkpt lat="46.84651" lon="8.43972">
        <ele>1955</ele>
        <time>2021-08-13T07:55:17.164Z</time>
      </trkpt>
      <trkpt lat="46.84651" lon="8.4397">
        <ele>1955</ele>
        <time>2021-08-13T07:55:18.165Z</time>
      </trkpt>
      <trkpt lat="46.84651" lon="8.43969">
        <ele>1954</ele>
        <time>2021-08-13T07:55:19.165Z</time>
      </trkpt>
      <trkpt lat="46.84651" lon="8.43968">
        <ele>1954</ele>
        <time>2021-08-13T07:55:20.165Z</time>
      </trkpt>
      <trkpt lat="46.84651" lon="8.43966">
        <ele>1954</ele>
        <time>2021-08-13T07:55:21.164Z</time>
      </trkpt>
      <trkpt lat="46.84652" lon="8.43965">
        <ele>1954</ele>
        <time>2021-08-13T07:55:22.164Z</time>
      </trkpt>
      <trkpt lat="46.84652" lon="8.43964">
        <ele>1954</ele>
        <time>2021-08-13T07:55:23.165Z</time>
      </trkpt>
      <trkpt lat="46.84653" lon="8.43962">
        <ele>1954</ele>
        <time>2021-08-13T07:55:24.164Z</time>
      </trkpt>
      <trkpt lat="46.84653" lon="8.4396">
        <ele>1954</ele>
        <time>2021-08-13T07:55:25.164Z</time>
      </trkpt>
      <trkpt lat="46.84653" lon="8.43959">
        <ele>1953</ele>
        <time>2021-08-13T07:55:26.164Z</time>
      </trkpt>
      <trkpt lat="46.84652" lon="8.43957">
        <ele>1953</ele>
        <time>2021-08-13T07:55:27.164Z</time>
      </trkpt>
      <trkpt lat="46.84652" lon="8.43956">
        <ele>1953</ele>
        <time>2021-08-13T07:55:28.164Z</time>
      </trkpt>
      <trkpt lat="46.84652" lon="8.43954">
        <ele>1953</ele>
        <time>2021-08-13T07:55:29.165Z</time>
      </trkpt>
      <trkpt lat="46.84652" lon="8.43953">
        <ele>1953</ele>
        <time>2021-08-13T07:55:30.164Z</time>
      </trkpt>
      <trkpt lat="46.84652" lon="8.43951">
        <ele>1953</ele>
        <time>2021-08-13T07:55:31.165Z</time>
      </trkpt>
      <trkpt lat="46.84651" lon="8.4395">
        <ele>1952</ele>
        <time>2021-08-13T07:55:32.165Z</time>
      </trkpt>
      <trkpt lat="46.84651" lon="8.43948">
        <ele>1952</ele>
        <time>2021-08-13T07:55:33.165Z</time>
      </trkpt>
      <trkpt lat="46.8465" lon="8.43947">
        <ele>1952</ele>
        <time>2021-08-13T07:55:34.165Z</time>
      </trkpt>
      <trkpt lat="46.8465" lon="8.43946">
        <ele>1952</ele>
        <time>2021-08-13T07:55:35.165Z</time>
      </trkpt>
      <trkpt lat="46.8465" lon="8.43944">
        <ele>1952</ele>
        <time>2021-08-13T07:55:36.165Z</time>
      </trkpt>
      <trkpt lat="46.84649" lon="8.43943">
        <ele>1951</ele>
        <time>2021-08-13T07:55:37.164Z</time>
      </trkpt>
      <trkpt lat="46.84649" lon="8.43942">
        <ele>1951</ele>
        <time>2021-08-13T07:55:38.165Z</time>
      </trkpt>
      <trkpt lat="46.84649" lon="8.43941">
        <ele>1951</ele>
        <time>2021-08-13T07:55:39.165Z</time>
      </trkpt>
      <trkpt lat="46.84649" lon="8.43941">
        <ele>1951</ele>
        <time>2021-08-13T07:55:40.165Z</time>
      </trkpt>
      <trkpt lat="46.84648" lon="8.43939">
        <ele>1951</ele>
        <time>2021-08-13T07:55:41.165Z</time>
      </trkpt>
      <trkpt lat="46.84648" lon="8.43938">
        <ele>1951</ele>
        <time>2021-08-13T07:55:42.165Z</time>
      </trkpt>
      <trkpt lat="46.84647" lon="8.43937">
        <ele>1951</ele>
        <time>2021-08-13T07:55:43.165Z</time>
      </trkpt>
      <trkpt lat="46.84647" lon="8.43935">
        <ele>1951</ele>
        <time>2021-08-13T07:55:44.165Z</time>
      </trkpt>
      <trkpt lat="46.84647" lon="8.43934">
        <ele>1951</ele>
        <time>2021-08-13T07:55:45.165Z</time>
      </trkpt>
      <trkpt lat="46.84647" lon="8.43932">
        <ele>1950</ele>
        <time>2021-08-13T07:55:46.164Z</time>
      </trkpt>
      <trkpt lat="46.84647" lon="8.43931">
        <ele>1950</ele>
        <time>2021-08-13T07:55:47.164Z</time>
      </trkpt>
      <trkpt lat="46.84647" lon="8.43929">
        <ele>1950</ele>
        <time>2021-08-13T07:55:48.165Z</time>
      </trkpt>
      <trkpt lat="46.84647" lon="8.43928">
        <ele>1949</ele>
        <time>2021-08-13T07:55:49.165Z</time>
      </trkpt>
      <trkpt lat="46.84646" lon="8.43926">
        <ele>1948</ele>
        <time>2021-08-13T07:55:50.165Z</time>
      </trkpt>
      <trkpt lat="46.84646" lon="8.43924">
        <ele>1948</ele>
        <time>2021-08-13T07:55:51.165Z</time>
      </trkpt>
      <trkpt lat="46.84646" lon="8.43922">
        <ele>1947</ele>
        <time>2021-08-13T07:55:52.165Z</time>
      </trkpt>
      <trkpt lat="46.84647" lon="8.43921">
        <ele>1947</ele>
        <time>2021-08-13T07:55:53.164Z</time>
      </trkpt>
      <trkpt lat="46.84647" lon="8.43919">
        <ele>1947</ele>
        <time>2021-08-13T07:55:54.165Z</time>
      </trkpt>
      <trkpt lat="46.84648" lon="8.43917">
        <ele>1947</ele>
        <time>2021-08-13T07:55:55.165Z</time>
      </trkpt>
      <trkpt lat="46.84648" lon="8.43915">
        <ele>1946</ele>
        <time>2021-08-13T07:55:56.165Z</time>
      </trkpt>
      <trkpt lat="46.84649" lon="8.43914">
        <ele>1946</ele>
        <time>2021-08-13T07:55:57.165Z</time>
      </trkpt>
      <trkpt lat="46.84648" lon="8.43912">
        <ele>1946</ele>
        <time>2021-08-13T07:55:58.164Z</time>
      </trkpt>
      <trkpt lat="46.84648" lon="8.4391">
        <ele>1946</ele>
        <time>2021-08-13T07:55:59.164Z</time>
      </trkpt>
      <trkpt lat="46.84648" lon="8.43909">
        <ele>1946</ele>
        <time>2021-08-13T07:56:00.164Z</time>
      </trkpt>
      <trkpt lat="46.84649" lon="8.43907">
        <ele>1946</ele>
        <time>2021-08-13T07:56:01.165Z</time>
      </trkpt>
      <trkpt lat="46.84649" lon="8.43906">
        <ele>1946</ele>
        <time>2021-08-13T07:56:02.165Z</time>
      </trkpt>
      <trkpt lat="46.84649" lon="8.43905">
        <ele>1946</ele>
        <time>2021-08-13T07:56:03.165Z</time>
      </trkpt>
      <trkpt lat="46.84649" lon="8.43902">
        <ele>1946</ele>
        <time>2021-08-13T07:56:04.165Z</time>
      </trkpt>
      <trkpt lat="46.8465" lon="8.43901">
        <ele>1946</ele>
        <time>2021-08-13T07:56:05.165Z</time>
      </trkpt>
      <trkpt lat="46.8465" lon="8.43899">
        <ele>1946</ele>
        <time>2021-08-13T07:56:06.165Z</time>
      </trkpt>
      <trkpt lat="46.84651" lon="8.43898">
        <ele>1946</ele>
        <time>2021-08-13T07:56:07.165Z</time>
      </trkpt>
      <trkpt lat="46.84652" lon="8.43897">
        <ele>1946</ele>
        <time>2021-08-13T07:56:08.164Z</time>
      </trkpt>
      <trkpt lat="46.84652" lon="8.43896">
        <ele>1947</ele>
        <time>2021-08-13T07:56:09.164Z</time>
      </trkpt>
      <trkpt lat="46.84652" lon="8.43894">
        <ele>1947</ele>
        <time>2021-08-13T07:56:10.165Z</time>
      </trkpt>
      <trkpt lat="46.84652" lon="8.43893">
        <ele>1947</ele>
        <time>2021-08-13T07:56:11.165Z</time>
      </trkpt>
      <trkpt lat="46.84652" lon="8.43892">
        <ele>1947</ele>
        <time>2021-08-13T07:56:12.164Z</time>
      </trkpt>
      <trkpt lat="46.84652" lon="8.4389">
        <ele>1948</ele>
        <time>2021-08-13T07:56:13.165Z</time>
      </trkpt>
      <trkpt lat="46.84653" lon="8.43889">
        <ele>1948</ele>
        <time>2021-08-13T07:56:14.165Z</time>
      </trkpt>
      <trkpt lat="46.84654" lon="8.43887">
        <ele>1948</ele>
        <time>2021-08-13T07:56:15.164Z</time>
      </trkpt>
      <trkpt lat="46.84654" lon="8.43885">
        <ele>1949</ele>
        <time>2021-08-13T07:56:16.164Z</time>
      </trkpt>
      <trkpt lat="46.84655" lon="8.43884">
        <ele>1949</ele>
        <time>2021-08-13T07:56:17.164Z</time>
      </trkpt>
      <trkpt lat="46.84656" lon="8.43883">
        <ele>1950</ele>
        <time>2021-08-13T07:56:18.164Z</time>
      </trkpt>
      <trkpt lat="46.84657" lon="8.43883">
        <ele>1951</ele>
        <time>2021-08-13T07:56:19.164Z</time>
      </trkpt>
      <trkpt lat="46.84658" lon="8.43882">
        <ele>1952</ele>
        <time>2021-08-13T07:56:20.164Z</time>
      </trkpt>
      <trkpt lat="46.84659" lon="8.43881">
        <ele>1952</ele>
        <time>2021-08-13T07:56:21.165Z</time>
      </trkpt>
      <trkpt lat="46.8466" lon="8.4388">
        <ele>1953</ele>
        <time>2021-08-13T07:56:22.165Z</time>
      </trkpt>
      <trkpt lat="46.8466" lon="8.43879">
        <ele>1953</ele>
        <time>2021-08-13T07:56:23.164Z</time>
      </trkpt>
      <trkpt lat="46.84661" lon="8.43879">
        <ele>1953</ele>
        <time>2021-08-13T07:56:24.164Z</time>
      </trkpt>
      <trkpt lat="46.84661" lon="8.43878">
        <ele>1953</ele>
        <time>2021-08-13T07:56:25.164Z</time>
      </trkpt>
      <trkpt lat="46.84661" lon="8.43877">
        <ele>1954</ele>
        <time>2021-08-13T07:56:26.165Z</time>
      </trkpt>
      <trkpt lat="46.84662" lon="8.43877">
        <ele>1954</ele>
        <time>2021-08-13T07:56:27.165Z</time>
      </trkpt>
      <trkpt lat="46.84662" lon="8.43876">
        <ele>1954</ele>
        <time>2021-08-13T07:56:28.164Z</time>
      </trkpt>
      <trkpt lat="46.84662" lon="8.43875">
        <ele>1954</ele>
        <time>2021-08-13T07:56:29.165Z</time>
      </trkpt>
      <trkpt lat="46.84662" lon="8.43874">
        <ele>1955</ele>
        <time>2021-08-13T07:56:30.165Z</time>
      </trkpt>
      <trkpt lat="46.84663" lon="8.43873">
        <ele>1955</ele>
        <time>2021-08-13T07:56:31.164Z</time>
      </trkpt>
      <trkpt lat="46.84663" lon="8.43871">
        <ele>1954</ele>
        <time>2021-08-13T07:56:32.165Z</time>
      </trkpt>
      <trkpt lat="46.84664" lon="8.4387">
        <ele>1954</ele>
        <time>2021-08-13T07:56:33.165Z</time>
      </trkpt>
      <trkpt lat="46.84664" lon="8.43868">
        <ele>1954</ele>
        <time>2021-08-13T07:56:34.165Z</time>
      </trkpt>
      <trkpt lat="46.84664" lon="8.43867">
        <ele>1954</ele>
        <time>2021-08-13T07:56:35.165Z</time>
      </trkpt>
      <trkpt lat="46.84664" lon="8.43866">
        <ele>1954</ele>
        <time>2021-08-13T07:56:36.165Z</time>
      </trkpt>
      <trkpt lat="46.84664" lon="8.43864">
        <ele>1955</ele>
        <time>2021-08-13T07:56:37.165Z</time>
      </trkpt>
      <trkpt lat="46.84664" lon="8.43862">
        <ele>1955</ele>
        <time>2021-08-13T07:56:38.165Z</time>
      </trkpt>
      <trkpt lat="46.84664" lon="8.4386">
        <ele>1955</ele>
        <time>2021-08-13T07:56:39.164Z</time>
      </trkpt>
      <trkpt lat="46.84663" lon="8.43859">
        <ele>1955</ele>
        <time>2021-08-13T07:56:40.165Z</time>
      </trkpt>
      <trkpt lat="46.84663" lon="8.43857">
        <ele>1955</ele>
        <time>2021-08-13T07:56:41.165Z</time>
      </trkpt>
      <trkpt lat="46.84663" lon="8.43856">
        <ele>1954</ele>
        <time>2021-08-13T07:56:42.164Z</time>
      </trkpt>
      <trkpt lat="46.84662" lon="8.43854">
        <ele>1954</ele>
        <time>2021-08-13T07:56:43.165Z</time>
      </trkpt>
      <trkpt lat="46.84663" lon="8.43853">
        <ele>1954</ele>
        <time>2021-08-13T07:56:44.165Z</time>
      </trkpt>
      <trkpt lat="46.84663" lon="8.43851">
        <ele>1953</ele>
        <time>2021-08-13T07:56:45.165Z</time>
      </trkpt>
      <trkpt lat="46.84662" lon="8.4385">
        <ele>1953</ele>
        <time>2021-08-13T07:56:46.165Z</time>
      </trkpt>
      <trkpt lat="46.84662" lon="8.43849">
        <ele>1953</ele>
        <time>2021-08-13T07:56:47.165Z</time>
      </trkpt>
      <trkpt lat="46.84662" lon="8.43848">
        <ele>1953</ele>
        <time>2021-08-13T07:56:48.165Z</time>
      </trkpt>
      <trkpt lat="46.84663" lon="8.43846">
        <ele>1952</ele>
        <time>2021-08-13T07:56:49.165Z</time>
      </trkpt>
      <trkpt lat="46.84663" lon="8.43844">
        <ele>1952</ele>
        <time>2021-08-13T07:56:50.165Z</time>
      </trkpt>
      <trkpt lat="46.84663" lon="8.43843">
        <ele>1951</ele>
        <time>2021-08-13T07:56:51.165Z</time>
      </trkpt>
      <trkpt lat="46.84663" lon="8.43842">
        <ele>1951</ele>
        <time>2021-08-13T07:56:52.165Z</time>
      </trkpt>
      <trkpt lat="46.84664" lon="8.43841">
        <ele>1951</ele>
        <time>2021-08-13T07:56:53.165Z</time>
      </trkpt>
      <trkpt lat="46.84664" lon="8.43839">
        <ele>1950</ele>
        <time>2021-08-13T07:56:54.165Z</time>
      </trkpt>
      <trkpt lat="46.84663" lon="8.43838">
        <ele>1950</ele>
        <time>2021-08-13T07:56:55.165Z</time>
      </trkpt>
      <trkpt lat="46.84663" lon="8.43836">
        <ele>1950</ele>
        <time>2021-08-13T07:56:56.164Z</time>
      </trkpt>
      <trkpt lat="46.84663" lon="8.43835">
        <ele>1949</ele>
        <time>2021-08-13T07:56:57.165Z</time>
      </trkpt>
      <trkpt lat="46.84663" lon="8.43834">
        <ele>1949</ele>
        <time>2021-08-13T07:56:58.165Z</time>
      </trkpt>
      <trkpt lat="46.84664" lon="8.43832">
        <ele>1949</ele>
        <time>2021-08-13T07:56:59.165Z</time>
      </trkpt>
      <trkpt lat="46.84664" lon="8.43831">
        <ele>1948</ele>
        <time>2021-08-13T07:57:00.165Z</time>
      </trkpt>
      <trkpt lat="46.84664" lon="8.4383">
        <ele>1948</ele>
        <time>2021-08-13T07:57:01.165Z</time>
      </trkpt>
      <trkpt lat="46.84664" lon="8.43829">
        <ele>1947</ele>
        <time>2021-08-13T07:57:02.164Z</time>
      </trkpt>
      <trkpt lat="46.84663" lon="8.43828">
        <ele>1947</ele>
        <time>2021-08-13T07:57:03.165Z</time>
      </trkpt>
      <trkpt lat="46.84663" lon="8.43827">
        <ele>1947</ele>
        <time>2021-08-13T07:57:04.164Z</time>
      </trkpt>
      <trkpt lat="46.84663" lon="8.43826">
        <ele>1948</ele>
        <time>2021-08-13T07:57:05.164Z</time>
      </trkpt>
      <trkpt lat="46.84662" lon="8.43824">
        <ele>1947</ele>
        <time>2021-08-13T07:57:06.165Z</time>
      </trkpt>
      <trkpt lat="46.84662" lon="8.43822">
        <ele>1947</ele>
        <time>2021-08-13T07:57:07.165Z</time>
      </trkpt>
      <trkpt lat="46.84662" lon="8.43821">
        <ele>1947</ele>
        <time>2021-08-13T07:57:08.164Z</time>
      </trkpt>
      <trkpt lat="46.84662" lon="8.4382">
        <ele>1946</ele>
        <time>2021-08-13T07:57:09.165Z</time>
      </trkpt>
      <trkpt lat="46.84661" lon="8.43818">
        <ele>1945</ele>
        <time>2021-08-13T07:57:10.165Z</time>
      </trkpt>
      <trkpt lat="46.8466" lon="8.43817">
        <ele>1945</ele>
        <time>2021-08-13T07:57:11.165Z</time>
      </trkpt>
      <trkpt lat="46.8466" lon="8.43816">
        <ele>1945</ele>
        <time>2021-08-13T07:57:12.164Z</time>
      </trkpt>
      <trkpt lat="46.8466" lon="8.43815">
        <ele>1945</ele>
        <time>2021-08-13T07:57:13.165Z</time>
      </trkpt>
      <trkpt lat="46.8466" lon="8.43814">
        <ele>1945</ele>
        <time>2021-08-13T07:57:14.165Z</time>
      </trkpt>
      <trkpt lat="46.84659" lon="8.43813">
        <ele>1945</ele>
        <time>2021-08-13T07:57:15.165Z</time>
      </trkpt>
      <trkpt lat="46.84659" lon="8.43812">
        <ele>1945</ele>
        <time>2021-08-13T07:57:16.165Z</time>
      </trkpt>
      <trkpt lat="46.84658" lon="8.4381">
        <ele>1945</ele>
        <time>2021-08-13T07:57:17.165Z</time>
      </trkpt>
      <trkpt lat="46.84658" lon="8.43809">
        <ele>1944</ele>
        <time>2021-08-13T07:57:18.165Z</time>
      </trkpt>
      <trkpt lat="46.84657" lon="8.43808">
        <ele>1944</ele>
        <time>2021-08-13T07:57:19.165Z</time>
      </trkpt>
      <trkpt lat="46.84656" lon="8.43807">
        <ele>1944</ele>
        <time>2021-08-13T07:57:20.164Z</time>
      </trkpt>
      <trkpt lat="46.84655" lon="8.43807">
        <ele>1944</ele>
        <time>2021-08-13T07:57:21.165Z</time>
      </trkpt>
      <trkpt lat="46.84655" lon="8.43807">
        <ele>1943</ele>
        <time>2021-08-13T07:57:22.164Z</time>
      </trkpt>
      <trkpt lat="46.84655" lon="8.43806">
        <ele>1943</ele>
        <time>2021-08-13T07:57:23.165Z</time>
      </trkpt>
      <trkpt lat="46.84655" lon="8.43805">
        <ele>1942</ele>
        <time>2021-08-13T07:57:24.165Z</time>
      </trkpt>
      <trkpt lat="46.84654" lon="8.43804">
        <ele>1942</ele>
        <time>2021-08-13T07:57:25.165Z</time>
      </trkpt>
      <trkpt lat="46.84654" lon="8.43803">
        <ele>1942</ele>
        <time>2021-08-13T07:57:26.165Z</time>
      </trkpt>
      <trkpt lat="46.84654" lon="8.43803">
        <ele>1942</ele>
        <time>2021-08-13T07:57:27.165Z</time>
      </trkpt>
      <trkpt lat="46.84653" lon="8.43802">
        <ele>1942</ele>
        <time>2021-08-13T07:57:28.165Z</time>
      </trkpt>
      <trkpt lat="46.84653" lon="8.43802">
        <ele>1942</ele>
        <time>2021-08-13T07:57:29.165Z</time>
      </trkpt>
      <trkpt lat="46.84652" lon="8.43801">
        <ele>1942</ele>
        <time>2021-08-13T07:57:30.164Z</time>
      </trkpt>
      <trkpt lat="46.84651" lon="8.43801">
        <ele>1942</ele>
        <time>2021-08-13T07:57:31.165Z</time>
      </trkpt>
      <trkpt lat="46.84651" lon="8.438">
        <ele>1942</ele>
        <time>2021-08-13T07:57:32.165Z</time>
      </trkpt>
      <trkpt lat="46.8465" lon="8.43798">
        <ele>1943</ele>
        <time>2021-08-13T07:57:33.165Z</time>
      </trkpt>
      <trkpt lat="46.8465" lon="8.43796">
        <ele>1943</ele>
        <time>2021-08-13T07:57:34.164Z</time>
      </trkpt>
      <trkpt lat="46.8465" lon="8.43795">
        <ele>1943</ele>
        <time>2021-08-13T07:57:35.165Z</time>
      </trkpt>
      <trkpt lat="46.84649" lon="8.43793">
        <ele>1943</ele>
        <time>2021-08-13T07:57:36.165Z</time>
      </trkpt>
      <trkpt lat="46.84649" lon="8.43792">
        <ele>1943</ele>
        <time>2021-08-13T07:57:37.164Z</time>
      </trkpt>
      <trkpt lat="46.8465" lon="8.4379">
        <ele>1943</ele>
        <time>2021-08-13T07:57:38.165Z</time>
      </trkpt>
      <trkpt lat="46.8465" lon="8.43787">
        <ele>1943</ele>
        <time>2021-08-13T07:57:39.165Z</time>
      </trkpt>
      <trkpt lat="46.84651" lon="8.43785">
        <ele>1943</ele>
        <time>2021-08-13T07:57:40.165Z</time>
      </trkpt>
      <trkpt lat="46.84651" lon="8.43783">
        <ele>1943</ele>
        <time>2021-08-13T07:57:41.165Z</time>
      </trkpt>
      <trkpt lat="46.8465" lon="8.43782">
        <ele>1943</ele>
        <time>2021-08-13T07:57:42.165Z</time>
      </trkpt>
      <trkpt lat="46.8465" lon="8.4378">
        <ele>1943</ele>
        <time>2021-08-13T07:57:43.165Z</time>
      </trkpt>
      <trkpt lat="46.8465" lon="8.43779">
        <ele>1943</ele>
        <time>2021-08-13T07:57:44.165Z</time>
      </trkpt>
      <trkpt lat="46.8465" lon="8.43778">
        <ele>1943</ele>
        <time>2021-08-13T07:57:45.165Z</time>
      </trkpt>
      <trkpt lat="46.84649" lon="8.43777">
        <ele>1943</ele>
        <time>2021-08-13T07:57:46.164Z</time>
      </trkpt>
      <trkpt lat="46.84649" lon="8.43776">
        <ele>1942</ele>
        <time>2021-08-13T07:57:47.165Z</time>
      </trkpt>
      <trkpt lat="46.84648" lon="8.43775">
        <ele>1942</ele>
        <time>2021-08-13T07:57:48.165Z</time>
      </trkpt>
      <trkpt lat="46.84648" lon="8.43774">
        <ele>1941</ele>
        <time>2021-08-13T07:57:49.164Z</time>
      </trkpt>
      <trkpt lat="46.84648" lon="8.43772">
        <ele>1941</ele>
        <time>2021-08-13T07:57:50.165Z</time>
      </trkpt>
      <trkpt lat="46.84647" lon="8.43771">
        <ele>1941</ele>
        <time>2021-08-13T07:57:51.165Z</time>
      </trkpt>
      <trkpt lat="46.84647" lon="8.4377">
        <ele>1940</ele>
        <time>2021-08-13T07:57:52.165Z</time>
      </trkpt>
      <trkpt lat="46.84647" lon="8.43769">
        <ele>1940</ele>
        <time>2021-08-13T07:57:53.165Z</time>
      </trkpt>
      <trkpt lat="46.84647" lon="8.43769">
        <ele>1940</ele>
        <time>2021-08-13T07:57:54.165Z</time>
      </trkpt>
      <trkpt lat="46.84647" lon="8.43769">
        <ele>1940</ele>
        <time>2021-08-13T07:57:55.165Z</time>
      </trkpt>
      <trkpt lat="46.84646" lon="8.43769">
        <ele>1941</ele>
        <time>2021-08-13T07:57:56.165Z</time>
      </trkpt>
      <trkpt lat="46.84646" lon="8.43768">
        <ele>1941</ele>
        <time>2021-08-13T07:57:57.165Z</time>
      </trkpt>
      <trkpt lat="46.84646" lon="8.43767">
        <ele>1941</ele>
        <time>2021-08-13T07:57:58.165Z</time>
      </trkpt>
      <trkpt lat="46.84646" lon="8.43765">
        <ele>1942</ele>
        <time>2021-08-13T07:57:59.165Z</time>
      </trkpt>
      <trkpt lat="46.84646" lon="8.43763">
        <ele>1942</ele>
        <time>2021-08-13T07:58:00.164Z</time>
      </trkpt>
      <trkpt lat="46.84645" lon="8.43762">
        <ele>1942</ele>
        <time>2021-08-13T07:58:01.164Z</time>
      </trkpt>
      <trkpt lat="46.84644" lon="8.43759">
        <ele>1942</ele>
        <time>2021-08-13T07:58:02.165Z</time>
      </trkpt>
      <trkpt lat="46.84643" lon="8.43758">
        <ele>1942</ele>
        <time>2021-08-13T07:58:03.164Z</time>
      </trkpt>
      <trkpt lat="46.84643" lon="8.43756">
        <ele>1942</ele>
        <time>2021-08-13T07:58:04.164Z</time>
      </trkpt>
      <trkpt lat="46.84642" lon="8.43755">
        <ele>1942</ele>
        <time>2021-08-13T07:58:05.164Z</time>
      </trkpt>
      <trkpt lat="46.84642" lon="8.43754">
        <ele>1942</ele>
        <time>2021-08-13T07:58:06.164Z</time>
      </trkpt>
      <trkpt lat="46.84641" lon="8.43753">
        <ele>1941</ele>
        <time>2021-08-13T07:58:07.164Z</time>
      </trkpt>
      <trkpt lat="46.8464" lon="8.43752">
        <ele>1941</ele>
        <time>2021-08-13T07:58:08.164Z</time>
      </trkpt>
      <trkpt lat="46.84639" lon="8.43751">
        <ele>1941</ele>
        <time>2021-08-13T07:58:09.165Z</time>
      </trkpt>
      <trkpt lat="46.84637" lon="8.4375">
        <ele>1940</ele>
        <time>2021-08-13T07:58:10.164Z</time>
      </trkpt>
      <trkpt lat="46.84636" lon="8.43748">
        <ele>1940</ele>
        <time>2021-08-13T07:58:11.164Z</time>
      </trkpt>
      <trkpt lat="46.84635" lon="8.43746">
        <ele>1939</ele>
        <time>2021-08-13T07:58:12.164Z</time>
      </trkpt>
      <trkpt lat="46.84634" lon="8.43745">
        <ele>1939</ele>
        <time>2021-08-13T07:58:13.164Z</time>
      </trkpt>
      <trkpt lat="46.84633" lon="8.43744">
        <ele>1939</ele>
        <time>2021-08-13T07:58:14.164Z</time>
      </trkpt>
      <trkpt lat="46.84632" lon="8.43743">
        <ele>1939</ele>
        <time>2021-08-13T07:58:15.164Z</time>
      </trkpt>
      <trkpt lat="46.84631" lon="8.43742">
        <ele>1939</ele>
        <time>2021-08-13T07:58:16.164Z</time>
      </trkpt>
      <trkpt lat="46.8463" lon="8.43741">
        <ele>1939</ele>
        <time>2021-08-13T07:58:17.164Z</time>
      </trkpt>
      <trkpt lat="46.84629" lon="8.43741">
        <ele>1940</ele>
        <time>2021-08-13T07:58:18.164Z</time>
      </trkpt>
      <trkpt lat="46.84629" lon="8.4374">
        <ele>1940</ele>
        <time>2021-08-13T07:58:19.164Z</time>
      </trkpt>
      <trkpt lat="46.84629" lon="8.43739">
        <ele>1940</ele>
        <time>2021-08-13T07:58:20.164Z</time>
      </trkpt>
      <trkpt lat="46.84628" lon="8.43737">
        <ele>1940</ele>
        <time>2021-08-13T07:58:21.164Z</time>
      </trkpt>
      <trkpt lat="46.84628" lon="8.43736">
        <ele>1941</ele>
        <time>2021-08-13T07:58:22.165Z</time>
      </trkpt>
      <trkpt lat="46.84628" lon="8.43735">
        <ele>1941</ele>
        <time>2021-08-13T07:58:23.164Z</time>
      </trkpt>
      <trkpt lat="46.84627" lon="8.43735">
        <ele>1941</ele>
        <time>2021-08-13T07:58:24.164Z</time>
      </trkpt>
      <trkpt lat="46.84627" lon="8.43734">
        <ele>1941</ele>
        <time>2021-08-13T07:58:25.164Z</time>
      </trkpt>
      <trkpt lat="46.84626" lon="8.43733">
        <ele>1941</ele>
        <time>2021-08-13T07:58:26.164Z</time>
      </trkpt>
      <trkpt lat="46.84626" lon="8.43732">
        <ele>1942</ele>
        <time>2021-08-13T07:58:27.165Z</time>
      </trkpt>
      <trkpt lat="46.84626" lon="8.43731">
        <ele>1942</ele>
        <time>2021-08-13T07:58:28.165Z</time>
      </trkpt>
      <trkpt lat="46.84626" lon="8.43729">
        <ele>1943</ele>
        <time>2021-08-13T07:58:29.165Z</time>
      </trkpt>
      <trkpt lat="46.84626" lon="8.43728">
        <ele>1943</ele>
        <time>2021-08-13T07:58:30.165Z</time>
      </trkpt>
      <trkpt lat="46.84626" lon="8.43727">
        <ele>1944</ele>
        <time>2021-08-13T07:58:31.165Z</time>
      </trkpt>
      <trkpt lat="46.84626" lon="8.43725">
        <ele>1944</ele>
        <time>2021-08-13T07:58:32.165Z</time>
      </trkpt>
      <trkpt lat="46.84626" lon="8.43723">
        <ele>1944</ele>
        <time>2021-08-13T07:58:33.165Z</time>
      </trkpt>
      <trkpt lat="46.84626" lon="8.43722">
        <ele>1945</ele>
        <time>2021-08-13T07:58:34.164Z</time>
      </trkpt>
      <trkpt lat="46.84627" lon="8.4372">
        <ele>1945</ele>
        <time>2021-08-13T07:58:35.165Z</time>
      </trkpt>
      <trkpt lat="46.84627" lon="8.43719">
        <ele>1945</ele>
        <time>2021-08-13T07:58:36.165Z</time>
      </trkpt>
      <trkpt lat="46.84627" lon="8.43718">
        <ele>1946</ele>
        <time>2021-08-13T07:58:37.164Z</time>
      </trkpt>
      <trkpt lat="46.84627" lon="8.43716">
        <ele>1946</ele>
        <time>2021-08-13T07:58:38.164Z</time>
      </trkpt>
      <trkpt lat="46.84627" lon="8.43714">
        <ele>1946</ele>
        <time>2021-08-13T07:58:39.165Z</time>
      </trkpt>
      <trkpt lat="46.84627" lon="8.43712">
        <ele>1945</ele>
        <time>2021-08-13T07:58:40.164Z</time>
      </trkpt>
      <trkpt lat="46.84626" lon="8.43712">
        <ele>1945</ele>
        <time>2021-08-13T07:58:41.164Z</time>
      </trkpt>
      <trkpt lat="46.84626" lon="8.43711">
        <ele>1945</ele>
        <time>2021-08-13T07:58:42.165Z</time>
      </trkpt>
      <trkpt lat="46.84626" lon="8.43711">
        <ele>1946</ele>
        <time>2021-08-13T07:58:43.164Z</time>
      </trkpt>
      <trkpt lat="46.84627" lon="8.43709">
        <ele>1946</ele>
        <time>2021-08-13T07:58:44.165Z</time>
      </trkpt>
      <trkpt lat="46.84627" lon="8.43708">
        <ele>1946</ele>
        <time>2021-08-13T07:58:45.165Z</time>
      </trkpt>
      <trkpt lat="46.84627" lon="8.43706">
        <ele>1947</ele>
        <time>2021-08-13T07:58:46.164Z</time>
      </trkpt>
      <trkpt lat="46.84627" lon="8.43704">
        <ele>1947</ele>
        <time>2021-08-13T07:58:47.165Z</time>
      </trkpt>
      <trkpt lat="46.84627" lon="8.43702">
        <ele>1947</ele>
        <time>2021-08-13T07:58:48.164Z</time>
      </trkpt>
      <trkpt lat="46.84626" lon="8.43701">
        <ele>1947</ele>
        <time>2021-08-13T07:58:49.164Z</time>
      </trkpt>
      <trkpt lat="46.84626" lon="8.43699">
        <ele>1947</ele>
        <time>2021-08-13T07:58:50.165Z</time>
      </trkpt>
      <trkpt lat="46.84626" lon="8.43698">
        <ele>1947</ele>
        <time>2021-08-13T07:58:51.165Z</time>
      </trkpt>
      <trkpt lat="46.84626" lon="8.43697">
        <ele>1947</ele>
        <time>2021-08-13T07:58:52.165Z</time>
      </trkpt>
      <trkpt lat="46.84625" lon="8.43696">
        <ele>1946</ele>
        <time>2021-08-13T07:58:53.164Z</time>
      </trkpt>
      <trkpt lat="46.84624" lon="8.43695">
        <ele>1946</ele>
        <time>2021-08-13T07:58:54.165Z</time>
      </trkpt>
      <trkpt lat="46.84623" lon="8.43694">
        <ele>1945</ele>
        <time>2021-08-13T07:58:55.165Z</time>
      </trkpt>
      <trkpt lat="46.84623" lon="8.43692">
        <ele>1945</ele>
        <time>2021-08-13T07:58:56.164Z</time>
      </trkpt>
      <trkpt lat="46.84622" lon="8.4369">
        <ele>1945</ele>
        <time>2021-08-13T07:58:57.164Z</time>
      </trkpt>
      <trkpt lat="46.84621" lon="8.43688">
        <ele>1945</ele>
        <time>2021-08-13T07:58:58.165Z</time>
      </trkpt>
      <trkpt lat="46.8462" lon="8.43686">
        <ele>1944</ele>
        <time>2021-08-13T07:58:59.164Z</time>
      </trkpt>
      <trkpt lat="46.8462" lon="8.43685">
        <ele>1944</ele>
        <time>2021-08-13T07:59:00.165Z</time>
      </trkpt>
      <trkpt lat="46.8462" lon="8.43683">
        <ele>1943</ele>
        <time>2021-08-13T07:59:01.165Z</time>
      </trkpt>
      <trkpt lat="46.84619" lon="8.43682">
        <ele>1943</ele>
        <time>2021-08-13T07:59:02.165Z</time>
      </trkpt>
      <trkpt lat="46.84619" lon="8.43681">
        <ele>1942</ele>
        <time>2021-08-13T07:59:03.165Z</time>
      </trkpt>
      <trkpt lat="46.84618" lon="8.43679">
        <ele>1942</ele>
        <time>2021-08-13T07:59:04.165Z</time>
      </trkpt>
      <trkpt lat="46.84617" lon="8.43678">
        <ele>1941</ele>
        <time>2021-08-13T07:59:05.165Z</time>
      </trkpt>
      <trkpt lat="46.84616" lon="8.43677">
        <ele>1941</ele>
        <time>2021-08-13T07:59:06.165Z</time>
      </trkpt>
      <trkpt lat="46.84615" lon="8.43676">
        <ele>1940</ele>
        <time>2021-08-13T07:59:07.165Z</time>
      </trkpt>
      <trkpt lat="46.84614" lon="8.43676">
        <ele>1940</ele>
        <time>2021-08-13T07:59:08.165Z</time>
      </trkpt>
      <trkpt lat="46.84614" lon="8.43675">
        <ele>1939</ele>
        <time>2021-08-13T07:59:09.164Z</time>
      </trkpt>
      <trkpt lat="46.84614" lon="8.43674">
        <ele>1939</ele>
        <time>2021-08-13T07:59:10.165Z</time>
      </trkpt>
      <trkpt lat="46.84613" lon="8.43674">
        <ele>1939</ele>
        <time>2021-08-13T07:59:11.165Z</time>
      </trkpt>
      <trkpt lat="46.84613" lon="8.43674">
        <ele>1938</ele>
        <time>2021-08-13T07:59:12.164Z</time>
      </trkpt>
      <trkpt lat="46.84612" lon="8.43673">
        <ele>1938</ele>
        <time>2021-08-13T07:59:13.164Z</time>
      </trkpt>
      <trkpt lat="46.84612" lon="8.43671">
        <ele>1938</ele>
        <time>2021-08-13T07:59:14.164Z</time>
      </trkpt>
      <trkpt lat="46.8461" lon="8.4367">
        <ele>1938</ele>
        <time>2021-08-13T07:59:15.165Z</time>
      </trkpt>
      <trkpt lat="46.84609" lon="8.43668">
        <ele>1937</ele>
        <time>2021-08-13T07:59:16.165Z</time>
      </trkpt>
      <trkpt lat="46.84608" lon="8.43667">
        <ele>1937</ele>
        <time>2021-08-13T07:59:17.164Z</time>
      </trkpt>
      <trkpt lat="46.84607" lon="8.43666">
        <ele>1937</ele>
        <time>2021-08-13T07:59:18.164Z</time>
      </trkpt>
      <trkpt lat="46.84605" lon="8.43664">
        <ele>1936</ele>
        <time>2021-08-13T07:59:19.165Z</time>
      </trkpt>
      <trkpt lat="46.84605" lon="8.43664">
        <ele>1936</ele>
        <time>2021-08-13T07:59:20.164Z</time>
      </trkpt>
      <trkpt lat="46.84604" lon="8.43663">
        <ele>1936</ele>
        <time>2021-08-13T07:59:21.165Z</time>
      </trkpt>
      <trkpt lat="46.84603" lon="8.43663">
        <ele>1935</ele>
        <time>2021-08-13T07:59:22.164Z</time>
      </trkpt>
      <trkpt lat="46.84602" lon="8.43662">
        <ele>1935</ele>
        <time>2021-08-13T07:59:23.165Z</time>
      </trkpt>
      <trkpt lat="46.84601" lon="8.43661">
        <ele>1935</ele>
        <time>2021-08-13T07:59:24.164Z</time>
      </trkpt>
      <trkpt lat="46.84599" lon="8.43661">
        <ele>1935</ele>
        <time>2021-08-13T07:59:25.165Z</time>
      </trkpt>
      <trkpt lat="46.84599" lon="8.4366">
        <ele>1935</ele>
        <time>2021-08-13T07:59:26.165Z</time>
      </trkpt>
      <trkpt lat="46.84598" lon="8.4366">
        <ele>1935</ele>
        <time>2021-08-13T07:59:27.165Z</time>
      </trkpt>
      <trkpt lat="46.84597" lon="8.43659">
        <ele>1935</ele>
        <time>2021-08-13T07:59:28.165Z</time>
      </trkpt>
      <trkpt lat="46.84596" lon="8.43659">
        <ele>1935</ele>
        <time>2021-08-13T07:59:29.165Z</time>
      </trkpt>
      <trkpt lat="46.84595" lon="8.43658">
        <ele>1935</ele>
        <time>2021-08-13T07:59:30.164Z</time>
      </trkpt>
      <trkpt lat="46.84594" lon="8.43658">
        <ele>1934</ele>
        <time>2021-08-13T07:59:31.164Z</time>
      </trkpt>
      <trkpt lat="46.84593" lon="8.43658">
        <ele>1934</ele>
        <time>2021-08-13T07:59:32.165Z</time>
      </trkpt>
      <trkpt lat="46.84593" lon="8.43658">
        <ele>1934</ele>
        <time>2021-08-13T07:59:33.164Z</time>
      </trkpt>
      <trkpt lat="46.84592" lon="8.43657">
        <ele>1934</ele>
        <time>2021-08-13T07:59:34.165Z</time>
      </trkpt>
      <trkpt lat="46.84591" lon="8.43656">
        <ele>1933</ele>
        <time>2021-08-13T07:59:35.165Z</time>
      </trkpt>
      <trkpt lat="46.84591" lon="8.43655">
        <ele>1933</ele>
        <time>2021-08-13T07:59:36.165Z</time>
      </trkpt>
      <trkpt lat="46.8459" lon="8.43654">
        <ele>1933</ele>
        <time>2021-08-13T07:59:37.165Z</time>
      </trkpt>
      <trkpt lat="46.8459" lon="8.43653">
        <ele>1933</ele>
        <time>2021-08-13T07:59:38.165Z</time>
      </trkpt>
      <trkpt lat="46.84589" lon="8.43652">
        <ele>1933</ele>
        <time>2021-08-13T07:59:39.165Z</time>
      </trkpt>
      <trkpt lat="46.84589" lon="8.4365">
        <ele>1933</ele>
        <time>2021-08-13T07:59:40.165Z</time>
      </trkpt>
      <trkpt lat="46.84588" lon="8.43649">
        <ele>1934</ele>
        <time>2021-08-13T07:59:41.164Z</time>
      </trkpt>
      <trkpt lat="46.84587" lon="8.43648">
        <ele>1934</ele>
        <time>2021-08-13T07:59:42.165Z</time>
      </trkpt>
      <trkpt lat="46.84587" lon="8.43647">
        <ele>1935</ele>
        <time>2021-08-13T07:59:43.165Z</time>
      </trkpt>
      <trkpt lat="46.84587" lon="8.43645">
        <ele>1935</ele>
        <time>2021-08-13T07:59:44.164Z</time>
      </trkpt>
      <trkpt lat="46.84586" lon="8.43644">
        <ele>1936</ele>
        <time>2021-08-13T07:59:45.165Z</time>
      </trkpt>
      <trkpt lat="46.84585" lon="8.43643">
        <ele>1936</ele>
        <time>2021-08-13T07:59:46.165Z</time>
      </trkpt>
      <trkpt lat="46.84585" lon="8.43642">
        <ele>1937</ele>
        <time>2021-08-13T07:59:47.164Z</time>
      </trkpt>
      <trkpt lat="46.84584" lon="8.43642">
        <ele>1937</ele>
        <time>2021-08-13T07:59:48.164Z</time>
      </trkpt>
      <trkpt lat="46.84584" lon="8.43641">
        <ele>1937</ele>
        <time>2021-08-13T07:59:49.165Z</time>
      </trkpt>
      <trkpt lat="46.84583" lon="8.4364">
        <ele>1938</ele>
        <time>2021-08-13T07:59:50.164Z</time>
      </trkpt>
      <trkpt lat="46.84582" lon="8.43639">
        <ele>1938</ele>
        <time>2021-08-13T07:59:51.164Z</time>
      </trkpt>
      <trkpt lat="46.84581" lon="8.43638">
        <ele>1938</ele>
        <time>2021-08-13T07:59:52.165Z</time>
      </trkpt>
      <trkpt lat="46.8458" lon="8.43636">
        <ele>1938</ele>
        <time>2021-08-13T07:59:53.165Z</time>
      </trkpt>
      <trkpt lat="46.84579" lon="8.43635">
        <ele>1938</ele>
        <time>2021-08-13T07:59:54.164Z</time>
      </trkpt>
      <trkpt lat="46.84577" lon="8.43634">
        <ele>1938</ele>
        <time>2021-08-13T07:59:55.164Z</time>
      </trkpt>
      <trkpt lat="46.84576" lon="8.43632">
        <ele>1938</ele>
        <time>2021-08-13T07:59:56.164Z</time>
      </trkpt>
      <trkpt lat="46.84576" lon="8.43631">
        <ele>1938</ele>
        <time>2021-08-13T07:59:57.164Z</time>
      </trkpt>
      <trkpt lat="46.84575" lon="8.43629">
        <ele>1938</ele>
        <time>2021-08-13T07:59:58.164Z</time>
      </trkpt>
      <trkpt lat="46.84574" lon="8.43627">
        <ele>1938</ele>
        <time>2021-08-13T07:59:59.165Z</time>
      </trkpt>
      <trkpt lat="46.84574" lon="8.43624">
        <ele>1938</ele>
        <time>2021-08-13T08:00:00.164Z</time>
      </trkpt>
      <trkpt lat="46.84573" lon="8.43623">
        <ele>1938</ele>
        <time>2021-08-13T08:00:01.165Z</time>
      </trkpt>
      <trkpt lat="46.84573" lon="8.43621">
        <ele>1937</ele>
        <time>2021-08-13T08:00:02.164Z</time>
      </trkpt>
      <trkpt lat="46.84572" lon="8.4362">
        <ele>1937</ele>
        <time>2021-08-13T08:00:03.165Z</time>
      </trkpt>
      <trkpt lat="46.84572" lon="8.4362">
        <ele>1937</ele>
        <time>2021-08-13T08:00:04.165Z</time>
      </trkpt>
      <trkpt lat="46.84572" lon="8.43619">
        <ele>1937</ele>
        <time>2021-08-13T08:00:05.165Z</time>
      </trkpt>
      <trkpt lat="46.84572" lon="8.43618">
        <ele>1938</ele>
        <time>2021-08-13T08:00:06.165Z</time>
      </trkpt>
      <trkpt lat="46.84571" lon="8.43616">
        <ele>1938</ele>
        <time>2021-08-13T08:00:07.165Z</time>
      </trkpt>
      <trkpt lat="46.84571" lon="8.43615">
        <ele>1938</ele>
        <time>2021-08-13T08:00:08.164Z</time>
      </trkpt>
      <trkpt lat="46.8457" lon="8.43614">
        <ele>1938</ele>
        <time>2021-08-13T08:00:09.164Z</time>
      </trkpt>
      <trkpt lat="46.8457" lon="8.43613">
        <ele>1937</ele>
        <time>2021-08-13T08:00:10.164Z</time>
      </trkpt>
      <trkpt lat="46.8457" lon="8.43611">
        <ele>1937</ele>
        <time>2021-08-13T08:00:11.165Z</time>
      </trkpt>
      <trkpt lat="46.84569" lon="8.4361">
        <ele>1936</ele>
        <time>2021-08-13T08:00:12.164Z</time>
      </trkpt>
      <trkpt lat="46.84569" lon="8.43609">
        <ele>1935</ele>
        <time>2021-08-13T08:00:13.164Z</time>
      </trkpt>
      <trkpt lat="46.84569" lon="8.43608">
        <ele>1935</ele>
        <time>2021-08-13T08:00:14.165Z</time>
      </trkpt>
      <trkpt lat="46.84569" lon="8.43607">
        <ele>1934</ele>
        <time>2021-08-13T08:00:15.165Z</time>
      </trkpt>
      <trkpt lat="46.84568" lon="8.43605">
        <ele>1933</ele>
        <time>2021-08-13T08:00:16.165Z</time>
      </trkpt>
      <trkpt lat="46.84568" lon="8.43604">
        <ele>1933</ele>
        <time>2021-08-13T08:00:17.164Z</time>
      </trkpt>
      <trkpt lat="46.84567" lon="8.43602">
        <ele>1933</ele>
        <time>2021-08-13T08:00:18.165Z</time>
      </trkpt>
      <trkpt lat="46.84567" lon="8.43601">
        <ele>1932</ele>
        <time>2021-08-13T08:00:19.165Z</time>
      </trkpt>
      <trkpt lat="46.84567" lon="8.43599">
        <ele>1932</ele>
        <time>2021-08-13T08:00:20.165Z</time>
      </trkpt>
      <trkpt lat="46.84566" lon="8.43597">
        <ele>1933</ele>
        <time>2021-08-13T08:00:21.165Z</time>
      </trkpt>
      <trkpt lat="46.84566" lon="8.43596">
        <ele>1933</ele>
        <time>2021-08-13T08:00:22.165Z</time>
      </trkpt>
      <trkpt lat="46.84565" lon="8.43594">
        <ele>1933</ele>
        <time>2021-08-13T08:00:23.165Z</time>
      </trkpt>
      <trkpt lat="46.84565" lon="8.43593">
        <ele>1933</ele>
        <time>2021-08-13T08:00:24.165Z</time>
      </trkpt>
      <trkpt lat="46.84564" lon="8.43591">
        <ele>1933</ele>
        <time>2021-08-13T08:00:25.165Z</time>
      </trkpt>
      <trkpt lat="46.84563" lon="8.4359">
        <ele>1932</ele>
        <time>2021-08-13T08:00:26.165Z</time>
      </trkpt>
      <trkpt lat="46.84562" lon="8.43588">
        <ele>1932</ele>
        <time>2021-08-13T08:00:27.165Z</time>
      </trkpt>
      <trkpt lat="46.84561" lon="8.43587">
        <ele>1932</ele>
        <time>2021-08-13T08:00:28.164Z</time>
      </trkpt>
      <trkpt lat="46.84561" lon="8.43586">
        <ele>1932</ele>
        <time>2021-08-13T08:00:29.165Z</time>
      </trkpt>
      <trkpt lat="46.8456" lon="8.43584">
        <ele>1931</ele>
        <time>2021-08-13T08:00:30.165Z</time>
      </trkpt>
      <trkpt lat="46.84559" lon="8.43583">
        <ele>1931</ele>
        <time>2021-08-13T08:00:31.164Z</time>
      </trkpt>
      <trkpt lat="46.84558" lon="8.43582">
        <ele>1931</ele>
        <time>2021-08-13T08:00:32.164Z</time>
      </trkpt>
      <trkpt lat="46.84558" lon="8.43581">
        <ele>1930</ele>
        <time>2021-08-13T08:00:33.165Z</time>
      </trkpt>
      <trkpt lat="46.84557" lon="8.4358">
        <ele>1929</ele>
        <time>2021-08-13T08:00:34.165Z</time>
      </trkpt>
      <trkpt lat="46.84556" lon="8.43579">
        <ele>1929</ele>
        <time>2021-08-13T08:00:35.165Z</time>
      </trkpt>
      <trkpt lat="46.84555" lon="8.43579">
        <ele>1928</ele>
        <time>2021-08-13T08:00:36.165Z</time>
      </trkpt>
      <trkpt lat="46.84554" lon="8.43578">
        <ele>1928</ele>
        <time>2021-08-13T08:00:37.165Z</time>
      </trkpt>
      <trkpt lat="46.84553" lon="8.43578">
        <ele>1927</ele>
        <time>2021-08-13T08:00:38.165Z</time>
      </trkpt>
      <trkpt lat="46.84552" lon="8.43577">
        <ele>1927</ele>
        <time>2021-08-13T08:00:39.164Z</time>
      </trkpt>
      <trkpt lat="46.84551" lon="8.43577">
        <ele>1926</ele>
        <time>2021-08-13T08:00:40.165Z</time>
      </trkpt>
      <trkpt lat="46.8455" lon="8.43576">
        <ele>1926</ele>
        <time>2021-08-13T08:00:41.165Z</time>
      </trkpt>
      <trkpt lat="46.84549" lon="8.43575">
        <ele>1926</ele>
        <time>2021-08-13T08:00:42.164Z</time>
      </trkpt>
      <trkpt lat="46.84548" lon="8.43574">
        <ele>1926</ele>
        <time>2021-08-13T08:00:43.165Z</time>
      </trkpt>
      <trkpt lat="46.84547" lon="8.43573">
        <ele>1926</ele>
        <time>2021-08-13T08:00:44.165Z</time>
      </trkpt>
      <trkpt lat="46.84547" lon="8.43572">
        <ele>1927</ele>
        <time>2021-08-13T08:00:45.164Z</time>
      </trkpt>
      <trkpt lat="46.84546" lon="8.4357">
        <ele>1927</ele>
        <time>2021-08-13T08:00:46.164Z</time>
      </trkpt>
      <trkpt lat="46.84546" lon="8.43569">
        <ele>1928</ele>
        <time>2021-08-13T08:00:47.165Z</time>
      </trkpt>
      <trkpt lat="46.84545" lon="8.43568">
        <ele>1928</ele>
        <time>2021-08-13T08:00:48.164Z</time>
      </trkpt>
      <trkpt lat="46.84545" lon="8.43565">
        <ele>1929</ele>
        <time>2021-08-13T08:00:49.165Z</time>
      </trkpt>
      <trkpt lat="46.84544" lon="8.43564">
        <ele>1929</ele>
        <time>2021-08-13T08:00:50.165Z</time>
      </trkpt>
      <trkpt lat="46.84543" lon="8.43562">
        <ele>1929</ele>
        <time>2021-08-13T08:00:51.164Z</time>
      </trkpt>
      <trkpt lat="46.84542" lon="8.4356">
        <ele>1929</ele>
        <time>2021-08-13T08:00:52.165Z</time>
      </trkpt>
      <trkpt lat="46.84542" lon="8.43559">
        <ele>1928</ele>
        <time>2021-08-13T08:00:53.164Z</time>
      </trkpt>
      <trkpt lat="46.8454" lon="8.43558">
        <ele>1928</ele>
        <time>2021-08-13T08:00:54.165Z</time>
      </trkpt>
      <trkpt lat="46.84539" lon="8.43557">
        <ele>1928</ele>
        <time>2021-08-13T08:00:55.165Z</time>
      </trkpt>
      <trkpt lat="46.84537" lon="8.43556">
        <ele>1929</ele>
        <time>2021-08-13T08:00:56.165Z</time>
      </trkpt>
      <trkpt lat="46.84536" lon="8.43555">
        <ele>1929</ele>
        <time>2021-08-13T08:00:57.165Z</time>
      </trkpt>
      <trkpt lat="46.84535" lon="8.43553">
        <ele>1929</ele>
        <time>2021-08-13T08:00:58.165Z</time>
      </trkpt>
      <trkpt lat="46.84534" lon="8.43551">
        <ele>1928</ele>
        <time>2021-08-13T08:00:59.165Z</time>
      </trkpt>
      <trkpt lat="46.84533" lon="8.43551">
        <ele>1928</ele>
        <time>2021-08-13T08:01:00.165Z</time>
      </trkpt>
      <trkpt lat="46.84532" lon="8.43549">
        <ele>1928</ele>
        <time>2021-08-13T08:01:01.164Z</time>
      </trkpt>
      <trkpt lat="46.84531" lon="8.43548">
        <ele>1928</ele>
        <time>2021-08-13T08:01:02.164Z</time>
      </trkpt>
      <trkpt lat="46.8453" lon="8.43547">
        <ele>1927</ele>
        <time>2021-08-13T08:01:03.164Z</time>
      </trkpt>
      <trkpt lat="46.84529" lon="8.43546">
        <ele>1927</ele>
        <time>2021-08-13T08:01:04.165Z</time>
      </trkpt>
      <trkpt lat="46.84528" lon="8.43545">
        <ele>1926</ele>
        <time>2021-08-13T08:01:05.165Z</time>
      </trkpt>
      <trkpt lat="46.84527" lon="8.43544">
        <ele>1926</ele>
        <time>2021-08-13T08:01:06.165Z</time>
      </trkpt>
      <trkpt lat="46.84526" lon="8.43543">
        <ele>1926</ele>
        <time>2021-08-13T08:01:07.164Z</time>
      </trkpt>
      <trkpt lat="46.84524" lon="8.43541">
        <ele>1925</ele>
        <time>2021-08-13T08:01:08.165Z</time>
      </trkpt>
      <trkpt lat="46.84523" lon="8.4354">
        <ele>1925</ele>
        <time>2021-08-13T08:01:09.165Z</time>
      </trkpt>
      <trkpt lat="46.84522" lon="8.43538">
        <ele>1925</ele>
        <time>2021-08-13T08:01:10.165Z</time>
      </trkpt>
      <trkpt lat="46.84521" lon="8.43536">
        <ele>1925</ele>
        <time>2021-08-13T08:01:11.164Z</time>
      </trkpt>
      <trkpt lat="46.8452" lon="8.43535">
        <ele>1925</ele>
        <time>2021-08-13T08:01:12.164Z</time>
      </trkpt>
      <trkpt lat="46.84519" lon="8.43533">
        <ele>1925</ele>
        <time>2021-08-13T08:01:13.164Z</time>
      </trkpt>
      <trkpt lat="46.84518" lon="8.43532">
        <ele>1925</ele>
        <time>2021-08-13T08:01:14.164Z</time>
      </trkpt>
      <trkpt lat="46.84518" lon="8.43532">
        <ele>1924</ele>
        <time>2021-08-13T08:01:15.164Z</time>
      </trkpt>
      <trkpt lat="46.84517" lon="8.43531">
        <ele>1924</ele>
        <time>2021-08-13T08:01:16.164Z</time>
      </trkpt>
      <trkpt lat="46.84516" lon="8.4353">
        <ele>1924</ele>
        <time>2021-08-13T08:01:17.165Z</time>
      </trkpt>
      <trkpt lat="46.84515" lon="8.43528">
        <ele>1924</ele>
        <time>2021-08-13T08:01:18.164Z</time>
      </trkpt>
      <trkpt lat="46.84515" lon="8.43527">
        <ele>1924</ele>
        <time>2021-08-13T08:01:19.165Z</time>
      </trkpt>
      <trkpt lat="46.84514" lon="8.43525">
        <ele>1924</ele>
        <time>2021-08-13T08:01:20.164Z</time>
      </trkpt>
      <trkpt lat="46.84514" lon="8.43524">
        <ele>1924</ele>
        <time>2021-08-13T08:01:21.164Z</time>
      </trkpt>
      <trkpt lat="46.84513" lon="8.43523">
        <ele>1924</ele>
        <time>2021-08-13T08:01:22.164Z</time>
      </trkpt>
      <trkpt lat="46.84512" lon="8.43522">
        <ele>1924</ele>
        <time>2021-08-13T08:01:23.164Z</time>
      </trkpt>
      <trkpt lat="46.84512" lon="8.43521">
        <ele>1924</ele>
        <time>2021-08-13T08:01:24.164Z</time>
      </trkpt>
      <trkpt lat="46.84511" lon="8.43521">
        <ele>1924</ele>
        <time>2021-08-13T08:01:25.165Z</time>
      </trkpt>
      <trkpt lat="46.84511" lon="8.4352">
        <ele>1925</ele>
        <time>2021-08-13T08:01:26.164Z</time>
      </trkpt>
      <trkpt lat="46.8451" lon="8.43519">
        <ele>1925</ele>
        <time>2021-08-13T08:01:27.165Z</time>
      </trkpt>
      <trkpt lat="46.84509" lon="8.43517">
        <ele>1925</ele>
        <time>2021-08-13T08:01:28.164Z</time>
      </trkpt>
      <trkpt lat="46.84509" lon="8.43515">
        <ele>1926</ele>
        <time>2021-08-13T08:01:29.164Z</time>
      </trkpt>
      <trkpt lat="46.84508" lon="8.43514">
        <ele>1926</ele>
        <time>2021-08-13T08:01:30.165Z</time>
      </trkpt>
      <trkpt lat="46.84507" lon="8.43513">
        <ele>1927</ele>
        <time>2021-08-13T08:01:31.164Z</time>
      </trkpt>
      <trkpt lat="46.84507" lon="8.43513">
        <ele>1927</ele>
        <time>2021-08-13T08:01:32.165Z</time>
      </trkpt>
      <trkpt lat="46.84506" lon="8.43512">
        <ele>1927</ele>
        <time>2021-08-13T08:01:33.164Z</time>
      </trkpt>
      <trkpt lat="46.84504" lon="8.43511">
        <ele>1927</ele>
        <time>2021-08-13T08:01:34.164Z</time>
      </trkpt>
      <trkpt lat="46.84503" lon="8.4351">
        <ele>1928</ele>
        <time>2021-08-13T08:01:35.164Z</time>
      </trkpt>
      <trkpt lat="46.84502" lon="8.43509">
        <ele>1928</ele>
        <time>2021-08-13T08:01:36.164Z</time>
      </trkpt>
      <trkpt lat="46.84501" lon="8.43508">
        <ele>1928</ele>
        <time>2021-08-13T08:01:37.164Z</time>
      </trkpt>
      <trkpt lat="46.845" lon="8.43507">
        <ele>1928</ele>
        <time>2021-08-13T08:01:38.164Z</time>
      </trkpt>
      <trkpt lat="46.84499" lon="8.43506">
        <ele>1927</ele>
        <time>2021-08-13T08:01:39.165Z</time>
      </trkpt>
      <trkpt lat="46.84498" lon="8.43505">
        <ele>1927</ele>
        <time>2021-08-13T08:01:40.165Z</time>
      </trkpt>
      <trkpt lat="46.84497" lon="8.43505">
        <ele>1927</ele>
        <time>2021-08-13T08:01:41.165Z</time>
      </trkpt>
      <trkpt lat="46.84497" lon="8.43504">
        <ele>1927</ele>
        <time>2021-08-13T08:01:42.165Z</time>
      </trkpt>
      <trkpt lat="46.84496" lon="8.43504">
        <ele>1927</ele>
        <time>2021-08-13T08:01:43.165Z</time>
      </trkpt>
      <trkpt lat="46.84495" lon="8.43503">
        <ele>1927</ele>
        <time>2021-08-13T08:01:44.165Z</time>
      </trkpt>
      <trkpt lat="46.84494" lon="8.43502">
        <ele>1927</ele>
        <time>2021-08-13T08:01:45.165Z</time>
      </trkpt>
      <trkpt lat="46.84493" lon="8.43501">
        <ele>1927</ele>
        <time>2021-08-13T08:01:46.165Z</time>
      </trkpt>
      <trkpt lat="46.84492" lon="8.435">
        <ele>1927</ele>
        <time>2021-08-13T08:01:47.165Z</time>
      </trkpt>
      <trkpt lat="46.84491" lon="8.435">
        <ele>1928</ele>
        <time>2021-08-13T08:01:48.165Z</time>
      </trkpt>
      <trkpt lat="46.84491" lon="8.435">
        <ele>1928</ele>
        <time>2021-08-13T08:01:49.164Z</time>
      </trkpt>
      <trkpt lat="46.84491" lon="8.435">
        <ele>1928</ele>
        <time>2021-08-13T08:01:50.164Z</time>
      </trkpt>
      <trkpt lat="46.8449" lon="8.43498">
        <ele>1929</ele>
        <time>2021-08-13T08:01:51.165Z</time>
      </trkpt>
      <trkpt lat="46.84489" lon="8.43498">
        <ele>1929</ele>
        <time>2021-08-13T08:01:52.165Z</time>
      </trkpt>
      <trkpt lat="46.84488" lon="8.43497">
        <ele>1929</ele>
        <time>2021-08-13T08:01:53.164Z</time>
      </trkpt>
      <trkpt lat="46.84487" lon="8.43497">
        <ele>1929</ele>
        <time>2021-08-13T08:01:54.164Z</time>
      </trkpt>
      <trkpt lat="46.84486" lon="8.43496">
        <ele>1928</ele>
        <time>2021-08-13T08:01:55.164Z</time>
      </trkpt>
      <trkpt lat="46.84485" lon="8.43494">
        <ele>1929</ele>
        <time>2021-08-13T08:01:56.164Z</time>
      </trkpt>
      <trkpt lat="46.84485" lon="8.43493">
        <ele>1929</ele>
        <time>2021-08-13T08:01:57.164Z</time>
      </trkpt>
      <trkpt lat="46.84484" lon="8.43493">
        <ele>1929</ele>
        <time>2021-08-13T08:01:58.165Z</time>
      </trkpt>
      <trkpt lat="46.84484" lon="8.43492">
        <ele>1929</ele>
        <time>2021-08-13T08:01:59.165Z</time>
      </trkpt>
      <trkpt lat="46.84483" lon="8.43491">
        <ele>1929</ele>
        <time>2021-08-13T08:02:00.165Z</time>
      </trkpt>
      <trkpt lat="46.84483" lon="8.4349">
        <ele>1929</ele>
        <time>2021-08-13T08:02:01.164Z</time>
      </trkpt>
      <trkpt lat="46.84482" lon="8.43488">
        <ele>1929</ele>
        <time>2021-08-13T08:02:02.164Z</time>
      </trkpt>
      <trkpt lat="46.84482" lon="8.43487">
        <ele>1929</ele>
        <time>2021-08-13T08:02:03.164Z</time>
      </trkpt>
      <trkpt lat="46.84481" lon="8.43486">
        <ele>1928</ele>
        <time>2021-08-13T08:02:04.164Z</time>
      </trkpt>
      <trkpt lat="46.84481" lon="8.43485">
        <ele>1928</ele>
        <time>2021-08-13T08:02:05.164Z</time>
      </trkpt>
      <trkpt lat="46.84481" lon="8.43484">
        <ele>1927</ele>
        <time>2021-08-13T08:02:06.165Z</time>
      </trkpt>
      <trkpt lat="46.84481" lon="8.43483">
        <ele>1927</ele>
        <time>2021-08-13T08:02:07.164Z</time>
      </trkpt>
      <trkpt lat="46.8448" lon="8.43482">
        <ele>1926</ele>
        <time>2021-08-13T08:02:08.165Z</time>
      </trkpt>
      <trkpt lat="46.84479" lon="8.43481">
        <ele>1926</ele>
        <time>2021-08-13T08:02:09.165Z</time>
      </trkpt>
      <trkpt lat="46.84479" lon="8.4348">
        <ele>1926</ele>
        <time>2021-08-13T08:02:10.164Z</time>
      </trkpt>
      <trkpt lat="46.84478" lon="8.43479">
        <ele>1926</ele>
        <time>2021-08-13T08:02:11.164Z</time>
      </trkpt>
      <trkpt lat="46.84477" lon="8.43478">
        <ele>1926</ele>
        <time>2021-08-13T08:02:12.164Z</time>
      </trkpt>
      <trkpt lat="46.84476" lon="8.43477">
        <ele>1926</ele>
        <time>2021-08-13T08:02:13.164Z</time>
      </trkpt>
      <trkpt lat="46.84475" lon="8.43477">
        <ele>1925</ele>
        <time>2021-08-13T08:02:14.165Z</time>
      </trkpt>
      <trkpt lat="46.84475" lon="8.43475">
        <ele>1925</ele>
        <time>2021-08-13T08:02:15.164Z</time>
      </trkpt>
      <trkpt lat="46.84474" lon="8.43474">
        <ele>1925</ele>
        <time>2021-08-13T08:02:16.164Z</time>
      </trkpt>
      <trkpt lat="46.84474" lon="8.43472">
        <ele>1925</ele>
        <time>2021-08-13T08:02:17.165Z</time>
      </trkpt>
      <trkpt lat="46.84474" lon="8.43471">
        <ele>1924</ele>
        <time>2021-08-13T08:02:18.164Z</time>
      </trkpt>
      <trkpt lat="46.84473" lon="8.4347">
        <ele>1924</ele>
        <time>2021-08-13T08:02:19.165Z</time>
      </trkpt>
      <trkpt lat="46.84473" lon="8.43468">
        <ele>1923</ele>
        <time>2021-08-13T08:02:20.164Z</time>
      </trkpt>
      <trkpt lat="46.84473" lon="8.43467">
        <ele>1923</ele>
        <time>2021-08-13T08:02:21.164Z</time>
      </trkpt>
      <trkpt lat="46.84472" lon="8.43465">
        <ele>1923</ele>
        <time>2021-08-13T08:02:22.164Z</time>
      </trkpt>
      <trkpt lat="46.84472" lon="8.43464">
        <ele>1922</ele>
        <time>2021-08-13T08:02:23.164Z</time>
      </trkpt>
      <trkpt lat="46.84472" lon="8.43463">
        <ele>1922</ele>
        <time>2021-08-13T08:02:24.164Z</time>
      </trkpt>
      <trkpt lat="46.84472" lon="8.43461">
        <ele>1922</ele>
        <time>2021-08-13T08:02:25.164Z</time>
      </trkpt>
      <trkpt lat="46.84472" lon="8.4346">
        <ele>1921</ele>
        <time>2021-08-13T08:02:26.164Z</time>
      </trkpt>
      <trkpt lat="46.84472" lon="8.43458">
        <ele>1921</ele>
        <time>2021-08-13T08:02:27.164Z</time>
      </trkpt>
      <trkpt lat="46.84472" lon="8.43456">
        <ele>1920</ele>
        <time>2021-08-13T08:02:28.165Z</time>
      </trkpt>
      <trkpt lat="46.84473" lon="8.43455">
        <ele>1920</ele>
        <time>2021-08-13T08:02:29.164Z</time>
      </trkpt>
      <trkpt lat="46.84473" lon="8.43454">
        <ele>1920</ele>
        <time>2021-08-13T08:02:30.164Z</time>
      </trkpt>
      <trkpt lat="46.84474" lon="8.43452">
        <ele>1920</ele>
        <time>2021-08-13T08:02:31.164Z</time>
      </trkpt>
      <trkpt lat="46.84475" lon="8.43451">
        <ele>1920</ele>
        <time>2021-08-13T08:02:32.164Z</time>
      </trkpt>
      <trkpt lat="46.84476" lon="8.43449">
        <ele>1920</ele>
        <time>2021-08-13T08:02:33.164Z</time>
      </trkpt>
      <trkpt lat="46.84476" lon="8.43448">
        <ele>1920</ele>
        <time>2021-08-13T08:02:34.165Z</time>
      </trkpt>
      <trkpt lat="46.84475" lon="8.43447">
        <ele>1920</ele>
        <time>2021-08-13T08:02:35.164Z</time>
      </trkpt>
      <trkpt lat="46.84475" lon="8.43445">
        <ele>1919</ele>
        <time>2021-08-13T08:02:36.164Z</time>
      </trkpt>
      <trkpt lat="46.84476" lon="8.43444">
        <ele>1919</ele>
        <time>2021-08-13T08:02:37.164Z</time>
      </trkpt>
      <trkpt lat="46.84476" lon="8.43442">
        <ele>1919</ele>
        <time>2021-08-13T08:02:38.164Z</time>
      </trkpt>
      <trkpt lat="46.84476" lon="8.4344">
        <ele>1919</ele>
        <time>2021-08-13T08:02:39.164Z</time>
      </trkpt>
      <trkpt lat="46.84476" lon="8.43438">
        <ele>1919</ele>
        <time>2021-08-13T08:02:40.164Z</time>
      </trkpt>
      <trkpt lat="46.84476" lon="8.43437">
        <ele>1919</ele>
        <time>2021-08-13T08:02:41.165Z</time>
      </trkpt>
      <trkpt lat="46.84476" lon="8.43436">
        <ele>1919</ele>
        <time>2021-08-13T08:02:42.164Z</time>
      </trkpt>
      <trkpt lat="46.84476" lon="8.43434">
        <ele>1919</ele>
        <time>2021-08-13T08:02:43.164Z</time>
      </trkpt>
      <trkpt lat="46.84476" lon="8.43433">
        <ele>1919</ele>
        <time>2021-08-13T08:02:44.164Z</time>
      </trkpt>
      <trkpt lat="46.84476" lon="8.43431">
        <ele>1919</ele>
        <time>2021-08-13T08:02:45.164Z</time>
      </trkpt>
      <trkpt lat="46.84476" lon="8.4343">
        <ele>1919</ele>
        <time>2021-08-13T08:02:46.164Z</time>
      </trkpt>
      <trkpt lat="46.84476" lon="8.43428">
        <ele>1919</ele>
        <time>2021-08-13T08:02:47.165Z</time>
      </trkpt>
      <trkpt lat="46.84476" lon="8.43426">
        <ele>1918</ele>
        <time>2021-08-13T08:02:48.165Z</time>
      </trkpt>
      <trkpt lat="46.84476" lon="8.43425">
        <ele>1918</ele>
        <time>2021-08-13T08:02:49.165Z</time>
      </trkpt>
      <trkpt lat="46.84476" lon="8.43423">
        <ele>1918</ele>
        <time>2021-08-13T08:02:50.165Z</time>
      </trkpt>
      <trkpt lat="46.84476" lon="8.43421">
        <ele>1918</ele>
        <time>2021-08-13T08:02:51.164Z</time>
      </trkpt>
      <trkpt lat="46.84476" lon="8.43419">
        <ele>1918</ele>
        <time>2021-08-13T08:02:52.165Z</time>
      </trkpt>
      <trkpt lat="46.84477" lon="8.43417">
        <ele>1918</ele>
        <time>2021-08-13T08:02:53.165Z</time>
      </trkpt>
      <trkpt lat="46.84477" lon="8.43415">
        <ele>1918</ele>
        <time>2021-08-13T08:02:54.165Z</time>
      </trkpt>
      <trkpt lat="46.84477" lon="8.43414">
        <ele>1918</ele>
        <time>2021-08-13T08:02:55.165Z</time>
      </trkpt>
      <trkpt lat="46.84477" lon="8.43412">
        <ele>1918</ele>
        <time>2021-08-13T08:02:56.165Z</time>
      </trkpt>
      <trkpt lat="46.84477" lon="8.43411">
        <ele>1918</ele>
        <time>2021-08-13T08:02:57.164Z</time>
      </trkpt>
      <trkpt lat="46.84477" lon="8.43409">
        <ele>1917</ele>
        <time>2021-08-13T08:02:58.165Z</time>
      </trkpt>
      <trkpt lat="46.84477" lon="8.43408">
        <ele>1917</ele>
        <time>2021-08-13T08:02:59.164Z</time>
      </trkpt>
      <trkpt lat="46.84478" lon="8.43406">
        <ele>1917</ele>
        <time>2021-08-13T08:03:00.165Z</time>
      </trkpt>
      <trkpt lat="46.84477" lon="8.43405">
        <ele>1917</ele>
        <time>2021-08-13T08:03:01.164Z</time>
      </trkpt>
      <trkpt lat="46.84477" lon="8.43403">
        <ele>1917</ele>
        <time>2021-08-13T08:03:02.165Z</time>
      </trkpt>
      <trkpt lat="46.84475" lon="8.43401">
        <ele>1916</ele>
        <time>2021-08-13T08:03:03.165Z</time>
      </trkpt>
      <trkpt lat="46.84474" lon="8.434">
        <ele>1916</ele>
        <time>2021-08-13T08:03:04.164Z</time>
      </trkpt>
      <trkpt lat="46.84473" lon="8.43399">
        <ele>1915</ele>
        <time>2021-08-13T08:03:05.165Z</time>
      </trkpt>
      <trkpt lat="46.84472" lon="8.43399">
        <ele>1915</ele>
        <time>2021-08-13T08:03:06.164Z</time>
      </trkpt>
      <trkpt lat="46.84471" lon="8.43398">
        <ele>1915</ele>
        <time>2021-08-13T08:03:07.165Z</time>
      </trkpt>
      <trkpt lat="46.8447" lon="8.43397">
        <ele>1915</ele>
        <time>2021-08-13T08:03:08.164Z</time>
      </trkpt>
      <trkpt lat="46.84469" lon="8.43397">
        <ele>1915</ele>
        <time>2021-08-13T08:03:09.164Z</time>
      </trkpt>
      <trkpt lat="46.84468" lon="8.43397">
        <ele>1915</ele>
        <time>2021-08-13T08:03:10.165Z</time>
      </trkpt>
      <trkpt lat="46.84468" lon="8.43397">
        <ele>1915</ele>
        <time>2021-08-13T08:03:11.165Z</time>
      </trkpt>
      <trkpt lat="46.84467" lon="8.43396">
        <ele>1916</ele>
        <time>2021-08-13T08:03:12.165Z</time>
      </trkpt>
      <trkpt lat="46.84466" lon="8.43395">
        <ele>1915</ele>
        <time>2021-08-13T08:03:13.165Z</time>
      </trkpt>
      <trkpt lat="46.84465" lon="8.43394">
        <ele>1916</ele>
        <time>2021-08-13T08:03:14.165Z</time>
      </trkpt>
      <trkpt lat="46.84464" lon="8.43393">
        <ele>1916</ele>
        <time>2021-08-13T08:03:15.165Z</time>
      </trkpt>
      <trkpt lat="46.84464" lon="8.43393">
        <ele>1916</ele>
        <time>2021-08-13T08:03:16.165Z</time>
      </trkpt>
      <trkpt lat="46.84464" lon="8.43393">
        <ele>1916</ele>
        <time>2021-08-13T08:03:17.164Z</time>
      </trkpt>
      <trkpt lat="46.84463" lon="8.43392">
        <ele>1916</ele>
        <time>2021-08-13T08:03:18.165Z</time>
      </trkpt>
      <trkpt lat="46.84463" lon="8.43391">
        <ele>1916</ele>
        <time>2021-08-13T08:03:19.164Z</time>
      </trkpt>
      <trkpt lat="46.84463" lon="8.4339">
        <ele>1916</ele>
        <time>2021-08-13T08:03:20.165Z</time>
      </trkpt>
      <trkpt lat="46.84462" lon="8.43389">
        <ele>1916</ele>
        <time>2021-08-13T08:03:21.164Z</time>
      </trkpt>
      <trkpt lat="46.84461" lon="8.43388">
        <ele>1916</ele>
        <time>2021-08-13T08:03:22.165Z</time>
      </trkpt>
      <trkpt lat="46.84461" lon="8.43387">
        <ele>1917</ele>
        <time>2021-08-13T08:03:23.165Z</time>
      </trkpt>
      <trkpt lat="46.84461" lon="8.43386">
        <ele>1917</ele>
        <time>2021-08-13T08:03:24.165Z</time>
      </trkpt>
      <trkpt lat="46.8446" lon="8.43385">
        <ele>1917</ele>
        <time>2021-08-13T08:03:25.164Z</time>
      </trkpt>
      <trkpt lat="46.8446" lon="8.43384">
        <ele>1917</ele>
        <time>2021-08-13T08:03:26.164Z</time>
      </trkpt>
      <trkpt lat="46.84459" lon="8.43383">
        <ele>1917</ele>
        <time>2021-08-13T08:03:27.165Z</time>
      </trkpt>
      <trkpt lat="46.84459" lon="8.43381">
        <ele>1916</ele>
        <time>2021-08-13T08:03:28.164Z</time>
      </trkpt>
      <trkpt lat="46.84458" lon="8.4338">
        <ele>1916</ele>
        <time>2021-08-13T08:03:29.164Z</time>
      </trkpt>
      <trkpt lat="46.84457" lon="8.43378">
        <ele>1915</ele>
        <time>2021-08-13T08:03:30.164Z</time>
      </trkpt>
      <trkpt lat="46.84457" lon="8.43377">
        <ele>1914</ele>
        <time>2021-08-13T08:03:31.165Z</time>
      </trkpt>
      <trkpt lat="46.84457" lon="8.43375">
        <ele>1914</ele>
        <time>2021-08-13T08:03:32.164Z</time>
      </trkpt>
      <trkpt lat="46.84457" lon="8.43373">
        <ele>1913</ele>
        <time>2021-08-13T08:03:33.165Z</time>
      </trkpt>
      <trkpt lat="46.84457" lon="8.43372">
        <ele>1913</ele>
        <time>2021-08-13T08:03:34.164Z</time>
      </trkpt>
      <trkpt lat="46.84457" lon="8.43371">
        <ele>1913</ele>
        <time>2021-08-13T08:03:35.165Z</time>
      </trkpt>
      <trkpt lat="46.84457" lon="8.43371">
        <ele>1913</ele>
        <time>2021-08-13T08:03:36.164Z</time>
      </trkpt>
      <trkpt lat="46.84457" lon="8.43369">
        <ele>1913</ele>
        <time>2021-08-13T08:03:37.164Z</time>
      </trkpt>
      <trkpt lat="46.84457" lon="8.43368">
        <ele>1912</ele>
        <time>2021-08-13T08:03:38.165Z</time>
      </trkpt>
      <trkpt lat="46.84457" lon="8.43368">
        <ele>1912</ele>
        <time>2021-08-13T08:03:39.164Z</time>
      </trkpt>
      <trkpt lat="46.84457" lon="8.43367">
        <ele>1911</ele>
        <time>2021-08-13T08:03:40.164Z</time>
      </trkpt>
      <trkpt lat="46.84457" lon="8.43367">
        <ele>1911</ele>
        <time>2021-08-13T08:03:41.165Z</time>
      </trkpt>
      <trkpt lat="46.84457" lon="8.43367">
        <ele>1911</ele>
        <time>2021-08-13T08:03:42.165Z</time>
      </trkpt>
      <trkpt lat="46.84456" lon="8.43367">
        <ele>1910</ele>
        <time>2021-08-13T08:03:43.165Z</time>
      </trkpt>
      <trkpt lat="46.84456" lon="8.43367">
        <ele>1910</ele>
        <time>2021-08-13T08:03:44.165Z</time>
      </trkpt>
      <trkpt lat="46.84456" lon="8.43367">
        <ele>1910</ele>
        <time>2021-08-13T08:03:45.165Z</time>
      </trkpt>
      <trkpt lat="46.84456" lon="8.43366">
        <ele>1910</ele>
        <time>2021-08-13T08:03:46.164Z</time>
      </trkpt>
      <trkpt lat="46.84456" lon="8.43364">
        <ele>1909</ele>
        <time>2021-08-13T08:03:47.165Z</time>
      </trkpt>
      <trkpt lat="46.84456" lon="8.43362">
        <ele>1909</ele>
        <time>2021-08-13T08:03:48.164Z</time>
      </trkpt>
      <trkpt lat="46.84456" lon="8.4336">
        <ele>1909</ele>
        <time>2021-08-13T08:03:49.164Z</time>
      </trkpt>
      <trkpt lat="46.84457" lon="8.43358">
        <ele>1909</ele>
        <time>2021-08-13T08:03:50.164Z</time>
      </trkpt>
      <trkpt lat="46.84457" lon="8.43355">
        <ele>1909</ele>
        <time>2021-08-13T08:03:51.165Z</time>
      </trkpt>
      <trkpt lat="46.84457" lon="8.43353">
        <ele>1909</ele>
        <time>2021-08-13T08:03:52.165Z</time>
      </trkpt>
      <trkpt lat="46.84457" lon="8.43351">
        <ele>1909</ele>
        <time>2021-08-13T08:03:53.165Z</time>
      </trkpt>
      <trkpt lat="46.84457" lon="8.43349">
        <ele>1909</ele>
        <time>2021-08-13T08:03:54.164Z</time>
      </trkpt>
      <trkpt lat="46.84456" lon="8.43346">
        <ele>1909</ele>
        <time>2021-08-13T08:03:55.164Z</time>
      </trkpt>
      <trkpt lat="46.84456" lon="8.43344">
        <ele>1908</ele>
        <time>2021-08-13T08:03:56.164Z</time>
      </trkpt>
      <trkpt lat="46.84456" lon="8.43342">
        <ele>1908</ele>
        <time>2021-08-13T08:03:57.164Z</time>
      </trkpt>
      <trkpt lat="46.84457" lon="8.43339">
        <ele>1909</ele>
        <time>2021-08-13T08:03:58.165Z</time>
      </trkpt>
      <trkpt lat="46.84457" lon="8.43338">
        <ele>1909</ele>
        <time>2021-08-13T08:03:59.164Z</time>
      </trkpt>
      <trkpt lat="46.84456" lon="8.43336">
        <ele>1909</ele>
        <time>2021-08-13T08:04:00.165Z</time>
      </trkpt>
      <trkpt lat="46.84456" lon="8.43334">
        <ele>1909</ele>
        <time>2021-08-13T08:04:01.165Z</time>
      </trkpt>
      <trkpt lat="46.84456" lon="8.43332">
        <ele>1909</ele>
        <time>2021-08-13T08:04:02.165Z</time>
      </trkpt>
      <trkpt lat="46.84455" lon="8.43331">
        <ele>1909</ele>
        <time>2021-08-13T08:04:03.165Z</time>
      </trkpt>
      <trkpt lat="46.84454" lon="8.4333">
        <ele>1908</ele>
        <time>2021-08-13T08:04:04.165Z</time>
      </trkpt>
      <trkpt lat="46.84454" lon="8.43329">
        <ele>1908</ele>
        <time>2021-08-13T08:04:05.164Z</time>
      </trkpt>
      <trkpt lat="46.84453" lon="8.43327">
        <ele>1908</ele>
        <time>2021-08-13T08:04:06.165Z</time>
      </trkpt>
      <trkpt lat="46.84453" lon="8.43326">
        <ele>1908</ele>
        <time>2021-08-13T08:04:07.164Z</time>
      </trkpt>
      <trkpt lat="46.84453" lon="8.43325">
        <ele>1907</ele>
        <time>2021-08-13T08:04:08.165Z</time>
      </trkpt>
      <trkpt lat="46.84452" lon="8.43324">
        <ele>1907</ele>
        <time>2021-08-13T08:04:09.165Z</time>
      </trkpt>
      <trkpt lat="46.84452" lon="8.43323">
        <ele>1907</ele>
        <time>2021-08-13T08:04:10.165Z</time>
      </trkpt>
      <trkpt lat="46.84452" lon="8.43322">
        <ele>1907</ele>
        <time>2021-08-13T08:04:11.165Z</time>
      </trkpt>
      <trkpt lat="46.84451" lon="8.43321">
        <ele>1906</ele>
        <time>2021-08-13T08:04:12.165Z</time>
      </trkpt>
      <trkpt lat="46.84451" lon="8.4332">
        <ele>1905</ele>
        <time>2021-08-13T08:04:13.165Z</time>
      </trkpt>
      <trkpt lat="46.84451" lon="8.43318">
        <ele>1905</ele>
        <time>2021-08-13T08:04:14.165Z</time>
      </trkpt>
      <trkpt lat="46.84451" lon="8.43316">
        <ele>1904</ele>
        <time>2021-08-13T08:04:15.165Z</time>
      </trkpt>
      <trkpt lat="46.84451" lon="8.43315">
        <ele>1904</ele>
        <time>2021-08-13T08:04:16.165Z</time>
      </trkpt>
      <trkpt lat="46.84451" lon="8.43314">
        <ele>1904</ele>
        <time>2021-08-13T08:04:17.165Z</time>
      </trkpt>
      <trkpt lat="46.84451" lon="8.43313">
        <ele>1903</ele>
        <time>2021-08-13T08:04:18.165Z</time>
      </trkpt>
      <trkpt lat="46.84451" lon="8.43311">
        <ele>1903</ele>
        <time>2021-08-13T08:04:19.164Z</time>
      </trkpt>
      <trkpt lat="46.84452" lon="8.4331">
        <ele>1903</ele>
        <time>2021-08-13T08:04:20.164Z</time>
      </trkpt>
      <trkpt lat="46.84452" lon="8.43308">
        <ele>1904</ele>
        <time>2021-08-13T08:04:21.165Z</time>
      </trkpt>
      <trkpt lat="46.84453" lon="8.43307">
        <ele>1904</ele>
        <time>2021-08-13T08:04:22.165Z</time>
      </trkpt>
      <trkpt lat="46.84454" lon="8.43305">
        <ele>1904</ele>
        <time>2021-08-13T08:04:23.165Z</time>
      </trkpt>
      <trkpt lat="46.84454" lon="8.43304">
        <ele>1904</ele>
        <time>2021-08-13T08:04:24.165Z</time>
      </trkpt>
      <trkpt lat="46.84455" lon="8.43303">
        <ele>1904</ele>
        <time>2021-08-13T08:04:25.165Z</time>
      </trkpt>
      <trkpt lat="46.84456" lon="8.43302">
        <ele>1905</ele>
        <time>2021-08-13T08:04:26.165Z</time>
      </trkpt>
      <trkpt lat="46.84458" lon="8.433">
        <ele>1905</ele>
        <time>2021-08-13T08:04:27.165Z</time>
      </trkpt>
      <trkpt lat="46.84459" lon="8.43299">
        <ele>1905</ele>
        <time>2021-08-13T08:04:28.164Z</time>
      </trkpt>
      <trkpt lat="46.84459" lon="8.43297">
        <ele>1905</ele>
        <time>2021-08-13T08:04:29.164Z</time>
      </trkpt>
      <trkpt lat="46.8446" lon="8.43296">
        <ele>1905</ele>
        <time>2021-08-13T08:04:30.164Z</time>
      </trkpt>
      <trkpt lat="46.8446" lon="8.43294">
        <ele>1905</ele>
        <time>2021-08-13T08:04:31.164Z</time>
      </trkpt>
      <trkpt lat="46.8446" lon="8.43292">
        <ele>1905</ele>
        <time>2021-08-13T08:04:32.165Z</time>
      </trkpt>
      <trkpt lat="46.8446" lon="8.43291">
        <ele>1905</ele>
        <time>2021-08-13T08:04:33.165Z</time>
      </trkpt>
      <trkpt lat="46.84461" lon="8.43288">
        <ele>1904</ele>
        <time>2021-08-13T08:04:34.164Z</time>
      </trkpt>
      <trkpt lat="46.8446" lon="8.43287">
        <ele>1904</ele>
        <time>2021-08-13T08:04:35.165Z</time>
      </trkpt>
      <trkpt lat="46.8446" lon="8.43285">
        <ele>1904</ele>
        <time>2021-08-13T08:04:36.164Z</time>
      </trkpt>
      <trkpt lat="46.8446" lon="8.43284">
        <ele>1904</ele>
        <time>2021-08-13T08:04:37.165Z</time>
      </trkpt>
      <trkpt lat="46.8446" lon="8.43282">
        <ele>1903</ele>
        <time>2021-08-13T08:04:38.165Z</time>
      </trkpt>
      <trkpt lat="46.8446" lon="8.43281">
        <ele>1903</ele>
        <time>2021-08-13T08:04:39.164Z</time>
      </trkpt>
      <trkpt lat="46.8446" lon="8.4328">
        <ele>1903</ele>
        <time>2021-08-13T08:04:40.164Z</time>
      </trkpt>
      <trkpt lat="46.84459" lon="8.43278">
        <ele>1903</ele>
        <time>2021-08-13T08:04:41.164Z</time>
      </trkpt>
      <trkpt lat="46.84459" lon="8.43277">
        <ele>1904</ele>
        <time>2021-08-13T08:04:42.165Z</time>
      </trkpt>
      <trkpt lat="46.84459" lon="8.43275">
        <ele>1904</ele>
        <time>2021-08-13T08:04:43.165Z</time>
      </trkpt>
      <trkpt lat="46.84459" lon="8.43273">
        <ele>1904</ele>
        <time>2021-08-13T08:04:44.164Z</time>
      </trkpt>
      <trkpt lat="46.84458" lon="8.43272">
        <ele>1904</ele>
        <time>2021-08-13T08:04:45.164Z</time>
      </trkpt>
      <trkpt lat="46.84458" lon="8.4327">
        <ele>1904</ele>
        <time>2021-08-13T08:04:46.165Z</time>
      </trkpt>
      <trkpt lat="46.84458" lon="8.43268">
        <ele>1904</ele>
        <time>2021-08-13T08:04:47.164Z</time>
      </trkpt>
      <trkpt lat="46.84459" lon="8.43266">
        <ele>1904</ele>
        <time>2021-08-13T08:04:48.165Z</time>
      </trkpt>
      <trkpt lat="46.84459" lon="8.43265">
        <ele>1903</ele>
        <time>2021-08-13T08:04:49.165Z</time>
      </trkpt>
      <trkpt lat="46.84459" lon="8.43264">
        <ele>1903</ele>
        <time>2021-08-13T08:04:50.165Z</time>
      </trkpt>
      <trkpt lat="46.84459" lon="8.43262">
        <ele>1903</ele>
        <time>2021-08-13T08:04:51.165Z</time>
      </trkpt>
      <trkpt lat="46.84459" lon="8.43261">
        <ele>1903</ele>
        <time>2021-08-13T08:04:52.164Z</time>
      </trkpt>
      <trkpt lat="46.8446" lon="8.43259">
        <ele>1903</ele>
        <time>2021-08-13T08:04:53.165Z</time>
      </trkpt>
      <trkpt lat="46.8446" lon="8.43258">
        <ele>1904</ele>
        <time>2021-08-13T08:04:54.165Z</time>
      </trkpt>
      <trkpt lat="46.8446" lon="8.43256">
        <ele>1904</ele>
        <time>2021-08-13T08:04:55.164Z</time>
      </trkpt>
      <trkpt lat="46.84461" lon="8.43255">
        <ele>1904</ele>
        <time>2021-08-13T08:04:56.165Z</time>
      </trkpt>
      <trkpt lat="46.84461" lon="8.43253">
        <ele>1905</ele>
        <time>2021-08-13T08:04:57.165Z</time>
      </trkpt>
      <trkpt lat="46.84461" lon="8.43252">
        <ele>1905</ele>
        <time>2021-08-13T08:04:58.164Z</time>
      </trkpt>
      <trkpt lat="46.84461" lon="8.4325">
        <ele>1906</ele>
        <time>2021-08-13T08:04:59.165Z</time>
      </trkpt>
      <trkpt lat="46.84461" lon="8.43249">
        <ele>1906</ele>
        <time>2021-08-13T08:05:00.165Z</time>
      </trkpt>
      <trkpt lat="46.84461" lon="8.43248">
        <ele>1907</ele>
        <time>2021-08-13T08:05:01.165Z</time>
      </trkpt>
      <trkpt lat="46.84461" lon="8.43247">
        <ele>1907</ele>
        <time>2021-08-13T08:05:02.165Z</time>
      </trkpt>
      <trkpt lat="46.84462" lon="8.43245">
        <ele>1908</ele>
        <time>2021-08-13T08:05:03.165Z</time>
      </trkpt>
      <trkpt lat="46.84462" lon="8.43244">
        <ele>1908</ele>
        <time>2021-08-13T08:05:04.165Z</time>
      </trkpt>
      <trkpt lat="46.84463" lon="8.43243">
        <ele>1909</ele>
        <time>2021-08-13T08:05:05.164Z</time>
      </trkpt>
      <trkpt lat="46.84464" lon="8.43241">
        <ele>1909</ele>
        <time>2021-08-13T08:05:06.165Z</time>
      </trkpt>
      <trkpt lat="46.84464" lon="8.4324">
        <ele>1910</ele>
        <time>2021-08-13T08:05:07.165Z</time>
      </trkpt>
      <trkpt lat="46.84465" lon="8.43239">
        <ele>1911</ele>
        <time>2021-08-13T08:05:08.164Z</time>
      </trkpt>
      <trkpt lat="46.84465" lon="8.43238">
        <ele>1911</ele>
        <time>2021-08-13T08:05:09.165Z</time>
      </trkpt>
      <trkpt lat="46.84466" lon="8.43238">
        <ele>1912</ele>
        <time>2021-08-13T08:05:10.165Z</time>
      </trkpt>
      <trkpt lat="46.84467" lon="8.43237">
        <ele>1912</ele>
        <time>2021-08-13T08:05:11.164Z</time>
      </trkpt>
      <trkpt lat="46.84467" lon="8.43236">
        <ele>1912</ele>
        <time>2021-08-13T08:05:12.165Z</time>
      </trkpt>
      <trkpt lat="46.84468" lon="8.43236">
        <ele>1912</ele>
        <time>2021-08-13T08:05:13.165Z</time>
      </trkpt>
      <trkpt lat="46.84469" lon="8.43235">
        <ele>1913</ele>
        <time>2021-08-13T08:05:14.165Z</time>
      </trkpt>
      <trkpt lat="46.84469" lon="8.43234">
        <ele>1913</ele>
        <time>2021-08-13T08:05:15.164Z</time>
      </trkpt>
      <trkpt lat="46.84469" lon="8.43233">
        <ele>1913</ele>
        <time>2021-08-13T08:05:16.164Z</time>
      </trkpt>
      <trkpt lat="46.84469" lon="8.43231">
        <ele>1913</ele>
        <time>2021-08-13T08:05:17.164Z</time>
      </trkpt>
      <trkpt lat="46.8447" lon="8.4323">
        <ele>1913</ele>
        <time>2021-08-13T08:05:18.165Z</time>
      </trkpt>
      <trkpt lat="46.8447" lon="8.43229">
        <ele>1913</ele>
        <time>2021-08-13T08:05:19.165Z</time>
      </trkpt>
      <trkpt lat="46.8447" lon="8.43227">
        <ele>1913</ele>
        <time>2021-08-13T08:05:20.165Z</time>
      </trkpt>
      <trkpt lat="46.8447" lon="8.43226">
        <ele>1912</ele>
        <time>2021-08-13T08:05:21.164Z</time>
      </trkpt>
      <trkpt lat="46.8447" lon="8.43225">
        <ele>1912</ele>
        <time>2021-08-13T08:05:22.165Z</time>
      </trkpt>
      <trkpt lat="46.8447" lon="8.43224">
        <ele>1912</ele>
        <time>2021-08-13T08:05:23.164Z</time>
      </trkpt>
      <trkpt lat="46.8447" lon="8.43223">
        <ele>1912</ele>
        <time>2021-08-13T08:05:24.164Z</time>
      </trkpt>
      <trkpt lat="46.84471" lon="8.43222">
        <ele>1912</ele>
        <time>2021-08-13T08:05:25.164Z</time>
      </trkpt>
      <trkpt lat="46.84471" lon="8.43221">
        <ele>1912</ele>
        <time>2021-08-13T08:05:26.164Z</time>
      </trkpt>
      <trkpt lat="46.8447" lon="8.4322">
        <ele>1912</ele>
        <time>2021-08-13T08:05:27.165Z</time>
      </trkpt>
      <trkpt lat="46.8447" lon="8.43219">
        <ele>1912</ele>
        <time>2021-08-13T08:05:28.165Z</time>
      </trkpt>
      <trkpt lat="46.84469" lon="8.43219">
        <ele>1913</ele>
        <time>2021-08-13T08:05:29.165Z</time>
      </trkpt>
      <trkpt lat="46.84469" lon="8.43218">
        <ele>1913</ele>
        <time>2021-08-13T08:05:30.165Z</time>
      </trkpt>
      <trkpt lat="46.84469" lon="8.43217">
        <ele>1913</ele>
        <time>2021-08-13T08:05:31.165Z</time>
      </trkpt>
      <trkpt lat="46.84469" lon="8.43216">
        <ele>1914</ele>
        <time>2021-08-13T08:05:32.165Z</time>
      </trkpt>
      <trkpt lat="46.8447" lon="8.43215">
        <ele>1914</ele>
        <time>2021-08-13T08:05:33.165Z</time>
      </trkpt>
      <trkpt lat="46.8447" lon="8.43213">
        <ele>1914</ele>
        <time>2021-08-13T08:05:34.165Z</time>
      </trkpt>
      <trkpt lat="46.8447" lon="8.43211">
        <ele>1915</ele>
        <time>2021-08-13T08:05:35.165Z</time>
      </trkpt>
      <trkpt lat="46.84469" lon="8.4321">
        <ele>1915</ele>
        <time>2021-08-13T08:05:36.165Z</time>
      </trkpt>
      <trkpt lat="46.84468" lon="8.43209">
        <ele>1915</ele>
        <time>2021-08-13T08:05:37.165Z</time>
      </trkpt>
      <trkpt lat="46.84468" lon="8.43207">
        <ele>1915</ele>
        <time>2021-08-13T08:05:38.165Z</time>
      </trkpt>
      <trkpt lat="46.84469" lon="8.43205">
        <ele>1915</ele>
        <time>2021-08-13T08:05:39.165Z</time>
      </trkpt>
      <trkpt lat="46.84469" lon="8.43203">
        <ele>1915</ele>
        <time>2021-08-13T08:05:40.165Z</time>
      </trkpt>
      <trkpt lat="46.8447" lon="8.43202">
        <ele>1915</ele>
        <time>2021-08-13T08:05:41.165Z</time>
      </trkpt>
      <trkpt lat="46.8447" lon="8.432">
        <ele>1915</ele>
        <time>2021-08-13T08:05:42.165Z</time>
      </trkpt>
      <trkpt lat="46.84471" lon="8.43198">
        <ele>1915</ele>
        <time>2021-08-13T08:05:43.165Z</time>
      </trkpt>
      <trkpt lat="46.84472" lon="8.43197">
        <ele>1914</ele>
        <time>2021-08-13T08:05:44.165Z</time>
      </trkpt>
      <trkpt lat="46.84472" lon="8.43196">
        <ele>1914</ele>
        <time>2021-08-13T08:05:45.165Z</time>
      </trkpt>
      <trkpt lat="46.84473" lon="8.43195">
        <ele>1914</ele>
        <time>2021-08-13T08:05:46.165Z</time>
      </trkpt>
      <trkpt lat="46.84473" lon="8.43195">
        <ele>1914</ele>
        <time>2021-08-13T08:05:47.165Z</time>
      </trkpt>
      <trkpt lat="46.84473" lon="8.43194">
        <ele>1915</ele>
        <time>2021-08-13T08:05:48.165Z</time>
      </trkpt>
      <trkpt lat="46.84473" lon="8.43194">
        <ele>1915</ele>
        <time>2021-08-13T08:05:49.165Z</time>
      </trkpt>
      <trkpt lat="46.84472" lon="8.43194">
        <ele>1915</ele>
        <time>2021-08-13T08:05:50.164Z</time>
      </trkpt>
      <trkpt lat="46.84472" lon="8.43195">
        <ele>1915</ele>
        <time>2021-08-13T08:05:51.165Z</time>
      </trkpt>
      <trkpt lat="46.84474" lon="8.43198">
        <ele>1914</ele>
        <time>2021-08-13T08:05:52.165Z</time>
      </trkpt>
      <trkpt lat="46.84474" lon="8.43198">
        <ele>1914</ele>
        <time>2021-08-13T08:05:53.165Z</time>
      </trkpt>
      <trkpt lat="46.84474" lon="8.43198">
        <ele>1913</ele>
        <time>2021-08-13T08:05:54.164Z</time>
      </trkpt>
      <trkpt lat="46.84473" lon="8.43197">
        <ele>1913</ele>
        <time>2021-08-13T08:05:55.164Z</time>
      </trkpt>
      <trkpt lat="46.84473" lon="8.43197">
        <ele>1912</ele>
        <time>2021-08-13T08:05:56.165Z</time>
      </trkpt>
      <trkpt lat="46.84472" lon="8.43197">
        <ele>1911</ele>
        <time>2021-08-13T08:05:57.165Z</time>
      </trkpt>
      <trkpt lat="46.84472" lon="8.43197">
        <ele>1911</ele>
        <time>2021-08-13T08:05:58.165Z</time>
      </trkpt>
      <trkpt lat="46.84471" lon="8.43198">
        <ele>1914</ele>
        <time>2021-08-13T08:05:59.165Z</time>
      </trkpt>
      <trkpt lat="46.8447" lon="8.43197">
        <ele>1914</ele>
        <time>2021-08-13T08:06:00.165Z</time>
      </trkpt>
      <trkpt lat="46.84469" lon="8.43198">
        <ele>1913</ele>
        <time>2021-08-13T08:06:01.166Z</time>
      </trkpt>
      <trkpt lat="46.84469" lon="8.43198">
        <ele>1913</ele>
        <time>2021-08-13T08:06:02.165Z</time>
      </trkpt>
      <trkpt lat="46.84469" lon="8.43199">
        <ele>1914</ele>
        <time>2021-08-13T08:06:03.166Z</time>
      </trkpt>
      <trkpt lat="46.8447" lon="8.43198">
        <ele>1916</ele>
        <time>2021-08-13T08:06:04.165Z</time>
      </trkpt>
      <trkpt lat="46.84471" lon="8.43197">
        <ele>1916</ele>
        <time>2021-08-13T08:06:05.166Z</time>
      </trkpt>
      <trkpt lat="46.8447" lon="8.43197">
        <ele>1916</ele>
        <time>2021-08-13T08:06:06.165Z</time>
      </trkpt>
      <trkpt lat="46.8447" lon="8.43197">
        <ele>1916</ele>
        <time>2021-08-13T08:06:07.165Z</time>
      </trkpt>
      <trkpt lat="46.84471" lon="8.43197">
        <ele>1917</ele>
        <time>2021-08-13T08:06:08.166Z</time>
      </trkpt>
      <trkpt lat="46.84471" lon="8.43197">
        <ele>1917</ele>
        <time>2021-08-13T08:06:09.166Z</time>
      </trkpt>
      <trkpt lat="46.84471" lon="8.43197">
        <ele>1917</ele>
        <time>2021-08-13T08:06:10.166Z</time>
      </trkpt>
      <trkpt lat="46.84472" lon="8.43198">
        <ele>1920</ele>
        <time>2021-08-13T08:06:11.166Z</time>
      </trkpt>
      <trkpt lat="46.84472" lon="8.43198">
        <ele>1920</ele>
        <time>2021-08-13T08:06:12.167Z</time>
      </trkpt>
      <trkpt lat="46.84472" lon="8.43198">
        <ele>1920</ele>
        <time>2021-08-13T08:06:13.167Z</time>
      </trkpt>
      <trkpt lat="46.84472" lon="8.43199">
        <ele>1920</ele>
        <time>2021-08-13T08:06:14.166Z</time>
      </trkpt>
      <trkpt lat="46.84473" lon="8.43199">
        <ele>1918</ele>
        <time>2021-08-13T08:06:15.167Z</time>
      </trkpt>
      <trkpt lat="46.84473" lon="8.43199">
        <ele>1918</ele>
        <time>2021-08-13T08:06:16.167Z</time>
      </trkpt>
      <trkpt lat="46.84473" lon="8.43198">
        <ele>1917</ele>
        <time>2021-08-13T08:06:17.166Z</time>
      </trkpt>
      <trkpt lat="46.84473" lon="8.43199">
        <ele>1917</ele>
        <time>2021-08-13T08:06:18.166Z</time>
      </trkpt>
      <trkpt lat="46.84473" lon="8.43198">
        <ele>1917</ele>
        <time>2021-08-13T08:06:19.166Z</time>
      </trkpt>
      <trkpt lat="46.84473" lon="8.43198">
        <ele>1916</ele>
        <time>2021-08-13T08:06:20.168Z</time>
      </trkpt>
      <trkpt lat="46.84472" lon="8.43198">
        <ele>1916</ele>
        <time>2021-08-13T08:06:21.167Z</time>
      </trkpt>
      <trkpt lat="46.84473" lon="8.43198">
        <ele>1916</ele>
        <time>2021-08-13T08:06:22.168Z</time>
      </trkpt>
      <trkpt lat="46.84473" lon="8.43197">
        <ele>1916</ele>
        <time>2021-08-13T08:06:23.167Z</time>
      </trkpt>
      <trkpt lat="46.84473" lon="8.43196">
        <ele>1916</ele>
        <time>2021-08-13T08:06:24.168Z</time>
      </trkpt>
      <trkpt lat="46.84473" lon="8.43195">
        <ele>1916</ele>
        <time>2021-08-13T08:06:25.168Z</time>
      </trkpt>
      <trkpt lat="46.84473" lon="8.43193">
        <ele>1916</ele>
        <time>2021-08-13T08:06:26.168Z</time>
      </trkpt>
      <trkpt lat="46.84473" lon="8.43193">
        <ele>1916</ele>
        <time>2021-08-13T08:06:27.168Z</time>
      </trkpt>
      <trkpt lat="46.84473" lon="8.43192">
        <ele>1916</ele>
        <time>2021-08-13T08:06:28.168Z</time>
      </trkpt>
      <trkpt lat="46.84473" lon="8.43191">
        <ele>1916</ele>
        <time>2021-08-13T08:06:29.168Z</time>
      </trkpt>
      <trkpt lat="46.84473" lon="8.43191">
        <ele>1916</ele>
        <time>2021-08-13T08:06:30.167Z</time>
      </trkpt>
      <trkpt lat="46.84472" lon="8.43191">
        <ele>1916</ele>
        <time>2021-08-13T08:06:31.167Z</time>
      </trkpt>
      <trkpt lat="46.84471" lon="8.4319">
        <ele>1915</ele>
        <time>2021-08-13T08:06:32.168Z</time>
      </trkpt>
      <trkpt lat="46.84471" lon="8.4319">
        <ele>1915</ele>
        <time>2021-08-13T08:06:33.168Z</time>
      </trkpt>
      <trkpt lat="46.8447" lon="8.43189">
        <ele>1915</ele>
        <time>2021-08-13T08:06:34.168Z</time>
      </trkpt>
      <trkpt lat="46.8447" lon="8.43188">
        <ele>1914</ele>
        <time>2021-08-13T08:06:35.168Z</time>
      </trkpt>
      <trkpt lat="46.84469" lon="8.43188">
        <ele>1914</ele>
        <time>2021-08-13T08:06:36.168Z</time>
      </trkpt>
      <trkpt lat="46.84469" lon="8.43187">
        <ele>1914</ele>
        <time>2021-08-13T08:06:37.168Z</time>
      </trkpt>
      <trkpt lat="46.84468" lon="8.43186">
        <ele>1913</ele>
        <time>2021-08-13T08:06:38.167Z</time>
      </trkpt>
      <trkpt lat="46.84467" lon="8.43186">
        <ele>1913</ele>
        <time>2021-08-13T08:06:39.167Z</time>
      </trkpt>
      <trkpt lat="46.84466" lon="8.43185">
        <ele>1912</ele>
        <time>2021-08-13T08:06:40.168Z</time>
      </trkpt>
      <trkpt lat="46.84465" lon="8.43184">
        <ele>1912</ele>
        <time>2021-08-13T08:06:41.167Z</time>
      </trkpt>
      <trkpt lat="46.84464" lon="8.43183">
        <ele>1912</ele>
        <time>2021-08-13T08:06:42.167Z</time>
      </trkpt>
      <trkpt lat="46.84463" lon="8.43182">
        <ele>1912</ele>
        <time>2021-08-13T08:06:43.168Z</time>
      </trkpt>
      <trkpt lat="46.84463" lon="8.43182">
        <ele>1912</ele>
        <time>2021-08-13T08:06:44.167Z</time>
      </trkpt>
      <trkpt lat="46.84462" lon="8.43181">
        <ele>1912</ele>
        <time>2021-08-13T08:06:45.167Z</time>
      </trkpt>
      <trkpt lat="46.84461" lon="8.4318">
        <ele>1911</ele>
        <time>2021-08-13T08:06:46.168Z</time>
      </trkpt>
      <trkpt lat="46.8446" lon="8.43179">
        <ele>1911</ele>
        <time>2021-08-13T08:06:47.168Z</time>
      </trkpt>
      <trkpt lat="46.84459" lon="8.43178">
        <ele>1910</ele>
        <time>2021-08-13T08:06:48.168Z</time>
      </trkpt>
      <trkpt lat="46.84459" lon="8.43177">
        <ele>1910</ele>
        <time>2021-08-13T08:06:49.168Z</time>
      </trkpt>
      <trkpt lat="46.84458" lon="8.43176">
        <ele>1909</ele>
        <time>2021-08-13T08:06:50.168Z</time>
      </trkpt>
      <trkpt lat="46.84457" lon="8.43175">
        <ele>1909</ele>
        <time>2021-08-13T08:06:51.167Z</time>
      </trkpt>
      <trkpt lat="46.84456" lon="8.43175">
        <ele>1908</ele>
        <time>2021-08-13T08:06:52.167Z</time>
      </trkpt>
      <trkpt lat="46.84455" lon="8.43174">
        <ele>1908</ele>
        <time>2021-08-13T08:06:53.167Z</time>
      </trkpt>
      <trkpt lat="46.84454" lon="8.43173">
        <ele>1907</ele>
        <time>2021-08-13T08:06:54.167Z</time>
      </trkpt>
      <trkpt lat="46.84453" lon="8.43172">
        <ele>1907</ele>
        <time>2021-08-13T08:06:55.167Z</time>
      </trkpt>
      <trkpt lat="46.84452" lon="8.43171">
        <ele>1906</ele>
        <time>2021-08-13T08:06:56.167Z</time>
      </trkpt>
      <trkpt lat="46.84452" lon="8.4317">
        <ele>1905</ele>
        <time>2021-08-13T08:06:57.167Z</time>
      </trkpt>
      <trkpt lat="46.84451" lon="8.43169">
        <ele>1905</ele>
        <time>2021-08-13T08:06:58.167Z</time>
      </trkpt>
      <trkpt lat="46.8445" lon="8.43168">
        <ele>1905</ele>
        <time>2021-08-13T08:06:59.167Z</time>
      </trkpt>
      <trkpt lat="46.84449" lon="8.43166">
        <ele>1904</ele>
        <time>2021-08-13T08:07:00.167Z</time>
      </trkpt>
      <trkpt lat="46.84449" lon="8.43165">
        <ele>1904</ele>
        <time>2021-08-13T08:07:01.167Z</time>
      </trkpt>
      <trkpt lat="46.84449" lon="8.43163">
        <ele>1904</ele>
        <time>2021-08-13T08:07:02.167Z</time>
      </trkpt>
      <trkpt lat="46.84448" lon="8.43162">
        <ele>1904</ele>
        <time>2021-08-13T08:07:03.167Z</time>
      </trkpt>
      <trkpt lat="46.84448" lon="8.43161">
        <ele>1904</ele>
        <time>2021-08-13T08:07:04.167Z</time>
      </trkpt>
      <trkpt lat="46.84447" lon="8.43159">
        <ele>1904</ele>
        <time>2021-08-13T08:07:05.167Z</time>
      </trkpt>
      <trkpt lat="46.84447" lon="8.43158">
        <ele>1905</ele>
        <time>2021-08-13T08:07:06.167Z</time>
      </trkpt>
      <trkpt lat="46.84447" lon="8.43156">
        <ele>1905</ele>
        <time>2021-08-13T08:07:07.167Z</time>
      </trkpt>
      <trkpt lat="46.84447" lon="8.43154">
        <ele>1906</ele>
        <time>2021-08-13T08:07:08.167Z</time>
      </trkpt>
      <trkpt lat="46.84447" lon="8.43152">
        <ele>1906</ele>
        <time>2021-08-13T08:07:09.167Z</time>
      </trkpt>
      <trkpt lat="46.84446" lon="8.4315">
        <ele>1906</ele>
        <time>2021-08-13T08:07:10.168Z</time>
      </trkpt>
      <trkpt lat="46.84445" lon="8.43147">
        <ele>1905</ele>
        <time>2021-08-13T08:07:11.167Z</time>
      </trkpt>
      <trkpt lat="46.84445" lon="8.43145">
        <ele>1905</ele>
        <time>2021-08-13T08:07:12.167Z</time>
      </trkpt>
      <trkpt lat="46.84445" lon="8.43143">
        <ele>1904</ele>
        <time>2021-08-13T08:07:13.167Z</time>
      </trkpt>
      <trkpt lat="46.84445" lon="8.43142">
        <ele>1903</ele>
        <time>2021-08-13T08:07:14.167Z</time>
      </trkpt>
      <trkpt lat="46.84444" lon="8.4314">
        <ele>1903</ele>
        <time>2021-08-13T08:07:15.168Z</time>
      </trkpt>
      <trkpt lat="46.84444" lon="8.43139">
        <ele>1902</ele>
        <time>2021-08-13T08:07:16.167Z</time>
      </trkpt>
      <trkpt lat="46.84443" lon="8.43138">
        <ele>1902</ele>
        <time>2021-08-13T08:07:17.167Z</time>
      </trkpt>
      <trkpt lat="46.84442" lon="8.43137">
        <ele>1902</ele>
        <time>2021-08-13T08:07:18.167Z</time>
      </trkpt>
      <trkpt lat="46.84442" lon="8.43136">
        <ele>1902</ele>
        <time>2021-08-13T08:07:19.167Z</time>
      </trkpt>
      <trkpt lat="46.84441" lon="8.43135">
        <ele>1902</ele>
        <time>2021-08-13T08:07:20.167Z</time>
      </trkpt>
      <trkpt lat="46.84441" lon="8.43134">
        <ele>1901</ele>
        <time>2021-08-13T08:07:21.167Z</time>
      </trkpt>
      <trkpt lat="46.8444" lon="8.43133">
        <ele>1901</ele>
        <time>2021-08-13T08:07:22.167Z</time>
      </trkpt>
      <trkpt lat="46.8444" lon="8.43132">
        <ele>1900</ele>
        <time>2021-08-13T08:07:23.167Z</time>
      </trkpt>
      <trkpt lat="46.84439" lon="8.43131">
        <ele>1900</ele>
        <time>2021-08-13T08:07:24.167Z</time>
      </trkpt>
      <trkpt lat="46.84438" lon="8.4313">
        <ele>1900</ele>
        <time>2021-08-13T08:07:25.167Z</time>
      </trkpt>
      <trkpt lat="46.84438" lon="8.43129">
        <ele>1899</ele>
        <time>2021-08-13T08:07:26.167Z</time>
      </trkpt>
      <trkpt lat="46.84437" lon="8.43128">
        <ele>1899</ele>
        <time>2021-08-13T08:07:27.168Z</time>
      </trkpt>
      <trkpt lat="46.84436" lon="8.43128">
        <ele>1899</ele>
        <time>2021-08-13T08:07:28.167Z</time>
      </trkpt>
      <trkpt lat="46.84436" lon="8.43127">
        <ele>1898</ele>
        <time>2021-08-13T08:07:29.167Z</time>
      </trkpt>
      <trkpt lat="46.84434" lon="8.43127">
        <ele>1898</ele>
        <time>2021-08-13T08:07:30.167Z</time>
      </trkpt>
      <trkpt lat="46.84433" lon="8.43127">
        <ele>1898</ele>
        <time>2021-08-13T08:07:31.167Z</time>
      </trkpt>
      <trkpt lat="46.84432" lon="8.43128">
        <ele>1898</ele>
        <time>2021-08-13T08:07:32.167Z</time>
      </trkpt>
      <trkpt lat="46.84431" lon="8.43128">
        <ele>1898</ele>
        <time>2021-08-13T08:07:33.168Z</time>
      </trkpt>
      <trkpt lat="46.8443" lon="8.43129">
        <ele>1898</ele>
        <time>2021-08-13T08:07:34.167Z</time>
      </trkpt>
      <trkpt lat="46.84429" lon="8.43129">
        <ele>1899</ele>
        <time>2021-08-13T08:07:35.168Z</time>
      </trkpt>
      <trkpt lat="46.84428" lon="8.4313">
        <ele>1899</ele>
        <time>2021-08-13T08:07:36.167Z</time>
      </trkpt>
      <trkpt lat="46.84427" lon="8.4313">
        <ele>1899</ele>
        <time>2021-08-13T08:07:37.168Z</time>
      </trkpt>
      <trkpt lat="46.84426" lon="8.4313">
        <ele>1899</ele>
        <time>2021-08-13T08:07:38.168Z</time>
      </trkpt>
      <trkpt lat="46.84424" lon="8.43129">
        <ele>1899</ele>
        <time>2021-08-13T08:07:39.168Z</time>
      </trkpt>
      <trkpt lat="46.84423" lon="8.43128">
        <ele>1900</ele>
        <time>2021-08-13T08:07:40.168Z</time>
      </trkpt>
      <trkpt lat="46.84422" lon="8.43127">
        <ele>1899</ele>
        <time>2021-08-13T08:07:41.168Z</time>
      </trkpt>
      <trkpt lat="46.84421" lon="8.43126">
        <ele>1899</ele>
        <time>2021-08-13T08:07:42.168Z</time>
      </trkpt>
      <trkpt lat="46.8442" lon="8.43126">
        <ele>1898</ele>
        <time>2021-08-13T08:07:43.168Z</time>
      </trkpt>
      <trkpt lat="46.8442" lon="8.43125">
        <ele>1898</ele>
        <time>2021-08-13T08:07:44.167Z</time>
      </trkpt>
      <trkpt lat="46.84418" lon="8.43124">
        <ele>1898</ele>
        <time>2021-08-13T08:07:45.168Z</time>
      </trkpt>
      <trkpt lat="46.84417" lon="8.43123">
        <ele>1897</ele>
        <time>2021-08-13T08:07:46.168Z</time>
      </trkpt>
      <trkpt lat="46.84416" lon="8.43122">
        <ele>1896</ele>
        <time>2021-08-13T08:07:47.168Z</time>
      </trkpt>
      <trkpt lat="46.84415" lon="8.43121">
        <ele>1895</ele>
        <time>2021-08-13T08:07:48.168Z</time>
      </trkpt>
      <trkpt lat="46.84414" lon="8.4312">
        <ele>1895</ele>
        <time>2021-08-13T08:07:49.167Z</time>
      </trkpt>
      <trkpt lat="46.84414" lon="8.43119">
        <ele>1895</ele>
        <time>2021-08-13T08:07:50.168Z</time>
      </trkpt>
      <trkpt lat="46.84413" lon="8.43118">
        <ele>1895</ele>
        <time>2021-08-13T08:07:51.168Z</time>
      </trkpt>
      <trkpt lat="46.84413" lon="8.43117">
        <ele>1895</ele>
        <time>2021-08-13T08:07:52.168Z</time>
      </trkpt>
      <trkpt lat="46.84413" lon="8.43116">
        <ele>1894</ele>
        <time>2021-08-13T08:07:53.167Z</time>
      </trkpt>
      <trkpt lat="46.84413" lon="8.43115">
        <ele>1894</ele>
        <time>2021-08-13T08:07:54.168Z</time>
      </trkpt>
      <trkpt lat="46.84413" lon="8.43113">
        <ele>1894</ele>
        <time>2021-08-13T08:07:55.168Z</time>
      </trkpt>
      <trkpt lat="46.84413" lon="8.43112">
        <ele>1893</ele>
        <time>2021-08-13T08:07:56.168Z</time>
      </trkpt>
      <trkpt lat="46.84412" lon="8.43111">
        <ele>1893</ele>
        <time>2021-08-13T08:07:57.168Z</time>
      </trkpt>
      <trkpt lat="46.84412" lon="8.4311">
        <ele>1893</ele>
        <time>2021-08-13T08:07:58.168Z</time>
      </trkpt>
      <trkpt lat="46.84411" lon="8.43109">
        <ele>1893</ele>
        <time>2021-08-13T08:07:59.168Z</time>
      </trkpt>
      <trkpt lat="46.84411" lon="8.43108">
        <ele>1893</ele>
        <time>2021-08-13T08:08:00.168Z</time>
      </trkpt>
      <trkpt lat="46.8441" lon="8.43107">
        <ele>1894</ele>
        <time>2021-08-13T08:08:01.168Z</time>
      </trkpt>
      <trkpt lat="46.84409" lon="8.43106">
        <ele>1894</ele>
        <time>2021-08-13T08:08:02.168Z</time>
      </trkpt>
      <trkpt lat="46.84409" lon="8.43105">
        <ele>1894</ele>
        <time>2021-08-13T08:08:03.168Z</time>
      </trkpt>
      <trkpt lat="46.84408" lon="8.43103">
        <ele>1894</ele>
        <time>2021-08-13T08:08:04.167Z</time>
      </trkpt>
      <trkpt lat="46.84407" lon="8.43102">
        <ele>1893</ele>
        <time>2021-08-13T08:08:05.168Z</time>
      </trkpt>
      <trkpt lat="46.84406" lon="8.43101">
        <ele>1894</ele>
        <time>2021-08-13T08:08:06.167Z</time>
      </trkpt>
      <trkpt lat="46.84405" lon="8.431">
        <ele>1894</ele>
        <time>2021-08-13T08:08:07.168Z</time>
      </trkpt>
      <trkpt lat="46.84405" lon="8.431">
        <ele>1894</ele>
        <time>2021-08-13T08:08:08.167Z</time>
      </trkpt>
      <trkpt lat="46.84404" lon="8.43099">
        <ele>1894</ele>
        <time>2021-08-13T08:08:09.167Z</time>
      </trkpt>
      <trkpt lat="46.84403" lon="8.43098">
        <ele>1894</ele>
        <time>2021-08-13T08:08:10.167Z</time>
      </trkpt>
      <trkpt lat="46.84403" lon="8.43097">
        <ele>1894</ele>
        <time>2021-08-13T08:08:11.168Z</time>
      </trkpt>
      <trkpt lat="46.84402" lon="8.43097">
        <ele>1894</ele>
        <time>2021-08-13T08:08:12.168Z</time>
      </trkpt>
      <trkpt lat="46.84402" lon="8.43097">
        <ele>1894</ele>
        <time>2021-08-13T08:08:13.168Z</time>
      </trkpt>
      <trkpt lat="46.84401" lon="8.43097">
        <ele>1894</ele>
        <time>2021-08-13T08:08:14.167Z</time>
      </trkpt>
      <trkpt lat="46.844" lon="8.43096">
        <ele>1894</ele>
        <time>2021-08-13T08:08:15.168Z</time>
      </trkpt>
      <trkpt lat="46.844" lon="8.43096">
        <ele>1895</ele>
        <time>2021-08-13T08:08:16.168Z</time>
      </trkpt>
      <trkpt lat="46.84399" lon="8.43095">
        <ele>1895</ele>
        <time>2021-08-13T08:08:17.167Z</time>
      </trkpt>
      <trkpt lat="46.84399" lon="8.43094">
        <ele>1896</ele>
        <time>2021-08-13T08:08:18.167Z</time>
      </trkpt>
      <trkpt lat="46.84399" lon="8.43093">
        <ele>1897</ele>
        <time>2021-08-13T08:08:19.167Z</time>
      </trkpt>
      <trkpt lat="46.84398" lon="8.43092">
        <ele>1898</ele>
        <time>2021-08-13T08:08:20.167Z</time>
      </trkpt>
      <trkpt lat="46.84398" lon="8.43091">
        <ele>1898</ele>
        <time>2021-08-13T08:08:21.167Z</time>
      </trkpt>
      <trkpt lat="46.84398" lon="8.43088">
        <ele>1898</ele>
        <time>2021-08-13T08:08:22.167Z</time>
      </trkpt>
      <trkpt lat="46.84399" lon="8.43086">
        <ele>1898</ele>
        <time>2021-08-13T08:08:23.168Z</time>
      </trkpt>
      <trkpt lat="46.84399" lon="8.43084">
        <ele>1897</ele>
        <time>2021-08-13T08:08:24.168Z</time>
      </trkpt>
      <trkpt lat="46.844" lon="8.43081">
        <ele>1897</ele>
        <time>2021-08-13T08:08:25.168Z</time>
      </trkpt>
      <trkpt lat="46.844" lon="8.4308">
        <ele>1897</ele>
        <time>2021-08-13T08:08:26.168Z</time>
      </trkpt>
      <trkpt lat="46.844" lon="8.43078">
        <ele>1898</ele>
        <time>2021-08-13T08:08:27.168Z</time>
      </trkpt>
      <trkpt lat="46.84401" lon="8.43077">
        <ele>1898</ele>
        <time>2021-08-13T08:08:28.167Z</time>
      </trkpt>
      <trkpt lat="46.84401" lon="8.43076">
        <ele>1898</ele>
        <time>2021-08-13T08:08:29.168Z</time>
      </trkpt>
      <trkpt lat="46.84401" lon="8.43075">
        <ele>1898</ele>
        <time>2021-08-13T08:08:30.167Z</time>
      </trkpt>
      <trkpt lat="46.84401" lon="8.43074">
        <ele>1898</ele>
        <time>2021-08-13T08:08:31.168Z</time>
      </trkpt>
      <trkpt lat="46.84401" lon="8.43072">
        <ele>1898</ele>
        <time>2021-08-13T08:08:32.168Z</time>
      </trkpt>
      <trkpt lat="46.84401" lon="8.43071">
        <ele>1898</ele>
        <time>2021-08-13T08:08:33.167Z</time>
      </trkpt>
      <trkpt lat="46.84401" lon="8.43069">
        <ele>1898</ele>
        <time>2021-08-13T08:08:34.168Z</time>
      </trkpt>
      <trkpt lat="46.844" lon="8.43068">
        <ele>1898</ele>
        <time>2021-08-13T08:08:35.167Z</time>
      </trkpt>
      <trkpt lat="46.84399" lon="8.43066">
        <ele>1898</ele>
        <time>2021-08-13T08:08:36.168Z</time>
      </trkpt>
      <trkpt lat="46.84399" lon="8.43064">
        <ele>1898</ele>
        <time>2021-08-13T08:08:37.168Z</time>
      </trkpt>
      <trkpt lat="46.84398" lon="8.43063">
        <ele>1898</ele>
        <time>2021-08-13T08:08:38.168Z</time>
      </trkpt>
      <trkpt lat="46.84397" lon="8.43062">
        <ele>1898</ele>
        <time>2021-08-13T08:08:39.168Z</time>
      </trkpt>
      <trkpt lat="46.84397" lon="8.4306">
        <ele>1898</ele>
        <time>2021-08-13T08:08:40.167Z</time>
      </trkpt>
      <trkpt lat="46.84396" lon="8.43059">
        <ele>1897</ele>
        <time>2021-08-13T08:08:41.168Z</time>
      </trkpt>
      <trkpt lat="46.84396" lon="8.43057">
        <ele>1897</ele>
        <time>2021-08-13T08:08:42.167Z</time>
      </trkpt>
      <trkpt lat="46.84395" lon="8.43055">
        <ele>1897</ele>
        <time>2021-08-13T08:08:43.168Z</time>
      </trkpt>
      <trkpt lat="46.84395" lon="8.43054">
        <ele>1897</ele>
        <time>2021-08-13T08:08:44.167Z</time>
      </trkpt>
      <trkpt lat="46.84394" lon="8.43053">
        <ele>1897</ele>
        <time>2021-08-13T08:08:45.167Z</time>
      </trkpt>
      <trkpt lat="46.84394" lon="8.43052">
        <ele>1897</ele>
        <time>2021-08-13T08:08:46.167Z</time>
      </trkpt>
      <trkpt lat="46.84393" lon="8.43051">
        <ele>1897</ele>
        <time>2021-08-13T08:08:47.167Z</time>
      </trkpt>
      <trkpt lat="46.84393" lon="8.43051">
        <ele>1897</ele>
        <time>2021-08-13T08:08:48.167Z</time>
      </trkpt>
      <trkpt lat="46.84392" lon="8.4305">
        <ele>1897</ele>
        <time>2021-08-13T08:08:49.168Z</time>
      </trkpt>
      <trkpt lat="46.84392" lon="8.4305">
        <ele>1897</ele>
        <time>2021-08-13T08:08:50.167Z</time>
      </trkpt>
      <trkpt lat="46.84392" lon="8.4305">
        <ele>1897</ele>
        <time>2021-08-13T08:08:51.167Z</time>
      </trkpt>
      <trkpt lat="46.84392" lon="8.43051">
        <ele>1897</ele>
        <time>2021-08-13T08:08:52.167Z</time>
      </trkpt>
      <trkpt lat="46.84391" lon="8.4305">
        <ele>1897</ele>
        <time>2021-08-13T08:08:53.168Z</time>
      </trkpt>
      <trkpt lat="46.8439" lon="8.43049">
        <ele>1897</ele>
        <time>2021-08-13T08:08:54.168Z</time>
      </trkpt>
      <trkpt lat="46.8439" lon="8.43048">
        <ele>1898</ele>
        <time>2021-08-13T08:08:55.168Z</time>
      </trkpt>
      <trkpt lat="46.84388" lon="8.43047">
        <ele>1898</ele>
        <time>2021-08-13T08:08:56.167Z</time>
      </trkpt>
      <trkpt lat="46.84387" lon="8.43046">
        <ele>1898</ele>
        <time>2021-08-13T08:08:57.168Z</time>
      </trkpt>
      <trkpt lat="46.84387" lon="8.43045">
        <ele>1898</ele>
        <time>2021-08-13T08:08:58.168Z</time>
      </trkpt>
      <trkpt lat="46.84387" lon="8.43045">
        <ele>1898</ele>
        <time>2021-08-13T08:08:59.167Z</time>
      </trkpt>
      <trkpt lat="46.84387" lon="8.43045">
        <ele>1898</ele>
        <time>2021-08-13T08:09:00.168Z</time>
      </trkpt>
      <trkpt lat="46.84387" lon="8.43044">
        <ele>1899</ele>
        <time>2021-08-13T08:09:01.167Z</time>
      </trkpt>
      <trkpt lat="46.84387" lon="8.43044">
        <ele>1898</ele>
        <time>2021-08-13T08:09:02.168Z</time>
      </trkpt>
      <trkpt lat="46.84387" lon="8.43043">
        <ele>1898</ele>
        <time>2021-08-13T08:09:03.168Z</time>
      </trkpt>
      <trkpt lat="46.84387" lon="8.43042">
        <ele>1898</ele>
        <time>2021-08-13T08:09:04.168Z</time>
      </trkpt>
      <trkpt lat="46.84386" lon="8.43042">
        <ele>1897</ele>
        <time>2021-08-13T08:09:05.168Z</time>
      </trkpt>
      <trkpt lat="46.84386" lon="8.43042">
        <ele>1896</ele>
        <time>2021-08-13T08:09:06.168Z</time>
      </trkpt>
      <trkpt lat="46.84386" lon="8.43042">
        <ele>1896</ele>
        <time>2021-08-13T08:09:07.167Z</time>
      </trkpt>
      <trkpt lat="46.84386" lon="8.43042">
        <ele>1896</ele>
        <time>2021-08-13T08:09:08.167Z</time>
      </trkpt>
      <trkpt lat="46.84386" lon="8.43041">
        <ele>1896</ele>
        <time>2021-08-13T08:09:09.170Z</time>
      </trkpt>
      <trkpt lat="46.84385" lon="8.4304">
        <ele>1896</ele>
        <time>2021-08-13T08:09:10.170Z</time>
      </trkpt>
      <trkpt lat="46.84385" lon="8.43039">
        <ele>1896</ele>
        <time>2021-08-13T08:09:11.170Z</time>
      </trkpt>
      <trkpt lat="46.84385" lon="8.43038">
        <ele>1896</ele>
        <time>2021-08-13T08:09:12.169Z</time>
      </trkpt>
      <trkpt lat="46.84385" lon="8.43037">
        <ele>1895</ele>
        <time>2021-08-13T08:09:13.169Z</time>
      </trkpt>
      <trkpt lat="46.84384" lon="8.43035">
        <ele>1895</ele>
        <time>2021-08-13T08:09:14.170Z</time>
      </trkpt>
      <trkpt lat="46.84383" lon="8.43033">
        <ele>1895</ele>
        <time>2021-08-13T08:09:15.170Z</time>
      </trkpt>
      <trkpt lat="46.84382" lon="8.43031">
        <ele>1894</ele>
        <time>2021-08-13T08:09:16.170Z</time>
      </trkpt>
      <trkpt lat="46.84381" lon="8.43029">
        <ele>1894</ele>
        <time>2021-08-13T08:09:17.170Z</time>
      </trkpt>
      <trkpt lat="46.8438" lon="8.43027">
        <ele>1894</ele>
        <time>2021-08-13T08:09:18.170Z</time>
      </trkpt>
      <trkpt lat="46.84379" lon="8.43025">
        <ele>1894</ele>
        <time>2021-08-13T08:09:19.170Z</time>
      </trkpt>
      <trkpt lat="46.84379" lon="8.43024">
        <ele>1895</ele>
        <time>2021-08-13T08:09:20.169Z</time>
      </trkpt>
      <trkpt lat="46.84378" lon="8.43023">
        <ele>1895</ele>
        <time>2021-08-13T08:09:21.170Z</time>
      </trkpt>
      <trkpt lat="46.84378" lon="8.43021">
        <ele>1895</ele>
        <time>2021-08-13T08:09:22.170Z</time>
      </trkpt>
      <trkpt lat="46.84378" lon="8.4302">
        <ele>1895</ele>
        <time>2021-08-13T08:09:23.170Z</time>
      </trkpt>
      <trkpt lat="46.84378" lon="8.43018">
        <ele>1895</ele>
        <time>2021-08-13T08:09:24.170Z</time>
      </trkpt>
      <trkpt lat="46.84377" lon="8.43016">
        <ele>1895</ele>
        <time>2021-08-13T08:09:25.170Z</time>
      </trkpt>
      <trkpt lat="46.84376" lon="8.43014">
        <ele>1895</ele>
        <time>2021-08-13T08:09:26.169Z</time>
      </trkpt>
      <trkpt lat="46.84375" lon="8.43012">
        <ele>1895</ele>
        <time>2021-08-13T08:09:27.170Z</time>
      </trkpt>
      <trkpt lat="46.84374" lon="8.43009">
        <ele>1895</ele>
        <time>2021-08-13T08:09:28.170Z</time>
      </trkpt>
      <trkpt lat="46.84373" lon="8.43007">
        <ele>1895</ele>
        <time>2021-08-13T08:09:29.170Z</time>
      </trkpt>
      <trkpt lat="46.84373" lon="8.43006">
        <ele>1894</ele>
        <time>2021-08-13T08:09:30.170Z</time>
      </trkpt>
      <trkpt lat="46.84373" lon="8.43004">
        <ele>1894</ele>
        <time>2021-08-13T08:09:31.170Z</time>
      </trkpt>
      <trkpt lat="46.84373" lon="8.43002">
        <ele>1893</ele>
        <time>2021-08-13T08:09:32.169Z</time>
      </trkpt>
      <trkpt lat="46.84372" lon="8.43">
        <ele>1892</ele>
        <time>2021-08-13T08:09:33.170Z</time>
      </trkpt>
      <trkpt lat="46.84372" lon="8.42999">
        <ele>1892</ele>
        <time>2021-08-13T08:09:34.170Z</time>
      </trkpt>
      <trkpt lat="46.84371" lon="8.42997">
        <ele>1891</ele>
        <time>2021-08-13T08:09:35.169Z</time>
      </trkpt>
      <trkpt lat="46.8437" lon="8.42996">
        <ele>1890</ele>
        <time>2021-08-13T08:09:36.170Z</time>
      </trkpt>
      <trkpt lat="46.84369" lon="8.42994">
        <ele>1890</ele>
        <time>2021-08-13T08:09:37.170Z</time>
      </trkpt>
      <trkpt lat="46.84368" lon="8.42993">
        <ele>1889</ele>
        <time>2021-08-13T08:09:38.170Z</time>
      </trkpt>
      <trkpt lat="46.84368" lon="8.42991">
        <ele>1889</ele>
        <time>2021-08-13T08:09:39.170Z</time>
      </trkpt>
      <trkpt lat="46.84367" lon="8.4299">
        <ele>1889</ele>
        <time>2021-08-13T08:09:40.170Z</time>
      </trkpt>
      <trkpt lat="46.84366" lon="8.42989">
        <ele>1889</ele>
        <time>2021-08-13T08:09:41.170Z</time>
      </trkpt>
      <trkpt lat="46.84365" lon="8.42987">
        <ele>1888</ele>
        <time>2021-08-13T08:09:42.170Z</time>
      </trkpt>
      <trkpt lat="46.84365" lon="8.42986">
        <ele>1888</ele>
        <time>2021-08-13T08:09:43.170Z</time>
      </trkpt>
      <trkpt lat="46.84364" lon="8.42985">
        <ele>1887</ele>
        <time>2021-08-13T08:09:44.170Z</time>
      </trkpt>
      <trkpt lat="46.84363" lon="8.42984">
        <ele>1886</ele>
        <time>2021-08-13T08:09:45.170Z</time>
      </trkpt>
      <trkpt lat="46.84362" lon="8.42984">
        <ele>1886</ele>
        <time>2021-08-13T08:09:46.170Z</time>
      </trkpt>
      <trkpt lat="46.84362" lon="8.42983">
        <ele>1886</ele>
        <time>2021-08-13T08:09:47.169Z</time>
      </trkpt>
      <trkpt lat="46.84361" lon="8.42982">
        <ele>1885</ele>
        <time>2021-08-13T08:09:48.170Z</time>
      </trkpt>
      <trkpt lat="46.8436" lon="8.42982">
        <ele>1885</ele>
        <time>2021-08-13T08:09:49.170Z</time>
      </trkpt>
      <trkpt lat="46.84359" lon="8.42981">
        <ele>1885</ele>
        <time>2021-08-13T08:09:50.170Z</time>
      </trkpt>
      <trkpt lat="46.84358" lon="8.4298">
        <ele>1885</ele>
        <time>2021-08-13T08:09:51.169Z</time>
      </trkpt>
      <trkpt lat="46.84357" lon="8.42981">
        <ele>1885</ele>
        <time>2021-08-13T08:09:52.169Z</time>
      </trkpt>
      <trkpt lat="46.84356" lon="8.4298">
        <ele>1885</ele>
        <time>2021-08-13T08:09:53.169Z</time>
      </trkpt>
      <trkpt lat="46.84355" lon="8.4298">
        <ele>1885</ele>
        <time>2021-08-13T08:09:54.169Z</time>
      </trkpt>
      <trkpt lat="46.84354" lon="8.42979">
        <ele>1885</ele>
        <time>2021-08-13T08:09:55.169Z</time>
      </trkpt>
      <trkpt lat="46.84354" lon="8.42978">
        <ele>1885</ele>
        <time>2021-08-13T08:09:56.169Z</time>
      </trkpt>
      <trkpt lat="46.84353" lon="8.42976">
        <ele>1884</ele>
        <time>2021-08-13T08:09:57.169Z</time>
      </trkpt>
      <trkpt lat="46.84352" lon="8.42975">
        <ele>1884</ele>
        <time>2021-08-13T08:09:58.170Z</time>
      </trkpt>
      <trkpt lat="46.84352" lon="8.42974">
        <ele>1884</ele>
        <time>2021-08-13T08:09:59.169Z</time>
      </trkpt>
      <trkpt lat="46.84351" lon="8.42973">
        <ele>1884</ele>
        <time>2021-08-13T08:10:00.169Z</time>
      </trkpt>
      <trkpt lat="46.8435" lon="8.42972">
        <ele>1884</ele>
        <time>2021-08-13T08:10:01.169Z</time>
      </trkpt>
      <trkpt lat="46.84348" lon="8.42971">
        <ele>1884</ele>
        <time>2021-08-13T08:10:02.169Z</time>
      </trkpt>
      <trkpt lat="46.84347" lon="8.42969">
        <ele>1883</ele>
        <time>2021-08-13T08:10:03.169Z</time>
      </trkpt>
      <trkpt lat="46.84346" lon="8.42968">
        <ele>1883</ele>
        <time>2021-08-13T08:10:04.169Z</time>
      </trkpt>
      <trkpt lat="46.84345" lon="8.42967">
        <ele>1883</ele>
        <time>2021-08-13T08:10:05.170Z</time>
      </trkpt>
      <trkpt lat="46.84344" lon="8.42967">
        <ele>1882</ele>
        <time>2021-08-13T08:10:06.169Z</time>
      </trkpt>
      <trkpt lat="46.84343" lon="8.42966">
        <ele>1882</ele>
        <time>2021-08-13T08:10:07.169Z</time>
      </trkpt>
      <trkpt lat="46.84341" lon="8.42965">
        <ele>1882</ele>
        <time>2021-08-13T08:10:08.170Z</time>
      </trkpt>
      <trkpt lat="46.8434" lon="8.42964">
        <ele>1882</ele>
        <time>2021-08-13T08:10:09.169Z</time>
      </trkpt>
      <trkpt lat="46.84338" lon="8.42963">
        <ele>1882</ele>
        <time>2021-08-13T08:10:10.169Z</time>
      </trkpt>
      <trkpt lat="46.84337" lon="8.42962">
        <ele>1882</ele>
        <time>2021-08-13T08:10:11.169Z</time>
      </trkpt>
      <trkpt lat="46.84336" lon="8.42962">
        <ele>1882</ele>
        <time>2021-08-13T08:10:12.169Z</time>
      </trkpt>
      <trkpt lat="46.84335" lon="8.42961">
        <ele>1882</ele>
        <time>2021-08-13T08:10:13.170Z</time>
      </trkpt>
      <trkpt lat="46.84333" lon="8.4296">
        <ele>1882</ele>
        <time>2021-08-13T08:10:14.169Z</time>
      </trkpt>
      <trkpt lat="46.84332" lon="8.42959">
        <ele>1882</ele>
        <time>2021-08-13T08:10:15.169Z</time>
      </trkpt>
      <trkpt lat="46.84331" lon="8.42958">
        <ele>1881</ele>
        <time>2021-08-13T08:10:16.169Z</time>
      </trkpt>
      <trkpt lat="46.84329" lon="8.42957">
        <ele>1881</ele>
        <time>2021-08-13T08:10:17.170Z</time>
      </trkpt>
      <trkpt lat="46.84328" lon="8.42956">
        <ele>1881</ele>
        <time>2021-08-13T08:10:18.169Z</time>
      </trkpt>
      <trkpt lat="46.84327" lon="8.42955">
        <ele>1880</ele>
        <time>2021-08-13T08:10:19.169Z</time>
      </trkpt>
      <trkpt lat="46.84325" lon="8.42955">
        <ele>1880</ele>
        <time>2021-08-13T08:10:20.169Z</time>
      </trkpt>
      <trkpt lat="46.84324" lon="8.42955">
        <ele>1880</ele>
        <time>2021-08-13T08:10:21.169Z</time>
      </trkpt>
      <trkpt lat="46.84323" lon="8.42954">
        <ele>1880</ele>
        <time>2021-08-13T08:10:22.169Z</time>
      </trkpt>
      <trkpt lat="46.84322" lon="8.42953">
        <ele>1881</ele>
        <time>2021-08-13T08:10:23.169Z</time>
      </trkpt>
      <trkpt lat="46.84322" lon="8.42953">
        <ele>1881</ele>
        <time>2021-08-13T08:10:24.169Z</time>
      </trkpt>
      <trkpt lat="46.84321" lon="8.42953">
        <ele>1881</ele>
        <time>2021-08-13T08:10:25.169Z</time>
      </trkpt>
      <trkpt lat="46.8432" lon="8.42952">
        <ele>1882</ele>
        <time>2021-08-13T08:10:26.169Z</time>
      </trkpt>
      <trkpt lat="46.84319" lon="8.42951">
        <ele>1882</ele>
        <time>2021-08-13T08:10:27.170Z</time>
      </trkpt>
      <trkpt lat="46.84319" lon="8.4295">
        <ele>1882</ele>
        <time>2021-08-13T08:10:28.169Z</time>
      </trkpt>
      <trkpt lat="46.84318" lon="8.4295">
        <ele>1882</ele>
        <time>2021-08-13T08:10:29.169Z</time>
      </trkpt>
      <trkpt lat="46.84318" lon="8.42948">
        <ele>1882</ele>
        <time>2021-08-13T08:10:30.169Z</time>
      </trkpt>
      <trkpt lat="46.84318" lon="8.42947">
        <ele>1883</ele>
        <time>2021-08-13T08:10:31.170Z</time>
      </trkpt>
      <trkpt lat="46.84317" lon="8.42946">
        <ele>1883</ele>
        <time>2021-08-13T08:10:32.169Z</time>
      </trkpt>
      <trkpt lat="46.84317" lon="8.42945">
        <ele>1883</ele>
        <time>2021-08-13T08:10:33.169Z</time>
      </trkpt>
      <trkpt lat="46.84317" lon="8.42944">
        <ele>1883</ele>
        <time>2021-08-13T08:10:34.170Z</time>
      </trkpt>
      <trkpt lat="46.84317" lon="8.42943">
        <ele>1884</ele>
        <time>2021-08-13T08:10:35.170Z</time>
      </trkpt>
      <trkpt lat="46.84317" lon="8.42942">
        <ele>1884</ele>
        <time>2021-08-13T08:10:36.169Z</time>
      </trkpt>
      <trkpt lat="46.84317" lon="8.42941">
        <ele>1885</ele>
        <time>2021-08-13T08:10:37.170Z</time>
      </trkpt>
      <trkpt lat="46.84318" lon="8.42939">
        <ele>1885</ele>
        <time>2021-08-13T08:10:38.170Z</time>
      </trkpt>
      <trkpt lat="46.84318" lon="8.42938">
        <ele>1885</ele>
        <time>2021-08-13T08:10:39.170Z</time>
      </trkpt>
      <trkpt lat="46.84318" lon="8.42936">
        <ele>1885</ele>
        <time>2021-08-13T08:10:40.170Z</time>
      </trkpt>
      <trkpt lat="46.84319" lon="8.42934">
        <ele>1885</ele>
        <time>2021-08-13T08:10:41.169Z</time>
      </trkpt>
      <trkpt lat="46.84319" lon="8.42933">
        <ele>1885</ele>
        <time>2021-08-13T08:10:42.170Z</time>
      </trkpt>
      <trkpt lat="46.8432" lon="8.42931">
        <ele>1885</ele>
        <time>2021-08-13T08:10:43.170Z</time>
      </trkpt>
      <trkpt lat="46.8432" lon="8.4293">
        <ele>1885</ele>
        <time>2021-08-13T08:10:44.169Z</time>
      </trkpt>
      <trkpt lat="46.8432" lon="8.42928">
        <ele>1885</ele>
        <time>2021-08-13T08:10:45.170Z</time>
      </trkpt>
      <trkpt lat="46.84321" lon="8.42927">
        <ele>1885</ele>
        <time>2021-08-13T08:10:46.170Z</time>
      </trkpt>
      <trkpt lat="46.84321" lon="8.42926">
        <ele>1885</ele>
        <time>2021-08-13T08:10:47.170Z</time>
      </trkpt>
      <trkpt lat="46.84322" lon="8.42926">
        <ele>1885</ele>
        <time>2021-08-13T08:10:48.169Z</time>
      </trkpt>
      <trkpt lat="46.84322" lon="8.42925">
        <ele>1884</ele>
        <time>2021-08-13T08:10:49.170Z</time>
      </trkpt>
      <trkpt lat="46.84322" lon="8.42924">
        <ele>1884</ele>
        <time>2021-08-13T08:10:50.169Z</time>
      </trkpt>
      <trkpt lat="46.84323" lon="8.42923">
        <ele>1883</ele>
        <time>2021-08-13T08:10:51.170Z</time>
      </trkpt>
      <trkpt lat="46.84323" lon="8.42923">
        <ele>1883</ele>
        <time>2021-08-13T08:10:52.170Z</time>
      </trkpt>
      <trkpt lat="46.84324" lon="8.42922">
        <ele>1882</ele>
        <time>2021-08-13T08:10:53.170Z</time>
      </trkpt>
      <trkpt lat="46.84325" lon="8.42922">
        <ele>1882</ele>
        <time>2021-08-13T08:10:54.169Z</time>
      </trkpt>
      <trkpt lat="46.84326" lon="8.42921">
        <ele>1882</ele>
        <time>2021-08-13T08:10:55.169Z</time>
      </trkpt>
      <trkpt lat="46.84326" lon="8.4292">
        <ele>1882</ele>
        <time>2021-08-13T08:10:56.170Z</time>
      </trkpt>
      <trkpt lat="46.84327" lon="8.42919">
        <ele>1881</ele>
        <time>2021-08-13T08:10:57.170Z</time>
      </trkpt>
      <trkpt lat="46.84327" lon="8.42917">
        <ele>1881</ele>
        <time>2021-08-13T08:10:58.170Z</time>
      </trkpt>
      <trkpt lat="46.84328" lon="8.42916">
        <ele>1881</ele>
        <time>2021-08-13T08:10:59.170Z</time>
      </trkpt>
      <trkpt lat="46.84328" lon="8.42914">
        <ele>1881</ele>
        <time>2021-08-13T08:11:00.170Z</time>
      </trkpt>
      <trkpt lat="46.84328" lon="8.42913">
        <ele>1881</ele>
        <time>2021-08-13T08:11:01.170Z</time>
      </trkpt>
      <trkpt lat="46.84328" lon="8.42912">
        <ele>1881</ele>
        <time>2021-08-13T08:11:02.169Z</time>
      </trkpt>
      <trkpt lat="46.84328" lon="8.4291">
        <ele>1880</ele>
        <time>2021-08-13T08:11:03.170Z</time>
      </trkpt>
      <trkpt lat="46.84328" lon="8.42908">
        <ele>1880</ele>
        <time>2021-08-13T08:11:04.169Z</time>
      </trkpt>
      <trkpt lat="46.84328" lon="8.42907">
        <ele>1880</ele>
        <time>2021-08-13T08:11:05.170Z</time>
      </trkpt>
      <trkpt lat="46.84327" lon="8.42906">
        <ele>1879</ele>
        <time>2021-08-13T08:11:06.169Z</time>
      </trkpt>
      <trkpt lat="46.84326" lon="8.42904">
        <ele>1879</ele>
        <time>2021-08-13T08:11:07.170Z</time>
      </trkpt>
      <trkpt lat="46.84326" lon="8.42903">
        <ele>1879</ele>
        <time>2021-08-13T08:11:08.169Z</time>
      </trkpt>
      <trkpt lat="46.84325" lon="8.42902">
        <ele>1879</ele>
        <time>2021-08-13T08:11:09.169Z</time>
      </trkpt>
      <trkpt lat="46.84324" lon="8.42901">
        <ele>1879</ele>
        <time>2021-08-13T08:11:10.169Z</time>
      </trkpt>
      <trkpt lat="46.84323" lon="8.429">
        <ele>1879</ele>
        <time>2021-08-13T08:11:11.169Z</time>
      </trkpt>
      <trkpt lat="46.84322" lon="8.42899">
        <ele>1879</ele>
        <time>2021-08-13T08:11:12.169Z</time>
      </trkpt>
      <trkpt lat="46.84322" lon="8.42899">
        <ele>1879</ele>
        <time>2021-08-13T08:11:13.169Z</time>
      </trkpt>
      <trkpt lat="46.84321" lon="8.42898">
        <ele>1879</ele>
        <time>2021-08-13T08:11:14.169Z</time>
      </trkpt>
      <trkpt lat="46.8432" lon="8.42897">
        <ele>1879</ele>
        <time>2021-08-13T08:11:15.169Z</time>
      </trkpt>
      <trkpt lat="46.8432" lon="8.42896">
        <ele>1880</ele>
        <time>2021-08-13T08:11:16.170Z</time>
      </trkpt>
      <trkpt lat="46.8432" lon="8.42894">
        <ele>1880</ele>
        <time>2021-08-13T08:11:17.169Z</time>
      </trkpt>
      <trkpt lat="46.8432" lon="8.42893">
        <ele>1880</ele>
        <time>2021-08-13T08:11:18.169Z</time>
      </trkpt>
      <trkpt lat="46.84319" lon="8.42891">
        <ele>1880</ele>
        <time>2021-08-13T08:11:19.169Z</time>
      </trkpt>
      <trkpt lat="46.84319" lon="8.4289">
        <ele>1880</ele>
        <time>2021-08-13T08:11:20.169Z</time>
      </trkpt>
      <trkpt lat="46.84319" lon="8.42889">
        <ele>1880</ele>
        <time>2021-08-13T08:11:21.169Z</time>
      </trkpt>
      <trkpt lat="46.84319" lon="8.42889">
        <ele>1880</ele>
        <time>2021-08-13T08:11:22.169Z</time>
      </trkpt>
      <trkpt lat="46.84318" lon="8.42887">
        <ele>1880</ele>
        <time>2021-08-13T08:11:23.169Z</time>
      </trkpt>
      <trkpt lat="46.84318" lon="8.42886">
        <ele>1880</ele>
        <time>2021-08-13T08:11:24.169Z</time>
      </trkpt>
      <trkpt lat="46.84317" lon="8.42885">
        <ele>1880</ele>
        <time>2021-08-13T08:11:25.170Z</time>
      </trkpt>
      <trkpt lat="46.84316" lon="8.42884">
        <ele>1880</ele>
        <time>2021-08-13T08:11:26.170Z</time>
      </trkpt>
      <trkpt lat="46.84315" lon="8.42882">
        <ele>1880</ele>
        <time>2021-08-13T08:11:27.170Z</time>
      </trkpt>
      <trkpt lat="46.84315" lon="8.42881">
        <ele>1880</ele>
        <time>2021-08-13T08:11:28.170Z</time>
      </trkpt>
      <trkpt lat="46.84314" lon="8.42879">
        <ele>1880</ele>
        <time>2021-08-13T08:11:29.169Z</time>
      </trkpt>
      <trkpt lat="46.84314" lon="8.42878">
        <ele>1880</ele>
        <time>2021-08-13T08:11:30.170Z</time>
      </trkpt>
      <trkpt lat="46.84314" lon="8.42877">
        <ele>1881</ele>
        <time>2021-08-13T08:11:31.169Z</time>
      </trkpt>
      <trkpt lat="46.84315" lon="8.42876">
        <ele>1881</ele>
        <time>2021-08-13T08:11:32.169Z</time>
      </trkpt>
      <trkpt lat="46.84315" lon="8.42875">
        <ele>1881</ele>
        <time>2021-08-13T08:11:33.170Z</time>
      </trkpt>
      <trkpt lat="46.84316" lon="8.42875">
        <ele>1881</ele>
        <time>2021-08-13T08:11:34.169Z</time>
      </trkpt>
      <trkpt lat="46.84316" lon="8.42874">
        <ele>1881</ele>
        <time>2021-08-13T08:11:35.170Z</time>
      </trkpt>
      <trkpt lat="46.84316" lon="8.42873">
        <ele>1881</ele>
        <time>2021-08-13T08:11:36.170Z</time>
      </trkpt>
      <trkpt lat="46.84316" lon="8.42872">
        <ele>1882</ele>
        <time>2021-08-13T08:11:37.170Z</time>
      </trkpt>
      <trkpt lat="46.84316" lon="8.42871">
        <ele>1882</ele>
        <time>2021-08-13T08:11:38.170Z</time>
      </trkpt>
      <trkpt lat="46.84316" lon="8.4287">
        <ele>1882</ele>
        <time>2021-08-13T08:11:39.170Z</time>
      </trkpt>
      <trkpt lat="46.84316" lon="8.4287">
        <ele>1882</ele>
        <time>2021-08-13T08:11:40.170Z</time>
      </trkpt>
      <trkpt lat="46.84317" lon="8.4287">
        <ele>1882</ele>
        <time>2021-08-13T08:11:41.169Z</time>
      </trkpt>
      <trkpt lat="46.84316" lon="8.4287">
        <ele>1882</ele>
        <time>2021-08-13T08:11:42.169Z</time>
      </trkpt>
      <trkpt lat="46.84316" lon="8.4287">
        <ele>1883</ele>
        <time>2021-08-13T08:11:43.169Z</time>
      </trkpt>
      <trkpt lat="46.84317" lon="8.4287">
        <ele>1883</ele>
        <time>2021-08-13T08:11:44.169Z</time>
      </trkpt>
      <trkpt lat="46.84318" lon="8.42869">
        <ele>1883</ele>
        <time>2021-08-13T08:11:45.171Z</time>
      </trkpt>
      <trkpt lat="46.84318" lon="8.42868">
        <ele>1882</ele>
        <time>2021-08-13T08:11:46.170Z</time>
      </trkpt>
      <trkpt lat="46.84318" lon="8.42868">
        <ele>1881</ele>
        <time>2021-08-13T08:11:47.170Z</time>
      </trkpt>
      <trkpt lat="46.84318" lon="8.42868">
        <ele>1881</ele>
        <time>2021-08-13T08:11:48.171Z</time>
      </trkpt>
      <trkpt lat="46.84319" lon="8.42867">
        <ele>1880</ele>
        <time>2021-08-13T08:11:49.171Z</time>
      </trkpt>
      <trkpt lat="46.84319" lon="8.42866">
        <ele>1880</ele>
        <time>2021-08-13T08:11:50.171Z</time>
      </trkpt>
      <trkpt lat="46.84319" lon="8.42866">
        <ele>1879</ele>
        <time>2021-08-13T08:11:51.171Z</time>
      </trkpt>
      <trkpt lat="46.84319" lon="8.42865">
        <ele>1879</ele>
        <time>2021-08-13T08:11:52.171Z</time>
      </trkpt>
      <trkpt lat="46.8432" lon="8.42865">
        <ele>1878</ele>
        <time>2021-08-13T08:11:53.171Z</time>
      </trkpt>
      <trkpt lat="46.8432" lon="8.42864">
        <ele>1878</ele>
        <time>2021-08-13T08:11:54.170Z</time>
      </trkpt>
      <trkpt lat="46.8432" lon="8.42864">
        <ele>1877</ele>
        <time>2021-08-13T08:11:55.170Z</time>
      </trkpt>
      <trkpt lat="46.8432" lon="8.42863">
        <ele>1877</ele>
        <time>2021-08-13T08:11:56.170Z</time>
      </trkpt>
      <trkpt lat="46.8432" lon="8.42862">
        <ele>1877</ele>
        <time>2021-08-13T08:11:57.170Z</time>
      </trkpt>
      <trkpt lat="46.8432" lon="8.42862">
        <ele>1877</ele>
        <time>2021-08-13T08:11:58.171Z</time>
      </trkpt>
      <trkpt lat="46.8432" lon="8.42861">
        <ele>1877</ele>
        <time>2021-08-13T08:11:59.171Z</time>
      </trkpt>
      <trkpt lat="46.8432" lon="8.4286">
        <ele>1877</ele>
        <time>2021-08-13T08:12:00.171Z</time>
      </trkpt>
      <trkpt lat="46.84319" lon="8.42858">
        <ele>1877</ele>
        <time>2021-08-13T08:12:01.171Z</time>
      </trkpt>
      <trkpt lat="46.84319" lon="8.42857">
        <ele>1877</ele>
        <time>2021-08-13T08:12:02.171Z</time>
      </trkpt>
      <trkpt lat="46.84319" lon="8.42855">
        <ele>1877</ele>
        <time>2021-08-13T08:12:03.171Z</time>
      </trkpt>
      <trkpt lat="46.84319" lon="8.42854">
        <ele>1876</ele>
        <time>2021-08-13T08:12:04.171Z</time>
      </trkpt>
      <trkpt lat="46.84319" lon="8.42852">
        <ele>1876</ele>
        <time>2021-08-13T08:12:05.171Z</time>
      </trkpt>
      <trkpt lat="46.84319" lon="8.4285">
        <ele>1876</ele>
        <time>2021-08-13T08:12:06.171Z</time>
      </trkpt>
      <trkpt lat="46.84319" lon="8.42849">
        <ele>1876</ele>
        <time>2021-08-13T08:12:07.171Z</time>
      </trkpt>
      <trkpt lat="46.84319" lon="8.42847">
        <ele>1875</ele>
        <time>2021-08-13T08:12:08.170Z</time>
      </trkpt>
      <trkpt lat="46.8432" lon="8.42846">
        <ele>1875</ele>
        <time>2021-08-13T08:12:09.171Z</time>
      </trkpt>
      <trkpt lat="46.8432" lon="8.42845">
        <ele>1876</ele>
        <time>2021-08-13T08:12:10.170Z</time>
      </trkpt>
      <trkpt lat="46.84319" lon="8.42844">
        <ele>1876</ele>
        <time>2021-08-13T08:12:11.170Z</time>
      </trkpt>
      <trkpt lat="46.8432" lon="8.42843">
        <ele>1877</ele>
        <time>2021-08-13T08:12:12.171Z</time>
      </trkpt>
      <trkpt lat="46.8432" lon="8.42842">
        <ele>1877</ele>
        <time>2021-08-13T08:12:13.170Z</time>
      </trkpt>
      <trkpt lat="46.8432" lon="8.42841">
        <ele>1876</ele>
        <time>2021-08-13T08:12:14.171Z</time>
      </trkpt>
      <trkpt lat="46.8432" lon="8.4284">
        <ele>1876</ele>
        <time>2021-08-13T08:12:15.170Z</time>
      </trkpt>
      <trkpt lat="46.8432" lon="8.42838">
        <ele>1876</ele>
        <time>2021-08-13T08:12:16.171Z</time>
      </trkpt>
      <trkpt lat="46.8432" lon="8.42837">
        <ele>1876</ele>
        <time>2021-08-13T08:12:17.170Z</time>
      </trkpt>
      <trkpt lat="46.84319" lon="8.42836">
        <ele>1875</ele>
        <time>2021-08-13T08:12:18.171Z</time>
      </trkpt>
      <trkpt lat="46.84319" lon="8.42835">
        <ele>1875</ele>
        <time>2021-08-13T08:12:19.170Z</time>
      </trkpt>
      <trkpt lat="46.84319" lon="8.42833">
        <ele>1875</ele>
        <time>2021-08-13T08:12:20.171Z</time>
      </trkpt>
      <trkpt lat="46.84318" lon="8.42832">
        <ele>1875</ele>
        <time>2021-08-13T08:12:21.171Z</time>
      </trkpt>
      <trkpt lat="46.84318" lon="8.4283">
        <ele>1875</ele>
        <time>2021-08-13T08:12:22.170Z</time>
      </trkpt>
      <trkpt lat="46.84318" lon="8.42829">
        <ele>1875</ele>
        <time>2021-08-13T08:12:23.171Z</time>
      </trkpt>
      <trkpt lat="46.84317" lon="8.42828">
        <ele>1875</ele>
        <time>2021-08-13T08:12:24.170Z</time>
      </trkpt>
      <trkpt lat="46.84317" lon="8.42825">
        <ele>1874</ele>
        <time>2021-08-13T08:12:25.170Z</time>
      </trkpt>
      <trkpt lat="46.84317" lon="8.42824">
        <ele>1874</ele>
        <time>2021-08-13T08:12:26.171Z</time>
      </trkpt>
      <trkpt lat="46.84317" lon="8.42823">
        <ele>1874</ele>
        <time>2021-08-13T08:12:27.170Z</time>
      </trkpt>
      <trkpt lat="46.84317" lon="8.42822">
        <ele>1874</ele>
        <time>2021-08-13T08:12:28.171Z</time>
      </trkpt>
      <trkpt lat="46.84317" lon="8.4282">
        <ele>1874</ele>
        <time>2021-08-13T08:12:29.171Z</time>
      </trkpt>
      <trkpt lat="46.84316" lon="8.42819">
        <ele>1874</ele>
        <time>2021-08-13T08:12:30.170Z</time>
      </trkpt>
      <trkpt lat="46.84316" lon="8.42817">
        <ele>1874</ele>
        <time>2021-08-13T08:12:31.170Z</time>
      </trkpt>
      <trkpt lat="46.84316" lon="8.42815">
        <ele>1874</ele>
        <time>2021-08-13T08:12:32.171Z</time>
      </trkpt>
      <trkpt lat="46.84315" lon="8.42814">
        <ele>1873</ele>
        <time>2021-08-13T08:12:33.170Z</time>
      </trkpt>
      <trkpt lat="46.84315" lon="8.42813">
        <ele>1873</ele>
        <time>2021-08-13T08:12:34.170Z</time>
      </trkpt>
      <trkpt lat="46.84315" lon="8.42812">
        <ele>1872</ele>
        <time>2021-08-13T08:12:35.171Z</time>
      </trkpt>
      <trkpt lat="46.84314" lon="8.42812">
        <ele>1872</ele>
        <time>2021-08-13T08:12:36.170Z</time>
      </trkpt>
      <trkpt lat="46.84313" lon="8.42813">
        <ele>1871</ele>
        <time>2021-08-13T08:12:37.170Z</time>
      </trkpt>
      <trkpt lat="46.84313" lon="8.42814">
        <ele>1871</ele>
        <time>2021-08-13T08:12:38.170Z</time>
      </trkpt>
      <trkpt lat="46.84312" lon="8.42815">
        <ele>1871</ele>
        <time>2021-08-13T08:12:39.170Z</time>
      </trkpt>
      <trkpt lat="46.84312" lon="8.42816">
        <ele>1871</ele>
        <time>2021-08-13T08:12:40.170Z</time>
      </trkpt>
      <trkpt lat="46.84311" lon="8.42819">
        <ele>1871</ele>
        <time>2021-08-13T08:12:41.171Z</time>
      </trkpt>
      <trkpt lat="46.84311" lon="8.42821">
        <ele>1871</ele>
        <time>2021-08-13T08:12:42.170Z</time>
      </trkpt>
      <trkpt lat="46.84311" lon="8.42822">
        <ele>1871</ele>
        <time>2021-08-13T08:12:43.170Z</time>
      </trkpt>
      <trkpt lat="46.84311" lon="8.42824">
        <ele>1871</ele>
        <time>2021-08-13T08:12:44.170Z</time>
      </trkpt>
      <trkpt lat="46.84311" lon="8.42826">
        <ele>1871</ele>
        <time>2021-08-13T08:12:45.170Z</time>
      </trkpt>
      <trkpt lat="46.84311" lon="8.42828">
        <ele>1870</ele>
        <time>2021-08-13T08:12:46.170Z</time>
      </trkpt>
      <trkpt lat="46.84311" lon="8.42829">
        <ele>1870</ele>
        <time>2021-08-13T08:12:47.170Z</time>
      </trkpt>
      <trkpt lat="46.84311" lon="8.42831">
        <ele>1869</ele>
        <time>2021-08-13T08:12:48.171Z</time>
      </trkpt>
      <trkpt lat="46.8431" lon="8.42833">
        <ele>1869</ele>
        <time>2021-08-13T08:12:49.170Z</time>
      </trkpt>
      <trkpt lat="46.8431" lon="8.42834">
        <ele>1869</ele>
        <time>2021-08-13T08:12:50.170Z</time>
      </trkpt>
      <trkpt lat="46.8431" lon="8.42835">
        <ele>1869</ele>
        <time>2021-08-13T08:12:51.170Z</time>
      </trkpt>
      <trkpt lat="46.84309" lon="8.42837">
        <ele>1869</ele>
        <time>2021-08-13T08:12:52.170Z</time>
      </trkpt>
      <trkpt lat="46.84309" lon="8.42839">
        <ele>1869</ele>
        <time>2021-08-13T08:12:53.170Z</time>
      </trkpt>
      <trkpt lat="46.84308" lon="8.4284">
        <ele>1869</ele>
        <time>2021-08-13T08:12:54.170Z</time>
      </trkpt>
      <trkpt lat="46.84308" lon="8.42842">
        <ele>1869</ele>
        <time>2021-08-13T08:12:55.170Z</time>
      </trkpt>
      <trkpt lat="46.84307" lon="8.42843">
        <ele>1869</ele>
        <time>2021-08-13T08:12:56.170Z</time>
      </trkpt>
      <trkpt lat="46.84306" lon="8.42844">
        <ele>1868</ele>
        <time>2021-08-13T08:12:57.170Z</time>
      </trkpt>
      <trkpt lat="46.84305" lon="8.42845">
        <ele>1868</ele>
        <time>2021-08-13T08:12:58.170Z</time>
      </trkpt>
      <trkpt lat="46.84305" lon="8.42846">
        <ele>1868</ele>
        <time>2021-08-13T08:12:59.170Z</time>
      </trkpt>
      <trkpt lat="46.84305" lon="8.42847">
        <ele>1868</ele>
        <time>2021-08-13T08:13:00.170Z</time>
      </trkpt>
      <trkpt lat="46.84304" lon="8.42848">
        <ele>1868</ele>
        <time>2021-08-13T08:13:01.170Z</time>
      </trkpt>
      <trkpt lat="46.84304" lon="8.42847">
        <ele>1868</ele>
        <time>2021-08-13T08:13:02.170Z</time>
      </trkpt>
      <trkpt lat="46.84304" lon="8.42847">
        <ele>1869</ele>
        <time>2021-08-13T08:13:03.171Z</time>
      </trkpt>
      <trkpt lat="46.84304" lon="8.42846">
        <ele>1869</ele>
        <time>2021-08-13T08:13:04.171Z</time>
      </trkpt>
      <trkpt lat="46.84304" lon="8.42845">
        <ele>1869</ele>
        <time>2021-08-13T08:13:05.171Z</time>
      </trkpt>
      <trkpt lat="46.84304" lon="8.42844">
        <ele>1869</ele>
        <time>2021-08-13T08:13:06.171Z</time>
      </trkpt>
      <trkpt lat="46.84304" lon="8.42843">
        <ele>1868</ele>
        <time>2021-08-13T08:13:07.171Z</time>
      </trkpt>
      <trkpt lat="46.84304" lon="8.42842">
        <ele>1868</ele>
        <time>2021-08-13T08:13:08.171Z</time>
      </trkpt>
      <trkpt lat="46.84304" lon="8.4284">
        <ele>1867</ele>
        <time>2021-08-13T08:13:09.171Z</time>
      </trkpt>
      <trkpt lat="46.84304" lon="8.42839">
        <ele>1867</ele>
        <time>2021-08-13T08:13:10.171Z</time>
      </trkpt>
      <trkpt lat="46.84303" lon="8.42837">
        <ele>1867</ele>
        <time>2021-08-13T08:13:11.171Z</time>
      </trkpt>
      <trkpt lat="46.84303" lon="8.42835">
        <ele>1867</ele>
        <time>2021-08-13T08:13:12.171Z</time>
      </trkpt>
      <trkpt lat="46.84304" lon="8.42833">
        <ele>1868</ele>
        <time>2021-08-13T08:13:13.171Z</time>
      </trkpt>
      <trkpt lat="46.84305" lon="8.42831">
        <ele>1868</ele>
        <time>2021-08-13T08:13:14.171Z</time>
      </trkpt>
      <trkpt lat="46.84305" lon="8.42829">
        <ele>1869</ele>
        <time>2021-08-13T08:13:15.171Z</time>
      </trkpt>
      <trkpt lat="46.84305" lon="8.42828">
        <ele>1869</ele>
        <time>2021-08-13T08:13:16.171Z</time>
      </trkpt>
      <trkpt lat="46.84305" lon="8.42827">
        <ele>1869</ele>
        <time>2021-08-13T08:13:17.171Z</time>
      </trkpt>
      <trkpt lat="46.84306" lon="8.42826">
        <ele>1869</ele>
        <time>2021-08-13T08:13:18.171Z</time>
      </trkpt>
      <trkpt lat="46.84306" lon="8.42825">
        <ele>1868</ele>
        <time>2021-08-13T08:13:19.171Z</time>
      </trkpt>
      <trkpt lat="46.84306" lon="8.42824">
        <ele>1868</ele>
        <time>2021-08-13T08:13:20.171Z</time>
      </trkpt>
      <trkpt lat="46.84305" lon="8.42822">
        <ele>1868</ele>
        <time>2021-08-13T08:13:21.171Z</time>
      </trkpt>
      <trkpt lat="46.84304" lon="8.4282">
        <ele>1868</ele>
        <time>2021-08-13T08:13:22.171Z</time>
      </trkpt>
      <trkpt lat="46.84303" lon="8.4282">
        <ele>1868</ele>
        <time>2021-08-13T08:13:23.171Z</time>
      </trkpt>
      <trkpt lat="46.84303" lon="8.42819">
        <ele>1868</ele>
        <time>2021-08-13T08:13:24.171Z</time>
      </trkpt>
      <trkpt lat="46.84302" lon="8.42818">
        <ele>1868</ele>
        <time>2021-08-13T08:13:25.171Z</time>
      </trkpt>
      <trkpt lat="46.84302" lon="8.42818">
        <ele>1868</ele>
        <time>2021-08-13T08:13:26.171Z</time>
      </trkpt>
      <trkpt lat="46.84301" lon="8.42818">
        <ele>1867</ele>
        <time>2021-08-13T08:13:27.171Z</time>
      </trkpt>
      <trkpt lat="46.84302" lon="8.42818">
        <ele>1867</ele>
        <time>2021-08-13T08:13:28.170Z</time>
      </trkpt>
      <trkpt lat="46.84301" lon="8.42817">
        <ele>1867</ele>
        <time>2021-08-13T08:13:29.171Z</time>
      </trkpt>
      <trkpt lat="46.84301" lon="8.42816">
        <ele>1866</ele>
        <time>2021-08-13T08:13:30.170Z</time>
      </trkpt>
      <trkpt lat="46.843" lon="8.42815">
        <ele>1866</ele>
        <time>2021-08-13T08:13:31.171Z</time>
      </trkpt>
      <trkpt lat="46.843" lon="8.42814">
        <ele>1866</ele>
        <time>2021-08-13T08:13:32.171Z</time>
      </trkpt>
      <trkpt lat="46.843" lon="8.42814">
        <ele>1865</ele>
        <time>2021-08-13T08:13:33.171Z</time>
      </trkpt>
      <trkpt lat="46.843" lon="8.42814">
        <ele>1865</ele>
        <time>2021-08-13T08:13:34.171Z</time>
      </trkpt>
      <trkpt lat="46.843" lon="8.42813">
        <ele>1865</ele>
        <time>2021-08-13T08:13:35.171Z</time>
      </trkpt>
      <trkpt lat="46.843" lon="8.42813">
        <ele>1864</ele>
        <time>2021-08-13T08:13:36.171Z</time>
      </trkpt>
      <trkpt lat="46.84299" lon="8.42812">
        <ele>1864</ele>
        <time>2021-08-13T08:13:37.171Z</time>
      </trkpt>
      <trkpt lat="46.84299" lon="8.42812">
        <ele>1864</ele>
        <time>2021-08-13T08:13:38.170Z</time>
      </trkpt>
      <trkpt lat="46.84298" lon="8.42812">
        <ele>1864</ele>
        <time>2021-08-13T08:13:39.171Z</time>
      </trkpt>
      <trkpt lat="46.84298" lon="8.42811">
        <ele>1864</ele>
        <time>2021-08-13T08:13:40.170Z</time>
      </trkpt>
      <trkpt lat="46.84298" lon="8.42811">
        <ele>1864</ele>
        <time>2021-08-13T08:13:41.170Z</time>
      </trkpt>
      <trkpt lat="46.84298" lon="8.4281">
        <ele>1864</ele>
        <time>2021-08-13T08:13:42.170Z</time>
      </trkpt>
      <trkpt lat="46.84298" lon="8.42809">
        <ele>1864</ele>
        <time>2021-08-13T08:13:43.170Z</time>
      </trkpt>
      <trkpt lat="46.84298" lon="8.42807">
        <ele>1864</ele>
        <time>2021-08-13T08:13:44.170Z</time>
      </trkpt>
      <trkpt lat="46.84298" lon="8.42806">
        <ele>1863</ele>
        <time>2021-08-13T08:13:45.170Z</time>
      </trkpt>
      <trkpt lat="46.84298" lon="8.42804">
        <ele>1863</ele>
        <time>2021-08-13T08:13:46.171Z</time>
      </trkpt>
      <trkpt lat="46.84298" lon="8.42803">
        <ele>1863</ele>
        <time>2021-08-13T08:13:47.170Z</time>
      </trkpt>
      <trkpt lat="46.84298" lon="8.42802">
        <ele>1862</ele>
        <time>2021-08-13T08:13:48.171Z</time>
      </trkpt>
      <trkpt lat="46.84298" lon="8.428">
        <ele>1862</ele>
        <time>2021-08-13T08:13:49.171Z</time>
      </trkpt>
      <trkpt lat="46.84299" lon="8.42799">
        <ele>1862</ele>
        <time>2021-08-13T08:13:50.171Z</time>
      </trkpt>
      <trkpt lat="46.843" lon="8.42797">
        <ele>1862</ele>
        <time>2021-08-13T08:13:51.171Z</time>
      </trkpt>
      <trkpt lat="46.84301" lon="8.42796">
        <ele>1862</ele>
        <time>2021-08-13T08:13:52.171Z</time>
      </trkpt>
      <trkpt lat="46.84301" lon="8.42795">
        <ele>1862</ele>
        <time>2021-08-13T08:13:53.170Z</time>
      </trkpt>
      <trkpt lat="46.84301" lon="8.42793">
        <ele>1861</ele>
        <time>2021-08-13T08:13:54.170Z</time>
      </trkpt>
      <trkpt lat="46.84301" lon="8.42791">
        <ele>1861</ele>
        <time>2021-08-13T08:13:55.171Z</time>
      </trkpt>
      <trkpt lat="46.84301" lon="8.4279">
        <ele>1861</ele>
        <time>2021-08-13T08:13:56.170Z</time>
      </trkpt>
      <trkpt lat="46.84302" lon="8.42789">
        <ele>1861</ele>
        <time>2021-08-13T08:13:57.171Z</time>
      </trkpt>
      <trkpt lat="46.84303" lon="8.42787">
        <ele>1861</ele>
        <time>2021-08-13T08:13:58.171Z</time>
      </trkpt>
      <trkpt lat="46.84303" lon="8.42786">
        <ele>1860</ele>
        <time>2021-08-13T08:13:59.170Z</time>
      </trkpt>
      <trkpt lat="46.84304" lon="8.42784">
        <ele>1860</ele>
        <time>2021-08-13T08:14:00.170Z</time>
      </trkpt>
      <trkpt lat="46.84304" lon="8.42783">
        <ele>1859</ele>
        <time>2021-08-13T08:14:01.171Z</time>
      </trkpt>
      <trkpt lat="46.84304" lon="8.42782">
        <ele>1859</ele>
        <time>2021-08-13T08:14:02.170Z</time>
      </trkpt>
      <trkpt lat="46.84304" lon="8.42781">
        <ele>1858</ele>
        <time>2021-08-13T08:14:03.171Z</time>
      </trkpt>
      <trkpt lat="46.84304" lon="8.4278">
        <ele>1858</ele>
        <time>2021-08-13T08:14:04.170Z</time>
      </trkpt>
      <trkpt lat="46.84303" lon="8.42779">
        <ele>1857</ele>
        <time>2021-08-13T08:14:05.170Z</time>
      </trkpt>
      <trkpt lat="46.84303" lon="8.42778">
        <ele>1857</ele>
        <time>2021-08-13T08:14:06.171Z</time>
      </trkpt>
      <trkpt lat="46.84302" lon="8.42777">
        <ele>1857</ele>
        <time>2021-08-13T08:14:07.170Z</time>
      </trkpt>
      <trkpt lat="46.84302" lon="8.42776">
        <ele>1856</ele>
        <time>2021-08-13T08:14:08.170Z</time>
      </trkpt>
      <trkpt lat="46.84302" lon="8.42775">
        <ele>1856</ele>
        <time>2021-08-13T08:14:09.171Z</time>
      </trkpt>
      <trkpt lat="46.84301" lon="8.42775">
        <ele>1856</ele>
        <time>2021-08-13T08:14:10.171Z</time>
      </trkpt>
      <trkpt lat="46.84301" lon="8.42775">
        <ele>1856</ele>
        <time>2021-08-13T08:14:11.170Z</time>
      </trkpt>
      <trkpt lat="46.843" lon="8.42775">
        <ele>1856</ele>
        <time>2021-08-13T08:14:12.170Z</time>
      </trkpt>
      <trkpt lat="46.843" lon="8.42774">
        <ele>1856</ele>
        <time>2021-08-13T08:14:13.171Z</time>
      </trkpt>
      <trkpt lat="46.84301" lon="8.42774">
        <ele>1856</ele>
        <time>2021-08-13T08:14:14.170Z</time>
      </trkpt>
      <trkpt lat="46.843" lon="8.42773">
        <ele>1856</ele>
        <time>2021-08-13T08:14:15.171Z</time>
      </trkpt>
      <trkpt lat="46.843" lon="8.42772">
        <ele>1856</ele>
        <time>2021-08-13T08:14:16.171Z</time>
      </trkpt>
      <trkpt lat="46.84299" lon="8.42772">
        <ele>1856</ele>
        <time>2021-08-13T08:14:17.172Z</time>
      </trkpt>
      <trkpt lat="46.84299" lon="8.42771">
        <ele>1856</ele>
        <time>2021-08-13T08:14:18.172Z</time>
      </trkpt>
      <trkpt lat="46.84298" lon="8.42771">
        <ele>1856</ele>
        <time>2021-08-13T08:14:19.172Z</time>
      </trkpt>
      <trkpt lat="46.84297" lon="8.4277">
        <ele>1856</ele>
        <time>2021-08-13T08:14:20.172Z</time>
      </trkpt>
      <trkpt lat="46.84297" lon="8.42769">
        <ele>1855</ele>
        <time>2021-08-13T08:14:21.172Z</time>
      </trkpt>
      <trkpt lat="46.84296" lon="8.42768">
        <ele>1855</ele>
        <time>2021-08-13T08:14:22.172Z</time>
      </trkpt>
      <trkpt lat="46.84296" lon="8.42767">
        <ele>1855</ele>
        <time>2021-08-13T08:14:23.171Z</time>
      </trkpt>
      <trkpt lat="46.84295" lon="8.42767">
        <ele>1855</ele>
        <time>2021-08-13T08:14:24.171Z</time>
      </trkpt>
      <trkpt lat="46.84295" lon="8.42766">
        <ele>1854</ele>
        <time>2021-08-13T08:14:25.171Z</time>
      </trkpt>
      <trkpt lat="46.84295" lon="8.42765">
        <ele>1854</ele>
        <time>2021-08-13T08:14:26.172Z</time>
      </trkpt>
      <trkpt lat="46.84295" lon="8.42764">
        <ele>1853</ele>
        <time>2021-08-13T08:14:27.171Z</time>
      </trkpt>
      <trkpt lat="46.84295" lon="8.42764">
        <ele>1853</ele>
        <time>2021-08-13T08:14:28.171Z</time>
      </trkpt>
      <trkpt lat="46.84295" lon="8.42764">
        <ele>1854</ele>
        <time>2021-08-13T08:14:29.172Z</time>
      </trkpt>
      <trkpt lat="46.84295" lon="8.42763">
        <ele>1854</ele>
        <time>2021-08-13T08:14:30.172Z</time>
      </trkpt>
      <trkpt lat="46.84295" lon="8.42762">
        <ele>1854</ele>
        <time>2021-08-13T08:14:31.172Z</time>
      </trkpt>
      <trkpt lat="46.84295" lon="8.42762">
        <ele>1854</ele>
        <time>2021-08-13T08:14:32.172Z</time>
      </trkpt>
      <trkpt lat="46.84295" lon="8.42761">
        <ele>1854</ele>
        <time>2021-08-13T08:14:33.171Z</time>
      </trkpt>
      <trkpt lat="46.84295" lon="8.4276">
        <ele>1854</ele>
        <time>2021-08-13T08:14:34.172Z</time>
      </trkpt>
      <trkpt lat="46.84295" lon="8.42759">
        <ele>1854</ele>
        <time>2021-08-13T08:14:35.172Z</time>
      </trkpt>
      <trkpt lat="46.84295" lon="8.42758">
        <ele>1854</ele>
        <time>2021-08-13T08:14:36.172Z</time>
      </trkpt>
      <trkpt lat="46.84295" lon="8.42758">
        <ele>1854</ele>
        <time>2021-08-13T08:14:37.172Z</time>
      </trkpt>
      <trkpt lat="46.84296" lon="8.42757">
        <ele>1854</ele>
        <time>2021-08-13T08:14:38.172Z</time>
      </trkpt>
      <trkpt lat="46.84296" lon="8.42757">
        <ele>1854</ele>
        <time>2021-08-13T08:14:39.172Z</time>
      </trkpt>
      <trkpt lat="46.84296" lon="8.42756">
        <ele>1854</ele>
        <time>2021-08-13T08:14:40.172Z</time>
      </trkpt>
      <trkpt lat="46.84296" lon="8.42755">
        <ele>1854</ele>
        <time>2021-08-13T08:14:41.172Z</time>
      </trkpt>
      <trkpt lat="46.84296" lon="8.42755">
        <ele>1853</ele>
        <time>2021-08-13T08:14:42.172Z</time>
      </trkpt>
      <trkpt lat="46.84296" lon="8.42754">
        <ele>1853</ele>
        <time>2021-08-13T08:14:43.172Z</time>
      </trkpt>
      <trkpt lat="46.84296" lon="8.42754">
        <ele>1853</ele>
        <time>2021-08-13T08:14:44.172Z</time>
      </trkpt>
      <trkpt lat="46.84297" lon="8.42752">
        <ele>1852</ele>
        <time>2021-08-13T08:14:45.171Z</time>
      </trkpt>
      <trkpt lat="46.84297" lon="8.42752">
        <ele>1852</ele>
        <time>2021-08-13T08:14:46.172Z</time>
      </trkpt>
      <trkpt lat="46.84297" lon="8.42751">
        <ele>1852</ele>
        <time>2021-08-13T08:14:47.172Z</time>
      </trkpt>
      <trkpt lat="46.84298" lon="8.4275">
        <ele>1852</ele>
        <time>2021-08-13T08:14:48.172Z</time>
      </trkpt>
      <trkpt lat="46.84298" lon="8.4275">
        <ele>1853</ele>
        <time>2021-08-13T08:14:49.171Z</time>
      </trkpt>
      <trkpt lat="46.84298" lon="8.42749">
        <ele>1853</ele>
        <time>2021-08-13T08:14:50.172Z</time>
      </trkpt>
      <trkpt lat="46.84298" lon="8.42748">
        <ele>1853</ele>
        <time>2021-08-13T08:14:51.172Z</time>
      </trkpt>
      <trkpt lat="46.84298" lon="8.42747">
        <ele>1853</ele>
        <time>2021-08-13T08:14:52.172Z</time>
      </trkpt>
      <trkpt lat="46.84298" lon="8.42746">
        <ele>1853</ele>
        <time>2021-08-13T08:14:53.171Z</time>
      </trkpt>
      <trkpt lat="46.84298" lon="8.42745">
        <ele>1852</ele>
        <time>2021-08-13T08:14:54.171Z</time>
      </trkpt>
      <trkpt lat="46.84298" lon="8.42745">
        <ele>1852</ele>
        <time>2021-08-13T08:14:55.172Z</time>
      </trkpt>
      <trkpt lat="46.84298" lon="8.42744">
        <ele>1852</ele>
        <time>2021-08-13T08:14:56.172Z</time>
      </trkpt>
      <trkpt lat="46.84298" lon="8.42743">
        <ele>1851</ele>
        <time>2021-08-13T08:14:57.172Z</time>
      </trkpt>
      <trkpt lat="46.84298" lon="8.42742">
        <ele>1851</ele>
        <time>2021-08-13T08:14:58.172Z</time>
      </trkpt>
      <trkpt lat="46.84298" lon="8.42741">
        <ele>1851</ele>
        <time>2021-08-13T08:14:59.172Z</time>
      </trkpt>
      <trkpt lat="46.84298" lon="8.4274">
        <ele>1850</ele>
        <time>2021-08-13T08:15:00.171Z</time>
      </trkpt>
      <trkpt lat="46.84298" lon="8.42738">
        <ele>1850</ele>
        <time>2021-08-13T08:15:01.171Z</time>
      </trkpt>
      <trkpt lat="46.84298" lon="8.42737">
        <ele>1849</ele>
        <time>2021-08-13T08:15:02.172Z</time>
      </trkpt>
      <trkpt lat="46.84298" lon="8.42737">
        <ele>1849</ele>
        <time>2021-08-13T08:15:03.171Z</time>
      </trkpt>
      <trkpt lat="46.84298" lon="8.42735">
        <ele>1848</ele>
        <time>2021-08-13T08:15:04.171Z</time>
      </trkpt>
      <trkpt lat="46.84298" lon="8.42734">
        <ele>1848</ele>
        <time>2021-08-13T08:15:05.171Z</time>
      </trkpt>
      <trkpt lat="46.84297" lon="8.42733">
        <ele>1847</ele>
        <time>2021-08-13T08:15:06.172Z</time>
      </trkpt>
      <trkpt lat="46.84297" lon="8.42732">
        <ele>1847</ele>
        <time>2021-08-13T08:15:07.172Z</time>
      </trkpt>
      <trkpt lat="46.84297" lon="8.42731">
        <ele>1847</ele>
        <time>2021-08-13T08:15:08.172Z</time>
      </trkpt>
      <trkpt lat="46.84297" lon="8.4273">
        <ele>1846</ele>
        <time>2021-08-13T08:15:09.171Z</time>
      </trkpt>
      <trkpt lat="46.84297" lon="8.4273">
        <ele>1846</ele>
        <time>2021-08-13T08:15:10.172Z</time>
      </trkpt>
      <trkpt lat="46.84297" lon="8.42729">
        <ele>1845</ele>
        <time>2021-08-13T08:15:11.172Z</time>
      </trkpt>
      <trkpt lat="46.84296" lon="8.42729">
        <ele>1845</ele>
        <time>2021-08-13T08:15:12.171Z</time>
      </trkpt>
      <trkpt lat="46.84296" lon="8.42728">
        <ele>1845</ele>
        <time>2021-08-13T08:15:13.172Z</time>
      </trkpt>
      <trkpt lat="46.84296" lon="8.42727">
        <ele>1845</ele>
        <time>2021-08-13T08:15:14.171Z</time>
      </trkpt>
      <trkpt lat="46.84296" lon="8.42726">
        <ele>1846</ele>
        <time>2021-08-13T08:15:15.172Z</time>
      </trkpt>
      <trkpt lat="46.84295" lon="8.42726">
        <ele>1846</ele>
        <time>2021-08-13T08:15:16.172Z</time>
      </trkpt>
      <trkpt lat="46.84295" lon="8.42725">
        <ele>1846</ele>
        <time>2021-08-13T08:15:17.171Z</time>
      </trkpt>
      <trkpt lat="46.84294" lon="8.42724">
        <ele>1846</ele>
        <time>2021-08-13T08:15:18.171Z</time>
      </trkpt>
      <trkpt lat="46.84294" lon="8.42723">
        <ele>1845</ele>
        <time>2021-08-13T08:15:19.172Z</time>
      </trkpt>
      <trkpt lat="46.84294" lon="8.42723">
        <ele>1844</ele>
        <time>2021-08-13T08:15:20.171Z</time>
      </trkpt>
      <trkpt lat="46.84293" lon="8.42722">
        <ele>1844</ele>
        <time>2021-08-13T08:15:21.172Z</time>
      </trkpt>
      <trkpt lat="46.84292" lon="8.42722">
        <ele>1844</ele>
        <time>2021-08-13T08:15:22.171Z</time>
      </trkpt>
      <trkpt lat="46.84292" lon="8.42722">
        <ele>1843</ele>
        <time>2021-08-13T08:15:23.171Z</time>
      </trkpt>
      <trkpt lat="46.84291" lon="8.4272">
        <ele>1843</ele>
        <time>2021-08-13T08:15:24.172Z</time>
      </trkpt>
      <trkpt lat="46.84291" lon="8.42719">
        <ele>1843</ele>
        <time>2021-08-13T08:15:25.172Z</time>
      </trkpt>
      <trkpt lat="46.84291" lon="8.42718">
        <ele>1843</ele>
        <time>2021-08-13T08:15:26.172Z</time>
      </trkpt>
      <trkpt lat="46.84291" lon="8.42718">
        <ele>1843</ele>
        <time>2021-08-13T08:15:27.172Z</time>
      </trkpt>
      <trkpt lat="46.84291" lon="8.42718">
        <ele>1843</ele>
        <time>2021-08-13T08:15:28.172Z</time>
      </trkpt>
      <trkpt lat="46.8429" lon="8.42717">
        <ele>1843</ele>
        <time>2021-08-13T08:15:29.172Z</time>
      </trkpt>
      <trkpt lat="46.8429" lon="8.42716">
        <ele>1842</ele>
        <time>2021-08-13T08:15:30.172Z</time>
      </trkpt>
      <trkpt lat="46.8429" lon="8.42716">
        <ele>1842</ele>
        <time>2021-08-13T08:15:31.172Z</time>
      </trkpt>
      <trkpt lat="46.8429" lon="8.42715">
        <ele>1841</ele>
        <time>2021-08-13T08:15:32.171Z</time>
      </trkpt>
      <trkpt lat="46.84289" lon="8.42715">
        <ele>1841</ele>
        <time>2021-08-13T08:15:33.172Z</time>
      </trkpt>
      <trkpt lat="46.8429" lon="8.42715">
        <ele>1840</ele>
        <time>2021-08-13T08:15:34.172Z</time>
      </trkpt>
      <trkpt lat="46.84289" lon="8.42712">
        <ele>1840</ele>
        <time>2021-08-13T08:15:35.173Z</time>
      </trkpt>
      <trkpt lat="46.84289" lon="8.42711">
        <ele>1840</ele>
        <time>2021-08-13T08:15:36.172Z</time>
      </trkpt>
      <trkpt lat="46.84289" lon="8.42709">
        <ele>1840</ele>
        <time>2021-08-13T08:15:37.173Z</time>
      </trkpt>
      <trkpt lat="46.84289" lon="8.42708">
        <ele>1840</ele>
        <time>2021-08-13T08:15:38.172Z</time>
      </trkpt>
      <trkpt lat="46.84289" lon="8.42708">
        <ele>1840</ele>
        <time>2021-08-13T08:15:39.172Z</time>
      </trkpt>
      <trkpt lat="46.84289" lon="8.42707">
        <ele>1840</ele>
        <time>2021-08-13T08:15:40.173Z</time>
      </trkpt>
      <trkpt lat="46.84289" lon="8.42707">
        <ele>1840</ele>
        <time>2021-08-13T08:15:41.173Z</time>
      </trkpt>
      <trkpt lat="46.84289" lon="8.42706">
        <ele>1840</ele>
        <time>2021-08-13T08:15:42.172Z</time>
      </trkpt>
      <trkpt lat="46.84289" lon="8.42705">
        <ele>1840</ele>
        <time>2021-08-13T08:15:43.172Z</time>
      </trkpt>
      <trkpt lat="46.84289" lon="8.42704">
        <ele>1840</ele>
        <time>2021-08-13T08:15:44.172Z</time>
      </trkpt>
      <trkpt lat="46.84288" lon="8.42704">
        <ele>1840</ele>
        <time>2021-08-13T08:15:45.172Z</time>
      </trkpt>
      <trkpt lat="46.84287" lon="8.42703">
        <ele>1839</ele>
        <time>2021-08-13T08:15:46.172Z</time>
      </trkpt>
      <trkpt lat="46.84287" lon="8.42702">
        <ele>1839</ele>
        <time>2021-08-13T08:15:47.172Z</time>
      </trkpt>
      <trkpt lat="46.84286" lon="8.42702">
        <ele>1839</ele>
        <time>2021-08-13T08:15:48.172Z</time>
      </trkpt>
      <trkpt lat="46.84286" lon="8.42701">
        <ele>1839</ele>
        <time>2021-08-13T08:15:49.172Z</time>
      </trkpt>
      <trkpt lat="46.84285" lon="8.42701">
        <ele>1839</ele>
        <time>2021-08-13T08:15:50.172Z</time>
      </trkpt>
      <trkpt lat="46.84285" lon="8.427">
        <ele>1839</ele>
        <time>2021-08-13T08:15:51.172Z</time>
      </trkpt>
      <trkpt lat="46.84285" lon="8.427">
        <ele>1838</ele>
        <time>2021-08-13T08:15:52.173Z</time>
      </trkpt>
      <trkpt lat="46.84284" lon="8.42699">
        <ele>1838</ele>
        <time>2021-08-13T08:15:53.173Z</time>
      </trkpt>
      <trkpt lat="46.84284" lon="8.42698">
        <ele>1838</ele>
        <time>2021-08-13T08:15:54.172Z</time>
      </trkpt>
      <trkpt lat="46.84283" lon="8.42697">
        <ele>1838</ele>
        <time>2021-08-13T08:15:55.172Z</time>
      </trkpt>
      <trkpt lat="46.84282" lon="8.42697">
        <ele>1837</ele>
        <time>2021-08-13T08:15:56.172Z</time>
      </trkpt>
      <trkpt lat="46.84282" lon="8.42696">
        <ele>1837</ele>
        <time>2021-08-13T08:15:57.173Z</time>
      </trkpt>
      <trkpt lat="46.84282" lon="8.42695">
        <ele>1836</ele>
        <time>2021-08-13T08:15:58.173Z</time>
      </trkpt>
      <trkpt lat="46.84282" lon="8.42694">
        <ele>1836</ele>
        <time>2021-08-13T08:15:59.173Z</time>
      </trkpt>
      <trkpt lat="46.84281" lon="8.42694">
        <ele>1836</ele>
        <time>2021-08-13T08:16:00.173Z</time>
      </trkpt>
      <trkpt lat="46.84282" lon="8.42693">
        <ele>1836</ele>
        <time>2021-08-13T08:16:01.172Z</time>
      </trkpt>
      <trkpt lat="46.84283" lon="8.42693">
        <ele>1836</ele>
        <time>2021-08-13T08:16:02.172Z</time>
      </trkpt>
      <trkpt lat="46.84283" lon="8.42692">
        <ele>1837</ele>
        <time>2021-08-13T08:16:03.172Z</time>
      </trkpt>
      <trkpt lat="46.84282" lon="8.4269">
        <ele>1837</ele>
        <time>2021-08-13T08:16:04.172Z</time>
      </trkpt>
      <trkpt lat="46.84281" lon="8.4269">
        <ele>1837</ele>
        <time>2021-08-13T08:16:05.172Z</time>
      </trkpt>
      <trkpt lat="46.84281" lon="8.42689">
        <ele>1837</ele>
        <time>2021-08-13T08:16:06.172Z</time>
      </trkpt>
      <trkpt lat="46.8428" lon="8.42689">
        <ele>1837</ele>
        <time>2021-08-13T08:16:07.172Z</time>
      </trkpt>
      <trkpt lat="46.8428" lon="8.42689">
        <ele>1837</ele>
        <time>2021-08-13T08:16:08.172Z</time>
      </trkpt>
      <trkpt lat="46.8428" lon="8.42688">
        <ele>1837</ele>
        <time>2021-08-13T08:16:09.172Z</time>
      </trkpt>
      <trkpt lat="46.8428" lon="8.42688">
        <ele>1837</ele>
        <time>2021-08-13T08:16:10.172Z</time>
      </trkpt>
      <trkpt lat="46.8428" lon="8.42687">
        <ele>1836</ele>
        <time>2021-08-13T08:16:11.172Z</time>
      </trkpt>
      <trkpt lat="46.8428" lon="8.42686">
        <ele>1836</ele>
        <time>2021-08-13T08:16:12.172Z</time>
      </trkpt>
      <trkpt lat="46.8428" lon="8.42686">
        <ele>1835</ele>
        <time>2021-08-13T08:16:13.173Z</time>
      </trkpt>
      <trkpt lat="46.8428" lon="8.42686">
        <ele>1835</ele>
        <time>2021-08-13T08:16:14.172Z</time>
      </trkpt>
      <trkpt lat="46.8428" lon="8.42685">
        <ele>1835</ele>
        <time>2021-08-13T08:16:15.172Z</time>
      </trkpt>
      <trkpt lat="46.8428" lon="8.42684">
        <ele>1835</ele>
        <time>2021-08-13T08:16:16.172Z</time>
      </trkpt>
      <trkpt lat="46.84279" lon="8.42683">
        <ele>1834</ele>
        <time>2021-08-13T08:16:17.173Z</time>
      </trkpt>
      <trkpt lat="46.84279" lon="8.42682">
        <ele>1834</ele>
        <time>2021-08-13T08:16:18.172Z</time>
      </trkpt>
      <trkpt lat="46.84279" lon="8.42681">
        <ele>1833</ele>
        <time>2021-08-13T08:16:19.172Z</time>
      </trkpt>
      <trkpt lat="46.84278" lon="8.4268">
        <ele>1832</ele>
        <time>2021-08-13T08:16:20.172Z</time>
      </trkpt>
      <trkpt lat="46.84278" lon="8.42679">
        <ele>1832</ele>
        <time>2021-08-13T08:16:21.172Z</time>
      </trkpt>
      <trkpt lat="46.84278" lon="8.42678">
        <ele>1831</ele>
        <time>2021-08-13T08:16:22.173Z</time>
      </trkpt>
      <trkpt lat="46.84278" lon="8.42677">
        <ele>1831</ele>
        <time>2021-08-13T08:16:23.172Z</time>
      </trkpt>
      <trkpt lat="46.84277" lon="8.42675">
        <ele>1830</ele>
        <time>2021-08-13T08:16:24.172Z</time>
      </trkpt>
      <trkpt lat="46.84277" lon="8.42674">
        <ele>1830</ele>
        <time>2021-08-13T08:16:25.172Z</time>
      </trkpt>
      <trkpt lat="46.84277" lon="8.42673">
        <ele>1830</ele>
        <time>2021-08-13T08:16:26.172Z</time>
      </trkpt>
      <trkpt lat="46.84276" lon="8.42672">
        <ele>1829</ele>
        <time>2021-08-13T08:16:27.172Z</time>
      </trkpt>
      <trkpt lat="46.84276" lon="8.42671">
        <ele>1829</ele>
        <time>2021-08-13T08:16:28.172Z</time>
      </trkpt>
      <trkpt lat="46.84276" lon="8.4267">
        <ele>1829</ele>
        <time>2021-08-13T08:16:29.173Z</time>
      </trkpt>
      <trkpt lat="46.84276" lon="8.42669">
        <ele>1829</ele>
        <time>2021-08-13T08:16:30.173Z</time>
      </trkpt>
      <trkpt lat="46.84276" lon="8.42668">
        <ele>1829</ele>
        <time>2021-08-13T08:16:31.173Z</time>
      </trkpt>
      <trkpt lat="46.84276" lon="8.42667">
        <ele>1829</ele>
        <time>2021-08-13T08:16:32.173Z</time>
      </trkpt>
      <trkpt lat="46.84276" lon="8.42667">
        <ele>1829</ele>
        <time>2021-08-13T08:16:33.172Z</time>
      </trkpt>
      <trkpt lat="46.84276" lon="8.42666">
        <ele>1829</ele>
        <time>2021-08-13T08:16:34.172Z</time>
      </trkpt>
      <trkpt lat="46.84276" lon="8.42665">
        <ele>1829</ele>
        <time>2021-08-13T08:16:35.172Z</time>
      </trkpt>
      <trkpt lat="46.84275" lon="8.42664">
        <ele>1829</ele>
        <time>2021-08-13T08:16:36.172Z</time>
      </trkpt>
      <trkpt lat="46.84275" lon="8.42663">
        <ele>1829</ele>
        <time>2021-08-13T08:16:37.172Z</time>
      </trkpt>
      <trkpt lat="46.84275" lon="8.42663">
        <ele>1829</ele>
        <time>2021-08-13T08:16:38.172Z</time>
      </trkpt>
      <trkpt lat="46.84275" lon="8.42662">
        <ele>1828</ele>
        <time>2021-08-13T08:16:39.172Z</time>
      </trkpt>
      <trkpt lat="46.84274" lon="8.42661">
        <ele>1828</ele>
        <time>2021-08-13T08:16:40.173Z</time>
      </trkpt>
      <trkpt lat="46.84274" lon="8.4266">
        <ele>1828</ele>
        <time>2021-08-13T08:16:41.172Z</time>
      </trkpt>
      <trkpt lat="46.84274" lon="8.42659">
        <ele>1827</ele>
        <time>2021-08-13T08:16:42.173Z</time>
      </trkpt>
      <trkpt lat="46.84274" lon="8.42658">
        <ele>1828</ele>
        <time>2021-08-13T08:16:43.173Z</time>
      </trkpt>
      <trkpt lat="46.84274" lon="8.42657">
        <ele>1828</ele>
        <time>2021-08-13T08:16:44.173Z</time>
      </trkpt>
      <trkpt lat="46.84274" lon="8.42655">
        <ele>1828</ele>
        <time>2021-08-13T08:16:45.172Z</time>
      </trkpt>
      <trkpt lat="46.84274" lon="8.42654">
        <ele>1828</ele>
        <time>2021-08-13T08:16:46.173Z</time>
      </trkpt>
      <trkpt lat="46.84274" lon="8.42653">
        <ele>1828</ele>
        <time>2021-08-13T08:16:47.173Z</time>
      </trkpt>
      <trkpt lat="46.84274" lon="8.42653">
        <ele>1828</ele>
        <time>2021-08-13T08:16:48.172Z</time>
      </trkpt>
      <trkpt lat="46.84274" lon="8.42652">
        <ele>1828</ele>
        <time>2021-08-13T08:16:49.173Z</time>
      </trkpt>
      <trkpt lat="46.84274" lon="8.42652">
        <ele>1828</ele>
        <time>2021-08-13T08:16:50.173Z</time>
      </trkpt>
      <trkpt lat="46.84275" lon="8.42652">
        <ele>1825</ele>
        <time>2021-08-13T08:16:51.173Z</time>
      </trkpt>
      <trkpt lat="46.84275" lon="8.42652">
        <ele>1825</ele>
        <time>2021-08-13T08:16:52.174Z</time>
      </trkpt>
      <trkpt lat="46.84275" lon="8.42652">
        <ele>1824</ele>
        <time>2021-08-13T08:16:53.173Z</time>
      </trkpt>
      <trkpt lat="46.84275" lon="8.42652">
        <ele>1824</ele>
        <time>2021-08-13T08:16:54.174Z</time>
      </trkpt>
      <trkpt lat="46.84275" lon="8.42651">
        <ele>1824</ele>
        <time>2021-08-13T08:16:55.173Z</time>
      </trkpt>
      <trkpt lat="46.84275" lon="8.4265">
        <ele>1824</ele>
        <time>2021-08-13T08:16:56.173Z</time>
      </trkpt>
      <trkpt lat="46.84275" lon="8.42649">
        <ele>1824</ele>
        <time>2021-08-13T08:16:57.173Z</time>
      </trkpt>
      <trkpt lat="46.84275" lon="8.42648">
        <ele>1824</ele>
        <time>2021-08-13T08:16:58.173Z</time>
      </trkpt>
      <trkpt lat="46.84276" lon="8.42647">
        <ele>1823</ele>
        <time>2021-08-13T08:16:59.173Z</time>
      </trkpt>
      <trkpt lat="46.84275" lon="8.42646">
        <ele>1823</ele>
        <time>2021-08-13T08:17:00.173Z</time>
      </trkpt>
      <trkpt lat="46.84276" lon="8.42645">
        <ele>1822</ele>
        <time>2021-08-13T08:17:01.173Z</time>
      </trkpt>
      <trkpt lat="46.84275" lon="8.42644">
        <ele>1822</ele>
        <time>2021-08-13T08:17:02.173Z</time>
      </trkpt>
      <trkpt lat="46.84275" lon="8.42643">
        <ele>1822</ele>
        <time>2021-08-13T08:17:03.173Z</time>
      </trkpt>
      <trkpt lat="46.84275" lon="8.42643">
        <ele>1822</ele>
        <time>2021-08-13T08:17:04.173Z</time>
      </trkpt>
      <trkpt lat="46.84274" lon="8.42642">
        <ele>1822</ele>
        <time>2021-08-13T08:17:05.173Z</time>
      </trkpt>
      <trkpt lat="46.84273" lon="8.42641">
        <ele>1822</ele>
        <time>2021-08-13T08:17:06.173Z</time>
      </trkpt>
      <trkpt lat="46.84273" lon="8.42641">
        <ele>1822</ele>
        <time>2021-08-13T08:17:07.173Z</time>
      </trkpt>
      <trkpt lat="46.84272" lon="8.4264">
        <ele>1821</ele>
        <time>2021-08-13T08:17:08.174Z</time>
      </trkpt>
      <trkpt lat="46.84271" lon="8.4264">
        <ele>1821</ele>
        <time>2021-08-13T08:17:09.173Z</time>
      </trkpt>
      <trkpt lat="46.84271" lon="8.42639">
        <ele>1821</ele>
        <time>2021-08-13T08:17:10.173Z</time>
      </trkpt>
      <trkpt lat="46.8427" lon="8.42638">
        <ele>1821</ele>
        <time>2021-08-13T08:17:11.174Z</time>
      </trkpt>
      <trkpt lat="46.8427" lon="8.42638">
        <ele>1821</ele>
        <time>2021-08-13T08:17:12.174Z</time>
      </trkpt>
      <trkpt lat="46.84269" lon="8.42637">
        <ele>1821</ele>
        <time>2021-08-13T08:17:13.173Z</time>
      </trkpt>
      <trkpt lat="46.84269" lon="8.42636">
        <ele>1820</ele>
        <time>2021-08-13T08:17:14.174Z</time>
      </trkpt>
      <trkpt lat="46.84268" lon="8.42636">
        <ele>1820</ele>
        <time>2021-08-13T08:17:15.174Z</time>
      </trkpt>
      <trkpt lat="46.84266" lon="8.42636">
        <ele>1820</ele>
        <time>2021-08-13T08:17:16.174Z</time>
      </trkpt>
      <trkpt lat="46.84265" lon="8.42635">
        <ele>1820</ele>
        <time>2021-08-13T08:17:17.173Z</time>
      </trkpt>
      <trkpt lat="46.84263" lon="8.42635">
        <ele>1821</ele>
        <time>2021-08-13T08:17:18.174Z</time>
      </trkpt>
      <trkpt lat="46.84262" lon="8.42635">
        <ele>1821</ele>
        <time>2021-08-13T08:17:19.174Z</time>
      </trkpt>
      <trkpt lat="46.84261" lon="8.42636">
        <ele>1820</ele>
        <time>2021-08-13T08:17:20.174Z</time>
      </trkpt>
      <trkpt lat="46.8426" lon="8.42636">
        <ele>1820</ele>
        <time>2021-08-13T08:17:21.174Z</time>
      </trkpt>
      <trkpt lat="46.8426" lon="8.42636">
        <ele>1820</ele>
        <time>2021-08-13T08:17:22.174Z</time>
      </trkpt>
      <trkpt lat="46.8426" lon="8.42636">
        <ele>1820</ele>
        <time>2021-08-13T08:17:23.174Z</time>
      </trkpt>
      <trkpt lat="46.84261" lon="8.42636">
        <ele>1819</ele>
        <time>2021-08-13T08:17:24.173Z</time>
      </trkpt>
      <trkpt lat="46.84261" lon="8.42635">
        <ele>1819</ele>
        <time>2021-08-13T08:17:25.173Z</time>
      </trkpt>
      <trkpt lat="46.84262" lon="8.42634">
        <ele>1820</ele>
        <time>2021-08-13T08:17:26.174Z</time>
      </trkpt>
      <trkpt lat="46.84262" lon="8.42634">
        <ele>1820</ele>
        <time>2021-08-13T08:17:27.174Z</time>
      </trkpt>
      <trkpt lat="46.84262" lon="8.42633">
        <ele>1820</ele>
        <time>2021-08-13T08:17:28.174Z</time>
      </trkpt>
      <trkpt lat="46.84262" lon="8.42632">
        <ele>1820</ele>
        <time>2021-08-13T08:17:29.173Z</time>
      </trkpt>
      <trkpt lat="46.84262" lon="8.42632">
        <ele>1821</ele>
        <time>2021-08-13T08:17:30.174Z</time>
      </trkpt>
      <trkpt lat="46.84262" lon="8.42631">
        <ele>1821</ele>
        <time>2021-08-13T08:17:31.174Z</time>
      </trkpt>
      <trkpt lat="46.84262" lon="8.42631">
        <ele>1821</ele>
        <time>2021-08-13T08:17:32.174Z</time>
      </trkpt>
      <trkpt lat="46.84262" lon="8.4263">
        <ele>1821</ele>
        <time>2021-08-13T08:17:33.174Z</time>
      </trkpt>
      <trkpt lat="46.84261" lon="8.42629">
        <ele>1821</ele>
        <time>2021-08-13T08:17:34.174Z</time>
      </trkpt>
      <trkpt lat="46.84261" lon="8.42628">
        <ele>1821</ele>
        <time>2021-08-13T08:17:35.174Z</time>
      </trkpt>
      <trkpt lat="46.8426" lon="8.42627">
        <ele>1820</ele>
        <time>2021-08-13T08:17:36.174Z</time>
      </trkpt>
      <trkpt lat="46.8426" lon="8.42627">
        <ele>1820</ele>
        <time>2021-08-13T08:17:37.174Z</time>
      </trkpt>
      <trkpt lat="46.84259" lon="8.42626">
        <ele>1819</ele>
        <time>2021-08-13T08:17:38.173Z</time>
      </trkpt>
      <trkpt lat="46.84258" lon="8.42625">
        <ele>1819</ele>
        <time>2021-08-13T08:17:39.173Z</time>
      </trkpt>
      <trkpt lat="46.84258" lon="8.42624">
        <ele>1819</ele>
        <time>2021-08-13T08:17:40.173Z</time>
      </trkpt>
      <trkpt lat="46.84257" lon="8.42624">
        <ele>1819</ele>
        <time>2021-08-13T08:17:41.174Z</time>
      </trkpt>
      <trkpt lat="46.84257" lon="8.42623">
        <ele>1819</ele>
        <time>2021-08-13T08:17:42.174Z</time>
      </trkpt>
      <trkpt lat="46.84257" lon="8.42623">
        <ele>1818</ele>
        <time>2021-08-13T08:17:43.173Z</time>
      </trkpt>
      <trkpt lat="46.84256" lon="8.42622">
        <ele>1818</ele>
        <time>2021-08-13T08:17:44.174Z</time>
      </trkpt>
      <trkpt lat="46.84256" lon="8.42622">
        <ele>1818</ele>
        <time>2021-08-13T08:17:45.173Z</time>
      </trkpt>
      <trkpt lat="46.84255" lon="8.42621">
        <ele>1818</ele>
        <time>2021-08-13T08:17:46.173Z</time>
      </trkpt>
      <trkpt lat="46.84255" lon="8.42621">
        <ele>1818</ele>
        <time>2021-08-13T08:17:47.174Z</time>
      </trkpt>
      <trkpt lat="46.84254" lon="8.42621">
        <ele>1817</ele>
        <time>2021-08-13T08:17:48.174Z</time>
      </trkpt>
      <trkpt lat="46.84254" lon="8.42621">
        <ele>1817</ele>
        <time>2021-08-13T08:17:49.174Z</time>
      </trkpt>
      <trkpt lat="46.84253" lon="8.4262">
        <ele>1818</ele>
        <time>2021-08-13T08:17:50.174Z</time>
      </trkpt>
      <trkpt lat="46.84252" lon="8.42619">
        <ele>1818</ele>
        <time>2021-08-13T08:17:51.173Z</time>
      </trkpt>
      <trkpt lat="46.84252" lon="8.42618">
        <ele>1818</ele>
        <time>2021-08-13T08:17:52.173Z</time>
      </trkpt>
      <trkpt lat="46.84251" lon="8.42618">
        <ele>1818</ele>
        <time>2021-08-13T08:17:53.174Z</time>
      </trkpt>
      <trkpt lat="46.8425" lon="8.42617">
        <ele>1818</ele>
        <time>2021-08-13T08:17:54.174Z</time>
      </trkpt>
      <trkpt lat="46.8425" lon="8.42617">
        <ele>1818</ele>
        <time>2021-08-13T08:17:55.174Z</time>
      </trkpt>
      <trkpt lat="46.84249" lon="8.42616">
        <ele>1817</ele>
        <time>2021-08-13T08:17:56.173Z</time>
      </trkpt>
      <trkpt lat="46.84248" lon="8.42616">
        <ele>1817</ele>
        <time>2021-08-13T08:17:57.174Z</time>
      </trkpt>
      <trkpt lat="46.84247" lon="8.42615">
        <ele>1817</ele>
        <time>2021-08-13T08:17:58.174Z</time>
      </trkpt>
      <trkpt lat="46.84247" lon="8.42615">
        <ele>1817</ele>
        <time>2021-08-13T08:17:59.174Z</time>
      </trkpt>
      <trkpt lat="46.84247" lon="8.42614">
        <ele>1818</ele>
        <time>2021-08-13T08:18:00.174Z</time>
      </trkpt>
      <trkpt lat="46.84247" lon="8.42614">
        <ele>1818</ele>
        <time>2021-08-13T08:18:01.173Z</time>
      </trkpt>
      <trkpt lat="46.84246" lon="8.42613">
        <ele>1818</ele>
        <time>2021-08-13T08:18:02.174Z</time>
      </trkpt>
      <trkpt lat="46.84246" lon="8.42612">
        <ele>1817</ele>
        <time>2021-08-13T08:18:03.174Z</time>
      </trkpt>
      <trkpt lat="46.84244" lon="8.42611">
        <ele>1817</ele>
        <time>2021-08-13T08:18:04.173Z</time>
      </trkpt>
      <trkpt lat="46.84243" lon="8.42609">
        <ele>1817</ele>
        <time>2021-08-13T08:18:05.174Z</time>
      </trkpt>
      <trkpt lat="46.84243" lon="8.42608">
        <ele>1816</ele>
        <time>2021-08-13T08:18:06.174Z</time>
      </trkpt>
      <trkpt lat="46.84242" lon="8.42607">
        <ele>1816</ele>
        <time>2021-08-13T08:18:07.173Z</time>
      </trkpt>
      <trkpt lat="46.84242" lon="8.42607">
        <ele>1816</ele>
        <time>2021-08-13T08:18:08.173Z</time>
      </trkpt>
      <trkpt lat="46.84242" lon="8.42606">
        <ele>1815</ele>
        <time>2021-08-13T08:18:09.174Z</time>
      </trkpt>
      <trkpt lat="46.84241" lon="8.42605">
        <ele>1815</ele>
        <time>2021-08-13T08:18:10.173Z</time>
      </trkpt>
      <trkpt lat="46.84241" lon="8.42604">
        <ele>1814</ele>
        <time>2021-08-13T08:18:11.173Z</time>
      </trkpt>
      <trkpt lat="46.8424" lon="8.42603">
        <ele>1814</ele>
        <time>2021-08-13T08:18:12.174Z</time>
      </trkpt>
      <trkpt lat="46.84238" lon="8.42602">
        <ele>1814</ele>
        <time>2021-08-13T08:18:13.174Z</time>
      </trkpt>
      <trkpt lat="46.84237" lon="8.426">
        <ele>1813</ele>
        <time>2021-08-13T08:18:14.173Z</time>
      </trkpt>
      <trkpt lat="46.84236" lon="8.42599">
        <ele>1813</ele>
        <time>2021-08-13T08:18:15.174Z</time>
      </trkpt>
      <trkpt lat="46.84235" lon="8.42598">
        <ele>1812</ele>
        <time>2021-08-13T08:18:16.174Z</time>
      </trkpt>
      <trkpt lat="46.84234" lon="8.42596">
        <ele>1812</ele>
        <time>2021-08-13T08:18:17.174Z</time>
      </trkpt>
      <trkpt lat="46.84233" lon="8.42595">
        <ele>1812</ele>
        <time>2021-08-13T08:18:18.174Z</time>
      </trkpt>
      <trkpt lat="46.84232" lon="8.42593">
        <ele>1812</ele>
        <time>2021-08-13T08:18:19.174Z</time>
      </trkpt>
      <trkpt lat="46.84231" lon="8.42592">
        <ele>1811</ele>
        <time>2021-08-13T08:18:20.174Z</time>
      </trkpt>
      <trkpt lat="46.8423" lon="8.42591">
        <ele>1811</ele>
        <time>2021-08-13T08:18:21.173Z</time>
      </trkpt>
      <trkpt lat="46.84229" lon="8.42589">
        <ele>1810</ele>
        <time>2021-08-13T08:18:22.173Z</time>
      </trkpt>
      <trkpt lat="46.84227" lon="8.42588">
        <ele>1810</ele>
        <time>2021-08-13T08:18:23.174Z</time>
      </trkpt>
      <trkpt lat="46.84226" lon="8.42588">
        <ele>1810</ele>
        <time>2021-08-13T08:18:24.173Z</time>
      </trkpt>
      <trkpt lat="46.84225" lon="8.42587">
        <ele>1810</ele>
        <time>2021-08-13T08:18:25.173Z</time>
      </trkpt>
      <trkpt lat="46.84224" lon="8.42587">
        <ele>1810</ele>
        <time>2021-08-13T08:18:26.173Z</time>
      </trkpt>
      <trkpt lat="46.84224" lon="8.42586">
        <ele>1810</ele>
        <time>2021-08-13T08:18:27.174Z</time>
      </trkpt>
      <trkpt lat="46.84223" lon="8.42584">
        <ele>1810</ele>
        <time>2021-08-13T08:18:28.174Z</time>
      </trkpt>
      <trkpt lat="46.84222" lon="8.42583">
        <ele>1810</ele>
        <time>2021-08-13T08:18:29.174Z</time>
      </trkpt>
      <trkpt lat="46.84221" lon="8.42581">
        <ele>1811</ele>
        <time>2021-08-13T08:18:30.173Z</time>
      </trkpt>
      <trkpt lat="46.8422" lon="8.4258">
        <ele>1811</ele>
        <time>2021-08-13T08:18:31.174Z</time>
      </trkpt>
      <trkpt lat="46.84219" lon="8.42579">
        <ele>1811</ele>
        <time>2021-08-13T08:18:32.174Z</time>
      </trkpt>
      <trkpt lat="46.84219" lon="8.42578">
        <ele>1811</ele>
        <time>2021-08-13T08:18:33.174Z</time>
      </trkpt>
      <trkpt lat="46.84218" lon="8.42577">
        <ele>1811</ele>
        <time>2021-08-13T08:18:34.174Z</time>
      </trkpt>
      <trkpt lat="46.84217" lon="8.42576">
        <ele>1811</ele>
        <time>2021-08-13T08:18:35.174Z</time>
      </trkpt>
      <trkpt lat="46.84216" lon="8.42575">
        <ele>1811</ele>
        <time>2021-08-13T08:18:36.174Z</time>
      </trkpt>
      <trkpt lat="46.84215" lon="8.42574">
        <ele>1811</ele>
        <time>2021-08-13T08:18:37.173Z</time>
      </trkpt>
      <trkpt lat="46.84214" lon="8.42574">
        <ele>1811</ele>
        <time>2021-08-13T08:18:38.173Z</time>
      </trkpt>
      <trkpt lat="46.84213" lon="8.42573">
        <ele>1811</ele>
        <time>2021-08-13T08:18:39.174Z</time>
      </trkpt>
      <trkpt lat="46.84212" lon="8.42572">
        <ele>1810</ele>
        <time>2021-08-13T08:18:40.174Z</time>
      </trkpt>
      <trkpt lat="46.84211" lon="8.42571">
        <ele>1810</ele>
        <time>2021-08-13T08:18:41.174Z</time>
      </trkpt>
      <trkpt lat="46.8421" lon="8.4257">
        <ele>1810</ele>
        <time>2021-08-13T08:18:42.174Z</time>
      </trkpt>
      <trkpt lat="46.84209" lon="8.42569">
        <ele>1809</ele>
        <time>2021-08-13T08:18:43.173Z</time>
      </trkpt>
      <trkpt lat="46.84209" lon="8.42568">
        <ele>1809</ele>
        <time>2021-08-13T08:18:44.173Z</time>
      </trkpt>
      <trkpt lat="46.84208" lon="8.42567">
        <ele>1809</ele>
        <time>2021-08-13T08:18:45.173Z</time>
      </trkpt>
      <trkpt lat="46.84207" lon="8.42565">
        <ele>1808</ele>
        <time>2021-08-13T08:18:46.173Z</time>
      </trkpt>
      <trkpt lat="46.84206" lon="8.42564">
        <ele>1808</ele>
        <time>2021-08-13T08:18:47.173Z</time>
      </trkpt>
      <trkpt lat="46.84205" lon="8.42564">
        <ele>1807</ele>
        <time>2021-08-13T08:18:48.173Z</time>
      </trkpt>
      <trkpt lat="46.84204" lon="8.42563">
        <ele>1807</ele>
        <time>2021-08-13T08:18:49.173Z</time>
      </trkpt>
      <trkpt lat="46.84204" lon="8.42563">
        <ele>1807</ele>
        <time>2021-08-13T08:18:50.173Z</time>
      </trkpt>
      <trkpt lat="46.84203" lon="8.42561">
        <ele>1807</ele>
        <time>2021-08-13T08:18:51.173Z</time>
      </trkpt>
      <trkpt lat="46.84202" lon="8.4256">
        <ele>1807</ele>
        <time>2021-08-13T08:18:52.174Z</time>
      </trkpt>
      <trkpt lat="46.84201" lon="8.4256">
        <ele>1806</ele>
        <time>2021-08-13T08:18:53.174Z</time>
      </trkpt>
      <trkpt lat="46.842" lon="8.42558">
        <ele>1806</ele>
        <time>2021-08-13T08:18:54.174Z</time>
      </trkpt>
      <trkpt lat="46.84199" lon="8.42557">
        <ele>1805</ele>
        <time>2021-08-13T08:18:55.174Z</time>
      </trkpt>
      <trkpt lat="46.84198" lon="8.42556">
        <ele>1805</ele>
        <time>2021-08-13T08:18:56.173Z</time>
      </trkpt>
      <trkpt lat="46.84197" lon="8.42554">
        <ele>1804</ele>
        <time>2021-08-13T08:18:57.174Z</time>
      </trkpt>
      <trkpt lat="46.84196" lon="8.42553">
        <ele>1804</ele>
        <time>2021-08-13T08:18:58.173Z</time>
      </trkpt>
      <trkpt lat="46.84195" lon="8.42551">
        <ele>1804</ele>
        <time>2021-08-13T08:18:59.174Z</time>
      </trkpt>
      <trkpt lat="46.84194" lon="8.4255">
        <ele>1804</ele>
        <time>2021-08-13T08:19:00.173Z</time>
      </trkpt>
      <trkpt lat="46.84193" lon="8.42549">
        <ele>1804</ele>
        <time>2021-08-13T08:19:01.173Z</time>
      </trkpt>
      <trkpt lat="46.84191" lon="8.42548">
        <ele>1804</ele>
        <time>2021-08-13T08:19:02.173Z</time>
      </trkpt>
      <trkpt lat="46.8419" lon="8.42546">
        <ele>1804</ele>
        <time>2021-08-13T08:19:03.173Z</time>
      </trkpt>
      <trkpt lat="46.84189" lon="8.42545">
        <ele>1804</ele>
        <time>2021-08-13T08:19:04.174Z</time>
      </trkpt>
      <trkpt lat="46.84188" lon="8.42544">
        <ele>1804</ele>
        <time>2021-08-13T08:19:05.174Z</time>
      </trkpt>
      <trkpt lat="46.84187" lon="8.42543">
        <ele>1804</ele>
        <time>2021-08-13T08:19:06.174Z</time>
      </trkpt>
      <trkpt lat="46.84185" lon="8.42541">
        <ele>1804</ele>
        <time>2021-08-13T08:19:07.173Z</time>
      </trkpt>
      <trkpt lat="46.84185" lon="8.4254">
        <ele>1804</ele>
        <time>2021-08-13T08:19:08.174Z</time>
      </trkpt>
      <trkpt lat="46.84184" lon="8.42539">
        <ele>1804</ele>
        <time>2021-08-13T08:19:09.173Z</time>
      </trkpt>
      <trkpt lat="46.84183" lon="8.42538">
        <ele>1803</ele>
        <time>2021-08-13T08:19:10.173Z</time>
      </trkpt>
      <trkpt lat="46.84182" lon="8.42537">
        <ele>1802</ele>
        <time>2021-08-13T08:19:11.174Z</time>
      </trkpt>
      <trkpt lat="46.84181" lon="8.42536">
        <ele>1801</ele>
        <time>2021-08-13T08:19:12.174Z</time>
      </trkpt>
      <trkpt lat="46.8418" lon="8.42536">
        <ele>1801</ele>
        <time>2021-08-13T08:19:13.173Z</time>
      </trkpt>
      <trkpt lat="46.84179" lon="8.42535">
        <ele>1800</ele>
        <time>2021-08-13T08:19:14.173Z</time>
      </trkpt>
      <trkpt lat="46.84178" lon="8.42533">
        <ele>1800</ele>
        <time>2021-08-13T08:19:15.173Z</time>
      </trkpt>
      <trkpt lat="46.84177" lon="8.42532">
        <ele>1799</ele>
        <time>2021-08-13T08:19:16.174Z</time>
      </trkpt>
      <trkpt lat="46.84176" lon="8.42531">
        <ele>1799</ele>
        <time>2021-08-13T08:19:17.173Z</time>
      </trkpt>
      <trkpt lat="46.84175" lon="8.4253">
        <ele>1799</ele>
        <time>2021-08-13T08:19:18.174Z</time>
      </trkpt>
      <trkpt lat="46.84174" lon="8.42529">
        <ele>1799</ele>
        <time>2021-08-13T08:19:19.174Z</time>
      </trkpt>
      <trkpt lat="46.84174" lon="8.42528">
        <ele>1799</ele>
        <time>2021-08-13T08:19:20.174Z</time>
      </trkpt>
      <trkpt lat="46.84173" lon="8.42527">
        <ele>1798</ele>
        <time>2021-08-13T08:19:21.173Z</time>
      </trkpt>
      <trkpt lat="46.84172" lon="8.42526">
        <ele>1798</ele>
        <time>2021-08-13T08:19:22.173Z</time>
      </trkpt>
      <trkpt lat="46.84172" lon="8.42525">
        <ele>1798</ele>
        <time>2021-08-13T08:19:23.174Z</time>
      </trkpt>
      <trkpt lat="46.84171" lon="8.42524">
        <ele>1799</ele>
        <time>2021-08-13T08:19:24.173Z</time>
      </trkpt>
      <trkpt lat="46.84171" lon="8.42523">
        <ele>1799</ele>
        <time>2021-08-13T08:19:25.173Z</time>
      </trkpt>
      <trkpt lat="46.8417" lon="8.42521">
        <ele>1799</ele>
        <time>2021-08-13T08:19:26.174Z</time>
      </trkpt>
      <trkpt lat="46.8417" lon="8.4252">
        <ele>1799</ele>
        <time>2021-08-13T08:19:27.173Z</time>
      </trkpt>
      <trkpt lat="46.8417" lon="8.42518">
        <ele>1799</ele>
        <time>2021-08-13T08:19:28.174Z</time>
      </trkpt>
      <trkpt lat="46.84171" lon="8.42517">
        <ele>1799</ele>
        <time>2021-08-13T08:19:29.174Z</time>
      </trkpt>
      <trkpt lat="46.84171" lon="8.42515">
        <ele>1799</ele>
        <time>2021-08-13T08:19:30.173Z</time>
      </trkpt>
      <trkpt lat="46.84171" lon="8.42513">
        <ele>1798</ele>
        <time>2021-08-13T08:19:31.174Z</time>
      </trkpt>
      <trkpt lat="46.84171" lon="8.42511">
        <ele>1798</ele>
        <time>2021-08-13T08:19:32.174Z</time>
      </trkpt>
      <trkpt lat="46.84171" lon="8.4251">
        <ele>1798</ele>
        <time>2021-08-13T08:19:33.174Z</time>
      </trkpt>
      <trkpt lat="46.84171" lon="8.42508">
        <ele>1798</ele>
        <time>2021-08-13T08:19:34.173Z</time>
      </trkpt>
      <trkpt lat="46.84172" lon="8.42506">
        <ele>1798</ele>
        <time>2021-08-13T08:19:35.173Z</time>
      </trkpt>
      <trkpt lat="46.84172" lon="8.42505">
        <ele>1798</ele>
        <time>2021-08-13T08:19:36.174Z</time>
      </trkpt>
      <trkpt lat="46.84172" lon="8.42504">
        <ele>1798</ele>
        <time>2021-08-13T08:19:37.174Z</time>
      </trkpt>
      <trkpt lat="46.84173" lon="8.42503">
        <ele>1798</ele>
        <time>2021-08-13T08:19:38.173Z</time>
      </trkpt>
      <trkpt lat="46.84173" lon="8.42501">
        <ele>1798</ele>
        <time>2021-08-13T08:19:39.173Z</time>
      </trkpt>
      <trkpt lat="46.84173" lon="8.425">
        <ele>1798</ele>
        <time>2021-08-13T08:19:40.174Z</time>
      </trkpt>
      <trkpt lat="46.84173" lon="8.42498">
        <ele>1798</ele>
        <time>2021-08-13T08:19:41.173Z</time>
      </trkpt>
      <trkpt lat="46.84174" lon="8.42496">
        <ele>1798</ele>
        <time>2021-08-13T08:19:42.173Z</time>
      </trkpt>
      <trkpt lat="46.84174" lon="8.42495">
        <ele>1798</ele>
        <time>2021-08-13T08:19:43.173Z</time>
      </trkpt>
      <trkpt lat="46.84174" lon="8.42493">
        <ele>1798</ele>
        <time>2021-08-13T08:19:44.173Z</time>
      </trkpt>
      <trkpt lat="46.84174" lon="8.42492">
        <ele>1798</ele>
        <time>2021-08-13T08:19:45.173Z</time>
      </trkpt>
      <trkpt lat="46.84174" lon="8.4249">
        <ele>1797</ele>
        <time>2021-08-13T08:19:46.173Z</time>
      </trkpt>
      <trkpt lat="46.84174" lon="8.42488">
        <ele>1797</ele>
        <time>2021-08-13T08:19:47.173Z</time>
      </trkpt>
      <trkpt lat="46.84173" lon="8.42486">
        <ele>1796</ele>
        <time>2021-08-13T08:19:48.173Z</time>
      </trkpt>
      <trkpt lat="46.84173" lon="8.42484">
        <ele>1796</ele>
        <time>2021-08-13T08:19:49.174Z</time>
      </trkpt>
      <trkpt lat="46.84172" lon="8.42483">
        <ele>1796</ele>
        <time>2021-08-13T08:19:50.174Z</time>
      </trkpt>
      <trkpt lat="46.84171" lon="8.42481">
        <ele>1796</ele>
        <time>2021-08-13T08:19:51.174Z</time>
      </trkpt>
      <trkpt lat="46.84171" lon="8.42479">
        <ele>1795</ele>
        <time>2021-08-13T08:19:52.174Z</time>
      </trkpt>
      <trkpt lat="46.84171" lon="8.42477">
        <ele>1795</ele>
        <time>2021-08-13T08:19:53.174Z</time>
      </trkpt>
      <trkpt lat="46.84171" lon="8.42476">
        <ele>1795</ele>
        <time>2021-08-13T08:19:54.174Z</time>
      </trkpt>
      <trkpt lat="46.8417" lon="8.42475">
        <ele>1795</ele>
        <time>2021-08-13T08:19:55.174Z</time>
      </trkpt>
      <trkpt lat="46.8417" lon="8.42474">
        <ele>1794</ele>
        <time>2021-08-13T08:19:56.174Z</time>
      </trkpt>
      <trkpt lat="46.84169" lon="8.42473">
        <ele>1794</ele>
        <time>2021-08-13T08:19:57.174Z</time>
      </trkpt>
      <trkpt lat="46.84168" lon="8.42471">
        <ele>1794</ele>
        <time>2021-08-13T08:19:58.174Z</time>
      </trkpt>
      <trkpt lat="46.84166" lon="8.42469">
        <ele>1794</ele>
        <time>2021-08-13T08:19:59.173Z</time>
      </trkpt>
      <trkpt lat="46.84165" lon="8.42468">
        <ele>1794</ele>
        <time>2021-08-13T08:20:00.173Z</time>
      </trkpt>
      <trkpt lat="46.84164" lon="8.42467">
        <ele>1794</ele>
        <time>2021-08-13T08:20:01.174Z</time>
      </trkpt>
      <trkpt lat="46.84163" lon="8.42465">
        <ele>1794</ele>
        <time>2021-08-13T08:20:02.174Z</time>
      </trkpt>
      <trkpt lat="46.84162" lon="8.42464">
        <ele>1794</ele>
        <time>2021-08-13T08:20:03.174Z</time>
      </trkpt>
      <trkpt lat="46.84161" lon="8.42463">
        <ele>1793</ele>
        <time>2021-08-13T08:20:04.174Z</time>
      </trkpt>
      <trkpt lat="46.8416" lon="8.42462">
        <ele>1793</ele>
        <time>2021-08-13T08:20:05.173Z</time>
      </trkpt>
      <trkpt lat="46.84159" lon="8.42461">
        <ele>1792</ele>
        <time>2021-08-13T08:20:06.174Z</time>
      </trkpt>
      <trkpt lat="46.84158" lon="8.42461">
        <ele>1791</ele>
        <time>2021-08-13T08:20:07.173Z</time>
      </trkpt>
      <trkpt lat="46.84158" lon="8.42461">
        <ele>1791</ele>
        <time>2021-08-13T08:20:08.173Z</time>
      </trkpt>
      <trkpt lat="46.84157" lon="8.42461">
        <ele>1791</ele>
        <time>2021-08-13T08:20:09.174Z</time>
      </trkpt>
      <trkpt lat="46.84157" lon="8.42461">
        <ele>1790</ele>
        <time>2021-08-13T08:20:10.173Z</time>
      </trkpt>
      <trkpt lat="46.84156" lon="8.4246">
        <ele>1790</ele>
        <time>2021-08-13T08:20:11.174Z</time>
      </trkpt>
      <trkpt lat="46.84155" lon="8.42459">
        <ele>1790</ele>
        <time>2021-08-13T08:20:12.174Z</time>
      </trkpt>
      <trkpt lat="46.84155" lon="8.42458">
        <ele>1790</ele>
        <time>2021-08-13T08:20:13.174Z</time>
      </trkpt>
      <trkpt lat="46.84153" lon="8.42457">
        <ele>1790</ele>
        <time>2021-08-13T08:20:14.174Z</time>
      </trkpt>
      <trkpt lat="46.84152" lon="8.42456">
        <ele>1790</ele>
        <time>2021-08-13T08:20:15.173Z</time>
      </trkpt>
      <trkpt lat="46.84151" lon="8.42455">
        <ele>1790</ele>
        <time>2021-08-13T08:20:16.174Z</time>
      </trkpt>
      <trkpt lat="46.8415" lon="8.42454">
        <ele>1791</ele>
        <time>2021-08-13T08:20:17.174Z</time>
      </trkpt>
      <trkpt lat="46.84149" lon="8.42453">
        <ele>1791</ele>
        <time>2021-08-13T08:20:18.174Z</time>
      </trkpt>
      <trkpt lat="46.84148" lon="8.42452">
        <ele>1791</ele>
        <time>2021-08-13T08:20:19.174Z</time>
      </trkpt>
      <trkpt lat="46.84147" lon="8.42451">
        <ele>1791</ele>
        <time>2021-08-13T08:20:20.174Z</time>
      </trkpt>
      <trkpt lat="46.84145" lon="8.4245">
        <ele>1791</ele>
        <time>2021-08-13T08:20:21.174Z</time>
      </trkpt>
      <trkpt lat="46.84144" lon="8.42449">
        <ele>1791</ele>
        <time>2021-08-13T08:20:22.173Z</time>
      </trkpt>
      <trkpt lat="46.84143" lon="8.42448">
        <ele>1791</ele>
        <time>2021-08-13T08:20:23.174Z</time>
      </trkpt>
      <trkpt lat="46.84143" lon="8.42447">
        <ele>1790</ele>
        <time>2021-08-13T08:20:24.173Z</time>
      </trkpt>
      <trkpt lat="46.84142" lon="8.42446">
        <ele>1790</ele>
        <time>2021-08-13T08:20:25.174Z</time>
      </trkpt>
      <trkpt lat="46.84141" lon="8.42446">
        <ele>1789</ele>
        <time>2021-08-13T08:20:26.173Z</time>
      </trkpt>
      <trkpt lat="46.8414" lon="8.42445">
        <ele>1789</ele>
        <time>2021-08-13T08:20:27.173Z</time>
      </trkpt>
      <trkpt lat="46.84139" lon="8.42443">
        <ele>1789</ele>
        <time>2021-08-13T08:20:28.173Z</time>
      </trkpt>
      <trkpt lat="46.84138" lon="8.42442">
        <ele>1789</ele>
        <time>2021-08-13T08:20:29.173Z</time>
      </trkpt>
      <trkpt lat="46.84136" lon="8.42441">
        <ele>1789</ele>
        <time>2021-08-13T08:20:30.173Z</time>
      </trkpt>
      <trkpt lat="46.84135" lon="8.4244">
        <ele>1788</ele>
        <time>2021-08-13T08:20:31.174Z</time>
      </trkpt>
      <trkpt lat="46.84135" lon="8.42439">
        <ele>1788</ele>
        <time>2021-08-13T08:20:32.174Z</time>
      </trkpt>
      <trkpt lat="46.84134" lon="8.42437">
        <ele>1788</ele>
        <time>2021-08-13T08:20:33.173Z</time>
      </trkpt>
      <trkpt lat="46.84133" lon="8.42436">
        <ele>1787</ele>
        <time>2021-08-13T08:20:34.174Z</time>
      </trkpt>
      <trkpt lat="46.84132" lon="8.42435">
        <ele>1787</ele>
        <time>2021-08-13T08:20:35.173Z</time>
      </trkpt>
      <trkpt lat="46.84131" lon="8.42433">
        <ele>1787</ele>
        <time>2021-08-13T08:20:36.173Z</time>
      </trkpt>
      <trkpt lat="46.8413" lon="8.42432">
        <ele>1786</ele>
        <time>2021-08-13T08:20:37.173Z</time>
      </trkpt>
      <trkpt lat="46.84129" lon="8.42431">
        <ele>1786</ele>
        <time>2021-08-13T08:20:38.173Z</time>
      </trkpt>
      <trkpt lat="46.84128" lon="8.4243">
        <ele>1787</ele>
        <time>2021-08-13T08:20:39.174Z</time>
      </trkpt>
      <trkpt lat="46.84127" lon="8.42429">
        <ele>1787</ele>
        <time>2021-08-13T08:20:40.174Z</time>
      </trkpt>
      <trkpt lat="46.84126" lon="8.42427">
        <ele>1787</ele>
        <time>2021-08-13T08:20:41.173Z</time>
      </trkpt>
      <trkpt lat="46.84125" lon="8.42426">
        <ele>1788</ele>
        <time>2021-08-13T08:20:42.173Z</time>
      </trkpt>
      <trkpt lat="46.84124" lon="8.42424">
        <ele>1788</ele>
        <time>2021-08-13T08:20:43.174Z</time>
      </trkpt>
      <trkpt lat="46.84123" lon="8.42423">
        <ele>1789</ele>
        <time>2021-08-13T08:20:44.174Z</time>
      </trkpt>
      <trkpt lat="46.84122" lon="8.42422">
        <ele>1789</ele>
        <time>2021-08-13T08:20:45.174Z</time>
      </trkpt>
      <trkpt lat="46.84122" lon="8.4242">
        <ele>1789</ele>
        <time>2021-08-13T08:20:46.173Z</time>
      </trkpt>
      <trkpt lat="46.84121" lon="8.42419">
        <ele>1789</ele>
        <time>2021-08-13T08:20:47.173Z</time>
      </trkpt>
      <trkpt lat="46.8412" lon="8.42418">
        <ele>1789</ele>
        <time>2021-08-13T08:20:48.173Z</time>
      </trkpt>
      <trkpt lat="46.8412" lon="8.42416">
        <ele>1789</ele>
        <time>2021-08-13T08:20:49.173Z</time>
      </trkpt>
      <trkpt lat="46.84119" lon="8.42415">
        <ele>1789</ele>
        <time>2021-08-13T08:20:50.173Z</time>
      </trkpt>
      <trkpt lat="46.84118" lon="8.42413">
        <ele>1789</ele>
        <time>2021-08-13T08:20:51.174Z</time>
      </trkpt>
      <trkpt lat="46.84118" lon="8.42412">
        <ele>1789</ele>
        <time>2021-08-13T08:20:52.174Z</time>
      </trkpt>
      <trkpt lat="46.84118" lon="8.4241">
        <ele>1789</ele>
        <time>2021-08-13T08:20:53.174Z</time>
      </trkpt>
      <trkpt lat="46.84118" lon="8.42409">
        <ele>1788</ele>
        <time>2021-08-13T08:20:54.174Z</time>
      </trkpt>
      <trkpt lat="46.84117" lon="8.42408">
        <ele>1788</ele>
        <time>2021-08-13T08:20:55.173Z</time>
      </trkpt>
      <trkpt lat="46.84117" lon="8.42406">
        <ele>1788</ele>
        <time>2021-08-13T08:20:56.174Z</time>
      </trkpt>
      <trkpt lat="46.84116" lon="8.42405">
        <ele>1788</ele>
        <time>2021-08-13T08:20:57.174Z</time>
      </trkpt>
      <trkpt lat="46.84116" lon="8.42403">
        <ele>1787</ele>
        <time>2021-08-13T08:20:58.173Z</time>
      </trkpt>
      <trkpt lat="46.84115" lon="8.42401">
        <ele>1787</ele>
        <time>2021-08-13T08:20:59.174Z</time>
      </trkpt>
      <trkpt lat="46.84115" lon="8.42399">
        <ele>1787</ele>
        <time>2021-08-13T08:21:00.174Z</time>
      </trkpt>
      <trkpt lat="46.84114" lon="8.42398">
        <ele>1788</ele>
        <time>2021-08-13T08:21:01.174Z</time>
      </trkpt>
      <trkpt lat="46.84114" lon="8.42396">
        <ele>1788</ele>
        <time>2021-08-13T08:21:02.174Z</time>
      </trkpt>
      <trkpt lat="46.84113" lon="8.42394">
        <ele>1787</ele>
        <time>2021-08-13T08:21:03.174Z</time>
      </trkpt>
      <trkpt lat="46.84113" lon="8.42392">
        <ele>1787</ele>
        <time>2021-08-13T08:21:04.174Z</time>
      </trkpt>
      <trkpt lat="46.84113" lon="8.42391">
        <ele>1787</ele>
        <time>2021-08-13T08:21:05.174Z</time>
      </trkpt>
      <trkpt lat="46.84112" lon="8.4239">
        <ele>1786</ele>
        <time>2021-08-13T08:21:06.174Z</time>
      </trkpt>
      <trkpt lat="46.84112" lon="8.42389">
        <ele>1786</ele>
        <time>2021-08-13T08:21:07.173Z</time>
      </trkpt>
      <trkpt lat="46.84111" lon="8.42388">
        <ele>1786</ele>
        <time>2021-08-13T08:21:08.174Z</time>
      </trkpt>
      <trkpt lat="46.84111" lon="8.42386">
        <ele>1785</ele>
        <time>2021-08-13T08:21:09.173Z</time>
      </trkpt>
      <trkpt lat="46.8411" lon="8.42385">
        <ele>1785</ele>
        <time>2021-08-13T08:21:10.174Z</time>
      </trkpt>
      <trkpt lat="46.84109" lon="8.42383">
        <ele>1785</ele>
        <time>2021-08-13T08:21:11.174Z</time>
      </trkpt>
      <trkpt lat="46.84108" lon="8.42382">
        <ele>1785</ele>
        <time>2021-08-13T08:21:12.173Z</time>
      </trkpt>
      <trkpt lat="46.84107" lon="8.42381">
        <ele>1785</ele>
        <time>2021-08-13T08:21:13.174Z</time>
      </trkpt>
      <trkpt lat="46.84106" lon="8.4238">
        <ele>1784</ele>
        <time>2021-08-13T08:21:14.174Z</time>
      </trkpt>
      <trkpt lat="46.84106" lon="8.42379">
        <ele>1783</ele>
        <time>2021-08-13T08:21:15.174Z</time>
      </trkpt>
      <trkpt lat="46.84105" lon="8.42378">
        <ele>1783</ele>
        <time>2021-08-13T08:21:16.174Z</time>
      </trkpt>
      <trkpt lat="46.84104" lon="8.42377">
        <ele>1783</ele>
        <time>2021-08-13T08:21:17.173Z</time>
      </trkpt>
      <trkpt lat="46.84103" lon="8.42376">
        <ele>1783</ele>
        <time>2021-08-13T08:21:18.174Z</time>
      </trkpt>
      <trkpt lat="46.84102" lon="8.42376">
        <ele>1783</ele>
        <time>2021-08-13T08:21:19.174Z</time>
      </trkpt>
      <trkpt lat="46.84102" lon="8.42375">
        <ele>1783</ele>
        <time>2021-08-13T08:21:20.174Z</time>
      </trkpt>
      <trkpt lat="46.84101" lon="8.42375">
        <ele>1784</ele>
        <time>2021-08-13T08:21:21.174Z</time>
      </trkpt>
      <trkpt lat="46.84101" lon="8.42375">
        <ele>1783</ele>
        <time>2021-08-13T08:21:22.174Z</time>
      </trkpt>
      <trkpt lat="46.84101" lon="8.42374">
        <ele>1784</ele>
        <time>2021-08-13T08:21:23.175Z</time>
      </trkpt>
      <trkpt lat="46.841" lon="8.42374">
        <ele>1783</ele>
        <time>2021-08-13T08:21:24.175Z</time>
      </trkpt>
      <trkpt lat="46.841" lon="8.42374">
        <ele>1783</ele>
        <time>2021-08-13T08:21:25.174Z</time>
      </trkpt>
      <trkpt lat="46.84099" lon="8.42373">
        <ele>1782</ele>
        <time>2021-08-13T08:21:26.174Z</time>
      </trkpt>
      <trkpt lat="46.84098" lon="8.42373">
        <ele>1781</ele>
        <time>2021-08-13T08:21:27.175Z</time>
      </trkpt>
      <trkpt lat="46.84097" lon="8.42372">
        <ele>1781</ele>
        <time>2021-08-13T08:21:28.174Z</time>
      </trkpt>
      <trkpt lat="46.84096" lon="8.42371">
        <ele>1781</ele>
        <time>2021-08-13T08:21:29.175Z</time>
      </trkpt>
      <trkpt lat="46.84094" lon="8.4237">
        <ele>1780</ele>
        <time>2021-08-13T08:21:30.175Z</time>
      </trkpt>
      <trkpt lat="46.84093" lon="8.4237">
        <ele>1779</ele>
        <time>2021-08-13T08:21:31.175Z</time>
      </trkpt>
      <trkpt lat="46.84093" lon="8.4237">
        <ele>1779</ele>
        <time>2021-08-13T08:21:32.175Z</time>
      </trkpt>
      <trkpt lat="46.84092" lon="8.42369">
        <ele>1779</ele>
        <time>2021-08-13T08:21:33.174Z</time>
      </trkpt>
      <trkpt lat="46.84091" lon="8.42369">
        <ele>1779</ele>
        <time>2021-08-13T08:21:34.175Z</time>
      </trkpt>
      <trkpt lat="46.8409" lon="8.42369">
        <ele>1779</ele>
        <time>2021-08-13T08:21:35.175Z</time>
      </trkpt>
      <trkpt lat="46.84089" lon="8.4237">
        <ele>1779</ele>
        <time>2021-08-13T08:21:36.175Z</time>
      </trkpt>
      <trkpt lat="46.84088" lon="8.4237">
        <ele>1779</ele>
        <time>2021-08-13T08:21:37.174Z</time>
      </trkpt>
      <trkpt lat="46.84087" lon="8.42369">
        <ele>1779</ele>
        <time>2021-08-13T08:21:38.175Z</time>
      </trkpt>
      <trkpt lat="46.84086" lon="8.42369">
        <ele>1779</ele>
        <time>2021-08-13T08:21:39.174Z</time>
      </trkpt>
      <trkpt lat="46.84085" lon="8.42368">
        <ele>1779</ele>
        <time>2021-08-13T08:21:40.174Z</time>
      </trkpt>
      <trkpt lat="46.84083" lon="8.42368">
        <ele>1780</ele>
        <time>2021-08-13T08:21:41.174Z</time>
      </trkpt>
      <trkpt lat="46.84082" lon="8.42367">
        <ele>1779</ele>
        <time>2021-08-13T08:21:42.175Z</time>
      </trkpt>
      <trkpt lat="46.8408" lon="8.42367">
        <ele>1779</ele>
        <time>2021-08-13T08:21:43.174Z</time>
      </trkpt>
      <trkpt lat="46.84079" lon="8.42366">
        <ele>1779</ele>
        <time>2021-08-13T08:21:44.174Z</time>
      </trkpt>
      <trkpt lat="46.84077" lon="8.42365">
        <ele>1779</ele>
        <time>2021-08-13T08:21:45.174Z</time>
      </trkpt>
      <trkpt lat="46.84076" lon="8.42365">
        <ele>1780</ele>
        <time>2021-08-13T08:21:46.174Z</time>
      </trkpt>
      <trkpt lat="46.84075" lon="8.42365">
        <ele>1780</ele>
        <time>2021-08-13T08:21:47.174Z</time>
      </trkpt>
      <trkpt lat="46.84074" lon="8.42365">
        <ele>1781</ele>
        <time>2021-08-13T08:21:48.174Z</time>
      </trkpt>
      <trkpt lat="46.84073" lon="8.42364">
        <ele>1782</ele>
        <time>2021-08-13T08:21:49.175Z</time>
      </trkpt>
      <trkpt lat="46.84072" lon="8.42364">
        <ele>1782</ele>
        <time>2021-08-13T08:21:50.175Z</time>
      </trkpt>
      <trkpt lat="46.8407" lon="8.42364">
        <ele>1782</ele>
        <time>2021-08-13T08:21:51.175Z</time>
      </trkpt>
      <trkpt lat="46.84069" lon="8.42363">
        <ele>1782</ele>
        <time>2021-08-13T08:21:52.174Z</time>
      </trkpt>
      <trkpt lat="46.84068" lon="8.42362">
        <ele>1782</ele>
        <time>2021-08-13T08:21:53.175Z</time>
      </trkpt>
      <trkpt lat="46.84067" lon="8.42362">
        <ele>1782</ele>
        <time>2021-08-13T08:21:54.175Z</time>
      </trkpt>
      <trkpt lat="46.84066" lon="8.42363">
        <ele>1781</ele>
        <time>2021-08-13T08:21:55.175Z</time>
      </trkpt>
      <trkpt lat="46.84065" lon="8.42363">
        <ele>1781</ele>
        <time>2021-08-13T08:21:56.175Z</time>
      </trkpt>
      <trkpt lat="46.84063" lon="8.42363">
        <ele>1780</ele>
        <time>2021-08-13T08:21:57.175Z</time>
      </trkpt>
      <trkpt lat="46.84062" lon="8.42362">
        <ele>1779</ele>
        <time>2021-08-13T08:21:58.175Z</time>
      </trkpt>
      <trkpt lat="46.84061" lon="8.42362">
        <ele>1779</ele>
        <time>2021-08-13T08:21:59.175Z</time>
      </trkpt>
      <trkpt lat="46.84059" lon="8.42363">
        <ele>1779</ele>
        <time>2021-08-13T08:22:00.175Z</time>
      </trkpt>
      <trkpt lat="46.84058" lon="8.42363">
        <ele>1778</ele>
        <time>2021-08-13T08:22:01.175Z</time>
      </trkpt>
      <trkpt lat="46.84058" lon="8.42364">
        <ele>1778</ele>
        <time>2021-08-13T08:22:02.174Z</time>
      </trkpt>
      <trkpt lat="46.84058" lon="8.42364">
        <ele>1777</ele>
        <time>2021-08-13T08:22:03.174Z</time>
      </trkpt>
      <trkpt lat="46.84057" lon="8.42368">
        <ele>1775</ele>
        <time>2021-08-13T08:22:04.175Z</time>
      </trkpt>
      <trkpt lat="46.84056" lon="8.4237">
        <ele>1774</ele>
        <time>2021-08-13T08:22:05.175Z</time>
      </trkpt>
      <trkpt lat="46.84056" lon="8.42371">
        <ele>1773</ele>
        <time>2021-08-13T08:22:06.174Z</time>
      </trkpt>
      <trkpt lat="46.84056" lon="8.42372">
        <ele>1773</ele>
        <time>2021-08-13T08:22:07.175Z</time>
      </trkpt>
      <trkpt lat="46.84055" lon="8.42373">
        <ele>1773</ele>
        <time>2021-08-13T08:22:08.175Z</time>
      </trkpt>
      <trkpt lat="46.84055" lon="8.42374">
        <ele>1773</ele>
        <time>2021-08-13T08:22:09.174Z</time>
      </trkpt>
      <trkpt lat="46.84054" lon="8.42376">
        <ele>1773</ele>
        <time>2021-08-13T08:22:10.174Z</time>
      </trkpt>
      <trkpt lat="46.84054" lon="8.42375">
        <ele>1772</ele>
        <time>2021-08-13T08:22:11.174Z</time>
      </trkpt>
      <trkpt lat="46.84055" lon="8.42374">
        <ele>1772</ele>
        <time>2021-08-13T08:22:12.174Z</time>
      </trkpt>
      <trkpt lat="46.84056" lon="8.42377">
        <ele>1770</ele>
        <time>2021-08-13T08:22:13.175Z</time>
      </trkpt>
      <trkpt lat="46.84056" lon="8.42376">
        <ele>1770</ele>
        <time>2021-08-13T08:22:14.175Z</time>
      </trkpt>
      <trkpt lat="46.84056" lon="8.42377">
        <ele>1770</ele>
        <time>2021-08-13T08:22:15.174Z</time>
      </trkpt>
      <trkpt lat="46.84055" lon="8.42376">
        <ele>1770</ele>
        <time>2021-08-13T08:22:16.176Z</time>
      </trkpt>
      <trkpt lat="46.84055" lon="8.42376">
        <ele>1771</ele>
        <time>2021-08-13T08:22:17.176Z</time>
      </trkpt>
      <trkpt lat="46.84055" lon="8.42377">
        <ele>1770</ele>
        <time>2021-08-13T08:22:18.175Z</time>
      </trkpt>
      <trkpt lat="46.84055" lon="8.42376">
        <ele>1770</ele>
        <time>2021-08-13T08:22:19.176Z</time>
      </trkpt>
      <trkpt lat="46.84053" lon="8.42375">
        <ele>1770</ele>
        <time>2021-08-13T08:22:20.175Z</time>
      </trkpt>
      <trkpt lat="46.84054" lon="8.42376">
        <ele>1769</ele>
        <time>2021-08-13T08:22:21.176Z</time>
      </trkpt>
      <trkpt lat="46.84054" lon="8.42375">
        <ele>1769</ele>
        <time>2021-08-13T08:22:22.175Z</time>
      </trkpt>
      <trkpt lat="46.84055" lon="8.42374">
        <ele>1769</ele>
        <time>2021-08-13T08:22:23.175Z</time>
      </trkpt>
      <trkpt lat="46.84056" lon="8.42372">
        <ele>1769</ele>
        <time>2021-08-13T08:22:24.176Z</time>
      </trkpt>
      <trkpt lat="46.84056" lon="8.4237">
        <ele>1770</ele>
        <time>2021-08-13T08:22:25.175Z</time>
      </trkpt>
      <trkpt lat="46.84056" lon="8.42369">
        <ele>1770</ele>
        <time>2021-08-13T08:22:26.175Z</time>
      </trkpt>
      <trkpt lat="46.84055" lon="8.42367">
        <ele>1770</ele>
        <time>2021-08-13T08:22:27.176Z</time>
      </trkpt>
      <trkpt lat="46.84055" lon="8.42366">
        <ele>1770</ele>
        <time>2021-08-13T08:22:28.176Z</time>
      </trkpt>
      <trkpt lat="46.84054" lon="8.42365">
        <ele>1771</ele>
        <time>2021-08-13T08:22:29.175Z</time>
      </trkpt>
      <trkpt lat="46.84053" lon="8.42364">
        <ele>1771</ele>
        <time>2021-08-13T08:22:30.175Z</time>
      </trkpt>
      <trkpt lat="46.84051" lon="8.42363">
        <ele>1772</ele>
        <time>2021-08-13T08:22:31.175Z</time>
      </trkpt>
      <trkpt lat="46.8405" lon="8.42362">
        <ele>1773</ele>
        <time>2021-08-13T08:22:32.175Z</time>
      </trkpt>
      <trkpt lat="46.84049" lon="8.42362">
        <ele>1773</ele>
        <time>2021-08-13T08:22:33.175Z</time>
      </trkpt>
      <trkpt lat="46.84048" lon="8.42361">
        <ele>1774</ele>
        <time>2021-08-13T08:22:34.175Z</time>
      </trkpt>
      <trkpt lat="46.84046" lon="8.42361">
        <ele>1774</ele>
        <time>2021-08-13T08:22:35.175Z</time>
      </trkpt>
      <trkpt lat="46.84045" lon="8.42361">
        <ele>1774</ele>
        <time>2021-08-13T08:22:36.175Z</time>
      </trkpt>
      <trkpt lat="46.84043" lon="8.42361">
        <ele>1775</ele>
        <time>2021-08-13T08:22:37.175Z</time>
      </trkpt>
      <trkpt lat="46.84042" lon="8.42361">
        <ele>1775</ele>
        <time>2021-08-13T08:22:38.175Z</time>
      </trkpt>
      <trkpt lat="46.8404" lon="8.42362">
        <ele>1775</ele>
        <time>2021-08-13T08:22:39.175Z</time>
      </trkpt>
      <trkpt lat="46.84039" lon="8.42362">
        <ele>1775</ele>
        <time>2021-08-13T08:22:40.175Z</time>
      </trkpt>
      <trkpt lat="46.84038" lon="8.42362">
        <ele>1775</ele>
        <time>2021-08-13T08:22:41.175Z</time>
      </trkpt>
      <trkpt lat="46.84037" lon="8.42363">
        <ele>1775</ele>
        <time>2021-08-13T08:22:42.175Z</time>
      </trkpt>
      <trkpt lat="46.84035" lon="8.42363">
        <ele>1775</ele>
        <time>2021-08-13T08:22:43.175Z</time>
      </trkpt>
      <trkpt lat="46.84034" lon="8.42363">
        <ele>1774</ele>
        <time>2021-08-13T08:22:44.176Z</time>
      </trkpt>
      <trkpt lat="46.84033" lon="8.42363">
        <ele>1774</ele>
        <time>2021-08-13T08:22:45.175Z</time>
      </trkpt>
      <trkpt lat="46.84032" lon="8.42363">
        <ele>1773</ele>
        <time>2021-08-13T08:22:46.175Z</time>
      </trkpt>
      <trkpt lat="46.84031" lon="8.42363">
        <ele>1773</ele>
        <time>2021-08-13T08:22:47.175Z</time>
      </trkpt>
      <trkpt lat="46.8403" lon="8.42363">
        <ele>1773</ele>
        <time>2021-08-13T08:22:48.175Z</time>
      </trkpt>
      <trkpt lat="46.8403" lon="8.42363">
        <ele>1772</ele>
        <time>2021-08-13T08:22:49.175Z</time>
      </trkpt>
      <trkpt lat="46.8403" lon="8.42362">
        <ele>1772</ele>
        <time>2021-08-13T08:22:50.175Z</time>
      </trkpt>
      <trkpt lat="46.8403" lon="8.42362">
        <ele>1772</ele>
        <time>2021-08-13T08:22:51.175Z</time>
      </trkpt>
      <trkpt lat="46.8403" lon="8.42362">
        <ele>1771</ele>
        <time>2021-08-13T08:22:52.175Z</time>
      </trkpt>
      <trkpt lat="46.84029" lon="8.42361">
        <ele>1771</ele>
        <time>2021-08-13T08:22:53.175Z</time>
      </trkpt>
      <trkpt lat="46.84028" lon="8.4236">
        <ele>1771</ele>
        <time>2021-08-13T08:22:54.176Z</time>
      </trkpt>
      <trkpt lat="46.84028" lon="8.4236">
        <ele>1771</ele>
        <time>2021-08-13T08:22:55.176Z</time>
      </trkpt>
      <trkpt lat="46.84027" lon="8.4236">
        <ele>1771</ele>
        <time>2021-08-13T08:22:56.175Z</time>
      </trkpt>
      <trkpt lat="46.84026" lon="8.4236">
        <ele>1771</ele>
        <time>2021-08-13T08:22:57.176Z</time>
      </trkpt>
      <trkpt lat="46.84025" lon="8.4236">
        <ele>1771</ele>
        <time>2021-08-13T08:22:58.176Z</time>
      </trkpt>
      <trkpt lat="46.84024" lon="8.4236">
        <ele>1771</ele>
        <time>2021-08-13T08:22:59.176Z</time>
      </trkpt>
      <trkpt lat="46.84023" lon="8.42361">
        <ele>1770</ele>
        <time>2021-08-13T08:23:00.176Z</time>
      </trkpt>
      <trkpt lat="46.84023" lon="8.42362">
        <ele>1770</ele>
        <time>2021-08-13T08:23:01.176Z</time>
      </trkpt>
      <trkpt lat="46.84023" lon="8.42363">
        <ele>1769</ele>
        <time>2021-08-13T08:23:02.175Z</time>
      </trkpt>
      <trkpt lat="46.84023" lon="8.42365">
        <ele>1768</ele>
        <time>2021-08-13T08:23:03.177Z</time>
      </trkpt>
      <trkpt lat="46.84022" lon="8.42365">
        <ele>1768</ele>
        <time>2021-08-13T08:23:04.176Z</time>
      </trkpt>
      <trkpt lat="46.84022" lon="8.42365">
        <ele>1768</ele>
        <time>2021-08-13T08:23:05.177Z</time>
      </trkpt>
      <trkpt lat="46.84022" lon="8.42366">
        <ele>1768</ele>
        <time>2021-08-13T08:23:06.177Z</time>
      </trkpt>
      <trkpt lat="46.8402" lon="8.42366">
        <ele>1769</ele>
        <time>2021-08-13T08:23:07.176Z</time>
      </trkpt>
      <trkpt lat="46.84019" lon="8.42366">
        <ele>1769</ele>
        <time>2021-08-13T08:23:08.177Z</time>
      </trkpt>
      <trkpt lat="46.84017" lon="8.42367">
        <ele>1769</ele>
        <time>2021-08-13T08:23:09.177Z</time>
      </trkpt>
      <trkpt lat="46.84016" lon="8.42367">
        <ele>1769</ele>
        <time>2021-08-13T08:23:10.176Z</time>
      </trkpt>
      <trkpt lat="46.84015" lon="8.42368">
        <ele>1768</ele>
        <time>2021-08-13T08:23:11.176Z</time>
      </trkpt>
      <trkpt lat="46.84014" lon="8.42368">
        <ele>1768</ele>
        <time>2021-08-13T08:23:12.176Z</time>
      </trkpt>
      <trkpt lat="46.84013" lon="8.42369">
        <ele>1768</ele>
        <time>2021-08-13T08:23:13.176Z</time>
      </trkpt>
      <trkpt lat="46.84012" lon="8.4237">
        <ele>1768</ele>
        <time>2021-08-13T08:23:14.176Z</time>
      </trkpt>
      <trkpt lat="46.84011" lon="8.4237">
        <ele>1768</ele>
        <time>2021-08-13T08:23:15.176Z</time>
      </trkpt>
      <trkpt lat="46.8401" lon="8.42371">
        <ele>1768</ele>
        <time>2021-08-13T08:23:16.177Z</time>
      </trkpt>
      <trkpt lat="46.84009" lon="8.42371">
        <ele>1768</ele>
        <time>2021-08-13T08:23:17.176Z</time>
      </trkpt>
      <trkpt lat="46.84008" lon="8.42372">
        <ele>1769</ele>
        <time>2021-08-13T08:23:18.176Z</time>
      </trkpt>
      <trkpt lat="46.84007" lon="8.42373">
        <ele>1769</ele>
        <time>2021-08-13T08:23:19.177Z</time>
      </trkpt>
      <trkpt lat="46.84006" lon="8.42373">
        <ele>1769</ele>
        <time>2021-08-13T08:23:20.176Z</time>
      </trkpt>
      <trkpt lat="46.84005" lon="8.42374">
        <ele>1770</ele>
        <time>2021-08-13T08:23:21.177Z</time>
      </trkpt>
      <trkpt lat="46.84005" lon="8.42374">
        <ele>1771</ele>
        <time>2021-08-13T08:23:22.176Z</time>
      </trkpt>
      <trkpt lat="46.84004" lon="8.42374">
        <ele>1772</ele>
        <time>2021-08-13T08:23:23.177Z</time>
      </trkpt>
      <trkpt lat="46.84003" lon="8.42374">
        <ele>1772</ele>
        <time>2021-08-13T08:23:24.176Z</time>
      </trkpt>
      <trkpt lat="46.84001" lon="8.42375">
        <ele>1771</ele>
        <time>2021-08-13T08:23:25.177Z</time>
      </trkpt>
      <trkpt lat="46.84" lon="8.42375">
        <ele>1771</ele>
        <time>2021-08-13T08:23:26.176Z</time>
      </trkpt>
      <trkpt lat="46.83999" lon="8.42374">
        <ele>1771</ele>
        <time>2021-08-13T08:23:27.177Z</time>
      </trkpt>
      <trkpt lat="46.83998" lon="8.42373">
        <ele>1771</ele>
        <time>2021-08-13T08:23:28.176Z</time>
      </trkpt>
      <trkpt lat="46.83997" lon="8.42372">
        <ele>1771</ele>
        <time>2021-08-13T08:23:29.177Z</time>
      </trkpt>
      <trkpt lat="46.83996" lon="8.42371">
        <ele>1771</ele>
        <time>2021-08-13T08:23:30.176Z</time>
      </trkpt>
      <trkpt lat="46.83995" lon="8.4237">
        <ele>1770</ele>
        <time>2021-08-13T08:23:31.176Z</time>
      </trkpt>
      <trkpt lat="46.83994" lon="8.42368">
        <ele>1770</ele>
        <time>2021-08-13T08:23:32.176Z</time>
      </trkpt>
      <trkpt lat="46.83993" lon="8.42368">
        <ele>1770</ele>
        <time>2021-08-13T08:23:33.177Z</time>
      </trkpt>
      <trkpt lat="46.83993" lon="8.42367">
        <ele>1769</ele>
        <time>2021-08-13T08:23:34.177Z</time>
      </trkpt>
      <trkpt lat="46.83992" lon="8.42366">
        <ele>1768</ele>
        <time>2021-08-13T08:23:35.177Z</time>
      </trkpt>
      <trkpt lat="46.83991" lon="8.42365">
        <ele>1768</ele>
        <time>2021-08-13T08:23:36.176Z</time>
      </trkpt>
      <trkpt lat="46.8399" lon="8.42363">
        <ele>1767</ele>
        <time>2021-08-13T08:23:37.177Z</time>
      </trkpt>
      <trkpt lat="46.83989" lon="8.42362">
        <ele>1766</ele>
        <time>2021-08-13T08:23:38.176Z</time>
      </trkpt>
      <trkpt lat="46.83989" lon="8.4236">
        <ele>1766</ele>
        <time>2021-08-13T08:23:39.176Z</time>
      </trkpt>
      <trkpt lat="46.83988" lon="8.42359">
        <ele>1765</ele>
        <time>2021-08-13T08:23:40.177Z</time>
      </trkpt>
      <trkpt lat="46.83988" lon="8.42357">
        <ele>1765</ele>
        <time>2021-08-13T08:23:41.177Z</time>
      </trkpt>
      <trkpt lat="46.83987" lon="8.42356">
        <ele>1764</ele>
        <time>2021-08-13T08:23:42.177Z</time>
      </trkpt>
      <trkpt lat="46.83986" lon="8.42354">
        <ele>1764</ele>
        <time>2021-08-13T08:23:43.176Z</time>
      </trkpt>
      <trkpt lat="46.83986" lon="8.42353">
        <ele>1764</ele>
        <time>2021-08-13T08:23:44.177Z</time>
      </trkpt>
      <trkpt lat="46.83986" lon="8.42351">
        <ele>1763</ele>
        <time>2021-08-13T08:23:45.177Z</time>
      </trkpt>
      <trkpt lat="46.83986" lon="8.4235">
        <ele>1763</ele>
        <time>2021-08-13T08:23:46.177Z</time>
      </trkpt>
      <trkpt lat="46.83986" lon="8.42349">
        <ele>1762</ele>
        <time>2021-08-13T08:23:47.176Z</time>
      </trkpt>
      <trkpt lat="46.83986" lon="8.42348">
        <ele>1762</ele>
        <time>2021-08-13T08:23:48.177Z</time>
      </trkpt>
      <trkpt lat="46.83985" lon="8.42346">
        <ele>1762</ele>
        <time>2021-08-13T08:23:49.177Z</time>
      </trkpt>
      <trkpt lat="46.83985" lon="8.42345">
        <ele>1762</ele>
        <time>2021-08-13T08:23:50.177Z</time>
      </trkpt>
      <trkpt lat="46.83985" lon="8.42343">
        <ele>1762</ele>
        <time>2021-08-13T08:23:51.177Z</time>
      </trkpt>
      <trkpt lat="46.83985" lon="8.42342">
        <ele>1762</ele>
        <time>2021-08-13T08:23:52.177Z</time>
      </trkpt>
      <trkpt lat="46.83986" lon="8.4234">
        <ele>1762</ele>
        <time>2021-08-13T08:23:53.176Z</time>
      </trkpt>
      <trkpt lat="46.83986" lon="8.42339">
        <ele>1762</ele>
        <time>2021-08-13T08:23:54.176Z</time>
      </trkpt>
      <trkpt lat="46.83986" lon="8.42337">
        <ele>1762</ele>
        <time>2021-08-13T08:23:55.177Z</time>
      </trkpt>
      <trkpt lat="46.83985" lon="8.42336">
        <ele>1762</ele>
        <time>2021-08-13T08:23:56.177Z</time>
      </trkpt>
      <trkpt lat="46.83985" lon="8.42334">
        <ele>1762</ele>
        <time>2021-08-13T08:23:57.177Z</time>
      </trkpt>
      <trkpt lat="46.83985" lon="8.42333">
        <ele>1762</ele>
        <time>2021-08-13T08:23:58.177Z</time>
      </trkpt>
      <trkpt lat="46.83985" lon="8.42331">
        <ele>1762</ele>
        <time>2021-08-13T08:23:59.177Z</time>
      </trkpt>
      <trkpt lat="46.83985" lon="8.4233">
        <ele>1762</ele>
        <time>2021-08-13T08:24:00.176Z</time>
      </trkpt>
      <trkpt lat="46.83984" lon="8.42329">
        <ele>1762</ele>
        <time>2021-08-13T08:24:01.177Z</time>
      </trkpt>
      <trkpt lat="46.83984" lon="8.42327">
        <ele>1762</ele>
        <time>2021-08-13T08:24:02.177Z</time>
      </trkpt>
      <trkpt lat="46.83984" lon="8.42326">
        <ele>1762</ele>
        <time>2021-08-13T08:24:03.176Z</time>
      </trkpt>
      <trkpt lat="46.83984" lon="8.42325">
        <ele>1761</ele>
        <time>2021-08-13T08:24:04.176Z</time>
      </trkpt>
      <trkpt lat="46.83984" lon="8.42324">
        <ele>1761</ele>
        <time>2021-08-13T08:24:05.177Z</time>
      </trkpt>
      <trkpt lat="46.83984" lon="8.42324">
        <ele>1761</ele>
        <time>2021-08-13T08:24:06.176Z</time>
      </trkpt>
      <trkpt lat="46.83983" lon="8.42323">
        <ele>1761</ele>
        <time>2021-08-13T08:24:07.176Z</time>
      </trkpt>
      <trkpt lat="46.83982" lon="8.42322">
        <ele>1760</ele>
        <time>2021-08-13T08:24:08.176Z</time>
      </trkpt>
      <trkpt lat="46.83982" lon="8.42321">
        <ele>1760</ele>
        <time>2021-08-13T08:24:09.177Z</time>
      </trkpt>
      <trkpt lat="46.83981" lon="8.4232">
        <ele>1760</ele>
        <time>2021-08-13T08:24:10.176Z</time>
      </trkpt>
      <trkpt lat="46.83981" lon="8.42319">
        <ele>1760</ele>
        <time>2021-08-13T08:24:11.176Z</time>
      </trkpt>
      <trkpt lat="46.8398" lon="8.42317">
        <ele>1760</ele>
        <time>2021-08-13T08:24:12.177Z</time>
      </trkpt>
      <trkpt lat="46.83979" lon="8.42316">
        <ele>1759</ele>
        <time>2021-08-13T08:24:13.176Z</time>
      </trkpt>
      <trkpt lat="46.83979" lon="8.42316">
        <ele>1759</ele>
        <time>2021-08-13T08:24:14.177Z</time>
      </trkpt>
      <trkpt lat="46.83978" lon="8.42315">
        <ele>1760</ele>
        <time>2021-08-13T08:24:15.177Z</time>
      </trkpt>
      <trkpt lat="46.83977" lon="8.42314">
        <ele>1760</ele>
        <time>2021-08-13T08:24:16.177Z</time>
      </trkpt>
      <trkpt lat="46.83976" lon="8.42313">
        <ele>1759</ele>
        <time>2021-08-13T08:24:17.177Z</time>
      </trkpt>
      <trkpt lat="46.83975" lon="8.42312">
        <ele>1759</ele>
        <time>2021-08-13T08:24:18.177Z</time>
      </trkpt>
      <trkpt lat="46.83974" lon="8.42311">
        <ele>1759</ele>
        <time>2021-08-13T08:24:19.176Z</time>
      </trkpt>
      <trkpt lat="46.83973" lon="8.42311">
        <ele>1759</ele>
        <time>2021-08-13T08:24:20.177Z</time>
      </trkpt>
      <trkpt lat="46.83972" lon="8.4231">
        <ele>1759</ele>
        <time>2021-08-13T08:24:21.177Z</time>
      </trkpt>
      <trkpt lat="46.83971" lon="8.4231">
        <ele>1759</ele>
        <time>2021-08-13T08:24:22.177Z</time>
      </trkpt>
      <trkpt lat="46.83971" lon="8.4231">
        <ele>1758</ele>
        <time>2021-08-13T08:24:23.177Z</time>
      </trkpt>
      <trkpt lat="46.83971" lon="8.4231">
        <ele>1758</ele>
        <time>2021-08-13T08:24:24.177Z</time>
      </trkpt>
      <trkpt lat="46.83973" lon="8.42314">
        <ele>1769</ele>
        <time>2021-08-13T08:24:25.177Z</time>
      </trkpt>
      <trkpt lat="46.83972" lon="8.42314">
        <ele>1769</ele>
        <time>2021-08-13T08:24:26.176Z</time>
      </trkpt>
      <trkpt lat="46.83971" lon="8.42313">
        <ele>1769</ele>
        <time>2021-08-13T08:24:27.177Z</time>
      </trkpt>
      <trkpt lat="46.83969" lon="8.42313">
        <ele>1769</ele>
        <time>2021-08-13T08:24:28.177Z</time>
      </trkpt>
      <trkpt lat="46.83968" lon="8.42313">
        <ele>1768</ele>
        <time>2021-08-13T08:24:29.176Z</time>
      </trkpt>
      <trkpt lat="46.83966" lon="8.42312">
        <ele>1768</ele>
        <time>2021-08-13T08:24:30.177Z</time>
      </trkpt>
      <trkpt lat="46.83965" lon="8.42312">
        <ele>1768</ele>
        <time>2021-08-13T08:24:31.176Z</time>
      </trkpt>
      <trkpt lat="46.83963" lon="8.42311">
        <ele>1768</ele>
        <time>2021-08-13T08:24:32.176Z</time>
      </trkpt>
      <trkpt lat="46.83962" lon="8.42311">
        <ele>1767</ele>
        <time>2021-08-13T08:24:33.176Z</time>
      </trkpt>
      <trkpt lat="46.8396" lon="8.4231">
        <ele>1767</ele>
        <time>2021-08-13T08:24:34.176Z</time>
      </trkpt>
      <trkpt lat="46.83959" lon="8.4231">
        <ele>1767</ele>
        <time>2021-08-13T08:24:35.177Z</time>
      </trkpt>
      <trkpt lat="46.83958" lon="8.4231">
        <ele>1767</ele>
        <time>2021-08-13T08:24:36.176Z</time>
      </trkpt>
      <trkpt lat="46.83956" lon="8.4231">
        <ele>1766</ele>
        <time>2021-08-13T08:24:37.177Z</time>
      </trkpt>
      <trkpt lat="46.83955" lon="8.42309">
        <ele>1765</ele>
        <time>2021-08-13T08:24:38.176Z</time>
      </trkpt>
      <trkpt lat="46.83954" lon="8.42309">
        <ele>1764</ele>
        <time>2021-08-13T08:24:39.177Z</time>
      </trkpt>
      <trkpt lat="46.83953" lon="8.42309">
        <ele>1764</ele>
        <time>2021-08-13T08:24:40.177Z</time>
      </trkpt>
      <trkpt lat="46.83951" lon="8.42308">
        <ele>1763</ele>
        <time>2021-08-13T08:24:41.177Z</time>
      </trkpt>
      <trkpt lat="46.8395" lon="8.42309">
        <ele>1763</ele>
        <time>2021-08-13T08:24:42.177Z</time>
      </trkpt>
      <trkpt lat="46.83949" lon="8.42309">
        <ele>1762</ele>
        <time>2021-08-13T08:24:43.177Z</time>
      </trkpt>
      <trkpt lat="46.83948" lon="8.42309">
        <ele>1762</ele>
        <time>2021-08-13T08:24:44.176Z</time>
      </trkpt>
      <trkpt lat="46.83947" lon="8.42308">
        <ele>1761</ele>
        <time>2021-08-13T08:24:45.177Z</time>
      </trkpt>
      <trkpt lat="46.83946" lon="8.42309">
        <ele>1761</ele>
        <time>2021-08-13T08:24:46.177Z</time>
      </trkpt>
      <trkpt lat="46.83946" lon="8.42309">
        <ele>1760</ele>
        <time>2021-08-13T08:24:47.177Z</time>
      </trkpt>
      <trkpt lat="46.83946" lon="8.42309">
        <ele>1760</ele>
        <time>2021-08-13T08:24:48.177Z</time>
      </trkpt>
      <trkpt lat="46.83946" lon="8.42309">
        <ele>1759</ele>
        <time>2021-08-13T08:24:49.177Z</time>
      </trkpt>
      <trkpt lat="46.83945" lon="8.42309">
        <ele>1758</ele>
        <time>2021-08-13T08:24:50.176Z</time>
      </trkpt>
      <trkpt lat="46.83944" lon="8.42309">
        <ele>1758</ele>
        <time>2021-08-13T08:24:51.176Z</time>
      </trkpt>
      <trkpt lat="46.83943" lon="8.42309">
        <ele>1759</ele>
        <time>2021-08-13T08:24:52.176Z</time>
      </trkpt>
      <trkpt lat="46.83943" lon="8.42309">
        <ele>1758</ele>
        <time>2021-08-13T08:24:53.176Z</time>
      </trkpt>
      <trkpt lat="46.83943" lon="8.42309">
        <ele>1758</ele>
        <time>2021-08-13T08:24:54.176Z</time>
      </trkpt>
      <trkpt lat="46.83943" lon="8.4231">
        <ele>1757</ele>
        <time>2021-08-13T08:24:55.176Z</time>
      </trkpt>
      <trkpt lat="46.83942" lon="8.42307">
        <ele>1760</ele>
        <time>2021-08-13T08:24:56.176Z</time>
      </trkpt>
      <trkpt lat="46.83941" lon="8.42307">
        <ele>1760</ele>
        <time>2021-08-13T08:24:57.176Z</time>
      </trkpt>
      <trkpt lat="46.8394" lon="8.42307">
        <ele>1759</ele>
        <time>2021-08-13T08:24:58.177Z</time>
      </trkpt>
      <trkpt lat="46.8394" lon="8.42306">
        <ele>1758</ele>
        <time>2021-08-13T08:24:59.177Z</time>
      </trkpt>
      <trkpt lat="46.8394" lon="8.42306">
        <ele>1758</ele>
        <time>2021-08-13T08:25:00.176Z</time>
      </trkpt>
      <trkpt lat="46.83939" lon="8.42305">
        <ele>1758</ele>
        <time>2021-08-13T08:25:01.176Z</time>
      </trkpt>
      <trkpt lat="46.83939" lon="8.42305">
        <ele>1758</ele>
        <time>2021-08-13T08:25:02.176Z</time>
      </trkpt>
      <trkpt lat="46.83938" lon="8.42304">
        <ele>1757</ele>
        <time>2021-08-13T08:25:03.177Z</time>
      </trkpt>
      <trkpt lat="46.83937" lon="8.42303">
        <ele>1757</ele>
        <time>2021-08-13T08:25:04.177Z</time>
      </trkpt>
      <trkpt lat="46.83936" lon="8.42302">
        <ele>1757</ele>
        <time>2021-08-13T08:25:05.177Z</time>
      </trkpt>
      <trkpt lat="46.83934" lon="8.423">
        <ele>1757</ele>
        <time>2021-08-13T08:25:06.176Z</time>
      </trkpt>
      <trkpt lat="46.83933" lon="8.42299">
        <ele>1756</ele>
        <time>2021-08-13T08:25:07.177Z</time>
      </trkpt>
      <trkpt lat="46.83932" lon="8.42298">
        <ele>1756</ele>
        <time>2021-08-13T08:25:08.177Z</time>
      </trkpt>
      <trkpt lat="46.83932" lon="8.42296">
        <ele>1756</ele>
        <time>2021-08-13T08:25:09.176Z</time>
      </trkpt>
      <trkpt lat="46.83932" lon="8.42295">
        <ele>1755</ele>
        <time>2021-08-13T08:25:10.176Z</time>
      </trkpt>
      <trkpt lat="46.83931" lon="8.42294">
        <ele>1755</ele>
        <time>2021-08-13T08:25:11.177Z</time>
      </trkpt>
      <trkpt lat="46.83931" lon="8.42292">
        <ele>1755</ele>
        <time>2021-08-13T08:25:12.176Z</time>
      </trkpt>
      <trkpt lat="46.8393" lon="8.42291">
        <ele>1755</ele>
        <time>2021-08-13T08:25:13.176Z</time>
      </trkpt>
      <trkpt lat="46.8393" lon="8.42289">
        <ele>1754</ele>
        <time>2021-08-13T08:25:14.176Z</time>
      </trkpt>
      <trkpt lat="46.83929" lon="8.42287">
        <ele>1753</ele>
        <time>2021-08-13T08:25:15.176Z</time>
      </trkpt>
      <trkpt lat="46.83929" lon="8.42286">
        <ele>1752</ele>
        <time>2021-08-13T08:25:16.177Z</time>
      </trkpt>
      <trkpt lat="46.83929" lon="8.42284">
        <ele>1751</ele>
        <time>2021-08-13T08:25:17.177Z</time>
      </trkpt>
      <trkpt lat="46.83929" lon="8.42283">
        <ele>1751</ele>
        <time>2021-08-13T08:25:18.176Z</time>
      </trkpt>
      <trkpt lat="46.83929" lon="8.42281">
        <ele>1751</ele>
        <time>2021-08-13T08:25:19.176Z</time>
      </trkpt>
      <trkpt lat="46.8393" lon="8.4228">
        <ele>1751</ele>
        <time>2021-08-13T08:25:20.176Z</time>
      </trkpt>
      <trkpt lat="46.8393" lon="8.42279">
        <ele>1751</ele>
        <time>2021-08-13T08:25:21.176Z</time>
      </trkpt>
      <trkpt lat="46.83929" lon="8.42277">
        <ele>1751</ele>
        <time>2021-08-13T08:25:22.177Z</time>
      </trkpt>
      <trkpt lat="46.83929" lon="8.42276">
        <ele>1751</ele>
        <time>2021-08-13T08:25:23.177Z</time>
      </trkpt>
      <trkpt lat="46.83928" lon="8.42275">
        <ele>1751</ele>
        <time>2021-08-13T08:25:24.176Z</time>
      </trkpt>
      <trkpt lat="46.83927" lon="8.42274">
        <ele>1751</ele>
        <time>2021-08-13T08:25:25.176Z</time>
      </trkpt>
      <trkpt lat="46.83926" lon="8.42272">
        <ele>1750</ele>
        <time>2021-08-13T08:25:26.176Z</time>
      </trkpt>
      <trkpt lat="46.83925" lon="8.42271">
        <ele>1751</ele>
        <time>2021-08-13T08:25:27.177Z</time>
      </trkpt>
      <trkpt lat="46.83924" lon="8.4227">
        <ele>1751</ele>
        <time>2021-08-13T08:25:28.177Z</time>
      </trkpt>
      <trkpt lat="46.83923" lon="8.42269">
        <ele>1751</ele>
        <time>2021-08-13T08:25:29.176Z</time>
      </trkpt>
      <trkpt lat="46.83922" lon="8.42269">
        <ele>1751</ele>
        <time>2021-08-13T08:25:30.176Z</time>
      </trkpt>
      <trkpt lat="46.8392" lon="8.42267">
        <ele>1751</ele>
        <time>2021-08-13T08:25:31.176Z</time>
      </trkpt>
      <trkpt lat="46.83919" lon="8.42265">
        <ele>1752</ele>
        <time>2021-08-13T08:25:32.177Z</time>
      </trkpt>
      <trkpt lat="46.83918" lon="8.42265">
        <ele>1752</ele>
        <time>2021-08-13T08:25:33.177Z</time>
      </trkpt>
      <trkpt lat="46.83917" lon="8.42265">
        <ele>1752</ele>
        <time>2021-08-13T08:25:34.177Z</time>
      </trkpt>
      <trkpt lat="46.83916" lon="8.42264">
        <ele>1752</ele>
        <time>2021-08-13T08:25:35.176Z</time>
      </trkpt>
      <trkpt lat="46.83914" lon="8.42263">
        <ele>1752</ele>
        <time>2021-08-13T08:25:36.177Z</time>
      </trkpt>
      <trkpt lat="46.83913" lon="8.42263">
        <ele>1752</ele>
        <time>2021-08-13T08:25:37.177Z</time>
      </trkpt>
      <trkpt lat="46.83911" lon="8.42263">
        <ele>1752</ele>
        <time>2021-08-13T08:25:38.177Z</time>
      </trkpt>
      <trkpt lat="46.8391" lon="8.42262">
        <ele>1751</ele>
        <time>2021-08-13T08:25:39.176Z</time>
      </trkpt>
      <trkpt lat="46.83909" lon="8.42262">
        <ele>1751</ele>
        <time>2021-08-13T08:25:40.177Z</time>
      </trkpt>
      <trkpt lat="46.83907" lon="8.42262">
        <ele>1751</ele>
        <time>2021-08-13T08:25:41.177Z</time>
      </trkpt>
      <trkpt lat="46.83906" lon="8.42262">
        <ele>1750</ele>
        <time>2021-08-13T08:25:42.177Z</time>
      </trkpt>
      <trkpt lat="46.83905" lon="8.42262">
        <ele>1750</ele>
        <time>2021-08-13T08:25:43.177Z</time>
      </trkpt>
      <trkpt lat="46.83904" lon="8.42263">
        <ele>1750</ele>
        <time>2021-08-13T08:25:44.176Z</time>
      </trkpt>
      <trkpt lat="46.83903" lon="8.42263">
        <ele>1749</ele>
        <time>2021-08-13T08:25:45.177Z</time>
      </trkpt>
      <trkpt lat="46.83901" lon="8.42263">
        <ele>1749</ele>
        <time>2021-08-13T08:25:46.177Z</time>
      </trkpt>
      <trkpt lat="46.839" lon="8.42264">
        <ele>1749</ele>
        <time>2021-08-13T08:25:47.177Z</time>
      </trkpt>
      <trkpt lat="46.83899" lon="8.42264">
        <ele>1749</ele>
        <time>2021-08-13T08:25:48.177Z</time>
      </trkpt>
      <trkpt lat="46.83898" lon="8.42265">
        <ele>1749</ele>
        <time>2021-08-13T08:25:49.176Z</time>
      </trkpt>
      <trkpt lat="46.83897" lon="8.42266">
        <ele>1749</ele>
        <time>2021-08-13T08:25:50.176Z</time>
      </trkpt>
      <trkpt lat="46.83896" lon="8.42267">
        <ele>1749</ele>
        <time>2021-08-13T08:25:51.176Z</time>
      </trkpt>
      <trkpt lat="46.83896" lon="8.42268">
        <ele>1749</ele>
        <time>2021-08-13T08:25:52.176Z</time>
      </trkpt>
      <trkpt lat="46.83895" lon="8.4227">
        <ele>1748</ele>
        <time>2021-08-13T08:25:53.176Z</time>
      </trkpt>
      <trkpt lat="46.83895" lon="8.4227">
        <ele>1748</ele>
        <time>2021-08-13T08:25:54.176Z</time>
      </trkpt>
      <trkpt lat="46.83894" lon="8.4227">
        <ele>1748</ele>
        <time>2021-08-13T08:25:55.177Z</time>
      </trkpt>
      <trkpt lat="46.83893" lon="8.42271">
        <ele>1747</ele>
        <time>2021-08-13T08:25:56.177Z</time>
      </trkpt>
      <trkpt lat="46.83893" lon="8.42271">
        <ele>1747</ele>
        <time>2021-08-13T08:25:57.177Z</time>
      </trkpt>
      <trkpt lat="46.83892" lon="8.42272">
        <ele>1746</ele>
        <time>2021-08-13T08:25:58.176Z</time>
      </trkpt>
      <trkpt lat="46.83891" lon="8.42273">
        <ele>1746</ele>
        <time>2021-08-13T08:25:59.177Z</time>
      </trkpt>
      <trkpt lat="46.8389" lon="8.42274">
        <ele>1745</ele>
        <time>2021-08-13T08:26:00.176Z</time>
      </trkpt>
      <trkpt lat="46.83889" lon="8.42275">
        <ele>1745</ele>
        <time>2021-08-13T08:26:01.176Z</time>
      </trkpt>
      <trkpt lat="46.83889" lon="8.42276">
        <ele>1745</ele>
        <time>2021-08-13T08:26:02.176Z</time>
      </trkpt>
      <trkpt lat="46.83888" lon="8.42277">
        <ele>1745</ele>
        <time>2021-08-13T08:26:03.177Z</time>
      </trkpt>
      <trkpt lat="46.83887" lon="8.42278">
        <ele>1745</ele>
        <time>2021-08-13T08:26:04.176Z</time>
      </trkpt>
      <trkpt lat="46.83886" lon="8.42279">
        <ele>1745</ele>
        <time>2021-08-13T08:26:05.176Z</time>
      </trkpt>
      <trkpt lat="46.83884" lon="8.42279">
        <ele>1745</ele>
        <time>2021-08-13T08:26:06.177Z</time>
      </trkpt>
      <trkpt lat="46.83883" lon="8.42279">
        <ele>1745</ele>
        <time>2021-08-13T08:26:07.177Z</time>
      </trkpt>
      <trkpt lat="46.83882" lon="8.42279">
        <ele>1745</ele>
        <time>2021-08-13T08:26:08.177Z</time>
      </trkpt>
      <trkpt lat="46.83881" lon="8.42279">
        <ele>1745</ele>
        <time>2021-08-13T08:26:09.176Z</time>
      </trkpt>
      <trkpt lat="46.83879" lon="8.42278">
        <ele>1745</ele>
        <time>2021-08-13T08:26:10.177Z</time>
      </trkpt>
      <trkpt lat="46.83878" lon="8.42277">
        <ele>1745</ele>
        <time>2021-08-13T08:26:11.176Z</time>
      </trkpt>
      <trkpt lat="46.83878" lon="8.42277">
        <ele>1746</ele>
        <time>2021-08-13T08:26:12.176Z</time>
      </trkpt>
      <trkpt lat="46.83876" lon="8.42275">
        <ele>1746</ele>
        <time>2021-08-13T08:26:13.176Z</time>
      </trkpt>
      <trkpt lat="46.83876" lon="8.42274">
        <ele>1746</ele>
        <time>2021-08-13T08:26:14.176Z</time>
      </trkpt>
      <trkpt lat="46.83875" lon="8.42273">
        <ele>1746</ele>
        <time>2021-08-13T08:26:15.176Z</time>
      </trkpt>
      <trkpt lat="46.83874" lon="8.42272">
        <ele>1746</ele>
        <time>2021-08-13T08:26:16.176Z</time>
      </trkpt>
      <trkpt lat="46.83874" lon="8.42271">
        <ele>1746</ele>
        <time>2021-08-13T08:26:17.176Z</time>
      </trkpt>
      <trkpt lat="46.83873" lon="8.4227">
        <ele>1746</ele>
        <time>2021-08-13T08:26:18.176Z</time>
      </trkpt>
      <trkpt lat="46.83873" lon="8.42269">
        <ele>1746</ele>
        <time>2021-08-13T08:26:19.176Z</time>
      </trkpt>
      <trkpt lat="46.83872" lon="8.42268">
        <ele>1746</ele>
        <time>2021-08-13T08:26:20.176Z</time>
      </trkpt>
      <trkpt lat="46.83871" lon="8.42266">
        <ele>1746</ele>
        <time>2021-08-13T08:26:21.176Z</time>
      </trkpt>
      <trkpt lat="46.8387" lon="8.42265">
        <ele>1746</ele>
        <time>2021-08-13T08:26:22.177Z</time>
      </trkpt>
      <trkpt lat="46.83869" lon="8.42263">
        <ele>1745</ele>
        <time>2021-08-13T08:26:23.177Z</time>
      </trkpt>
      <trkpt lat="46.83868" lon="8.42262">
        <ele>1745</ele>
        <time>2021-08-13T08:26:24.176Z</time>
      </trkpt>
      <trkpt lat="46.83868" lon="8.42261">
        <ele>1745</ele>
        <time>2021-08-13T08:26:25.177Z</time>
      </trkpt>
      <trkpt lat="46.83867" lon="8.4226">
        <ele>1744</ele>
        <time>2021-08-13T08:26:26.177Z</time>
      </trkpt>
      <trkpt lat="46.83866" lon="8.42259">
        <ele>1743</ele>
        <time>2021-08-13T08:26:27.176Z</time>
      </trkpt>
      <trkpt lat="46.83865" lon="8.42258">
        <ele>1742</ele>
        <time>2021-08-13T08:26:28.176Z</time>
      </trkpt>
      <trkpt lat="46.83864" lon="8.42256">
        <ele>1742</ele>
        <time>2021-08-13T08:26:29.177Z</time>
      </trkpt>
      <trkpt lat="46.83864" lon="8.42255">
        <ele>1741</ele>
        <time>2021-08-13T08:26:30.176Z</time>
      </trkpt>
      <trkpt lat="46.83863" lon="8.42254">
        <ele>1741</ele>
        <time>2021-08-13T08:26:31.176Z</time>
      </trkpt>
      <trkpt lat="46.83863" lon="8.42253">
        <ele>1741</ele>
        <time>2021-08-13T08:26:32.177Z</time>
      </trkpt>
      <trkpt lat="46.83862" lon="8.42252">
        <ele>1741</ele>
        <time>2021-08-13T08:26:33.177Z</time>
      </trkpt>
      <trkpt lat="46.83862" lon="8.42251">
        <ele>1741</ele>
        <time>2021-08-13T08:26:34.177Z</time>
      </trkpt>
      <trkpt lat="46.83861" lon="8.4225">
        <ele>1741</ele>
        <time>2021-08-13T08:26:35.177Z</time>
      </trkpt>
      <trkpt lat="46.8386" lon="8.42249">
        <ele>1740</ele>
        <time>2021-08-13T08:26:36.177Z</time>
      </trkpt>
      <trkpt lat="46.8386" lon="8.42247">
        <ele>1740</ele>
        <time>2021-08-13T08:26:37.177Z</time>
      </trkpt>
      <trkpt lat="46.83859" lon="8.42246">
        <ele>1740</ele>
        <time>2021-08-13T08:26:38.177Z</time>
      </trkpt>
      <trkpt lat="46.83858" lon="8.42245">
        <ele>1740</ele>
        <time>2021-08-13T08:26:39.176Z</time>
      </trkpt>
      <trkpt lat="46.83857" lon="8.42244">
        <ele>1740</ele>
        <time>2021-08-13T08:26:40.177Z</time>
      </trkpt>
      <trkpt lat="46.83856" lon="8.42243">
        <ele>1740</ele>
        <time>2021-08-13T08:26:41.177Z</time>
      </trkpt>
      <trkpt lat="46.83855" lon="8.42242">
        <ele>1739</ele>
        <time>2021-08-13T08:26:42.177Z</time>
      </trkpt>
      <trkpt lat="46.83854" lon="8.42241">
        <ele>1739</ele>
        <time>2021-08-13T08:26:43.177Z</time>
      </trkpt>
      <trkpt lat="46.83853" lon="8.4224">
        <ele>1738</ele>
        <time>2021-08-13T08:26:44.176Z</time>
      </trkpt>
      <trkpt lat="46.83852" lon="8.42239">
        <ele>1737</ele>
        <time>2021-08-13T08:26:45.177Z</time>
      </trkpt>
      <trkpt lat="46.83851" lon="8.42238">
        <ele>1737</ele>
        <time>2021-08-13T08:26:46.176Z</time>
      </trkpt>
      <trkpt lat="46.8385" lon="8.42237">
        <ele>1737</ele>
        <time>2021-08-13T08:26:47.177Z</time>
      </trkpt>
      <trkpt lat="46.83849" lon="8.42236">
        <ele>1737</ele>
        <time>2021-08-13T08:26:48.177Z</time>
      </trkpt>
      <trkpt lat="46.83848" lon="8.42234">
        <ele>1737</ele>
        <time>2021-08-13T08:26:49.177Z</time>
      </trkpt>
      <trkpt lat="46.83847" lon="8.42233">
        <ele>1737</ele>
        <time>2021-08-13T08:26:50.176Z</time>
      </trkpt>
      <trkpt lat="46.83846" lon="8.42232">
        <ele>1737</ele>
        <time>2021-08-13T08:26:51.177Z</time>
      </trkpt>
      <trkpt lat="46.83846" lon="8.42231">
        <ele>1736</ele>
        <time>2021-08-13T08:26:52.176Z</time>
      </trkpt>
      <trkpt lat="46.83845" lon="8.42231">
        <ele>1736</ele>
        <time>2021-08-13T08:26:53.177Z</time>
      </trkpt>
      <trkpt lat="46.83844" lon="8.4223">
        <ele>1736</ele>
        <time>2021-08-13T08:26:54.177Z</time>
      </trkpt>
      <trkpt lat="46.83842" lon="8.42229">
        <ele>1736</ele>
        <time>2021-08-13T08:26:55.177Z</time>
      </trkpt>
      <trkpt lat="46.83841" lon="8.42228">
        <ele>1736</ele>
        <time>2021-08-13T08:26:56.176Z</time>
      </trkpt>
      <trkpt lat="46.8384" lon="8.42227">
        <ele>1736</ele>
        <time>2021-08-13T08:26:57.177Z</time>
      </trkpt>
      <trkpt lat="46.83839" lon="8.42226">
        <ele>1735</ele>
        <time>2021-08-13T08:26:58.176Z</time>
      </trkpt>
      <trkpt lat="46.83838" lon="8.42226">
        <ele>1734</ele>
        <time>2021-08-13T08:26:59.177Z</time>
      </trkpt>
      <trkpt lat="46.83838" lon="8.42225">
        <ele>1734</ele>
        <time>2021-08-13T08:27:00.176Z</time>
      </trkpt>
      <trkpt lat="46.83837" lon="8.42224">
        <ele>1734</ele>
        <time>2021-08-13T08:27:01.176Z</time>
      </trkpt>
      <trkpt lat="46.83836" lon="8.42222">
        <ele>1734</ele>
        <time>2021-08-13T08:27:02.177Z</time>
      </trkpt>
      <trkpt lat="46.83835" lon="8.42221">
        <ele>1734</ele>
        <time>2021-08-13T08:27:03.177Z</time>
      </trkpt>
      <trkpt lat="46.83834" lon="8.4222">
        <ele>1734</ele>
        <time>2021-08-13T08:27:04.177Z</time>
      </trkpt>
      <trkpt lat="46.83833" lon="8.42219">
        <ele>1734</ele>
        <time>2021-08-13T08:27:05.177Z</time>
      </trkpt>
      <trkpt lat="46.83832" lon="8.42218">
        <ele>1734</ele>
        <time>2021-08-13T08:27:06.177Z</time>
      </trkpt>
      <trkpt lat="46.83831" lon="8.42217">
        <ele>1734</ele>
        <time>2021-08-13T08:27:07.177Z</time>
      </trkpt>
      <trkpt lat="46.8383" lon="8.42216">
        <ele>1734</ele>
        <time>2021-08-13T08:27:08.177Z</time>
      </trkpt>
      <trkpt lat="46.83829" lon="8.42215">
        <ele>1734</ele>
        <time>2021-08-13T08:27:09.176Z</time>
      </trkpt>
      <trkpt lat="46.83828" lon="8.42214">
        <ele>1733</ele>
        <time>2021-08-13T08:27:10.177Z</time>
      </trkpt>
      <trkpt lat="46.83827" lon="8.42212">
        <ele>1733</ele>
        <time>2021-08-13T08:27:11.176Z</time>
      </trkpt>
      <trkpt lat="46.83826" lon="8.42211">
        <ele>1732</ele>
        <time>2021-08-13T08:27:12.176Z</time>
      </trkpt>
      <trkpt lat="46.83826" lon="8.4221">
        <ele>1732</ele>
        <time>2021-08-13T08:27:13.177Z</time>
      </trkpt>
      <trkpt lat="46.83825" lon="8.42208">
        <ele>1731</ele>
        <time>2021-08-13T08:27:14.177Z</time>
      </trkpt>
      <trkpt lat="46.83824" lon="8.42206">
        <ele>1731</ele>
        <time>2021-08-13T08:27:15.177Z</time>
      </trkpt>
      <trkpt lat="46.83823" lon="8.42205">
        <ele>1730</ele>
        <time>2021-08-13T08:27:16.176Z</time>
      </trkpt>
      <trkpt lat="46.83822" lon="8.42203">
        <ele>1730</ele>
        <time>2021-08-13T08:27:17.177Z</time>
      </trkpt>
      <trkpt lat="46.83822" lon="8.42202">
        <ele>1730</ele>
        <time>2021-08-13T08:27:18.177Z</time>
      </trkpt>
      <trkpt lat="46.83821" lon="8.422">
        <ele>1729</ele>
        <time>2021-08-13T08:27:19.176Z</time>
      </trkpt>
      <trkpt lat="46.83821" lon="8.42199">
        <ele>1729</ele>
        <time>2021-08-13T08:27:20.176Z</time>
      </trkpt>
      <trkpt lat="46.83821" lon="8.42197">
        <ele>1729</ele>
        <time>2021-08-13T08:27:21.177Z</time>
      </trkpt>
      <trkpt lat="46.83821" lon="8.42194">
        <ele>1729</ele>
        <time>2021-08-13T08:27:22.177Z</time>
      </trkpt>
      <trkpt lat="46.83821" lon="8.42193">
        <ele>1729</ele>
        <time>2021-08-13T08:27:23.177Z</time>
      </trkpt>
      <trkpt lat="46.83821" lon="8.42191">
        <ele>1729</ele>
        <time>2021-08-13T08:27:24.176Z</time>
      </trkpt>
      <trkpt lat="46.83821" lon="8.42189">
        <ele>1729</ele>
        <time>2021-08-13T08:27:25.176Z</time>
      </trkpt>
      <trkpt lat="46.83821" lon="8.42187">
        <ele>1729</ele>
        <time>2021-08-13T08:27:26.177Z</time>
      </trkpt>
      <trkpt lat="46.83822" lon="8.42186">
        <ele>1729</ele>
        <time>2021-08-13T08:27:27.177Z</time>
      </trkpt>
      <trkpt lat="46.83822" lon="8.42184">
        <ele>1729</ele>
        <time>2021-08-13T08:27:28.177Z</time>
      </trkpt>
      <trkpt lat="46.83823" lon="8.42182">
        <ele>1729</ele>
        <time>2021-08-13T08:27:29.176Z</time>
      </trkpt>
      <trkpt lat="46.83823" lon="8.4218">
        <ele>1729</ele>
        <time>2021-08-13T08:27:30.177Z</time>
      </trkpt>
      <trkpt lat="46.83823" lon="8.42179">
        <ele>1728</ele>
        <time>2021-08-13T08:27:31.176Z</time>
      </trkpt>
      <trkpt lat="46.83824" lon="8.42178">
        <ele>1728</ele>
        <time>2021-08-13T08:27:32.176Z</time>
      </trkpt>
      <trkpt lat="46.83824" lon="8.42176">
        <ele>1728</ele>
        <time>2021-08-13T08:27:33.177Z</time>
      </trkpt>
      <trkpt lat="46.83825" lon="8.42174">
        <ele>1727</ele>
        <time>2021-08-13T08:27:34.177Z</time>
      </trkpt>
      <trkpt lat="46.83825" lon="8.42173">
        <ele>1727</ele>
        <time>2021-08-13T08:27:35.176Z</time>
      </trkpt>
      <trkpt lat="46.83826" lon="8.4217">
        <ele>1727</ele>
        <time>2021-08-13T08:27:36.176Z</time>
      </trkpt>
      <trkpt lat="46.83827" lon="8.42169">
        <ele>1727</ele>
        <time>2021-08-13T08:27:37.177Z</time>
      </trkpt>
      <trkpt lat="46.83828" lon="8.42167">
        <ele>1727</ele>
        <time>2021-08-13T08:27:38.177Z</time>
      </trkpt>
      <trkpt lat="46.83829" lon="8.42165">
        <ele>1727</ele>
        <time>2021-08-13T08:27:39.176Z</time>
      </trkpt>
      <trkpt lat="46.83829" lon="8.42163">
        <ele>1726</ele>
        <time>2021-08-13T08:27:40.177Z</time>
      </trkpt>
      <trkpt lat="46.8383" lon="8.42162">
        <ele>1727</ele>
        <time>2021-08-13T08:27:41.177Z</time>
      </trkpt>
      <trkpt lat="46.8383" lon="8.4216">
        <ele>1727</ele>
        <time>2021-08-13T08:27:42.176Z</time>
      </trkpt>
      <trkpt lat="46.8383" lon="8.42158">
        <ele>1726</ele>
        <time>2021-08-13T08:27:43.177Z</time>
      </trkpt>
      <trkpt lat="46.8383" lon="8.42157">
        <ele>1726</ele>
        <time>2021-08-13T08:27:44.176Z</time>
      </trkpt>
      <trkpt lat="46.83829" lon="8.42155">
        <ele>1726</ele>
        <time>2021-08-13T08:27:45.177Z</time>
      </trkpt>
      <trkpt lat="46.83829" lon="8.42154">
        <ele>1726</ele>
        <time>2021-08-13T08:27:46.177Z</time>
      </trkpt>
      <trkpt lat="46.83829" lon="8.42153">
        <ele>1726</ele>
        <time>2021-08-13T08:27:47.176Z</time>
      </trkpt>
      <trkpt lat="46.83828" lon="8.42152">
        <ele>1725</ele>
        <time>2021-08-13T08:27:48.177Z</time>
      </trkpt>
      <trkpt lat="46.83826" lon="8.42151">
        <ele>1725</ele>
        <time>2021-08-13T08:27:49.177Z</time>
      </trkpt>
      <trkpt lat="46.83825" lon="8.4215">
        <ele>1724</ele>
        <time>2021-08-13T08:27:50.176Z</time>
      </trkpt>
      <trkpt lat="46.83824" lon="8.4215">
        <ele>1724</ele>
        <time>2021-08-13T08:27:51.177Z</time>
      </trkpt>
      <trkpt lat="46.83823" lon="8.4215">
        <ele>1723</ele>
        <time>2021-08-13T08:27:52.176Z</time>
      </trkpt>
      <trkpt lat="46.83824" lon="8.42152">
        <ele>1723</ele>
        <time>2021-08-13T08:27:53.177Z</time>
      </trkpt>
      <trkpt lat="46.83824" lon="8.42152">
        <ele>1723</ele>
        <time>2021-08-13T08:27:54.176Z</time>
      </trkpt>
      <trkpt lat="46.83824" lon="8.42152">
        <ele>1723</ele>
        <time>2021-08-13T08:27:55.176Z</time>
      </trkpt>
      <trkpt lat="46.83823" lon="8.4215">
        <ele>1723</ele>
        <time>2021-08-13T08:27:56.178Z</time>
      </trkpt>
      <trkpt lat="46.83824" lon="8.42149">
        <ele>1723</ele>
        <time>2021-08-13T08:27:57.178Z</time>
      </trkpt>
      <trkpt lat="46.83823" lon="8.42148">
        <ele>1724</ele>
        <time>2021-08-13T08:27:58.177Z</time>
      </trkpt>
      <trkpt lat="46.83823" lon="8.42148">
        <ele>1724</ele>
        <time>2021-08-13T08:27:59.178Z</time>
      </trkpt>
      <trkpt lat="46.83823" lon="8.42147">
        <ele>1724</ele>
        <time>2021-08-13T08:28:00.178Z</time>
      </trkpt>
      <trkpt lat="46.83823" lon="8.42147">
        <ele>1724</ele>
        <time>2021-08-13T08:28:01.178Z</time>
      </trkpt>
      <trkpt lat="46.83823" lon="8.42146">
        <ele>1724</ele>
        <time>2021-08-13T08:28:02.177Z</time>
      </trkpt>
      <trkpt lat="46.83823" lon="8.42145">
        <ele>1723</ele>
        <time>2021-08-13T08:28:03.178Z</time>
      </trkpt>
      <trkpt lat="46.83823" lon="8.42145">
        <ele>1723</ele>
        <time>2021-08-13T08:28:04.179Z</time>
      </trkpt>
      <trkpt lat="46.83823" lon="8.42145">
        <ele>1723</ele>
        <time>2021-08-13T08:28:05.178Z</time>
      </trkpt>
      <trkpt lat="46.83823" lon="8.42145">
        <ele>1723</ele>
        <time>2021-08-13T08:28:06.179Z</time>
      </trkpt>
      <trkpt lat="46.83822" lon="8.42144">
        <ele>1722</ele>
        <time>2021-08-13T08:28:07.179Z</time>
      </trkpt>
      <trkpt lat="46.83821" lon="8.42143">
        <ele>1721</ele>
        <time>2021-08-13T08:28:08.179Z</time>
      </trkpt>
      <trkpt lat="46.83821" lon="8.42142">
        <ele>1720</ele>
        <time>2021-08-13T08:28:09.179Z</time>
      </trkpt>
      <trkpt lat="46.8382" lon="8.42141">
        <ele>1720</ele>
        <time>2021-08-13T08:28:10.178Z</time>
      </trkpt>
      <trkpt lat="46.83819" lon="8.42141">
        <ele>1720</ele>
        <time>2021-08-13T08:28:11.179Z</time>
      </trkpt>
      <trkpt lat="46.83817" lon="8.42141">
        <ele>1719</ele>
        <time>2021-08-13T08:28:12.178Z</time>
      </trkpt>
      <trkpt lat="46.83816" lon="8.42141">
        <ele>1720</ele>
        <time>2021-08-13T08:28:13.178Z</time>
      </trkpt>
      <trkpt lat="46.83815" lon="8.4214">
        <ele>1720</ele>
        <time>2021-08-13T08:28:14.178Z</time>
      </trkpt>
      <trkpt lat="46.83814" lon="8.4214">
        <ele>1720</ele>
        <time>2021-08-13T08:28:15.179Z</time>
      </trkpt>
      <trkpt lat="46.83813" lon="8.4214">
        <ele>1721</ele>
        <time>2021-08-13T08:28:16.178Z</time>
      </trkpt>
      <trkpt lat="46.83812" lon="8.4214">
        <ele>1721</ele>
        <time>2021-08-13T08:28:17.179Z</time>
      </trkpt>
      <trkpt lat="46.8381" lon="8.4214">
        <ele>1721</ele>
        <time>2021-08-13T08:28:18.179Z</time>
      </trkpt>
      <trkpt lat="46.83809" lon="8.4214">
        <ele>1721</ele>
        <time>2021-08-13T08:28:19.179Z</time>
      </trkpt>
      <trkpt lat="46.83808" lon="8.42139">
        <ele>1721</ele>
        <time>2021-08-13T08:28:20.178Z</time>
      </trkpt>
      <trkpt lat="46.83807" lon="8.42139">
        <ele>1721</ele>
        <time>2021-08-13T08:28:21.178Z</time>
      </trkpt>
      <trkpt lat="46.83807" lon="8.42138">
        <ele>1721</ele>
        <time>2021-08-13T08:28:22.179Z</time>
      </trkpt>
      <trkpt lat="46.83805" lon="8.42137">
        <ele>1721</ele>
        <time>2021-08-13T08:28:23.178Z</time>
      </trkpt>
      <trkpt lat="46.83804" lon="8.42137">
        <ele>1721</ele>
        <time>2021-08-13T08:28:24.178Z</time>
      </trkpt>
      <trkpt lat="46.83803" lon="8.42138">
        <ele>1721</ele>
        <time>2021-08-13T08:28:25.178Z</time>
      </trkpt>
      <trkpt lat="46.83803" lon="8.42138">
        <ele>1720</ele>
        <time>2021-08-13T08:28:26.178Z</time>
      </trkpt>
      <trkpt lat="46.83802" lon="8.42138">
        <ele>1720</ele>
        <time>2021-08-13T08:28:27.178Z</time>
      </trkpt>
      <trkpt lat="46.83802" lon="8.42138">
        <ele>1720</ele>
        <time>2021-08-13T08:28:28.179Z</time>
      </trkpt>
      <trkpt lat="46.83801" lon="8.42138">
        <ele>1719</ele>
        <time>2021-08-13T08:28:29.178Z</time>
      </trkpt>
      <trkpt lat="46.838" lon="8.42137">
        <ele>1718</ele>
        <time>2021-08-13T08:28:30.179Z</time>
      </trkpt>
      <trkpt lat="46.838" lon="8.42136">
        <ele>1718</ele>
        <time>2021-08-13T08:28:31.179Z</time>
      </trkpt>
      <trkpt lat="46.83799" lon="8.42136">
        <ele>1718</ele>
        <time>2021-08-13T08:28:32.179Z</time>
      </trkpt>
      <trkpt lat="46.83799" lon="8.42136">
        <ele>1718</ele>
        <time>2021-08-13T08:28:33.179Z</time>
      </trkpt>
      <trkpt lat="46.83798" lon="8.42135">
        <ele>1718</ele>
        <time>2021-08-13T08:28:34.179Z</time>
      </trkpt>
      <trkpt lat="46.83799" lon="8.42135">
        <ele>1717</ele>
        <time>2021-08-13T08:28:35.179Z</time>
      </trkpt>
      <trkpt lat="46.83798" lon="8.42134">
        <ele>1717</ele>
        <time>2021-08-13T08:28:36.178Z</time>
      </trkpt>
      <trkpt lat="46.83797" lon="8.42133">
        <ele>1716</ele>
        <time>2021-08-13T08:28:37.179Z</time>
      </trkpt>
      <trkpt lat="46.83796" lon="8.42132">
        <ele>1716</ele>
        <time>2021-08-13T08:28:38.178Z</time>
      </trkpt>
      <trkpt lat="46.83796" lon="8.42132">
        <ele>1716</ele>
        <time>2021-08-13T08:28:39.179Z</time>
      </trkpt>
      <trkpt lat="46.83795" lon="8.42132">
        <ele>1715</ele>
        <time>2021-08-13T08:28:40.178Z</time>
      </trkpt>
      <trkpt lat="46.83795" lon="8.42131">
        <ele>1715</ele>
        <time>2021-08-13T08:28:41.179Z</time>
      </trkpt>
      <trkpt lat="46.83795" lon="8.42131">
        <ele>1715</ele>
        <time>2021-08-13T08:28:42.179Z</time>
      </trkpt>
      <trkpt lat="46.83795" lon="8.42131">
        <ele>1715</ele>
        <time>2021-08-13T08:28:43.179Z</time>
      </trkpt>
      <trkpt lat="46.83793" lon="8.4213">
        <ele>1713</ele>
        <time>2021-08-13T08:28:44.180Z</time>
      </trkpt>
      <trkpt lat="46.83792" lon="8.4213">
        <ele>1713</ele>
        <time>2021-08-13T08:28:45.180Z</time>
      </trkpt>
      <trkpt lat="46.83792" lon="8.42129">
        <ele>1712</ele>
        <time>2021-08-13T08:28:46.179Z</time>
      </trkpt>
      <trkpt lat="46.83791" lon="8.42128">
        <ele>1711</ele>
        <time>2021-08-13T08:28:47.180Z</time>
      </trkpt>
      <trkpt lat="46.8379" lon="8.42127">
        <ele>1711</ele>
        <time>2021-08-13T08:28:48.179Z</time>
      </trkpt>
      <trkpt lat="46.8379" lon="8.42127">
        <ele>1711</ele>
        <time>2021-08-13T08:28:49.179Z</time>
      </trkpt>
      <trkpt lat="46.83789" lon="8.42126">
        <ele>1711</ele>
        <time>2021-08-13T08:28:50.180Z</time>
      </trkpt>
      <trkpt lat="46.83788" lon="8.42125">
        <ele>1711</ele>
        <time>2021-08-13T08:28:51.180Z</time>
      </trkpt>
      <trkpt lat="46.83788" lon="8.42124">
        <ele>1711</ele>
        <time>2021-08-13T08:28:52.179Z</time>
      </trkpt>
      <trkpt lat="46.83787" lon="8.42124">
        <ele>1711</ele>
        <time>2021-08-13T08:28:53.180Z</time>
      </trkpt>
      <trkpt lat="46.83787" lon="8.42123">
        <ele>1712</ele>
        <time>2021-08-13T08:28:54.180Z</time>
      </trkpt>
      <trkpt lat="46.83787" lon="8.42123">
        <ele>1712</ele>
        <time>2021-08-13T08:28:55.179Z</time>
      </trkpt>
      <trkpt lat="46.83786" lon="8.42122">
        <ele>1712</ele>
        <time>2021-08-13T08:28:56.180Z</time>
      </trkpt>
      <trkpt lat="46.83786" lon="8.42122">
        <ele>1712</ele>
        <time>2021-08-13T08:28:57.180Z</time>
      </trkpt>
      <trkpt lat="46.83785" lon="8.42121">
        <ele>1712</ele>
        <time>2021-08-13T08:28:58.179Z</time>
      </trkpt>
      <trkpt lat="46.83785" lon="8.42121">
        <ele>1712</ele>
        <time>2021-08-13T08:28:59.180Z</time>
      </trkpt>
      <trkpt lat="46.83784" lon="8.42121">
        <ele>1711</ele>
        <time>2021-08-13T08:29:00.180Z</time>
      </trkpt>
      <trkpt lat="46.83784" lon="8.42121">
        <ele>1711</ele>
        <time>2021-08-13T08:29:01.180Z</time>
      </trkpt>
      <trkpt lat="46.83783" lon="8.42121">
        <ele>1711</ele>
        <time>2021-08-13T08:29:02.179Z</time>
      </trkpt>
      <trkpt lat="46.83783" lon="8.42122">
        <ele>1711</ele>
        <time>2021-08-13T08:29:03.179Z</time>
      </trkpt>
      <trkpt lat="46.83782" lon="8.42122">
        <ele>1710</ele>
        <time>2021-08-13T08:29:04.179Z</time>
      </trkpt>
      <trkpt lat="46.83782" lon="8.42122">
        <ele>1710</ele>
        <time>2021-08-13T08:29:05.179Z</time>
      </trkpt>
      <trkpt lat="46.83781" lon="8.42122">
        <ele>1710</ele>
        <time>2021-08-13T08:29:06.180Z</time>
      </trkpt>
      <trkpt lat="46.8378" lon="8.42122">
        <ele>1710</ele>
        <time>2021-08-13T08:29:07.180Z</time>
      </trkpt>
      <trkpt lat="46.8378" lon="8.42121">
        <ele>1710</ele>
        <time>2021-08-13T08:29:08.179Z</time>
      </trkpt>
      <trkpt lat="46.83779" lon="8.42121">
        <ele>1710</ele>
        <time>2021-08-13T08:29:09.180Z</time>
      </trkpt>
      <trkpt lat="46.83779" lon="8.4212">
        <ele>1710</ele>
        <time>2021-08-13T08:29:10.180Z</time>
      </trkpt>
      <trkpt lat="46.83778" lon="8.4212">
        <ele>1710</ele>
        <time>2021-08-13T08:29:11.180Z</time>
      </trkpt>
      <trkpt lat="46.83777" lon="8.4212">
        <ele>1711</ele>
        <time>2021-08-13T08:29:12.180Z</time>
      </trkpt>
      <trkpt lat="46.83776" lon="8.42119">
        <ele>1711</ele>
        <time>2021-08-13T08:29:13.180Z</time>
      </trkpt>
      <trkpt lat="46.83776" lon="8.42119">
        <ele>1711</ele>
        <time>2021-08-13T08:29:14.180Z</time>
      </trkpt>
      <trkpt lat="46.83775" lon="8.42118">
        <ele>1711</ele>
        <time>2021-08-13T08:29:15.179Z</time>
      </trkpt>
      <trkpt lat="46.83775" lon="8.42117">
        <ele>1711</ele>
        <time>2021-08-13T08:29:16.180Z</time>
      </trkpt>
      <trkpt lat="46.83774" lon="8.42116">
        <ele>1711</ele>
        <time>2021-08-13T08:29:17.180Z</time>
      </trkpt>
      <trkpt lat="46.83774" lon="8.42116">
        <ele>1710</ele>
        <time>2021-08-13T08:29:18.179Z</time>
      </trkpt>
      <trkpt lat="46.83773" lon="8.42115">
        <ele>1710</ele>
        <time>2021-08-13T08:29:19.179Z</time>
      </trkpt>
      <trkpt lat="46.83773" lon="8.42114">
        <ele>1709</ele>
        <time>2021-08-13T08:29:20.180Z</time>
      </trkpt>
      <trkpt lat="46.83773" lon="8.42114">
        <ele>1709</ele>
        <time>2021-08-13T08:29:21.179Z</time>
      </trkpt>
      <trkpt lat="46.83772" lon="8.42114">
        <ele>1708</ele>
        <time>2021-08-13T08:29:22.180Z</time>
      </trkpt>
      <trkpt lat="46.83772" lon="8.42114">
        <ele>1708</ele>
        <time>2021-08-13T08:29:23.180Z</time>
      </trkpt>
      <trkpt lat="46.83771" lon="8.42114">
        <ele>1708</ele>
        <time>2021-08-13T08:29:24.179Z</time>
      </trkpt>
      <trkpt lat="46.83771" lon="8.42114">
        <ele>1707</ele>
        <time>2021-08-13T08:29:25.180Z</time>
      </trkpt>
      <trkpt lat="46.8377" lon="8.42113">
        <ele>1707</ele>
        <time>2021-08-13T08:29:26.179Z</time>
      </trkpt>
      <trkpt lat="46.83769" lon="8.42113">
        <ele>1707</ele>
        <time>2021-08-13T08:29:27.179Z</time>
      </trkpt>
      <trkpt lat="46.83768" lon="8.42112">
        <ele>1706</ele>
        <time>2021-08-13T08:29:28.180Z</time>
      </trkpt>
      <trkpt lat="46.83768" lon="8.42111">
        <ele>1706</ele>
        <time>2021-08-13T08:29:29.180Z</time>
      </trkpt>
      <trkpt lat="46.83767" lon="8.42111">
        <ele>1705</ele>
        <time>2021-08-13T08:29:30.180Z</time>
      </trkpt>
      <trkpt lat="46.83766" lon="8.42111">
        <ele>1705</ele>
        <time>2021-08-13T08:29:31.180Z</time>
      </trkpt>
      <trkpt lat="46.83766" lon="8.42111">
        <ele>1704</ele>
        <time>2021-08-13T08:29:32.179Z</time>
      </trkpt>
      <trkpt lat="46.83765" lon="8.42111">
        <ele>1704</ele>
        <time>2021-08-13T08:29:33.180Z</time>
      </trkpt>
      <trkpt lat="46.83764" lon="8.4211">
        <ele>1704</ele>
        <time>2021-08-13T08:29:34.180Z</time>
      </trkpt>
      <trkpt lat="46.83763" lon="8.4211">
        <ele>1703</ele>
        <time>2021-08-13T08:29:35.180Z</time>
      </trkpt>
      <trkpt lat="46.83763" lon="8.42109">
        <ele>1702</ele>
        <time>2021-08-13T08:29:36.180Z</time>
      </trkpt>
      <trkpt lat="46.83762" lon="8.42109">
        <ele>1702</ele>
        <time>2021-08-13T08:29:37.180Z</time>
      </trkpt>
      <trkpt lat="46.83762" lon="8.42109">
        <ele>1702</ele>
        <time>2021-08-13T08:29:38.179Z</time>
      </trkpt>
      <trkpt lat="46.83761" lon="8.42108">
        <ele>1701</ele>
        <time>2021-08-13T08:29:39.180Z</time>
      </trkpt>
      <trkpt lat="46.83761" lon="8.42108">
        <ele>1701</ele>
        <time>2021-08-13T08:29:40.180Z</time>
      </trkpt>
      <trkpt lat="46.8376" lon="8.42108">
        <ele>1701</ele>
        <time>2021-08-13T08:29:41.180Z</time>
      </trkpt>
      <trkpt lat="46.8376" lon="8.42109">
        <ele>1701</ele>
        <time>2021-08-13T08:29:42.179Z</time>
      </trkpt>
      <trkpt lat="46.83759" lon="8.42109">
        <ele>1700</ele>
        <time>2021-08-13T08:29:43.180Z</time>
      </trkpt>
      <trkpt lat="46.83758" lon="8.42108">
        <ele>1700</ele>
        <time>2021-08-13T08:29:44.180Z</time>
      </trkpt>
      <trkpt lat="46.83758" lon="8.42108">
        <ele>1700</ele>
        <time>2021-08-13T08:29:45.179Z</time>
      </trkpt>
      <trkpt lat="46.83757" lon="8.42108">
        <ele>1700</ele>
        <time>2021-08-13T08:29:46.180Z</time>
      </trkpt>
      <trkpt lat="46.83756" lon="8.42108">
        <ele>1700</ele>
        <time>2021-08-13T08:29:47.180Z</time>
      </trkpt>
      <trkpt lat="46.83755" lon="8.42108">
        <ele>1700</ele>
        <time>2021-08-13T08:29:48.180Z</time>
      </trkpt>
      <trkpt lat="46.83755" lon="8.42108">
        <ele>1700</ele>
        <time>2021-08-13T08:29:49.179Z</time>
      </trkpt>
      <trkpt lat="46.83754" lon="8.42108">
        <ele>1699</ele>
        <time>2021-08-13T08:29:50.179Z</time>
      </trkpt>
      <trkpt lat="46.83754" lon="8.42108">
        <ele>1699</ele>
        <time>2021-08-13T08:29:51.179Z</time>
      </trkpt>
      <trkpt lat="46.83753" lon="8.42108">
        <ele>1700</ele>
        <time>2021-08-13T08:29:52.180Z</time>
      </trkpt>
      <trkpt lat="46.83754" lon="8.4211">
        <ele>1697</ele>
        <time>2021-08-13T08:29:53.180Z</time>
      </trkpt>
      <trkpt lat="46.83754" lon="8.42112">
        <ele>1697</ele>
        <time>2021-08-13T08:29:54.180Z</time>
      </trkpt>
      <trkpt lat="46.83754" lon="8.42113">
        <ele>1696</ele>
        <time>2021-08-13T08:29:55.179Z</time>
      </trkpt>
      <trkpt lat="46.83755" lon="8.42114">
        <ele>1697</ele>
        <time>2021-08-13T08:29:56.179Z</time>
      </trkpt>
      <trkpt lat="46.83755" lon="8.42115">
        <ele>1697</ele>
        <time>2021-08-13T08:29:57.180Z</time>
      </trkpt>
      <trkpt lat="46.83755" lon="8.42115">
        <ele>1697</ele>
        <time>2021-08-13T08:29:58.179Z</time>
      </trkpt>
      <trkpt lat="46.83755" lon="8.42116">
        <ele>1697</ele>
        <time>2021-08-13T08:29:59.180Z</time>
      </trkpt>
      <trkpt lat="46.83755" lon="8.42116">
        <ele>1697</ele>
        <time>2021-08-13T08:30:00.180Z</time>
      </trkpt>
      <trkpt lat="46.83754" lon="8.42117">
        <ele>1697</ele>
        <time>2021-08-13T08:30:01.180Z</time>
      </trkpt>
      <trkpt lat="46.83753" lon="8.42118">
        <ele>1699</ele>
        <time>2021-08-13T08:30:02.182Z</time>
      </trkpt>
      <trkpt lat="46.83752" lon="8.42117">
        <ele>1699</ele>
        <time>2021-08-13T08:30:03.181Z</time>
      </trkpt>
      <trkpt lat="46.83752" lon="8.42117">
        <ele>1699</ele>
        <time>2021-08-13T08:30:04.181Z</time>
      </trkpt>
      <trkpt lat="46.83752" lon="8.42117">
        <ele>1698</ele>
        <time>2021-08-13T08:30:05.181Z</time>
      </trkpt>
      <trkpt lat="46.83752" lon="8.42116">
        <ele>1698</ele>
        <time>2021-08-13T08:30:06.181Z</time>
      </trkpt>
      <trkpt lat="46.83752" lon="8.42116">
        <ele>1697</ele>
        <time>2021-08-13T08:30:07.181Z</time>
      </trkpt>
      <trkpt lat="46.83751" lon="8.42116">
        <ele>1697</ele>
        <time>2021-08-13T08:30:08.182Z</time>
      </trkpt>
      <trkpt lat="46.83751" lon="8.42115">
        <ele>1696</ele>
        <time>2021-08-13T08:30:09.181Z</time>
      </trkpt>
      <trkpt lat="46.8375" lon="8.42115">
        <ele>1696</ele>
        <time>2021-08-13T08:30:10.181Z</time>
      </trkpt>
      <trkpt lat="46.8375" lon="8.42114">
        <ele>1696</ele>
        <time>2021-08-13T08:30:11.182Z</time>
      </trkpt>
      <trkpt lat="46.83749" lon="8.42114">
        <ele>1695</ele>
        <time>2021-08-13T08:30:12.181Z</time>
      </trkpt>
      <trkpt lat="46.83749" lon="8.42114">
        <ele>1695</ele>
        <time>2021-08-13T08:30:13.182Z</time>
      </trkpt>
      <trkpt lat="46.83748" lon="8.42115">
        <ele>1694</ele>
        <time>2021-08-13T08:30:14.181Z</time>
      </trkpt>
      <trkpt lat="46.83748" lon="8.42114">
        <ele>1694</ele>
        <time>2021-08-13T08:30:15.182Z</time>
      </trkpt>
      <trkpt lat="46.83748" lon="8.42114">
        <ele>1693</ele>
        <time>2021-08-13T08:30:16.182Z</time>
      </trkpt>
      <trkpt lat="46.83747" lon="8.42113">
        <ele>1693</ele>
        <time>2021-08-13T08:30:17.181Z</time>
      </trkpt>
      <trkpt lat="46.83747" lon="8.42113">
        <ele>1693</ele>
        <time>2021-08-13T08:30:18.182Z</time>
      </trkpt>
      <trkpt lat="46.83746" lon="8.42112">
        <ele>1693</ele>
        <time>2021-08-13T08:30:19.182Z</time>
      </trkpt>
      <trkpt lat="46.83746" lon="8.42112">
        <ele>1692</ele>
        <time>2021-08-13T08:30:20.182Z</time>
      </trkpt>
      <trkpt lat="46.83746" lon="8.42112">
        <ele>1692</ele>
        <time>2021-08-13T08:30:21.181Z</time>
      </trkpt>
      <trkpt lat="46.83745" lon="8.42109">
        <ele>1688</ele>
        <time>2021-08-13T08:30:22.183Z</time>
      </trkpt>
      <trkpt lat="46.83745" lon="8.42109">
        <ele>1688</ele>
        <time>2021-08-13T08:30:23.183Z</time>
      </trkpt>
      <trkpt lat="46.83745" lon="8.4211">
        <ele>1688</ele>
        <time>2021-08-13T08:30:24.182Z</time>
      </trkpt>
      <trkpt lat="46.83744" lon="8.42111">
        <ele>1687</ele>
        <time>2021-08-13T08:30:25.182Z</time>
      </trkpt>
      <trkpt lat="46.83743" lon="8.42111">
        <ele>1687</ele>
        <time>2021-08-13T08:30:26.183Z</time>
      </trkpt>
      <trkpt lat="46.83742" lon="8.42111">
        <ele>1687</ele>
        <time>2021-08-13T08:30:27.182Z</time>
      </trkpt>
      <trkpt lat="46.83741" lon="8.42111">
        <ele>1687</ele>
        <time>2021-08-13T08:30:28.182Z</time>
      </trkpt>
      <trkpt lat="46.83741" lon="8.42111">
        <ele>1688</ele>
        <time>2021-08-13T08:30:29.182Z</time>
      </trkpt>
      <trkpt lat="46.83741" lon="8.42111">
        <ele>1688</ele>
        <time>2021-08-13T08:30:30.182Z</time>
      </trkpt>
      <trkpt lat="46.83741" lon="8.42111">
        <ele>1688</ele>
        <time>2021-08-13T08:30:31.182Z</time>
      </trkpt>
      <trkpt lat="46.83741" lon="8.42111">
        <ele>1688</ele>
        <time>2021-08-13T08:30:32.182Z</time>
      </trkpt>
      <trkpt lat="46.83741" lon="8.42111">
        <ele>1689</ele>
        <time>2021-08-13T08:30:33.184Z</time>
      </trkpt>
      <trkpt lat="46.8374" lon="8.4211">
        <ele>1689</ele>
        <time>2021-08-13T08:30:34.184Z</time>
      </trkpt>
      <trkpt lat="46.8374" lon="8.4211">
        <ele>1689</ele>
        <time>2021-08-13T08:30:35.183Z</time>
      </trkpt>
      <trkpt lat="46.8374" lon="8.42109">
        <ele>1689</ele>
        <time>2021-08-13T08:30:36.183Z</time>
      </trkpt>
      <trkpt lat="46.8374" lon="8.42108">
        <ele>1689</ele>
        <time>2021-08-13T08:30:37.184Z</time>
      </trkpt>
      <trkpt lat="46.8374" lon="8.42108">
        <ele>1688</ele>
        <time>2021-08-13T08:30:38.183Z</time>
      </trkpt>
      <trkpt lat="46.8374" lon="8.42108">
        <ele>1688</ele>
        <time>2021-08-13T08:30:39.183Z</time>
      </trkpt>
      <trkpt lat="46.83738" lon="8.4211">
        <ele>1691</ele>
        <time>2021-08-13T08:30:40.184Z</time>
      </trkpt>
      <trkpt lat="46.83738" lon="8.4211">
        <ele>1691</ele>
        <time>2021-08-13T08:30:41.184Z</time>
      </trkpt>
      <trkpt lat="46.83737" lon="8.4211">
        <ele>1691</ele>
        <time>2021-08-13T08:30:42.183Z</time>
      </trkpt>
      <trkpt lat="46.83736" lon="8.4211">
        <ele>1690</ele>
        <time>2021-08-13T08:30:43.183Z</time>
      </trkpt>
      <trkpt lat="46.83735" lon="8.42109">
        <ele>1690</ele>
        <time>2021-08-13T08:30:44.184Z</time>
      </trkpt>
      <trkpt lat="46.83734" lon="8.42108">
        <ele>1690</ele>
        <time>2021-08-13T08:30:45.184Z</time>
      </trkpt>
      <trkpt lat="46.83733" lon="8.42107">
        <ele>1690</ele>
        <time>2021-08-13T08:30:46.184Z</time>
      </trkpt>
      <trkpt lat="46.83732" lon="8.42106">
        <ele>1689</ele>
        <time>2021-08-13T08:30:47.184Z</time>
      </trkpt>
      <trkpt lat="46.83732" lon="8.42106">
        <ele>1689</ele>
        <time>2021-08-13T08:30:48.183Z</time>
      </trkpt>
      <trkpt lat="46.83731" lon="8.42105">
        <ele>1689</ele>
        <time>2021-08-13T08:30:49.184Z</time>
      </trkpt>
      <trkpt lat="46.8373" lon="8.42105">
        <ele>1689</ele>
        <time>2021-08-13T08:30:50.183Z</time>
      </trkpt>
      <trkpt lat="46.83729" lon="8.42105">
        <ele>1689</ele>
        <time>2021-08-13T08:30:51.183Z</time>
      </trkpt>
      <trkpt lat="46.83729" lon="8.42106">
        <ele>1689</ele>
        <time>2021-08-13T08:30:52.183Z</time>
      </trkpt>
      <trkpt lat="46.83728" lon="8.42106">
        <ele>1690</ele>
        <time>2021-08-13T08:30:53.183Z</time>
      </trkpt>
      <trkpt lat="46.83728" lon="8.42106">
        <ele>1689</ele>
        <time>2021-08-13T08:30:54.184Z</time>
      </trkpt>
      <trkpt lat="46.83727" lon="8.42107">
        <ele>1689</ele>
        <time>2021-08-13T08:30:55.184Z</time>
      </trkpt>
      <trkpt lat="46.83727" lon="8.42107">
        <ele>1689</ele>
        <time>2021-08-13T08:30:56.184Z</time>
      </trkpt>
      <trkpt lat="46.83728" lon="8.42107">
        <ele>1688</ele>
        <time>2021-08-13T08:30:57.184Z</time>
      </trkpt>
      <trkpt lat="46.83728" lon="8.42108">
        <ele>1688</ele>
        <time>2021-08-13T08:30:58.184Z</time>
      </trkpt>
      <trkpt lat="46.83727" lon="8.42107">
        <ele>1688</ele>
        <time>2021-08-13T08:30:59.184Z</time>
      </trkpt>
      <trkpt lat="46.83726" lon="8.42106">
        <ele>1688</ele>
        <time>2021-08-13T08:31:00.183Z</time>
      </trkpt>
      <trkpt lat="46.83725" lon="8.42105">
        <ele>1689</ele>
        <time>2021-08-13T08:31:01.184Z</time>
      </trkpt>
      <trkpt lat="46.83723" lon="8.42104">
        <ele>1689</ele>
        <time>2021-08-13T08:31:02.183Z</time>
      </trkpt>
      <trkpt lat="46.83722" lon="8.42103">
        <ele>1689</ele>
        <time>2021-08-13T08:31:03.184Z</time>
      </trkpt>
      <trkpt lat="46.83721" lon="8.42102">
        <ele>1689</ele>
        <time>2021-08-13T08:31:04.184Z</time>
      </trkpt>
      <trkpt lat="46.83719" lon="8.42101">
        <ele>1689</ele>
        <time>2021-08-13T08:31:05.184Z</time>
      </trkpt>
      <trkpt lat="46.83718" lon="8.421">
        <ele>1689</ele>
        <time>2021-08-13T08:31:06.184Z</time>
      </trkpt>
      <trkpt lat="46.83717" lon="8.421">
        <ele>1689</ele>
        <time>2021-08-13T08:31:07.183Z</time>
      </trkpt>
      <trkpt lat="46.83716" lon="8.421">
        <ele>1689</ele>
        <time>2021-08-13T08:31:08.184Z</time>
      </trkpt>
      <trkpt lat="46.83715" lon="8.42101">
        <ele>1689</ele>
        <time>2021-08-13T08:31:09.184Z</time>
      </trkpt>
      <trkpt lat="46.83714" lon="8.42102">
        <ele>1689</ele>
        <time>2021-08-13T08:31:10.184Z</time>
      </trkpt>
      <trkpt lat="46.83714" lon="8.42103">
        <ele>1689</ele>
        <time>2021-08-13T08:31:11.184Z</time>
      </trkpt>
      <trkpt lat="46.83713" lon="8.42104">
        <ele>1688</ele>
        <time>2021-08-13T08:31:12.183Z</time>
      </trkpt>
      <trkpt lat="46.83712" lon="8.42104">
        <ele>1688</ele>
        <time>2021-08-13T08:31:13.184Z</time>
      </trkpt>
      <trkpt lat="46.83711" lon="8.42104">
        <ele>1688</ele>
        <time>2021-08-13T08:31:14.184Z</time>
      </trkpt>
      <trkpt lat="46.8371" lon="8.42104">
        <ele>1688</ele>
        <time>2021-08-13T08:31:15.184Z</time>
      </trkpt>
      <trkpt lat="46.83709" lon="8.42105">
        <ele>1688</ele>
        <time>2021-08-13T08:31:16.183Z</time>
      </trkpt>
      <trkpt lat="46.83707" lon="8.42106">
        <ele>1688</ele>
        <time>2021-08-13T08:31:17.184Z</time>
      </trkpt>
      <trkpt lat="46.83706" lon="8.42107">
        <ele>1688</ele>
        <time>2021-08-13T08:31:18.184Z</time>
      </trkpt>
      <trkpt lat="46.83705" lon="8.42107">
        <ele>1687</ele>
        <time>2021-08-13T08:31:19.184Z</time>
      </trkpt>
      <trkpt lat="46.83704" lon="8.42108">
        <ele>1687</ele>
        <time>2021-08-13T08:31:20.184Z</time>
      </trkpt>
      <trkpt lat="46.83703" lon="8.42109">
        <ele>1686</ele>
        <time>2021-08-13T08:31:21.184Z</time>
      </trkpt>
      <trkpt lat="46.83702" lon="8.42109">
        <ele>1686</ele>
        <time>2021-08-13T08:31:22.183Z</time>
      </trkpt>
      <trkpt lat="46.83701" lon="8.4211">
        <ele>1685</ele>
        <time>2021-08-13T08:31:23.184Z</time>
      </trkpt>
      <trkpt lat="46.837" lon="8.4211">
        <ele>1685</ele>
        <time>2021-08-13T08:31:24.184Z</time>
      </trkpt>
      <trkpt lat="46.837" lon="8.42111">
        <ele>1684</ele>
        <time>2021-08-13T08:31:25.184Z</time>
      </trkpt>
      <trkpt lat="46.83699" lon="8.42112">
        <ele>1684</ele>
        <time>2021-08-13T08:31:26.184Z</time>
      </trkpt>
      <trkpt lat="46.83699" lon="8.42113">
        <ele>1684</ele>
        <time>2021-08-13T08:31:27.184Z</time>
      </trkpt>
      <trkpt lat="46.83698" lon="8.42114">
        <ele>1684</ele>
        <time>2021-08-13T08:31:28.184Z</time>
      </trkpt>
      <trkpt lat="46.83697" lon="8.42115">
        <ele>1683</ele>
        <time>2021-08-13T08:31:29.183Z</time>
      </trkpt>
      <trkpt lat="46.83697" lon="8.42116">
        <ele>1683</ele>
        <time>2021-08-13T08:31:30.183Z</time>
      </trkpt>
      <trkpt lat="46.83696" lon="8.42116">
        <ele>1682</ele>
        <time>2021-08-13T08:31:31.184Z</time>
      </trkpt>
      <trkpt lat="46.83696" lon="8.42117">
        <ele>1682</ele>
        <time>2021-08-13T08:31:32.183Z</time>
      </trkpt>
      <trkpt lat="46.83696" lon="8.42118">
        <ele>1682</ele>
        <time>2021-08-13T08:31:33.183Z</time>
      </trkpt>
      <trkpt lat="46.83695" lon="8.42118">
        <ele>1681</ele>
        <time>2021-08-13T08:31:34.183Z</time>
      </trkpt>
      <trkpt lat="46.83695" lon="8.42119">
        <ele>1681</ele>
        <time>2021-08-13T08:31:35.184Z</time>
      </trkpt>
      <trkpt lat="46.83695" lon="8.4212">
        <ele>1681</ele>
        <time>2021-08-13T08:31:36.183Z</time>
      </trkpt>
      <trkpt lat="46.83694" lon="8.4212">
        <ele>1681</ele>
        <time>2021-08-13T08:31:37.183Z</time>
      </trkpt>
      <trkpt lat="46.83694" lon="8.42121">
        <ele>1680</ele>
        <time>2021-08-13T08:31:38.183Z</time>
      </trkpt>
      <trkpt lat="46.83694" lon="8.42122">
        <ele>1679</ele>
        <time>2021-08-13T08:31:39.184Z</time>
      </trkpt>
      <trkpt lat="46.83694" lon="8.42123">
        <ele>1679</ele>
        <time>2021-08-13T08:31:40.183Z</time>
      </trkpt>
      <trkpt lat="46.83693" lon="8.42124">
        <ele>1679</ele>
        <time>2021-08-13T08:31:41.184Z</time>
      </trkpt>
      <trkpt lat="46.83693" lon="8.42125">
        <ele>1678</ele>
        <time>2021-08-13T08:31:42.183Z</time>
      </trkpt>
      <trkpt lat="46.83693" lon="8.42126">
        <ele>1678</ele>
        <time>2021-08-13T08:31:43.183Z</time>
      </trkpt>
      <trkpt lat="46.83693" lon="8.42127">
        <ele>1678</ele>
        <time>2021-08-13T08:31:44.183Z</time>
      </trkpt>
      <trkpt lat="46.83692" lon="8.42128">
        <ele>1677</ele>
        <time>2021-08-13T08:31:45.184Z</time>
      </trkpt>
      <trkpt lat="46.83692" lon="8.42129">
        <ele>1677</ele>
        <time>2021-08-13T08:31:46.184Z</time>
      </trkpt>
      <trkpt lat="46.83692" lon="8.4213">
        <ele>1676</ele>
        <time>2021-08-13T08:31:47.183Z</time>
      </trkpt>
      <trkpt lat="46.83692" lon="8.42131">
        <ele>1676</ele>
        <time>2021-08-13T08:31:48.184Z</time>
      </trkpt>
      <trkpt lat="46.83692" lon="8.42131">
        <ele>1676</ele>
        <time>2021-08-13T08:31:49.184Z</time>
      </trkpt>
      <trkpt lat="46.83691" lon="8.42132">
        <ele>1676</ele>
        <time>2021-08-13T08:31:50.184Z</time>
      </trkpt>
      <trkpt lat="46.83691" lon="8.42132">
        <ele>1676</ele>
        <time>2021-08-13T08:31:51.184Z</time>
      </trkpt>
      <trkpt lat="46.83691" lon="8.42134">
        <ele>1677</ele>
        <time>2021-08-13T08:31:52.183Z</time>
      </trkpt>
      <trkpt lat="46.83691" lon="8.42134">
        <ele>1677</ele>
        <time>2021-08-13T08:31:53.184Z</time>
      </trkpt>
      <trkpt lat="46.8369" lon="8.42135">
        <ele>1677</ele>
        <time>2021-08-13T08:31:54.183Z</time>
      </trkpt>
      <trkpt lat="46.8369" lon="8.42136">
        <ele>1676</ele>
        <time>2021-08-13T08:31:55.184Z</time>
      </trkpt>
      <trkpt lat="46.8369" lon="8.42136">
        <ele>1676</ele>
        <time>2021-08-13T08:31:56.183Z</time>
      </trkpt>
      <trkpt lat="46.83689" lon="8.42136">
        <ele>1675</ele>
        <time>2021-08-13T08:31:57.184Z</time>
      </trkpt>
      <trkpt lat="46.83688" lon="8.42136">
        <ele>1675</ele>
        <time>2021-08-13T08:31:58.184Z</time>
      </trkpt>
      <trkpt lat="46.83687" lon="8.42136">
        <ele>1675</ele>
        <time>2021-08-13T08:31:59.184Z</time>
      </trkpt>
      <trkpt lat="46.83686" lon="8.42136">
        <ele>1675</ele>
        <time>2021-08-13T08:32:00.184Z</time>
      </trkpt>
      <trkpt lat="46.83685" lon="8.42135">
        <ele>1675</ele>
        <time>2021-08-13T08:32:01.184Z</time>
      </trkpt>
      <trkpt lat="46.83683" lon="8.42134">
        <ele>1675</ele>
        <time>2021-08-13T08:32:02.184Z</time>
      </trkpt>
      <trkpt lat="46.83683" lon="8.42135">
        <ele>1676</ele>
        <time>2021-08-13T08:32:03.184Z</time>
      </trkpt>
      <trkpt lat="46.83682" lon="8.42135">
        <ele>1676</ele>
        <time>2021-08-13T08:32:04.184Z</time>
      </trkpt>
      <trkpt lat="46.83681" lon="8.42136">
        <ele>1676</ele>
        <time>2021-08-13T08:32:05.183Z</time>
      </trkpt>
      <trkpt lat="46.8368" lon="8.42136">
        <ele>1676</ele>
        <time>2021-08-13T08:32:06.184Z</time>
      </trkpt>
      <trkpt lat="46.8368" lon="8.42136">
        <ele>1676</ele>
        <time>2021-08-13T08:32:07.184Z</time>
      </trkpt>
      <trkpt lat="46.83679" lon="8.42136">
        <ele>1676</ele>
        <time>2021-08-13T08:32:08.184Z</time>
      </trkpt>
      <trkpt lat="46.83679" lon="8.42136">
        <ele>1676</ele>
        <time>2021-08-13T08:32:09.184Z</time>
      </trkpt>
      <trkpt lat="46.83678" lon="8.42135">
        <ele>1676</ele>
        <time>2021-08-13T08:32:10.184Z</time>
      </trkpt>
      <trkpt lat="46.83677" lon="8.42133">
        <ele>1676</ele>
        <time>2021-08-13T08:32:11.183Z</time>
      </trkpt>
      <trkpt lat="46.83676" lon="8.42132">
        <ele>1675</ele>
        <time>2021-08-13T08:32:12.184Z</time>
      </trkpt>
      <trkpt lat="46.83675" lon="8.42131">
        <ele>1675</ele>
        <time>2021-08-13T08:32:13.183Z</time>
      </trkpt>
      <trkpt lat="46.83674" lon="8.4213">
        <ele>1674</ele>
        <time>2021-08-13T08:32:14.183Z</time>
      </trkpt>
      <trkpt lat="46.83674" lon="8.42131">
        <ele>1674</ele>
        <time>2021-08-13T08:32:15.184Z</time>
      </trkpt>
      <trkpt lat="46.83673" lon="8.42132">
        <ele>1673</ele>
        <time>2021-08-13T08:32:16.183Z</time>
      </trkpt>
      <trkpt lat="46.83673" lon="8.42133">
        <ele>1673</ele>
        <time>2021-08-13T08:32:17.183Z</time>
      </trkpt>
      <trkpt lat="46.83673" lon="8.42134">
        <ele>1673</ele>
        <time>2021-08-13T08:32:18.184Z</time>
      </trkpt>
      <trkpt lat="46.83672" lon="8.42135">
        <ele>1673</ele>
        <time>2021-08-13T08:32:19.184Z</time>
      </trkpt>
      <trkpt lat="46.83672" lon="8.42136">
        <ele>1672</ele>
        <time>2021-08-13T08:32:20.183Z</time>
      </trkpt>
      <trkpt lat="46.83671" lon="8.42137">
        <ele>1672</ele>
        <time>2021-08-13T08:32:21.183Z</time>
      </trkpt>
      <trkpt lat="46.83671" lon="8.42138">
        <ele>1672</ele>
        <time>2021-08-13T08:32:22.184Z</time>
      </trkpt>
      <trkpt lat="46.83671" lon="8.42139">
        <ele>1671</ele>
        <time>2021-08-13T08:32:23.183Z</time>
      </trkpt>
      <trkpt lat="46.83671" lon="8.4214">
        <ele>1671</ele>
        <time>2021-08-13T08:32:24.183Z</time>
      </trkpt>
      <trkpt lat="46.83671" lon="8.42141">
        <ele>1670</ele>
        <time>2021-08-13T08:32:25.183Z</time>
      </trkpt>
      <trkpt lat="46.83671" lon="8.42141">
        <ele>1669</ele>
        <time>2021-08-13T08:32:26.184Z</time>
      </trkpt>
      <trkpt lat="46.83671" lon="8.42142">
        <ele>1669</ele>
        <time>2021-08-13T08:32:27.183Z</time>
      </trkpt>
      <trkpt lat="46.8367" lon="8.42147">
        <ele>1668</ele>
        <time>2021-08-13T08:32:28.185Z</time>
      </trkpt>
      <trkpt lat="46.8367" lon="8.42147">
        <ele>1668</ele>
        <time>2021-08-13T08:32:29.184Z</time>
      </trkpt>
      <trkpt lat="46.8367" lon="8.42148">
        <ele>1669</ele>
        <time>2021-08-13T08:32:30.184Z</time>
      </trkpt>
      <trkpt lat="46.83671" lon="8.42148">
        <ele>1665</ele>
        <time>2021-08-13T08:32:31.185Z</time>
      </trkpt>
      <trkpt lat="46.83672" lon="8.42147">
        <ele>1665</ele>
        <time>2021-08-13T08:32:32.184Z</time>
      </trkpt>
      <trkpt lat="46.83672" lon="8.42147">
        <ele>1664</ele>
        <time>2021-08-13T08:32:33.184Z</time>
      </trkpt>
      <trkpt lat="46.83672" lon="8.42147">
        <ele>1664</ele>
        <time>2021-08-13T08:32:34.184Z</time>
      </trkpt>
      <trkpt lat="46.83674" lon="8.42146">
        <ele>1663</ele>
        <time>2021-08-13T08:32:35.186Z</time>
      </trkpt>
      <trkpt lat="46.83674" lon="8.42146">
        <ele>1663</ele>
        <time>2021-08-13T08:32:36.186Z</time>
      </trkpt>
      <trkpt lat="46.83673" lon="8.42147">
        <ele>1663</ele>
        <time>2021-08-13T08:32:37.186Z</time>
      </trkpt>
      <trkpt lat="46.83673" lon="8.42147">
        <ele>1664</ele>
        <time>2021-08-13T08:32:38.186Z</time>
      </trkpt>
      <trkpt lat="46.83673" lon="8.42147">
        <ele>1664</ele>
        <time>2021-08-13T08:32:39.186Z</time>
      </trkpt>
      <trkpt lat="46.83672" lon="8.42147">
        <ele>1664</ele>
        <time>2021-08-13T08:32:40.185Z</time>
      </trkpt>
      <trkpt lat="46.83671" lon="8.42148">
        <ele>1666</ele>
        <time>2021-08-13T08:32:41.185Z</time>
      </trkpt>
      <trkpt lat="46.8367" lon="8.42148">
        <ele>1665</ele>
        <time>2021-08-13T08:32:42.185Z</time>
      </trkpt>
      <trkpt lat="46.8367" lon="8.42149">
        <ele>1665</ele>
        <time>2021-08-13T08:32:43.185Z</time>
      </trkpt>
      <trkpt lat="46.83669" lon="8.4215">
        <ele>1664</ele>
        <time>2021-08-13T08:32:44.185Z</time>
      </trkpt>
      <trkpt lat="46.83669" lon="8.4215">
        <ele>1664</ele>
        <time>2021-08-13T08:32:45.185Z</time>
      </trkpt>
      <trkpt lat="46.83668" lon="8.4215">
        <ele>1664</ele>
        <time>2021-08-13T08:32:46.185Z</time>
      </trkpt>
      <trkpt lat="46.83668" lon="8.4215">
        <ele>1664</ele>
        <time>2021-08-13T08:32:47.185Z</time>
      </trkpt>
      <trkpt lat="46.83668" lon="8.42151">
        <ele>1663</ele>
        <time>2021-08-13T08:32:48.186Z</time>
      </trkpt>
      <trkpt lat="46.83668" lon="8.42151">
        <ele>1662</ele>
        <time>2021-08-13T08:32:49.186Z</time>
      </trkpt>
      <trkpt lat="46.83668" lon="8.42151">
        <ele>1662</ele>
        <time>2021-08-13T08:32:50.186Z</time>
      </trkpt>
      <trkpt lat="46.83668" lon="8.42151">
        <ele>1662</ele>
        <time>2021-08-13T08:32:51.185Z</time>
      </trkpt>
      <trkpt lat="46.83668" lon="8.42151">
        <ele>1662</ele>
        <time>2021-08-13T08:32:52.186Z</time>
      </trkpt>
      <trkpt lat="46.83668" lon="8.42151">
        <ele>1661</ele>
        <time>2021-08-13T08:32:53.186Z</time>
      </trkpt>
      <trkpt lat="46.83667" lon="8.42151">
        <ele>1664</ele>
        <time>2021-08-13T08:32:54.188Z</time>
      </trkpt>
      <trkpt lat="46.83667" lon="8.42151">
        <ele>1664</ele>
        <time>2021-08-13T08:32:55.187Z</time>
      </trkpt>
      <trkpt lat="46.83666" lon="8.42153">
        <ele>1660</ele>
        <time>2021-08-13T08:32:56.188Z</time>
      </trkpt>
      <trkpt lat="46.83666" lon="8.42153">
        <ele>1660</ele>
        <time>2021-08-13T08:32:57.187Z</time>
      </trkpt>
      <trkpt lat="46.83667" lon="8.42153">
        <ele>1660</ele>
        <time>2021-08-13T08:32:58.187Z</time>
      </trkpt>
      <trkpt lat="46.83667" lon="8.42152">
        <ele>1660</ele>
        <time>2021-08-13T08:32:59.187Z</time>
      </trkpt>
      <trkpt lat="46.83667" lon="8.42152">
        <ele>1660</ele>
        <time>2021-08-13T08:33:00.187Z</time>
      </trkpt>
      <trkpt lat="46.83666" lon="8.42154">
        <ele>1658</ele>
        <time>2021-08-13T08:33:01.187Z</time>
      </trkpt>
      <trkpt lat="46.83668" lon="8.42152">
        <ele>1658</ele>
        <time>2021-08-13T08:33:02.188Z</time>
      </trkpt>
      <trkpt lat="46.83668" lon="8.4215">
        <ele>1664</ele>
        <time>2021-08-13T08:33:03.189Z</time>
      </trkpt>
      <trkpt lat="46.83668" lon="8.4215">
        <ele>1665</ele>
        <time>2021-08-13T08:33:04.189Z</time>
      </trkpt>
      <trkpt lat="46.83667" lon="8.4215">
        <ele>1665</ele>
        <time>2021-08-13T08:33:05.188Z</time>
      </trkpt>
      <trkpt lat="46.83667" lon="8.42149">
        <ele>1666</ele>
        <time>2021-08-13T08:33:06.189Z</time>
      </trkpt>
      <trkpt lat="46.83666" lon="8.42149">
        <ele>1666</ele>
        <time>2021-08-13T08:33:07.189Z</time>
      </trkpt>
      <trkpt lat="46.83666" lon="8.4215">
        <ele>1666</ele>
        <time>2021-08-13T08:33:08.189Z</time>
      </trkpt>
      <trkpt lat="46.83666" lon="8.4215">
        <ele>1666</ele>
        <time>2021-08-13T08:33:09.189Z</time>
      </trkpt>
      <trkpt lat="46.83665" lon="8.4215">
        <ele>1666</ele>
        <time>2021-08-13T08:33:10.189Z</time>
      </trkpt>
      <trkpt lat="46.83665" lon="8.42151">
        <ele>1666</ele>
        <time>2021-08-13T08:33:11.189Z</time>
      </trkpt>
      <trkpt lat="46.83664" lon="8.42151">
        <ele>1665</ele>
        <time>2021-08-13T08:33:12.188Z</time>
      </trkpt>
      <trkpt lat="46.83664" lon="8.42151">
        <ele>1665</ele>
        <time>2021-08-13T08:33:13.188Z</time>
      </trkpt>
      <trkpt lat="46.83663" lon="8.42151">
        <ele>1664</ele>
        <time>2021-08-13T08:33:14.189Z</time>
      </trkpt>
      <trkpt lat="46.83662" lon="8.42152">
        <ele>1664</ele>
        <time>2021-08-13T08:33:15.188Z</time>
      </trkpt>
      <trkpt lat="46.83661" lon="8.42152">
        <ele>1663</ele>
        <time>2021-08-13T08:33:16.188Z</time>
      </trkpt>
      <trkpt lat="46.83661" lon="8.42153">
        <ele>1663</ele>
        <time>2021-08-13T08:33:17.189Z</time>
      </trkpt>
      <trkpt lat="46.8366" lon="8.42154">
        <ele>1662</ele>
        <time>2021-08-13T08:33:18.189Z</time>
      </trkpt>
      <trkpt lat="46.8366" lon="8.42156">
        <ele>1662</ele>
        <time>2021-08-13T08:33:19.188Z</time>
      </trkpt>
      <trkpt lat="46.83659" lon="8.42157">
        <ele>1661</ele>
        <time>2021-08-13T08:33:20.189Z</time>
      </trkpt>
      <trkpt lat="46.83659" lon="8.42158">
        <ele>1661</ele>
        <time>2021-08-13T08:33:21.189Z</time>
      </trkpt>
      <trkpt lat="46.83658" lon="8.4216">
        <ele>1661</ele>
        <time>2021-08-13T08:33:22.188Z</time>
      </trkpt>
      <trkpt lat="46.83658" lon="8.42161">
        <ele>1661</ele>
        <time>2021-08-13T08:33:23.188Z</time>
      </trkpt>
      <trkpt lat="46.83657" lon="8.42161">
        <ele>1661</ele>
        <time>2021-08-13T08:33:24.189Z</time>
      </trkpt>
      <trkpt lat="46.83657" lon="8.42162">
        <ele>1660</ele>
        <time>2021-08-13T08:33:25.188Z</time>
      </trkpt>
      <trkpt lat="46.83656" lon="8.42163">
        <ele>1660</ele>
        <time>2021-08-13T08:33:26.188Z</time>
      </trkpt>
      <trkpt lat="46.83655" lon="8.42163">
        <ele>1660</ele>
        <time>2021-08-13T08:33:27.188Z</time>
      </trkpt>
      <trkpt lat="46.83655" lon="8.42164">
        <ele>1660</ele>
        <time>2021-08-13T08:33:28.189Z</time>
      </trkpt>
      <trkpt lat="46.83654" lon="8.42165">
        <ele>1659</ele>
        <time>2021-08-13T08:33:29.189Z</time>
      </trkpt>
      <trkpt lat="46.83653" lon="8.42166">
        <ele>1659</ele>
        <time>2021-08-13T08:33:30.189Z</time>
      </trkpt>
      <trkpt lat="46.83653" lon="8.42167">
        <ele>1659</ele>
        <time>2021-08-13T08:33:31.188Z</time>
      </trkpt>
      <trkpt lat="46.83653" lon="8.42168">
        <ele>1658</ele>
        <time>2021-08-13T08:33:32.189Z</time>
      </trkpt>
      <trkpt lat="46.83652" lon="8.4217">
        <ele>1658</ele>
        <time>2021-08-13T08:33:33.188Z</time>
      </trkpt>
      <trkpt lat="46.83652" lon="8.4217">
        <ele>1658</ele>
        <time>2021-08-13T08:33:34.189Z</time>
      </trkpt>
      <trkpt lat="46.83652" lon="8.42172">
        <ele>1658</ele>
        <time>2021-08-13T08:33:35.189Z</time>
      </trkpt>
      <trkpt lat="46.83652" lon="8.42173">
        <ele>1658</ele>
        <time>2021-08-13T08:33:36.189Z</time>
      </trkpt>
      <trkpt lat="46.83652" lon="8.42173">
        <ele>1659</ele>
        <time>2021-08-13T08:33:37.189Z</time>
      </trkpt>
      <trkpt lat="46.83651" lon="8.42173">
        <ele>1659</ele>
        <time>2021-08-13T08:33:38.188Z</time>
      </trkpt>
      <trkpt lat="46.83651" lon="8.42174">
        <ele>1659</ele>
        <time>2021-08-13T08:33:39.189Z</time>
      </trkpt>
      <trkpt lat="46.83651" lon="8.42174">
        <ele>1659</ele>
        <time>2021-08-13T08:33:40.189Z</time>
      </trkpt>
      <trkpt lat="46.83651" lon="8.42174">
        <ele>1659</ele>
        <time>2021-08-13T08:33:41.189Z</time>
      </trkpt>
      <trkpt lat="46.8365" lon="8.42173">
        <ele>1659</ele>
        <time>2021-08-13T08:33:42.188Z</time>
      </trkpt>
      <trkpt lat="46.8365" lon="8.42172">
        <ele>1660</ele>
        <time>2021-08-13T08:33:43.189Z</time>
      </trkpt>
      <trkpt lat="46.83649" lon="8.4217">
        <ele>1660</ele>
        <time>2021-08-13T08:33:44.188Z</time>
      </trkpt>
      <trkpt lat="46.83648" lon="8.42169">
        <ele>1660</ele>
        <time>2021-08-13T08:33:45.188Z</time>
      </trkpt>
      <trkpt lat="46.83647" lon="8.42168">
        <ele>1660</ele>
        <time>2021-08-13T08:33:46.189Z</time>
      </trkpt>
      <trkpt lat="46.83646" lon="8.42168">
        <ele>1660</ele>
        <time>2021-08-13T08:33:47.188Z</time>
      </trkpt>
      <trkpt lat="46.83646" lon="8.42168">
        <ele>1660</ele>
        <time>2021-08-13T08:33:48.189Z</time>
      </trkpt>
      <trkpt lat="46.83645" lon="8.42168">
        <ele>1660</ele>
        <time>2021-08-13T08:33:49.189Z</time>
      </trkpt>
      <trkpt lat="46.83645" lon="8.42167">
        <ele>1659</ele>
        <time>2021-08-13T08:33:50.189Z</time>
      </trkpt>
      <trkpt lat="46.83645" lon="8.42166">
        <ele>1659</ele>
        <time>2021-08-13T08:33:51.189Z</time>
      </trkpt>
      <trkpt lat="46.83644" lon="8.42165">
        <ele>1659</ele>
        <time>2021-08-13T08:33:52.189Z</time>
      </trkpt>
      <trkpt lat="46.83644" lon="8.42164">
        <ele>1658</ele>
        <time>2021-08-13T08:33:53.189Z</time>
      </trkpt>
      <trkpt lat="46.83643" lon="8.42163">
        <ele>1658</ele>
        <time>2021-08-13T08:33:54.189Z</time>
      </trkpt>
      <trkpt lat="46.83643" lon="8.42162">
        <ele>1657</ele>
        <time>2021-08-13T08:33:55.189Z</time>
      </trkpt>
      <trkpt lat="46.83643" lon="8.42163">
        <ele>1657</ele>
        <time>2021-08-13T08:33:56.189Z</time>
      </trkpt>
      <trkpt lat="46.83644" lon="8.42162">
        <ele>1656</ele>
        <time>2021-08-13T08:33:57.188Z</time>
      </trkpt>
      <trkpt lat="46.83644" lon="8.42161">
        <ele>1656</ele>
        <time>2021-08-13T08:33:58.189Z</time>
      </trkpt>
      <trkpt lat="46.83644" lon="8.4216">
        <ele>1655</ele>
        <time>2021-08-13T08:33:59.189Z</time>
      </trkpt>
      <trkpt lat="46.83644" lon="8.4216">
        <ele>1655</ele>
        <time>2021-08-13T08:34:00.188Z</time>
      </trkpt>
      <trkpt lat="46.83644" lon="8.42158">
        <ele>1654</ele>
        <time>2021-08-13T08:34:01.189Z</time>
      </trkpt>
      <trkpt lat="46.83644" lon="8.42157">
        <ele>1654</ele>
        <time>2021-08-13T08:34:02.188Z</time>
      </trkpt>
      <trkpt lat="46.83645" lon="8.42157">
        <ele>1654</ele>
        <time>2021-08-13T08:34:03.189Z</time>
      </trkpt>
      <trkpt lat="46.83645" lon="8.42155">
        <ele>1655</ele>
        <time>2021-08-13T08:34:04.188Z</time>
      </trkpt>
      <trkpt lat="46.83645" lon="8.42154">
        <ele>1655</ele>
        <time>2021-08-13T08:34:05.189Z</time>
      </trkpt>
      <trkpt lat="46.83644" lon="8.42153">
        <ele>1656</ele>
        <time>2021-08-13T08:34:06.188Z</time>
      </trkpt>
      <trkpt lat="46.83643" lon="8.42152">
        <ele>1655</ele>
        <time>2021-08-13T08:34:07.188Z</time>
      </trkpt>
      <trkpt lat="46.83641" lon="8.42152">
        <ele>1655</ele>
        <time>2021-08-13T08:34:08.189Z</time>
      </trkpt>
      <trkpt lat="46.8364" lon="8.42152">
        <ele>1655</ele>
        <time>2021-08-13T08:34:09.189Z</time>
      </trkpt>
      <trkpt lat="46.8364" lon="8.42152">
        <ele>1655</ele>
        <time>2021-08-13T08:34:10.188Z</time>
      </trkpt>
      <trkpt lat="46.83638" lon="8.42152">
        <ele>1655</ele>
        <time>2021-08-13T08:34:11.189Z</time>
      </trkpt>
      <trkpt lat="46.83637" lon="8.42151">
        <ele>1655</ele>
        <time>2021-08-13T08:34:12.189Z</time>
      </trkpt>
      <trkpt lat="46.83636" lon="8.42151">
        <ele>1655</ele>
        <time>2021-08-13T08:34:13.188Z</time>
      </trkpt>
      <trkpt lat="46.83636" lon="8.42151">
        <ele>1654</ele>
        <time>2021-08-13T08:34:14.189Z</time>
      </trkpt>
      <trkpt lat="46.83636" lon="8.42151">
        <ele>1654</ele>
        <time>2021-08-13T08:34:15.188Z</time>
      </trkpt>
      <trkpt lat="46.83636" lon="8.42152">
        <ele>1653</ele>
        <time>2021-08-13T08:34:16.189Z</time>
      </trkpt>
      <trkpt lat="46.83635" lon="8.42152">
        <ele>1653</ele>
        <time>2021-08-13T08:34:17.188Z</time>
      </trkpt>
      <trkpt lat="46.83635" lon="8.42151">
        <ele>1652</ele>
        <time>2021-08-13T08:34:18.188Z</time>
      </trkpt>
      <trkpt lat="46.83635" lon="8.42151">
        <ele>1652</ele>
        <time>2021-08-13T08:34:19.188Z</time>
      </trkpt>
      <trkpt lat="46.83635" lon="8.42151">
        <ele>1652</ele>
        <time>2021-08-13T08:34:20.189Z</time>
      </trkpt>
      <trkpt lat="46.83635" lon="8.4215">
        <ele>1651</ele>
        <time>2021-08-13T08:34:21.189Z</time>
      </trkpt>
      <trkpt lat="46.83635" lon="8.42149">
        <ele>1651</ele>
        <time>2021-08-13T08:34:22.189Z</time>
      </trkpt>
      <trkpt lat="46.83635" lon="8.42147">
        <ele>1651</ele>
        <time>2021-08-13T08:34:23.189Z</time>
      </trkpt>
      <trkpt lat="46.83635" lon="8.42146">
        <ele>1652</ele>
        <time>2021-08-13T08:34:24.189Z</time>
      </trkpt>
      <trkpt lat="46.83636" lon="8.42145">
        <ele>1651</ele>
        <time>2021-08-13T08:34:25.189Z</time>
      </trkpt>
      <trkpt lat="46.83637" lon="8.42144">
        <ele>1651</ele>
        <time>2021-08-13T08:34:26.189Z</time>
      </trkpt>
      <trkpt lat="46.83637" lon="8.42143">
        <ele>1651</ele>
        <time>2021-08-13T08:34:27.188Z</time>
      </trkpt>
      <trkpt lat="46.83637" lon="8.42142">
        <ele>1651</ele>
        <time>2021-08-13T08:34:28.188Z</time>
      </trkpt>
      <trkpt lat="46.83638" lon="8.42142">
        <ele>1651</ele>
        <time>2021-08-13T08:34:29.189Z</time>
      </trkpt>
      <trkpt lat="46.83638" lon="8.42141">
        <ele>1650</ele>
        <time>2021-08-13T08:34:30.188Z</time>
      </trkpt>
      <trkpt lat="46.83638" lon="8.4214">
        <ele>1650</ele>
        <time>2021-08-13T08:34:31.189Z</time>
      </trkpt>
      <trkpt lat="46.83637" lon="8.42139">
        <ele>1650</ele>
        <time>2021-08-13T08:34:32.188Z</time>
      </trkpt>
      <trkpt lat="46.83636" lon="8.42139">
        <ele>1650</ele>
        <time>2021-08-13T08:34:33.189Z</time>
      </trkpt>
      <trkpt lat="46.83635" lon="8.42138">
        <ele>1650</ele>
        <time>2021-08-13T08:34:34.188Z</time>
      </trkpt>
      <trkpt lat="46.83635" lon="8.42138">
        <ele>1649</ele>
        <time>2021-08-13T08:34:35.189Z</time>
      </trkpt>
      <trkpt lat="46.83635" lon="8.42137">
        <ele>1649</ele>
        <time>2021-08-13T08:34:36.189Z</time>
      </trkpt>
      <trkpt lat="46.83635" lon="8.42137">
        <ele>1649</ele>
        <time>2021-08-13T08:34:37.189Z</time>
      </trkpt>
      <trkpt lat="46.83635" lon="8.42136">
        <ele>1648</ele>
        <time>2021-08-13T08:34:38.189Z</time>
      </trkpt>
      <trkpt lat="46.83634" lon="8.42136">
        <ele>1648</ele>
        <time>2021-08-13T08:34:39.188Z</time>
      </trkpt>
      <trkpt lat="46.83634" lon="8.42135">
        <ele>1648</ele>
        <time>2021-08-13T08:34:40.188Z</time>
      </trkpt>
      <trkpt lat="46.83633" lon="8.42134">
        <ele>1647</ele>
        <time>2021-08-13T08:34:41.189Z</time>
      </trkpt>
      <trkpt lat="46.83632" lon="8.42133">
        <ele>1647</ele>
        <time>2021-08-13T08:34:42.189Z</time>
      </trkpt>
      <trkpt lat="46.83632" lon="8.42132">
        <ele>1647</ele>
        <time>2021-08-13T08:34:43.189Z</time>
      </trkpt>
      <trkpt lat="46.83631" lon="8.42132">
        <ele>1646</ele>
        <time>2021-08-13T08:34:44.188Z</time>
      </trkpt>
      <trkpt lat="46.8363" lon="8.42131">
        <ele>1645</ele>
        <time>2021-08-13T08:34:45.189Z</time>
      </trkpt>
      <trkpt lat="46.8363" lon="8.4213">
        <ele>1645</ele>
        <time>2021-08-13T08:34:46.189Z</time>
      </trkpt>
      <trkpt lat="46.83628" lon="8.42129">
        <ele>1645</ele>
        <time>2021-08-13T08:34:47.188Z</time>
      </trkpt>
      <trkpt lat="46.83627" lon="8.42129">
        <ele>1644</ele>
        <time>2021-08-13T08:34:48.188Z</time>
      </trkpt>
      <trkpt lat="46.83626" lon="8.42129">
        <ele>1643</ele>
        <time>2021-08-13T08:34:49.189Z</time>
      </trkpt>
      <trkpt lat="46.83626" lon="8.42129">
        <ele>1642</ele>
        <time>2021-08-13T08:34:50.188Z</time>
      </trkpt>
      <trkpt lat="46.83625" lon="8.42129">
        <ele>1641</ele>
        <time>2021-08-13T08:34:51.188Z</time>
      </trkpt>
      <trkpt lat="46.83625" lon="8.42128">
        <ele>1641</ele>
        <time>2021-08-13T08:34:52.189Z</time>
      </trkpt>
      <trkpt lat="46.83624" lon="8.42128">
        <ele>1640</ele>
        <time>2021-08-13T08:34:53.189Z</time>
      </trkpt>
      <trkpt lat="46.83623" lon="8.42127">
        <ele>1639</ele>
        <time>2021-08-13T08:34:54.189Z</time>
      </trkpt>
      <trkpt lat="46.83622" lon="8.42127">
        <ele>1639</ele>
        <time>2021-08-13T08:34:55.189Z</time>
      </trkpt>
      <trkpt lat="46.83622" lon="8.42127">
        <ele>1638</ele>
        <time>2021-08-13T08:34:56.189Z</time>
      </trkpt>
      <trkpt lat="46.83621" lon="8.42127">
        <ele>1637</ele>
        <time>2021-08-13T08:34:57.188Z</time>
      </trkpt>
      <trkpt lat="46.83621" lon="8.42126">
        <ele>1637</ele>
        <time>2021-08-13T08:34:58.189Z</time>
      </trkpt>
      <trkpt lat="46.83621" lon="8.42126">
        <ele>1636</ele>
        <time>2021-08-13T08:34:59.189Z</time>
      </trkpt>
      <trkpt lat="46.83621" lon="8.42126">
        <ele>1635</ele>
        <time>2021-08-13T08:35:00.189Z</time>
      </trkpt>
      <trkpt lat="46.83621" lon="8.42126">
        <ele>1635</ele>
        <time>2021-08-13T08:35:01.188Z</time>
      </trkpt>
      <trkpt lat="46.83621" lon="8.42126">
        <ele>1635</ele>
        <time>2021-08-13T08:35:02.188Z</time>
      </trkpt>
      <trkpt lat="46.83621" lon="8.42126">
        <ele>1635</ele>
        <time>2021-08-13T08:35:03.189Z</time>
      </trkpt>
      <trkpt lat="46.8362" lon="8.42125">
        <ele>1634</ele>
        <time>2021-08-13T08:35:04.189Z</time>
      </trkpt>
      <trkpt lat="46.8362" lon="8.42125">
        <ele>1634</ele>
        <time>2021-08-13T08:35:05.188Z</time>
      </trkpt>
      <trkpt lat="46.83619" lon="8.42124">
        <ele>1634</ele>
        <time>2021-08-13T08:35:06.188Z</time>
      </trkpt>
      <trkpt lat="46.83618" lon="8.42123">
        <ele>1633</ele>
        <time>2021-08-13T08:35:07.188Z</time>
      </trkpt>
      <trkpt lat="46.83617" lon="8.42122">
        <ele>1633</ele>
        <time>2021-08-13T08:35:08.189Z</time>
      </trkpt>
      <trkpt lat="46.83616" lon="8.42121">
        <ele>1632</ele>
        <time>2021-08-13T08:35:09.189Z</time>
      </trkpt>
      <trkpt lat="46.83615" lon="8.4212">
        <ele>1632</ele>
        <time>2021-08-13T08:35:10.189Z</time>
      </trkpt>
      <trkpt lat="46.83614" lon="8.42119">
        <ele>1632</ele>
        <time>2021-08-13T08:35:11.188Z</time>
      </trkpt>
      <trkpt lat="46.83614" lon="8.42119">
        <ele>1631</ele>
        <time>2021-08-13T08:35:12.188Z</time>
      </trkpt>
      <trkpt lat="46.83613" lon="8.42117">
        <ele>1631</ele>
        <time>2021-08-13T08:35:13.189Z</time>
      </trkpt>
      <trkpt lat="46.83612" lon="8.42117">
        <ele>1631</ele>
        <time>2021-08-13T08:35:14.189Z</time>
      </trkpt>
      <trkpt lat="46.83611" lon="8.42116">
        <ele>1631</ele>
        <time>2021-08-13T08:35:15.189Z</time>
      </trkpt>
      <trkpt lat="46.8361" lon="8.42116">
        <ele>1630</ele>
        <time>2021-08-13T08:35:16.188Z</time>
      </trkpt>
      <trkpt lat="46.83609" lon="8.42116">
        <ele>1630</ele>
        <time>2021-08-13T08:35:17.188Z</time>
      </trkpt>
      <trkpt lat="46.83608" lon="8.42116">
        <ele>1630</ele>
        <time>2021-08-13T08:35:18.188Z</time>
      </trkpt>
      <trkpt lat="46.83608" lon="8.42116">
        <ele>1630</ele>
        <time>2021-08-13T08:35:19.189Z</time>
      </trkpt>
      <trkpt lat="46.83607" lon="8.42116">
        <ele>1630</ele>
        <time>2021-08-13T08:35:20.188Z</time>
      </trkpt>
      <trkpt lat="46.83606" lon="8.42115">
        <ele>1629</ele>
        <time>2021-08-13T08:35:21.188Z</time>
      </trkpt>
      <trkpt lat="46.83606" lon="8.42114">
        <ele>1629</ele>
        <time>2021-08-13T08:35:22.188Z</time>
      </trkpt>
      <trkpt lat="46.83605" lon="8.42114">
        <ele>1628</ele>
        <time>2021-08-13T08:35:23.188Z</time>
      </trkpt>
      <trkpt lat="46.83605" lon="8.42113">
        <ele>1627</ele>
        <time>2021-08-13T08:35:24.189Z</time>
      </trkpt>
      <trkpt lat="46.83604" lon="8.42113">
        <ele>1626</ele>
        <time>2021-08-13T08:35:25.188Z</time>
      </trkpt>
      <trkpt lat="46.83603" lon="8.42112">
        <ele>1626</ele>
        <time>2021-08-13T08:35:26.188Z</time>
      </trkpt>
      <trkpt lat="46.83603" lon="8.42112">
        <ele>1626</ele>
        <time>2021-08-13T08:35:27.188Z</time>
      </trkpt>
      <trkpt lat="46.83603" lon="8.42112">
        <ele>1626</ele>
        <time>2021-08-13T08:35:28.189Z</time>
      </trkpt>
      <trkpt lat="46.83603" lon="8.42113">
        <ele>1625</ele>
        <time>2021-08-13T08:35:29.189Z</time>
      </trkpt>
      <trkpt lat="46.83603" lon="8.42114">
        <ele>1624</ele>
        <time>2021-08-13T08:35:30.189Z</time>
      </trkpt>
      <trkpt lat="46.83604" lon="8.42115">
        <ele>1623</ele>
        <time>2021-08-13T08:35:31.188Z</time>
      </trkpt>
      <trkpt lat="46.83605" lon="8.42116">
        <ele>1626</ele>
        <time>2021-08-13T08:35:32.189Z</time>
      </trkpt>
      <trkpt lat="46.83605" lon="8.42117">
        <ele>1626</ele>
        <time>2021-08-13T08:35:33.189Z</time>
      </trkpt>
      <trkpt lat="46.83605" lon="8.42118">
        <ele>1627</ele>
        <time>2021-08-13T08:35:34.188Z</time>
      </trkpt>
      <trkpt lat="46.83604" lon="8.42118">
        <ele>1627</ele>
        <time>2021-08-13T08:35:35.188Z</time>
      </trkpt>
      <trkpt lat="46.83604" lon="8.42118">
        <ele>1627</ele>
        <time>2021-08-13T08:35:36.188Z</time>
      </trkpt>
      <trkpt lat="46.83604" lon="8.42118">
        <ele>1627</ele>
        <time>2021-08-13T08:35:37.188Z</time>
      </trkpt>
      <trkpt lat="46.83604" lon="8.42118">
        <ele>1627</ele>
        <time>2021-08-13T08:35:38.188Z</time>
      </trkpt>
      <trkpt lat="46.83604" lon="8.42119">
        <ele>1627</ele>
        <time>2021-08-13T08:35:39.188Z</time>
      </trkpt>
      <trkpt lat="46.83603" lon="8.42115">
        <ele>1626</ele>
        <time>2021-08-13T08:35:40.190Z</time>
      </trkpt>
      <trkpt lat="46.83602" lon="8.42114">
        <ele>1626</ele>
        <time>2021-08-13T08:35:41.190Z</time>
      </trkpt>
      <trkpt lat="46.83601" lon="8.42114">
        <ele>1626</ele>
        <time>2021-08-13T08:35:42.189Z</time>
      </trkpt>
      <trkpt lat="46.836" lon="8.42114">
        <ele>1626</ele>
        <time>2021-08-13T08:35:43.190Z</time>
      </trkpt>
      <trkpt lat="46.83599" lon="8.42113">
        <ele>1626</ele>
        <time>2021-08-13T08:35:44.189Z</time>
      </trkpt>
      <trkpt lat="46.83599" lon="8.42112">
        <ele>1626</ele>
        <time>2021-08-13T08:35:45.189Z</time>
      </trkpt>
      <trkpt lat="46.83598" lon="8.42112">
        <ele>1626</ele>
        <time>2021-08-13T08:35:46.189Z</time>
      </trkpt>
      <trkpt lat="46.83597" lon="8.42112">
        <ele>1626</ele>
        <time>2021-08-13T08:35:47.189Z</time>
      </trkpt>
      <trkpt lat="46.83596" lon="8.42111">
        <ele>1626</ele>
        <time>2021-08-13T08:35:48.189Z</time>
      </trkpt>
      <trkpt lat="46.83595" lon="8.4211">
        <ele>1626</ele>
        <time>2021-08-13T08:35:49.189Z</time>
      </trkpt>
      <trkpt lat="46.83594" lon="8.4211">
        <ele>1626</ele>
        <time>2021-08-13T08:35:50.190Z</time>
      </trkpt>
      <trkpt lat="46.83593" lon="8.42109">
        <ele>1625</ele>
        <time>2021-08-13T08:35:51.189Z</time>
      </trkpt>
      <trkpt lat="46.83592" lon="8.42108">
        <ele>1625</ele>
        <time>2021-08-13T08:35:52.189Z</time>
      </trkpt>
      <trkpt lat="46.83591" lon="8.42107">
        <ele>1625</ele>
        <time>2021-08-13T08:35:53.189Z</time>
      </trkpt>
      <trkpt lat="46.8359" lon="8.42107">
        <ele>1624</ele>
        <time>2021-08-13T08:35:54.190Z</time>
      </trkpt>
      <trkpt lat="46.83589" lon="8.42107">
        <ele>1624</ele>
        <time>2021-08-13T08:35:55.189Z</time>
      </trkpt>
      <trkpt lat="46.83588" lon="8.42106">
        <ele>1624</ele>
        <time>2021-08-13T08:35:56.190Z</time>
      </trkpt>
      <trkpt lat="46.83587" lon="8.42106">
        <ele>1624</ele>
        <time>2021-08-13T08:35:57.190Z</time>
      </trkpt>
      <trkpt lat="46.83586" lon="8.42105">
        <ele>1624</ele>
        <time>2021-08-13T08:35:58.190Z</time>
      </trkpt>
      <trkpt lat="46.83585" lon="8.42104">
        <ele>1624</ele>
        <time>2021-08-13T08:35:59.190Z</time>
      </trkpt>
      <trkpt lat="46.83584" lon="8.42103">
        <ele>1624</ele>
        <time>2021-08-13T08:36:00.189Z</time>
      </trkpt>
      <trkpt lat="46.83583" lon="8.42102">
        <ele>1623</ele>
        <time>2021-08-13T08:36:01.190Z</time>
      </trkpt>
      <trkpt lat="46.83582" lon="8.42101">
        <ele>1623</ele>
        <time>2021-08-13T08:36:02.190Z</time>
      </trkpt>
      <trkpt lat="46.83581" lon="8.42101">
        <ele>1623</ele>
        <time>2021-08-13T08:36:03.190Z</time>
      </trkpt>
      <trkpt lat="46.8358" lon="8.42101">
        <ele>1623</ele>
        <time>2021-08-13T08:36:04.190Z</time>
      </trkpt>
      <trkpt lat="46.83579" lon="8.42101">
        <ele>1623</ele>
        <time>2021-08-13T08:36:05.189Z</time>
      </trkpt>
      <trkpt lat="46.83579" lon="8.42101">
        <ele>1623</ele>
        <time>2021-08-13T08:36:06.190Z</time>
      </trkpt>
      <trkpt lat="46.83578" lon="8.42101">
        <ele>1623</ele>
        <time>2021-08-13T08:36:07.189Z</time>
      </trkpt>
      <trkpt lat="46.83577" lon="8.421">
        <ele>1622</ele>
        <time>2021-08-13T08:36:08.190Z</time>
      </trkpt>
      <trkpt lat="46.83576" lon="8.421">
        <ele>1622</ele>
        <time>2021-08-13T08:36:09.189Z</time>
      </trkpt>
      <trkpt lat="46.83576" lon="8.421">
        <ele>1621</ele>
        <time>2021-08-13T08:36:10.190Z</time>
      </trkpt>
      <trkpt lat="46.83575" lon="8.421">
        <ele>1621</ele>
        <time>2021-08-13T08:36:11.190Z</time>
      </trkpt>
      <trkpt lat="46.83575" lon="8.42099">
        <ele>1621</ele>
        <time>2021-08-13T08:36:12.190Z</time>
      </trkpt>
      <trkpt lat="46.83574" lon="8.42099">
        <ele>1620</ele>
        <time>2021-08-13T08:36:13.190Z</time>
      </trkpt>
      <trkpt lat="46.83573" lon="8.42099">
        <ele>1620</ele>
        <time>2021-08-13T08:36:14.189Z</time>
      </trkpt>
      <trkpt lat="46.83572" lon="8.42098">
        <ele>1620</ele>
        <time>2021-08-13T08:36:15.190Z</time>
      </trkpt>
      <trkpt lat="46.83572" lon="8.42099">
        <ele>1619</ele>
        <time>2021-08-13T08:36:16.190Z</time>
      </trkpt>
      <trkpt lat="46.83571" lon="8.42099">
        <ele>1619</ele>
        <time>2021-08-13T08:36:17.189Z</time>
      </trkpt>
      <trkpt lat="46.8357" lon="8.42098">
        <ele>1619</ele>
        <time>2021-08-13T08:36:18.190Z</time>
      </trkpt>
      <trkpt lat="46.83569" lon="8.42098">
        <ele>1619</ele>
        <time>2021-08-13T08:36:19.189Z</time>
      </trkpt>
      <trkpt lat="46.83568" lon="8.42097">
        <ele>1619</ele>
        <time>2021-08-13T08:36:20.189Z</time>
      </trkpt>
      <trkpt lat="46.83567" lon="8.42097">
        <ele>1618</ele>
        <time>2021-08-13T08:36:21.189Z</time>
      </trkpt>
      <trkpt lat="46.83567" lon="8.42096">
        <ele>1618</ele>
        <time>2021-08-13T08:36:22.190Z</time>
      </trkpt>
      <trkpt lat="46.83566" lon="8.42096">
        <ele>1618</ele>
        <time>2021-08-13T08:36:23.189Z</time>
      </trkpt>
      <trkpt lat="46.83565" lon="8.42095">
        <ele>1617</ele>
        <time>2021-08-13T08:36:24.189Z</time>
      </trkpt>
      <trkpt lat="46.83564" lon="8.42094">
        <ele>1617</ele>
        <time>2021-08-13T08:36:25.190Z</time>
      </trkpt>
      <trkpt lat="46.83563" lon="8.42093">
        <ele>1617</ele>
        <time>2021-08-13T08:36:26.190Z</time>
      </trkpt>
      <trkpt lat="46.83562" lon="8.42092">
        <ele>1616</ele>
        <time>2021-08-13T08:36:27.190Z</time>
      </trkpt>
      <trkpt lat="46.83561" lon="8.42091">
        <ele>1616</ele>
        <time>2021-08-13T08:36:28.190Z</time>
      </trkpt>
      <trkpt lat="46.8356" lon="8.42091">
        <ele>1615</ele>
        <time>2021-08-13T08:36:29.190Z</time>
      </trkpt>
      <trkpt lat="46.83559" lon="8.4209">
        <ele>1615</ele>
        <time>2021-08-13T08:36:30.190Z</time>
      </trkpt>
      <trkpt lat="46.83558" lon="8.42089">
        <ele>1614</ele>
        <time>2021-08-13T08:36:31.190Z</time>
      </trkpt>
      <trkpt lat="46.83557" lon="8.42088">
        <ele>1614</ele>
        <time>2021-08-13T08:36:32.190Z</time>
      </trkpt>
      <trkpt lat="46.83556" lon="8.42087">
        <ele>1614</ele>
        <time>2021-08-13T08:36:33.189Z</time>
      </trkpt>
      <trkpt lat="46.83556" lon="8.42087">
        <ele>1613</ele>
        <time>2021-08-13T08:36:34.189Z</time>
      </trkpt>
      <trkpt lat="46.83555" lon="8.42087">
        <ele>1613</ele>
        <time>2021-08-13T08:36:35.190Z</time>
      </trkpt>
      <trkpt lat="46.83555" lon="8.42087">
        <ele>1613</ele>
        <time>2021-08-13T08:36:36.190Z</time>
      </trkpt>
      <trkpt lat="46.83554" lon="8.42087">
        <ele>1613</ele>
        <time>2021-08-13T08:36:37.190Z</time>
      </trkpt>
      <trkpt lat="46.83553" lon="8.42086">
        <ele>1613</ele>
        <time>2021-08-13T08:36:38.189Z</time>
      </trkpt>
      <trkpt lat="46.83552" lon="8.42085">
        <ele>1613</ele>
        <time>2021-08-13T08:36:39.190Z</time>
      </trkpt>
      <trkpt lat="46.83552" lon="8.42085">
        <ele>1613</ele>
        <time>2021-08-13T08:36:40.190Z</time>
      </trkpt>
      <trkpt lat="46.83552" lon="8.42085">
        <ele>1613</ele>
        <time>2021-08-13T08:36:41.189Z</time>
      </trkpt>
      <trkpt lat="46.83552" lon="8.42085">
        <ele>1610</ele>
        <time>2021-08-13T08:36:42.190Z</time>
      </trkpt>
      <trkpt lat="46.83552" lon="8.42085">
        <ele>1612</ele>
        <time>2021-08-13T08:36:43.190Z</time>
      </trkpt>
      <trkpt lat="46.83551" lon="8.42086">
        <ele>1612</ele>
        <time>2021-08-13T08:36:44.190Z</time>
      </trkpt>
      <trkpt lat="46.83551" lon="8.42086">
        <ele>1612</ele>
        <time>2021-08-13T08:36:45.190Z</time>
      </trkpt>
      <trkpt lat="46.83551" lon="8.42085">
        <ele>1612</ele>
        <time>2021-08-13T08:36:46.190Z</time>
      </trkpt>
      <trkpt lat="46.8355" lon="8.42085">
        <ele>1612</ele>
        <time>2021-08-13T08:36:47.189Z</time>
      </trkpt>
      <trkpt lat="46.83549" lon="8.42084">
        <ele>1613</ele>
        <time>2021-08-13T08:36:48.190Z</time>
      </trkpt>
      <trkpt lat="46.83548" lon="8.42083">
        <ele>1613</ele>
        <time>2021-08-13T08:36:49.190Z</time>
      </trkpt>
      <trkpt lat="46.83547" lon="8.42082">
        <ele>1613</ele>
        <time>2021-08-13T08:36:50.189Z</time>
      </trkpt>
      <trkpt lat="46.83546" lon="8.42081">
        <ele>1613</ele>
        <time>2021-08-13T08:36:51.189Z</time>
      </trkpt>
      <trkpt lat="46.83546" lon="8.4208">
        <ele>1613</ele>
        <time>2021-08-13T08:36:52.190Z</time>
      </trkpt>
      <trkpt lat="46.83545" lon="8.42079">
        <ele>1614</ele>
        <time>2021-08-13T08:36:53.190Z</time>
      </trkpt>
      <trkpt lat="46.83544" lon="8.42078">
        <ele>1614</ele>
        <time>2021-08-13T08:36:54.190Z</time>
      </trkpt>
      <trkpt lat="46.83542" lon="8.42077">
        <ele>1614</ele>
        <time>2021-08-13T08:36:55.190Z</time>
      </trkpt>
      <trkpt lat="46.83542" lon="8.42077">
        <ele>1614</ele>
        <time>2021-08-13T08:36:56.189Z</time>
      </trkpt>
      <trkpt lat="46.83541" lon="8.42076">
        <ele>1614</ele>
        <time>2021-08-13T08:36:57.190Z</time>
      </trkpt>
      <trkpt lat="46.8354" lon="8.42076">
        <ele>1613</ele>
        <time>2021-08-13T08:36:58.190Z</time>
      </trkpt>
      <trkpt lat="46.8354" lon="8.42075">
        <ele>1612</ele>
        <time>2021-08-13T08:36:59.190Z</time>
      </trkpt>
      <trkpt lat="46.8354" lon="8.42074">
        <ele>1612</ele>
        <time>2021-08-13T08:37:00.190Z</time>
      </trkpt>
      <trkpt lat="46.8354" lon="8.42074">
        <ele>1611</ele>
        <time>2021-08-13T08:37:01.190Z</time>
      </trkpt>
      <trkpt lat="46.8354" lon="8.42075">
        <ele>1610</ele>
        <time>2021-08-13T08:37:02.190Z</time>
      </trkpt>
      <trkpt lat="46.83539" lon="8.42075">
        <ele>1610</ele>
        <time>2021-08-13T08:37:03.190Z</time>
      </trkpt>
      <trkpt lat="46.83538" lon="8.42075">
        <ele>1610</ele>
        <time>2021-08-13T08:37:04.190Z</time>
      </trkpt>
      <trkpt lat="46.83538" lon="8.42075">
        <ele>1609</ele>
        <time>2021-08-13T08:37:05.190Z</time>
      </trkpt>
      <trkpt lat="46.83537" lon="8.42075">
        <ele>1609</ele>
        <time>2021-08-13T08:37:06.189Z</time>
      </trkpt>
      <trkpt lat="46.83536" lon="8.42075">
        <ele>1609</ele>
        <time>2021-08-13T08:37:07.189Z</time>
      </trkpt>
      <trkpt lat="46.83536" lon="8.42074">
        <ele>1608</ele>
        <time>2021-08-13T08:37:08.190Z</time>
      </trkpt>
      <trkpt lat="46.83535" lon="8.42074">
        <ele>1608</ele>
        <time>2021-08-13T08:37:09.190Z</time>
      </trkpt>
      <trkpt lat="46.83533" lon="8.42073">
        <ele>1609</ele>
        <time>2021-08-13T08:37:10.189Z</time>
      </trkpt>
      <trkpt lat="46.83533" lon="8.42072">
        <ele>1609</ele>
        <time>2021-08-13T08:37:11.189Z</time>
      </trkpt>
      <trkpt lat="46.83533" lon="8.42072">
        <ele>1609</ele>
        <time>2021-08-13T08:37:12.190Z</time>
      </trkpt>
      <trkpt lat="46.83532" lon="8.42073">
        <ele>1609</ele>
        <time>2021-08-13T08:37:13.189Z</time>
      </trkpt>
      <trkpt lat="46.83532" lon="8.42073">
        <ele>1608</ele>
        <time>2021-08-13T08:37:14.190Z</time>
      </trkpt>
      <trkpt lat="46.83532" lon="8.42073">
        <ele>1608</ele>
        <time>2021-08-13T08:37:15.190Z</time>
      </trkpt>
      <trkpt lat="46.83531" lon="8.42072">
        <ele>1608</ele>
        <time>2021-08-13T08:37:16.189Z</time>
      </trkpt>
      <trkpt lat="46.83531" lon="8.42072">
        <ele>1608</ele>
        <time>2021-08-13T08:37:17.190Z</time>
      </trkpt>
      <trkpt lat="46.8353" lon="8.42072">
        <ele>1607</ele>
        <time>2021-08-13T08:37:18.190Z</time>
      </trkpt>
      <trkpt lat="46.83529" lon="8.42071">
        <ele>1607</ele>
        <time>2021-08-13T08:37:19.190Z</time>
      </trkpt>
      <trkpt lat="46.83528" lon="8.4207">
        <ele>1606</ele>
        <time>2021-08-13T08:37:20.189Z</time>
      </trkpt>
      <trkpt lat="46.83528" lon="8.4207">
        <ele>1606</ele>
        <time>2021-08-13T08:37:21.190Z</time>
      </trkpt>
      <trkpt lat="46.83527" lon="8.4207">
        <ele>1606</ele>
        <time>2021-08-13T08:37:22.189Z</time>
      </trkpt>
      <trkpt lat="46.83527" lon="8.42069">
        <ele>1605</ele>
        <time>2021-08-13T08:37:23.189Z</time>
      </trkpt>
      <trkpt lat="46.83527" lon="8.42069">
        <ele>1604</ele>
        <time>2021-08-13T08:37:24.190Z</time>
      </trkpt>
      <trkpt lat="46.83526" lon="8.42068">
        <ele>1604</ele>
        <time>2021-08-13T08:37:25.189Z</time>
      </trkpt>
      <trkpt lat="46.83525" lon="8.42067">
        <ele>1604</ele>
        <time>2021-08-13T08:37:26.190Z</time>
      </trkpt>
      <trkpt lat="46.83525" lon="8.42066">
        <ele>1603</ele>
        <time>2021-08-13T08:37:27.190Z</time>
      </trkpt>
      <trkpt lat="46.83524" lon="8.42065">
        <ele>1603</ele>
        <time>2021-08-13T08:37:28.189Z</time>
      </trkpt>
      <trkpt lat="46.83523" lon="8.42065">
        <ele>1602</ele>
        <time>2021-08-13T08:37:29.190Z</time>
      </trkpt>
      <trkpt lat="46.83522" lon="8.42064">
        <ele>1602</ele>
        <time>2021-08-13T08:37:30.190Z</time>
      </trkpt>
      <trkpt lat="46.83521" lon="8.42063">
        <ele>1602</ele>
        <time>2021-08-13T08:37:31.190Z</time>
      </trkpt>
      <trkpt lat="46.83521" lon="8.42063">
        <ele>1602</ele>
        <time>2021-08-13T08:37:32.190Z</time>
      </trkpt>
      <trkpt lat="46.83521" lon="8.42062">
        <ele>1602</ele>
        <time>2021-08-13T08:37:33.190Z</time>
      </trkpt>
      <trkpt lat="46.8352" lon="8.42061">
        <ele>1602</ele>
        <time>2021-08-13T08:37:34.190Z</time>
      </trkpt>
      <trkpt lat="46.8352" lon="8.4206">
        <ele>1602</ele>
        <time>2021-08-13T08:37:35.189Z</time>
      </trkpt>
      <trkpt lat="46.83519" lon="8.42059">
        <ele>1602</ele>
        <time>2021-08-13T08:37:36.189Z</time>
      </trkpt>
      <trkpt lat="46.83518" lon="8.42058">
        <ele>1602</ele>
        <time>2021-08-13T08:37:37.190Z</time>
      </trkpt>
      <trkpt lat="46.83517" lon="8.42058">
        <ele>1602</ele>
        <time>2021-08-13T08:37:38.190Z</time>
      </trkpt>
      <trkpt lat="46.83516" lon="8.42059">
        <ele>1602</ele>
        <time>2021-08-13T08:37:39.189Z</time>
      </trkpt>
      <trkpt lat="46.83515" lon="8.42059">
        <ele>1602</ele>
        <time>2021-08-13T08:37:40.190Z</time>
      </trkpt>
      <trkpt lat="46.83515" lon="8.42061">
        <ele>1603</ele>
        <time>2021-08-13T08:37:41.190Z</time>
      </trkpt>
      <trkpt lat="46.83515" lon="8.42062">
        <ele>1603</ele>
        <time>2021-08-13T08:37:42.189Z</time>
      </trkpt>
      <trkpt lat="46.83515" lon="8.42063">
        <ele>1602</ele>
        <time>2021-08-13T08:37:43.190Z</time>
      </trkpt>
      <trkpt lat="46.83516" lon="8.42065">
        <ele>1602</ele>
        <time>2021-08-13T08:37:44.190Z</time>
      </trkpt>
      <trkpt lat="46.83516" lon="8.42066">
        <ele>1602</ele>
        <time>2021-08-13T08:37:45.190Z</time>
      </trkpt>
      <trkpt lat="46.83516" lon="8.42068">
        <ele>1601</ele>
        <time>2021-08-13T08:37:46.190Z</time>
      </trkpt>
      <trkpt lat="46.83517" lon="8.4207">
        <ele>1601</ele>
        <time>2021-08-13T08:37:47.190Z</time>
      </trkpt>
      <trkpt lat="46.83517" lon="8.42071">
        <ele>1601</ele>
        <time>2021-08-13T08:37:48.190Z</time>
      </trkpt>
      <trkpt lat="46.83517" lon="8.42073">
        <ele>1601</ele>
        <time>2021-08-13T08:37:49.189Z</time>
      </trkpt>
      <trkpt lat="46.83517" lon="8.42074">
        <ele>1601</ele>
        <time>2021-08-13T08:37:50.190Z</time>
      </trkpt>
      <trkpt lat="46.83517" lon="8.42076">
        <ele>1600</ele>
        <time>2021-08-13T08:37:51.189Z</time>
      </trkpt>
      <trkpt lat="46.83517" lon="8.42077">
        <ele>1600</ele>
        <time>2021-08-13T08:37:52.190Z</time>
      </trkpt>
      <trkpt lat="46.83517" lon="8.42078">
        <ele>1600</ele>
        <time>2021-08-13T08:37:53.190Z</time>
      </trkpt>
      <trkpt lat="46.83517" lon="8.4208">
        <ele>1599</ele>
        <time>2021-08-13T08:37:54.189Z</time>
      </trkpt>
      <trkpt lat="46.83517" lon="8.42081">
        <ele>1599</ele>
        <time>2021-08-13T08:37:55.189Z</time>
      </trkpt>
      <trkpt lat="46.83517" lon="8.42083">
        <ele>1599</ele>
        <time>2021-08-13T08:37:56.190Z</time>
      </trkpt>
      <trkpt lat="46.83517" lon="8.42084">
        <ele>1599</ele>
        <time>2021-08-13T08:37:57.189Z</time>
      </trkpt>
      <trkpt lat="46.83517" lon="8.42085">
        <ele>1598</ele>
        <time>2021-08-13T08:37:58.190Z</time>
      </trkpt>
      <trkpt lat="46.83517" lon="8.42086">
        <ele>1598</ele>
        <time>2021-08-13T08:37:59.190Z</time>
      </trkpt>
      <trkpt lat="46.83517" lon="8.42088">
        <ele>1597</ele>
        <time>2021-08-13T08:38:00.189Z</time>
      </trkpt>
      <trkpt lat="46.83517" lon="8.42089">
        <ele>1596</ele>
        <time>2021-08-13T08:38:01.189Z</time>
      </trkpt>
      <trkpt lat="46.83516" lon="8.42089">
        <ele>1596</ele>
        <time>2021-08-13T08:38:02.190Z</time>
      </trkpt>
      <trkpt lat="46.83516" lon="8.4209">
        <ele>1596</ele>
        <time>2021-08-13T08:38:03.189Z</time>
      </trkpt>
      <trkpt lat="46.83515" lon="8.42091">
        <ele>1596</ele>
        <time>2021-08-13T08:38:04.189Z</time>
      </trkpt>
      <trkpt lat="46.83515" lon="8.42092">
        <ele>1596</ele>
        <time>2021-08-13T08:38:05.190Z</time>
      </trkpt>
      <trkpt lat="46.83514" lon="8.42093">
        <ele>1596</ele>
        <time>2021-08-13T08:38:06.189Z</time>
      </trkpt>
      <trkpt lat="46.83514" lon="8.42094">
        <ele>1595</ele>
        <time>2021-08-13T08:38:07.189Z</time>
      </trkpt>
      <trkpt lat="46.83514" lon="8.42095">
        <ele>1595</ele>
        <time>2021-08-13T08:38:08.189Z</time>
      </trkpt>
      <trkpt lat="46.83514" lon="8.42096">
        <ele>1595</ele>
        <time>2021-08-13T08:38:09.189Z</time>
      </trkpt>
      <trkpt lat="46.83513" lon="8.42097">
        <ele>1594</ele>
        <time>2021-08-13T08:38:10.189Z</time>
      </trkpt>
      <trkpt lat="46.83513" lon="8.42099">
        <ele>1594</ele>
        <time>2021-08-13T08:38:11.189Z</time>
      </trkpt>
      <trkpt lat="46.83513" lon="8.421">
        <ele>1594</ele>
        <time>2021-08-13T08:38:12.190Z</time>
      </trkpt>
      <trkpt lat="46.83513" lon="8.42102">
        <ele>1594</ele>
        <time>2021-08-13T08:38:13.189Z</time>
      </trkpt>
      <trkpt lat="46.83512" lon="8.42103">
        <ele>1593</ele>
        <time>2021-08-13T08:38:14.190Z</time>
      </trkpt>
      <trkpt lat="46.83512" lon="8.42105">
        <ele>1593</ele>
        <time>2021-08-13T08:38:15.190Z</time>
      </trkpt>
      <trkpt lat="46.83513" lon="8.42107">
        <ele>1593</ele>
        <time>2021-08-13T08:38:16.189Z</time>
      </trkpt>
      <trkpt lat="46.83513" lon="8.42108">
        <ele>1593</ele>
        <time>2021-08-13T08:38:17.190Z</time>
      </trkpt>
      <trkpt lat="46.83513" lon="8.4211">
        <ele>1593</ele>
        <time>2021-08-13T08:38:18.190Z</time>
      </trkpt>
      <trkpt lat="46.83514" lon="8.42112">
        <ele>1592</ele>
        <time>2021-08-13T08:38:19.189Z</time>
      </trkpt>
      <trkpt lat="46.83514" lon="8.42113">
        <ele>1592</ele>
        <time>2021-08-13T08:38:20.189Z</time>
      </trkpt>
      <trkpt lat="46.83514" lon="8.42115">
        <ele>1592</ele>
        <time>2021-08-13T08:38:21.189Z</time>
      </trkpt>
      <trkpt lat="46.83514" lon="8.42117">
        <ele>1592</ele>
        <time>2021-08-13T08:38:22.190Z</time>
      </trkpt>
      <trkpt lat="46.83515" lon="8.42118">
        <ele>1591</ele>
        <time>2021-08-13T08:38:23.190Z</time>
      </trkpt>
      <trkpt lat="46.83515" lon="8.4212">
        <ele>1591</ele>
        <time>2021-08-13T08:38:24.190Z</time>
      </trkpt>
      <trkpt lat="46.83515" lon="8.42121">
        <ele>1591</ele>
        <time>2021-08-13T08:38:25.189Z</time>
      </trkpt>
      <trkpt lat="46.83515" lon="8.42123">
        <ele>1591</ele>
        <time>2021-08-13T08:38:26.190Z</time>
      </trkpt>
      <trkpt lat="46.83516" lon="8.42125">
        <ele>1590</ele>
        <time>2021-08-13T08:38:27.190Z</time>
      </trkpt>
      <trkpt lat="46.83516" lon="8.42127">
        <ele>1590</ele>
        <time>2021-08-13T08:38:28.190Z</time>
      </trkpt>
      <trkpt lat="46.83516" lon="8.42129">
        <ele>1590</ele>
        <time>2021-08-13T08:38:29.190Z</time>
      </trkpt>
      <trkpt lat="46.83516" lon="8.42131">
        <ele>1590</ele>
        <time>2021-08-13T08:38:30.190Z</time>
      </trkpt>
      <trkpt lat="46.83516" lon="8.42133">
        <ele>1590</ele>
        <time>2021-08-13T08:38:31.190Z</time>
      </trkpt>
      <trkpt lat="46.83516" lon="8.42134">
        <ele>1589</ele>
        <time>2021-08-13T08:38:32.189Z</time>
      </trkpt>
      <trkpt lat="46.83516" lon="8.42136">
        <ele>1589</ele>
        <time>2021-08-13T08:38:33.189Z</time>
      </trkpt>
      <trkpt lat="46.83516" lon="8.42138">
        <ele>1589</ele>
        <time>2021-08-13T08:38:34.190Z</time>
      </trkpt>
      <trkpt lat="46.83516" lon="8.42139">
        <ele>1589</ele>
        <time>2021-08-13T08:38:35.190Z</time>
      </trkpt>
      <trkpt lat="46.83516" lon="8.42141">
        <ele>1588</ele>
        <time>2021-08-13T08:38:36.190Z</time>
      </trkpt>
      <trkpt lat="46.83516" lon="8.42142">
        <ele>1588</ele>
        <time>2021-08-13T08:38:37.190Z</time>
      </trkpt>
      <trkpt lat="46.83516" lon="8.42143">
        <ele>1588</ele>
        <time>2021-08-13T08:38:38.189Z</time>
      </trkpt>
      <trkpt lat="46.83515" lon="8.42145">
        <ele>1588</ele>
        <time>2021-08-13T08:38:39.189Z</time>
      </trkpt>
      <trkpt lat="46.83514" lon="8.42146">
        <ele>1588</ele>
        <time>2021-08-13T08:38:40.190Z</time>
      </trkpt>
      <trkpt lat="46.83513" lon="8.42148">
        <ele>1588</ele>
        <time>2021-08-13T08:38:41.190Z</time>
      </trkpt>
      <trkpt lat="46.83513" lon="8.42149">
        <ele>1589</ele>
        <time>2021-08-13T08:38:42.190Z</time>
      </trkpt>
      <trkpt lat="46.83512" lon="8.4215">
        <ele>1588</ele>
        <time>2021-08-13T08:38:43.190Z</time>
      </trkpt>
      <trkpt lat="46.83511" lon="8.42152">
        <ele>1588</ele>
        <time>2021-08-13T08:38:44.190Z</time>
      </trkpt>
      <trkpt lat="46.8351" lon="8.42153">
        <ele>1588</ele>
        <time>2021-08-13T08:38:45.190Z</time>
      </trkpt>
      <trkpt lat="46.83509" lon="8.42155">
        <ele>1588</ele>
        <time>2021-08-13T08:38:46.190Z</time>
      </trkpt>
      <trkpt lat="46.83509" lon="8.42156">
        <ele>1588</ele>
        <time>2021-08-13T08:38:47.189Z</time>
      </trkpt>
      <trkpt lat="46.83508" lon="8.42157">
        <ele>1588</ele>
        <time>2021-08-13T08:38:48.189Z</time>
      </trkpt>
      <trkpt lat="46.83507" lon="8.42158">
        <ele>1588</ele>
        <time>2021-08-13T08:38:49.190Z</time>
      </trkpt>
      <trkpt lat="46.83507" lon="8.4216">
        <ele>1589</ele>
        <time>2021-08-13T08:38:50.190Z</time>
      </trkpt>
      <trkpt lat="46.83506" lon="8.42161">
        <ele>1589</ele>
        <time>2021-08-13T08:38:51.189Z</time>
      </trkpt>
      <trkpt lat="46.83505" lon="8.42162">
        <ele>1589</ele>
        <time>2021-08-13T08:38:52.190Z</time>
      </trkpt>
      <trkpt lat="46.83505" lon="8.42162">
        <ele>1589</ele>
        <time>2021-08-13T08:38:53.190Z</time>
      </trkpt>
      <trkpt lat="46.83504" lon="8.42163">
        <ele>1589</ele>
        <time>2021-08-13T08:38:54.190Z</time>
      </trkpt>
      <trkpt lat="46.83503" lon="8.42163">
        <ele>1589</ele>
        <time>2021-08-13T08:38:55.190Z</time>
      </trkpt>
      <trkpt lat="46.83503" lon="8.42163">
        <ele>1589</ele>
        <time>2021-08-13T08:38:56.190Z</time>
      </trkpt>
      <trkpt lat="46.83503" lon="8.42163">
        <ele>1589</ele>
        <time>2021-08-13T08:38:57.190Z</time>
      </trkpt>
      <trkpt lat="46.83501" lon="8.42162">
        <ele>1590</ele>
        <time>2021-08-13T08:38:58.190Z</time>
      </trkpt>
      <trkpt lat="46.835" lon="8.42161">
        <ele>1590</ele>
        <time>2021-08-13T08:38:59.190Z</time>
      </trkpt>
      <trkpt lat="46.835" lon="8.42162">
        <ele>1589</ele>
        <time>2021-08-13T08:39:00.189Z</time>
      </trkpt>
      <trkpt lat="46.83499" lon="8.42162">
        <ele>1589</ele>
        <time>2021-08-13T08:39:01.189Z</time>
      </trkpt>
      <trkpt lat="46.835" lon="8.42163">
        <ele>1588</ele>
        <time>2021-08-13T08:39:02.192Z</time>
      </trkpt>
      <trkpt lat="46.835" lon="8.42163">
        <ele>1588</ele>
        <time>2021-08-13T08:39:03.192Z</time>
      </trkpt>
      <trkpt lat="46.83501" lon="8.42164">
        <ele>1589</ele>
        <time>2021-08-13T08:39:04.192Z</time>
      </trkpt>
      <trkpt lat="46.83503" lon="8.42165">
        <ele>1589</ele>
        <time>2021-08-13T08:39:05.192Z</time>
      </trkpt>
      <trkpt lat="46.83503" lon="8.42165">
        <ele>1589</ele>
        <time>2021-08-13T08:39:06.192Z</time>
      </trkpt>
      <trkpt lat="46.83503" lon="8.42166">
        <ele>1589</ele>
        <time>2021-08-13T08:39:07.191Z</time>
      </trkpt>
      <trkpt lat="46.83502" lon="8.42167">
        <ele>1592</ele>
        <time>2021-08-13T08:39:08.192Z</time>
      </trkpt>
      <trkpt lat="46.83502" lon="8.42166">
        <ele>1592</ele>
        <time>2021-08-13T08:39:09.192Z</time>
      </trkpt>
      <trkpt lat="46.83503" lon="8.42166">
        <ele>1592</ele>
        <time>2021-08-13T08:39:10.191Z</time>
      </trkpt>
      <trkpt lat="46.83503" lon="8.42166">
        <ele>1593</ele>
        <time>2021-08-13T08:39:11.192Z</time>
      </trkpt>
      <trkpt lat="46.83504" lon="8.42165">
        <ele>1593</ele>
        <time>2021-08-13T08:39:12.192Z</time>
      </trkpt>
      <trkpt lat="46.835" lon="8.4216">
        <ele>1601</ele>
        <time>2021-08-13T08:39:13.193Z</time>
      </trkpt>
      <trkpt lat="46.835" lon="8.42159">
        <ele>1601</ele>
        <time>2021-08-13T08:39:14.193Z</time>
      </trkpt>
      <trkpt lat="46.83502" lon="8.4216">
        <ele>1599</ele>
        <time>2021-08-13T08:39:15.192Z</time>
      </trkpt>
      <trkpt lat="46.83502" lon="8.42161">
        <ele>1598</ele>
        <time>2021-08-13T08:39:16.193Z</time>
      </trkpt>
      <trkpt lat="46.83502" lon="8.42162">
        <ele>1597</ele>
        <time>2021-08-13T08:39:17.192Z</time>
      </trkpt>
      <trkpt lat="46.83505" lon="8.42163">
        <ele>1582</ele>
        <time>2021-08-13T08:39:18.194Z</time>
      </trkpt>
      <trkpt lat="46.83506" lon="8.42162">
        <ele>1583</ele>
        <time>2021-08-13T08:39:19.193Z</time>
      </trkpt>
      <trkpt lat="46.83506" lon="8.42162">
        <ele>1583</ele>
        <time>2021-08-13T08:39:20.193Z</time>
      </trkpt>
      <trkpt lat="46.83506" lon="8.42162">
        <ele>1587</ele>
        <time>2021-08-13T08:39:21.195Z</time>
      </trkpt>
      <trkpt lat="46.83503" lon="8.42163">
        <ele>1590</ele>
        <time>2021-08-13T08:39:22.196Z</time>
      </trkpt>
      <trkpt lat="46.83503" lon="8.42163">
        <ele>1590</ele>
        <time>2021-08-13T08:39:23.195Z</time>
      </trkpt>
      <trkpt lat="46.83502" lon="8.42164">
        <ele>1590</ele>
        <time>2021-08-13T08:39:24.195Z</time>
      </trkpt>
      <trkpt lat="46.83503" lon="8.42168">
        <ele>1589</ele>
        <time>2021-08-13T08:39:25.196Z</time>
      </trkpt>
      <trkpt lat="46.83502" lon="8.42167">
        <ele>1589</ele>
        <time>2021-08-13T08:39:26.197Z</time>
      </trkpt>
      <trkpt lat="46.83501" lon="8.42167">
        <ele>1589</ele>
        <time>2021-08-13T08:39:27.196Z</time>
      </trkpt>
      <trkpt lat="46.83501" lon="8.42166">
        <ele>1589</ele>
        <time>2021-08-13T08:39:28.197Z</time>
      </trkpt>
      <trkpt lat="46.83499" lon="8.42166">
        <ele>1589</ele>
        <time>2021-08-13T08:39:29.197Z</time>
      </trkpt>
      <trkpt lat="46.83498" lon="8.42166">
        <ele>1589</ele>
        <time>2021-08-13T08:39:30.197Z</time>
      </trkpt>
      <trkpt lat="46.83497" lon="8.42166">
        <ele>1589</ele>
        <time>2021-08-13T08:39:31.197Z</time>
      </trkpt>
      <trkpt lat="46.83497" lon="8.42166">
        <ele>1588</ele>
        <time>2021-08-13T08:39:32.197Z</time>
      </trkpt>
      <trkpt lat="46.83496" lon="8.42166">
        <ele>1588</ele>
        <time>2021-08-13T08:39:33.197Z</time>
      </trkpt>
      <trkpt lat="46.83494" lon="8.42165">
        <ele>1588</ele>
        <time>2021-08-13T08:39:34.197Z</time>
      </trkpt>
      <trkpt lat="46.83493" lon="8.42165">
        <ele>1588</ele>
        <time>2021-08-13T08:39:35.197Z</time>
      </trkpt>
      <trkpt lat="46.83491" lon="8.42164">
        <ele>1588</ele>
        <time>2021-08-13T08:39:36.197Z</time>
      </trkpt>
      <trkpt lat="46.8349" lon="8.42164">
        <ele>1588</ele>
        <time>2021-08-13T08:39:37.197Z</time>
      </trkpt>
      <trkpt lat="46.83488" lon="8.42164">
        <ele>1589</ele>
        <time>2021-08-13T08:39:38.196Z</time>
      </trkpt>
      <trkpt lat="46.83487" lon="8.42164">
        <ele>1589</ele>
        <time>2021-08-13T08:39:39.196Z</time>
      </trkpt>
      <trkpt lat="46.83486" lon="8.42165">
        <ele>1589</ele>
        <time>2021-08-13T08:39:40.197Z</time>
      </trkpt>
      <trkpt lat="46.83485" lon="8.42165">
        <ele>1589</ele>
        <time>2021-08-13T08:39:41.196Z</time>
      </trkpt>
      <trkpt lat="46.83484" lon="8.42165">
        <ele>1588</ele>
        <time>2021-08-13T08:39:42.197Z</time>
      </trkpt>
      <trkpt lat="46.83483" lon="8.42166">
        <ele>1588</ele>
        <time>2021-08-13T08:39:43.197Z</time>
      </trkpt>
      <trkpt lat="46.83482" lon="8.42165">
        <ele>1587</ele>
        <time>2021-08-13T08:39:44.197Z</time>
      </trkpt>
      <trkpt lat="46.83481" lon="8.42165">
        <ele>1587</ele>
        <time>2021-08-13T08:39:45.197Z</time>
      </trkpt>
      <trkpt lat="46.8348" lon="8.42166">
        <ele>1587</ele>
        <time>2021-08-13T08:39:46.197Z</time>
      </trkpt>
      <trkpt lat="46.8348" lon="8.42166">
        <ele>1586</ele>
        <time>2021-08-13T08:39:47.196Z</time>
      </trkpt>
      <trkpt lat="46.83479" lon="8.42166">
        <ele>1586</ele>
        <time>2021-08-13T08:39:48.197Z</time>
      </trkpt>
      <trkpt lat="46.83479" lon="8.42166">
        <ele>1586</ele>
        <time>2021-08-13T08:39:49.197Z</time>
      </trkpt>
      <trkpt lat="46.83476" lon="8.42165">
        <ele>1587</ele>
        <time>2021-08-13T08:39:50.196Z</time>
      </trkpt>
      <trkpt lat="46.83475" lon="8.42164">
        <ele>1587</ele>
        <time>2021-08-13T08:39:51.196Z</time>
      </trkpt>
      <trkpt lat="46.83474" lon="8.42164">
        <ele>1587</ele>
        <time>2021-08-13T08:39:52.196Z</time>
      </trkpt>
      <trkpt lat="46.83473" lon="8.42164">
        <ele>1587</ele>
        <time>2021-08-13T08:39:53.197Z</time>
      </trkpt>
      <trkpt lat="46.83473" lon="8.42164">
        <ele>1587</ele>
        <time>2021-08-13T08:39:54.197Z</time>
      </trkpt>
      <trkpt lat="46.83472" lon="8.42163">
        <ele>1587</ele>
        <time>2021-08-13T08:39:55.197Z</time>
      </trkpt>
      <trkpt lat="46.83472" lon="8.42163">
        <ele>1587</ele>
        <time>2021-08-13T08:39:56.197Z</time>
      </trkpt>
      <trkpt lat="46.83473" lon="8.42163">
        <ele>1587</ele>
        <time>2021-08-13T08:39:57.198Z</time>
      </trkpt>
      <trkpt lat="46.83472" lon="8.42163">
        <ele>1587</ele>
        <time>2021-08-13T08:39:58.198Z</time>
      </trkpt>
      <trkpt lat="46.83472" lon="8.42164">
        <ele>1587</ele>
        <time>2021-08-13T08:39:59.197Z</time>
      </trkpt>
      <trkpt lat="46.83471" lon="8.42165">
        <ele>1587</ele>
        <time>2021-08-13T08:40:00.197Z</time>
      </trkpt>
      <trkpt lat="46.83469" lon="8.42165">
        <ele>1587</ele>
        <time>2021-08-13T08:40:01.197Z</time>
      </trkpt>
      <trkpt lat="46.83469" lon="8.42165">
        <ele>1587</ele>
        <time>2021-08-13T08:40:02.198Z</time>
      </trkpt>
      <trkpt lat="46.83468" lon="8.42166">
        <ele>1587</ele>
        <time>2021-08-13T08:40:03.198Z</time>
      </trkpt>
      <trkpt lat="46.83467" lon="8.42166">
        <ele>1586</ele>
        <time>2021-08-13T08:40:04.197Z</time>
      </trkpt>
      <trkpt lat="46.83466" lon="8.42166">
        <ele>1587</ele>
        <time>2021-08-13T08:40:05.197Z</time>
      </trkpt>
      <trkpt lat="46.83465" lon="8.42167">
        <ele>1587</ele>
        <time>2021-08-13T08:40:06.197Z</time>
      </trkpt>
      <trkpt lat="46.83464" lon="8.42168">
        <ele>1587</ele>
        <time>2021-08-13T08:40:07.198Z</time>
      </trkpt>
      <trkpt lat="46.83463" lon="8.42168">
        <ele>1587</ele>
        <time>2021-08-13T08:40:08.198Z</time>
      </trkpt>
      <trkpt lat="46.83462" lon="8.42169">
        <ele>1587</ele>
        <time>2021-08-13T08:40:09.197Z</time>
      </trkpt>
      <trkpt lat="46.8346" lon="8.42169">
        <ele>1587</ele>
        <time>2021-08-13T08:40:10.197Z</time>
      </trkpt>
      <trkpt lat="46.8346" lon="8.42169">
        <ele>1587</ele>
        <time>2021-08-13T08:40:11.197Z</time>
      </trkpt>
      <trkpt lat="46.83459" lon="8.42169">
        <ele>1587</ele>
        <time>2021-08-13T08:40:12.197Z</time>
      </trkpt>
      <trkpt lat="46.83458" lon="8.42168">
        <ele>1587</ele>
        <time>2021-08-13T08:40:13.197Z</time>
      </trkpt>
      <trkpt lat="46.83458" lon="8.42168">
        <ele>1587</ele>
        <time>2021-08-13T08:40:14.197Z</time>
      </trkpt>
      <trkpt lat="46.83458" lon="8.42167">
        <ele>1587</ele>
        <time>2021-08-13T08:40:15.197Z</time>
      </trkpt>
      <trkpt lat="46.83458" lon="8.42166">
        <ele>1587</ele>
        <time>2021-08-13T08:40:16.197Z</time>
      </trkpt>
      <trkpt lat="46.83458" lon="8.42165">
        <ele>1587</ele>
        <time>2021-08-13T08:40:17.197Z</time>
      </trkpt>
      <trkpt lat="46.83458" lon="8.42164">
        <ele>1587</ele>
        <time>2021-08-13T08:40:18.197Z</time>
      </trkpt>
      <trkpt lat="46.83459" lon="8.42163">
        <ele>1587</ele>
        <time>2021-08-13T08:40:19.197Z</time>
      </trkpt>
      <trkpt lat="46.8346" lon="8.42163">
        <ele>1587</ele>
        <time>2021-08-13T08:40:20.197Z</time>
      </trkpt>
      <trkpt lat="46.83461" lon="8.42162">
        <ele>1586</ele>
        <time>2021-08-13T08:40:21.197Z</time>
      </trkpt>
      <trkpt lat="46.83461" lon="8.42162">
        <ele>1585</ele>
        <time>2021-08-13T08:40:22.197Z</time>
      </trkpt>
      <trkpt lat="46.83462" lon="8.42162">
        <ele>1585</ele>
        <time>2021-08-13T08:40:23.197Z</time>
      </trkpt>
      <trkpt lat="46.83462" lon="8.42162">
        <ele>1584</ele>
        <time>2021-08-13T08:40:24.198Z</time>
      </trkpt>
      <trkpt lat="46.83462" lon="8.42161">
        <ele>1584</ele>
        <time>2021-08-13T08:40:25.197Z</time>
      </trkpt>
      <trkpt lat="46.83463" lon="8.42159">
        <ele>1583</ele>
        <time>2021-08-13T08:40:26.198Z</time>
      </trkpt>
      <trkpt lat="46.83463" lon="8.42158">
        <ele>1582</ele>
        <time>2021-08-13T08:40:27.197Z</time>
      </trkpt>
      <trkpt lat="46.83464" lon="8.42156">
        <ele>1582</ele>
        <time>2021-08-13T08:40:28.198Z</time>
      </trkpt>
      <trkpt lat="46.83465" lon="8.42155">
        <ele>1581</ele>
        <time>2021-08-13T08:40:29.198Z</time>
      </trkpt>
      <trkpt lat="46.83466" lon="8.42153">
        <ele>1581</ele>
        <time>2021-08-13T08:40:30.198Z</time>
      </trkpt>
      <trkpt lat="46.83467" lon="8.42152">
        <ele>1581</ele>
        <time>2021-08-13T08:40:31.198Z</time>
      </trkpt>
      <trkpt lat="46.83468" lon="8.42151">
        <ele>1581</ele>
        <time>2021-08-13T08:40:32.198Z</time>
      </trkpt>
      <trkpt lat="46.83469" lon="8.4215">
        <ele>1581</ele>
        <time>2021-08-13T08:40:33.198Z</time>
      </trkpt>
      <trkpt lat="46.83471" lon="8.42148">
        <ele>1581</ele>
        <time>2021-08-13T08:40:34.197Z</time>
      </trkpt>
      <trkpt lat="46.83472" lon="8.42147">
        <ele>1581</ele>
        <time>2021-08-13T08:40:35.197Z</time>
      </trkpt>
      <trkpt lat="46.83474" lon="8.42146">
        <ele>1581</ele>
        <time>2021-08-13T08:40:36.198Z</time>
      </trkpt>
      <trkpt lat="46.83476" lon="8.42144">
        <ele>1580</ele>
        <time>2021-08-13T08:40:37.198Z</time>
      </trkpt>
      <trkpt lat="46.83477" lon="8.42142">
        <ele>1580</ele>
        <time>2021-08-13T08:40:38.198Z</time>
      </trkpt>
      <trkpt lat="46.83477" lon="8.4214">
        <ele>1580</ele>
        <time>2021-08-13T08:40:39.197Z</time>
      </trkpt>
      <trkpt lat="46.83478" lon="8.42138">
        <ele>1579</ele>
        <time>2021-08-13T08:40:40.198Z</time>
      </trkpt>
      <trkpt lat="46.83478" lon="8.42136">
        <ele>1579</ele>
        <time>2021-08-13T08:40:41.197Z</time>
      </trkpt>
      <trkpt lat="46.83478" lon="8.42134">
        <ele>1579</ele>
        <time>2021-08-13T08:40:42.198Z</time>
      </trkpt>
      <trkpt lat="46.83479" lon="8.42133">
        <ele>1579</ele>
        <time>2021-08-13T08:40:43.198Z</time>
      </trkpt>
      <trkpt lat="46.83479" lon="8.4213">
        <ele>1579</ele>
        <time>2021-08-13T08:40:44.197Z</time>
      </trkpt>
      <trkpt lat="46.83479" lon="8.42128">
        <ele>1579</ele>
        <time>2021-08-13T08:40:45.197Z</time>
      </trkpt>
      <trkpt lat="46.83478" lon="8.42126">
        <ele>1579</ele>
        <time>2021-08-13T08:40:46.198Z</time>
      </trkpt>
      <trkpt lat="46.83477" lon="8.42124">
        <ele>1579</ele>
        <time>2021-08-13T08:40:47.198Z</time>
      </trkpt>
      <trkpt lat="46.83476" lon="8.42123">
        <ele>1579</ele>
        <time>2021-08-13T08:40:48.198Z</time>
      </trkpt>
      <trkpt lat="46.83475" lon="8.42121">
        <ele>1579</ele>
        <time>2021-08-13T08:40:49.197Z</time>
      </trkpt>
      <trkpt lat="46.83474" lon="8.42119">
        <ele>1579</ele>
        <time>2021-08-13T08:40:50.198Z</time>
      </trkpt>
      <trkpt lat="46.83473" lon="8.42118">
        <ele>1579</ele>
        <time>2021-08-13T08:40:51.198Z</time>
      </trkpt>
      <trkpt lat="46.83472" lon="8.42115">
        <ele>1579</ele>
        <time>2021-08-13T08:40:52.198Z</time>
      </trkpt>
      <trkpt lat="46.83472" lon="8.42114">
        <ele>1579</ele>
        <time>2021-08-13T08:40:53.198Z</time>
      </trkpt>
      <trkpt lat="46.83471" lon="8.42111">
        <ele>1578</ele>
        <time>2021-08-13T08:40:54.198Z</time>
      </trkpt>
      <trkpt lat="46.8347" lon="8.4211">
        <ele>1578</ele>
        <time>2021-08-13T08:40:55.198Z</time>
      </trkpt>
      <trkpt lat="46.83469" lon="8.42108">
        <ele>1578</ele>
        <time>2021-08-13T08:40:56.197Z</time>
      </trkpt>
      <trkpt lat="46.83469" lon="8.42107">
        <ele>1578</ele>
        <time>2021-08-13T08:40:57.198Z</time>
      </trkpt>
      <trkpt lat="46.83468" lon="8.42106">
        <ele>1577</ele>
        <time>2021-08-13T08:40:58.197Z</time>
      </trkpt>
      <trkpt lat="46.83467" lon="8.42104">
        <ele>1577</ele>
        <time>2021-08-13T08:40:59.197Z</time>
      </trkpt>
      <trkpt lat="46.83466" lon="8.42103">
        <ele>1577</ele>
        <time>2021-08-13T08:41:00.198Z</time>
      </trkpt>
      <trkpt lat="46.83465" lon="8.42102">
        <ele>1577</ele>
        <time>2021-08-13T08:41:01.198Z</time>
      </trkpt>
      <trkpt lat="46.83465" lon="8.42101">
        <ele>1576</ele>
        <time>2021-08-13T08:41:02.198Z</time>
      </trkpt>
      <trkpt lat="46.83464" lon="8.421">
        <ele>1576</ele>
        <time>2021-08-13T08:41:03.198Z</time>
      </trkpt>
      <trkpt lat="46.83463" lon="8.42099">
        <ele>1575</ele>
        <time>2021-08-13T08:41:04.198Z</time>
      </trkpt>
      <trkpt lat="46.83462" lon="8.42098">
        <ele>1575</ele>
        <time>2021-08-13T08:41:05.198Z</time>
      </trkpt>
      <trkpt lat="46.83462" lon="8.42097">
        <ele>1574</ele>
        <time>2021-08-13T08:41:06.198Z</time>
      </trkpt>
      <trkpt lat="46.83461" lon="8.42096">
        <ele>1573</ele>
        <time>2021-08-13T08:41:07.198Z</time>
      </trkpt>
      <trkpt lat="46.8346" lon="8.42096">
        <ele>1573</ele>
        <time>2021-08-13T08:41:08.198Z</time>
      </trkpt>
      <trkpt lat="46.83459" lon="8.42095">
        <ele>1572</ele>
        <time>2021-08-13T08:41:09.198Z</time>
      </trkpt>
      <trkpt lat="46.83458" lon="8.42094">
        <ele>1572</ele>
        <time>2021-08-13T08:41:10.198Z</time>
      </trkpt>
      <trkpt lat="46.83457" lon="8.42093">
        <ele>1572</ele>
        <time>2021-08-13T08:41:11.198Z</time>
      </trkpt>
      <trkpt lat="46.83456" lon="8.42092">
        <ele>1571</ele>
        <time>2021-08-13T08:41:12.197Z</time>
      </trkpt>
      <trkpt lat="46.83456" lon="8.42091">
        <ele>1571</ele>
        <time>2021-08-13T08:41:13.198Z</time>
      </trkpt>
      <trkpt lat="46.83455" lon="8.4209">
        <ele>1571</ele>
        <time>2021-08-13T08:41:14.198Z</time>
      </trkpt>
      <trkpt lat="46.83455" lon="8.42089">
        <ele>1571</ele>
        <time>2021-08-13T08:41:15.197Z</time>
      </trkpt>
      <trkpt lat="46.83455" lon="8.42088">
        <ele>1571</ele>
        <time>2021-08-13T08:41:16.198Z</time>
      </trkpt>
      <trkpt lat="46.83455" lon="8.42089">
        <ele>1570</ele>
        <time>2021-08-13T08:41:17.197Z</time>
      </trkpt>
      <trkpt lat="46.83455" lon="8.42089">
        <ele>1570</ele>
        <time>2021-08-13T08:41:18.198Z</time>
      </trkpt>
      <trkpt lat="46.83454" lon="8.42088">
        <ele>1568</ele>
        <time>2021-08-13T08:41:19.197Z</time>
      </trkpt>
      <trkpt lat="46.83453" lon="8.42088">
        <ele>1567</ele>
        <time>2021-08-13T08:41:20.198Z</time>
      </trkpt>
      <trkpt lat="46.83452" lon="8.42087">
        <ele>1567</ele>
        <time>2021-08-13T08:41:21.198Z</time>
      </trkpt>
      <trkpt lat="46.83451" lon="8.42086">
        <ele>1567</ele>
        <time>2021-08-13T08:41:22.197Z</time>
      </trkpt>
      <trkpt lat="46.8345" lon="8.42085">
        <ele>1567</ele>
        <time>2021-08-13T08:41:23.198Z</time>
      </trkpt>
      <trkpt lat="46.83449" lon="8.42084">
        <ele>1567</ele>
        <time>2021-08-13T08:41:24.198Z</time>
      </trkpt>
      <trkpt lat="46.83448" lon="8.42083">
        <ele>1567</ele>
        <time>2021-08-13T08:41:25.198Z</time>
      </trkpt>
      <trkpt lat="46.83447" lon="8.42082">
        <ele>1567</ele>
        <time>2021-08-13T08:41:26.197Z</time>
      </trkpt>
      <trkpt lat="46.83446" lon="8.42081">
        <ele>1566</ele>
        <time>2021-08-13T08:41:27.198Z</time>
      </trkpt>
      <trkpt lat="46.83446" lon="8.42079">
        <ele>1566</ele>
        <time>2021-08-13T08:41:28.198Z</time>
      </trkpt>
      <trkpt lat="46.83445" lon="8.42078">
        <ele>1566</ele>
        <time>2021-08-13T08:41:29.197Z</time>
      </trkpt>
      <trkpt lat="46.83445" lon="8.42077">
        <ele>1566</ele>
        <time>2021-08-13T08:41:30.197Z</time>
      </trkpt>
      <trkpt lat="46.83444" lon="8.42075">
        <ele>1566</ele>
        <time>2021-08-13T08:41:31.198Z</time>
      </trkpt>
      <trkpt lat="46.83444" lon="8.42074">
        <ele>1566</ele>
        <time>2021-08-13T08:41:32.198Z</time>
      </trkpt>
      <trkpt lat="46.83443" lon="8.42073">
        <ele>1565</ele>
        <time>2021-08-13T08:41:33.198Z</time>
      </trkpt>
      <trkpt lat="46.83442" lon="8.42072">
        <ele>1565</ele>
        <time>2021-08-13T08:41:34.198Z</time>
      </trkpt>
      <trkpt lat="46.83441" lon="8.4207">
        <ele>1566</ele>
        <time>2021-08-13T08:41:35.198Z</time>
      </trkpt>
      <trkpt lat="46.8344" lon="8.42069">
        <ele>1566</ele>
        <time>2021-08-13T08:41:36.197Z</time>
      </trkpt>
      <trkpt lat="46.83439" lon="8.42068">
        <ele>1566</ele>
        <time>2021-08-13T08:41:37.198Z</time>
      </trkpt>
      <trkpt lat="46.83438" lon="8.42067">
        <ele>1566</ele>
        <time>2021-08-13T08:41:38.198Z</time>
      </trkpt>
      <trkpt lat="46.83437" lon="8.42066">
        <ele>1566</ele>
        <time>2021-08-13T08:41:39.197Z</time>
      </trkpt>
      <trkpt lat="46.83435" lon="8.42064">
        <ele>1565</ele>
        <time>2021-08-13T08:41:40.197Z</time>
      </trkpt>
      <trkpt lat="46.83435" lon="8.42063">
        <ele>1565</ele>
        <time>2021-08-13T08:41:41.198Z</time>
      </trkpt>
      <trkpt lat="46.83434" lon="8.42062">
        <ele>1565</ele>
        <time>2021-08-13T08:41:42.197Z</time>
      </trkpt>
      <trkpt lat="46.83434" lon="8.4206">
        <ele>1566</ele>
        <time>2021-08-13T08:41:43.198Z</time>
      </trkpt>
      <trkpt lat="46.83433" lon="8.42059">
        <ele>1566</ele>
        <time>2021-08-13T08:41:44.197Z</time>
      </trkpt>
      <trkpt lat="46.83432" lon="8.42058">
        <ele>1566</ele>
        <time>2021-08-13T08:41:45.198Z</time>
      </trkpt>
      <trkpt lat="46.83432" lon="8.42057">
        <ele>1566</ele>
        <time>2021-08-13T08:41:46.198Z</time>
      </trkpt>
      <trkpt lat="46.83431" lon="8.42056">
        <ele>1566</ele>
        <time>2021-08-13T08:41:47.198Z</time>
      </trkpt>
      <trkpt lat="46.83431" lon="8.42056">
        <ele>1566</ele>
        <time>2021-08-13T08:41:48.198Z</time>
      </trkpt>
      <trkpt lat="46.8343" lon="8.42055">
        <ele>1566</ele>
        <time>2021-08-13T08:41:49.198Z</time>
      </trkpt>
      <trkpt lat="46.8343" lon="8.42055">
        <ele>1565</ele>
        <time>2021-08-13T08:41:50.198Z</time>
      </trkpt>
      <trkpt lat="46.83429" lon="8.42055">
        <ele>1565</ele>
        <time>2021-08-13T08:41:51.198Z</time>
      </trkpt>
      <trkpt lat="46.83429" lon="8.42055">
        <ele>1564</ele>
        <time>2021-08-13T08:41:52.198Z</time>
      </trkpt>
      <trkpt lat="46.83428" lon="8.42055">
        <ele>1564</ele>
        <time>2021-08-13T08:41:53.198Z</time>
      </trkpt>
      <trkpt lat="46.83427" lon="8.42054">
        <ele>1564</ele>
        <time>2021-08-13T08:41:54.198Z</time>
      </trkpt>
      <trkpt lat="46.83426" lon="8.42054">
        <ele>1564</ele>
        <time>2021-08-13T08:41:55.198Z</time>
      </trkpt>
      <trkpt lat="46.83426" lon="8.42053">
        <ele>1563</ele>
        <time>2021-08-13T08:41:56.197Z</time>
      </trkpt>
      <trkpt lat="46.83425" lon="8.42053">
        <ele>1563</ele>
        <time>2021-08-13T08:41:57.197Z</time>
      </trkpt>
      <trkpt lat="46.83425" lon="8.42052">
        <ele>1563</ele>
        <time>2021-08-13T08:41:58.198Z</time>
      </trkpt>
      <trkpt lat="46.83425" lon="8.42051">
        <ele>1562</ele>
        <time>2021-08-13T08:41:59.198Z</time>
      </trkpt>
      <trkpt lat="46.83424" lon="8.42051">
        <ele>1562</ele>
        <time>2021-08-13T08:42:00.197Z</time>
      </trkpt>
      <trkpt lat="46.83424" lon="8.4205">
        <ele>1562</ele>
        <time>2021-08-13T08:42:01.197Z</time>
      </trkpt>
      <trkpt lat="46.83423" lon="8.4205">
        <ele>1562</ele>
        <time>2021-08-13T08:42:02.198Z</time>
      </trkpt>
      <trkpt lat="46.83423" lon="8.42049">
        <ele>1562</ele>
        <time>2021-08-13T08:42:03.197Z</time>
      </trkpt>
      <trkpt lat="46.83423" lon="8.42049">
        <ele>1561</ele>
        <time>2021-08-13T08:42:04.198Z</time>
      </trkpt>
      <trkpt lat="46.83422" lon="8.42048">
        <ele>1561</ele>
        <time>2021-08-13T08:42:05.197Z</time>
      </trkpt>
      <trkpt lat="46.83422" lon="8.42048">
        <ele>1561</ele>
        <time>2021-08-13T08:42:06.197Z</time>
      </trkpt>
      <trkpt lat="46.83422" lon="8.42047">
        <ele>1561</ele>
        <time>2021-08-13T08:42:07.197Z</time>
      </trkpt>
      <trkpt lat="46.83422" lon="8.42046">
        <ele>1561</ele>
        <time>2021-08-13T08:42:08.198Z</time>
      </trkpt>
      <trkpt lat="46.83421" lon="8.42046">
        <ele>1560</ele>
        <time>2021-08-13T08:42:09.198Z</time>
      </trkpt>
      <trkpt lat="46.8342" lon="8.42044">
        <ele>1560</ele>
        <time>2021-08-13T08:42:10.197Z</time>
      </trkpt>
      <trkpt lat="46.83419" lon="8.42043">
        <ele>1560</ele>
        <time>2021-08-13T08:42:11.197Z</time>
      </trkpt>
      <trkpt lat="46.83419" lon="8.42042">
        <ele>1560</ele>
        <time>2021-08-13T08:42:12.197Z</time>
      </trkpt>
      <trkpt lat="46.83418" lon="8.4204">
        <ele>1561</ele>
        <time>2021-08-13T08:42:13.198Z</time>
      </trkpt>
      <trkpt lat="46.83417" lon="8.42038">
        <ele>1561</ele>
        <time>2021-08-13T08:42:14.197Z</time>
      </trkpt>
      <trkpt lat="46.83416" lon="8.42036">
        <ele>1561</ele>
        <time>2021-08-13T08:42:15.198Z</time>
      </trkpt>
      <trkpt lat="46.83415" lon="8.42035">
        <ele>1562</ele>
        <time>2021-08-13T08:42:16.198Z</time>
      </trkpt>
      <trkpt lat="46.83415" lon="8.42033">
        <ele>1562</ele>
        <time>2021-08-13T08:42:17.197Z</time>
      </trkpt>
      <trkpt lat="46.83414" lon="8.42031">
        <ele>1562</ele>
        <time>2021-08-13T08:42:18.197Z</time>
      </trkpt>
      <trkpt lat="46.83413" lon="8.4203">
        <ele>1561</ele>
        <time>2021-08-13T08:42:19.197Z</time>
      </trkpt>
      <trkpt lat="46.83412" lon="8.42028">
        <ele>1561</ele>
        <time>2021-08-13T08:42:20.197Z</time>
      </trkpt>
      <trkpt lat="46.83411" lon="8.42027">
        <ele>1561</ele>
        <time>2021-08-13T08:42:21.197Z</time>
      </trkpt>
      <trkpt lat="46.8341" lon="8.42025">
        <ele>1561</ele>
        <time>2021-08-13T08:42:22.197Z</time>
      </trkpt>
      <trkpt lat="46.83409" lon="8.42023">
        <ele>1561</ele>
        <time>2021-08-13T08:42:23.197Z</time>
      </trkpt>
      <trkpt lat="46.83408" lon="8.42022">
        <ele>1561</ele>
        <time>2021-08-13T08:42:24.197Z</time>
      </trkpt>
      <trkpt lat="46.83407" lon="8.4202">
        <ele>1561</ele>
        <time>2021-08-13T08:42:25.197Z</time>
      </trkpt>
      <trkpt lat="46.83406" lon="8.42018">
        <ele>1560</ele>
        <time>2021-08-13T08:42:26.197Z</time>
      </trkpt>
      <trkpt lat="46.83406" lon="8.42016">
        <ele>1560</ele>
        <time>2021-08-13T08:42:27.197Z</time>
      </trkpt>
      <trkpt lat="46.83405" lon="8.42014">
        <ele>1560</ele>
        <time>2021-08-13T08:42:28.197Z</time>
      </trkpt>
      <trkpt lat="46.83404" lon="8.42013">
        <ele>1559</ele>
        <time>2021-08-13T08:42:29.197Z</time>
      </trkpt>
      <trkpt lat="46.83403" lon="8.42011">
        <ele>1559</ele>
        <time>2021-08-13T08:42:30.197Z</time>
      </trkpt>
      <trkpt lat="46.83402" lon="8.4201">
        <ele>1558</ele>
        <time>2021-08-13T08:42:31.198Z</time>
      </trkpt>
      <trkpt lat="46.83401" lon="8.42008">
        <ele>1558</ele>
        <time>2021-08-13T08:42:32.197Z</time>
      </trkpt>
      <trkpt lat="46.834" lon="8.42007">
        <ele>1557</ele>
        <time>2021-08-13T08:42:33.197Z</time>
      </trkpt>
      <trkpt lat="46.83399" lon="8.42005">
        <ele>1557</ele>
        <time>2021-08-13T08:42:34.197Z</time>
      </trkpt>
      <trkpt lat="46.83398" lon="8.42004">
        <ele>1557</ele>
        <time>2021-08-13T08:42:35.197Z</time>
      </trkpt>
      <trkpt lat="46.83397" lon="8.42002">
        <ele>1556</ele>
        <time>2021-08-13T08:42:36.198Z</time>
      </trkpt>
      <trkpt lat="46.83395" lon="8.42001">
        <ele>1556</ele>
        <time>2021-08-13T08:42:37.197Z</time>
      </trkpt>
      <trkpt lat="46.83394" lon="8.42">
        <ele>1556</ele>
        <time>2021-08-13T08:42:38.197Z</time>
      </trkpt>
      <trkpt lat="46.83394" lon="8.41998">
        <ele>1556</ele>
        <time>2021-08-13T08:42:39.198Z</time>
      </trkpt>
      <trkpt lat="46.83393" lon="8.41998">
        <ele>1556</ele>
        <time>2021-08-13T08:42:40.198Z</time>
      </trkpt>
      <trkpt lat="46.83393" lon="8.41997">
        <ele>1556</ele>
        <time>2021-08-13T08:42:41.198Z</time>
      </trkpt>
      <trkpt lat="46.83393" lon="8.41996">
        <ele>1556</ele>
        <time>2021-08-13T08:42:42.198Z</time>
      </trkpt>
      <trkpt lat="46.83393" lon="8.41996">
        <ele>1556</ele>
        <time>2021-08-13T08:42:43.198Z</time>
      </trkpt>
      <trkpt lat="46.83393" lon="8.41996">
        <ele>1556</ele>
        <time>2021-08-13T08:42:44.197Z</time>
      </trkpt>
      <trkpt lat="46.83393" lon="8.41995">
        <ele>1556</ele>
        <time>2021-08-13T08:42:45.198Z</time>
      </trkpt>
      <trkpt lat="46.83392" lon="8.41994">
        <ele>1555</ele>
        <time>2021-08-13T08:42:46.197Z</time>
      </trkpt>
      <trkpt lat="46.83392" lon="8.41994">
        <ele>1555</ele>
        <time>2021-08-13T08:42:47.197Z</time>
      </trkpt>
      <trkpt lat="46.83391" lon="8.41993">
        <ele>1555</ele>
        <time>2021-08-13T08:42:48.197Z</time>
      </trkpt>
      <trkpt lat="46.8339" lon="8.41992">
        <ele>1555</ele>
        <time>2021-08-13T08:42:49.197Z</time>
      </trkpt>
      <trkpt lat="46.83389" lon="8.41991">
        <ele>1555</ele>
        <time>2021-08-13T08:42:50.197Z</time>
      </trkpt>
      <trkpt lat="46.83388" lon="8.41989">
        <ele>1555</ele>
        <time>2021-08-13T08:42:51.197Z</time>
      </trkpt>
      <trkpt lat="46.83387" lon="8.41988">
        <ele>1555</ele>
        <time>2021-08-13T08:42:52.198Z</time>
      </trkpt>
      <trkpt lat="46.83386" lon="8.41986">
        <ele>1555</ele>
        <time>2021-08-13T08:42:53.197Z</time>
      </trkpt>
      <trkpt lat="46.83385" lon="8.41985">
        <ele>1555</ele>
        <time>2021-08-13T08:42:54.197Z</time>
      </trkpt>
      <trkpt lat="46.83384" lon="8.41983">
        <ele>1555</ele>
        <time>2021-08-13T08:42:55.197Z</time>
      </trkpt>
      <trkpt lat="46.83383" lon="8.41982">
        <ele>1555</ele>
        <time>2021-08-13T08:42:56.197Z</time>
      </trkpt>
      <trkpt lat="46.83382" lon="8.4198">
        <ele>1555</ele>
        <time>2021-08-13T08:42:57.197Z</time>
      </trkpt>
      <trkpt lat="46.83381" lon="8.41979">
        <ele>1554</ele>
        <time>2021-08-13T08:42:58.197Z</time>
      </trkpt>
      <trkpt lat="46.83379" lon="8.41978">
        <ele>1554</ele>
        <time>2021-08-13T08:42:59.197Z</time>
      </trkpt>
      <trkpt lat="46.83378" lon="8.41977">
        <ele>1554</ele>
        <time>2021-08-13T08:43:00.197Z</time>
      </trkpt>
      <trkpt lat="46.83377" lon="8.41976">
        <ele>1554</ele>
        <time>2021-08-13T08:43:01.197Z</time>
      </trkpt>
      <trkpt lat="46.83376" lon="8.41975">
        <ele>1554</ele>
        <time>2021-08-13T08:43:02.197Z</time>
      </trkpt>
      <trkpt lat="46.83376" lon="8.41975">
        <ele>1554</ele>
        <time>2021-08-13T08:43:03.197Z</time>
      </trkpt>
      <trkpt lat="46.83375" lon="8.41974">
        <ele>1554</ele>
        <time>2021-08-13T08:43:04.197Z</time>
      </trkpt>
      <trkpt lat="46.83375" lon="8.41975">
        <ele>1555</ele>
        <time>2021-08-13T08:43:05.198Z</time>
      </trkpt>
      <trkpt lat="46.83374" lon="8.41974">
        <ele>1554</ele>
        <time>2021-08-13T08:43:06.197Z</time>
      </trkpt>
      <trkpt lat="46.83373" lon="8.41974">
        <ele>1554</ele>
        <time>2021-08-13T08:43:07.198Z</time>
      </trkpt>
      <trkpt lat="46.83373" lon="8.41973">
        <ele>1553</ele>
        <time>2021-08-13T08:43:08.198Z</time>
      </trkpt>
      <trkpt lat="46.83372" lon="8.41972">
        <ele>1553</ele>
        <time>2021-08-13T08:43:09.198Z</time>
      </trkpt>
      <trkpt lat="46.83371" lon="8.41971">
        <ele>1552</ele>
        <time>2021-08-13T08:43:10.198Z</time>
      </trkpt>
      <trkpt lat="46.8337" lon="8.4197">
        <ele>1551</ele>
        <time>2021-08-13T08:43:11.197Z</time>
      </trkpt>
      <trkpt lat="46.83369" lon="8.41969">
        <ele>1551</ele>
        <time>2021-08-13T08:43:12.198Z</time>
      </trkpt>
      <trkpt lat="46.83369" lon="8.41967">
        <ele>1550</ele>
        <time>2021-08-13T08:43:13.198Z</time>
      </trkpt>
      <trkpt lat="46.83368" lon="8.41966">
        <ele>1550</ele>
        <time>2021-08-13T08:43:14.198Z</time>
      </trkpt>
      <trkpt lat="46.83367" lon="8.41964">
        <ele>1549</ele>
        <time>2021-08-13T08:43:15.198Z</time>
      </trkpt>
      <trkpt lat="46.83366" lon="8.41963">
        <ele>1549</ele>
        <time>2021-08-13T08:43:16.197Z</time>
      </trkpt>
      <trkpt lat="46.83365" lon="8.41962">
        <ele>1549</ele>
        <time>2021-08-13T08:43:17.198Z</time>
      </trkpt>
      <trkpt lat="46.83364" lon="8.41961">
        <ele>1549</ele>
        <time>2021-08-13T08:43:18.198Z</time>
      </trkpt>
      <trkpt lat="46.83363" lon="8.4196">
        <ele>1549</ele>
        <time>2021-08-13T08:43:19.198Z</time>
      </trkpt>
      <trkpt lat="46.83362" lon="8.41958">
        <ele>1549</ele>
        <time>2021-08-13T08:43:20.198Z</time>
      </trkpt>
      <trkpt lat="46.83362" lon="8.41957">
        <ele>1548</ele>
        <time>2021-08-13T08:43:21.198Z</time>
      </trkpt>
      <trkpt lat="46.83361" lon="8.41956">
        <ele>1548</ele>
        <time>2021-08-13T08:43:22.198Z</time>
      </trkpt>
      <trkpt lat="46.8336" lon="8.41954">
        <ele>1548</ele>
        <time>2021-08-13T08:43:23.198Z</time>
      </trkpt>
      <trkpt lat="46.83359" lon="8.41953">
        <ele>1547</ele>
        <time>2021-08-13T08:43:24.197Z</time>
      </trkpt>
      <trkpt lat="46.83358" lon="8.41952">
        <ele>1547</ele>
        <time>2021-08-13T08:43:25.198Z</time>
      </trkpt>
      <trkpt lat="46.83357" lon="8.41951">
        <ele>1546</ele>
        <time>2021-08-13T08:43:26.198Z</time>
      </trkpt>
      <trkpt lat="46.83357" lon="8.41949">
        <ele>1546</ele>
        <time>2021-08-13T08:43:27.198Z</time>
      </trkpt>
      <trkpt lat="46.83356" lon="8.41948">
        <ele>1546</ele>
        <time>2021-08-13T08:43:28.198Z</time>
      </trkpt>
      <trkpt lat="46.83355" lon="8.41947">
        <ele>1546</ele>
        <time>2021-08-13T08:43:29.197Z</time>
      </trkpt>
      <trkpt lat="46.83354" lon="8.41945">
        <ele>1545</ele>
        <time>2021-08-13T08:43:30.197Z</time>
      </trkpt>
      <trkpt lat="46.83353" lon="8.41944">
        <ele>1545</ele>
        <time>2021-08-13T08:43:31.198Z</time>
      </trkpt>
      <trkpt lat="46.83352" lon="8.41943">
        <ele>1544</ele>
        <time>2021-08-13T08:43:32.197Z</time>
      </trkpt>
      <trkpt lat="46.83351" lon="8.41942">
        <ele>1544</ele>
        <time>2021-08-13T08:43:33.198Z</time>
      </trkpt>
      <trkpt lat="46.8335" lon="8.41941">
        <ele>1543</ele>
        <time>2021-08-13T08:43:34.198Z</time>
      </trkpt>
      <trkpt lat="46.83349" lon="8.4194">
        <ele>1543</ele>
        <time>2021-08-13T08:43:35.197Z</time>
      </trkpt>
      <trkpt lat="46.83348" lon="8.41938">
        <ele>1543</ele>
        <time>2021-08-13T08:43:36.198Z</time>
      </trkpt>
      <trkpt lat="46.83347" lon="8.41937">
        <ele>1543</ele>
        <time>2021-08-13T08:43:37.198Z</time>
      </trkpt>
      <trkpt lat="46.83346" lon="8.41936">
        <ele>1543</ele>
        <time>2021-08-13T08:43:38.198Z</time>
      </trkpt>
      <trkpt lat="46.83345" lon="8.41934">
        <ele>1543</ele>
        <time>2021-08-13T08:43:39.198Z</time>
      </trkpt>
      <trkpt lat="46.83344" lon="8.41933">
        <ele>1543</ele>
        <time>2021-08-13T08:43:40.198Z</time>
      </trkpt>
      <trkpt lat="46.83343" lon="8.41932">
        <ele>1543</ele>
        <time>2021-08-13T08:43:41.197Z</time>
      </trkpt>
      <trkpt lat="46.83342" lon="8.41931">
        <ele>1542</ele>
        <time>2021-08-13T08:43:42.198Z</time>
      </trkpt>
      <trkpt lat="46.83341" lon="8.4193">
        <ele>1542</ele>
        <time>2021-08-13T08:43:43.198Z</time>
      </trkpt>
      <trkpt lat="46.8334" lon="8.41929">
        <ele>1542</ele>
        <time>2021-08-13T08:43:44.198Z</time>
      </trkpt>
      <trkpt lat="46.83339" lon="8.41928">
        <ele>1542</ele>
        <time>2021-08-13T08:43:45.197Z</time>
      </trkpt>
      <trkpt lat="46.83338" lon="8.41927">
        <ele>1541</ele>
        <time>2021-08-13T08:43:46.198Z</time>
      </trkpt>
      <trkpt lat="46.83337" lon="8.41925">
        <ele>1541</ele>
        <time>2021-08-13T08:43:47.197Z</time>
      </trkpt>
      <trkpt lat="46.83336" lon="8.41924">
        <ele>1541</ele>
        <time>2021-08-13T08:43:48.198Z</time>
      </trkpt>
      <trkpt lat="46.83335" lon="8.41923">
        <ele>1541</ele>
        <time>2021-08-13T08:43:49.198Z</time>
      </trkpt>
      <trkpt lat="46.83334" lon="8.41921">
        <ele>1540</ele>
        <time>2021-08-13T08:43:50.198Z</time>
      </trkpt>
      <trkpt lat="46.83334" lon="8.4192">
        <ele>1540</ele>
        <time>2021-08-13T08:43:51.198Z</time>
      </trkpt>
      <trkpt lat="46.83333" lon="8.41918">
        <ele>1540</ele>
        <time>2021-08-13T08:43:52.197Z</time>
      </trkpt>
      <trkpt lat="46.83332" lon="8.41917">
        <ele>1539</ele>
        <time>2021-08-13T08:43:53.198Z</time>
      </trkpt>
      <trkpt lat="46.83331" lon="8.41916">
        <ele>1539</ele>
        <time>2021-08-13T08:43:54.197Z</time>
      </trkpt>
      <trkpt lat="46.8333" lon="8.41915">
        <ele>1539</ele>
        <time>2021-08-13T08:43:55.198Z</time>
      </trkpt>
      <trkpt lat="46.83329" lon="8.41914">
        <ele>1538</ele>
        <time>2021-08-13T08:43:56.197Z</time>
      </trkpt>
      <trkpt lat="46.83329" lon="8.41913">
        <ele>1538</ele>
        <time>2021-08-13T08:43:57.197Z</time>
      </trkpt>
      <trkpt lat="46.83328" lon="8.41911">
        <ele>1538</ele>
        <time>2021-08-13T08:43:58.197Z</time>
      </trkpt>
      <trkpt lat="46.83327" lon="8.4191">
        <ele>1538</ele>
        <time>2021-08-13T08:43:59.197Z</time>
      </trkpt>
      <trkpt lat="46.83326" lon="8.41909">
        <ele>1538</ele>
        <time>2021-08-13T08:44:00.197Z</time>
      </trkpt>
      <trkpt lat="46.83326" lon="8.41907">
        <ele>1537</ele>
        <time>2021-08-13T08:44:01.197Z</time>
      </trkpt>
      <trkpt lat="46.83325" lon="8.41906">
        <ele>1537</ele>
        <time>2021-08-13T08:44:02.198Z</time>
      </trkpt>
      <trkpt lat="46.83324" lon="8.41905">
        <ele>1537</ele>
        <time>2021-08-13T08:44:03.197Z</time>
      </trkpt>
      <trkpt lat="46.83323" lon="8.41903">
        <ele>1537</ele>
        <time>2021-08-13T08:44:04.198Z</time>
      </trkpt>
      <trkpt lat="46.83322" lon="8.41902">
        <ele>1537</ele>
        <time>2021-08-13T08:44:05.197Z</time>
      </trkpt>
      <trkpt lat="46.83321" lon="8.419">
        <ele>1537</ele>
        <time>2021-08-13T08:44:06.197Z</time>
      </trkpt>
      <trkpt lat="46.8332" lon="8.41899">
        <ele>1537</ele>
        <time>2021-08-13T08:44:07.197Z</time>
      </trkpt>
      <trkpt lat="46.83319" lon="8.41898">
        <ele>1536</ele>
        <time>2021-08-13T08:44:08.198Z</time>
      </trkpt>
      <trkpt lat="46.83318" lon="8.41897">
        <ele>1535</ele>
        <time>2021-08-13T08:44:09.198Z</time>
      </trkpt>
      <trkpt lat="46.83316" lon="8.41895">
        <ele>1535</ele>
        <time>2021-08-13T08:44:10.197Z</time>
      </trkpt>
      <trkpt lat="46.83315" lon="8.41894">
        <ele>1535</ele>
        <time>2021-08-13T08:44:11.197Z</time>
      </trkpt>
      <trkpt lat="46.83315" lon="8.41892">
        <ele>1535</ele>
        <time>2021-08-13T08:44:12.198Z</time>
      </trkpt>
      <trkpt lat="46.83314" lon="8.4189">
        <ele>1534</ele>
        <time>2021-08-13T08:44:13.197Z</time>
      </trkpt>
      <trkpt lat="46.83313" lon="8.41889">
        <ele>1534</ele>
        <time>2021-08-13T08:44:14.198Z</time>
      </trkpt>
      <trkpt lat="46.83313" lon="8.41887">
        <ele>1534</ele>
        <time>2021-08-13T08:44:15.197Z</time>
      </trkpt>
      <trkpt lat="46.83312" lon="8.41886">
        <ele>1534</ele>
        <time>2021-08-13T08:44:16.197Z</time>
      </trkpt>
      <trkpt lat="46.83311" lon="8.41885">
        <ele>1534</ele>
        <time>2021-08-13T08:44:17.197Z</time>
      </trkpt>
      <trkpt lat="46.8331" lon="8.41884">
        <ele>1533</ele>
        <time>2021-08-13T08:44:18.197Z</time>
      </trkpt>
      <trkpt lat="46.83309" lon="8.41883">
        <ele>1533</ele>
        <time>2021-08-13T08:44:19.197Z</time>
      </trkpt>
      <trkpt lat="46.83308" lon="8.41882">
        <ele>1533</ele>
        <time>2021-08-13T08:44:20.197Z</time>
      </trkpt>
      <trkpt lat="46.83308" lon="8.41881">
        <ele>1532</ele>
        <time>2021-08-13T08:44:21.197Z</time>
      </trkpt>
      <trkpt lat="46.83307" lon="8.4188">
        <ele>1532</ele>
        <time>2021-08-13T08:44:22.197Z</time>
      </trkpt>
      <trkpt lat="46.83306" lon="8.41879">
        <ele>1532</ele>
        <time>2021-08-13T08:44:23.197Z</time>
      </trkpt>
      <trkpt lat="46.83305" lon="8.41877">
        <ele>1532</ele>
        <time>2021-08-13T08:44:24.197Z</time>
      </trkpt>
      <trkpt lat="46.83305" lon="8.41876">
        <ele>1532</ele>
        <time>2021-08-13T08:44:25.198Z</time>
      </trkpt>
      <trkpt lat="46.83304" lon="8.41874">
        <ele>1532</ele>
        <time>2021-08-13T08:44:26.197Z</time>
      </trkpt>
      <trkpt lat="46.83303" lon="8.41873">
        <ele>1532</ele>
        <time>2021-08-13T08:44:27.197Z</time>
      </trkpt>
      <trkpt lat="46.83302" lon="8.41873">
        <ele>1532</ele>
        <time>2021-08-13T08:44:28.198Z</time>
      </trkpt>
      <trkpt lat="46.83301" lon="8.41871">
        <ele>1532</ele>
        <time>2021-08-13T08:44:29.197Z</time>
      </trkpt>
      <trkpt lat="46.833" lon="8.4187">
        <ele>1532</ele>
        <time>2021-08-13T08:44:30.198Z</time>
      </trkpt>
      <trkpt lat="46.83299" lon="8.41868">
        <ele>1532</ele>
        <time>2021-08-13T08:44:31.197Z</time>
      </trkpt>
      <trkpt lat="46.83297" lon="8.41867">
        <ele>1532</ele>
        <time>2021-08-13T08:44:32.198Z</time>
      </trkpt>
      <trkpt lat="46.83296" lon="8.41865">
        <ele>1532</ele>
        <time>2021-08-13T08:44:33.198Z</time>
      </trkpt>
      <trkpt lat="46.83294" lon="8.41864">
        <ele>1532</ele>
        <time>2021-08-13T08:44:34.198Z</time>
      </trkpt>
      <trkpt lat="46.83293" lon="8.41862">
        <ele>1532</ele>
        <time>2021-08-13T08:44:35.197Z</time>
      </trkpt>
      <trkpt lat="46.83292" lon="8.4186">
        <ele>1532</ele>
        <time>2021-08-13T08:44:36.198Z</time>
      </trkpt>
      <trkpt lat="46.83291" lon="8.41858">
        <ele>1532</ele>
        <time>2021-08-13T08:44:37.197Z</time>
      </trkpt>
      <trkpt lat="46.8329" lon="8.41857">
        <ele>1532</ele>
        <time>2021-08-13T08:44:38.198Z</time>
      </trkpt>
      <trkpt lat="46.83289" lon="8.41856">
        <ele>1531</ele>
        <time>2021-08-13T08:44:39.197Z</time>
      </trkpt>
      <trkpt lat="46.83289" lon="8.41854">
        <ele>1531</ele>
        <time>2021-08-13T08:44:40.197Z</time>
      </trkpt>
      <trkpt lat="46.83288" lon="8.41853">
        <ele>1530</ele>
        <time>2021-08-13T08:44:41.197Z</time>
      </trkpt>
      <trkpt lat="46.83287" lon="8.41852">
        <ele>1530</ele>
        <time>2021-08-13T08:44:42.198Z</time>
      </trkpt>
      <trkpt lat="46.83287" lon="8.41852">
        <ele>1530</ele>
        <time>2021-08-13T08:44:43.198Z</time>
      </trkpt>
      <trkpt lat="46.83287" lon="8.41852">
        <ele>1529</ele>
        <time>2021-08-13T08:44:44.198Z</time>
      </trkpt>
      <trkpt lat="46.83286" lon="8.41851">
        <ele>1529</ele>
        <time>2021-08-13T08:44:45.198Z</time>
      </trkpt>
      <trkpt lat="46.83286" lon="8.41851">
        <ele>1529</ele>
        <time>2021-08-13T08:44:46.198Z</time>
      </trkpt>
      <trkpt lat="46.83286" lon="8.41851">
        <ele>1529</ele>
        <time>2021-08-13T08:44:47.198Z</time>
      </trkpt>
      <trkpt lat="46.83285" lon="8.41851">
        <ele>1528</ele>
        <time>2021-08-13T08:44:48.198Z</time>
      </trkpt>
      <trkpt lat="46.83285" lon="8.41851">
        <ele>1528</ele>
        <time>2021-08-13T08:44:49.198Z</time>
      </trkpt>
      <trkpt lat="46.83285" lon="8.41851">
        <ele>1528</ele>
        <time>2021-08-13T08:44:50.198Z</time>
      </trkpt>
      <trkpt lat="46.83286" lon="8.41852">
        <ele>1527</ele>
        <time>2021-08-13T08:44:51.197Z</time>
      </trkpt>
      <trkpt lat="46.83286" lon="8.41852">
        <ele>1527</ele>
        <time>2021-08-13T08:44:52.198Z</time>
      </trkpt>
      <trkpt lat="46.83286" lon="8.41852">
        <ele>1526</ele>
        <time>2021-08-13T08:44:53.197Z</time>
      </trkpt>
      <trkpt lat="46.83286" lon="8.41852">
        <ele>1526</ele>
        <time>2021-08-13T08:44:54.197Z</time>
      </trkpt>
      <trkpt lat="46.83286" lon="8.41851">
        <ele>1526</ele>
        <time>2021-08-13T08:44:55.198Z</time>
      </trkpt>
      <trkpt lat="46.83286" lon="8.4185">
        <ele>1526</ele>
        <time>2021-08-13T08:44:56.198Z</time>
      </trkpt>
      <trkpt lat="46.83285" lon="8.41849">
        <ele>1526</ele>
        <time>2021-08-13T08:44:57.197Z</time>
      </trkpt>
      <trkpt lat="46.83285" lon="8.41848">
        <ele>1526</ele>
        <time>2021-08-13T08:44:58.198Z</time>
      </trkpt>
      <trkpt lat="46.83284" lon="8.41847">
        <ele>1526</ele>
        <time>2021-08-13T08:44:59.197Z</time>
      </trkpt>
      <trkpt lat="46.83283" lon="8.41847">
        <ele>1526</ele>
        <time>2021-08-13T08:45:00.198Z</time>
      </trkpt>
      <trkpt lat="46.83282" lon="8.41846">
        <ele>1526</ele>
        <time>2021-08-13T08:45:01.198Z</time>
      </trkpt>
      <trkpt lat="46.83282" lon="8.41845">
        <ele>1525</ele>
        <time>2021-08-13T08:45:02.198Z</time>
      </trkpt>
      <trkpt lat="46.83281" lon="8.41844">
        <ele>1525</ele>
        <time>2021-08-13T08:45:03.198Z</time>
      </trkpt>
      <trkpt lat="46.83281" lon="8.41843">
        <ele>1525</ele>
        <time>2021-08-13T08:45:04.198Z</time>
      </trkpt>
      <trkpt lat="46.8328" lon="8.41842">
        <ele>1525</ele>
        <time>2021-08-13T08:45:05.197Z</time>
      </trkpt>
      <trkpt lat="46.83279" lon="8.41841">
        <ele>1526</ele>
        <time>2021-08-13T08:45:06.198Z</time>
      </trkpt>
      <trkpt lat="46.83278" lon="8.4184">
        <ele>1526</ele>
        <time>2021-08-13T08:45:07.198Z</time>
      </trkpt>
      <trkpt lat="46.83277" lon="8.41839">
        <ele>1527</ele>
        <time>2021-08-13T08:45:08.198Z</time>
      </trkpt>
      <trkpt lat="46.83276" lon="8.41838">
        <ele>1527</ele>
        <time>2021-08-13T08:45:09.198Z</time>
      </trkpt>
      <trkpt lat="46.83275" lon="8.41837">
        <ele>1528</ele>
        <time>2021-08-13T08:45:10.198Z</time>
      </trkpt>
      <trkpt lat="46.83274" lon="8.41836">
        <ele>1528</ele>
        <time>2021-08-13T08:45:11.197Z</time>
      </trkpt>
      <trkpt lat="46.83273" lon="8.41835">
        <ele>1529</ele>
        <time>2021-08-13T08:45:12.198Z</time>
      </trkpt>
      <trkpt lat="46.83272" lon="8.41834">
        <ele>1529</ele>
        <time>2021-08-13T08:45:13.198Z</time>
      </trkpt>
      <trkpt lat="46.83271" lon="8.41832">
        <ele>1529</ele>
        <time>2021-08-13T08:45:14.198Z</time>
      </trkpt>
      <trkpt lat="46.83269" lon="8.4183">
        <ele>1530</ele>
        <time>2021-08-13T08:45:15.198Z</time>
      </trkpt>
      <trkpt lat="46.83268" lon="8.41828">
        <ele>1529</ele>
        <time>2021-08-13T08:45:16.198Z</time>
      </trkpt>
      <trkpt lat="46.83268" lon="8.41828">
        <ele>1528</ele>
        <time>2021-08-13T08:45:17.198Z</time>
      </trkpt>
      <trkpt lat="46.83267" lon="8.41827">
        <ele>1527</ele>
        <time>2021-08-13T08:45:18.198Z</time>
      </trkpt>
      <trkpt lat="46.83266" lon="8.41826">
        <ele>1527</ele>
        <time>2021-08-13T08:45:19.198Z</time>
      </trkpt>
      <trkpt lat="46.83266" lon="8.41824">
        <ele>1526</ele>
        <time>2021-08-13T08:45:20.197Z</time>
      </trkpt>
      <trkpt lat="46.83265" lon="8.41823">
        <ele>1525</ele>
        <time>2021-08-13T08:45:21.197Z</time>
      </trkpt>
      <trkpt lat="46.83265" lon="8.41821">
        <ele>1525</ele>
        <time>2021-08-13T08:45:22.197Z</time>
      </trkpt>
      <trkpt lat="46.83265" lon="8.4182">
        <ele>1525</ele>
        <time>2021-08-13T08:45:23.197Z</time>
      </trkpt>
      <trkpt lat="46.83265" lon="8.41819">
        <ele>1524</ele>
        <time>2021-08-13T08:45:24.197Z</time>
      </trkpt>
      <trkpt lat="46.83265" lon="8.41817">
        <ele>1524</ele>
        <time>2021-08-13T08:45:25.198Z</time>
      </trkpt>
      <trkpt lat="46.83264" lon="8.41815">
        <ele>1523</ele>
        <time>2021-08-13T08:45:26.198Z</time>
      </trkpt>
      <trkpt lat="46.83265" lon="8.41813">
        <ele>1522</ele>
        <time>2021-08-13T08:45:27.197Z</time>
      </trkpt>
      <trkpt lat="46.83266" lon="8.41811">
        <ele>1522</ele>
        <time>2021-08-13T08:45:28.198Z</time>
      </trkpt>
      <trkpt lat="46.83266" lon="8.41809">
        <ele>1522</ele>
        <time>2021-08-13T08:45:29.198Z</time>
      </trkpt>
      <trkpt lat="46.83267" lon="8.41808">
        <ele>1521</ele>
        <time>2021-08-13T08:45:30.198Z</time>
      </trkpt>
      <trkpt lat="46.83267" lon="8.41806">
        <ele>1521</ele>
        <time>2021-08-13T08:45:31.198Z</time>
      </trkpt>
      <trkpt lat="46.83266" lon="8.41804">
        <ele>1521</ele>
        <time>2021-08-13T08:45:32.198Z</time>
      </trkpt>
      <trkpt lat="46.83267" lon="8.41802">
        <ele>1520</ele>
        <time>2021-08-13T08:45:33.198Z</time>
      </trkpt>
      <trkpt lat="46.83267" lon="8.418">
        <ele>1520</ele>
        <time>2021-08-13T08:45:34.197Z</time>
      </trkpt>
      <trkpt lat="46.83267" lon="8.41798">
        <ele>1519</ele>
        <time>2021-08-13T08:45:35.198Z</time>
      </trkpt>
      <trkpt lat="46.83267" lon="8.41796">
        <ele>1519</ele>
        <time>2021-08-13T08:45:36.198Z</time>
      </trkpt>
      <trkpt lat="46.83267" lon="8.41794">
        <ele>1519</ele>
        <time>2021-08-13T08:45:37.198Z</time>
      </trkpt>
      <trkpt lat="46.83267" lon="8.41793">
        <ele>1519</ele>
        <time>2021-08-13T08:45:38.197Z</time>
      </trkpt>
      <trkpt lat="46.83267" lon="8.41791">
        <ele>1519</ele>
        <time>2021-08-13T08:45:39.198Z</time>
      </trkpt>
      <trkpt lat="46.83267" lon="8.41789">
        <ele>1519</ele>
        <time>2021-08-13T08:45:40.197Z</time>
      </trkpt>
      <trkpt lat="46.83267" lon="8.41787">
        <ele>1519</ele>
        <time>2021-08-13T08:45:41.198Z</time>
      </trkpt>
      <trkpt lat="46.83267" lon="8.41785">
        <ele>1519</ele>
        <time>2021-08-13T08:45:42.198Z</time>
      </trkpt>
      <trkpt lat="46.83266" lon="8.41784">
        <ele>1519</ele>
        <time>2021-08-13T08:45:43.197Z</time>
      </trkpt>
      <trkpt lat="46.83266" lon="8.41783">
        <ele>1519</ele>
        <time>2021-08-13T08:45:44.198Z</time>
      </trkpt>
      <trkpt lat="46.83265" lon="8.41782">
        <ele>1519</ele>
        <time>2021-08-13T08:45:45.198Z</time>
      </trkpt>
      <trkpt lat="46.83265" lon="8.41782">
        <ele>1519</ele>
        <time>2021-08-13T08:45:46.198Z</time>
      </trkpt>
      <trkpt lat="46.83264" lon="8.41781">
        <ele>1520</ele>
        <time>2021-08-13T08:45:47.198Z</time>
      </trkpt>
      <trkpt lat="46.83264" lon="8.4178">
        <ele>1520</ele>
        <time>2021-08-13T08:45:48.198Z</time>
      </trkpt>
      <trkpt lat="46.83264" lon="8.4178">
        <ele>1520</ele>
        <time>2021-08-13T08:45:49.197Z</time>
      </trkpt>
      <trkpt lat="46.83263" lon="8.41779">
        <ele>1519</ele>
        <time>2021-08-13T08:45:50.197Z</time>
      </trkpt>
      <trkpt lat="46.83262" lon="8.41778">
        <ele>1519</ele>
        <time>2021-08-13T08:45:51.198Z</time>
      </trkpt>
      <trkpt lat="46.83261" lon="8.41777">
        <ele>1519</ele>
        <time>2021-08-13T08:45:52.198Z</time>
      </trkpt>
      <trkpt lat="46.8326" lon="8.41776">
        <ele>1518</ele>
        <time>2021-08-13T08:45:53.197Z</time>
      </trkpt>
      <trkpt lat="46.83259" lon="8.41775">
        <ele>1518</ele>
        <time>2021-08-13T08:45:54.197Z</time>
      </trkpt>
      <trkpt lat="46.83258" lon="8.41774">
        <ele>1518</ele>
        <time>2021-08-13T08:45:55.198Z</time>
      </trkpt>
      <trkpt lat="46.83257" lon="8.41772">
        <ele>1518</ele>
        <time>2021-08-13T08:45:56.198Z</time>
      </trkpt>
      <trkpt lat="46.83257" lon="8.4177">
        <ele>1518</ele>
        <time>2021-08-13T08:45:57.198Z</time>
      </trkpt>
      <trkpt lat="46.83256" lon="8.41769">
        <ele>1518</ele>
        <time>2021-08-13T08:45:58.198Z</time>
      </trkpt>
      <trkpt lat="46.83255" lon="8.41767">
        <ele>1518</ele>
        <time>2021-08-13T08:45:59.197Z</time>
      </trkpt>
      <trkpt lat="46.83254" lon="8.41765">
        <ele>1518</ele>
        <time>2021-08-13T08:46:00.198Z</time>
      </trkpt>
      <trkpt lat="46.83254" lon="8.41764">
        <ele>1518</ele>
        <time>2021-08-13T08:46:01.198Z</time>
      </trkpt>
      <trkpt lat="46.83253" lon="8.41763">
        <ele>1518</ele>
        <time>2021-08-13T08:46:02.197Z</time>
      </trkpt>
      <trkpt lat="46.83252" lon="8.41762">
        <ele>1517</ele>
        <time>2021-08-13T08:46:03.197Z</time>
      </trkpt>
      <trkpt lat="46.83251" lon="8.41761">
        <ele>1517</ele>
        <time>2021-08-13T08:46:04.198Z</time>
      </trkpt>
      <trkpt lat="46.8325" lon="8.4176">
        <ele>1517</ele>
        <time>2021-08-13T08:46:05.198Z</time>
      </trkpt>
      <trkpt lat="46.83249" lon="8.41759">
        <ele>1517</ele>
        <time>2021-08-13T08:46:06.197Z</time>
      </trkpt>
      <trkpt lat="46.83248" lon="8.41757">
        <ele>1517</ele>
        <time>2021-08-13T08:46:07.198Z</time>
      </trkpt>
      <trkpt lat="46.83248" lon="8.41756">
        <ele>1517</ele>
        <time>2021-08-13T08:46:08.197Z</time>
      </trkpt>
      <trkpt lat="46.83247" lon="8.41755">
        <ele>1517</ele>
        <time>2021-08-13T08:46:09.198Z</time>
      </trkpt>
      <trkpt lat="46.83247" lon="8.41753">
        <ele>1517</ele>
        <time>2021-08-13T08:46:10.197Z</time>
      </trkpt>
      <trkpt lat="46.83246" lon="8.41751">
        <ele>1517</ele>
        <time>2021-08-13T08:46:11.198Z</time>
      </trkpt>
      <trkpt lat="46.83245" lon="8.4175">
        <ele>1516</ele>
        <time>2021-08-13T08:46:12.197Z</time>
      </trkpt>
      <trkpt lat="46.83244" lon="8.41748">
        <ele>1516</ele>
        <time>2021-08-13T08:46:13.198Z</time>
      </trkpt>
      <trkpt lat="46.83244" lon="8.41747">
        <ele>1516</ele>
        <time>2021-08-13T08:46:14.197Z</time>
      </trkpt>
      <trkpt lat="46.83243" lon="8.41745">
        <ele>1516</ele>
        <time>2021-08-13T08:46:15.198Z</time>
      </trkpt>
      <trkpt lat="46.83243" lon="8.41744">
        <ele>1516</ele>
        <time>2021-08-13T08:46:16.197Z</time>
      </trkpt>
      <trkpt lat="46.83242" lon="8.41743">
        <ele>1516</ele>
        <time>2021-08-13T08:46:17.198Z</time>
      </trkpt>
      <trkpt lat="46.83241" lon="8.41742">
        <ele>1516</ele>
        <time>2021-08-13T08:46:18.197Z</time>
      </trkpt>
      <trkpt lat="46.83241" lon="8.4174">
        <ele>1516</ele>
        <time>2021-08-13T08:46:19.198Z</time>
      </trkpt>
      <trkpt lat="46.8324" lon="8.41738">
        <ele>1516</ele>
        <time>2021-08-13T08:46:20.198Z</time>
      </trkpt>
      <trkpt lat="46.8324" lon="8.41737">
        <ele>1515</ele>
        <time>2021-08-13T08:46:21.197Z</time>
      </trkpt>
      <trkpt lat="46.83239" lon="8.41735">
        <ele>1515</ele>
        <time>2021-08-13T08:46:22.198Z</time>
      </trkpt>
      <trkpt lat="46.83238" lon="8.41734">
        <ele>1515</ele>
        <time>2021-08-13T08:46:23.198Z</time>
      </trkpt>
      <trkpt lat="46.83237" lon="8.41733">
        <ele>1514</ele>
        <time>2021-08-13T08:46:24.197Z</time>
      </trkpt>
      <trkpt lat="46.83236" lon="8.41731">
        <ele>1514</ele>
        <time>2021-08-13T08:46:25.198Z</time>
      </trkpt>
      <trkpt lat="46.83235" lon="8.41731">
        <ele>1514</ele>
        <time>2021-08-13T08:46:26.198Z</time>
      </trkpt>
      <trkpt lat="46.83234" lon="8.4173">
        <ele>1514</ele>
        <time>2021-08-13T08:46:27.197Z</time>
      </trkpt>
      <trkpt lat="46.83233" lon="8.4173">
        <ele>1515</ele>
        <time>2021-08-13T08:46:28.198Z</time>
      </trkpt>
      <trkpt lat="46.83232" lon="8.41729">
        <ele>1515</ele>
        <time>2021-08-13T08:46:29.198Z</time>
      </trkpt>
      <trkpt lat="46.83231" lon="8.41729">
        <ele>1515</ele>
        <time>2021-08-13T08:46:30.198Z</time>
      </trkpt>
      <trkpt lat="46.8323" lon="8.41728">
        <ele>1515</ele>
        <time>2021-08-13T08:46:31.197Z</time>
      </trkpt>
      <trkpt lat="46.83229" lon="8.41728">
        <ele>1514</ele>
        <time>2021-08-13T08:46:32.197Z</time>
      </trkpt>
      <trkpt lat="46.83228" lon="8.41727">
        <ele>1514</ele>
        <time>2021-08-13T08:46:33.198Z</time>
      </trkpt>
      <trkpt lat="46.83227" lon="8.41726">
        <ele>1514</ele>
        <time>2021-08-13T08:46:34.197Z</time>
      </trkpt>
      <trkpt lat="46.83226" lon="8.41724">
        <ele>1513</ele>
        <time>2021-08-13T08:46:35.198Z</time>
      </trkpt>
      <trkpt lat="46.83225" lon="8.41723">
        <ele>1513</ele>
        <time>2021-08-13T08:46:36.198Z</time>
      </trkpt>
      <trkpt lat="46.83224" lon="8.41721">
        <ele>1513</ele>
        <time>2021-08-13T08:46:37.198Z</time>
      </trkpt>
      <trkpt lat="46.83223" lon="8.4172">
        <ele>1513</ele>
        <time>2021-08-13T08:46:38.198Z</time>
      </trkpt>
      <trkpt lat="46.83222" lon="8.41719">
        <ele>1513</ele>
        <time>2021-08-13T08:46:39.198Z</time>
      </trkpt>
      <trkpt lat="46.83221" lon="8.41717">
        <ele>1513</ele>
        <time>2021-08-13T08:46:40.197Z</time>
      </trkpt>
      <trkpt lat="46.8322" lon="8.41715">
        <ele>1513</ele>
        <time>2021-08-13T08:46:41.198Z</time>
      </trkpt>
      <trkpt lat="46.8322" lon="8.41713">
        <ele>1512</ele>
        <time>2021-08-13T08:46:42.197Z</time>
      </trkpt>
      <trkpt lat="46.83219" lon="8.41711">
        <ele>1512</ele>
        <time>2021-08-13T08:46:43.198Z</time>
      </trkpt>
      <trkpt lat="46.83219" lon="8.41709">
        <ele>1512</ele>
        <time>2021-08-13T08:46:44.198Z</time>
      </trkpt>
      <trkpt lat="46.83218" lon="8.41707">
        <ele>1512</ele>
        <time>2021-08-13T08:46:45.197Z</time>
      </trkpt>
      <trkpt lat="46.83218" lon="8.41705">
        <ele>1511</ele>
        <time>2021-08-13T08:46:46.198Z</time>
      </trkpt>
      <trkpt lat="46.83218" lon="8.41703">
        <ele>1511</ele>
        <time>2021-08-13T08:46:47.198Z</time>
      </trkpt>
      <trkpt lat="46.83218" lon="8.41701">
        <ele>1511</ele>
        <time>2021-08-13T08:46:48.197Z</time>
      </trkpt>
      <trkpt lat="46.83218" lon="8.41699">
        <ele>1511</ele>
        <time>2021-08-13T08:46:49.198Z</time>
      </trkpt>
      <trkpt lat="46.83219" lon="8.41697">
        <ele>1510</ele>
        <time>2021-08-13T08:46:50.198Z</time>
      </trkpt>
      <trkpt lat="46.83219" lon="8.41695">
        <ele>1510</ele>
        <time>2021-08-13T08:46:51.197Z</time>
      </trkpt>
      <trkpt lat="46.83219" lon="8.41693">
        <ele>1510</ele>
        <time>2021-08-13T08:46:52.198Z</time>
      </trkpt>
      <trkpt lat="46.83219" lon="8.41691">
        <ele>1509</ele>
        <time>2021-08-13T08:46:53.197Z</time>
      </trkpt>
      <trkpt lat="46.83219" lon="8.41689">
        <ele>1509</ele>
        <time>2021-08-13T08:46:54.198Z</time>
      </trkpt>
      <trkpt lat="46.8322" lon="8.41687">
        <ele>1509</ele>
        <time>2021-08-13T08:46:55.197Z</time>
      </trkpt>
      <trkpt lat="46.83221" lon="8.41685">
        <ele>1509</ele>
        <time>2021-08-13T08:46:56.198Z</time>
      </trkpt>
      <trkpt lat="46.83222" lon="8.41683">
        <ele>1509</ele>
        <time>2021-08-13T08:46:57.198Z</time>
      </trkpt>
      <trkpt lat="46.83222" lon="8.41681">
        <ele>1509</ele>
        <time>2021-08-13T08:46:58.197Z</time>
      </trkpt>
      <trkpt lat="46.83223" lon="8.41679">
        <ele>1509</ele>
        <time>2021-08-13T08:46:59.198Z</time>
      </trkpt>
      <trkpt lat="46.83223" lon="8.41677">
        <ele>1509</ele>
        <time>2021-08-13T08:47:00.197Z</time>
      </trkpt>
      <trkpt lat="46.83224" lon="8.41675">
        <ele>1509</ele>
        <time>2021-08-13T08:47:01.198Z</time>
      </trkpt>
      <trkpt lat="46.83224" lon="8.41673">
        <ele>1508</ele>
        <time>2021-08-13T08:47:02.197Z</time>
      </trkpt>
      <trkpt lat="46.83224" lon="8.41671">
        <ele>1508</ele>
        <time>2021-08-13T08:47:03.198Z</time>
      </trkpt>
      <trkpt lat="46.83225" lon="8.4167">
        <ele>1507</ele>
        <time>2021-08-13T08:47:04.198Z</time>
      </trkpt>
      <trkpt lat="46.83226" lon="8.41668">
        <ele>1507</ele>
        <time>2021-08-13T08:47:05.198Z</time>
      </trkpt>
      <trkpt lat="46.83226" lon="8.41667">
        <ele>1507</ele>
        <time>2021-08-13T08:47:06.198Z</time>
      </trkpt>
      <trkpt lat="46.83227" lon="8.41665">
        <ele>1507</ele>
        <time>2021-08-13T08:47:07.198Z</time>
      </trkpt>
      <trkpt lat="46.83228" lon="8.41664">
        <ele>1506</ele>
        <time>2021-08-13T08:47:08.198Z</time>
      </trkpt>
      <trkpt lat="46.83228" lon="8.41663">
        <ele>1506</ele>
        <time>2021-08-13T08:47:09.197Z</time>
      </trkpt>
      <trkpt lat="46.83229" lon="8.41661">
        <ele>1506</ele>
        <time>2021-08-13T08:47:10.197Z</time>
      </trkpt>
      <trkpt lat="46.83229" lon="8.4166">
        <ele>1506</ele>
        <time>2021-08-13T08:47:11.197Z</time>
      </trkpt>
      <trkpt lat="46.83229" lon="8.41658">
        <ele>1506</ele>
        <time>2021-08-13T08:47:12.198Z</time>
      </trkpt>
      <trkpt lat="46.8323" lon="8.41656">
        <ele>1506</ele>
        <time>2021-08-13T08:47:13.198Z</time>
      </trkpt>
      <trkpt lat="46.83229" lon="8.41654">
        <ele>1506</ele>
        <time>2021-08-13T08:47:14.198Z</time>
      </trkpt>
      <trkpt lat="46.83229" lon="8.41653">
        <ele>1506</ele>
        <time>2021-08-13T08:47:15.197Z</time>
      </trkpt>
      <trkpt lat="46.83229" lon="8.41651">
        <ele>1506</ele>
        <time>2021-08-13T08:47:16.197Z</time>
      </trkpt>
      <trkpt lat="46.83229" lon="8.4165">
        <ele>1506</ele>
        <time>2021-08-13T08:47:17.197Z</time>
      </trkpt>
      <trkpt lat="46.83229" lon="8.41648">
        <ele>1506</ele>
        <time>2021-08-13T08:47:18.197Z</time>
      </trkpt>
      <trkpt lat="46.83229" lon="8.41646">
        <ele>1506</ele>
        <time>2021-08-13T08:47:19.198Z</time>
      </trkpt>
      <trkpt lat="46.83228" lon="8.41645">
        <ele>1506</ele>
        <time>2021-08-13T08:47:20.197Z</time>
      </trkpt>
      <trkpt lat="46.83228" lon="8.41643">
        <ele>1506</ele>
        <time>2021-08-13T08:47:21.197Z</time>
      </trkpt>
      <trkpt lat="46.83228" lon="8.41641">
        <ele>1506</ele>
        <time>2021-08-13T08:47:22.197Z</time>
      </trkpt>
      <trkpt lat="46.83227" lon="8.41639">
        <ele>1505</ele>
        <time>2021-08-13T08:47:23.197Z</time>
      </trkpt>
      <trkpt lat="46.83226" lon="8.41637">
        <ele>1505</ele>
        <time>2021-08-13T08:47:24.198Z</time>
      </trkpt>
      <trkpt lat="46.83226" lon="8.41635">
        <ele>1506</ele>
        <time>2021-08-13T08:47:25.197Z</time>
      </trkpt>
      <trkpt lat="46.83225" lon="8.41633">
        <ele>1506</ele>
        <time>2021-08-13T08:47:26.197Z</time>
      </trkpt>
      <trkpt lat="46.83224" lon="8.41632">
        <ele>1506</ele>
        <time>2021-08-13T08:47:27.197Z</time>
      </trkpt>
      <trkpt lat="46.83223" lon="8.4163">
        <ele>1506</ele>
        <time>2021-08-13T08:47:28.197Z</time>
      </trkpt>
      <trkpt lat="46.83223" lon="8.41627">
        <ele>1506</ele>
        <time>2021-08-13T08:47:29.197Z</time>
      </trkpt>
      <trkpt lat="46.83222" lon="8.41625">
        <ele>1505</ele>
        <time>2021-08-13T08:47:30.197Z</time>
      </trkpt>
      <trkpt lat="46.83222" lon="8.41623">
        <ele>1505</ele>
        <time>2021-08-13T08:47:31.198Z</time>
      </trkpt>
      <trkpt lat="46.83221" lon="8.41621">
        <ele>1506</ele>
        <time>2021-08-13T08:47:32.197Z</time>
      </trkpt>
      <trkpt lat="46.83221" lon="8.4162">
        <ele>1506</ele>
        <time>2021-08-13T08:47:33.197Z</time>
      </trkpt>
      <trkpt lat="46.8322" lon="8.41618">
        <ele>1505</ele>
        <time>2021-08-13T08:47:34.198Z</time>
      </trkpt>
      <trkpt lat="46.8322" lon="8.41616">
        <ele>1505</ele>
        <time>2021-08-13T08:47:35.197Z</time>
      </trkpt>
      <trkpt lat="46.8322" lon="8.41614">
        <ele>1505</ele>
        <time>2021-08-13T08:47:36.197Z</time>
      </trkpt>
      <trkpt lat="46.83219" lon="8.41612">
        <ele>1504</ele>
        <time>2021-08-13T08:47:37.197Z</time>
      </trkpt>
      <trkpt lat="46.8322" lon="8.4161">
        <ele>1504</ele>
        <time>2021-08-13T08:47:38.197Z</time>
      </trkpt>
      <trkpt lat="46.8322" lon="8.41608">
        <ele>1504</ele>
        <time>2021-08-13T08:47:39.197Z</time>
      </trkpt>
      <trkpt lat="46.83221" lon="8.41607">
        <ele>1504</ele>
        <time>2021-08-13T08:47:40.197Z</time>
      </trkpt>
      <trkpt lat="46.83222" lon="8.41606">
        <ele>1504</ele>
        <time>2021-08-13T08:47:41.197Z</time>
      </trkpt>
      <trkpt lat="46.83222" lon="8.41605">
        <ele>1504</ele>
        <time>2021-08-13T08:47:42.197Z</time>
      </trkpt>
      <trkpt lat="46.83222" lon="8.41604">
        <ele>1504</ele>
        <time>2021-08-13T08:47:43.197Z</time>
      </trkpt>
      <trkpt lat="46.83222" lon="8.41603">
        <ele>1504</ele>
        <time>2021-08-13T08:47:44.197Z</time>
      </trkpt>
      <trkpt lat="46.83222" lon="8.41602">
        <ele>1504</ele>
        <time>2021-08-13T08:47:45.197Z</time>
      </trkpt>
      <trkpt lat="46.83222" lon="8.41602">
        <ele>1503</ele>
        <time>2021-08-13T08:47:46.197Z</time>
      </trkpt>
      <trkpt lat="46.83222" lon="8.41602">
        <ele>1503</ele>
        <time>2021-08-13T08:47:47.197Z</time>
      </trkpt>
      <trkpt lat="46.83223" lon="8.41604">
        <ele>1501</ele>
        <time>2021-08-13T08:47:48.198Z</time>
      </trkpt>
      <trkpt lat="46.83223" lon="8.41604">
        <ele>1501</ele>
        <time>2021-08-13T08:47:49.198Z</time>
      </trkpt>
      <trkpt lat="46.83222" lon="8.41605">
        <ele>1501</ele>
        <time>2021-08-13T08:47:50.198Z</time>
      </trkpt>
      <trkpt lat="46.83223" lon="8.41606">
        <ele>1501</ele>
        <time>2021-08-13T08:47:51.198Z</time>
      </trkpt>
      <trkpt lat="46.83223" lon="8.41606">
        <ele>1501</ele>
        <time>2021-08-13T08:47:52.198Z</time>
      </trkpt>
      <trkpt lat="46.83223" lon="8.41607">
        <ele>1501</ele>
        <time>2021-08-13T08:47:53.198Z</time>
      </trkpt>
      <trkpt lat="46.83223" lon="8.41607">
        <ele>1501</ele>
        <time>2021-08-13T08:47:54.198Z</time>
      </trkpt>
      <trkpt lat="46.83223" lon="8.41605">
        <ele>1504</ele>
        <time>2021-08-13T08:47:55.198Z</time>
      </trkpt>
      <trkpt lat="46.83223" lon="8.41604">
        <ele>1504</ele>
        <time>2021-08-13T08:47:56.198Z</time>
      </trkpt>
      <trkpt lat="46.83224" lon="8.41602">
        <ele>1503</ele>
        <time>2021-08-13T08:47:57.199Z</time>
      </trkpt>
      <trkpt lat="46.83224" lon="8.41601">
        <ele>1503</ele>
        <time>2021-08-13T08:47:58.198Z</time>
      </trkpt>
      <trkpt lat="46.83224" lon="8.41599">
        <ele>1502</ele>
        <time>2021-08-13T08:47:59.199Z</time>
      </trkpt>
      <trkpt lat="46.83224" lon="8.41597">
        <ele>1502</ele>
        <time>2021-08-13T08:48:00.198Z</time>
      </trkpt>
      <trkpt lat="46.83224" lon="8.41596">
        <ele>1502</ele>
        <time>2021-08-13T08:48:01.198Z</time>
      </trkpt>
      <trkpt lat="46.83224" lon="8.41593">
        <ele>1501</ele>
        <time>2021-08-13T08:48:02.198Z</time>
      </trkpt>
      <trkpt lat="46.83223" lon="8.4159">
        <ele>1501</ele>
        <time>2021-08-13T08:48:03.198Z</time>
      </trkpt>
      <trkpt lat="46.83223" lon="8.41589">
        <ele>1501</ele>
        <time>2021-08-13T08:48:04.198Z</time>
      </trkpt>
      <trkpt lat="46.83222" lon="8.41587">
        <ele>1501</ele>
        <time>2021-08-13T08:48:05.199Z</time>
      </trkpt>
      <trkpt lat="46.83222" lon="8.41585">
        <ele>1500</ele>
        <time>2021-08-13T08:48:06.198Z</time>
      </trkpt>
      <trkpt lat="46.8322" lon="8.41582">
        <ele>1500</ele>
        <time>2021-08-13T08:48:07.199Z</time>
      </trkpt>
      <trkpt lat="46.83219" lon="8.4158">
        <ele>1501</ele>
        <time>2021-08-13T08:48:08.199Z</time>
      </trkpt>
      <trkpt lat="46.83218" lon="8.41578">
        <ele>1501</ele>
        <time>2021-08-13T08:48:09.199Z</time>
      </trkpt>
      <trkpt lat="46.83216" lon="8.41576">
        <ele>1502</ele>
        <time>2021-08-13T08:48:10.198Z</time>
      </trkpt>
      <trkpt lat="46.83214" lon="8.41575">
        <ele>1502</ele>
        <time>2021-08-13T08:48:11.199Z</time>
      </trkpt>
      <trkpt lat="46.83213" lon="8.41575">
        <ele>1502</ele>
        <time>2021-08-13T08:48:12.198Z</time>
      </trkpt>
      <trkpt lat="46.83211" lon="8.41574">
        <ele>1502</ele>
        <time>2021-08-13T08:48:13.199Z</time>
      </trkpt>
      <trkpt lat="46.8321" lon="8.41574">
        <ele>1503</ele>
        <time>2021-08-13T08:48:14.199Z</time>
      </trkpt>
      <trkpt lat="46.83209" lon="8.41574">
        <ele>1503</ele>
        <time>2021-08-13T08:48:15.198Z</time>
      </trkpt>
      <trkpt lat="46.83208" lon="8.41574">
        <ele>1504</ele>
        <time>2021-08-13T08:48:16.198Z</time>
      </trkpt>
      <trkpt lat="46.83207" lon="8.41574">
        <ele>1504</ele>
        <time>2021-08-13T08:48:17.199Z</time>
      </trkpt>
      <trkpt lat="46.83206" lon="8.41575">
        <ele>1504</ele>
        <time>2021-08-13T08:48:18.199Z</time>
      </trkpt>
      <trkpt lat="46.83205" lon="8.41576">
        <ele>1504</ele>
        <time>2021-08-13T08:48:19.199Z</time>
      </trkpt>
      <trkpt lat="46.83203" lon="8.41576">
        <ele>1504</ele>
        <time>2021-08-13T08:48:20.198Z</time>
      </trkpt>
      <trkpt lat="46.83202" lon="8.41576">
        <ele>1504</ele>
        <time>2021-08-13T08:48:21.198Z</time>
      </trkpt>
      <trkpt lat="46.83201" lon="8.41577">
        <ele>1505</ele>
        <time>2021-08-13T08:48:22.198Z</time>
      </trkpt>
      <trkpt lat="46.83199" lon="8.41577">
        <ele>1505</ele>
        <time>2021-08-13T08:48:23.198Z</time>
      </trkpt>
      <trkpt lat="46.83198" lon="8.41577">
        <ele>1506</ele>
        <time>2021-08-13T08:48:24.199Z</time>
      </trkpt>
      <trkpt lat="46.83196" lon="8.41578">
        <ele>1506</ele>
        <time>2021-08-13T08:48:25.199Z</time>
      </trkpt>
      <trkpt lat="46.83195" lon="8.4158">
        <ele>1505</ele>
        <time>2021-08-13T08:48:26.199Z</time>
      </trkpt>
      <trkpt lat="46.83194" lon="8.41582">
        <ele>1504</ele>
        <time>2021-08-13T08:48:27.199Z</time>
      </trkpt>
      <trkpt lat="46.83193" lon="8.41583">
        <ele>1504</ele>
        <time>2021-08-13T08:48:28.198Z</time>
      </trkpt>
      <trkpt lat="46.83192" lon="8.41585">
        <ele>1503</ele>
        <time>2021-08-13T08:48:29.199Z</time>
      </trkpt>
      <trkpt lat="46.83191" lon="8.41586">
        <ele>1502</ele>
        <time>2021-08-13T08:48:30.199Z</time>
      </trkpt>
      <trkpt lat="46.8319" lon="8.41588">
        <ele>1501</ele>
        <time>2021-08-13T08:48:31.198Z</time>
      </trkpt>
      <trkpt lat="46.83189" lon="8.41589">
        <ele>1500</ele>
        <time>2021-08-13T08:48:32.199Z</time>
      </trkpt>
      <trkpt lat="46.83188" lon="8.4159">
        <ele>1500</ele>
        <time>2021-08-13T08:48:33.198Z</time>
      </trkpt>
      <trkpt lat="46.83187" lon="8.41592">
        <ele>1499</ele>
        <time>2021-08-13T08:48:34.198Z</time>
      </trkpt>
      <trkpt lat="46.83186" lon="8.41594">
        <ele>1499</ele>
        <time>2021-08-13T08:48:35.198Z</time>
      </trkpt>
      <trkpt lat="46.83185" lon="8.41595">
        <ele>1499</ele>
        <time>2021-08-13T08:48:36.199Z</time>
      </trkpt>
      <trkpt lat="46.83185" lon="8.41597">
        <ele>1498</ele>
        <time>2021-08-13T08:48:37.198Z</time>
      </trkpt>
      <trkpt lat="46.83184" lon="8.41599">
        <ele>1498</ele>
        <time>2021-08-13T08:48:38.198Z</time>
      </trkpt>
      <trkpt lat="46.83184" lon="8.41601">
        <ele>1497</ele>
        <time>2021-08-13T08:48:39.199Z</time>
      </trkpt>
      <trkpt lat="46.83183" lon="8.41603">
        <ele>1496</ele>
        <time>2021-08-13T08:48:40.198Z</time>
      </trkpt>
      <trkpt lat="46.83182" lon="8.41605">
        <ele>1496</ele>
        <time>2021-08-13T08:48:41.198Z</time>
      </trkpt>
      <trkpt lat="46.83182" lon="8.41606">
        <ele>1495</ele>
        <time>2021-08-13T08:48:42.198Z</time>
      </trkpt>
      <trkpt lat="46.83181" lon="8.41608">
        <ele>1495</ele>
        <time>2021-08-13T08:48:43.198Z</time>
      </trkpt>
      <trkpt lat="46.8318" lon="8.4161">
        <ele>1495</ele>
        <time>2021-08-13T08:48:44.199Z</time>
      </trkpt>
      <trkpt lat="46.8318" lon="8.41612">
        <ele>1494</ele>
        <time>2021-08-13T08:48:45.199Z</time>
      </trkpt>
      <trkpt lat="46.83179" lon="8.41614">
        <ele>1494</ele>
        <time>2021-08-13T08:48:46.198Z</time>
      </trkpt>
      <trkpt lat="46.83178" lon="8.41616">
        <ele>1494</ele>
        <time>2021-08-13T08:48:47.198Z</time>
      </trkpt>
      <trkpt lat="46.83178" lon="8.41618">
        <ele>1494</ele>
        <time>2021-08-13T08:48:48.198Z</time>
      </trkpt>
      <trkpt lat="46.83177" lon="8.4162">
        <ele>1493</ele>
        <time>2021-08-13T08:48:49.198Z</time>
      </trkpt>
      <trkpt lat="46.83176" lon="8.41621">
        <ele>1493</ele>
        <time>2021-08-13T08:48:50.198Z</time>
      </trkpt>
      <trkpt lat="46.83176" lon="8.41622">
        <ele>1493</ele>
        <time>2021-08-13T08:48:51.198Z</time>
      </trkpt>
      <trkpt lat="46.83175" lon="8.41624">
        <ele>1493</ele>
        <time>2021-08-13T08:48:52.198Z</time>
      </trkpt>
      <trkpt lat="46.83174" lon="8.41625">
        <ele>1493</ele>
        <time>2021-08-13T08:48:53.199Z</time>
      </trkpt>
      <trkpt lat="46.83173" lon="8.41626">
        <ele>1492</ele>
        <time>2021-08-13T08:48:54.199Z</time>
      </trkpt>
      <trkpt lat="46.83173" lon="8.41627">
        <ele>1492</ele>
        <time>2021-08-13T08:48:55.198Z</time>
      </trkpt>
      <trkpt lat="46.83171" lon="8.41629">
        <ele>1493</ele>
        <time>2021-08-13T08:48:56.198Z</time>
      </trkpt>
      <trkpt lat="46.8317" lon="8.4163">
        <ele>1493</ele>
        <time>2021-08-13T08:48:57.198Z</time>
      </trkpt>
      <trkpt lat="46.83169" lon="8.41631">
        <ele>1493</ele>
        <time>2021-08-13T08:48:58.199Z</time>
      </trkpt>
      <trkpt lat="46.83169" lon="8.41632">
        <ele>1493</ele>
        <time>2021-08-13T08:48:59.198Z</time>
      </trkpt>
      <trkpt lat="46.83168" lon="8.41632">
        <ele>1493</ele>
        <time>2021-08-13T08:49:00.198Z</time>
      </trkpt>
      <trkpt lat="46.83166" lon="8.41633">
        <ele>1493</ele>
        <time>2021-08-13T08:49:01.198Z</time>
      </trkpt>
      <trkpt lat="46.83165" lon="8.41634">
        <ele>1493</ele>
        <time>2021-08-13T08:49:02.198Z</time>
      </trkpt>
      <trkpt lat="46.83164" lon="8.41635">
        <ele>1493</ele>
        <time>2021-08-13T08:49:03.198Z</time>
      </trkpt>
      <trkpt lat="46.83163" lon="8.41635">
        <ele>1493</ele>
        <time>2021-08-13T08:49:04.198Z</time>
      </trkpt>
      <trkpt lat="46.83161" lon="8.41636">
        <ele>1493</ele>
        <time>2021-08-13T08:49:05.198Z</time>
      </trkpt>
      <trkpt lat="46.8316" lon="8.41636">
        <ele>1493</ele>
        <time>2021-08-13T08:49:06.198Z</time>
      </trkpt>
      <trkpt lat="46.83159" lon="8.41637">
        <ele>1493</ele>
        <time>2021-08-13T08:49:07.198Z</time>
      </trkpt>
      <trkpt lat="46.83157" lon="8.41637">
        <ele>1493</ele>
        <time>2021-08-13T08:49:08.199Z</time>
      </trkpt>
      <trkpt lat="46.83156" lon="8.41638">
        <ele>1493</ele>
        <time>2021-08-13T08:49:09.199Z</time>
      </trkpt>
      <trkpt lat="46.83155" lon="8.41639">
        <ele>1494</ele>
        <time>2021-08-13T08:49:10.198Z</time>
      </trkpt>
      <trkpt lat="46.83154" lon="8.41639">
        <ele>1494</ele>
        <time>2021-08-13T08:49:11.198Z</time>
      </trkpt>
      <trkpt lat="46.83152" lon="8.4164">
        <ele>1494</ele>
        <time>2021-08-13T08:49:12.198Z</time>
      </trkpt>
      <trkpt lat="46.83151" lon="8.41641">
        <ele>1494</ele>
        <time>2021-08-13T08:49:13.198Z</time>
      </trkpt>
      <trkpt lat="46.8315" lon="8.41642">
        <ele>1494</ele>
        <time>2021-08-13T08:49:14.199Z</time>
      </trkpt>
      <trkpt lat="46.83149" lon="8.41643">
        <ele>1494</ele>
        <time>2021-08-13T08:49:15.198Z</time>
      </trkpt>
      <trkpt lat="46.83148" lon="8.41643">
        <ele>1494</ele>
        <time>2021-08-13T08:49:16.198Z</time>
      </trkpt>
      <trkpt lat="46.83147" lon="8.41644">
        <ele>1493</ele>
        <time>2021-08-13T08:49:17.199Z</time>
      </trkpt>
      <trkpt lat="46.83146" lon="8.41644">
        <ele>1493</ele>
        <time>2021-08-13T08:49:18.199Z</time>
      </trkpt>
      <trkpt lat="46.83146" lon="8.41644">
        <ele>1493</ele>
        <time>2021-08-13T08:49:19.199Z</time>
      </trkpt>
      <trkpt lat="46.83146" lon="8.41644">
        <ele>1492</ele>
        <time>2021-08-13T08:49:21.198Z</time>
      </trkpt>
      <trkpt lat="46.83146" lon="8.41642">
        <ele>1492</ele>
        <time>2021-08-13T08:49:23.198Z</time>
      </trkpt>
      <trkpt lat="46.83145" lon="8.41643">
        <ele>1492</ele>
        <time>2021-08-13T08:49:24.199Z</time>
      </trkpt>
      <trkpt lat="46.83145" lon="8.41644">
        <ele>1492</ele>
        <time>2021-08-13T08:49:25.198Z</time>
      </trkpt>
      <trkpt lat="46.83145" lon="8.41645">
        <ele>1491</ele>
        <time>2021-08-13T08:49:26.198Z</time>
      </trkpt>
      <trkpt lat="46.83144" lon="8.41645">
        <ele>1491</ele>
        <time>2021-08-13T08:49:27.199Z</time>
      </trkpt>
      <trkpt lat="46.83145" lon="8.41644">
        <ele>1490</ele>
        <time>2021-08-13T08:49:28.200Z</time>
      </trkpt>
      <trkpt lat="46.83145" lon="8.41643">
        <ele>1490</ele>
        <time>2021-08-13T08:49:29.200Z</time>
      </trkpt>
      <trkpt lat="46.83145" lon="8.41643">
        <ele>1491</ele>
        <time>2021-08-13T08:49:30.199Z</time>
      </trkpt>
      <trkpt lat="46.83144" lon="8.41643">
        <ele>1490</ele>
        <time>2021-08-13T08:49:31.199Z</time>
      </trkpt>
      <trkpt lat="46.83144" lon="8.41644">
        <ele>1490</ele>
        <time>2021-08-13T08:49:32.199Z</time>
      </trkpt>
      <trkpt lat="46.83143" lon="8.41644">
        <ele>1490</ele>
        <time>2021-08-13T08:49:33.200Z</time>
      </trkpt>
      <trkpt lat="46.83142" lon="8.41644">
        <ele>1490</ele>
        <time>2021-08-13T08:49:34.199Z</time>
      </trkpt>
      <trkpt lat="46.83142" lon="8.41645">
        <ele>1490</ele>
        <time>2021-08-13T08:49:35.200Z</time>
      </trkpt>
      <trkpt lat="46.83141" lon="8.41645">
        <ele>1490</ele>
        <time>2021-08-13T08:49:36.200Z</time>
      </trkpt>
      <trkpt lat="46.83141" lon="8.41645">
        <ele>1490</ele>
        <time>2021-08-13T08:49:37.199Z</time>
      </trkpt>
      <trkpt lat="46.8314" lon="8.41646">
        <ele>1490</ele>
        <time>2021-08-13T08:49:38.199Z</time>
      </trkpt>
      <trkpt lat="46.83139" lon="8.41645">
        <ele>1490</ele>
        <time>2021-08-13T08:49:39.199Z</time>
      </trkpt>
      <trkpt lat="46.83138" lon="8.41645">
        <ele>1491</ele>
        <time>2021-08-13T08:49:40.200Z</time>
      </trkpt>
      <trkpt lat="46.83137" lon="8.41644">
        <ele>1491</ele>
        <time>2021-08-13T08:49:41.199Z</time>
      </trkpt>
      <trkpt lat="46.83136" lon="8.41644">
        <ele>1492</ele>
        <time>2021-08-13T08:49:42.199Z</time>
      </trkpt>
      <trkpt lat="46.83135" lon="8.41644">
        <ele>1492</ele>
        <time>2021-08-13T08:49:43.200Z</time>
      </trkpt>
      <trkpt lat="46.83134" lon="8.41645">
        <ele>1493</ele>
        <time>2021-08-13T08:49:44.200Z</time>
      </trkpt>
      <trkpt lat="46.83133" lon="8.41645">
        <ele>1493</ele>
        <time>2021-08-13T08:49:45.200Z</time>
      </trkpt>
      <trkpt lat="46.83132" lon="8.41645">
        <ele>1493</ele>
        <time>2021-08-13T08:49:46.200Z</time>
      </trkpt>
      <trkpt lat="46.83131" lon="8.41645">
        <ele>1493</ele>
        <time>2021-08-13T08:49:47.199Z</time>
      </trkpt>
      <trkpt lat="46.83129" lon="8.41645">
        <ele>1493</ele>
        <time>2021-08-13T08:49:48.199Z</time>
      </trkpt>
      <trkpt lat="46.83129" lon="8.41645">
        <ele>1493</ele>
        <time>2021-08-13T08:49:49.200Z</time>
      </trkpt>
      <trkpt lat="46.83128" lon="8.41645">
        <ele>1493</ele>
        <time>2021-08-13T08:49:50.200Z</time>
      </trkpt>
      <trkpt lat="46.83128" lon="8.41644">
        <ele>1493</ele>
        <time>2021-08-13T08:49:51.200Z</time>
      </trkpt>
      <trkpt lat="46.83128" lon="8.41644">
        <ele>1493</ele>
        <time>2021-08-13T08:49:52.200Z</time>
      </trkpt>
      <trkpt lat="46.83128" lon="8.41643">
        <ele>1492</ele>
        <time>2021-08-13T08:49:53.200Z</time>
      </trkpt>
      <trkpt lat="46.83128" lon="8.41642">
        <ele>1492</ele>
        <time>2021-08-13T08:49:54.200Z</time>
      </trkpt>
      <trkpt lat="46.83127" lon="8.41642">
        <ele>1491</ele>
        <time>2021-08-13T08:49:55.200Z</time>
      </trkpt>
      <trkpt lat="46.83127" lon="8.41642">
        <ele>1489</ele>
        <time>2021-08-13T08:49:56.200Z</time>
      </trkpt>
      <trkpt lat="46.83127" lon="8.41641">
        <ele>1488</ele>
        <time>2021-08-13T08:49:57.200Z</time>
      </trkpt>
      <trkpt lat="46.83127" lon="8.4164">
        <ele>1488</ele>
        <time>2021-08-13T08:49:58.200Z</time>
      </trkpt>
      <trkpt lat="46.83126" lon="8.4164">
        <ele>1488</ele>
        <time>2021-08-13T08:49:59.200Z</time>
      </trkpt>
      <trkpt lat="46.83126" lon="8.41639">
        <ele>1487</ele>
        <time>2021-08-13T08:50:00.200Z</time>
      </trkpt>
      <trkpt lat="46.83126" lon="8.41638">
        <ele>1486</ele>
        <time>2021-08-13T08:50:01.199Z</time>
      </trkpt>
      <trkpt lat="46.83126" lon="8.41638">
        <ele>1486</ele>
        <time>2021-08-13T08:50:02.200Z</time>
      </trkpt>
      <trkpt lat="46.83126" lon="8.41637">
        <ele>1485</ele>
        <time>2021-08-13T08:50:03.199Z</time>
      </trkpt>
      <trkpt lat="46.83125" lon="8.41636">
        <ele>1485</ele>
        <time>2021-08-13T08:50:04.199Z</time>
      </trkpt>
      <trkpt lat="46.83124" lon="8.41635">
        <ele>1485</ele>
        <time>2021-08-13T08:50:05.200Z</time>
      </trkpt>
      <trkpt lat="46.83124" lon="8.41634">
        <ele>1485</ele>
        <time>2021-08-13T08:50:06.200Z</time>
      </trkpt>
      <trkpt lat="46.83123" lon="8.41634">
        <ele>1486</ele>
        <time>2021-08-13T08:50:07.200Z</time>
      </trkpt>
      <trkpt lat="46.83122" lon="8.41633">
        <ele>1486</ele>
        <time>2021-08-13T08:50:08.200Z</time>
      </trkpt>
      <trkpt lat="46.83122" lon="8.41633">
        <ele>1487</ele>
        <time>2021-08-13T08:50:09.200Z</time>
      </trkpt>
      <trkpt lat="46.8312" lon="8.41632">
        <ele>1488</ele>
        <time>2021-08-13T08:50:10.199Z</time>
      </trkpt>
      <trkpt lat="46.83119" lon="8.41632">
        <ele>1488</ele>
        <time>2021-08-13T08:50:11.200Z</time>
      </trkpt>
      <trkpt lat="46.83119" lon="8.41632">
        <ele>1488</ele>
        <time>2021-08-13T08:50:12.200Z</time>
      </trkpt>
      <trkpt lat="46.83118" lon="8.41631">
        <ele>1488</ele>
        <time>2021-08-13T08:50:13.199Z</time>
      </trkpt>
      <trkpt lat="46.83117" lon="8.41631">
        <ele>1488</ele>
        <time>2021-08-13T08:50:14.200Z</time>
      </trkpt>
      <trkpt lat="46.83116" lon="8.4163">
        <ele>1488</ele>
        <time>2021-08-13T08:50:15.200Z</time>
      </trkpt>
      <trkpt lat="46.83115" lon="8.4163">
        <ele>1488</ele>
        <time>2021-08-13T08:50:16.199Z</time>
      </trkpt>
      <trkpt lat="46.83115" lon="8.4163">
        <ele>1488</ele>
        <time>2021-08-13T08:50:17.199Z</time>
      </trkpt>
      <trkpt lat="46.83114" lon="8.4163">
        <ele>1488</ele>
        <time>2021-08-13T08:50:18.199Z</time>
      </trkpt>
      <trkpt lat="46.83113" lon="8.4163">
        <ele>1489</ele>
        <time>2021-08-13T08:50:19.199Z</time>
      </trkpt>
      <trkpt lat="46.83112" lon="8.4163">
        <ele>1489</ele>
        <time>2021-08-13T08:50:20.200Z</time>
      </trkpt>
      <trkpt lat="46.83112" lon="8.4163">
        <ele>1489</ele>
        <time>2021-08-13T08:50:21.200Z</time>
      </trkpt>
      <trkpt lat="46.83111" lon="8.4163">
        <ele>1489</ele>
        <time>2021-08-13T08:50:22.200Z</time>
      </trkpt>
      <trkpt lat="46.8311" lon="8.4163">
        <ele>1489</ele>
        <time>2021-08-13T08:50:23.200Z</time>
      </trkpt>
      <trkpt lat="46.83109" lon="8.4163">
        <ele>1490</ele>
        <time>2021-08-13T08:50:24.200Z</time>
      </trkpt>
      <trkpt lat="46.83108" lon="8.4163">
        <ele>1489</ele>
        <time>2021-08-13T08:50:25.200Z</time>
      </trkpt>
      <trkpt lat="46.83107" lon="8.4163">
        <ele>1489</ele>
        <time>2021-08-13T08:50:26.200Z</time>
      </trkpt>
      <trkpt lat="46.83106" lon="8.4163">
        <ele>1488</ele>
        <time>2021-08-13T08:50:27.200Z</time>
      </trkpt>
      <trkpt lat="46.83106" lon="8.4163">
        <ele>1487</ele>
        <time>2021-08-13T08:50:28.200Z</time>
      </trkpt>
      <trkpt lat="46.83105" lon="8.4163">
        <ele>1486</ele>
        <time>2021-08-13T08:50:29.200Z</time>
      </trkpt>
      <trkpt lat="46.83104" lon="8.4163">
        <ele>1485</ele>
        <time>2021-08-13T08:50:30.200Z</time>
      </trkpt>
      <trkpt lat="46.83104" lon="8.41629">
        <ele>1484</ele>
        <time>2021-08-13T08:50:31.200Z</time>
      </trkpt>
      <trkpt lat="46.83103" lon="8.41628">
        <ele>1484</ele>
        <time>2021-08-13T08:50:32.200Z</time>
      </trkpt>
      <trkpt lat="46.83102" lon="8.41627">
        <ele>1483</ele>
        <time>2021-08-13T08:50:33.200Z</time>
      </trkpt>
      <trkpt lat="46.83101" lon="8.41626">
        <ele>1483</ele>
        <time>2021-08-13T08:50:34.200Z</time>
      </trkpt>
      <trkpt lat="46.831" lon="8.41624">
        <ele>1483</ele>
        <time>2021-08-13T08:50:35.200Z</time>
      </trkpt>
      <trkpt lat="46.83099" lon="8.41624">
        <ele>1483</ele>
        <time>2021-08-13T08:50:36.200Z</time>
      </trkpt>
      <trkpt lat="46.83098" lon="8.41624">
        <ele>1482</ele>
        <time>2021-08-13T08:50:37.199Z</time>
      </trkpt>
      <trkpt lat="46.83097" lon="8.41623">
        <ele>1482</ele>
        <time>2021-08-13T08:50:38.199Z</time>
      </trkpt>
      <trkpt lat="46.83096" lon="8.41622">
        <ele>1481</ele>
        <time>2021-08-13T08:50:39.199Z</time>
      </trkpt>
      <trkpt lat="46.83095" lon="8.41622">
        <ele>1481</ele>
        <time>2021-08-13T08:50:40.199Z</time>
      </trkpt>
      <trkpt lat="46.83094" lon="8.41622">
        <ele>1481</ele>
        <time>2021-08-13T08:50:41.199Z</time>
      </trkpt>
      <trkpt lat="46.83093" lon="8.41622">
        <ele>1480</ele>
        <time>2021-08-13T08:50:42.200Z</time>
      </trkpt>
      <trkpt lat="46.83093" lon="8.41622">
        <ele>1480</ele>
        <time>2021-08-13T08:50:43.199Z</time>
      </trkpt>
      <trkpt lat="46.83092" lon="8.41621">
        <ele>1481</ele>
        <time>2021-08-13T08:50:44.199Z</time>
      </trkpt>
      <trkpt lat="46.83091" lon="8.41621">
        <ele>1481</ele>
        <time>2021-08-13T08:50:45.200Z</time>
      </trkpt>
      <trkpt lat="46.8309" lon="8.41621">
        <ele>1481</ele>
        <time>2021-08-13T08:50:46.200Z</time>
      </trkpt>
      <trkpt lat="46.83089" lon="8.4162">
        <ele>1482</ele>
        <time>2021-08-13T08:50:47.199Z</time>
      </trkpt>
      <trkpt lat="46.83088" lon="8.4162">
        <ele>1483</ele>
        <time>2021-08-13T08:50:48.199Z</time>
      </trkpt>
      <trkpt lat="46.83088" lon="8.4162">
        <ele>1483</ele>
        <time>2021-08-13T08:50:49.200Z</time>
      </trkpt>
      <trkpt lat="46.83087" lon="8.4162">
        <ele>1484</ele>
        <time>2021-08-13T08:50:50.200Z</time>
      </trkpt>
      <trkpt lat="46.83086" lon="8.4162">
        <ele>1484</ele>
        <time>2021-08-13T08:50:51.199Z</time>
      </trkpt>
      <trkpt lat="46.83085" lon="8.4162">
        <ele>1484</ele>
        <time>2021-08-13T08:50:52.199Z</time>
      </trkpt>
      <trkpt lat="46.83084" lon="8.4162">
        <ele>1483</ele>
        <time>2021-08-13T08:50:53.199Z</time>
      </trkpt>
      <trkpt lat="46.83084" lon="8.4162">
        <ele>1483</ele>
        <time>2021-08-13T08:50:54.199Z</time>
      </trkpt>
      <trkpt lat="46.83083" lon="8.4162">
        <ele>1483</ele>
        <time>2021-08-13T08:50:55.199Z</time>
      </trkpt>
      <trkpt lat="46.83082" lon="8.41621">
        <ele>1483</ele>
        <time>2021-08-13T08:50:56.199Z</time>
      </trkpt>
      <trkpt lat="46.83081" lon="8.41622">
        <ele>1483</ele>
        <time>2021-08-13T08:50:57.199Z</time>
      </trkpt>
      <trkpt lat="46.83081" lon="8.41622">
        <ele>1483</ele>
        <time>2021-08-13T08:50:58.199Z</time>
      </trkpt>
      <trkpt lat="46.8308" lon="8.41623">
        <ele>1483</ele>
        <time>2021-08-13T08:50:59.199Z</time>
      </trkpt>
      <trkpt lat="46.83079" lon="8.41623">
        <ele>1483</ele>
        <time>2021-08-13T08:51:00.200Z</time>
      </trkpt>
      <trkpt lat="46.83078" lon="8.41624">
        <ele>1484</ele>
        <time>2021-08-13T08:51:01.200Z</time>
      </trkpt>
      <trkpt lat="46.83078" lon="8.41624">
        <ele>1484</ele>
        <time>2021-08-13T08:51:02.199Z</time>
      </trkpt>
      <trkpt lat="46.83077" lon="8.41624">
        <ele>1485</ele>
        <time>2021-08-13T08:51:03.199Z</time>
      </trkpt>
      <trkpt lat="46.83077" lon="8.41625">
        <ele>1485</ele>
        <time>2021-08-13T08:51:04.199Z</time>
      </trkpt>
      <trkpt lat="46.83076" lon="8.41625">
        <ele>1486</ele>
        <time>2021-08-13T08:51:05.199Z</time>
      </trkpt>
      <trkpt lat="46.83075" lon="8.41625">
        <ele>1486</ele>
        <time>2021-08-13T08:51:06.199Z</time>
      </trkpt>
      <trkpt lat="46.83075" lon="8.41626">
        <ele>1487</ele>
        <time>2021-08-13T08:51:07.199Z</time>
      </trkpt>
      <trkpt lat="46.83074" lon="8.41627">
        <ele>1487</ele>
        <time>2021-08-13T08:51:08.199Z</time>
      </trkpt>
      <trkpt lat="46.83074" lon="8.41628">
        <ele>1487</ele>
        <time>2021-08-13T08:51:09.199Z</time>
      </trkpt>
      <trkpt lat="46.83073" lon="8.41628">
        <ele>1487</ele>
        <time>2021-08-13T08:51:10.200Z</time>
      </trkpt>
      <trkpt lat="46.83073" lon="8.41629">
        <ele>1487</ele>
        <time>2021-08-13T08:51:11.199Z</time>
      </trkpt>
      <trkpt lat="46.83072" lon="8.41629">
        <ele>1487</ele>
        <time>2021-08-13T08:51:12.199Z</time>
      </trkpt>
      <trkpt lat="46.83071" lon="8.4163">
        <ele>1487</ele>
        <time>2021-08-13T08:51:13.199Z</time>
      </trkpt>
      <trkpt lat="46.8307" lon="8.4163">
        <ele>1487</ele>
        <time>2021-08-13T08:51:14.199Z</time>
      </trkpt>
      <trkpt lat="46.83069" lon="8.41631">
        <ele>1486</ele>
        <time>2021-08-13T08:51:15.200Z</time>
      </trkpt>
      <trkpt lat="46.83068" lon="8.41631">
        <ele>1486</ele>
        <time>2021-08-13T08:51:16.200Z</time>
      </trkpt>
      <trkpt lat="46.83067" lon="8.41632">
        <ele>1486</ele>
        <time>2021-08-13T08:51:17.199Z</time>
      </trkpt>
      <trkpt lat="46.83066" lon="8.41632">
        <ele>1486</ele>
        <time>2021-08-13T08:51:18.199Z</time>
      </trkpt>
      <trkpt lat="46.83066" lon="8.41632">
        <ele>1486</ele>
        <time>2021-08-13T08:51:19.199Z</time>
      </trkpt>
      <trkpt lat="46.83065" lon="8.41632">
        <ele>1486</ele>
        <time>2021-08-13T08:51:20.200Z</time>
      </trkpt>
      <trkpt lat="46.83064" lon="8.41633">
        <ele>1486</ele>
        <time>2021-08-13T08:51:21.200Z</time>
      </trkpt>
      <trkpt lat="46.83063" lon="8.41632">
        <ele>1486</ele>
        <time>2021-08-13T08:51:22.199Z</time>
      </trkpt>
      <trkpt lat="46.83063" lon="8.41633">
        <ele>1485</ele>
        <time>2021-08-13T08:51:23.199Z</time>
      </trkpt>
      <trkpt lat="46.83062" lon="8.41633">
        <ele>1484</ele>
        <time>2021-08-13T08:51:24.199Z</time>
      </trkpt>
      <trkpt lat="46.83062" lon="8.41633">
        <ele>1484</ele>
        <time>2021-08-13T08:51:25.199Z</time>
      </trkpt>
      <trkpt lat="46.83062" lon="8.41633">
        <ele>1483</ele>
        <time>2021-08-13T08:51:26.199Z</time>
      </trkpt>
      <trkpt lat="46.83062" lon="8.41632">
        <ele>1483</ele>
        <time>2021-08-13T08:51:27.199Z</time>
      </trkpt>
      <trkpt lat="46.83061" lon="8.41632">
        <ele>1483</ele>
        <time>2021-08-13T08:51:28.200Z</time>
      </trkpt>
      <trkpt lat="46.83061" lon="8.41633">
        <ele>1482</ele>
        <time>2021-08-13T08:51:29.200Z</time>
      </trkpt>
      <trkpt lat="46.8306" lon="8.41633">
        <ele>1482</ele>
        <time>2021-08-13T08:51:30.200Z</time>
      </trkpt>
      <trkpt lat="46.8306" lon="8.41633">
        <ele>1481</ele>
        <time>2021-08-13T08:51:31.199Z</time>
      </trkpt>
      <trkpt lat="46.83059" lon="8.41633">
        <ele>1480</ele>
        <time>2021-08-13T08:51:32.199Z</time>
      </trkpt>
      <trkpt lat="46.83059" lon="8.41633">
        <ele>1479</ele>
        <time>2021-08-13T08:51:33.200Z</time>
      </trkpt>
      <trkpt lat="46.83058" lon="8.41632">
        <ele>1478</ele>
        <time>2021-08-13T08:51:34.200Z</time>
      </trkpt>
      <trkpt lat="46.83058" lon="8.41632">
        <ele>1477</ele>
        <time>2021-08-13T08:51:35.199Z</time>
      </trkpt>
      <trkpt lat="46.83057" lon="8.41632">
        <ele>1477</ele>
        <time>2021-08-13T08:51:36.200Z</time>
      </trkpt>
      <trkpt lat="46.83057" lon="8.41632">
        <ele>1476</ele>
        <time>2021-08-13T08:51:37.200Z</time>
      </trkpt>
      <trkpt lat="46.83056" lon="8.41632">
        <ele>1476</ele>
        <time>2021-08-13T08:51:38.200Z</time>
      </trkpt>
      <trkpt lat="46.83055" lon="8.41632">
        <ele>1476</ele>
        <time>2021-08-13T08:51:39.200Z</time>
      </trkpt>
      <trkpt lat="46.83054" lon="8.41632">
        <ele>1475</ele>
        <time>2021-08-13T08:51:40.199Z</time>
      </trkpt>
      <trkpt lat="46.83053" lon="8.41632">
        <ele>1475</ele>
        <time>2021-08-13T08:51:41.200Z</time>
      </trkpt>
      <trkpt lat="46.83052" lon="8.41632">
        <ele>1475</ele>
        <time>2021-08-13T08:51:42.199Z</time>
      </trkpt>
      <trkpt lat="46.83051" lon="8.41633">
        <ele>1475</ele>
        <time>2021-08-13T08:51:43.199Z</time>
      </trkpt>
      <trkpt lat="46.83051" lon="8.41634">
        <ele>1474</ele>
        <time>2021-08-13T08:51:44.199Z</time>
      </trkpt>
      <trkpt lat="46.8305" lon="8.41635">
        <ele>1474</ele>
        <time>2021-08-13T08:51:45.199Z</time>
      </trkpt>
      <trkpt lat="46.83049" lon="8.41637">
        <ele>1473</ele>
        <time>2021-08-13T08:51:46.199Z</time>
      </trkpt>
      <trkpt lat="46.83048" lon="8.41637">
        <ele>1472</ele>
        <time>2021-08-13T08:51:47.199Z</time>
      </trkpt>
      <trkpt lat="46.83048" lon="8.41638">
        <ele>1471</ele>
        <time>2021-08-13T08:51:48.199Z</time>
      </trkpt>
      <trkpt lat="46.83047" lon="8.41639">
        <ele>1470</ele>
        <time>2021-08-13T08:51:49.199Z</time>
      </trkpt>
      <trkpt lat="46.83047" lon="8.4164">
        <ele>1469</ele>
        <time>2021-08-13T08:51:50.199Z</time>
      </trkpt>
      <trkpt lat="46.83047" lon="8.41641">
        <ele>1468</ele>
        <time>2021-08-13T08:51:51.199Z</time>
      </trkpt>
      <trkpt lat="46.83046" lon="8.41642">
        <ele>1466</ele>
        <time>2021-08-13T08:51:52.199Z</time>
      </trkpt>
      <trkpt lat="46.83046" lon="8.41643">
        <ele>1465</ele>
        <time>2021-08-13T08:51:53.199Z</time>
      </trkpt>
      <trkpt lat="46.83046" lon="8.41643">
        <ele>1464</ele>
        <time>2021-08-13T08:51:54.200Z</time>
      </trkpt>
      <trkpt lat="46.83045" lon="8.41644">
        <ele>1463</ele>
        <time>2021-08-13T08:51:55.199Z</time>
      </trkpt>
      <trkpt lat="46.83045" lon="8.41645">
        <ele>1462</ele>
        <time>2021-08-13T08:51:56.199Z</time>
      </trkpt>
      <trkpt lat="46.83045" lon="8.41646">
        <ele>1461</ele>
        <time>2021-08-13T08:51:57.199Z</time>
      </trkpt>
      <trkpt lat="46.83044" lon="8.41648">
        <ele>1459</ele>
        <time>2021-08-13T08:51:58.199Z</time>
      </trkpt>
      <trkpt lat="46.83044" lon="8.41648">
        <ele>1459</ele>
        <time>2021-08-13T08:51:59.199Z</time>
      </trkpt>
      <trkpt lat="46.83043" lon="8.41649">
        <ele>1458</ele>
        <time>2021-08-13T08:52:00.199Z</time>
      </trkpt>
      <trkpt lat="46.83043" lon="8.4165">
        <ele>1457</ele>
        <time>2021-08-13T08:52:01.199Z</time>
      </trkpt>
      <trkpt lat="46.83042" lon="8.41651">
        <ele>1457</ele>
        <time>2021-08-13T08:52:02.200Z</time>
      </trkpt>
      <trkpt lat="46.83042" lon="8.41652">
        <ele>1457</ele>
        <time>2021-08-13T08:52:03.200Z</time>
      </trkpt>
      <trkpt lat="46.83041" lon="8.41652">
        <ele>1457</ele>
        <time>2021-08-13T08:52:04.199Z</time>
      </trkpt>
      <trkpt lat="46.83041" lon="8.41653">
        <ele>1457</ele>
        <time>2021-08-13T08:52:05.200Z</time>
      </trkpt>
      <trkpt lat="46.83041" lon="8.41653">
        <ele>1457</ele>
        <time>2021-08-13T08:52:06.199Z</time>
      </trkpt>
      <trkpt lat="46.83041" lon="8.41654">
        <ele>1457</ele>
        <time>2021-08-13T08:52:07.199Z</time>
      </trkpt>
      <trkpt lat="46.8304" lon="8.41654">
        <ele>1457</ele>
        <time>2021-08-13T08:52:08.199Z</time>
      </trkpt>
      <trkpt lat="46.8304" lon="8.41655">
        <ele>1457</ele>
        <time>2021-08-13T08:52:09.200Z</time>
      </trkpt>
      <trkpt lat="46.8304" lon="8.41654">
        <ele>1458</ele>
        <time>2021-08-13T08:52:10.199Z</time>
      </trkpt>
      <trkpt lat="46.8304" lon="8.41654">
        <ele>1458</ele>
        <time>2021-08-13T08:52:11.199Z</time>
      </trkpt>
      <trkpt lat="46.83039" lon="8.41654">
        <ele>1458</ele>
        <time>2021-08-13T08:52:12.200Z</time>
      </trkpt>
      <trkpt lat="46.83039" lon="8.41653">
        <ele>1459</ele>
        <time>2021-08-13T08:52:13.200Z</time>
      </trkpt>
      <trkpt lat="46.83039" lon="8.41653">
        <ele>1459</ele>
        <time>2021-08-13T08:52:14.200Z</time>
      </trkpt>
      <trkpt lat="46.83038" lon="8.41653">
        <ele>1460</ele>
        <time>2021-08-13T08:52:15.200Z</time>
      </trkpt>
      <trkpt lat="46.83038" lon="8.41653">
        <ele>1460</ele>
        <time>2021-08-13T08:52:16.200Z</time>
      </trkpt>
      <trkpt lat="46.83037" lon="8.41653">
        <ele>1459</ele>
        <time>2021-08-13T08:52:17.200Z</time>
      </trkpt>
      <trkpt lat="46.83037" lon="8.41654">
        <ele>1459</ele>
        <time>2021-08-13T08:52:18.200Z</time>
      </trkpt>
      <trkpt lat="46.83037" lon="8.41655">
        <ele>1458</ele>
        <time>2021-08-13T08:52:19.200Z</time>
      </trkpt>
      <trkpt lat="46.83036" lon="8.41656">
        <ele>1457</ele>
        <time>2021-08-13T08:52:20.200Z</time>
      </trkpt>
      <trkpt lat="46.83035" lon="8.41656">
        <ele>1456</ele>
        <time>2021-08-13T08:52:21.200Z</time>
      </trkpt>
      <trkpt lat="46.83035" lon="8.41656">
        <ele>1456</ele>
        <time>2021-08-13T08:52:22.200Z</time>
      </trkpt>
      <trkpt lat="46.83033" lon="8.41655">
        <ele>1455</ele>
        <time>2021-08-13T08:52:23.199Z</time>
      </trkpt>
      <trkpt lat="46.83032" lon="8.41656">
        <ele>1455</ele>
        <time>2021-08-13T08:52:24.199Z</time>
      </trkpt>
      <trkpt lat="46.83031" lon="8.41657">
        <ele>1454</ele>
        <time>2021-08-13T08:52:25.200Z</time>
      </trkpt>
      <trkpt lat="46.83031" lon="8.41657">
        <ele>1454</ele>
        <time>2021-08-13T08:52:26.199Z</time>
      </trkpt>
      <trkpt lat="46.8303" lon="8.41657">
        <ele>1454</ele>
        <time>2021-08-13T08:52:27.199Z</time>
      </trkpt>
      <trkpt lat="46.83029" lon="8.41658">
        <ele>1454</ele>
        <time>2021-08-13T08:52:28.200Z</time>
      </trkpt>
      <trkpt lat="46.83029" lon="8.41658">
        <ele>1454</ele>
        <time>2021-08-13T08:52:29.200Z</time>
      </trkpt>
      <trkpt lat="46.83029" lon="8.41659">
        <ele>1454</ele>
        <time>2021-08-13T08:52:30.200Z</time>
      </trkpt>
      <trkpt lat="46.83029" lon="8.41659">
        <ele>1454</ele>
        <time>2021-08-13T08:52:31.199Z</time>
      </trkpt>
      <trkpt lat="46.83028" lon="8.41659">
        <ele>1454</ele>
        <time>2021-08-13T08:52:32.200Z</time>
      </trkpt>
      <trkpt lat="46.83026" lon="8.4166">
        <ele>1454</ele>
        <time>2021-08-13T08:52:33.200Z</time>
      </trkpt>
      <trkpt lat="46.83024" lon="8.4166">
        <ele>1454</ele>
        <time>2021-08-13T08:52:34.200Z</time>
      </trkpt>
      <trkpt lat="46.83024" lon="8.4166">
        <ele>1453</ele>
        <time>2021-08-13T08:52:35.199Z</time>
      </trkpt>
      <trkpt lat="46.83025" lon="8.41659">
        <ele>1453</ele>
        <time>2021-08-13T08:52:36.200Z</time>
      </trkpt>
      <trkpt lat="46.83025" lon="8.4166">
        <ele>1453</ele>
        <time>2021-08-13T08:52:37.200Z</time>
      </trkpt>
      <trkpt lat="46.83026" lon="8.41659">
        <ele>1452</ele>
        <time>2021-08-13T08:52:38.199Z</time>
      </trkpt>
      <trkpt lat="46.83022" lon="8.41661">
        <ele>1453</ele>
        <time>2021-08-13T08:52:39.200Z</time>
      </trkpt>
      <trkpt lat="46.83022" lon="8.41661">
        <ele>1453</ele>
        <time>2021-08-13T08:52:40.201Z</time>
      </trkpt>
      <trkpt lat="46.83021" lon="8.41661">
        <ele>1453</ele>
        <time>2021-08-13T08:52:41.200Z</time>
      </trkpt>
      <trkpt lat="46.83021" lon="8.41661">
        <ele>1453</ele>
        <time>2021-08-13T08:52:42.201Z</time>
      </trkpt>
      <trkpt lat="46.8302" lon="8.41661">
        <ele>1454</ele>
        <time>2021-08-13T08:52:43.201Z</time>
      </trkpt>
      <trkpt lat="46.8302" lon="8.41662">
        <ele>1454</ele>
        <time>2021-08-13T08:52:44.201Z</time>
      </trkpt>
      <trkpt lat="46.8302" lon="8.41663">
        <ele>1454</ele>
        <time>2021-08-13T08:52:45.201Z</time>
      </trkpt>
      <trkpt lat="46.83019" lon="8.41664">
        <ele>1454</ele>
        <time>2021-08-13T08:52:46.201Z</time>
      </trkpt>
      <trkpt lat="46.83019" lon="8.41664">
        <ele>1454</ele>
        <time>2021-08-13T08:52:47.200Z</time>
      </trkpt>
      <trkpt lat="46.83018" lon="8.41665">
        <ele>1453</ele>
        <time>2021-08-13T08:52:48.201Z</time>
      </trkpt>
      <trkpt lat="46.83018" lon="8.41665">
        <ele>1453</ele>
        <time>2021-08-13T08:52:49.201Z</time>
      </trkpt>
      <trkpt lat="46.83018" lon="8.41664">
        <ele>1453</ele>
        <time>2021-08-13T08:52:50.200Z</time>
      </trkpt>
      <trkpt lat="46.83018" lon="8.41664">
        <ele>1453</ele>
        <time>2021-08-13T08:52:51.200Z</time>
      </trkpt>
      <trkpt lat="46.83017" lon="8.41664">
        <ele>1453</ele>
        <time>2021-08-13T08:52:52.201Z</time>
      </trkpt>
      <trkpt lat="46.83018" lon="8.41662">
        <ele>1450</ele>
        <time>2021-08-13T08:52:53.202Z</time>
      </trkpt>
      <trkpt lat="46.83018" lon="8.41663">
        <ele>1449</ele>
        <time>2021-08-13T08:52:54.202Z</time>
      </trkpt>
      <trkpt lat="46.83018" lon="8.41663">
        <ele>1448</ele>
        <time>2021-08-13T08:52:55.201Z</time>
      </trkpt>
      <trkpt lat="46.83018" lon="8.41663">
        <ele>1448</ele>
        <time>2021-08-13T08:52:56.201Z</time>
      </trkpt>
      <trkpt lat="46.83017" lon="8.41662">
        <ele>1447</ele>
        <time>2021-08-13T08:52:57.202Z</time>
      </trkpt>
      <trkpt lat="46.83017" lon="8.41662">
        <ele>1447</ele>
        <time>2021-08-13T08:52:58.201Z</time>
      </trkpt>
      <trkpt lat="46.83015" lon="8.41662">
        <ele>1446</ele>
        <time>2021-08-13T08:52:59.202Z</time>
      </trkpt>
      <trkpt lat="46.83015" lon="8.41662">
        <ele>1446</ele>
        <time>2021-08-13T08:53:00.203Z</time>
      </trkpt>
      <trkpt lat="46.83014" lon="8.41661">
        <ele>1446</ele>
        <time>2021-08-13T08:53:01.202Z</time>
      </trkpt>
      <trkpt lat="46.83013" lon="8.41657">
        <ele>1447</ele>
        <time>2021-08-13T08:53:02.203Z</time>
      </trkpt>
      <trkpt lat="46.83013" lon="8.41657">
        <ele>1448</ele>
        <time>2021-08-13T08:53:03.203Z</time>
      </trkpt>
      <trkpt lat="46.83014" lon="8.41657">
        <ele>1447</ele>
        <time>2021-08-13T08:53:04.203Z</time>
      </trkpt>
      <trkpt lat="46.83014" lon="8.41658">
        <ele>1446</ele>
        <time>2021-08-13T08:53:05.203Z</time>
      </trkpt>
      <trkpt lat="46.83013" lon="8.41658">
        <ele>1446</ele>
        <time>2021-08-13T08:53:06.203Z</time>
      </trkpt>
      <trkpt lat="46.83011" lon="8.4166">
        <ele>1446</ele>
        <time>2021-08-13T08:53:07.205Z</time>
      </trkpt>
      <trkpt lat="46.8301" lon="8.4166">
        <ele>1446</ele>
        <time>2021-08-13T08:53:08.204Z</time>
      </trkpt>
      <trkpt lat="46.83009" lon="8.41661">
        <ele>1446</ele>
        <time>2021-08-13T08:53:09.204Z</time>
      </trkpt>
      <trkpt lat="46.83009" lon="8.41661">
        <ele>1446</ele>
        <time>2021-08-13T08:53:10.205Z</time>
      </trkpt>
      <trkpt lat="46.83009" lon="8.4166">
        <ele>1446</ele>
        <time>2021-08-13T08:53:11.205Z</time>
      </trkpt>
      <trkpt lat="46.83008" lon="8.4166">
        <ele>1447</ele>
        <time>2021-08-13T08:53:12.204Z</time>
      </trkpt>
      <trkpt lat="46.83008" lon="8.4166">
        <ele>1447</ele>
        <time>2021-08-13T08:53:13.204Z</time>
      </trkpt>
      <trkpt lat="46.83008" lon="8.4166">
        <ele>1447</ele>
        <time>2021-08-13T08:53:14.205Z</time>
      </trkpt>
      <trkpt lat="46.83008" lon="8.41659">
        <ele>1447</ele>
        <time>2021-08-13T08:53:15.204Z</time>
      </trkpt>
      <trkpt lat="46.83008" lon="8.41658">
        <ele>1446</ele>
        <time>2021-08-13T08:53:16.204Z</time>
      </trkpt>
      <trkpt lat="46.83007" lon="8.41657">
        <ele>1446</ele>
        <time>2021-08-13T08:53:17.204Z</time>
      </trkpt>
      <trkpt lat="46.83007" lon="8.41657">
        <ele>1445</ele>
        <time>2021-08-13T08:53:18.204Z</time>
      </trkpt>
      <trkpt lat="46.83007" lon="8.41656">
        <ele>1444</ele>
        <time>2021-08-13T08:53:19.204Z</time>
      </trkpt>
      <trkpt lat="46.83007" lon="8.41657">
        <ele>1444</ele>
        <time>2021-08-13T08:53:20.204Z</time>
      </trkpt>
      <trkpt lat="46.83007" lon="8.41657">
        <ele>1444</ele>
        <time>2021-08-13T08:53:21.205Z</time>
      </trkpt>
      <trkpt lat="46.83008" lon="8.41656">
        <ele>1441</ele>
        <time>2021-08-13T08:53:22.205Z</time>
      </trkpt>
      <trkpt lat="46.83007" lon="8.41656">
        <ele>1440</ele>
        <time>2021-08-13T08:53:23.204Z</time>
      </trkpt>
      <trkpt lat="46.83007" lon="8.41656">
        <ele>1439</ele>
        <time>2021-08-13T08:53:24.205Z</time>
      </trkpt>
      <trkpt lat="46.83007" lon="8.41656">
        <ele>1439</ele>
        <time>2021-08-13T08:53:25.205Z</time>
      </trkpt>
      <trkpt lat="46.83008" lon="8.41651">
        <ele>1435</ele>
        <time>2021-08-13T08:53:26.205Z</time>
      </trkpt>
      <trkpt lat="46.83008" lon="8.4165">
        <ele>1435</ele>
        <time>2021-08-13T08:53:27.205Z</time>
      </trkpt>
      <trkpt lat="46.83008" lon="8.41649">
        <ele>1435</ele>
        <time>2021-08-13T08:53:28.204Z</time>
      </trkpt>
      <trkpt lat="46.83007" lon="8.41648">
        <ele>1434</ele>
        <time>2021-08-13T08:53:29.204Z</time>
      </trkpt>
      <trkpt lat="46.83007" lon="8.41648">
        <ele>1434</ele>
        <time>2021-08-13T08:53:30.205Z</time>
      </trkpt>
      <trkpt lat="46.83006" lon="8.41648">
        <ele>1434</ele>
        <time>2021-08-13T08:53:31.205Z</time>
      </trkpt>
      <trkpt lat="46.83006" lon="8.41647">
        <ele>1434</ele>
        <time>2021-08-13T08:53:32.204Z</time>
      </trkpt>
      <trkpt lat="46.83005" lon="8.41647">
        <ele>1434</ele>
        <time>2021-08-13T08:53:33.205Z</time>
      </trkpt>
      <trkpt lat="46.83005" lon="8.41646">
        <ele>1434</ele>
        <time>2021-08-13T08:53:34.205Z</time>
      </trkpt>
      <trkpt lat="46.83005" lon="8.41646">
        <ele>1435</ele>
        <time>2021-08-13T08:53:35.204Z</time>
      </trkpt>
      <trkpt lat="46.83004" lon="8.41645">
        <ele>1434</ele>
        <time>2021-08-13T08:53:36.205Z</time>
      </trkpt>
      <trkpt lat="46.83004" lon="8.41645">
        <ele>1434</ele>
        <time>2021-08-13T08:53:37.205Z</time>
      </trkpt>
      <trkpt lat="46.83004" lon="8.41644">
        <ele>1434</ele>
        <time>2021-08-13T08:53:38.204Z</time>
      </trkpt>
      <trkpt lat="46.83004" lon="8.41644">
        <ele>1434</ele>
        <time>2021-08-13T08:53:39.204Z</time>
      </trkpt>
      <trkpt lat="46.83004" lon="8.41643">
        <ele>1434</ele>
        <time>2021-08-13T08:53:40.205Z</time>
      </trkpt>
      <trkpt lat="46.83004" lon="8.41643">
        <ele>1434</ele>
        <time>2021-08-13T08:53:41.204Z</time>
      </trkpt>
      <trkpt lat="46.83004" lon="8.41642">
        <ele>1434</ele>
        <time>2021-08-13T08:53:42.204Z</time>
      </trkpt>
      <trkpt lat="46.83005" lon="8.41641">
        <ele>1434</ele>
        <time>2021-08-13T08:53:43.205Z</time>
      </trkpt>
      <trkpt lat="46.83004" lon="8.41641">
        <ele>1434</ele>
        <time>2021-08-13T08:53:44.205Z</time>
      </trkpt>
      <trkpt lat="46.83003" lon="8.41641">
        <ele>1433</ele>
        <time>2021-08-13T08:53:45.204Z</time>
      </trkpt>
      <trkpt lat="46.83003" lon="8.41642">
        <ele>1433</ele>
        <time>2021-08-13T08:53:46.204Z</time>
      </trkpt>
      <trkpt lat="46.83002" lon="8.41644">
        <ele>1433</ele>
        <time>2021-08-13T08:53:47.204Z</time>
      </trkpt>
      <trkpt lat="46.83001" lon="8.41646">
        <ele>1433</ele>
        <time>2021-08-13T08:53:48.204Z</time>
      </trkpt>
      <trkpt lat="46.83001" lon="8.41647">
        <ele>1433</ele>
        <time>2021-08-13T08:53:49.204Z</time>
      </trkpt>
      <trkpt lat="46.83001" lon="8.41648">
        <ele>1433</ele>
        <time>2021-08-13T08:53:50.204Z</time>
      </trkpt>
      <trkpt lat="46.83" lon="8.41648">
        <ele>1433</ele>
        <time>2021-08-13T08:53:51.204Z</time>
      </trkpt>
      <trkpt lat="46.83" lon="8.41648">
        <ele>1432</ele>
        <time>2021-08-13T08:53:52.204Z</time>
      </trkpt>
      <trkpt lat="46.83" lon="8.41649">
        <ele>1430</ele>
        <time>2021-08-13T08:53:53.204Z</time>
      </trkpt>
      <trkpt lat="46.83" lon="8.41648">
        <ele>1430</ele>
        <time>2021-08-13T08:53:54.205Z</time>
      </trkpt>
      <trkpt lat="46.83" lon="8.41648">
        <ele>1431</ele>
        <time>2021-08-13T08:53:55.204Z</time>
      </trkpt>
      <trkpt lat="46.82998" lon="8.41644">
        <ele>1432</ele>
        <time>2021-08-13T08:53:56.205Z</time>
      </trkpt>
      <trkpt lat="46.82998" lon="8.41643">
        <ele>1432</ele>
        <time>2021-08-13T08:53:57.204Z</time>
      </trkpt>
      <trkpt lat="46.82997" lon="8.41643">
        <ele>1432</ele>
        <time>2021-08-13T08:53:58.205Z</time>
      </trkpt>
      <trkpt lat="46.82997" lon="8.41642">
        <ele>1432</ele>
        <time>2021-08-13T08:53:59.204Z</time>
      </trkpt>
      <trkpt lat="46.82997" lon="8.41642">
        <ele>1432</ele>
        <time>2021-08-13T08:54:00.205Z</time>
      </trkpt>
      <trkpt lat="46.82997" lon="8.41642">
        <ele>1432</ele>
        <time>2021-08-13T08:54:01.205Z</time>
      </trkpt>
      <trkpt lat="46.82996" lon="8.41641">
        <ele>1432</ele>
        <time>2021-08-13T08:54:02.205Z</time>
      </trkpt>
      <trkpt lat="46.82997" lon="8.41641">
        <ele>1432</ele>
        <time>2021-08-13T08:54:03.204Z</time>
      </trkpt>
      <trkpt lat="46.83" lon="8.41642">
        <ele>1432</ele>
        <time>2021-08-13T08:54:04.204Z</time>
      </trkpt>
      <trkpt lat="46.83001" lon="8.41643">
        <ele>1431</ele>
        <time>2021-08-13T08:54:05.205Z</time>
      </trkpt>
      <trkpt lat="46.83002" lon="8.41643">
        <ele>1431</ele>
        <time>2021-08-13T08:54:06.204Z</time>
      </trkpt>
      <trkpt lat="46.83003" lon="8.41643">
        <ele>1431</ele>
        <time>2021-08-13T08:54:07.205Z</time>
      </trkpt>
      <trkpt lat="46.83004" lon="8.41643">
        <ele>1431</ele>
        <time>2021-08-13T08:54:08.204Z</time>
      </trkpt>
      <trkpt lat="46.83003" lon="8.41644">
        <ele>1431</ele>
        <time>2021-08-13T08:54:09.204Z</time>
      </trkpt>
      <trkpt lat="46.83002" lon="8.41645">
        <ele>1431</ele>
        <time>2021-08-13T08:54:10.205Z</time>
      </trkpt>
      <trkpt lat="46.83001" lon="8.41646">
        <ele>1432</ele>
        <time>2021-08-13T08:54:11.205Z</time>
      </trkpt>
      <trkpt lat="46.83001" lon="8.41647">
        <ele>1432</ele>
        <time>2021-08-13T08:54:12.204Z</time>
      </trkpt>
      <trkpt lat="46.83" lon="8.41647">
        <ele>1432</ele>
        <time>2021-08-13T08:54:13.205Z</time>
      </trkpt>
      <trkpt lat="46.82999" lon="8.41646">
        <ele>1432</ele>
        <time>2021-08-13T08:54:14.204Z</time>
      </trkpt>
      <trkpt lat="46.82998" lon="8.41646">
        <ele>1432</ele>
        <time>2021-08-13T08:54:15.205Z</time>
      </trkpt>
      <trkpt lat="46.82997" lon="8.41645">
        <ele>1432</ele>
        <time>2021-08-13T08:54:16.205Z</time>
      </trkpt>
      <trkpt lat="46.82995" lon="8.41645">
        <ele>1432</ele>
        <time>2021-08-13T08:54:17.205Z</time>
      </trkpt>
      <trkpt lat="46.82994" lon="8.41645">
        <ele>1432</ele>
        <time>2021-08-13T08:54:18.204Z</time>
      </trkpt>
      <trkpt lat="46.82994" lon="8.41645">
        <ele>1432</ele>
        <time>2021-08-13T08:54:19.205Z</time>
      </trkpt>
      <trkpt lat="46.82993" lon="8.41645">
        <ele>1432</ele>
        <time>2021-08-13T08:54:20.205Z</time>
      </trkpt>
      <trkpt lat="46.82993" lon="8.41645">
        <ele>1433</ele>
        <time>2021-08-13T08:54:21.205Z</time>
      </trkpt>
      <trkpt lat="46.82992" lon="8.41645">
        <ele>1433</ele>
        <time>2021-08-13T08:54:22.205Z</time>
      </trkpt>
      <trkpt lat="46.82991" lon="8.41644">
        <ele>1433</ele>
        <time>2021-08-13T08:54:23.204Z</time>
      </trkpt>
      <trkpt lat="46.8299" lon="8.41645">
        <ele>1433</ele>
        <time>2021-08-13T08:54:24.205Z</time>
      </trkpt>
      <trkpt lat="46.8299" lon="8.41644">
        <ele>1433</ele>
        <time>2021-08-13T08:54:25.204Z</time>
      </trkpt>
      <trkpt lat="46.82988" lon="8.41641">
        <ele>1430</ele>
        <time>2021-08-13T08:54:26.205Z</time>
      </trkpt>
      <trkpt lat="46.82987" lon="8.41641">
        <ele>1430</ele>
        <time>2021-08-13T08:54:27.205Z</time>
      </trkpt>
      <trkpt lat="46.82987" lon="8.41641">
        <ele>1429</ele>
        <time>2021-08-13T08:54:28.205Z</time>
      </trkpt>
      <trkpt lat="46.82987" lon="8.4164">
        <ele>1430</ele>
        <time>2021-08-13T08:54:29.205Z</time>
      </trkpt>
      <trkpt lat="46.82986" lon="8.4164">
        <ele>1430</ele>
        <time>2021-08-13T08:54:30.205Z</time>
      </trkpt>
      <trkpt lat="46.82986" lon="8.41641">
        <ele>1430</ele>
        <time>2021-08-13T08:54:31.206Z</time>
      </trkpt>
      <trkpt lat="46.82985" lon="8.41641">
        <ele>1430</ele>
        <time>2021-08-13T08:54:32.205Z</time>
      </trkpt>
      <trkpt lat="46.82985" lon="8.41641">
        <ele>1430</ele>
        <time>2021-08-13T08:54:33.206Z</time>
      </trkpt>
      <trkpt lat="46.82984" lon="8.41641">
        <ele>1430</ele>
        <time>2021-08-13T08:54:34.205Z</time>
      </trkpt>
      <trkpt lat="46.82984" lon="8.41641">
        <ele>1430</ele>
        <time>2021-08-13T08:54:35.205Z</time>
      </trkpt>
      <trkpt lat="46.82983" lon="8.41641">
        <ele>1430</ele>
        <time>2021-08-13T08:54:36.206Z</time>
      </trkpt>
      <trkpt lat="46.82982" lon="8.41642">
        <ele>1429</ele>
        <time>2021-08-13T08:54:37.205Z</time>
      </trkpt>
      <trkpt lat="46.82982" lon="8.41642">
        <ele>1429</ele>
        <time>2021-08-13T08:54:38.205Z</time>
      </trkpt>
      <trkpt lat="46.82981" lon="8.41643">
        <ele>1429</ele>
        <time>2021-08-13T08:54:39.205Z</time>
      </trkpt>
      <trkpt lat="46.82981" lon="8.41643">
        <ele>1429</ele>
        <time>2021-08-13T08:54:40.205Z</time>
      </trkpt>
      <trkpt lat="46.82981" lon="8.41643">
        <ele>1429</ele>
        <time>2021-08-13T08:54:41.205Z</time>
      </trkpt>
      <trkpt lat="46.8298" lon="8.41643">
        <ele>1429</ele>
        <time>2021-08-13T08:54:42.205Z</time>
      </trkpt>
      <trkpt lat="46.82979" lon="8.41643">
        <ele>1429</ele>
        <time>2021-08-13T08:54:43.205Z</time>
      </trkpt>
      <trkpt lat="46.82979" lon="8.41642">
        <ele>1429</ele>
        <time>2021-08-13T08:54:44.206Z</time>
      </trkpt>
      <trkpt lat="46.82979" lon="8.41642">
        <ele>1429</ele>
        <time>2021-08-13T08:54:45.206Z</time>
      </trkpt>
      <trkpt lat="46.82978" lon="8.41642">
        <ele>1429</ele>
        <time>2021-08-13T08:54:46.206Z</time>
      </trkpt>
      <trkpt lat="46.82978" lon="8.41642">
        <ele>1428</ele>
        <time>2021-08-13T08:54:47.205Z</time>
      </trkpt>
      <trkpt lat="46.82978" lon="8.41642">
        <ele>1428</ele>
        <time>2021-08-13T08:54:48.206Z</time>
      </trkpt>
      <trkpt lat="46.82978" lon="8.41643">
        <ele>1427</ele>
        <time>2021-08-13T08:54:49.206Z</time>
      </trkpt>
      <trkpt lat="46.82978" lon="8.41642">
        <ele>1427</ele>
        <time>2021-08-13T08:54:50.205Z</time>
      </trkpt>
      <trkpt lat="46.82977" lon="8.41643">
        <ele>1426</ele>
        <time>2021-08-13T08:54:51.205Z</time>
      </trkpt>
      <trkpt lat="46.82977" lon="8.41643">
        <ele>1425</ele>
        <time>2021-08-13T08:54:52.205Z</time>
      </trkpt>
      <trkpt lat="46.82977" lon="8.41643">
        <ele>1425</ele>
        <time>2021-08-13T08:54:53.205Z</time>
      </trkpt>
      <trkpt lat="46.82977" lon="8.41643">
        <ele>1424</ele>
        <time>2021-08-13T08:54:54.206Z</time>
      </trkpt>
      <trkpt lat="46.82976" lon="8.41643">
        <ele>1424</ele>
        <time>2021-08-13T08:54:55.205Z</time>
      </trkpt>
      <trkpt lat="46.82974" lon="8.41646">
        <ele>1422</ele>
        <time>2021-08-13T08:54:56.205Z</time>
      </trkpt>
      <trkpt lat="46.82972" lon="8.41648">
        <ele>1420</ele>
        <time>2021-08-13T08:54:57.208Z</time>
      </trkpt>
      <trkpt lat="46.82972" lon="8.41648">
        <ele>1419</ele>
        <time>2021-08-13T08:54:58.208Z</time>
      </trkpt>
      <trkpt lat="46.82971" lon="8.41649">
        <ele>1418</ele>
        <time>2021-08-13T08:54:59.208Z</time>
      </trkpt>
      <trkpt lat="46.8297" lon="8.41649">
        <ele>1418</ele>
        <time>2021-08-13T08:55:00.207Z</time>
      </trkpt>
      <trkpt lat="46.8297" lon="8.41649">
        <ele>1418</ele>
        <time>2021-08-13T08:55:01.208Z</time>
      </trkpt>
      <trkpt lat="46.8297" lon="8.41649">
        <ele>1418</ele>
        <time>2021-08-13T08:55:02.207Z</time>
      </trkpt>
      <trkpt lat="46.82969" lon="8.4165">
        <ele>1419</ele>
        <time>2021-08-13T08:55:03.207Z</time>
      </trkpt>
      <trkpt lat="46.82968" lon="8.41649">
        <ele>1419</ele>
        <time>2021-08-13T08:55:04.208Z</time>
      </trkpt>
      <trkpt lat="46.82968" lon="8.41649">
        <ele>1419</ele>
        <time>2021-08-13T08:55:05.208Z</time>
      </trkpt>
      <trkpt lat="46.82967" lon="8.41649">
        <ele>1420</ele>
        <time>2021-08-13T08:55:06.207Z</time>
      </trkpt>
      <trkpt lat="46.82967" lon="8.41649">
        <ele>1419</ele>
        <time>2021-08-13T08:55:07.208Z</time>
      </trkpt>
      <trkpt lat="46.82966" lon="8.4165">
        <ele>1419</ele>
        <time>2021-08-13T08:55:08.207Z</time>
      </trkpt>
      <trkpt lat="46.82965" lon="8.4165">
        <ele>1419</ele>
        <time>2021-08-13T08:55:09.208Z</time>
      </trkpt>
      <trkpt lat="46.82964" lon="8.41649">
        <ele>1418</ele>
        <time>2021-08-13T08:55:10.208Z</time>
      </trkpt>
      <trkpt lat="46.82964" lon="8.41649">
        <ele>1419</ele>
        <time>2021-08-13T08:55:11.208Z</time>
      </trkpt>
      <trkpt lat="46.82963" lon="8.41649">
        <ele>1419</ele>
        <time>2021-08-13T08:55:12.207Z</time>
      </trkpt>
      <trkpt lat="46.82962" lon="8.41649">
        <ele>1419</ele>
        <time>2021-08-13T08:55:13.207Z</time>
      </trkpt>
      <trkpt lat="46.82962" lon="8.41649">
        <ele>1419</ele>
        <time>2021-08-13T08:55:14.207Z</time>
      </trkpt>
      <trkpt lat="46.82959" lon="8.41651">
        <ele>1418</ele>
        <time>2021-08-13T08:55:15.208Z</time>
      </trkpt>
      <trkpt lat="46.82959" lon="8.41651">
        <ele>1418</ele>
        <time>2021-08-13T08:55:16.208Z</time>
      </trkpt>
      <trkpt lat="46.82958" lon="8.41651">
        <ele>1418</ele>
        <time>2021-08-13T08:55:17.208Z</time>
      </trkpt>
      <trkpt lat="46.82956" lon="8.41652">
        <ele>1417</ele>
        <time>2021-08-13T08:55:18.208Z</time>
      </trkpt>
      <trkpt lat="46.82955" lon="8.41651">
        <ele>1417</ele>
        <time>2021-08-13T08:55:19.208Z</time>
      </trkpt>
      <trkpt lat="46.82955" lon="8.41651">
        <ele>1416</ele>
        <time>2021-08-13T08:55:20.208Z</time>
      </trkpt>
      <trkpt lat="46.82955" lon="8.41652">
        <ele>1416</ele>
        <time>2021-08-13T08:55:21.208Z</time>
      </trkpt>
      <trkpt lat="46.82954" lon="8.41653">
        <ele>1415</ele>
        <time>2021-08-13T08:55:22.207Z</time>
      </trkpt>
      <trkpt lat="46.82953" lon="8.41653">
        <ele>1414</ele>
        <time>2021-08-13T08:55:23.207Z</time>
      </trkpt>
      <trkpt lat="46.82952" lon="8.41653">
        <ele>1414</ele>
        <time>2021-08-13T08:55:24.207Z</time>
      </trkpt>
      <trkpt lat="46.82952" lon="8.41654">
        <ele>1414</ele>
        <time>2021-08-13T08:55:25.207Z</time>
      </trkpt>
      <trkpt lat="46.82951" lon="8.41654">
        <ele>1414</ele>
        <time>2021-08-13T08:55:26.208Z</time>
      </trkpt>
      <trkpt lat="46.8295" lon="8.41655">
        <ele>1414</ele>
        <time>2021-08-13T08:55:27.207Z</time>
      </trkpt>
      <trkpt lat="46.82949" lon="8.41655">
        <ele>1414</ele>
        <time>2021-08-13T08:55:28.207Z</time>
      </trkpt>
      <trkpt lat="46.82949" lon="8.41656">
        <ele>1414</ele>
        <time>2021-08-13T08:55:29.208Z</time>
      </trkpt>
      <trkpt lat="46.82948" lon="8.41656">
        <ele>1414</ele>
        <time>2021-08-13T08:55:30.208Z</time>
      </trkpt>
      <trkpt lat="46.82947" lon="8.41656">
        <ele>1414</ele>
        <time>2021-08-13T08:55:31.208Z</time>
      </trkpt>
      <trkpt lat="46.82946" lon="8.41656">
        <ele>1414</ele>
        <time>2021-08-13T08:55:32.208Z</time>
      </trkpt>
      <trkpt lat="46.82945" lon="8.41655">
        <ele>1414</ele>
        <time>2021-08-13T08:55:33.208Z</time>
      </trkpt>
      <trkpt lat="46.82945" lon="8.41656">
        <ele>1414</ele>
        <time>2021-08-13T08:55:34.208Z</time>
      </trkpt>
      <trkpt lat="46.82944" lon="8.41655">
        <ele>1414</ele>
        <time>2021-08-13T08:55:35.207Z</time>
      </trkpt>
      <trkpt lat="46.82944" lon="8.41656">
        <ele>1413</ele>
        <time>2021-08-13T08:55:36.208Z</time>
      </trkpt>
      <trkpt lat="46.82943" lon="8.41656">
        <ele>1413</ele>
        <time>2021-08-13T08:55:37.208Z</time>
      </trkpt>
      <trkpt lat="46.82942" lon="8.41657">
        <ele>1414</ele>
        <time>2021-08-13T08:55:38.208Z</time>
      </trkpt>
      <trkpt lat="46.82941" lon="8.41657">
        <ele>1414</ele>
        <time>2021-08-13T08:55:39.208Z</time>
      </trkpt>
      <trkpt lat="46.82939" lon="8.41657">
        <ele>1414</ele>
        <time>2021-08-13T08:55:40.207Z</time>
      </trkpt>
      <trkpt lat="46.82938" lon="8.41657">
        <ele>1414</ele>
        <time>2021-08-13T08:55:41.207Z</time>
      </trkpt>
      <trkpt lat="46.82937" lon="8.41658">
        <ele>1414</ele>
        <time>2021-08-13T08:55:42.207Z</time>
      </trkpt>
      <trkpt lat="46.82935" lon="8.41659">
        <ele>1414</ele>
        <time>2021-08-13T08:55:43.208Z</time>
      </trkpt>
      <trkpt lat="46.82934" lon="8.4166">
        <ele>1415</ele>
        <time>2021-08-13T08:55:44.207Z</time>
      </trkpt>
      <trkpt lat="46.82933" lon="8.41661">
        <ele>1415</ele>
        <time>2021-08-13T08:55:45.207Z</time>
      </trkpt>
      <trkpt lat="46.82932" lon="8.41662">
        <ele>1414</ele>
        <time>2021-08-13T08:55:46.208Z</time>
      </trkpt>
      <trkpt lat="46.82931" lon="8.41662">
        <ele>1414</ele>
        <time>2021-08-13T08:55:47.207Z</time>
      </trkpt>
      <trkpt lat="46.82929" lon="8.41662">
        <ele>1413</ele>
        <time>2021-08-13T08:55:48.207Z</time>
      </trkpt>
      <trkpt lat="46.82928" lon="8.41661">
        <ele>1413</ele>
        <time>2021-08-13T08:55:49.207Z</time>
      </trkpt>
      <trkpt lat="46.82927" lon="8.41661">
        <ele>1412</ele>
        <time>2021-08-13T08:55:50.207Z</time>
      </trkpt>
      <trkpt lat="46.82928" lon="8.41661">
        <ele>1412</ele>
        <time>2021-08-13T08:55:51.208Z</time>
      </trkpt>
      <trkpt lat="46.82927" lon="8.41662">
        <ele>1411</ele>
        <time>2021-08-13T08:55:52.208Z</time>
      </trkpt>
      <trkpt lat="46.82926" lon="8.41662">
        <ele>1410</ele>
        <time>2021-08-13T08:55:53.207Z</time>
      </trkpt>
      <trkpt lat="46.82925" lon="8.41662">
        <ele>1410</ele>
        <time>2021-08-13T08:55:54.207Z</time>
      </trkpt>
      <trkpt lat="46.82924" lon="8.41663">
        <ele>1409</ele>
        <time>2021-08-13T08:55:55.208Z</time>
      </trkpt>
      <trkpt lat="46.82923" lon="8.41663">
        <ele>1409</ele>
        <time>2021-08-13T08:55:56.207Z</time>
      </trkpt>
      <trkpt lat="46.82923" lon="8.41663">
        <ele>1408</ele>
        <time>2021-08-13T08:55:57.208Z</time>
      </trkpt>
      <trkpt lat="46.82922" lon="8.41663">
        <ele>1408</ele>
        <time>2021-08-13T08:55:58.208Z</time>
      </trkpt>
      <trkpt lat="46.82921" lon="8.41664">
        <ele>1408</ele>
        <time>2021-08-13T08:55:59.208Z</time>
      </trkpt>
      <trkpt lat="46.8292" lon="8.41665">
        <ele>1408</ele>
        <time>2021-08-13T08:56:00.207Z</time>
      </trkpt>
      <trkpt lat="46.82919" lon="8.41665">
        <ele>1407</ele>
        <time>2021-08-13T08:56:01.208Z</time>
      </trkpt>
      <trkpt lat="46.82918" lon="8.41665">
        <ele>1407</ele>
        <time>2021-08-13T08:56:02.208Z</time>
      </trkpt>
      <trkpt lat="46.82917" lon="8.41666">
        <ele>1407</ele>
        <time>2021-08-13T08:56:03.207Z</time>
      </trkpt>
      <trkpt lat="46.82916" lon="8.41666">
        <ele>1406</ele>
        <time>2021-08-13T08:56:04.208Z</time>
      </trkpt>
      <trkpt lat="46.82916" lon="8.41666">
        <ele>1405</ele>
        <time>2021-08-13T08:56:05.207Z</time>
      </trkpt>
      <trkpt lat="46.82915" lon="8.41666">
        <ele>1405</ele>
        <time>2021-08-13T08:56:06.208Z</time>
      </trkpt>
      <trkpt lat="46.82913" lon="8.41665">
        <ele>1405</ele>
        <time>2021-08-13T08:56:07.207Z</time>
      </trkpt>
      <trkpt lat="46.82912" lon="8.41665">
        <ele>1405</ele>
        <time>2021-08-13T08:56:08.207Z</time>
      </trkpt>
      <trkpt lat="46.82911" lon="8.41665">
        <ele>1405</ele>
        <time>2021-08-13T08:56:09.207Z</time>
      </trkpt>
      <trkpt lat="46.82907" lon="8.41665">
        <ele>1405</ele>
        <time>2021-08-13T08:56:10.207Z</time>
      </trkpt>
      <trkpt lat="46.82906" lon="8.41665">
        <ele>1405</ele>
        <time>2021-08-13T08:56:11.208Z</time>
      </trkpt>
      <trkpt lat="46.82904" lon="8.41665">
        <ele>1405</ele>
        <time>2021-08-13T08:56:12.207Z</time>
      </trkpt>
      <trkpt lat="46.82903" lon="8.41664">
        <ele>1404</ele>
        <time>2021-08-13T08:56:13.207Z</time>
      </trkpt>
      <trkpt lat="46.82903" lon="8.41664">
        <ele>1404</ele>
        <time>2021-08-13T08:56:14.207Z</time>
      </trkpt>
      <trkpt lat="46.82902" lon="8.41664">
        <ele>1404</ele>
        <time>2021-08-13T08:56:15.208Z</time>
      </trkpt>
      <trkpt lat="46.82902" lon="8.41664">
        <ele>1403</ele>
        <time>2021-08-13T08:56:16.207Z</time>
      </trkpt>
      <trkpt lat="46.82901" lon="8.41664">
        <ele>1403</ele>
        <time>2021-08-13T08:56:17.208Z</time>
      </trkpt>
      <trkpt lat="46.829" lon="8.41664">
        <ele>1403</ele>
        <time>2021-08-13T08:56:18.208Z</time>
      </trkpt>
      <trkpt lat="46.82899" lon="8.41665">
        <ele>1403</ele>
        <time>2021-08-13T08:56:19.208Z</time>
      </trkpt>
      <trkpt lat="46.82898" lon="8.41665">
        <ele>1403</ele>
        <time>2021-08-13T08:56:20.207Z</time>
      </trkpt>
      <trkpt lat="46.82897" lon="8.41665">
        <ele>1403</ele>
        <time>2021-08-13T08:56:21.208Z</time>
      </trkpt>
      <trkpt lat="46.82896" lon="8.41666">
        <ele>1403</ele>
        <time>2021-08-13T08:56:22.207Z</time>
      </trkpt>
      <trkpt lat="46.82895" lon="8.41667">
        <ele>1403</ele>
        <time>2021-08-13T08:56:23.208Z</time>
      </trkpt>
      <trkpt lat="46.82895" lon="8.41667">
        <ele>1403</ele>
        <time>2021-08-13T08:56:24.208Z</time>
      </trkpt>
      <trkpt lat="46.82895" lon="8.41666">
        <ele>1403</ele>
        <time>2021-08-13T08:56:25.208Z</time>
      </trkpt>
      <trkpt lat="46.82894" lon="8.41666">
        <ele>1402</ele>
        <time>2021-08-13T08:56:26.208Z</time>
      </trkpt>
      <trkpt lat="46.82894" lon="8.41666">
        <ele>1402</ele>
        <time>2021-08-13T08:56:27.208Z</time>
      </trkpt>
      <trkpt lat="46.82894" lon="8.41667">
        <ele>1401</ele>
        <time>2021-08-13T08:56:28.207Z</time>
      </trkpt>
      <trkpt lat="46.82895" lon="8.41668">
        <ele>1400</ele>
        <time>2021-08-13T08:56:29.208Z</time>
      </trkpt>
      <trkpt lat="46.82891" lon="8.41669">
        <ele>1397</ele>
        <time>2021-08-13T08:56:30.209Z</time>
      </trkpt>
      <trkpt lat="46.82891" lon="8.41668">
        <ele>1396</ele>
        <time>2021-08-13T08:56:31.208Z</time>
      </trkpt>
      <trkpt lat="46.8289" lon="8.41668">
        <ele>1396</ele>
        <time>2021-08-13T08:56:32.209Z</time>
      </trkpt>
      <trkpt lat="46.8289" lon="8.41667">
        <ele>1396</ele>
        <time>2021-08-13T08:56:33.208Z</time>
      </trkpt>
      <trkpt lat="46.82889" lon="8.41667">
        <ele>1396</ele>
        <time>2021-08-13T08:56:34.208Z</time>
      </trkpt>
      <trkpt lat="46.82889" lon="8.41667">
        <ele>1396</ele>
        <time>2021-08-13T08:56:35.208Z</time>
      </trkpt>
      <trkpt lat="46.82888" lon="8.41667">
        <ele>1396</ele>
        <time>2021-08-13T08:56:36.208Z</time>
      </trkpt>
      <trkpt lat="46.82887" lon="8.41666">
        <ele>1396</ele>
        <time>2021-08-13T08:56:37.208Z</time>
      </trkpt>
      <trkpt lat="46.82887" lon="8.41666">
        <ele>1396</ele>
        <time>2021-08-13T08:56:38.208Z</time>
      </trkpt>
      <trkpt lat="46.82886" lon="8.41666">
        <ele>1396</ele>
        <time>2021-08-13T08:56:39.209Z</time>
      </trkpt>
      <trkpt lat="46.82886" lon="8.41666">
        <ele>1396</ele>
        <time>2021-08-13T08:56:40.208Z</time>
      </trkpt>
      <trkpt lat="46.82884" lon="8.41665">
        <ele>1395</ele>
        <time>2021-08-13T08:56:41.210Z</time>
      </trkpt>
      <trkpt lat="46.82883" lon="8.41665">
        <ele>1395</ele>
        <time>2021-08-13T08:56:42.210Z</time>
      </trkpt>
      <trkpt lat="46.82883" lon="8.41665">
        <ele>1395</ele>
        <time>2021-08-13T08:56:43.210Z</time>
      </trkpt>
      <trkpt lat="46.82882" lon="8.41664">
        <ele>1395</ele>
        <time>2021-08-13T08:56:44.210Z</time>
      </trkpt>
      <trkpt lat="46.82882" lon="8.41664">
        <ele>1395</ele>
        <time>2021-08-13T08:56:45.210Z</time>
      </trkpt>
      <trkpt lat="46.82882" lon="8.41664">
        <ele>1395</ele>
        <time>2021-08-13T08:56:46.211Z</time>
      </trkpt>
      <trkpt lat="46.82881" lon="8.41666">
        <ele>1396</ele>
        <time>2021-08-13T08:56:47.211Z</time>
      </trkpt>
      <trkpt lat="46.82881" lon="8.41666">
        <ele>1396</ele>
        <time>2021-08-13T08:56:48.211Z</time>
      </trkpt>
      <trkpt lat="46.82882" lon="8.41666">
        <ele>1396</ele>
        <time>2021-08-13T08:56:49.211Z</time>
      </trkpt>
      <trkpt lat="46.82882" lon="8.41665">
        <ele>1396</ele>
        <time>2021-08-13T08:56:50.211Z</time>
      </trkpt>
      <trkpt lat="46.82882" lon="8.41664">
        <ele>1396</ele>
        <time>2021-08-13T08:56:51.211Z</time>
      </trkpt>
      <trkpt lat="46.82882" lon="8.41664">
        <ele>1396</ele>
        <time>2021-08-13T08:56:52.211Z</time>
      </trkpt>
      <trkpt lat="46.82882" lon="8.41664">
        <ele>1396</ele>
        <time>2021-08-13T08:56:53.211Z</time>
      </trkpt>
      <trkpt lat="46.82881" lon="8.41665">
        <ele>1393</ele>
        <time>2021-08-13T08:56:54.213Z</time>
      </trkpt>
      <trkpt lat="46.8288" lon="8.41666">
        <ele>1392</ele>
        <time>2021-08-13T08:56:55.212Z</time>
      </trkpt>
      <trkpt lat="46.82878" lon="8.41666">
        <ele>1392</ele>
        <time>2021-08-13T08:56:56.213Z</time>
      </trkpt>
      <trkpt lat="46.82878" lon="8.41667">
        <ele>1392</ele>
        <time>2021-08-13T08:56:57.212Z</time>
      </trkpt>
      <trkpt lat="46.82877" lon="8.41668">
        <ele>1393</ele>
        <time>2021-08-13T08:56:58.213Z</time>
      </trkpt>
      <trkpt lat="46.82876" lon="8.41668">
        <ele>1393</ele>
        <time>2021-08-13T08:56:59.212Z</time>
      </trkpt>
      <trkpt lat="46.82875" lon="8.41668">
        <ele>1393</ele>
        <time>2021-08-13T08:57:00.213Z</time>
      </trkpt>
      <trkpt lat="46.82875" lon="8.41669">
        <ele>1393</ele>
        <time>2021-08-13T08:57:01.213Z</time>
      </trkpt>
      <trkpt lat="46.82874" lon="8.41669">
        <ele>1393</ele>
        <time>2021-08-13T08:57:02.213Z</time>
      </trkpt>
      <trkpt lat="46.82874" lon="8.41669">
        <ele>1393</ele>
        <time>2021-08-13T08:57:03.212Z</time>
      </trkpt>
      <trkpt lat="46.82875" lon="8.41669">
        <ele>1392</ele>
        <time>2021-08-13T08:57:04.212Z</time>
      </trkpt>
      <trkpt lat="46.82875" lon="8.4167">
        <ele>1392</ele>
        <time>2021-08-13T08:57:05.215Z</time>
      </trkpt>
      <trkpt lat="46.82875" lon="8.41669">
        <ele>1392</ele>
        <time>2021-08-13T08:57:06.214Z</time>
      </trkpt>
      <trkpt lat="46.82873" lon="8.41669">
        <ele>1391</ele>
        <time>2021-08-13T08:57:07.216Z</time>
      </trkpt>
      <trkpt lat="46.82872" lon="8.4167">
        <ele>1391</ele>
        <time>2021-08-13T08:57:08.215Z</time>
      </trkpt>
      <trkpt lat="46.82871" lon="8.41672">
        <ele>1390</ele>
        <time>2021-08-13T08:57:09.216Z</time>
      </trkpt>
      <trkpt lat="46.82871" lon="8.41673">
        <ele>1390</ele>
        <time>2021-08-13T08:57:10.215Z</time>
      </trkpt>
      <trkpt lat="46.8287" lon="8.41674">
        <ele>1390</ele>
        <time>2021-08-13T08:57:11.215Z</time>
      </trkpt>
      <trkpt lat="46.8287" lon="8.41676">
        <ele>1389</ele>
        <time>2021-08-13T08:57:12.216Z</time>
      </trkpt>
      <trkpt lat="46.82869" lon="8.41677">
        <ele>1389</ele>
        <time>2021-08-13T08:57:13.215Z</time>
      </trkpt>
      <trkpt lat="46.82868" lon="8.41679">
        <ele>1389</ele>
        <time>2021-08-13T08:57:14.216Z</time>
      </trkpt>
      <trkpt lat="46.82868" lon="8.41681">
        <ele>1389</ele>
        <time>2021-08-13T08:57:15.215Z</time>
      </trkpt>
      <trkpt lat="46.82868" lon="8.41683">
        <ele>1388</ele>
        <time>2021-08-13T08:57:16.215Z</time>
      </trkpt>
      <trkpt lat="46.82868" lon="8.41684">
        <ele>1388</ele>
        <time>2021-08-13T08:57:17.216Z</time>
      </trkpt>
      <trkpt lat="46.82868" lon="8.41685">
        <ele>1388</ele>
        <time>2021-08-13T08:57:18.215Z</time>
      </trkpt>
      <trkpt lat="46.82868" lon="8.41687">
        <ele>1387</ele>
        <time>2021-08-13T08:57:19.216Z</time>
      </trkpt>
      <trkpt lat="46.82868" lon="8.41688">
        <ele>1387</ele>
        <time>2021-08-13T08:57:20.216Z</time>
      </trkpt>
      <trkpt lat="46.82868" lon="8.4169">
        <ele>1387</ele>
        <time>2021-08-13T08:57:21.216Z</time>
      </trkpt>
      <trkpt lat="46.82868" lon="8.41692">
        <ele>1386</ele>
        <time>2021-08-13T08:57:22.216Z</time>
      </trkpt>
      <trkpt lat="46.82867" lon="8.41694">
        <ele>1386</ele>
        <time>2021-08-13T08:57:23.215Z</time>
      </trkpt>
      <trkpt lat="46.82867" lon="8.41695">
        <ele>1386</ele>
        <time>2021-08-13T08:57:24.216Z</time>
      </trkpt>
      <trkpt lat="46.82867" lon="8.41696">
        <ele>1386</ele>
        <time>2021-08-13T08:57:25.216Z</time>
      </trkpt>
      <trkpt lat="46.82866" lon="8.41697">
        <ele>1386</ele>
        <time>2021-08-13T08:57:26.216Z</time>
      </trkpt>
      <trkpt lat="46.82866" lon="8.41697">
        <ele>1385</ele>
        <time>2021-08-13T08:57:27.216Z</time>
      </trkpt>
      <trkpt lat="46.82865" lon="8.41698">
        <ele>1385</ele>
        <time>2021-08-13T08:57:28.216Z</time>
      </trkpt>
      <trkpt lat="46.82864" lon="8.41698">
        <ele>1385</ele>
        <time>2021-08-13T08:57:29.216Z</time>
      </trkpt>
      <trkpt lat="46.82863" lon="8.41699">
        <ele>1385</ele>
        <time>2021-08-13T08:57:30.216Z</time>
      </trkpt>
      <trkpt lat="46.82862" lon="8.41699">
        <ele>1385</ele>
        <time>2021-08-13T08:57:31.216Z</time>
      </trkpt>
      <trkpt lat="46.82862" lon="8.41699">
        <ele>1386</ele>
        <time>2021-08-13T08:57:32.215Z</time>
      </trkpt>
      <trkpt lat="46.82861" lon="8.417">
        <ele>1386</ele>
        <time>2021-08-13T08:57:33.216Z</time>
      </trkpt>
      <trkpt lat="46.82861" lon="8.417">
        <ele>1386</ele>
        <time>2021-08-13T08:57:34.216Z</time>
      </trkpt>
      <trkpt lat="46.8286" lon="8.41701">
        <ele>1387</ele>
        <time>2021-08-13T08:57:35.215Z</time>
      </trkpt>
      <trkpt lat="46.82858" lon="8.41701">
        <ele>1387</ele>
        <time>2021-08-13T08:57:36.216Z</time>
      </trkpt>
      <trkpt lat="46.82857" lon="8.41701">
        <ele>1387</ele>
        <time>2021-08-13T08:57:37.216Z</time>
      </trkpt>
      <trkpt lat="46.82856" lon="8.41701">
        <ele>1388</ele>
        <time>2021-08-13T08:57:38.216Z</time>
      </trkpt>
      <trkpt lat="46.82855" lon="8.41702">
        <ele>1388</ele>
        <time>2021-08-13T08:57:39.216Z</time>
      </trkpt>
      <trkpt lat="46.82855" lon="8.41702">
        <ele>1388</ele>
        <time>2021-08-13T08:57:40.216Z</time>
      </trkpt>
      <trkpt lat="46.82854" lon="8.41703">
        <ele>1388</ele>
        <time>2021-08-13T08:57:41.215Z</time>
      </trkpt>
      <trkpt lat="46.82853" lon="8.41703">
        <ele>1388</ele>
        <time>2021-08-13T08:57:42.215Z</time>
      </trkpt>
      <trkpt lat="46.82853" lon="8.41704">
        <ele>1388</ele>
        <time>2021-08-13T08:57:43.216Z</time>
      </trkpt>
      <trkpt lat="46.82853" lon="8.41705">
        <ele>1387</ele>
        <time>2021-08-13T08:57:44.216Z</time>
      </trkpt>
      <trkpt lat="46.82852" lon="8.41708">
        <ele>1387</ele>
        <time>2021-08-13T08:57:45.216Z</time>
      </trkpt>
      <trkpt lat="46.82852" lon="8.41709">
        <ele>1386</ele>
        <time>2021-08-13T08:57:46.216Z</time>
      </trkpt>
      <trkpt lat="46.82851" lon="8.4171">
        <ele>1386</ele>
        <time>2021-08-13T08:57:47.216Z</time>
      </trkpt>
      <trkpt lat="46.82851" lon="8.41711">
        <ele>1385</ele>
        <time>2021-08-13T08:57:48.216Z</time>
      </trkpt>
      <trkpt lat="46.82851" lon="8.41711">
        <ele>1385</ele>
        <time>2021-08-13T08:57:49.216Z</time>
      </trkpt>
      <trkpt lat="46.8285" lon="8.41711">
        <ele>1385</ele>
        <time>2021-08-13T08:57:50.216Z</time>
      </trkpt>
      <trkpt lat="46.8285" lon="8.41712">
        <ele>1385</ele>
        <time>2021-08-13T08:57:51.216Z</time>
      </trkpt>
      <trkpt lat="46.8285" lon="8.41712">
        <ele>1385</ele>
        <time>2021-08-13T08:57:52.216Z</time>
      </trkpt>
      <trkpt lat="46.82849" lon="8.41714">
        <ele>1385</ele>
        <time>2021-08-13T08:57:53.215Z</time>
      </trkpt>
      <trkpt lat="46.82849" lon="8.41714">
        <ele>1385</ele>
        <time>2021-08-13T08:57:54.216Z</time>
      </trkpt>
      <trkpt lat="46.82849" lon="8.41715">
        <ele>1385</ele>
        <time>2021-08-13T08:57:55.216Z</time>
      </trkpt>
      <trkpt lat="46.82849" lon="8.41716">
        <ele>1385</ele>
        <time>2021-08-13T08:57:56.215Z</time>
      </trkpt>
      <trkpt lat="46.82849" lon="8.41717">
        <ele>1385</ele>
        <time>2021-08-13T08:57:57.216Z</time>
      </trkpt>
      <trkpt lat="46.82848" lon="8.41718">
        <ele>1385</ele>
        <time>2021-08-13T08:57:58.215Z</time>
      </trkpt>
      <trkpt lat="46.82847" lon="8.41719">
        <ele>1385</ele>
        <time>2021-08-13T08:57:59.216Z</time>
      </trkpt>
      <trkpt lat="46.82847" lon="8.41719">
        <ele>1384</ele>
        <time>2021-08-13T08:58:00.215Z</time>
      </trkpt>
      <trkpt lat="46.82846" lon="8.41718">
        <ele>1384</ele>
        <time>2021-08-13T08:58:01.216Z</time>
      </trkpt>
      <trkpt lat="46.82845" lon="8.41717">
        <ele>1384</ele>
        <time>2021-08-13T08:58:02.216Z</time>
      </trkpt>
      <trkpt lat="46.82844" lon="8.41716">
        <ele>1384</ele>
        <time>2021-08-13T08:58:03.216Z</time>
      </trkpt>
      <trkpt lat="46.82844" lon="8.41716">
        <ele>1384</ele>
        <time>2021-08-13T08:58:04.216Z</time>
      </trkpt>
      <trkpt lat="46.82844" lon="8.41716">
        <ele>1383</ele>
        <time>2021-08-13T08:58:05.215Z</time>
      </trkpt>
      <trkpt lat="46.82844" lon="8.41715">
        <ele>1383</ele>
        <time>2021-08-13T08:58:06.215Z</time>
      </trkpt>
      <trkpt lat="46.82845" lon="8.41714">
        <ele>1378</ele>
        <time>2021-08-13T08:58:07.216Z</time>
      </trkpt>
      <trkpt lat="46.82844" lon="8.41715">
        <ele>1378</ele>
        <time>2021-08-13T08:58:08.215Z</time>
      </trkpt>
      <trkpt lat="46.82844" lon="8.41714">
        <ele>1375</ele>
        <time>2021-08-13T08:58:09.216Z</time>
      </trkpt>
      <trkpt lat="46.82843" lon="8.41713">
        <ele>1375</ele>
        <time>2021-08-13T08:58:10.215Z</time>
      </trkpt>
      <trkpt lat="46.82843" lon="8.41713">
        <ele>1376</ele>
        <time>2021-08-13T08:58:11.215Z</time>
      </trkpt>
      <trkpt lat="46.82842" lon="8.41712">
        <ele>1376</ele>
        <time>2021-08-13T08:58:12.215Z</time>
      </trkpt>
      <trkpt lat="46.82841" lon="8.41711">
        <ele>1376</ele>
        <time>2021-08-13T08:58:13.216Z</time>
      </trkpt>
      <trkpt lat="46.82841" lon="8.41711">
        <ele>1377</ele>
        <time>2021-08-13T08:58:14.215Z</time>
      </trkpt>
      <trkpt lat="46.8284" lon="8.4171">
        <ele>1377</ele>
        <time>2021-08-13T08:58:15.215Z</time>
      </trkpt>
      <trkpt lat="46.82839" lon="8.41709">
        <ele>1376</ele>
        <time>2021-08-13T08:58:16.216Z</time>
      </trkpt>
      <trkpt lat="46.82839" lon="8.41708">
        <ele>1376</ele>
        <time>2021-08-13T08:58:17.216Z</time>
      </trkpt>
      <trkpt lat="46.82838" lon="8.41708">
        <ele>1376</ele>
        <time>2021-08-13T08:58:18.215Z</time>
      </trkpt>
      <trkpt lat="46.82837" lon="8.41707">
        <ele>1377</ele>
        <time>2021-08-13T08:58:19.216Z</time>
      </trkpt>
      <trkpt lat="46.82836" lon="8.41706">
        <ele>1377</ele>
        <time>2021-08-13T08:58:20.216Z</time>
      </trkpt>
      <trkpt lat="46.82836" lon="8.41705">
        <ele>1377</ele>
        <time>2021-08-13T08:58:21.216Z</time>
      </trkpt>
      <trkpt lat="46.82835" lon="8.41704">
        <ele>1377</ele>
        <time>2021-08-13T08:58:22.216Z</time>
      </trkpt>
      <trkpt lat="46.82834" lon="8.41703">
        <ele>1377</ele>
        <time>2021-08-13T08:58:23.215Z</time>
      </trkpt>
      <trkpt lat="46.82834" lon="8.41702">
        <ele>1377</ele>
        <time>2021-08-13T08:58:24.216Z</time>
      </trkpt>
      <trkpt lat="46.82833" lon="8.41701">
        <ele>1377</ele>
        <time>2021-08-13T08:58:25.216Z</time>
      </trkpt>
      <trkpt lat="46.82833" lon="8.417">
        <ele>1377</ele>
        <time>2021-08-13T08:58:26.216Z</time>
      </trkpt>
      <trkpt lat="46.82833" lon="8.41698">
        <ele>1376</ele>
        <time>2021-08-13T08:58:27.216Z</time>
      </trkpt>
      <trkpt lat="46.82832" lon="8.41697">
        <ele>1376</ele>
        <time>2021-08-13T08:58:28.215Z</time>
      </trkpt>
      <trkpt lat="46.82831" lon="8.41696">
        <ele>1376</ele>
        <time>2021-08-13T08:58:29.216Z</time>
      </trkpt>
      <trkpt lat="46.82831" lon="8.41695">
        <ele>1377</ele>
        <time>2021-08-13T08:58:30.215Z</time>
      </trkpt>
      <trkpt lat="46.82831" lon="8.41694">
        <ele>1377</ele>
        <time>2021-08-13T08:58:31.215Z</time>
      </trkpt>
      <trkpt lat="46.8283" lon="8.41693">
        <ele>1377</ele>
        <time>2021-08-13T08:58:32.216Z</time>
      </trkpt>
      <trkpt lat="46.82829" lon="8.41692">
        <ele>1377</ele>
        <time>2021-08-13T08:58:33.216Z</time>
      </trkpt>
      <trkpt lat="46.82829" lon="8.41691">
        <ele>1378</ele>
        <time>2021-08-13T08:58:34.215Z</time>
      </trkpt>
      <trkpt lat="46.82829" lon="8.4169">
        <ele>1378</ele>
        <time>2021-08-13T08:58:35.216Z</time>
      </trkpt>
      <trkpt lat="46.82829" lon="8.4169">
        <ele>1378</ele>
        <time>2021-08-13T08:58:36.215Z</time>
      </trkpt>
      <trkpt lat="46.82829" lon="8.41689">
        <ele>1378</ele>
        <time>2021-08-13T08:58:37.215Z</time>
      </trkpt>
      <trkpt lat="46.82828" lon="8.41688">
        <ele>1378</ele>
        <time>2021-08-13T08:58:38.215Z</time>
      </trkpt>
      <trkpt lat="46.82828" lon="8.41687">
        <ele>1378</ele>
        <time>2021-08-13T08:58:39.216Z</time>
      </trkpt>
      <trkpt lat="46.82827" lon="8.41686">
        <ele>1378</ele>
        <time>2021-08-13T08:58:40.216Z</time>
      </trkpt>
      <trkpt lat="46.82826" lon="8.41686">
        <ele>1378</ele>
        <time>2021-08-13T08:58:41.216Z</time>
      </trkpt>
      <trkpt lat="46.82826" lon="8.41684">
        <ele>1378</ele>
        <time>2021-08-13T08:58:42.216Z</time>
      </trkpt>
      <trkpt lat="46.82825" lon="8.41683">
        <ele>1378</ele>
        <time>2021-08-13T08:58:43.216Z</time>
      </trkpt>
      <trkpt lat="46.82824" lon="8.41681">
        <ele>1378</ele>
        <time>2021-08-13T08:58:44.215Z</time>
      </trkpt>
      <trkpt lat="46.82824" lon="8.4168">
        <ele>1378</ele>
        <time>2021-08-13T08:58:45.215Z</time>
      </trkpt>
      <trkpt lat="46.82822" lon="8.41678">
        <ele>1378</ele>
        <time>2021-08-13T08:58:46.216Z</time>
      </trkpt>
      <trkpt lat="46.82822" lon="8.41677">
        <ele>1378</ele>
        <time>2021-08-13T08:58:47.215Z</time>
      </trkpt>
      <trkpt lat="46.82821" lon="8.41677">
        <ele>1378</ele>
        <time>2021-08-13T08:58:48.215Z</time>
      </trkpt>
      <trkpt lat="46.8282" lon="8.41677">
        <ele>1377</ele>
        <time>2021-08-13T08:58:49.216Z</time>
      </trkpt>
      <trkpt lat="46.8282" lon="8.41677">
        <ele>1377</ele>
        <time>2021-08-13T08:58:50.216Z</time>
      </trkpt>
      <trkpt lat="46.82819" lon="8.41676">
        <ele>1377</ele>
        <time>2021-08-13T08:58:51.216Z</time>
      </trkpt>
      <trkpt lat="46.82818" lon="8.41676">
        <ele>1376</ele>
        <time>2021-08-13T08:58:52.216Z</time>
      </trkpt>
      <trkpt lat="46.82818" lon="8.41675">
        <ele>1376</ele>
        <time>2021-08-13T08:58:53.216Z</time>
      </trkpt>
      <trkpt lat="46.82817" lon="8.41675">
        <ele>1375</ele>
        <time>2021-08-13T08:58:54.215Z</time>
      </trkpt>
      <trkpt lat="46.82817" lon="8.41673">
        <ele>1374</ele>
        <time>2021-08-13T08:58:55.216Z</time>
      </trkpt>
      <trkpt lat="46.82816" lon="8.41672">
        <ele>1373</ele>
        <time>2021-08-13T08:58:56.216Z</time>
      </trkpt>
      <trkpt lat="46.82815" lon="8.41671">
        <ele>1373</ele>
        <time>2021-08-13T08:58:57.216Z</time>
      </trkpt>
      <trkpt lat="46.82813" lon="8.4167">
        <ele>1373</ele>
        <time>2021-08-13T08:58:58.216Z</time>
      </trkpt>
      <trkpt lat="46.82812" lon="8.41669">
        <ele>1373</ele>
        <time>2021-08-13T08:58:59.216Z</time>
      </trkpt>
      <trkpt lat="46.82811" lon="8.41668">
        <ele>1372</ele>
        <time>2021-08-13T08:59:00.215Z</time>
      </trkpt>
      <trkpt lat="46.8281" lon="8.41667">
        <ele>1372</ele>
        <time>2021-08-13T08:59:01.215Z</time>
      </trkpt>
      <trkpt lat="46.82809" lon="8.41666">
        <ele>1372</ele>
        <time>2021-08-13T08:59:02.216Z</time>
      </trkpt>
      <trkpt lat="46.82808" lon="8.41666">
        <ele>1372</ele>
        <time>2021-08-13T08:59:03.216Z</time>
      </trkpt>
      <trkpt lat="46.82807" lon="8.41665">
        <ele>1372</ele>
        <time>2021-08-13T08:59:04.215Z</time>
      </trkpt>
      <trkpt lat="46.82806" lon="8.41664">
        <ele>1372</ele>
        <time>2021-08-13T08:59:05.215Z</time>
      </trkpt>
      <trkpt lat="46.82805" lon="8.41663">
        <ele>1372</ele>
        <time>2021-08-13T08:59:06.216Z</time>
      </trkpt>
      <trkpt lat="46.82804" lon="8.41662">
        <ele>1372</ele>
        <time>2021-08-13T08:59:07.215Z</time>
      </trkpt>
      <trkpt lat="46.82803" lon="8.41661">
        <ele>1372</ele>
        <time>2021-08-13T08:59:08.215Z</time>
      </trkpt>
      <trkpt lat="46.82802" lon="8.4166">
        <ele>1372</ele>
        <time>2021-08-13T08:59:09.216Z</time>
      </trkpt>
      <trkpt lat="46.82802" lon="8.41659">
        <ele>1372</ele>
        <time>2021-08-13T08:59:10.216Z</time>
      </trkpt>
      <trkpt lat="46.82801" lon="8.41658">
        <ele>1372</ele>
        <time>2021-08-13T08:59:11.215Z</time>
      </trkpt>
      <trkpt lat="46.828" lon="8.41658">
        <ele>1372</ele>
        <time>2021-08-13T08:59:12.216Z</time>
      </trkpt>
      <trkpt lat="46.82801" lon="8.41658">
        <ele>1371</ele>
        <time>2021-08-13T08:59:13.216Z</time>
      </trkpt>
      <trkpt lat="46.82801" lon="8.41657">
        <ele>1370</ele>
        <time>2021-08-13T08:59:14.216Z</time>
      </trkpt>
      <trkpt lat="46.82801" lon="8.41656">
        <ele>1369</ele>
        <time>2021-08-13T08:59:15.216Z</time>
      </trkpt>
      <trkpt lat="46.82801" lon="8.41655">
        <ele>1368</ele>
        <time>2021-08-13T08:59:16.215Z</time>
      </trkpt>
      <trkpt lat="46.828" lon="8.41654">
        <ele>1367</ele>
        <time>2021-08-13T08:59:17.216Z</time>
      </trkpt>
      <trkpt lat="46.828" lon="8.41652">
        <ele>1365</ele>
        <time>2021-08-13T08:59:18.216Z</time>
      </trkpt>
      <trkpt lat="46.82801" lon="8.41652">
        <ele>1364</ele>
        <time>2021-08-13T08:59:19.216Z</time>
      </trkpt>
      <trkpt lat="46.828" lon="8.4165">
        <ele>1363</ele>
        <time>2021-08-13T08:59:20.216Z</time>
      </trkpt>
      <trkpt lat="46.828" lon="8.41649">
        <ele>1362</ele>
        <time>2021-08-13T08:59:21.216Z</time>
      </trkpt>
      <trkpt lat="46.82799" lon="8.41648">
        <ele>1361</ele>
        <time>2021-08-13T08:59:22.215Z</time>
      </trkpt>
      <trkpt lat="46.82799" lon="8.41647">
        <ele>1360</ele>
        <time>2021-08-13T08:59:23.216Z</time>
      </trkpt>
      <trkpt lat="46.828" lon="8.41646">
        <ele>1359</ele>
        <time>2021-08-13T08:59:24.216Z</time>
      </trkpt>
      <trkpt lat="46.82799" lon="8.41645">
        <ele>1358</ele>
        <time>2021-08-13T08:59:25.216Z</time>
      </trkpt>
      <trkpt lat="46.82799" lon="8.41644">
        <ele>1358</ele>
        <time>2021-08-13T08:59:26.216Z</time>
      </trkpt>
      <trkpt lat="46.828" lon="8.41643">
        <ele>1357</ele>
        <time>2021-08-13T08:59:27.216Z</time>
      </trkpt>
      <trkpt lat="46.828" lon="8.41642">
        <ele>1357</ele>
        <time>2021-08-13T08:59:28.215Z</time>
      </trkpt>
      <trkpt lat="46.82799" lon="8.41641">
        <ele>1356</ele>
        <time>2021-08-13T08:59:29.215Z</time>
      </trkpt>
      <trkpt lat="46.82799" lon="8.4164">
        <ele>1356</ele>
        <time>2021-08-13T08:59:30.216Z</time>
      </trkpt>
      <trkpt lat="46.82798" lon="8.41639">
        <ele>1356</ele>
        <time>2021-08-13T08:59:31.216Z</time>
      </trkpt>
      <trkpt lat="46.82798" lon="8.41638">
        <ele>1355</ele>
        <time>2021-08-13T08:59:32.216Z</time>
      </trkpt>
      <trkpt lat="46.82798" lon="8.41637">
        <ele>1354</ele>
        <time>2021-08-13T08:59:33.216Z</time>
      </trkpt>
      <trkpt lat="46.82797" lon="8.41635">
        <ele>1353</ele>
        <time>2021-08-13T08:59:34.215Z</time>
      </trkpt>
      <trkpt lat="46.82796" lon="8.41634">
        <ele>1352</ele>
        <time>2021-08-13T08:59:35.215Z</time>
      </trkpt>
      <trkpt lat="46.82796" lon="8.41633">
        <ele>1352</ele>
        <time>2021-08-13T08:59:36.215Z</time>
      </trkpt>
      <trkpt lat="46.82795" lon="8.41632">
        <ele>1351</ele>
        <time>2021-08-13T08:59:37.216Z</time>
      </trkpt>
      <trkpt lat="46.82795" lon="8.4163">
        <ele>1351</ele>
        <time>2021-08-13T08:59:38.216Z</time>
      </trkpt>
      <trkpt lat="46.82794" lon="8.41628">
        <ele>1350</ele>
        <time>2021-08-13T08:59:39.216Z</time>
      </trkpt>
      <trkpt lat="46.82794" lon="8.41627">
        <ele>1350</ele>
        <time>2021-08-13T08:59:40.216Z</time>
      </trkpt>
      <trkpt lat="46.82793" lon="8.41626">
        <ele>1351</ele>
        <time>2021-08-13T08:59:41.216Z</time>
      </trkpt>
      <trkpt lat="46.82792" lon="8.41625">
        <ele>1351</ele>
        <time>2021-08-13T08:59:42.215Z</time>
      </trkpt>
      <trkpt lat="46.82791" lon="8.41625">
        <ele>1351</ele>
        <time>2021-08-13T08:59:43.215Z</time>
      </trkpt>
      <trkpt lat="46.8279" lon="8.41624">
        <ele>1351</ele>
        <time>2021-08-13T08:59:44.216Z</time>
      </trkpt>
      <trkpt lat="46.82789" lon="8.41623">
        <ele>1350</ele>
        <time>2021-08-13T08:59:45.216Z</time>
      </trkpt>
      <trkpt lat="46.82788" lon="8.41623">
        <ele>1350</ele>
        <time>2021-08-13T08:59:46.216Z</time>
      </trkpt>
      <trkpt lat="46.82787" lon="8.41622">
        <ele>1349</ele>
        <time>2021-08-13T08:59:47.216Z</time>
      </trkpt>
      <trkpt lat="46.82787" lon="8.41622">
        <ele>1349</ele>
        <time>2021-08-13T08:59:48.215Z</time>
      </trkpt>
      <trkpt lat="46.82786" lon="8.41621">
        <ele>1349</ele>
        <time>2021-08-13T08:59:49.215Z</time>
      </trkpt>
      <trkpt lat="46.82785" lon="8.41621">
        <ele>1349</ele>
        <time>2021-08-13T08:59:50.216Z</time>
      </trkpt>
      <trkpt lat="46.82784" lon="8.4162">
        <ele>1349</ele>
        <time>2021-08-13T08:59:51.216Z</time>
      </trkpt>
      <trkpt lat="46.82783" lon="8.41619">
        <ele>1350</ele>
        <time>2021-08-13T08:59:52.216Z</time>
      </trkpt>
      <trkpt lat="46.82782" lon="8.41618">
        <ele>1350</ele>
        <time>2021-08-13T08:59:53.215Z</time>
      </trkpt>
      <trkpt lat="46.82781" lon="8.41618">
        <ele>1349</ele>
        <time>2021-08-13T08:59:54.215Z</time>
      </trkpt>
      <trkpt lat="46.8278" lon="8.41618">
        <ele>1350</ele>
        <time>2021-08-13T08:59:55.216Z</time>
      </trkpt>
      <trkpt lat="46.8278" lon="8.41618">
        <ele>1349</ele>
        <time>2021-08-13T08:59:56.215Z</time>
      </trkpt>
      <trkpt lat="46.82779" lon="8.41618">
        <ele>1349</ele>
        <time>2021-08-13T08:59:57.215Z</time>
      </trkpt>
      <trkpt lat="46.82779" lon="8.41618">
        <ele>1349</ele>
        <time>2021-08-13T08:59:58.216Z</time>
      </trkpt>
      <trkpt lat="46.82778" lon="8.41619">
        <ele>1349</ele>
        <time>2021-08-13T08:59:59.216Z</time>
      </trkpt>
      <trkpt lat="46.82777" lon="8.41619">
        <ele>1349</ele>
        <time>2021-08-13T09:00:00.216Z</time>
      </trkpt>
      <trkpt lat="46.82776" lon="8.41619">
        <ele>1348</ele>
        <time>2021-08-13T09:00:01.216Z</time>
      </trkpt>
      <trkpt lat="46.82775" lon="8.41619">
        <ele>1347</ele>
        <time>2021-08-13T09:00:02.215Z</time>
      </trkpt>
      <trkpt lat="46.82774" lon="8.41619">
        <ele>1346</ele>
        <time>2021-08-13T09:00:03.216Z</time>
      </trkpt>
      <trkpt lat="46.82774" lon="8.41618">
        <ele>1346</ele>
        <time>2021-08-13T09:00:04.216Z</time>
      </trkpt>
      <trkpt lat="46.82772" lon="8.41618">
        <ele>1346</ele>
        <time>2021-08-13T09:00:05.216Z</time>
      </trkpt>
      <trkpt lat="46.82771" lon="8.41618">
        <ele>1345</ele>
        <time>2021-08-13T09:00:06.216Z</time>
      </trkpt>
      <trkpt lat="46.8277" lon="8.41618">
        <ele>1345</ele>
        <time>2021-08-13T09:00:07.216Z</time>
      </trkpt>
      <trkpt lat="46.82769" lon="8.41618">
        <ele>1344</ele>
        <time>2021-08-13T09:00:08.216Z</time>
      </trkpt>
      <trkpt lat="46.82768" lon="8.41617">
        <ele>1344</ele>
        <time>2021-08-13T09:00:09.215Z</time>
      </trkpt>
      <trkpt lat="46.82767" lon="8.41616">
        <ele>1343</ele>
        <time>2021-08-13T09:00:10.215Z</time>
      </trkpt>
      <trkpt lat="46.82766" lon="8.41616">
        <ele>1343</ele>
        <time>2021-08-13T09:00:11.216Z</time>
      </trkpt>
      <trkpt lat="46.82765" lon="8.41616">
        <ele>1342</ele>
        <time>2021-08-13T09:00:12.216Z</time>
      </trkpt>
      <trkpt lat="46.82764" lon="8.41615">
        <ele>1342</ele>
        <time>2021-08-13T09:00:13.215Z</time>
      </trkpt>
      <trkpt lat="46.82762" lon="8.41615">
        <ele>1342</ele>
        <time>2021-08-13T09:00:14.216Z</time>
      </trkpt>
      <trkpt lat="46.82761" lon="8.41615">
        <ele>1342</ele>
        <time>2021-08-13T09:00:15.215Z</time>
      </trkpt>
      <trkpt lat="46.8276" lon="8.41615">
        <ele>1342</ele>
        <time>2021-08-13T09:00:16.215Z</time>
      </trkpt>
      <trkpt lat="46.82759" lon="8.41614">
        <ele>1341</ele>
        <time>2021-08-13T09:00:17.216Z</time>
      </trkpt>
      <trkpt lat="46.82758" lon="8.41614">
        <ele>1341</ele>
        <time>2021-08-13T09:00:18.216Z</time>
      </trkpt>
      <trkpt lat="46.82757" lon="8.41614">
        <ele>1342</ele>
        <time>2021-08-13T09:00:19.216Z</time>
      </trkpt>
      <trkpt lat="46.82756" lon="8.41613">
        <ele>1342</ele>
        <time>2021-08-13T09:00:20.215Z</time>
      </trkpt>
      <trkpt lat="46.82755" lon="8.41613">
        <ele>1342</ele>
        <time>2021-08-13T09:00:21.215Z</time>
      </trkpt>
      <trkpt lat="46.82754" lon="8.41613">
        <ele>1342</ele>
        <time>2021-08-13T09:00:22.215Z</time>
      </trkpt>
      <trkpt lat="46.82754" lon="8.41613">
        <ele>1342</ele>
        <time>2021-08-13T09:00:23.215Z</time>
      </trkpt>
      <trkpt lat="46.82753" lon="8.41612">
        <ele>1342</ele>
        <time>2021-08-13T09:00:24.215Z</time>
      </trkpt>
      <trkpt lat="46.82753" lon="8.41612">
        <ele>1342</ele>
        <time>2021-08-13T09:00:25.216Z</time>
      </trkpt>
      <trkpt lat="46.82753" lon="8.41611">
        <ele>1342</ele>
        <time>2021-08-13T09:00:26.216Z</time>
      </trkpt>
      <trkpt lat="46.82753" lon="8.41611">
        <ele>1341</ele>
        <time>2021-08-13T09:00:27.215Z</time>
      </trkpt>
      <trkpt lat="46.82753" lon="8.4161">
        <ele>1341</ele>
        <time>2021-08-13T09:00:28.216Z</time>
      </trkpt>
      <trkpt lat="46.82753" lon="8.41609">
        <ele>1341</ele>
        <time>2021-08-13T09:00:29.215Z</time>
      </trkpt>
      <trkpt lat="46.82753" lon="8.41608">
        <ele>1341</ele>
        <time>2021-08-13T09:00:30.216Z</time>
      </trkpt>
      <trkpt lat="46.82753" lon="8.41607">
        <ele>1340</ele>
        <time>2021-08-13T09:00:31.215Z</time>
      </trkpt>
      <trkpt lat="46.82754" lon="8.41607">
        <ele>1340</ele>
        <time>2021-08-13T09:00:32.216Z</time>
      </trkpt>
      <trkpt lat="46.8275" lon="8.41608">
        <ele>1337</ele>
        <time>2021-08-13T09:00:33.215Z</time>
      </trkpt>
      <trkpt lat="46.8275" lon="8.41607">
        <ele>1337</ele>
        <time>2021-08-13T09:00:34.215Z</time>
      </trkpt>
      <trkpt lat="46.82749" lon="8.41607">
        <ele>1336</ele>
        <time>2021-08-13T09:00:35.215Z</time>
      </trkpt>
      <trkpt lat="46.8275" lon="8.41605">
        <ele>1333</ele>
        <time>2021-08-13T09:00:36.215Z</time>
      </trkpt>
      <trkpt lat="46.82751" lon="8.41604">
        <ele>1333</ele>
        <time>2021-08-13T09:00:37.215Z</time>
      </trkpt>
      <trkpt lat="46.82751" lon="8.41602">
        <ele>1334</ele>
        <time>2021-08-13T09:00:38.216Z</time>
      </trkpt>
      <trkpt lat="46.82751" lon="8.41601">
        <ele>1334</ele>
        <time>2021-08-13T09:00:39.215Z</time>
      </trkpt>
      <trkpt lat="46.82751" lon="8.416">
        <ele>1335</ele>
        <time>2021-08-13T09:00:40.215Z</time>
      </trkpt>
      <trkpt lat="46.82751" lon="8.416">
        <ele>1335</ele>
        <time>2021-08-13T09:00:41.215Z</time>
      </trkpt>
      <trkpt lat="46.82751" lon="8.41599">
        <ele>1335</ele>
        <time>2021-08-13T09:00:42.215Z</time>
      </trkpt>
      <trkpt lat="46.8275" lon="8.41599">
        <ele>1335</ele>
        <time>2021-08-13T09:00:43.215Z</time>
      </trkpt>
      <trkpt lat="46.82751" lon="8.41597">
        <ele>1335</ele>
        <time>2021-08-13T09:00:44.215Z</time>
      </trkpt>
      <trkpt lat="46.82751" lon="8.41596">
        <ele>1335</ele>
        <time>2021-08-13T09:00:45.215Z</time>
      </trkpt>
      <trkpt lat="46.82751" lon="8.41595">
        <ele>1336</ele>
        <time>2021-08-13T09:00:46.215Z</time>
      </trkpt>
      <trkpt lat="46.82751" lon="8.41594">
        <ele>1335</ele>
        <time>2021-08-13T09:00:47.215Z</time>
      </trkpt>
      <trkpt lat="46.82751" lon="8.41593">
        <ele>1336</ele>
        <time>2021-08-13T09:00:48.215Z</time>
      </trkpt>
      <trkpt lat="46.82752" lon="8.41592">
        <ele>1336</ele>
        <time>2021-08-13T09:00:49.215Z</time>
      </trkpt>
      <trkpt lat="46.82752" lon="8.4159">
        <ele>1336</ele>
        <time>2021-08-13T09:00:50.215Z</time>
      </trkpt>
      <trkpt lat="46.82752" lon="8.41589">
        <ele>1336</ele>
        <time>2021-08-13T09:00:51.215Z</time>
      </trkpt>
      <trkpt lat="46.82752" lon="8.41588">
        <ele>1337</ele>
        <time>2021-08-13T09:00:52.215Z</time>
      </trkpt>
      <trkpt lat="46.82752" lon="8.41587">
        <ele>1337</ele>
        <time>2021-08-13T09:00:53.215Z</time>
      </trkpt>
      <trkpt lat="46.82752" lon="8.41586">
        <ele>1337</ele>
        <time>2021-08-13T09:00:54.215Z</time>
      </trkpt>
      <trkpt lat="46.82752" lon="8.41584">
        <ele>1337</ele>
        <time>2021-08-13T09:00:55.215Z</time>
      </trkpt>
      <trkpt lat="46.82753" lon="8.41583">
        <ele>1336</ele>
        <time>2021-08-13T09:00:56.215Z</time>
      </trkpt>
      <trkpt lat="46.82753" lon="8.41581">
        <ele>1336</ele>
        <time>2021-08-13T09:00:57.215Z</time>
      </trkpt>
      <trkpt lat="46.82754" lon="8.4158">
        <ele>1336</ele>
        <time>2021-08-13T09:00:58.216Z</time>
      </trkpt>
      <trkpt lat="46.82754" lon="8.41579">
        <ele>1335</ele>
        <time>2021-08-13T09:00:59.215Z</time>
      </trkpt>
      <trkpt lat="46.82755" lon="8.41578">
        <ele>1335</ele>
        <time>2021-08-13T09:01:00.215Z</time>
      </trkpt>
      <trkpt lat="46.82755" lon="8.41577">
        <ele>1335</ele>
        <time>2021-08-13T09:01:01.216Z</time>
      </trkpt>
      <trkpt lat="46.82755" lon="8.41576">
        <ele>1334</ele>
        <time>2021-08-13T09:01:02.216Z</time>
      </trkpt>
      <trkpt lat="46.82756" lon="8.41575">
        <ele>1334</ele>
        <time>2021-08-13T09:01:03.216Z</time>
      </trkpt>
      <trkpt lat="46.82756" lon="8.41573">
        <ele>1334</ele>
        <time>2021-08-13T09:01:04.215Z</time>
      </trkpt>
      <trkpt lat="46.82757" lon="8.41572">
        <ele>1334</ele>
        <time>2021-08-13T09:01:05.215Z</time>
      </trkpt>
      <trkpt lat="46.82758" lon="8.4157">
        <ele>1334</ele>
        <time>2021-08-13T09:01:06.216Z</time>
      </trkpt>
      <trkpt lat="46.82759" lon="8.41569">
        <ele>1334</ele>
        <time>2021-08-13T09:01:07.215Z</time>
      </trkpt>
      <trkpt lat="46.82759" lon="8.41568">
        <ele>1333</ele>
        <time>2021-08-13T09:01:08.216Z</time>
      </trkpt>
      <trkpt lat="46.82759" lon="8.41566">
        <ele>1333</ele>
        <time>2021-08-13T09:01:09.215Z</time>
      </trkpt>
      <trkpt lat="46.8276" lon="8.41565">
        <ele>1333</ele>
        <time>2021-08-13T09:01:10.215Z</time>
      </trkpt>
      <trkpt lat="46.82761" lon="8.41563">
        <ele>1332</ele>
        <time>2021-08-13T09:01:11.216Z</time>
      </trkpt>
      <trkpt lat="46.82761" lon="8.41562">
        <ele>1332</ele>
        <time>2021-08-13T09:01:12.216Z</time>
      </trkpt>
      <trkpt lat="46.82762" lon="8.4156">
        <ele>1332</ele>
        <time>2021-08-13T09:01:13.215Z</time>
      </trkpt>
      <trkpt lat="46.82762" lon="8.41559">
        <ele>1332</ele>
        <time>2021-08-13T09:01:14.215Z</time>
      </trkpt>
      <trkpt lat="46.82763" lon="8.41558">
        <ele>1332</ele>
        <time>2021-08-13T09:01:15.215Z</time>
      </trkpt>
      <trkpt lat="46.82763" lon="8.41558">
        <ele>1332</ele>
        <time>2021-08-13T09:01:16.215Z</time>
      </trkpt>
      <trkpt lat="46.82763" lon="8.41557">
        <ele>1333</ele>
        <time>2021-08-13T09:01:17.215Z</time>
      </trkpt>
      <trkpt lat="46.82764" lon="8.41556">
        <ele>1332</ele>
        <time>2021-08-13T09:01:18.216Z</time>
      </trkpt>
      <trkpt lat="46.82765" lon="8.41555">
        <ele>1332</ele>
        <time>2021-08-13T09:01:19.217Z</time>
      </trkpt>
      <trkpt lat="46.82765" lon="8.41554">
        <ele>1332</ele>
        <time>2021-08-13T09:01:20.217Z</time>
      </trkpt>
      <trkpt lat="46.82766" lon="8.41553">
        <ele>1332</ele>
        <time>2021-08-13T09:01:21.216Z</time>
      </trkpt>
      <trkpt lat="46.82766" lon="8.41552">
        <ele>1332</ele>
        <time>2021-08-13T09:01:22.216Z</time>
      </trkpt>
      <trkpt lat="46.82767" lon="8.4155">
        <ele>1332</ele>
        <time>2021-08-13T09:01:23.217Z</time>
      </trkpt>
      <trkpt lat="46.82767" lon="8.41549">
        <ele>1331</ele>
        <time>2021-08-13T09:01:24.217Z</time>
      </trkpt>
      <trkpt lat="46.82767" lon="8.41549">
        <ele>1330</ele>
        <time>2021-08-13T09:01:25.217Z</time>
      </trkpt>
      <trkpt lat="46.82769" lon="8.41549">
        <ele>1315</ele>
        <time>2021-08-13T09:01:26.217Z</time>
      </trkpt>
      <trkpt lat="46.8277" lon="8.41549">
        <ele>1314</ele>
        <time>2021-08-13T09:01:27.216Z</time>
      </trkpt>
      <trkpt lat="46.82771" lon="8.41547">
        <ele>1314</ele>
        <time>2021-08-13T09:01:28.217Z</time>
      </trkpt>
      <trkpt lat="46.82772" lon="8.41546">
        <ele>1315</ele>
        <time>2021-08-13T09:01:29.216Z</time>
      </trkpt>
      <trkpt lat="46.82772" lon="8.41546">
        <ele>1315</ele>
        <time>2021-08-13T09:01:30.216Z</time>
      </trkpt>
      <trkpt lat="46.82772" lon="8.41545">
        <ele>1315</ele>
        <time>2021-08-13T09:01:31.217Z</time>
      </trkpt>
      <trkpt lat="46.82772" lon="8.41543">
        <ele>1316</ele>
        <time>2021-08-13T09:01:32.216Z</time>
      </trkpt>
      <trkpt lat="46.82773" lon="8.41541">
        <ele>1316</ele>
        <time>2021-08-13T09:01:33.217Z</time>
      </trkpt>
      <trkpt lat="46.82773" lon="8.4154">
        <ele>1317</ele>
        <time>2021-08-13T09:01:34.216Z</time>
      </trkpt>
      <trkpt lat="46.82774" lon="8.41539">
        <ele>1317</ele>
        <time>2021-08-13T09:01:35.216Z</time>
      </trkpt>
      <trkpt lat="46.82774" lon="8.41538">
        <ele>1317</ele>
        <time>2021-08-13T09:01:36.216Z</time>
      </trkpt>
      <trkpt lat="46.82775" lon="8.41536">
        <ele>1317</ele>
        <time>2021-08-13T09:01:37.216Z</time>
      </trkpt>
      <trkpt lat="46.82774" lon="8.41535">
        <ele>1317</ele>
        <time>2021-08-13T09:01:38.216Z</time>
      </trkpt>
      <trkpt lat="46.82774" lon="8.41534">
        <ele>1318</ele>
        <time>2021-08-13T09:01:39.216Z</time>
      </trkpt>
      <trkpt lat="46.82774" lon="8.41533">
        <ele>1318</ele>
        <time>2021-08-13T09:01:40.216Z</time>
      </trkpt>
      <trkpt lat="46.82773" lon="8.41533">
        <ele>1319</ele>
        <time>2021-08-13T09:01:41.216Z</time>
      </trkpt>
      <trkpt lat="46.82772" lon="8.41533">
        <ele>1319</ele>
        <time>2021-08-13T09:01:42.216Z</time>
      </trkpt>
      <trkpt lat="46.8277" lon="8.41533">
        <ele>1320</ele>
        <time>2021-08-13T09:01:43.216Z</time>
      </trkpt>
      <trkpt lat="46.82768" lon="8.41532">
        <ele>1321</ele>
        <time>2021-08-13T09:01:44.216Z</time>
      </trkpt>
      <trkpt lat="46.82768" lon="8.41532">
        <ele>1321</ele>
        <time>2021-08-13T09:01:45.216Z</time>
      </trkpt>
      <trkpt lat="46.82767" lon="8.41532">
        <ele>1321</ele>
        <time>2021-08-13T09:01:46.216Z</time>
      </trkpt>
      <trkpt lat="46.82766" lon="8.41531">
        <ele>1322</ele>
        <time>2021-08-13T09:01:47.216Z</time>
      </trkpt>
      <trkpt lat="46.82766" lon="8.4153">
        <ele>1322</ele>
        <time>2021-08-13T09:01:48.217Z</time>
      </trkpt>
      <trkpt lat="46.82766" lon="8.41529">
        <ele>1322</ele>
        <time>2021-08-13T09:01:49.216Z</time>
      </trkpt>
      <trkpt lat="46.82766" lon="8.41529">
        <ele>1322</ele>
        <time>2021-08-13T09:01:50.216Z</time>
      </trkpt>
      <trkpt lat="46.82766" lon="8.41528">
        <ele>1323</ele>
        <time>2021-08-13T09:01:51.216Z</time>
      </trkpt>
      <trkpt lat="46.82766" lon="8.41528">
        <ele>1322</ele>
        <time>2021-08-13T09:01:52.217Z</time>
      </trkpt>
      <trkpt lat="46.82765" lon="8.41528">
        <ele>1322</ele>
        <time>2021-08-13T09:01:53.216Z</time>
      </trkpt>
      <trkpt lat="46.82764" lon="8.41529">
        <ele>1321</ele>
        <time>2021-08-13T09:01:54.216Z</time>
      </trkpt>
      <trkpt lat="46.82763" lon="8.4153">
        <ele>1321</ele>
        <time>2021-08-13T09:01:55.216Z</time>
      </trkpt>
      <trkpt lat="46.82763" lon="8.4153">
        <ele>1320</ele>
        <time>2021-08-13T09:01:56.216Z</time>
      </trkpt>
      <trkpt lat="46.82763" lon="8.4153">
        <ele>1320</ele>
        <time>2021-08-13T09:01:57.216Z</time>
      </trkpt>
      <trkpt lat="46.82763" lon="8.41531">
        <ele>1320</ele>
        <time>2021-08-13T09:01:58.216Z</time>
      </trkpt>
      <trkpt lat="46.82762" lon="8.41532">
        <ele>1319</ele>
        <time>2021-08-13T09:01:59.216Z</time>
      </trkpt>
      <trkpt lat="46.82761" lon="8.41532">
        <ele>1319</ele>
        <time>2021-08-13T09:02:00.216Z</time>
      </trkpt>
      <trkpt lat="46.82761" lon="8.41533">
        <ele>1319</ele>
        <time>2021-08-13T09:02:01.216Z</time>
      </trkpt>
      <trkpt lat="46.8276" lon="8.41534">
        <ele>1318</ele>
        <time>2021-08-13T09:02:02.216Z</time>
      </trkpt>
      <trkpt lat="46.8276" lon="8.41535">
        <ele>1318</ele>
        <time>2021-08-13T09:02:03.216Z</time>
      </trkpt>
      <trkpt lat="46.8276" lon="8.41535">
        <ele>1318</ele>
        <time>2021-08-13T09:02:04.217Z</time>
      </trkpt>
      <trkpt lat="46.82761" lon="8.41535">
        <ele>1318</ele>
        <time>2021-08-13T09:02:05.216Z</time>
      </trkpt>
      <trkpt lat="46.82761" lon="8.41535">
        <ele>1318</ele>
        <time>2021-08-13T09:02:06.216Z</time>
      </trkpt>
      <trkpt lat="46.82761" lon="8.41536">
        <ele>1318</ele>
        <time>2021-08-13T09:02:07.216Z</time>
      </trkpt>
      <trkpt lat="46.82762" lon="8.41535">
        <ele>1318</ele>
        <time>2021-08-13T09:02:08.216Z</time>
      </trkpt>
      <trkpt lat="46.82764" lon="8.41534">
        <ele>1318</ele>
        <time>2021-08-13T09:02:09.216Z</time>
      </trkpt>
      <trkpt lat="46.82765" lon="8.41534">
        <ele>1318</ele>
        <time>2021-08-13T09:02:10.216Z</time>
      </trkpt>
      <trkpt lat="46.82765" lon="8.41534">
        <ele>1318</ele>
        <time>2021-08-13T09:02:11.216Z</time>
      </trkpt>
      <trkpt lat="46.82766" lon="8.41533">
        <ele>1319</ele>
        <time>2021-08-13T09:02:12.216Z</time>
      </trkpt>
      <trkpt lat="46.82767" lon="8.41532">
        <ele>1319</ele>
        <time>2021-08-13T09:02:13.216Z</time>
      </trkpt>
      <trkpt lat="46.82768" lon="8.41531">
        <ele>1318</ele>
        <time>2021-08-13T09:02:14.216Z</time>
      </trkpt>
      <trkpt lat="46.82768" lon="8.41531">
        <ele>1318</ele>
        <time>2021-08-13T09:02:15.216Z</time>
      </trkpt>
      <trkpt lat="46.82769" lon="8.4153">
        <ele>1318</ele>
        <time>2021-08-13T09:02:16.216Z</time>
      </trkpt>
      <trkpt lat="46.8277" lon="8.4153">
        <ele>1319</ele>
        <time>2021-08-13T09:02:17.217Z</time>
      </trkpt>
      <trkpt lat="46.82771" lon="8.41528">
        <ele>1319</ele>
        <time>2021-08-13T09:02:18.216Z</time>
      </trkpt>
      <trkpt lat="46.8277" lon="8.41526">
        <ele>1319</ele>
        <time>2021-08-13T09:02:19.217Z</time>
      </trkpt>
      <trkpt lat="46.82769" lon="8.41524">
        <ele>1320</ele>
        <time>2021-08-13T09:02:20.216Z</time>
      </trkpt>
      <trkpt lat="46.82767" lon="8.41522">
        <ele>1320</ele>
        <time>2021-08-13T09:02:21.216Z</time>
      </trkpt>
      <trkpt lat="46.82767" lon="8.41521">
        <ele>1320</ele>
        <time>2021-08-13T09:02:22.216Z</time>
      </trkpt>
      <trkpt lat="46.82766" lon="8.41521">
        <ele>1321</ele>
        <time>2021-08-13T09:02:23.216Z</time>
      </trkpt>
      <trkpt lat="46.82765" lon="8.41521">
        <ele>1322</ele>
        <time>2021-08-13T09:02:24.216Z</time>
      </trkpt>
      <trkpt lat="46.82765" lon="8.4152">
        <ele>1322</ele>
        <time>2021-08-13T09:02:25.217Z</time>
      </trkpt>
      <trkpt lat="46.82764" lon="8.4152">
        <ele>1322</ele>
        <time>2021-08-13T09:02:26.216Z</time>
      </trkpt>
      <trkpt lat="46.82763" lon="8.41519">
        <ele>1323</ele>
        <time>2021-08-13T09:02:27.217Z</time>
      </trkpt>
      <trkpt lat="46.82762" lon="8.41519">
        <ele>1323</ele>
        <time>2021-08-13T09:02:28.216Z</time>
      </trkpt>
      <trkpt lat="46.82761" lon="8.41519">
        <ele>1324</ele>
        <time>2021-08-13T09:02:29.216Z</time>
      </trkpt>
      <trkpt lat="46.8276" lon="8.41519">
        <ele>1324</ele>
        <time>2021-08-13T09:02:30.216Z</time>
      </trkpt>
      <trkpt lat="46.82759" lon="8.41518">
        <ele>1324</ele>
        <time>2021-08-13T09:02:31.216Z</time>
      </trkpt>
      <trkpt lat="46.82758" lon="8.41517">
        <ele>1325</ele>
        <time>2021-08-13T09:02:32.216Z</time>
      </trkpt>
      <trkpt lat="46.82757" lon="8.41515">
        <ele>1325</ele>
        <time>2021-08-13T09:02:33.217Z</time>
      </trkpt>
      <trkpt lat="46.82756" lon="8.41514">
        <ele>1324</ele>
        <time>2021-08-13T09:02:34.216Z</time>
      </trkpt>
      <trkpt lat="46.82755" lon="8.41513">
        <ele>1324</ele>
        <time>2021-08-13T09:02:35.217Z</time>
      </trkpt>
      <trkpt lat="46.82753" lon="8.41514">
        <ele>1324</ele>
        <time>2021-08-13T09:02:36.217Z</time>
      </trkpt>
      <trkpt lat="46.82752" lon="8.41514">
        <ele>1324</ele>
        <time>2021-08-13T09:02:37.216Z</time>
      </trkpt>
      <trkpt lat="46.82751" lon="8.41514">
        <ele>1324</ele>
        <time>2021-08-13T09:02:38.216Z</time>
      </trkpt>
      <trkpt lat="46.8275" lon="8.41513">
        <ele>1324</ele>
        <time>2021-08-13T09:02:39.216Z</time>
      </trkpt>
      <trkpt lat="46.82749" lon="8.41513">
        <ele>1323</ele>
        <time>2021-08-13T09:02:40.216Z</time>
      </trkpt>
      <trkpt lat="46.8275" lon="8.41513">
        <ele>1323</ele>
        <time>2021-08-13T09:02:41.216Z</time>
      </trkpt>
      <trkpt lat="46.8275" lon="8.41513">
        <ele>1322</ele>
        <time>2021-08-13T09:02:42.216Z</time>
      </trkpt>
      <trkpt lat="46.82748" lon="8.41514">
        <ele>1319</ele>
        <time>2021-08-13T09:02:43.217Z</time>
      </trkpt>
      <trkpt lat="46.82748" lon="8.41514">
        <ele>1319</ele>
        <time>2021-08-13T09:02:44.217Z</time>
      </trkpt>
      <trkpt lat="46.82748" lon="8.41517">
        <ele>1317</ele>
        <time>2021-08-13T09:02:45.217Z</time>
      </trkpt>
      <trkpt lat="46.82748" lon="8.41518">
        <ele>1317</ele>
        <time>2021-08-13T09:02:46.218Z</time>
      </trkpt>
      <trkpt lat="46.82747" lon="8.41518">
        <ele>1316</ele>
        <time>2021-08-13T09:02:47.217Z</time>
      </trkpt>
      <trkpt lat="46.82748" lon="8.41518">
        <ele>1315</ele>
        <time>2021-08-13T09:02:48.218Z</time>
      </trkpt>
      <trkpt lat="46.82748" lon="8.41518">
        <ele>1315</ele>
        <time>2021-08-13T09:02:49.218Z</time>
      </trkpt>
      <trkpt lat="46.82748" lon="8.41518">
        <ele>1315</ele>
        <time>2021-08-13T09:02:50.217Z</time>
      </trkpt>
      <trkpt lat="46.82748" lon="8.41518">
        <ele>1314</ele>
        <time>2021-08-13T09:02:51.217Z</time>
      </trkpt>
      <trkpt lat="46.82749" lon="8.41518">
        <ele>1315</ele>
        <time>2021-08-13T09:02:52.218Z</time>
      </trkpt>
      <trkpt lat="46.82749" lon="8.41518">
        <ele>1315</ele>
        <time>2021-08-13T09:02:53.219Z</time>
      </trkpt>
      <trkpt lat="46.82747" lon="8.41518">
        <ele>1318</ele>
        <time>2021-08-13T09:02:54.219Z</time>
      </trkpt>
      <trkpt lat="46.82746" lon="8.41519">
        <ele>1318</ele>
        <time>2021-08-13T09:02:55.219Z</time>
      </trkpt>
      <trkpt lat="46.82744" lon="8.41518">
        <ele>1321</ele>
        <time>2021-08-13T09:02:56.218Z</time>
      </trkpt>
      <trkpt lat="46.82744" lon="8.41518">
        <ele>1321</ele>
        <time>2021-08-13T09:02:57.218Z</time>
      </trkpt>
      <trkpt lat="46.82741" lon="8.41517">
        <ele>1321</ele>
        <time>2021-08-13T09:02:58.219Z</time>
      </trkpt>
      <trkpt lat="46.82741" lon="8.41517">
        <ele>1320</ele>
        <time>2021-08-13T09:02:59.218Z</time>
      </trkpt>
      <trkpt lat="46.8274" lon="8.41517">
        <ele>1320</ele>
        <time>2021-08-13T09:03:00.218Z</time>
      </trkpt>
      <trkpt lat="46.8274" lon="8.41517">
        <ele>1320</ele>
        <time>2021-08-13T09:03:01.219Z</time>
      </trkpt>
      <trkpt lat="46.8274" lon="8.41517">
        <ele>1320</ele>
        <time>2021-08-13T09:03:02.219Z</time>
      </trkpt>
      <trkpt lat="46.8274" lon="8.41516">
        <ele>1320</ele>
        <time>2021-08-13T09:03:03.219Z</time>
      </trkpt>
      <trkpt lat="46.8274" lon="8.41516">
        <ele>1320</ele>
        <time>2021-08-13T09:03:04.219Z</time>
      </trkpt>
      <trkpt lat="46.82741" lon="8.41515">
        <ele>1320</ele>
        <time>2021-08-13T09:03:05.219Z</time>
      </trkpt>
      <trkpt lat="46.82742" lon="8.41515">
        <ele>1320</ele>
        <time>2021-08-13T09:03:06.218Z</time>
      </trkpt>
      <trkpt lat="46.82743" lon="8.41515">
        <ele>1319</ele>
        <time>2021-08-13T09:03:07.219Z</time>
      </trkpt>
      <trkpt lat="46.82743" lon="8.41515">
        <ele>1318</ele>
        <time>2021-08-13T09:03:08.219Z</time>
      </trkpt>
      <trkpt lat="46.82744" lon="8.41514">
        <ele>1318</ele>
        <time>2021-08-13T09:03:09.219Z</time>
      </trkpt>
      <trkpt lat="46.82745" lon="8.41514">
        <ele>1317</ele>
        <time>2021-08-13T09:03:10.219Z</time>
      </trkpt>
      <trkpt lat="46.82745" lon="8.41513">
        <ele>1316</ele>
        <time>2021-08-13T09:03:11.219Z</time>
      </trkpt>
      <trkpt lat="46.82746" lon="8.41512">
        <ele>1316</ele>
        <time>2021-08-13T09:03:12.219Z</time>
      </trkpt>
      <trkpt lat="46.82746" lon="8.41511">
        <ele>1315</ele>
        <time>2021-08-13T09:03:13.218Z</time>
      </trkpt>
      <trkpt lat="46.82747" lon="8.4151">
        <ele>1315</ele>
        <time>2021-08-13T09:03:14.218Z</time>
      </trkpt>
      <trkpt lat="46.82748" lon="8.4151">
        <ele>1314</ele>
        <time>2021-08-13T09:03:15.219Z</time>
      </trkpt>
      <trkpt lat="46.82748" lon="8.41509">
        <ele>1314</ele>
        <time>2021-08-13T09:03:16.218Z</time>
      </trkpt>
      <trkpt lat="46.82749" lon="8.41509">
        <ele>1314</ele>
        <time>2021-08-13T09:03:17.218Z</time>
      </trkpt>
      <trkpt lat="46.82749" lon="8.41508">
        <ele>1313</ele>
        <time>2021-08-13T09:03:18.218Z</time>
      </trkpt>
      <trkpt lat="46.8275" lon="8.41507">
        <ele>1313</ele>
        <time>2021-08-13T09:03:19.219Z</time>
      </trkpt>
      <trkpt lat="46.8275" lon="8.41507">
        <ele>1313</ele>
        <time>2021-08-13T09:03:20.219Z</time>
      </trkpt>
      <trkpt lat="46.82751" lon="8.41506">
        <ele>1313</ele>
        <time>2021-08-13T09:03:21.219Z</time>
      </trkpt>
      <trkpt lat="46.82751" lon="8.41506">
        <ele>1313</ele>
        <time>2021-08-13T09:03:22.219Z</time>
      </trkpt>
      <trkpt lat="46.82752" lon="8.41505">
        <ele>1313</ele>
        <time>2021-08-13T09:03:23.218Z</time>
      </trkpt>
      <trkpt lat="46.82754" lon="8.41505">
        <ele>1313</ele>
        <time>2021-08-13T09:03:24.219Z</time>
      </trkpt>
      <trkpt lat="46.82756" lon="8.41504">
        <ele>1314</ele>
        <time>2021-08-13T09:03:25.219Z</time>
      </trkpt>
      <trkpt lat="46.82757" lon="8.41504">
        <ele>1314</ele>
        <time>2021-08-13T09:03:26.218Z</time>
      </trkpt>
      <trkpt lat="46.82758" lon="8.41503">
        <ele>1315</ele>
        <time>2021-08-13T09:03:27.218Z</time>
      </trkpt>
      <trkpt lat="46.82759" lon="8.41502">
        <ele>1315</ele>
        <time>2021-08-13T09:03:28.219Z</time>
      </trkpt>
      <trkpt lat="46.8276" lon="8.415">
        <ele>1315</ele>
        <time>2021-08-13T09:03:29.219Z</time>
      </trkpt>
      <trkpt lat="46.82761" lon="8.41498">
        <ele>1316</ele>
        <time>2021-08-13T09:03:30.219Z</time>
      </trkpt>
      <trkpt lat="46.82763" lon="8.41497">
        <ele>1316</ele>
        <time>2021-08-13T09:03:31.219Z</time>
      </trkpt>
      <trkpt lat="46.82763" lon="8.41497">
        <ele>1316</ele>
        <time>2021-08-13T09:03:32.219Z</time>
      </trkpt>
      <trkpt lat="46.82763" lon="8.41497">
        <ele>1316</ele>
        <time>2021-08-13T09:03:33.219Z</time>
      </trkpt>
      <trkpt lat="46.82764" lon="8.41496">
        <ele>1316</ele>
        <time>2021-08-13T09:03:34.219Z</time>
      </trkpt>
      <trkpt lat="46.82763" lon="8.41496">
        <ele>1315</ele>
        <time>2021-08-13T09:03:35.218Z</time>
      </trkpt>
      <trkpt lat="46.82763" lon="8.41496">
        <ele>1315</ele>
        <time>2021-08-13T09:03:36.219Z</time>
      </trkpt>
      <trkpt lat="46.82762" lon="8.41496">
        <ele>1314</ele>
        <time>2021-08-13T09:03:37.219Z</time>
      </trkpt>
      <trkpt lat="46.82762" lon="8.41496">
        <ele>1314</ele>
        <time>2021-08-13T09:03:38.219Z</time>
      </trkpt>
      <trkpt lat="46.82761" lon="8.41496">
        <ele>1314</ele>
        <time>2021-08-13T09:03:39.218Z</time>
      </trkpt>
      <trkpt lat="46.8276" lon="8.41496">
        <ele>1314</ele>
        <time>2021-08-13T09:03:40.219Z</time>
      </trkpt>
      <trkpt lat="46.82759" lon="8.41496">
        <ele>1314</ele>
        <time>2021-08-13T09:03:41.218Z</time>
      </trkpt>
      <trkpt lat="46.82759" lon="8.41497">
        <ele>1315</ele>
        <time>2021-08-13T09:03:42.219Z</time>
      </trkpt>
      <trkpt lat="46.82758" lon="8.41497">
        <ele>1315</ele>
        <time>2021-08-13T09:03:43.218Z</time>
      </trkpt>
      <trkpt lat="46.82757" lon="8.41497">
        <ele>1316</ele>
        <time>2021-08-13T09:03:44.218Z</time>
      </trkpt>
      <trkpt lat="46.82756" lon="8.41496">
        <ele>1316</ele>
        <time>2021-08-13T09:03:45.219Z</time>
      </trkpt>
      <trkpt lat="46.82756" lon="8.41496">
        <ele>1317</ele>
        <time>2021-08-13T09:03:46.218Z</time>
      </trkpt>
      <trkpt lat="46.82755" lon="8.41496">
        <ele>1317</ele>
        <time>2021-08-13T09:03:47.218Z</time>
      </trkpt>
      <trkpt lat="46.82754" lon="8.41496">
        <ele>1317</ele>
        <time>2021-08-13T09:03:48.219Z</time>
      </trkpt>
      <trkpt lat="46.82753" lon="8.41496">
        <ele>1317</ele>
        <time>2021-08-13T09:03:49.218Z</time>
      </trkpt>
      <trkpt lat="46.82753" lon="8.41495">
        <ele>1316</ele>
        <time>2021-08-13T09:03:50.218Z</time>
      </trkpt>
      <trkpt lat="46.82752" lon="8.41495">
        <ele>1316</ele>
        <time>2021-08-13T09:03:51.218Z</time>
      </trkpt>
      <trkpt lat="46.8275" lon="8.41495">
        <ele>1316</ele>
        <time>2021-08-13T09:03:52.218Z</time>
      </trkpt>
      <trkpt lat="46.82749" lon="8.41494">
        <ele>1315</ele>
        <time>2021-08-13T09:03:53.219Z</time>
      </trkpt>
      <trkpt lat="46.82747" lon="8.41494">
        <ele>1315</ele>
        <time>2021-08-13T09:03:54.219Z</time>
      </trkpt>
      <trkpt lat="46.82746" lon="8.41493">
        <ele>1315</ele>
        <time>2021-08-13T09:03:55.218Z</time>
      </trkpt>
      <trkpt lat="46.82745" lon="8.41493">
        <ele>1315</ele>
        <time>2021-08-13T09:03:56.218Z</time>
      </trkpt>
      <trkpt lat="46.82745" lon="8.41493">
        <ele>1315</ele>
        <time>2021-08-13T09:03:57.218Z</time>
      </trkpt>
      <trkpt lat="46.82744" lon="8.41493">
        <ele>1315</ele>
        <time>2021-08-13T09:03:58.219Z</time>
      </trkpt>
      <trkpt lat="46.82743" lon="8.41493">
        <ele>1314</ele>
        <time>2021-08-13T09:03:59.219Z</time>
      </trkpt>
      <trkpt lat="46.82742" lon="8.41493">
        <ele>1314</ele>
        <time>2021-08-13T09:04:00.219Z</time>
      </trkpt>
      <trkpt lat="46.82742" lon="8.41494">
        <ele>1314</ele>
        <time>2021-08-13T09:04:01.218Z</time>
      </trkpt>
      <trkpt lat="46.82741" lon="8.41494">
        <ele>1314</ele>
        <time>2021-08-13T09:04:02.219Z</time>
      </trkpt>
      <trkpt lat="46.82741" lon="8.41494">
        <ele>1313</ele>
        <time>2021-08-13T09:04:03.219Z</time>
      </trkpt>
      <trkpt lat="46.82741" lon="8.41494">
        <ele>1313</ele>
        <time>2021-08-13T09:04:04.218Z</time>
      </trkpt>
      <trkpt lat="46.8274" lon="8.41494">
        <ele>1312</ele>
        <time>2021-08-13T09:04:05.219Z</time>
      </trkpt>
      <trkpt lat="46.82739" lon="8.41494">
        <ele>1311</ele>
        <time>2021-08-13T09:04:06.219Z</time>
      </trkpt>
      <trkpt lat="46.82738" lon="8.41494">
        <ele>1311</ele>
        <time>2021-08-13T09:04:07.219Z</time>
      </trkpt>
      <trkpt lat="46.82736" lon="8.41494">
        <ele>1310</ele>
        <time>2021-08-13T09:04:08.219Z</time>
      </trkpt>
      <trkpt lat="46.82733" lon="8.41493">
        <ele>1309</ele>
        <time>2021-08-13T09:04:09.219Z</time>
      </trkpt>
      <trkpt lat="46.82731" lon="8.41493">
        <ele>1309</ele>
        <time>2021-08-13T09:04:10.219Z</time>
      </trkpt>
      <trkpt lat="46.82731" lon="8.41494">
        <ele>1308</ele>
        <time>2021-08-13T09:04:11.219Z</time>
      </trkpt>
      <trkpt lat="46.82731" lon="8.41495">
        <ele>1308</ele>
        <time>2021-08-13T09:04:12.219Z</time>
      </trkpt>
      <trkpt lat="46.8273" lon="8.41496">
        <ele>1307</ele>
        <time>2021-08-13T09:04:13.218Z</time>
      </trkpt>
      <trkpt lat="46.82729" lon="8.41497">
        <ele>1307</ele>
        <time>2021-08-13T09:04:14.219Z</time>
      </trkpt>
      <trkpt lat="46.82729" lon="8.41498">
        <ele>1306</ele>
        <time>2021-08-13T09:04:15.219Z</time>
      </trkpt>
      <trkpt lat="46.82728" lon="8.41498">
        <ele>1306</ele>
        <time>2021-08-13T09:04:16.218Z</time>
      </trkpt>
      <trkpt lat="46.82728" lon="8.41499">
        <ele>1305</ele>
        <time>2021-08-13T09:04:17.219Z</time>
      </trkpt>
      <trkpt lat="46.82728" lon="8.415">
        <ele>1305</ele>
        <time>2021-08-13T09:04:18.218Z</time>
      </trkpt>
      <trkpt lat="46.82727" lon="8.41501">
        <ele>1305</ele>
        <time>2021-08-13T09:04:19.219Z</time>
      </trkpt>
      <trkpt lat="46.82727" lon="8.41502">
        <ele>1304</ele>
        <time>2021-08-13T09:04:20.218Z</time>
      </trkpt>
      <trkpt lat="46.82727" lon="8.41503">
        <ele>1304</ele>
        <time>2021-08-13T09:04:21.218Z</time>
      </trkpt>
      <trkpt lat="46.82726" lon="8.41504">
        <ele>1304</ele>
        <time>2021-08-13T09:04:22.218Z</time>
      </trkpt>
      <trkpt lat="46.82724" lon="8.41503">
        <ele>1304</ele>
        <time>2021-08-13T09:04:23.219Z</time>
      </trkpt>
      <trkpt lat="46.82723" lon="8.41502">
        <ele>1304</ele>
        <time>2021-08-13T09:04:24.219Z</time>
      </trkpt>
      <trkpt lat="46.82722" lon="8.41502">
        <ele>1303</ele>
        <time>2021-08-13T09:04:25.218Z</time>
      </trkpt>
      <trkpt lat="46.82722" lon="8.41502">
        <ele>1303</ele>
        <time>2021-08-13T09:04:26.218Z</time>
      </trkpt>
      <trkpt lat="46.82721" lon="8.41502">
        <ele>1303</ele>
        <time>2021-08-13T09:04:27.218Z</time>
      </trkpt>
      <trkpt lat="46.8272" lon="8.41502">
        <ele>1303</ele>
        <time>2021-08-13T09:04:28.218Z</time>
      </trkpt>
      <trkpt lat="46.82719" lon="8.41502">
        <ele>1302</ele>
        <time>2021-08-13T09:04:29.219Z</time>
      </trkpt>
      <trkpt lat="46.82718" lon="8.41502">
        <ele>1301</ele>
        <time>2021-08-13T09:04:30.219Z</time>
      </trkpt>
      <trkpt lat="46.82718" lon="8.41502">
        <ele>1300</ele>
        <time>2021-08-13T09:04:31.219Z</time>
      </trkpt>
      <trkpt lat="46.82717" lon="8.41502">
        <ele>1299</ele>
        <time>2021-08-13T09:04:32.219Z</time>
      </trkpt>
      <trkpt lat="46.82717" lon="8.41502">
        <ele>1298</ele>
        <time>2021-08-13T09:04:33.218Z</time>
      </trkpt>
      <trkpt lat="46.82716" lon="8.41502">
        <ele>1297</ele>
        <time>2021-08-13T09:04:34.219Z</time>
      </trkpt>
      <trkpt lat="46.82715" lon="8.41502">
        <ele>1297</ele>
        <time>2021-08-13T09:04:35.219Z</time>
      </trkpt>
      <trkpt lat="46.82714" lon="8.41502">
        <ele>1296</ele>
        <time>2021-08-13T09:04:36.219Z</time>
      </trkpt>
      <trkpt lat="46.82713" lon="8.41501">
        <ele>1296</ele>
        <time>2021-08-13T09:04:37.219Z</time>
      </trkpt>
      <trkpt lat="46.82712" lon="8.41501">
        <ele>1295</ele>
        <time>2021-08-13T09:04:38.219Z</time>
      </trkpt>
      <trkpt lat="46.82711" lon="8.41501">
        <ele>1295</ele>
        <time>2021-08-13T09:04:39.218Z</time>
      </trkpt>
      <trkpt lat="46.8271" lon="8.415">
        <ele>1295</ele>
        <time>2021-08-13T09:04:40.218Z</time>
      </trkpt>
      <trkpt lat="46.82708" lon="8.415">
        <ele>1296</ele>
        <time>2021-08-13T09:04:41.218Z</time>
      </trkpt>
      <trkpt lat="46.82708" lon="8.415">
        <ele>1296</ele>
        <time>2021-08-13T09:04:42.219Z</time>
      </trkpt>
      <trkpt lat="46.82707" lon="8.415">
        <ele>1297</ele>
        <time>2021-08-13T09:04:43.219Z</time>
      </trkpt>
      <trkpt lat="46.82706" lon="8.41499">
        <ele>1297</ele>
        <time>2021-08-13T09:04:44.218Z</time>
      </trkpt>
      <trkpt lat="46.82705" lon="8.41498">
        <ele>1298</ele>
        <time>2021-08-13T09:04:45.219Z</time>
      </trkpt>
      <trkpt lat="46.82704" lon="8.41498">
        <ele>1298</ele>
        <time>2021-08-13T09:04:46.218Z</time>
      </trkpt>
      <trkpt lat="46.82704" lon="8.41498">
        <ele>1298</ele>
        <time>2021-08-13T09:04:47.219Z</time>
      </trkpt>
      <trkpt lat="46.82703" lon="8.41498">
        <ele>1297</ele>
        <time>2021-08-13T09:04:48.218Z</time>
      </trkpt>
      <trkpt lat="46.82702" lon="8.41498">
        <ele>1297</ele>
        <time>2021-08-13T09:04:49.219Z</time>
      </trkpt>
      <trkpt lat="46.82701" lon="8.41498">
        <ele>1297</ele>
        <time>2021-08-13T09:04:50.219Z</time>
      </trkpt>
      <trkpt lat="46.82701" lon="8.41498">
        <ele>1297</ele>
        <time>2021-08-13T09:04:51.219Z</time>
      </trkpt>
      <trkpt lat="46.827" lon="8.41498">
        <ele>1297</ele>
        <time>2021-08-13T09:04:52.219Z</time>
      </trkpt>
      <trkpt lat="46.82699" lon="8.41498">
        <ele>1297</ele>
        <time>2021-08-13T09:04:53.218Z</time>
      </trkpt>
      <trkpt lat="46.82699" lon="8.41499">
        <ele>1297</ele>
        <time>2021-08-13T09:04:54.218Z</time>
      </trkpt>
      <trkpt lat="46.82698" lon="8.41499">
        <ele>1296</ele>
        <time>2021-08-13T09:04:55.219Z</time>
      </trkpt>
      <trkpt lat="46.82697" lon="8.415">
        <ele>1296</ele>
        <time>2021-08-13T09:04:56.219Z</time>
      </trkpt>
      <trkpt lat="46.82696" lon="8.41501">
        <ele>1296</ele>
        <time>2021-08-13T09:04:57.218Z</time>
      </trkpt>
      <trkpt lat="46.82695" lon="8.41501">
        <ele>1296</ele>
        <time>2021-08-13T09:04:58.219Z</time>
      </trkpt>
      <trkpt lat="46.82694" lon="8.41501">
        <ele>1296</ele>
        <time>2021-08-13T09:04:59.218Z</time>
      </trkpt>
      <trkpt lat="46.82692" lon="8.415">
        <ele>1296</ele>
        <time>2021-08-13T09:05:00.218Z</time>
      </trkpt>
      <trkpt lat="46.8269" lon="8.41499">
        <ele>1296</ele>
        <time>2021-08-13T09:05:01.218Z</time>
      </trkpt>
      <trkpt lat="46.82689" lon="8.41498">
        <ele>1296</ele>
        <time>2021-08-13T09:05:02.219Z</time>
      </trkpt>
      <trkpt lat="46.82689" lon="8.41498">
        <ele>1296</ele>
        <time>2021-08-13T09:05:03.218Z</time>
      </trkpt>
      <trkpt lat="46.82688" lon="8.415">
        <ele>1296</ele>
        <time>2021-08-13T09:05:04.218Z</time>
      </trkpt>
      <trkpt lat="46.82688" lon="8.415">
        <ele>1296</ele>
        <time>2021-08-13T09:05:05.219Z</time>
      </trkpt>
      <trkpt lat="46.82687" lon="8.41501">
        <ele>1296</ele>
        <time>2021-08-13T09:05:06.218Z</time>
      </trkpt>
      <trkpt lat="46.82686" lon="8.41501">
        <ele>1296</ele>
        <time>2021-08-13T09:05:07.218Z</time>
      </trkpt>
      <trkpt lat="46.82685" lon="8.41502">
        <ele>1296</ele>
        <time>2021-08-13T09:05:08.218Z</time>
      </trkpt>
      <trkpt lat="46.82685" lon="8.41501">
        <ele>1296</ele>
        <time>2021-08-13T09:05:09.219Z</time>
      </trkpt>
      <trkpt lat="46.82685" lon="8.41501">
        <ele>1296</ele>
        <time>2021-08-13T09:05:10.218Z</time>
      </trkpt>
      <trkpt lat="46.82684" lon="8.41501">
        <ele>1295</ele>
        <time>2021-08-13T09:05:11.219Z</time>
      </trkpt>
      <trkpt lat="46.82685" lon="8.41501">
        <ele>1295</ele>
        <time>2021-08-13T09:05:12.219Z</time>
      </trkpt>
      <trkpt lat="46.82685" lon="8.41501">
        <ele>1295</ele>
        <time>2021-08-13T09:05:13.218Z</time>
      </trkpt>
      <trkpt lat="46.82686" lon="8.41501">
        <ele>1295</ele>
        <time>2021-08-13T09:05:14.219Z</time>
      </trkpt>
      <trkpt lat="46.82686" lon="8.415">
        <ele>1295</ele>
        <time>2021-08-13T09:05:15.219Z</time>
      </trkpt>
      <trkpt lat="46.82687" lon="8.415">
        <ele>1295</ele>
        <time>2021-08-13T09:05:16.218Z</time>
      </trkpt>
      <trkpt lat="46.82688" lon="8.41499">
        <ele>1294</ele>
        <time>2021-08-13T09:05:17.219Z</time>
      </trkpt>
      <trkpt lat="46.82688" lon="8.41499">
        <ele>1294</ele>
        <time>2021-08-13T09:05:18.219Z</time>
      </trkpt>
      <trkpt lat="46.82689" lon="8.41499">
        <ele>1294</ele>
        <time>2021-08-13T09:05:19.218Z</time>
      </trkpt>
      <trkpt lat="46.82689" lon="8.41498">
        <ele>1294</ele>
        <time>2021-08-13T09:05:20.218Z</time>
      </trkpt>
      <trkpt lat="46.82689" lon="8.41498">
        <ele>1293</ele>
        <time>2021-08-13T09:05:21.219Z</time>
      </trkpt>
      <trkpt lat="46.8269" lon="8.41497">
        <ele>1293</ele>
        <time>2021-08-13T09:05:22.219Z</time>
      </trkpt>
      <trkpt lat="46.82691" lon="8.41497">
        <ele>1292</ele>
        <time>2021-08-13T09:05:23.218Z</time>
      </trkpt>
      <trkpt lat="46.82692" lon="8.41496">
        <ele>1292</ele>
        <time>2021-08-13T09:05:24.219Z</time>
      </trkpt>
      <trkpt lat="46.82693" lon="8.41496">
        <ele>1292</ele>
        <time>2021-08-13T09:05:25.219Z</time>
      </trkpt>
      <trkpt lat="46.82693" lon="8.41496">
        <ele>1291</ele>
        <time>2021-08-13T09:05:26.218Z</time>
      </trkpt>
      <trkpt lat="46.82694" lon="8.41494">
        <ele>1291</ele>
        <time>2021-08-13T09:05:27.218Z</time>
      </trkpt>
      <trkpt lat="46.82695" lon="8.41494">
        <ele>1291</ele>
        <time>2021-08-13T09:05:28.218Z</time>
      </trkpt>
      <trkpt lat="46.82696" lon="8.41493">
        <ele>1290</ele>
        <time>2021-08-13T09:05:29.218Z</time>
      </trkpt>
      <trkpt lat="46.82697" lon="8.41492">
        <ele>1290</ele>
        <time>2021-08-13T09:05:30.218Z</time>
      </trkpt>
      <trkpt lat="46.82698" lon="8.41492">
        <ele>1289</ele>
        <time>2021-08-13T09:05:31.219Z</time>
      </trkpt>
      <trkpt lat="46.82698" lon="8.41491">
        <ele>1289</ele>
        <time>2021-08-13T09:05:32.218Z</time>
      </trkpt>
      <trkpt lat="46.827" lon="8.41491">
        <ele>1288</ele>
        <time>2021-08-13T09:05:33.219Z</time>
      </trkpt>
      <trkpt lat="46.82701" lon="8.4149">
        <ele>1287</ele>
        <time>2021-08-13T09:05:34.218Z</time>
      </trkpt>
      <trkpt lat="46.82702" lon="8.41488">
        <ele>1287</ele>
        <time>2021-08-13T09:05:35.218Z</time>
      </trkpt>
      <trkpt lat="46.82702" lon="8.41487">
        <ele>1286</ele>
        <time>2021-08-13T09:05:36.219Z</time>
      </trkpt>
      <trkpt lat="46.82702" lon="8.41487">
        <ele>1286</ele>
        <time>2021-08-13T09:05:37.218Z</time>
      </trkpt>
      <trkpt lat="46.82703" lon="8.41486">
        <ele>1285</ele>
        <time>2021-08-13T09:05:38.218Z</time>
      </trkpt>
      <trkpt lat="46.82704" lon="8.41486">
        <ele>1285</ele>
        <time>2021-08-13T09:05:39.218Z</time>
      </trkpt>
      <trkpt lat="46.82705" lon="8.41486">
        <ele>1284</ele>
        <time>2021-08-13T09:05:40.218Z</time>
      </trkpt>
      <trkpt lat="46.82705" lon="8.41485">
        <ele>1283</ele>
        <time>2021-08-13T09:05:41.218Z</time>
      </trkpt>
      <trkpt lat="46.82706" lon="8.41485">
        <ele>1283</ele>
        <time>2021-08-13T09:05:42.218Z</time>
      </trkpt>
      <trkpt lat="46.82708" lon="8.41484">
        <ele>1283</ele>
        <time>2021-08-13T09:05:43.219Z</time>
      </trkpt>
      <trkpt lat="46.82709" lon="8.41483">
        <ele>1282</ele>
        <time>2021-08-13T09:05:44.218Z</time>
      </trkpt>
      <trkpt lat="46.8271" lon="8.41482">
        <ele>1282</ele>
        <time>2021-08-13T09:05:45.219Z</time>
      </trkpt>
      <trkpt lat="46.8271" lon="8.41482">
        <ele>1282</ele>
        <time>2021-08-13T09:05:46.218Z</time>
      </trkpt>
      <trkpt lat="46.8271" lon="8.41482">
        <ele>1282</ele>
        <time>2021-08-13T09:05:47.218Z</time>
      </trkpt>
      <trkpt lat="46.82711" lon="8.41482">
        <ele>1281</ele>
        <time>2021-08-13T09:05:48.218Z</time>
      </trkpt>
      <trkpt lat="46.82711" lon="8.41482">
        <ele>1281</ele>
        <time>2021-08-13T09:05:49.218Z</time>
      </trkpt>
      <trkpt lat="46.82712" lon="8.41481">
        <ele>1281</ele>
        <time>2021-08-13T09:05:50.218Z</time>
      </trkpt>
      <trkpt lat="46.82712" lon="8.41481">
        <ele>1281</ele>
        <time>2021-08-13T09:05:51.218Z</time>
      </trkpt>
      <trkpt lat="46.82713" lon="8.41481">
        <ele>1281</ele>
        <time>2021-08-13T09:05:52.219Z</time>
      </trkpt>
      <trkpt lat="46.82713" lon="8.41481">
        <ele>1281</ele>
        <time>2021-08-13T09:05:53.219Z</time>
      </trkpt>
      <trkpt lat="46.82714" lon="8.41481">
        <ele>1281</ele>
        <time>2021-08-13T09:05:54.219Z</time>
      </trkpt>
      <trkpt lat="46.82716" lon="8.41479">
        <ele>1281</ele>
        <time>2021-08-13T09:05:55.219Z</time>
      </trkpt>
      <trkpt lat="46.82716" lon="8.41479">
        <ele>1281</ele>
        <time>2021-08-13T09:05:56.218Z</time>
      </trkpt>
      <trkpt lat="46.82717" lon="8.41478">
        <ele>1281</ele>
        <time>2021-08-13T09:05:57.219Z</time>
      </trkpt>
      <trkpt lat="46.82717" lon="8.41478">
        <ele>1281</ele>
        <time>2021-08-13T09:05:58.219Z</time>
      </trkpt>
      <trkpt lat="46.82717" lon="8.41477">
        <ele>1281</ele>
        <time>2021-08-13T09:05:59.218Z</time>
      </trkpt>
      <trkpt lat="46.82718" lon="8.41476">
        <ele>1281</ele>
        <time>2021-08-13T09:06:00.218Z</time>
      </trkpt>
      <trkpt lat="46.82719" lon="8.41476">
        <ele>1281</ele>
        <time>2021-08-13T09:06:01.219Z</time>
      </trkpt>
      <trkpt lat="46.8272" lon="8.41475">
        <ele>1281</ele>
        <time>2021-08-13T09:06:02.219Z</time>
      </trkpt>
      <trkpt lat="46.82722" lon="8.41475">
        <ele>1281</ele>
        <time>2021-08-13T09:06:03.218Z</time>
      </trkpt>
      <trkpt lat="46.82723" lon="8.41475">
        <ele>1281</ele>
        <time>2021-08-13T09:06:04.219Z</time>
      </trkpt>
      <trkpt lat="46.82723" lon="8.41475">
        <ele>1281</ele>
        <time>2021-08-13T09:06:05.219Z</time>
      </trkpt>
      <trkpt lat="46.82724" lon="8.41475">
        <ele>1281</ele>
        <time>2021-08-13T09:06:06.219Z</time>
      </trkpt>
      <trkpt lat="46.82724" lon="8.41475">
        <ele>1281</ele>
        <time>2021-08-13T09:06:07.218Z</time>
      </trkpt>
      <trkpt lat="46.82725" lon="8.41475">
        <ele>1281</ele>
        <time>2021-08-13T09:06:08.219Z</time>
      </trkpt>
      <trkpt lat="46.82725" lon="8.41475">
        <ele>1281</ele>
        <time>2021-08-13T09:06:09.219Z</time>
      </trkpt>
      <trkpt lat="46.82726" lon="8.41475">
        <ele>1282</ele>
        <time>2021-08-13T09:06:10.219Z</time>
      </trkpt>
      <trkpt lat="46.82726" lon="8.41475">
        <ele>1282</ele>
        <time>2021-08-13T09:06:11.219Z</time>
      </trkpt>
      <trkpt lat="46.82727" lon="8.41474">
        <ele>1282</ele>
        <time>2021-08-13T09:06:12.219Z</time>
      </trkpt>
      <trkpt lat="46.82727" lon="8.41473">
        <ele>1283</ele>
        <time>2021-08-13T09:06:13.219Z</time>
      </trkpt>
      <trkpt lat="46.82727" lon="8.41471">
        <ele>1283</ele>
        <time>2021-08-13T09:06:14.218Z</time>
      </trkpt>
      <trkpt lat="46.82727" lon="8.4147">
        <ele>1284</ele>
        <time>2021-08-13T09:06:15.219Z</time>
      </trkpt>
      <trkpt lat="46.82728" lon="8.41468">
        <ele>1284</ele>
        <time>2021-08-13T09:06:16.219Z</time>
      </trkpt>
      <trkpt lat="46.82729" lon="8.41466">
        <ele>1284</ele>
        <time>2021-08-13T09:06:17.218Z</time>
      </trkpt>
      <trkpt lat="46.8273" lon="8.41465">
        <ele>1285</ele>
        <time>2021-08-13T09:06:18.218Z</time>
      </trkpt>
      <trkpt lat="46.8273" lon="8.41465">
        <ele>1285</ele>
        <time>2021-08-13T09:06:19.218Z</time>
      </trkpt>
      <trkpt lat="46.82732" lon="8.41464">
        <ele>1286</ele>
        <time>2021-08-13T09:06:20.218Z</time>
      </trkpt>
      <trkpt lat="46.82732" lon="8.41464">
        <ele>1286</ele>
        <time>2021-08-13T09:06:21.219Z</time>
      </trkpt>
      <trkpt lat="46.82732" lon="8.41463">
        <ele>1287</ele>
        <time>2021-08-13T09:06:22.218Z</time>
      </trkpt>
      <trkpt lat="46.82731" lon="8.41462">
        <ele>1287</ele>
        <time>2021-08-13T09:06:23.218Z</time>
      </trkpt>
      <trkpt lat="46.8273" lon="8.41461">
        <ele>1288</ele>
        <time>2021-08-13T09:06:24.218Z</time>
      </trkpt>
      <trkpt lat="46.82728" lon="8.41461">
        <ele>1289</ele>
        <time>2021-08-13T09:06:25.219Z</time>
      </trkpt>
      <trkpt lat="46.82727" lon="8.4146">
        <ele>1289</ele>
        <time>2021-08-13T09:06:26.219Z</time>
      </trkpt>
      <trkpt lat="46.82726" lon="8.4146">
        <ele>1290</ele>
        <time>2021-08-13T09:06:27.219Z</time>
      </trkpt>
      <trkpt lat="46.82725" lon="8.41459">
        <ele>1291</ele>
        <time>2021-08-13T09:06:28.219Z</time>
      </trkpt>
      <trkpt lat="46.82725" lon="8.41458">
        <ele>1291</ele>
        <time>2021-08-13T09:06:29.219Z</time>
      </trkpt>
      <trkpt lat="46.82724" lon="8.41458">
        <ele>1292</ele>
        <time>2021-08-13T09:06:30.219Z</time>
      </trkpt>
      <trkpt lat="46.82723" lon="8.41456">
        <ele>1292</ele>
        <time>2021-08-13T09:06:31.218Z</time>
      </trkpt>
      <trkpt lat="46.82722" lon="8.41455">
        <ele>1293</ele>
        <time>2021-08-13T09:06:32.219Z</time>
      </trkpt>
      <trkpt lat="46.8272" lon="8.41454">
        <ele>1293</ele>
        <time>2021-08-13T09:06:33.219Z</time>
      </trkpt>
      <trkpt lat="46.82719" lon="8.41452">
        <ele>1294</ele>
        <time>2021-08-13T09:06:34.219Z</time>
      </trkpt>
      <trkpt lat="46.82719" lon="8.41451">
        <ele>1294</ele>
        <time>2021-08-13T09:06:35.219Z</time>
      </trkpt>
      <trkpt lat="46.82718" lon="8.41449">
        <ele>1294</ele>
        <time>2021-08-13T09:06:36.219Z</time>
      </trkpt>
      <trkpt lat="46.82716" lon="8.41446">
        <ele>1295</ele>
        <time>2021-08-13T09:06:37.218Z</time>
      </trkpt>
      <trkpt lat="46.82715" lon="8.41442">
        <ele>1295</ele>
        <time>2021-08-13T09:06:38.219Z</time>
      </trkpt>
      <trkpt lat="46.82713" lon="8.41439">
        <ele>1296</ele>
        <time>2021-08-13T09:06:39.219Z</time>
      </trkpt>
      <trkpt lat="46.8271" lon="8.41437">
        <ele>1296</ele>
        <time>2021-08-13T09:06:40.219Z</time>
      </trkpt>
      <trkpt lat="46.82708" lon="8.41436">
        <ele>1296</ele>
        <time>2021-08-13T09:06:41.218Z</time>
      </trkpt>
      <trkpt lat="46.82707" lon="8.41436">
        <ele>1297</ele>
        <time>2021-08-13T09:06:42.219Z</time>
      </trkpt>
      <trkpt lat="46.82706" lon="8.41435">
        <ele>1298</ele>
        <time>2021-08-13T09:06:43.219Z</time>
      </trkpt>
      <trkpt lat="46.82704" lon="8.41435">
        <ele>1298</ele>
        <time>2021-08-13T09:06:44.219Z</time>
      </trkpt>
      <trkpt lat="46.82703" lon="8.41435">
        <ele>1299</ele>
        <time>2021-08-13T09:06:45.219Z</time>
      </trkpt>
      <trkpt lat="46.82701" lon="8.41434">
        <ele>1299</ele>
        <time>2021-08-13T09:06:46.218Z</time>
      </trkpt>
      <trkpt lat="46.827" lon="8.41435">
        <ele>1299</ele>
        <time>2021-08-13T09:06:47.219Z</time>
      </trkpt>
      <trkpt lat="46.82698" lon="8.41434">
        <ele>1300</ele>
        <time>2021-08-13T09:06:48.219Z</time>
      </trkpt>
      <trkpt lat="46.82697" lon="8.41434">
        <ele>1300</ele>
        <time>2021-08-13T09:06:49.218Z</time>
      </trkpt>
      <trkpt lat="46.82697" lon="8.41432">
        <ele>1301</ele>
        <time>2021-08-13T09:06:50.219Z</time>
      </trkpt>
      <trkpt lat="46.82696" lon="8.41432">
        <ele>1301</ele>
        <time>2021-08-13T09:06:51.219Z</time>
      </trkpt>
      <trkpt lat="46.82696" lon="8.41431">
        <ele>1302</ele>
        <time>2021-08-13T09:06:52.219Z</time>
      </trkpt>
      <trkpt lat="46.82695" lon="8.4143">
        <ele>1302</ele>
        <time>2021-08-13T09:06:53.219Z</time>
      </trkpt>
      <trkpt lat="46.82695" lon="8.4143">
        <ele>1302</ele>
        <time>2021-08-13T09:06:54.218Z</time>
      </trkpt>
      <trkpt lat="46.82695" lon="8.41431">
        <ele>1303</ele>
        <time>2021-08-13T09:06:55.218Z</time>
      </trkpt>
      <trkpt lat="46.82694" lon="8.4143">
        <ele>1304</ele>
        <time>2021-08-13T09:06:56.219Z</time>
      </trkpt>
      <trkpt lat="46.82694" lon="8.41429">
        <ele>1304</ele>
        <time>2021-08-13T09:06:57.219Z</time>
      </trkpt>
      <trkpt lat="46.82693" lon="8.41427">
        <ele>1305</ele>
        <time>2021-08-13T09:06:58.218Z</time>
      </trkpt>
      <trkpt lat="46.82691" lon="8.41426">
        <ele>1305</ele>
        <time>2021-08-13T09:06:59.219Z</time>
      </trkpt>
      <trkpt lat="46.82689" lon="8.41426">
        <ele>1306</ele>
        <time>2021-08-13T09:07:00.219Z</time>
      </trkpt>
      <trkpt lat="46.82688" lon="8.41426">
        <ele>1307</ele>
        <time>2021-08-13T09:07:01.219Z</time>
      </trkpt>
      <trkpt lat="46.82687" lon="8.41426">
        <ele>1307</ele>
        <time>2021-08-13T09:07:02.219Z</time>
      </trkpt>
      <trkpt lat="46.82686" lon="8.41426">
        <ele>1308</ele>
        <time>2021-08-13T09:07:03.219Z</time>
      </trkpt>
      <trkpt lat="46.82686" lon="8.41426">
        <ele>1308</ele>
        <time>2021-08-13T09:07:04.218Z</time>
      </trkpt>
      <trkpt lat="46.82685" lon="8.41427">
        <ele>1309</ele>
        <time>2021-08-13T09:07:05.218Z</time>
      </trkpt>
      <trkpt lat="46.82685" lon="8.41427">
        <ele>1309</ele>
        <time>2021-08-13T09:07:06.219Z</time>
      </trkpt>
      <trkpt lat="46.82684" lon="8.41428">
        <ele>1308</ele>
        <time>2021-08-13T09:07:07.219Z</time>
      </trkpt>
      <trkpt lat="46.82683" lon="8.41428">
        <ele>1308</ele>
        <time>2021-08-13T09:07:08.218Z</time>
      </trkpt>
      <trkpt lat="46.82682" lon="8.41428">
        <ele>1308</ele>
        <time>2021-08-13T09:07:09.219Z</time>
      </trkpt>
      <trkpt lat="46.82682" lon="8.41428">
        <ele>1307</ele>
        <time>2021-08-13T09:07:10.219Z</time>
      </trkpt>
      <trkpt lat="46.82681" lon="8.41427">
        <ele>1307</ele>
        <time>2021-08-13T09:07:11.218Z</time>
      </trkpt>
      <trkpt lat="46.82679" lon="8.41427">
        <ele>1307</ele>
        <time>2021-08-13T09:07:12.218Z</time>
      </trkpt>
      <trkpt lat="46.82679" lon="8.41426">
        <ele>1307</ele>
        <time>2021-08-13T09:07:13.219Z</time>
      </trkpt>
      <trkpt lat="46.82678" lon="8.41426">
        <ele>1307</ele>
        <time>2021-08-13T09:07:14.218Z</time>
      </trkpt>
      <trkpt lat="46.82677" lon="8.41426">
        <ele>1307</ele>
        <time>2021-08-13T09:07:15.218Z</time>
      </trkpt>
      <trkpt lat="46.82675" lon="8.41426">
        <ele>1307</ele>
        <time>2021-08-13T09:07:16.219Z</time>
      </trkpt>
      <trkpt lat="46.82674" lon="8.41427">
        <ele>1308</ele>
        <time>2021-08-13T09:07:17.218Z</time>
      </trkpt>
      <trkpt lat="46.82673" lon="8.41428">
        <ele>1308</ele>
        <time>2021-08-13T09:07:18.219Z</time>
      </trkpt>
      <trkpt lat="46.82672" lon="8.41429">
        <ele>1308</ele>
        <time>2021-08-13T09:07:19.219Z</time>
      </trkpt>
      <trkpt lat="46.82671" lon="8.41429">
        <ele>1308</ele>
        <time>2021-08-13T09:07:20.219Z</time>
      </trkpt>
      <trkpt lat="46.82671" lon="8.41429">
        <ele>1308</ele>
        <time>2021-08-13T09:07:21.218Z</time>
      </trkpt>
      <trkpt lat="46.8267" lon="8.41429">
        <ele>1308</ele>
        <time>2021-08-13T09:07:22.219Z</time>
      </trkpt>
      <trkpt lat="46.82669" lon="8.41429">
        <ele>1308</ele>
        <time>2021-08-13T09:07:23.219Z</time>
      </trkpt>
      <trkpt lat="46.82669" lon="8.41427">
        <ele>1308</ele>
        <time>2021-08-13T09:07:24.219Z</time>
      </trkpt>
      <trkpt lat="46.82668" lon="8.41427">
        <ele>1308</ele>
        <time>2021-08-13T09:07:25.218Z</time>
      </trkpt>
      <trkpt lat="46.82667" lon="8.41426">
        <ele>1308</ele>
        <time>2021-08-13T09:07:26.219Z</time>
      </trkpt>
      <trkpt lat="46.82665" lon="8.41426">
        <ele>1308</ele>
        <time>2021-08-13T09:07:27.219Z</time>
      </trkpt>
      <trkpt lat="46.82664" lon="8.41426">
        <ele>1308</ele>
        <time>2021-08-13T09:07:28.219Z</time>
      </trkpt>
      <trkpt lat="46.82662" lon="8.41425">
        <ele>1308</ele>
        <time>2021-08-13T09:07:29.219Z</time>
      </trkpt>
      <trkpt lat="46.82661" lon="8.41426">
        <ele>1307</ele>
        <time>2021-08-13T09:07:30.219Z</time>
      </trkpt>
      <trkpt lat="46.82661" lon="8.41427">
        <ele>1307</ele>
        <time>2021-08-13T09:07:31.219Z</time>
      </trkpt>
      <trkpt lat="46.82661" lon="8.41427">
        <ele>1306</ele>
        <time>2021-08-13T09:07:32.219Z</time>
      </trkpt>
      <trkpt lat="46.82661" lon="8.41428">
        <ele>1305</ele>
        <time>2021-08-13T09:07:33.219Z</time>
      </trkpt>
      <trkpt lat="46.82661" lon="8.41428">
        <ele>1304</ele>
        <time>2021-08-13T09:07:34.219Z</time>
      </trkpt>
      <trkpt lat="46.82661" lon="8.41429">
        <ele>1304</ele>
        <time>2021-08-13T09:07:35.219Z</time>
      </trkpt>
      <trkpt lat="46.8266" lon="8.41429">
        <ele>1303</ele>
        <time>2021-08-13T09:07:36.219Z</time>
      </trkpt>
      <trkpt lat="46.8266" lon="8.4143">
        <ele>1302</ele>
        <time>2021-08-13T09:07:37.219Z</time>
      </trkpt>
      <trkpt lat="46.8266" lon="8.4143">
        <ele>1301</ele>
        <time>2021-08-13T09:07:38.219Z</time>
      </trkpt>
      <trkpt lat="46.8266" lon="8.41431">
        <ele>1301</ele>
        <time>2021-08-13T09:07:39.219Z</time>
      </trkpt>
      <trkpt lat="46.82659" lon="8.41432">
        <ele>1300</ele>
        <time>2021-08-13T09:07:40.219Z</time>
      </trkpt>
      <trkpt lat="46.82658" lon="8.41433">
        <ele>1300</ele>
        <time>2021-08-13T09:07:41.218Z</time>
      </trkpt>
      <trkpt lat="46.82658" lon="8.41434">
        <ele>1299</ele>
        <time>2021-08-13T09:07:42.219Z</time>
      </trkpt>
      <trkpt lat="46.82657" lon="8.41434">
        <ele>1299</ele>
        <time>2021-08-13T09:07:43.219Z</time>
      </trkpt>
      <trkpt lat="46.82657" lon="8.41435">
        <ele>1298</ele>
        <time>2021-08-13T09:07:44.219Z</time>
      </trkpt>
      <trkpt lat="46.82656" lon="8.41435">
        <ele>1297</ele>
        <time>2021-08-13T09:07:45.219Z</time>
      </trkpt>
      <trkpt lat="46.82655" lon="8.41435">
        <ele>1297</ele>
        <time>2021-08-13T09:07:46.219Z</time>
      </trkpt>
      <trkpt lat="46.82653" lon="8.41435">
        <ele>1296</ele>
        <time>2021-08-13T09:07:47.218Z</time>
      </trkpt>
      <trkpt lat="46.82652" lon="8.41436">
        <ele>1296</ele>
        <time>2021-08-13T09:07:48.219Z</time>
      </trkpt>
      <trkpt lat="46.8265" lon="8.41437">
        <ele>1296</ele>
        <time>2021-08-13T09:07:49.219Z</time>
      </trkpt>
      <trkpt lat="46.8265" lon="8.41438">
        <ele>1295</ele>
        <time>2021-08-13T09:07:50.218Z</time>
      </trkpt>
      <trkpt lat="46.8265" lon="8.41438">
        <ele>1295</ele>
        <time>2021-08-13T09:07:51.218Z</time>
      </trkpt>
      <trkpt lat="46.82649" lon="8.41438">
        <ele>1294</ele>
        <time>2021-08-13T09:07:52.218Z</time>
      </trkpt>
      <trkpt lat="46.82649" lon="8.41439">
        <ele>1293</ele>
        <time>2021-08-13T09:07:53.218Z</time>
      </trkpt>
      <trkpt lat="46.82648" lon="8.4144">
        <ele>1293</ele>
        <time>2021-08-13T09:07:54.219Z</time>
      </trkpt>
      <trkpt lat="46.82647" lon="8.41441">
        <ele>1292</ele>
        <time>2021-08-13T09:07:55.218Z</time>
      </trkpt>
      <trkpt lat="46.82645" lon="8.41442">
        <ele>1291</ele>
        <time>2021-08-13T09:07:56.219Z</time>
      </trkpt>
      <trkpt lat="46.82645" lon="8.41443">
        <ele>1290</ele>
        <time>2021-08-13T09:07:57.219Z</time>
      </trkpt>
      <trkpt lat="46.82644" lon="8.41444">
        <ele>1289</ele>
        <time>2021-08-13T09:07:58.218Z</time>
      </trkpt>
      <trkpt lat="46.82643" lon="8.41446">
        <ele>1288</ele>
        <time>2021-08-13T09:07:59.218Z</time>
      </trkpt>
      <trkpt lat="46.82642" lon="8.41447">
        <ele>1287</ele>
        <time>2021-08-13T09:08:00.219Z</time>
      </trkpt>
      <trkpt lat="46.82641" lon="8.41448">
        <ele>1286</ele>
        <time>2021-08-13T09:08:01.218Z</time>
      </trkpt>
      <trkpt lat="46.8264" lon="8.41449">
        <ele>1286</ele>
        <time>2021-08-13T09:08:02.219Z</time>
      </trkpt>
      <trkpt lat="46.82639" lon="8.4145">
        <ele>1285</ele>
        <time>2021-08-13T09:08:03.218Z</time>
      </trkpt>
      <trkpt lat="46.82638" lon="8.41452">
        <ele>1284</ele>
        <time>2021-08-13T09:08:04.219Z</time>
      </trkpt>
      <trkpt lat="46.82637" lon="8.41453">
        <ele>1283</ele>
        <time>2021-08-13T09:08:05.218Z</time>
      </trkpt>
      <trkpt lat="46.82636" lon="8.41453">
        <ele>1282</ele>
        <time>2021-08-13T09:08:06.219Z</time>
      </trkpt>
      <trkpt lat="46.82635" lon="8.41453">
        <ele>1281</ele>
        <time>2021-08-13T09:08:07.219Z</time>
      </trkpt>
      <trkpt lat="46.82634" lon="8.41454">
        <ele>1280</ele>
        <time>2021-08-13T09:08:08.219Z</time>
      </trkpt>
      <trkpt lat="46.82632" lon="8.41454">
        <ele>1280</ele>
        <time>2021-08-13T09:08:09.219Z</time>
      </trkpt>
      <trkpt lat="46.82632" lon="8.41454">
        <ele>1279</ele>
        <time>2021-08-13T09:08:10.219Z</time>
      </trkpt>
      <trkpt lat="46.82631" lon="8.41454">
        <ele>1278</ele>
        <time>2021-08-13T09:08:11.219Z</time>
      </trkpt>
      <trkpt lat="46.8263" lon="8.41454">
        <ele>1278</ele>
        <time>2021-08-13T09:08:12.219Z</time>
      </trkpt>
      <trkpt lat="46.82629" lon="8.41456">
        <ele>1278</ele>
        <time>2021-08-13T09:08:13.219Z</time>
      </trkpt>
      <trkpt lat="46.82629" lon="8.41457">
        <ele>1277</ele>
        <time>2021-08-13T09:08:14.219Z</time>
      </trkpt>
      <trkpt lat="46.82628" lon="8.41458">
        <ele>1276</ele>
        <time>2021-08-13T09:08:15.218Z</time>
      </trkpt>
      <trkpt lat="46.82628" lon="8.4146">
        <ele>1275</ele>
        <time>2021-08-13T09:08:16.218Z</time>
      </trkpt>
      <trkpt lat="46.82628" lon="8.41462">
        <ele>1274</ele>
        <time>2021-08-13T09:08:17.219Z</time>
      </trkpt>
      <trkpt lat="46.82627" lon="8.41463">
        <ele>1273</ele>
        <time>2021-08-13T09:08:18.219Z</time>
      </trkpt>
      <trkpt lat="46.82628" lon="8.41463">
        <ele>1272</ele>
        <time>2021-08-13T09:08:19.218Z</time>
      </trkpt>
      <trkpt lat="46.82626" lon="8.41464">
        <ele>1271</ele>
        <time>2021-08-13T09:08:20.219Z</time>
      </trkpt>
      <trkpt lat="46.82625" lon="8.41467">
        <ele>1270</ele>
        <time>2021-08-13T09:08:21.218Z</time>
      </trkpt>
      <trkpt lat="46.82624" lon="8.41469">
        <ele>1269</ele>
        <time>2021-08-13T09:08:22.219Z</time>
      </trkpt>
      <trkpt lat="46.82623" lon="8.41471">
        <ele>1268</ele>
        <time>2021-08-13T09:08:23.218Z</time>
      </trkpt>
      <trkpt lat="46.82623" lon="8.41473">
        <ele>1267</ele>
        <time>2021-08-13T09:08:24.218Z</time>
      </trkpt>
      <trkpt lat="46.82622" lon="8.41474">
        <ele>1267</ele>
        <time>2021-08-13T09:08:25.218Z</time>
      </trkpt>
      <trkpt lat="46.82621" lon="8.41475">
        <ele>1266</ele>
        <time>2021-08-13T09:08:26.219Z</time>
      </trkpt>
      <trkpt lat="46.8262" lon="8.41476">
        <ele>1265</ele>
        <time>2021-08-13T09:08:27.219Z</time>
      </trkpt>
      <trkpt lat="46.82619" lon="8.41476">
        <ele>1264</ele>
        <time>2021-08-13T09:08:28.219Z</time>
      </trkpt>
      <trkpt lat="46.82619" lon="8.41476">
        <ele>1263</ele>
        <time>2021-08-13T09:08:29.219Z</time>
      </trkpt>
      <trkpt lat="46.82618" lon="8.41476">
        <ele>1262</ele>
        <time>2021-08-13T09:08:30.219Z</time>
      </trkpt>
      <trkpt lat="46.82618" lon="8.41475">
        <ele>1261</ele>
        <time>2021-08-13T09:08:31.219Z</time>
      </trkpt>
      <trkpt lat="46.82617" lon="8.41475">
        <ele>1260</ele>
        <time>2021-08-13T09:08:32.219Z</time>
      </trkpt>
      <trkpt lat="46.82616" lon="8.41474">
        <ele>1260</ele>
        <time>2021-08-13T09:08:33.219Z</time>
      </trkpt>
      <trkpt lat="46.82615" lon="8.41474">
        <ele>1259</ele>
        <time>2021-08-13T09:08:34.219Z</time>
      </trkpt>
      <trkpt lat="46.82614" lon="8.41474">
        <ele>1258</ele>
        <time>2021-08-13T09:08:35.219Z</time>
      </trkpt>
      <trkpt lat="46.82614" lon="8.41474">
        <ele>1257</ele>
        <time>2021-08-13T09:08:36.219Z</time>
      </trkpt>
      <trkpt lat="46.82613" lon="8.41475">
        <ele>1257</ele>
        <time>2021-08-13T09:08:37.219Z</time>
      </trkpt>
      <trkpt lat="46.82612" lon="8.41475">
        <ele>1256</ele>
        <time>2021-08-13T09:08:38.219Z</time>
      </trkpt>
      <trkpt lat="46.82611" lon="8.41476">
        <ele>1255</ele>
        <time>2021-08-13T09:08:39.219Z</time>
      </trkpt>
      <trkpt lat="46.8261" lon="8.41477">
        <ele>1254</ele>
        <time>2021-08-13T09:08:40.219Z</time>
      </trkpt>
      <trkpt lat="46.82609" lon="8.41478">
        <ele>1253</ele>
        <time>2021-08-13T09:08:41.219Z</time>
      </trkpt>
      <trkpt lat="46.82608" lon="8.41479">
        <ele>1252</ele>
        <time>2021-08-13T09:08:42.219Z</time>
      </trkpt>
      <trkpt lat="46.82607" lon="8.41481">
        <ele>1251</ele>
        <time>2021-08-13T09:08:43.219Z</time>
      </trkpt>
      <trkpt lat="46.82607" lon="8.41483">
        <ele>1250</ele>
        <time>2021-08-13T09:08:44.219Z</time>
      </trkpt>
      <trkpt lat="46.82606" lon="8.41484">
        <ele>1249</ele>
        <time>2021-08-13T09:08:45.219Z</time>
      </trkpt>
      <trkpt lat="46.82605" lon="8.41484">
        <ele>1249</ele>
        <time>2021-08-13T09:08:46.218Z</time>
      </trkpt>
      <trkpt lat="46.82605" lon="8.41485">
        <ele>1248</ele>
        <time>2021-08-13T09:08:47.219Z</time>
      </trkpt>
      <trkpt lat="46.82604" lon="8.41486">
        <ele>1247</ele>
        <time>2021-08-13T09:08:48.219Z</time>
      </trkpt>
      <trkpt lat="46.82603" lon="8.41487">
        <ele>1247</ele>
        <time>2021-08-13T09:08:49.219Z</time>
      </trkpt>
      <trkpt lat="46.82603" lon="8.41489">
        <ele>1246</ele>
        <time>2021-08-13T09:08:50.219Z</time>
      </trkpt>
      <trkpt lat="46.82602" lon="8.4149">
        <ele>1246</ele>
        <time>2021-08-13T09:08:51.219Z</time>
      </trkpt>
      <trkpt lat="46.82602" lon="8.41492">
        <ele>1246</ele>
        <time>2021-08-13T09:08:52.219Z</time>
      </trkpt>
      <trkpt lat="46.82602" lon="8.41494">
        <ele>1245</ele>
        <time>2021-08-13T09:08:53.219Z</time>
      </trkpt>
      <trkpt lat="46.82602" lon="8.41495">
        <ele>1245</ele>
        <time>2021-08-13T09:08:54.218Z</time>
      </trkpt>
      <trkpt lat="46.82602" lon="8.41496">
        <ele>1245</ele>
        <time>2021-08-13T09:08:55.219Z</time>
      </trkpt>
      <trkpt lat="46.82601" lon="8.41496">
        <ele>1245</ele>
        <time>2021-08-13T09:08:56.218Z</time>
      </trkpt>
      <trkpt lat="46.82601" lon="8.41496">
        <ele>1246</ele>
        <time>2021-08-13T09:08:57.219Z</time>
      </trkpt>
      <trkpt lat="46.82601" lon="8.41495">
        <ele>1246</ele>
        <time>2021-08-13T09:08:58.218Z</time>
      </trkpt>
      <trkpt lat="46.82602" lon="8.41495">
        <ele>1246</ele>
        <time>2021-08-13T09:08:59.218Z</time>
      </trkpt>
      <trkpt lat="46.82602" lon="8.41494">
        <ele>1246</ele>
        <time>2021-08-13T09:09:00.218Z</time>
      </trkpt>
      <trkpt lat="46.82602" lon="8.41494">
        <ele>1246</ele>
        <time>2021-08-13T09:09:01.219Z</time>
      </trkpt>
      <trkpt lat="46.82602" lon="8.41494">
        <ele>1246</ele>
        <time>2021-08-13T09:09:02.219Z</time>
      </trkpt>
      <trkpt lat="46.82601" lon="8.41493">
        <ele>1246</ele>
        <time>2021-08-13T09:09:03.219Z</time>
      </trkpt>
      <trkpt lat="46.82601" lon="8.41493">
        <ele>1246</ele>
        <time>2021-08-13T09:09:04.219Z</time>
      </trkpt>
      <trkpt lat="46.826" lon="8.41492">
        <ele>1245</ele>
        <time>2021-08-13T09:09:05.219Z</time>
      </trkpt>
      <trkpt lat="46.826" lon="8.41491">
        <ele>1245</ele>
        <time>2021-08-13T09:09:06.219Z</time>
      </trkpt>
      <trkpt lat="46.826" lon="8.41491">
        <ele>1244</ele>
        <time>2021-08-13T09:09:07.218Z</time>
      </trkpt>
      <trkpt lat="46.82599" lon="8.4149">
        <ele>1244</ele>
        <time>2021-08-13T09:09:08.219Z</time>
      </trkpt>
      <trkpt lat="46.82598" lon="8.4149">
        <ele>1243</ele>
        <time>2021-08-13T09:09:09.219Z</time>
      </trkpt>
      <trkpt lat="46.82598" lon="8.4149">
        <ele>1243</ele>
        <time>2021-08-13T09:09:10.218Z</time>
      </trkpt>
      <trkpt lat="46.82598" lon="8.4149">
        <ele>1243</ele>
        <time>2021-08-13T09:09:11.219Z</time>
      </trkpt>
      <trkpt lat="46.82598" lon="8.41489">
        <ele>1242</ele>
        <time>2021-08-13T09:09:12.219Z</time>
      </trkpt>
      <trkpt lat="46.82599" lon="8.41489">
        <ele>1241</ele>
        <time>2021-08-13T09:09:13.219Z</time>
      </trkpt>
      <trkpt lat="46.82599" lon="8.41488">
        <ele>1241</ele>
        <time>2021-08-13T09:09:14.219Z</time>
      </trkpt>
      <trkpt lat="46.82599" lon="8.41487">
        <ele>1240</ele>
        <time>2021-08-13T09:09:15.218Z</time>
      </trkpt>
      <trkpt lat="46.826" lon="8.41487">
        <ele>1240</ele>
        <time>2021-08-13T09:09:16.219Z</time>
      </trkpt>
      <trkpt lat="46.826" lon="8.41487">
        <ele>1240</ele>
        <time>2021-08-13T09:09:17.219Z</time>
      </trkpt>
      <trkpt lat="46.826" lon="8.41486">
        <ele>1239</ele>
        <time>2021-08-13T09:09:18.219Z</time>
      </trkpt>
      <trkpt lat="46.82601" lon="8.41485">
        <ele>1238</ele>
        <time>2021-08-13T09:09:19.218Z</time>
      </trkpt>
      <trkpt lat="46.82601" lon="8.41484">
        <ele>1238</ele>
        <time>2021-08-13T09:09:20.219Z</time>
      </trkpt>
      <trkpt lat="46.82601" lon="8.41483">
        <ele>1238</ele>
        <time>2021-08-13T09:09:21.218Z</time>
      </trkpt>
      <trkpt lat="46.82602" lon="8.41482">
        <ele>1237</ele>
        <time>2021-08-13T09:09:22.219Z</time>
      </trkpt>
      <trkpt lat="46.82603" lon="8.41481">
        <ele>1237</ele>
        <time>2021-08-13T09:09:23.218Z</time>
      </trkpt>
      <trkpt lat="46.82603" lon="8.41481">
        <ele>1237</ele>
        <time>2021-08-13T09:09:24.218Z</time>
      </trkpt>
      <trkpt lat="46.82603" lon="8.4148">
        <ele>1238</ele>
        <time>2021-08-13T09:09:25.219Z</time>
      </trkpt>
      <trkpt lat="46.82603" lon="8.4148">
        <ele>1238</ele>
        <time>2021-08-13T09:09:26.219Z</time>
      </trkpt>
      <trkpt lat="46.82604" lon="8.41479">
        <ele>1238</ele>
        <time>2021-08-13T09:09:27.219Z</time>
      </trkpt>
      <trkpt lat="46.82606" lon="8.41478">
        <ele>1238</ele>
        <time>2021-08-13T09:09:28.219Z</time>
      </trkpt>
      <trkpt lat="46.82608" lon="8.41477">
        <ele>1239</ele>
        <time>2021-08-13T09:09:29.219Z</time>
      </trkpt>
      <trkpt lat="46.8261" lon="8.41476">
        <ele>1239</ele>
        <time>2021-08-13T09:09:30.219Z</time>
      </trkpt>
      <trkpt lat="46.82611" lon="8.41476">
        <ele>1239</ele>
        <time>2021-08-13T09:09:31.219Z</time>
      </trkpt>
      <trkpt lat="46.82611" lon="8.41475">
        <ele>1239</ele>
        <time>2021-08-13T09:09:32.219Z</time>
      </trkpt>
      <trkpt lat="46.82612" lon="8.41474">
        <ele>1239</ele>
        <time>2021-08-13T09:09:33.219Z</time>
      </trkpt>
      <trkpt lat="46.82612" lon="8.41473">
        <ele>1239</ele>
        <time>2021-08-13T09:09:34.218Z</time>
      </trkpt>
      <trkpt lat="46.82613" lon="8.41472">
        <ele>1238</ele>
        <time>2021-08-13T09:09:35.219Z</time>
      </trkpt>
      <trkpt lat="46.82613" lon="8.41472">
        <ele>1238</ele>
        <time>2021-08-13T09:09:36.218Z</time>
      </trkpt>
      <trkpt lat="46.82614" lon="8.41472">
        <ele>1238</ele>
        <time>2021-08-13T09:09:37.219Z</time>
      </trkpt>
      <trkpt lat="46.82614" lon="8.41472">
        <ele>1238</ele>
        <time>2021-08-13T09:09:38.219Z</time>
      </trkpt>
      <trkpt lat="46.82614" lon="8.41472">
        <ele>1238</ele>
        <time>2021-08-13T09:09:39.218Z</time>
      </trkpt>
      <trkpt lat="46.82615" lon="8.41472">
        <ele>1238</ele>
        <time>2021-08-13T09:09:40.219Z</time>
      </trkpt>
      <trkpt lat="46.82615" lon="8.41471">
        <ele>1238</ele>
        <time>2021-08-13T09:09:41.219Z</time>
      </trkpt>
      <trkpt lat="46.82616" lon="8.41471">
        <ele>1238</ele>
        <time>2021-08-13T09:09:42.218Z</time>
      </trkpt>
      <trkpt lat="46.82616" lon="8.41469">
        <ele>1237</ele>
        <time>2021-08-13T09:09:43.219Z</time>
      </trkpt>
      <trkpt lat="46.82617" lon="8.41467">
        <ele>1237</ele>
        <time>2021-08-13T09:09:44.219Z</time>
      </trkpt>
      <trkpt lat="46.82619" lon="8.41465">
        <ele>1237</ele>
        <time>2021-08-13T09:09:45.218Z</time>
      </trkpt>
      <trkpt lat="46.82619" lon="8.41464">
        <ele>1237</ele>
        <time>2021-08-13T09:09:46.218Z</time>
      </trkpt>
      <trkpt lat="46.8262" lon="8.41464">
        <ele>1236</ele>
        <time>2021-08-13T09:09:47.219Z</time>
      </trkpt>
      <trkpt lat="46.82621" lon="8.41462">
        <ele>1236</ele>
        <time>2021-08-13T09:09:48.219Z</time>
      </trkpt>
      <trkpt lat="46.82622" lon="8.4146">
        <ele>1236</ele>
        <time>2021-08-13T09:09:49.219Z</time>
      </trkpt>
      <trkpt lat="46.82625" lon="8.41459">
        <ele>1235</ele>
        <time>2021-08-13T09:09:50.219Z</time>
      </trkpt>
      <trkpt lat="46.82628" lon="8.41458">
        <ele>1235</ele>
        <time>2021-08-13T09:09:51.219Z</time>
      </trkpt>
      <trkpt lat="46.82631" lon="8.41458">
        <ele>1235</ele>
        <time>2021-08-13T09:09:52.218Z</time>
      </trkpt>
      <trkpt lat="46.82634" lon="8.41457">
        <ele>1234</ele>
        <time>2021-08-13T09:09:53.219Z</time>
      </trkpt>
      <trkpt lat="46.82636" lon="8.41456">
        <ele>1234</ele>
        <time>2021-08-13T09:09:54.219Z</time>
      </trkpt>
      <trkpt lat="46.82637" lon="8.41454">
        <ele>1234</ele>
        <time>2021-08-13T09:09:55.219Z</time>
      </trkpt>
      <trkpt lat="46.82636" lon="8.41452">
        <ele>1234</ele>
        <time>2021-08-13T09:09:56.219Z</time>
      </trkpt>
      <trkpt lat="46.82636" lon="8.4145">
        <ele>1233</ele>
        <time>2021-08-13T09:09:57.219Z</time>
      </trkpt>
      <trkpt lat="46.82635" lon="8.41449">
        <ele>1233</ele>
        <time>2021-08-13T09:09:58.218Z</time>
      </trkpt>
      <trkpt lat="46.82634" lon="8.41447">
        <ele>1233</ele>
        <time>2021-08-13T09:09:59.219Z</time>
      </trkpt>
      <trkpt lat="46.82632" lon="8.41445">
        <ele>1232</ele>
        <time>2021-08-13T09:10:00.219Z</time>
      </trkpt>
      <trkpt lat="46.82629" lon="8.41443">
        <ele>1231</ele>
        <time>2021-08-13T09:10:01.218Z</time>
      </trkpt>
      <trkpt lat="46.82627" lon="8.41442">
        <ele>1231</ele>
        <time>2021-08-13T09:10:02.218Z</time>
      </trkpt>
      <trkpt lat="46.82627" lon="8.41442">
        <ele>1230</ele>
        <time>2021-08-13T09:10:03.218Z</time>
      </trkpt>
      <trkpt lat="46.82627" lon="8.41441">
        <ele>1229</ele>
        <time>2021-08-13T09:10:04.219Z</time>
      </trkpt>
      <trkpt lat="46.82627" lon="8.41441">
        <ele>1228</ele>
        <time>2021-08-13T09:10:05.219Z</time>
      </trkpt>
      <trkpt lat="46.82628" lon="8.4144">
        <ele>1228</ele>
        <time>2021-08-13T09:10:06.218Z</time>
      </trkpt>
      <trkpt lat="46.82629" lon="8.41439">
        <ele>1227</ele>
        <time>2021-08-13T09:10:07.218Z</time>
      </trkpt>
      <trkpt lat="46.82629" lon="8.41439">
        <ele>1227</ele>
        <time>2021-08-13T09:10:08.219Z</time>
      </trkpt>
      <trkpt lat="46.82629" lon="8.41439">
        <ele>1226</ele>
        <time>2021-08-13T09:10:09.218Z</time>
      </trkpt>
      <trkpt lat="46.82628" lon="8.41438">
        <ele>1226</ele>
        <time>2021-08-13T09:10:10.219Z</time>
      </trkpt>
      <trkpt lat="46.82627" lon="8.41438">
        <ele>1225</ele>
        <time>2021-08-13T09:10:11.219Z</time>
      </trkpt>
      <trkpt lat="46.82626" lon="8.41436">
        <ele>1225</ele>
        <time>2021-08-13T09:10:12.218Z</time>
      </trkpt>
      <trkpt lat="46.82626" lon="8.41435">
        <ele>1224</ele>
        <time>2021-08-13T09:10:13.219Z</time>
      </trkpt>
      <trkpt lat="46.82628" lon="8.41434">
        <ele>1223</ele>
        <time>2021-08-13T09:10:14.218Z</time>
      </trkpt>
      <trkpt lat="46.82629" lon="8.41434">
        <ele>1223</ele>
        <time>2021-08-13T09:10:15.218Z</time>
      </trkpt>
      <trkpt lat="46.8263" lon="8.41434">
        <ele>1222</ele>
        <time>2021-08-13T09:10:16.219Z</time>
      </trkpt>
      <trkpt lat="46.82631" lon="8.41433">
        <ele>1222</ele>
        <time>2021-08-13T09:10:17.218Z</time>
      </trkpt>
      <trkpt lat="46.82633" lon="8.41433">
        <ele>1221</ele>
        <time>2021-08-13T09:10:18.218Z</time>
      </trkpt>
      <trkpt lat="46.82633" lon="8.41432">
        <ele>1221</ele>
        <time>2021-08-13T09:10:19.219Z</time>
      </trkpt>
      <trkpt lat="46.82633" lon="8.41433">
        <ele>1220</ele>
        <time>2021-08-13T09:10:20.218Z</time>
      </trkpt>
      <trkpt lat="46.82632" lon="8.41434">
        <ele>1220</ele>
        <time>2021-08-13T09:10:21.219Z</time>
      </trkpt>
      <trkpt lat="46.82632" lon="8.41434">
        <ele>1220</ele>
        <time>2021-08-13T09:10:22.219Z</time>
      </trkpt>
      <trkpt lat="46.82632" lon="8.41433">
        <ele>1220</ele>
        <time>2021-08-13T09:10:23.219Z</time>
      </trkpt>
      <trkpt lat="46.82632" lon="8.41432">
        <ele>1219</ele>
        <time>2021-08-13T09:10:24.219Z</time>
      </trkpt>
      <trkpt lat="46.82632" lon="8.41434">
        <ele>1219</ele>
        <time>2021-08-13T09:10:25.218Z</time>
      </trkpt>
      <trkpt lat="46.82631" lon="8.41438">
        <ele>1219</ele>
        <time>2021-08-13T09:10:26.219Z</time>
      </trkpt>
      <trkpt lat="46.82631" lon="8.41441">
        <ele>1219</ele>
        <time>2021-08-13T09:10:27.218Z</time>
      </trkpt>
      <trkpt lat="46.82631" lon="8.41441">
        <ele>1219</ele>
        <time>2021-08-13T09:10:28.218Z</time>
      </trkpt>
      <trkpt lat="46.82633" lon="8.41441">
        <ele>1219</ele>
        <time>2021-08-13T09:10:29.219Z</time>
      </trkpt>
      <trkpt lat="46.82634" lon="8.41439">
        <ele>1219</ele>
        <time>2021-08-13T09:10:30.219Z</time>
      </trkpt>
      <trkpt lat="46.82635" lon="8.41438">
        <ele>1219</ele>
        <time>2021-08-13T09:10:31.218Z</time>
      </trkpt>
      <trkpt lat="46.82636" lon="8.41437">
        <ele>1220</ele>
        <time>2021-08-13T09:10:32.218Z</time>
      </trkpt>
      <trkpt lat="46.82637" lon="8.41437">
        <ele>1220</ele>
        <time>2021-08-13T09:10:33.219Z</time>
      </trkpt>
      <trkpt lat="46.82639" lon="8.41435">
        <ele>1220</ele>
        <time>2021-08-13T09:10:34.218Z</time>
      </trkpt>
      <trkpt lat="46.8264" lon="8.41434">
        <ele>1220</ele>
        <time>2021-08-13T09:10:35.219Z</time>
      </trkpt>
      <trkpt lat="46.8264" lon="8.41432">
        <ele>1221</ele>
        <time>2021-08-13T09:10:36.218Z</time>
      </trkpt>
      <trkpt lat="46.8264" lon="8.4143">
        <ele>1221</ele>
        <time>2021-08-13T09:10:37.218Z</time>
      </trkpt>
      <trkpt lat="46.8264" lon="8.41428">
        <ele>1221</ele>
        <time>2021-08-13T09:10:38.218Z</time>
      </trkpt>
      <trkpt lat="46.82641" lon="8.41426">
        <ele>1221</ele>
        <time>2021-08-13T09:10:39.218Z</time>
      </trkpt>
      <trkpt lat="46.82642" lon="8.41424">
        <ele>1222</ele>
        <time>2021-08-13T09:10:40.218Z</time>
      </trkpt>
      <trkpt lat="46.82643" lon="8.41422">
        <ele>1222</ele>
        <time>2021-08-13T09:10:41.218Z</time>
      </trkpt>
      <trkpt lat="46.82643" lon="8.41424">
        <ele>1222</ele>
        <time>2021-08-13T09:10:42.218Z</time>
      </trkpt>
      <trkpt lat="46.82641" lon="8.41426">
        <ele>1222</ele>
        <time>2021-08-13T09:10:43.218Z</time>
      </trkpt>
      <trkpt lat="46.82641" lon="8.41427">
        <ele>1223</ele>
        <time>2021-08-13T09:10:44.218Z</time>
      </trkpt>
      <trkpt lat="46.82643" lon="8.41425">
        <ele>1223</ele>
        <time>2021-08-13T09:10:45.218Z</time>
      </trkpt>
      <trkpt lat="46.82644" lon="8.41424">
        <ele>1223</ele>
        <time>2021-08-13T09:10:46.219Z</time>
      </trkpt>
      <trkpt lat="46.82645" lon="8.41423">
        <ele>1223</ele>
        <time>2021-08-13T09:10:47.219Z</time>
      </trkpt>
      <trkpt lat="46.82646" lon="8.41422">
        <ele>1224</ele>
        <time>2021-08-13T09:10:48.219Z</time>
      </trkpt>
      <trkpt lat="46.82646" lon="8.4142">
        <ele>1224</ele>
        <time>2021-08-13T09:10:49.219Z</time>
      </trkpt>
      <trkpt lat="46.82647" lon="8.41419">
        <ele>1224</ele>
        <time>2021-08-13T09:10:50.219Z</time>
      </trkpt>
      <trkpt lat="46.82648" lon="8.41416">
        <ele>1225</ele>
        <time>2021-08-13T09:10:51.218Z</time>
      </trkpt>
      <trkpt lat="46.82649" lon="8.41414">
        <ele>1225</ele>
        <time>2021-08-13T09:10:52.219Z</time>
      </trkpt>
      <trkpt lat="46.8265" lon="8.41412">
        <ele>1225</ele>
        <time>2021-08-13T09:10:53.219Z</time>
      </trkpt>
      <trkpt lat="46.82649" lon="8.41411">
        <ele>1226</ele>
        <time>2021-08-13T09:10:54.219Z</time>
      </trkpt>
      <trkpt lat="46.82647" lon="8.4141">
        <ele>1226</ele>
        <time>2021-08-13T09:10:55.219Z</time>
      </trkpt>
      <trkpt lat="46.82646" lon="8.41411">
        <ele>1227</ele>
        <time>2021-08-13T09:10:56.218Z</time>
      </trkpt>
      <trkpt lat="46.82644" lon="8.41411">
        <ele>1227</ele>
        <time>2021-08-13T09:10:57.219Z</time>
      </trkpt>
      <trkpt lat="46.82643" lon="8.41412">
        <ele>1227</ele>
        <time>2021-08-13T09:10:58.218Z</time>
      </trkpt>
      <trkpt lat="46.82643" lon="8.41411">
        <ele>1228</ele>
        <time>2021-08-13T09:10:59.219Z</time>
      </trkpt>
      <trkpt lat="46.82643" lon="8.41411">
        <ele>1228</ele>
        <time>2021-08-13T09:11:00.219Z</time>
      </trkpt>
      <trkpt lat="46.82642" lon="8.41411">
        <ele>1229</ele>
        <time>2021-08-13T09:11:01.219Z</time>
      </trkpt>
      <trkpt lat="46.82642" lon="8.41411">
        <ele>1229</ele>
        <time>2021-08-13T09:11:02.219Z</time>
      </trkpt>
      <trkpt lat="46.82641" lon="8.41411">
        <ele>1229</ele>
        <time>2021-08-13T09:11:03.219Z</time>
      </trkpt>
      <trkpt lat="46.8264" lon="8.4141">
        <ele>1230</ele>
        <time>2021-08-13T09:11:04.219Z</time>
      </trkpt>
      <trkpt lat="46.8264" lon="8.41409">
        <ele>1230</ele>
        <time>2021-08-13T09:11:05.219Z</time>
      </trkpt>
      <trkpt lat="46.82639" lon="8.41408">
        <ele>1230</ele>
        <time>2021-08-13T09:11:06.218Z</time>
      </trkpt>
      <trkpt lat="46.8264" lon="8.41407">
        <ele>1230</ele>
        <time>2021-08-13T09:11:07.219Z</time>
      </trkpt>
      <trkpt lat="46.82641" lon="8.41405">
        <ele>1230</ele>
        <time>2021-08-13T09:11:08.218Z</time>
      </trkpt>
      <trkpt lat="46.82642" lon="8.41404">
        <ele>1231</ele>
        <time>2021-08-13T09:11:09.219Z</time>
      </trkpt>
      <trkpt lat="46.82643" lon="8.41403">
        <ele>1231</ele>
        <time>2021-08-13T09:11:10.219Z</time>
      </trkpt>
      <trkpt lat="46.82643" lon="8.41403">
        <ele>1231</ele>
        <time>2021-08-13T09:11:11.218Z</time>
      </trkpt>
      <trkpt lat="46.82643" lon="8.41401">
        <ele>1232</ele>
        <time>2021-08-13T09:11:12.218Z</time>
      </trkpt>
      <trkpt lat="46.82643" lon="8.414">
        <ele>1232</ele>
        <time>2021-08-13T09:11:13.219Z</time>
      </trkpt>
      <trkpt lat="46.82643" lon="8.41399">
        <ele>1232</ele>
        <time>2021-08-13T09:11:14.219Z</time>
      </trkpt>
      <trkpt lat="46.82643" lon="8.41398">
        <ele>1231</ele>
        <time>2021-08-13T09:11:15.218Z</time>
      </trkpt>
      <trkpt lat="46.82643" lon="8.41398">
        <ele>1231</ele>
        <time>2021-08-13T09:11:16.219Z</time>
      </trkpt>
      <trkpt lat="46.82643" lon="8.41398">
        <ele>1232</ele>
        <time>2021-08-13T09:11:17.219Z</time>
      </trkpt>
      <trkpt lat="46.82642" lon="8.41397">
        <ele>1232</ele>
        <time>2021-08-13T09:11:18.219Z</time>
      </trkpt>
      <trkpt lat="46.82642" lon="8.41397">
        <ele>1231</ele>
        <time>2021-08-13T09:11:19.219Z</time>
      </trkpt>
      <trkpt lat="46.82642" lon="8.41396">
        <ele>1231</ele>
        <time>2021-08-13T09:11:20.218Z</time>
      </trkpt>
      <trkpt lat="46.82641" lon="8.41395">
        <ele>1231</ele>
        <time>2021-08-13T09:11:21.218Z</time>
      </trkpt>
      <trkpt lat="46.82641" lon="8.41395">
        <ele>1231</ele>
        <time>2021-08-13T09:11:22.219Z</time>
      </trkpt>
      <trkpt lat="46.8264" lon="8.41394">
        <ele>1231</ele>
        <time>2021-08-13T09:11:23.219Z</time>
      </trkpt>
      <trkpt lat="46.82639" lon="8.41393">
        <ele>1231</ele>
        <time>2021-08-13T09:11:24.219Z</time>
      </trkpt>
      <trkpt lat="46.82639" lon="8.4139">
        <ele>1230</ele>
        <time>2021-08-13T09:11:25.219Z</time>
      </trkpt>
      <trkpt lat="46.82639" lon="8.41388">
        <ele>1230</ele>
        <time>2021-08-13T09:11:26.219Z</time>
      </trkpt>
      <trkpt lat="46.82639" lon="8.41386">
        <ele>1230</ele>
        <time>2021-08-13T09:11:27.219Z</time>
      </trkpt>
      <trkpt lat="46.82639" lon="8.41384">
        <ele>1230</ele>
        <time>2021-08-13T09:11:28.218Z</time>
      </trkpt>
      <trkpt lat="46.82638" lon="8.41382">
        <ele>1230</ele>
        <time>2021-08-13T09:11:29.219Z</time>
      </trkpt>
      <trkpt lat="46.82637" lon="8.41378">
        <ele>1229</ele>
        <time>2021-08-13T09:11:30.220Z</time>
      </trkpt>
      <trkpt lat="46.82636" lon="8.41378">
        <ele>1228</ele>
        <time>2021-08-13T09:11:31.220Z</time>
      </trkpt>
      <trkpt lat="46.82636" lon="8.41377">
        <ele>1228</ele>
        <time>2021-08-13T09:11:32.219Z</time>
      </trkpt>
      <trkpt lat="46.82635" lon="8.41377">
        <ele>1229</ele>
        <time>2021-08-13T09:11:33.219Z</time>
      </trkpt>
      <trkpt lat="46.82635" lon="8.41377">
        <ele>1229</ele>
        <time>2021-08-13T09:11:34.219Z</time>
      </trkpt>
      <trkpt lat="46.82634" lon="8.41377">
        <ele>1228</ele>
        <time>2021-08-13T09:11:35.219Z</time>
      </trkpt>
      <trkpt lat="46.82634" lon="8.41378">
        <ele>1228</ele>
        <time>2021-08-13T09:11:36.219Z</time>
      </trkpt>
      <trkpt lat="46.82633" lon="8.41378">
        <ele>1228</ele>
        <time>2021-08-13T09:11:37.219Z</time>
      </trkpt>
      <trkpt lat="46.82632" lon="8.41377">
        <ele>1228</ele>
        <time>2021-08-13T09:11:38.220Z</time>
      </trkpt>
      <trkpt lat="46.82632" lon="8.41376">
        <ele>1228</ele>
        <time>2021-08-13T09:11:39.219Z</time>
      </trkpt>
      <trkpt lat="46.82632" lon="8.41375">
        <ele>1228</ele>
        <time>2021-08-13T09:11:40.220Z</time>
      </trkpt>
      <trkpt lat="46.82632" lon="8.41375">
        <ele>1227</ele>
        <time>2021-08-13T09:11:41.220Z</time>
      </trkpt>
      <trkpt lat="46.82631" lon="8.41373">
        <ele>1227</ele>
        <time>2021-08-13T09:11:42.220Z</time>
      </trkpt>
      <trkpt lat="46.8263" lon="8.41373">
        <ele>1227</ele>
        <time>2021-08-13T09:11:43.219Z</time>
      </trkpt>
      <trkpt lat="46.8263" lon="8.41372">
        <ele>1226</ele>
        <time>2021-08-13T09:11:44.219Z</time>
      </trkpt>
      <trkpt lat="46.82629" lon="8.41372">
        <ele>1226</ele>
        <time>2021-08-13T09:11:45.219Z</time>
      </trkpt>
      <trkpt lat="46.82628" lon="8.41372">
        <ele>1225</ele>
        <time>2021-08-13T09:11:46.219Z</time>
      </trkpt>
      <trkpt lat="46.82627" lon="8.41372">
        <ele>1225</ele>
        <time>2021-08-13T09:11:47.220Z</time>
      </trkpt>
      <trkpt lat="46.82627" lon="8.41372">
        <ele>1224</ele>
        <time>2021-08-13T09:11:48.220Z</time>
      </trkpt>
      <trkpt lat="46.82626" lon="8.41372">
        <ele>1224</ele>
        <time>2021-08-13T09:11:49.219Z</time>
      </trkpt>
      <trkpt lat="46.82626" lon="8.41371">
        <ele>1223</ele>
        <time>2021-08-13T09:11:50.220Z</time>
      </trkpt>
      <trkpt lat="46.82626" lon="8.4137">
        <ele>1223</ele>
        <time>2021-08-13T09:11:51.219Z</time>
      </trkpt>
      <trkpt lat="46.82625" lon="8.4137">
        <ele>1222</ele>
        <time>2021-08-13T09:11:52.220Z</time>
      </trkpt>
      <trkpt lat="46.82624" lon="8.41369">
        <ele>1222</ele>
        <time>2021-08-13T09:11:53.219Z</time>
      </trkpt>
      <trkpt lat="46.82623" lon="8.41369">
        <ele>1222</ele>
        <time>2021-08-13T09:11:54.219Z</time>
      </trkpt>
      <trkpt lat="46.82623" lon="8.41369">
        <ele>1222</ele>
        <time>2021-08-13T09:11:55.220Z</time>
      </trkpt>
      <trkpt lat="46.82622" lon="8.41368">
        <ele>1222</ele>
        <time>2021-08-13T09:11:56.220Z</time>
      </trkpt>
      <trkpt lat="46.82621" lon="8.41367">
        <ele>1222</ele>
        <time>2021-08-13T09:11:57.219Z</time>
      </trkpt>
      <trkpt lat="46.8262" lon="8.41366">
        <ele>1221</ele>
        <time>2021-08-13T09:11:58.220Z</time>
      </trkpt>
      <trkpt lat="46.82619" lon="8.41364">
        <ele>1221</ele>
        <time>2021-08-13T09:11:59.219Z</time>
      </trkpt>
      <trkpt lat="46.82619" lon="8.41364">
        <ele>1222</ele>
        <time>2021-08-13T09:12:00.219Z</time>
      </trkpt>
      <trkpt lat="46.82617" lon="8.41365">
        <ele>1222</ele>
        <time>2021-08-13T09:12:01.219Z</time>
      </trkpt>
      <trkpt lat="46.82616" lon="8.41366">
        <ele>1222</ele>
        <time>2021-08-13T09:12:02.219Z</time>
      </trkpt>
      <trkpt lat="46.82615" lon="8.41367">
        <ele>1222</ele>
        <time>2021-08-13T09:12:03.219Z</time>
      </trkpt>
      <trkpt lat="46.82614" lon="8.41367">
        <ele>1222</ele>
        <time>2021-08-13T09:12:04.219Z</time>
      </trkpt>
      <trkpt lat="46.82613" lon="8.41367">
        <ele>1222</ele>
        <time>2021-08-13T09:12:05.220Z</time>
      </trkpt>
      <trkpt lat="46.82612" lon="8.41367">
        <ele>1222</ele>
        <time>2021-08-13T09:12:06.220Z</time>
      </trkpt>
      <trkpt lat="46.82611" lon="8.41366">
        <ele>1222</ele>
        <time>2021-08-13T09:12:07.220Z</time>
      </trkpt>
      <trkpt lat="46.8261" lon="8.41366">
        <ele>1221</ele>
        <time>2021-08-13T09:12:08.220Z</time>
      </trkpt>
      <trkpt lat="46.82609" lon="8.41364">
        <ele>1221</ele>
        <time>2021-08-13T09:12:09.220Z</time>
      </trkpt>
      <trkpt lat="46.82608" lon="8.41363">
        <ele>1221</ele>
        <time>2021-08-13T09:12:10.220Z</time>
      </trkpt>
      <trkpt lat="46.82608" lon="8.41362">
        <ele>1221</ele>
        <time>2021-08-13T09:12:11.220Z</time>
      </trkpt>
      <trkpt lat="46.82607" lon="8.4136">
        <ele>1220</ele>
        <time>2021-08-13T09:12:12.219Z</time>
      </trkpt>
      <trkpt lat="46.82606" lon="8.41359">
        <ele>1220</ele>
        <time>2021-08-13T09:12:13.219Z</time>
      </trkpt>
      <trkpt lat="46.82606" lon="8.41358">
        <ele>1220</ele>
        <time>2021-08-13T09:12:14.220Z</time>
      </trkpt>
      <trkpt lat="46.82605" lon="8.41358">
        <ele>1220</ele>
        <time>2021-08-13T09:12:15.220Z</time>
      </trkpt>
      <trkpt lat="46.82603" lon="8.41358">
        <ele>1219</ele>
        <time>2021-08-13T09:12:16.219Z</time>
      </trkpt>
      <trkpt lat="46.82601" lon="8.41358">
        <ele>1219</ele>
        <time>2021-08-13T09:12:17.219Z</time>
      </trkpt>
      <trkpt lat="46.82599" lon="8.41358">
        <ele>1219</ele>
        <time>2021-08-13T09:12:18.220Z</time>
      </trkpt>
      <trkpt lat="46.82598" lon="8.41358">
        <ele>1219</ele>
        <time>2021-08-13T09:12:19.220Z</time>
      </trkpt>
      <trkpt lat="46.82597" lon="8.41357">
        <ele>1219</ele>
        <time>2021-08-13T09:12:20.219Z</time>
      </trkpt>
      <trkpt lat="46.82596" lon="8.41356">
        <ele>1219</ele>
        <time>2021-08-13T09:12:21.220Z</time>
      </trkpt>
      <trkpt lat="46.82595" lon="8.41355">
        <ele>1219</ele>
        <time>2021-08-13T09:12:22.220Z</time>
      </trkpt>
      <trkpt lat="46.82594" lon="8.41355">
        <ele>1218</ele>
        <time>2021-08-13T09:12:23.220Z</time>
      </trkpt>
      <trkpt lat="46.82593" lon="8.41354">
        <ele>1218</ele>
        <time>2021-08-13T09:12:24.220Z</time>
      </trkpt>
      <trkpt lat="46.82592" lon="8.41353">
        <ele>1218</ele>
        <time>2021-08-13T09:12:25.220Z</time>
      </trkpt>
      <trkpt lat="46.82591" lon="8.41353">
        <ele>1217</ele>
        <time>2021-08-13T09:12:26.219Z</time>
      </trkpt>
      <trkpt lat="46.8259" lon="8.41352">
        <ele>1217</ele>
        <time>2021-08-13T09:12:27.220Z</time>
      </trkpt>
      <trkpt lat="46.82589" lon="8.41352">
        <ele>1217</ele>
        <time>2021-08-13T09:12:28.220Z</time>
      </trkpt>
      <trkpt lat="46.82588" lon="8.4135">
        <ele>1217</ele>
        <time>2021-08-13T09:12:29.219Z</time>
      </trkpt>
      <trkpt lat="46.82588" lon="8.41349">
        <ele>1216</ele>
        <time>2021-08-13T09:12:30.220Z</time>
      </trkpt>
      <trkpt lat="46.82587" lon="8.41348">
        <ele>1216</ele>
        <time>2021-08-13T09:12:31.220Z</time>
      </trkpt>
      <trkpt lat="46.82586" lon="8.41348">
        <ele>1216</ele>
        <time>2021-08-13T09:12:32.220Z</time>
      </trkpt>
      <trkpt lat="46.82585" lon="8.41349">
        <ele>1215</ele>
        <time>2021-08-13T09:12:33.220Z</time>
      </trkpt>
      <trkpt lat="46.82584" lon="8.41348">
        <ele>1215</ele>
        <time>2021-08-13T09:12:34.219Z</time>
      </trkpt>
      <trkpt lat="46.82582" lon="8.41346">
        <ele>1214</ele>
        <time>2021-08-13T09:12:35.220Z</time>
      </trkpt>
      <trkpt lat="46.82581" lon="8.41346">
        <ele>1214</ele>
        <time>2021-08-13T09:12:36.220Z</time>
      </trkpt>
      <trkpt lat="46.8258" lon="8.41345">
        <ele>1213</ele>
        <time>2021-08-13T09:12:37.220Z</time>
      </trkpt>
      <trkpt lat="46.82579" lon="8.41345">
        <ele>1213</ele>
        <time>2021-08-13T09:12:38.220Z</time>
      </trkpt>
      <trkpt lat="46.82578" lon="8.41345">
        <ele>1213</ele>
        <time>2021-08-13T09:12:39.219Z</time>
      </trkpt>
      <trkpt lat="46.82577" lon="8.41344">
        <ele>1212</ele>
        <time>2021-08-13T09:12:40.219Z</time>
      </trkpt>
      <trkpt lat="46.82576" lon="8.41343">
        <ele>1212</ele>
        <time>2021-08-13T09:12:41.220Z</time>
      </trkpt>
      <trkpt lat="46.82575" lon="8.41342">
        <ele>1211</ele>
        <time>2021-08-13T09:12:42.220Z</time>
      </trkpt>
      <trkpt lat="46.82574" lon="8.41342">
        <ele>1210</ele>
        <time>2021-08-13T09:12:43.220Z</time>
      </trkpt>
      <trkpt lat="46.82574" lon="8.41342">
        <ele>1210</ele>
        <time>2021-08-13T09:12:44.220Z</time>
      </trkpt>
      <trkpt lat="46.82573" lon="8.41341">
        <ele>1209</ele>
        <time>2021-08-13T09:12:45.220Z</time>
      </trkpt>
      <trkpt lat="46.82571" lon="8.41343">
        <ele>1208</ele>
        <time>2021-08-13T09:12:46.219Z</time>
      </trkpt>
      <trkpt lat="46.82569" lon="8.41343">
        <ele>1208</ele>
        <time>2021-08-13T09:12:47.220Z</time>
      </trkpt>
      <trkpt lat="46.82568" lon="8.41342">
        <ele>1208</ele>
        <time>2021-08-13T09:12:48.220Z</time>
      </trkpt>
      <trkpt lat="46.82568" lon="8.41342">
        <ele>1207</ele>
        <time>2021-08-13T09:12:49.220Z</time>
      </trkpt>
      <trkpt lat="46.82568" lon="8.41343">
        <ele>1207</ele>
        <time>2021-08-13T09:12:50.220Z</time>
      </trkpt>
      <trkpt lat="46.82567" lon="8.41343">
        <ele>1207</ele>
        <time>2021-08-13T09:12:51.220Z</time>
      </trkpt>
      <trkpt lat="46.82566" lon="8.41343">
        <ele>1207</ele>
        <time>2021-08-13T09:12:52.219Z</time>
      </trkpt>
      <trkpt lat="46.82565" lon="8.41343">
        <ele>1207</ele>
        <time>2021-08-13T09:12:53.220Z</time>
      </trkpt>
      <trkpt lat="46.82564" lon="8.41343">
        <ele>1207</ele>
        <time>2021-08-13T09:12:54.220Z</time>
      </trkpt>
      <trkpt lat="46.82563" lon="8.41343">
        <ele>1207</ele>
        <time>2021-08-13T09:12:55.220Z</time>
      </trkpt>
      <trkpt lat="46.82562" lon="8.41343">
        <ele>1207</ele>
        <time>2021-08-13T09:12:56.219Z</time>
      </trkpt>
      <trkpt lat="46.82561" lon="8.41342">
        <ele>1206</ele>
        <time>2021-08-13T09:12:57.219Z</time>
      </trkpt>
      <trkpt lat="46.8256" lon="8.41342">
        <ele>1206</ele>
        <time>2021-08-13T09:12:58.220Z</time>
      </trkpt>
      <trkpt lat="46.82559" lon="8.41342">
        <ele>1206</ele>
        <time>2021-08-13T09:12:59.220Z</time>
      </trkpt>
      <trkpt lat="46.82558" lon="8.41341">
        <ele>1206</ele>
        <time>2021-08-13T09:13:00.220Z</time>
      </trkpt>
      <trkpt lat="46.82558" lon="8.41341">
        <ele>1206</ele>
        <time>2021-08-13T09:13:01.220Z</time>
      </trkpt>
      <trkpt lat="46.82557" lon="8.41339">
        <ele>1206</ele>
        <time>2021-08-13T09:13:02.220Z</time>
      </trkpt>
      <trkpt lat="46.82556" lon="8.41338">
        <ele>1205</ele>
        <time>2021-08-13T09:13:03.220Z</time>
      </trkpt>
      <trkpt lat="46.82555" lon="8.41338">
        <ele>1205</ele>
        <time>2021-08-13T09:13:04.220Z</time>
      </trkpt>
      <trkpt lat="46.82554" lon="8.41337">
        <ele>1205</ele>
        <time>2021-08-13T09:13:05.219Z</time>
      </trkpt>
      <trkpt lat="46.82553" lon="8.41337">
        <ele>1205</ele>
        <time>2021-08-13T09:13:06.220Z</time>
      </trkpt>
      <trkpt lat="46.82551" lon="8.41337">
        <ele>1205</ele>
        <time>2021-08-13T09:13:07.219Z</time>
      </trkpt>
      <trkpt lat="46.8255" lon="8.41336">
        <ele>1205</ele>
        <time>2021-08-13T09:13:08.220Z</time>
      </trkpt>
      <trkpt lat="46.8255" lon="8.41335">
        <ele>1204</ele>
        <time>2021-08-13T09:13:09.220Z</time>
      </trkpt>
      <trkpt lat="46.82549" lon="8.41333">
        <ele>1204</ele>
        <time>2021-08-13T09:13:10.220Z</time>
      </trkpt>
      <trkpt lat="46.82548" lon="8.41332">
        <ele>1203</ele>
        <time>2021-08-13T09:13:11.219Z</time>
      </trkpt>
      <trkpt lat="46.82548" lon="8.4133">
        <ele>1202</ele>
        <time>2021-08-13T09:13:12.220Z</time>
      </trkpt>
      <trkpt lat="46.82547" lon="8.41329">
        <ele>1201</ele>
        <time>2021-08-13T09:13:13.219Z</time>
      </trkpt>
      <trkpt lat="46.82547" lon="8.41327">
        <ele>1201</ele>
        <time>2021-08-13T09:13:14.220Z</time>
      </trkpt>
      <trkpt lat="46.82545" lon="8.41327">
        <ele>1200</ele>
        <time>2021-08-13T09:13:15.219Z</time>
      </trkpt>
      <trkpt lat="46.82544" lon="8.41326">
        <ele>1200</ele>
        <time>2021-08-13T09:13:16.219Z</time>
      </trkpt>
      <trkpt lat="46.82543" lon="8.41324">
        <ele>1199</ele>
        <time>2021-08-13T09:13:17.219Z</time>
      </trkpt>
      <trkpt lat="46.82542" lon="8.41323">
        <ele>1198</ele>
        <time>2021-08-13T09:13:18.219Z</time>
      </trkpt>
      <trkpt lat="46.82541" lon="8.41323">
        <ele>1197</ele>
        <time>2021-08-13T09:13:19.220Z</time>
      </trkpt>
      <trkpt lat="46.82541" lon="8.41322">
        <ele>1196</ele>
        <time>2021-08-13T09:13:20.220Z</time>
      </trkpt>
      <trkpt lat="46.82539" lon="8.41321">
        <ele>1195</ele>
        <time>2021-08-13T09:13:21.220Z</time>
      </trkpt>
      <trkpt lat="46.82538" lon="8.41321">
        <ele>1194</ele>
        <time>2021-08-13T09:13:22.220Z</time>
      </trkpt>
      <trkpt lat="46.82537" lon="8.4132">
        <ele>1194</ele>
        <time>2021-08-13T09:13:23.220Z</time>
      </trkpt>
      <trkpt lat="46.82537" lon="8.41319">
        <ele>1194</ele>
        <time>2021-08-13T09:13:24.219Z</time>
      </trkpt>
      <trkpt lat="46.82536" lon="8.41318">
        <ele>1194</ele>
        <time>2021-08-13T09:13:25.220Z</time>
      </trkpt>
      <trkpt lat="46.82535" lon="8.41318">
        <ele>1194</ele>
        <time>2021-08-13T09:13:26.219Z</time>
      </trkpt>
      <trkpt lat="46.82534" lon="8.41317">
        <ele>1193</ele>
        <time>2021-08-13T09:13:27.220Z</time>
      </trkpt>
      <trkpt lat="46.82534" lon="8.41316">
        <ele>1193</ele>
        <time>2021-08-13T09:13:28.220Z</time>
      </trkpt>
      <trkpt lat="46.82534" lon="8.41315">
        <ele>1192</ele>
        <time>2021-08-13T09:13:29.220Z</time>
      </trkpt>
      <trkpt lat="46.82533" lon="8.41314">
        <ele>1192</ele>
        <time>2021-08-13T09:13:30.220Z</time>
      </trkpt>
      <trkpt lat="46.82533" lon="8.41311">
        <ele>1191</ele>
        <time>2021-08-13T09:13:31.220Z</time>
      </trkpt>
      <trkpt lat="46.82533" lon="8.41309">
        <ele>1191</ele>
        <time>2021-08-13T09:13:32.219Z</time>
      </trkpt>
      <trkpt lat="46.82532" lon="8.41306">
        <ele>1190</ele>
        <time>2021-08-13T09:13:33.220Z</time>
      </trkpt>
      <trkpt lat="46.82532" lon="8.41305">
        <ele>1189</ele>
        <time>2021-08-13T09:13:34.220Z</time>
      </trkpt>
      <trkpt lat="46.82531" lon="8.41304">
        <ele>1189</ele>
        <time>2021-08-13T09:13:35.220Z</time>
      </trkpt>
      <trkpt lat="46.8253" lon="8.41303">
        <ele>1189</ele>
        <time>2021-08-13T09:13:36.219Z</time>
      </trkpt>
      <trkpt lat="46.82529" lon="8.41302">
        <ele>1190</ele>
        <time>2021-08-13T09:13:37.220Z</time>
      </trkpt>
      <trkpt lat="46.82528" lon="8.41301">
        <ele>1190</ele>
        <time>2021-08-13T09:13:38.220Z</time>
      </trkpt>
      <trkpt lat="46.82526" lon="8.41298">
        <ele>1191</ele>
        <time>2021-08-13T09:13:39.219Z</time>
      </trkpt>
      <trkpt lat="46.82525" lon="8.41295">
        <ele>1191</ele>
        <time>2021-08-13T09:13:40.220Z</time>
      </trkpt>
      <trkpt lat="46.82524" lon="8.41294">
        <ele>1191</ele>
        <time>2021-08-13T09:13:41.220Z</time>
      </trkpt>
      <trkpt lat="46.82523" lon="8.41292">
        <ele>1192</ele>
        <time>2021-08-13T09:13:42.219Z</time>
      </trkpt>
      <trkpt lat="46.82522" lon="8.41291">
        <ele>1192</ele>
        <time>2021-08-13T09:13:43.220Z</time>
      </trkpt>
      <trkpt lat="46.82521" lon="8.4129">
        <ele>1192</ele>
        <time>2021-08-13T09:13:44.219Z</time>
      </trkpt>
      <trkpt lat="46.82521" lon="8.41288">
        <ele>1192</ele>
        <time>2021-08-13T09:13:45.219Z</time>
      </trkpt>
      <trkpt lat="46.8252" lon="8.41286">
        <ele>1193</ele>
        <time>2021-08-13T09:13:46.220Z</time>
      </trkpt>
      <trkpt lat="46.8252" lon="8.41284">
        <ele>1193</ele>
        <time>2021-08-13T09:13:47.220Z</time>
      </trkpt>
      <trkpt lat="46.82519" lon="8.41283">
        <ele>1193</ele>
        <time>2021-08-13T09:13:48.220Z</time>
      </trkpt>
      <trkpt lat="46.82518" lon="8.41281">
        <ele>1194</ele>
        <time>2021-08-13T09:13:49.219Z</time>
      </trkpt>
      <trkpt lat="46.82518" lon="8.4128">
        <ele>1194</ele>
        <time>2021-08-13T09:13:50.219Z</time>
      </trkpt>
      <trkpt lat="46.82517" lon="8.41279">
        <ele>1194</ele>
        <time>2021-08-13T09:13:51.220Z</time>
      </trkpt>
      <trkpt lat="46.82517" lon="8.41278">
        <ele>1194</ele>
        <time>2021-08-13T09:13:52.219Z</time>
      </trkpt>
      <trkpt lat="46.82517" lon="8.41277">
        <ele>1195</ele>
        <time>2021-08-13T09:13:53.220Z</time>
      </trkpt>
      <trkpt lat="46.82516" lon="8.41275">
        <ele>1195</ele>
        <time>2021-08-13T09:13:54.220Z</time>
      </trkpt>
      <trkpt lat="46.82516" lon="8.41273">
        <ele>1196</ele>
        <time>2021-08-13T09:13:55.220Z</time>
      </trkpt>
      <trkpt lat="46.82516" lon="8.41272">
        <ele>1196</ele>
        <time>2021-08-13T09:13:56.220Z</time>
      </trkpt>
      <trkpt lat="46.82515" lon="8.41269">
        <ele>1197</ele>
        <time>2021-08-13T09:13:57.220Z</time>
      </trkpt>
      <trkpt lat="46.82515" lon="8.41267">
        <ele>1197</ele>
        <time>2021-08-13T09:13:58.220Z</time>
      </trkpt>
      <trkpt lat="46.82514" lon="8.41264">
        <ele>1197</ele>
        <time>2021-08-13T09:13:59.220Z</time>
      </trkpt>
      <trkpt lat="46.82512" lon="8.41261">
        <ele>1197</ele>
        <time>2021-08-13T09:14:00.220Z</time>
      </trkpt>
      <trkpt lat="46.8251" lon="8.41259">
        <ele>1197</ele>
        <time>2021-08-13T09:14:01.220Z</time>
      </trkpt>
      <trkpt lat="46.82508" lon="8.41257">
        <ele>1197</ele>
        <time>2021-08-13T09:14:02.220Z</time>
      </trkpt>
      <trkpt lat="46.82508" lon="8.41256">
        <ele>1197</ele>
        <time>2021-08-13T09:14:03.220Z</time>
      </trkpt>
      <trkpt lat="46.82507" lon="8.41255">
        <ele>1197</ele>
        <time>2021-08-13T09:14:04.220Z</time>
      </trkpt>
      <trkpt lat="46.82505" lon="8.41254">
        <ele>1197</ele>
        <time>2021-08-13T09:14:05.220Z</time>
      </trkpt>
      <trkpt lat="46.82504" lon="8.41253">
        <ele>1196</ele>
        <time>2021-08-13T09:14:06.220Z</time>
      </trkpt>
      <trkpt lat="46.82502" lon="8.41253">
        <ele>1196</ele>
        <time>2021-08-13T09:14:07.219Z</time>
      </trkpt>
      <trkpt lat="46.82501" lon="8.41252">
        <ele>1195</ele>
        <time>2021-08-13T09:14:08.219Z</time>
      </trkpt>
      <trkpt lat="46.825" lon="8.4125">
        <ele>1195</ele>
        <time>2021-08-13T09:14:09.219Z</time>
      </trkpt>
      <trkpt lat="46.825" lon="8.4125">
        <ele>1195</ele>
        <time>2021-08-13T09:14:10.220Z</time>
      </trkpt>
      <trkpt lat="46.82499" lon="8.4125">
        <ele>1195</ele>
        <time>2021-08-13T09:14:11.219Z</time>
      </trkpt>
      <trkpt lat="46.82499" lon="8.4125">
        <ele>1194</ele>
        <time>2021-08-13T09:14:12.220Z</time>
      </trkpt>
      <trkpt lat="46.82499" lon="8.41249">
        <ele>1194</ele>
        <time>2021-08-13T09:14:13.220Z</time>
      </trkpt>
      <trkpt lat="46.825" lon="8.41249">
        <ele>1193</ele>
        <time>2021-08-13T09:14:14.220Z</time>
      </trkpt>
      <trkpt lat="46.825" lon="8.41248">
        <ele>1193</ele>
        <time>2021-08-13T09:14:15.220Z</time>
      </trkpt>
      <trkpt lat="46.82499" lon="8.41248">
        <ele>1192</ele>
        <time>2021-08-13T09:14:16.219Z</time>
      </trkpt>
      <trkpt lat="46.82498" lon="8.41247">
        <ele>1192</ele>
        <time>2021-08-13T09:14:17.220Z</time>
      </trkpt>
      <trkpt lat="46.82498" lon="8.41247">
        <ele>1191</ele>
        <time>2021-08-13T09:14:18.220Z</time>
      </trkpt>
      <trkpt lat="46.82497" lon="8.41245">
        <ele>1190</ele>
        <time>2021-08-13T09:14:19.220Z</time>
      </trkpt>
      <trkpt lat="46.82497" lon="8.41244">
        <ele>1190</ele>
        <time>2021-08-13T09:14:20.219Z</time>
      </trkpt>
      <trkpt lat="46.82496" lon="8.41243">
        <ele>1189</ele>
        <time>2021-08-13T09:14:21.220Z</time>
      </trkpt>
      <trkpt lat="46.82497" lon="8.41242">
        <ele>1188</ele>
        <time>2021-08-13T09:14:22.220Z</time>
      </trkpt>
      <trkpt lat="46.82497" lon="8.41241">
        <ele>1187</ele>
        <time>2021-08-13T09:14:23.219Z</time>
      </trkpt>
      <trkpt lat="46.82497" lon="8.4124">
        <ele>1186</ele>
        <time>2021-08-13T09:14:24.219Z</time>
      </trkpt>
      <trkpt lat="46.82497" lon="8.41239">
        <ele>1185</ele>
        <time>2021-08-13T09:14:25.219Z</time>
      </trkpt>
      <trkpt lat="46.82497" lon="8.41239">
        <ele>1185</ele>
        <time>2021-08-13T09:14:26.219Z</time>
      </trkpt>
      <trkpt lat="46.82497" lon="8.41238">
        <ele>1184</ele>
        <time>2021-08-13T09:14:27.219Z</time>
      </trkpt>
      <trkpt lat="46.82497" lon="8.41238">
        <ele>1184</ele>
        <time>2021-08-13T09:14:28.220Z</time>
      </trkpt>
      <trkpt lat="46.82497" lon="8.41237">
        <ele>1184</ele>
        <time>2021-08-13T09:14:29.219Z</time>
      </trkpt>
      <trkpt lat="46.82497" lon="8.41236">
        <ele>1184</ele>
        <time>2021-08-13T09:14:30.219Z</time>
      </trkpt>
      <trkpt lat="46.82497" lon="8.41236">
        <ele>1183</ele>
        <time>2021-08-13T09:14:31.219Z</time>
      </trkpt>
      <trkpt lat="46.82497" lon="8.41236">
        <ele>1183</ele>
        <time>2021-08-13T09:14:32.219Z</time>
      </trkpt>
      <trkpt lat="46.82496" lon="8.41236">
        <ele>1183</ele>
        <time>2021-08-13T09:14:33.220Z</time>
      </trkpt>
      <trkpt lat="46.82496" lon="8.41237">
        <ele>1183</ele>
        <time>2021-08-13T09:14:34.219Z</time>
      </trkpt>
      <trkpt lat="46.82496" lon="8.41238">
        <ele>1184</ele>
        <time>2021-08-13T09:14:35.219Z</time>
      </trkpt>
      <trkpt lat="46.82496" lon="8.41238">
        <ele>1184</ele>
        <time>2021-08-13T09:14:36.219Z</time>
      </trkpt>
      <trkpt lat="46.82496" lon="8.41238">
        <ele>1184</ele>
        <time>2021-08-13T09:14:37.219Z</time>
      </trkpt>
      <trkpt lat="46.82496" lon="8.41237">
        <ele>1185</ele>
        <time>2021-08-13T09:14:38.219Z</time>
      </trkpt>
      <trkpt lat="46.82496" lon="8.41236">
        <ele>1185</ele>
        <time>2021-08-13T09:14:39.219Z</time>
      </trkpt>
      <trkpt lat="46.82496" lon="8.41235">
        <ele>1185</ele>
        <time>2021-08-13T09:14:40.219Z</time>
      </trkpt>
      <trkpt lat="46.82497" lon="8.41233">
        <ele>1185</ele>
        <time>2021-08-13T09:14:41.219Z</time>
      </trkpt>
      <trkpt lat="46.82497" lon="8.41232">
        <ele>1185</ele>
        <time>2021-08-13T09:14:42.219Z</time>
      </trkpt>
      <trkpt lat="46.82497" lon="8.41231">
        <ele>1185</ele>
        <time>2021-08-13T09:14:43.219Z</time>
      </trkpt>
      <trkpt lat="46.82497" lon="8.4123">
        <ele>1185</ele>
        <time>2021-08-13T09:14:44.219Z</time>
      </trkpt>
      <trkpt lat="46.82496" lon="8.41229">
        <ele>1185</ele>
        <time>2021-08-13T09:14:45.220Z</time>
      </trkpt>
      <trkpt lat="46.82496" lon="8.41228">
        <ele>1184</ele>
        <time>2021-08-13T09:14:46.219Z</time>
      </trkpt>
      <trkpt lat="46.82495" lon="8.41227">
        <ele>1184</ele>
        <time>2021-08-13T09:14:47.219Z</time>
      </trkpt>
      <trkpt lat="46.82495" lon="8.41227">
        <ele>1183</ele>
        <time>2021-08-13T09:14:48.219Z</time>
      </trkpt>
      <trkpt lat="46.82495" lon="8.41226">
        <ele>1182</ele>
        <time>2021-08-13T09:14:49.219Z</time>
      </trkpt>
      <trkpt lat="46.82494" lon="8.41225">
        <ele>1181</ele>
        <time>2021-08-13T09:14:50.219Z</time>
      </trkpt>
      <trkpt lat="46.82494" lon="8.41223">
        <ele>1180</ele>
        <time>2021-08-13T09:14:51.219Z</time>
      </trkpt>
      <trkpt lat="46.82493" lon="8.41221">
        <ele>1179</ele>
        <time>2021-08-13T09:14:52.219Z</time>
      </trkpt>
      <trkpt lat="46.82493" lon="8.4122">
        <ele>1178</ele>
        <time>2021-08-13T09:14:53.219Z</time>
      </trkpt>
      <trkpt lat="46.82493" lon="8.41218">
        <ele>1177</ele>
        <time>2021-08-13T09:14:54.219Z</time>
      </trkpt>
      <trkpt lat="46.82492" lon="8.41217">
        <ele>1177</ele>
        <time>2021-08-13T09:14:55.219Z</time>
      </trkpt>
      <trkpt lat="46.82492" lon="8.41216">
        <ele>1176</ele>
        <time>2021-08-13T09:14:56.219Z</time>
      </trkpt>
      <trkpt lat="46.82492" lon="8.41216">
        <ele>1175</ele>
        <time>2021-08-13T09:14:57.219Z</time>
      </trkpt>
      <trkpt lat="46.82491" lon="8.41215">
        <ele>1175</ele>
        <time>2021-08-13T09:14:58.219Z</time>
      </trkpt>
      <trkpt lat="46.82492" lon="8.41215">
        <ele>1175</ele>
        <time>2021-08-13T09:14:59.220Z</time>
      </trkpt>
      <trkpt lat="46.82492" lon="8.41214">
        <ele>1175</ele>
        <time>2021-08-13T09:15:00.220Z</time>
      </trkpt>
      <trkpt lat="46.82492" lon="8.41213">
        <ele>1175</ele>
        <time>2021-08-13T09:15:01.220Z</time>
      </trkpt>
      <trkpt lat="46.82493" lon="8.41212">
        <ele>1174</ele>
        <time>2021-08-13T09:15:02.220Z</time>
      </trkpt>
      <trkpt lat="46.82493" lon="8.41211">
        <ele>1174</ele>
        <time>2021-08-13T09:15:03.219Z</time>
      </trkpt>
      <trkpt lat="46.82493" lon="8.41209">
        <ele>1174</ele>
        <time>2021-08-13T09:15:04.220Z</time>
      </trkpt>
      <trkpt lat="46.82492" lon="8.41208">
        <ele>1173</ele>
        <time>2021-08-13T09:15:05.220Z</time>
      </trkpt>
      <trkpt lat="46.82491" lon="8.41207">
        <ele>1173</ele>
        <time>2021-08-13T09:15:06.220Z</time>
      </trkpt>
      <trkpt lat="46.82491" lon="8.41206">
        <ele>1173</ele>
        <time>2021-08-13T09:15:07.220Z</time>
      </trkpt>
      <trkpt lat="46.82491" lon="8.41205">
        <ele>1173</ele>
        <time>2021-08-13T09:15:08.220Z</time>
      </trkpt>
      <trkpt lat="46.82491" lon="8.41204">
        <ele>1173</ele>
        <time>2021-08-13T09:15:09.220Z</time>
      </trkpt>
      <trkpt lat="46.82491" lon="8.41202">
        <ele>1173</ele>
        <time>2021-08-13T09:15:10.219Z</time>
      </trkpt>
      <trkpt lat="46.8249" lon="8.41201">
        <ele>1173</ele>
        <time>2021-08-13T09:15:11.220Z</time>
      </trkpt>
      <trkpt lat="46.8249" lon="8.412">
        <ele>1173</ele>
        <time>2021-08-13T09:15:12.220Z</time>
      </trkpt>
      <trkpt lat="46.8249" lon="8.41198">
        <ele>1173</ele>
        <time>2021-08-13T09:15:13.220Z</time>
      </trkpt>
      <trkpt lat="46.82491" lon="8.41197">
        <ele>1173</ele>
        <time>2021-08-13T09:15:14.220Z</time>
      </trkpt>
      <trkpt lat="46.8249" lon="8.41196">
        <ele>1172</ele>
        <time>2021-08-13T09:15:15.219Z</time>
      </trkpt>
      <trkpt lat="46.8249" lon="8.41194">
        <ele>1172</ele>
        <time>2021-08-13T09:15:16.220Z</time>
      </trkpt>
      <trkpt lat="46.8249" lon="8.41194">
        <ele>1172</ele>
        <time>2021-08-13T09:15:17.220Z</time>
      </trkpt>
      <trkpt lat="46.82489" lon="8.41193">
        <ele>1172</ele>
        <time>2021-08-13T09:15:18.219Z</time>
      </trkpt>
      <trkpt lat="46.82487" lon="8.41193">
        <ele>1172</ele>
        <time>2021-08-13T09:15:19.219Z</time>
      </trkpt>
      <trkpt lat="46.82486" lon="8.41194">
        <ele>1172</ele>
        <time>2021-08-13T09:15:20.220Z</time>
      </trkpt>
      <trkpt lat="46.82484" lon="8.41195">
        <ele>1172</ele>
        <time>2021-08-13T09:15:21.220Z</time>
      </trkpt>
      <trkpt lat="46.82483" lon="8.41196">
        <ele>1172</ele>
        <time>2021-08-13T09:15:22.220Z</time>
      </trkpt>
      <trkpt lat="46.82483" lon="8.41196">
        <ele>1172</ele>
        <time>2021-08-13T09:15:23.219Z</time>
      </trkpt>
      <trkpt lat="46.82483" lon="8.41197">
        <ele>1172</ele>
        <time>2021-08-13T09:15:24.219Z</time>
      </trkpt>
      <trkpt lat="46.82482" lon="8.41197">
        <ele>1172</ele>
        <time>2021-08-13T09:15:25.220Z</time>
      </trkpt>
      <trkpt lat="46.82482" lon="8.41197">
        <ele>1172</ele>
        <time>2021-08-13T09:15:26.220Z</time>
      </trkpt>
      <trkpt lat="46.82483" lon="8.41192">
        <ele>1169</ele>
        <time>2021-08-13T09:15:27.220Z</time>
      </trkpt>
      <trkpt lat="46.82483" lon="8.41191">
        <ele>1169</ele>
        <time>2021-08-13T09:15:28.219Z</time>
      </trkpt>
      <trkpt lat="46.82483" lon="8.4119">
        <ele>1170</ele>
        <time>2021-08-13T09:15:29.219Z</time>
      </trkpt>
      <trkpt lat="46.82483" lon="8.4119">
        <ele>1170</ele>
        <time>2021-08-13T09:15:30.220Z</time>
      </trkpt>
      <trkpt lat="46.82483" lon="8.4119">
        <ele>1170</ele>
        <time>2021-08-13T09:15:31.219Z</time>
      </trkpt>
      <trkpt lat="46.82482" lon="8.41189">
        <ele>1170</ele>
        <time>2021-08-13T09:15:32.220Z</time>
      </trkpt>
      <trkpt lat="46.82482" lon="8.41188">
        <ele>1170</ele>
        <time>2021-08-13T09:15:33.220Z</time>
      </trkpt>
      <trkpt lat="46.82482" lon="8.41186">
        <ele>1170</ele>
        <time>2021-08-13T09:15:34.219Z</time>
      </trkpt>
      <trkpt lat="46.82482" lon="8.41186">
        <ele>1170</ele>
        <time>2021-08-13T09:15:35.219Z</time>
      </trkpt>
      <trkpt lat="46.82479" lon="8.41185">
        <ele>1169</ele>
        <time>2021-08-13T09:15:36.220Z</time>
      </trkpt>
      <trkpt lat="46.82479" lon="8.41185">
        <ele>1170</ele>
        <time>2021-08-13T09:15:37.220Z</time>
      </trkpt>
      <trkpt lat="46.82479" lon="8.41186">
        <ele>1170</ele>
        <time>2021-08-13T09:15:38.221Z</time>
      </trkpt>
      <trkpt lat="46.82478" lon="8.41186">
        <ele>1170</ele>
        <time>2021-08-13T09:15:39.221Z</time>
      </trkpt>
      <trkpt lat="46.82476" lon="8.41187">
        <ele>1170</ele>
        <time>2021-08-13T09:15:40.221Z</time>
      </trkpt>
      <trkpt lat="46.82475" lon="8.41187">
        <ele>1170</ele>
        <time>2021-08-13T09:15:41.221Z</time>
      </trkpt>
      <trkpt lat="46.82474" lon="8.41187">
        <ele>1170</ele>
        <time>2021-08-13T09:15:42.221Z</time>
      </trkpt>
      <trkpt lat="46.82474" lon="8.41186">
        <ele>1170</ele>
        <time>2021-08-13T09:15:43.221Z</time>
      </trkpt>
      <trkpt lat="46.82473" lon="8.41187">
        <ele>1169</ele>
        <time>2021-08-13T09:15:44.221Z</time>
      </trkpt>
      <trkpt lat="46.82472" lon="8.41186">
        <ele>1169</ele>
        <time>2021-08-13T09:15:45.221Z</time>
      </trkpt>
      <trkpt lat="46.82471" lon="8.41187">
        <ele>1168</ele>
        <time>2021-08-13T09:15:46.220Z</time>
      </trkpt>
      <trkpt lat="46.8247" lon="8.41188">
        <ele>1168</ele>
        <time>2021-08-13T09:15:47.221Z</time>
      </trkpt>
      <trkpt lat="46.82469" lon="8.41189">
        <ele>1167</ele>
        <time>2021-08-13T09:15:48.221Z</time>
      </trkpt>
      <trkpt lat="46.82469" lon="8.4119">
        <ele>1166</ele>
        <time>2021-08-13T09:15:49.221Z</time>
      </trkpt>
      <trkpt lat="46.82468" lon="8.41192">
        <ele>1166</ele>
        <time>2021-08-13T09:15:50.221Z</time>
      </trkpt>
      <trkpt lat="46.82468" lon="8.41193">
        <ele>1165</ele>
        <time>2021-08-13T09:15:51.221Z</time>
      </trkpt>
      <trkpt lat="46.82468" lon="8.41193">
        <ele>1165</ele>
        <time>2021-08-13T09:15:52.221Z</time>
      </trkpt>
      <trkpt lat="46.82469" lon="8.41194">
        <ele>1165</ele>
        <time>2021-08-13T09:15:53.220Z</time>
      </trkpt>
      <trkpt lat="46.82469" lon="8.41195">
        <ele>1164</ele>
        <time>2021-08-13T09:15:54.221Z</time>
      </trkpt>
      <trkpt lat="46.8247" lon="8.41196">
        <ele>1164</ele>
        <time>2021-08-13T09:15:55.220Z</time>
      </trkpt>
      <trkpt lat="46.8247" lon="8.41197">
        <ele>1164</ele>
        <time>2021-08-13T09:15:56.220Z</time>
      </trkpt>
      <trkpt lat="46.8247" lon="8.41198">
        <ele>1163</ele>
        <time>2021-08-13T09:15:57.220Z</time>
      </trkpt>
      <trkpt lat="46.8247" lon="8.41199">
        <ele>1163</ele>
        <time>2021-08-13T09:15:58.220Z</time>
      </trkpt>
      <trkpt lat="46.8247" lon="8.412">
        <ele>1163</ele>
        <time>2021-08-13T09:15:59.220Z</time>
      </trkpt>
      <trkpt lat="46.8247" lon="8.412">
        <ele>1162</ele>
        <time>2021-08-13T09:16:00.220Z</time>
      </trkpt>
      <trkpt lat="46.82469" lon="8.41201">
        <ele>1162</ele>
        <time>2021-08-13T09:16:01.221Z</time>
      </trkpt>
      <trkpt lat="46.82465" lon="8.41203">
        <ele>1159</ele>
        <time>2021-08-13T09:16:02.221Z</time>
      </trkpt>
      <trkpt lat="46.82464" lon="8.41205">
        <ele>1159</ele>
        <time>2021-08-13T09:16:03.221Z</time>
      </trkpt>
      <trkpt lat="46.82464" lon="8.41206">
        <ele>1159</ele>
        <time>2021-08-13T09:16:04.220Z</time>
      </trkpt>
      <trkpt lat="46.82463" lon="8.41206">
        <ele>1158</ele>
        <time>2021-08-13T09:16:05.220Z</time>
      </trkpt>
      <trkpt lat="46.82463" lon="8.41206">
        <ele>1158</ele>
        <time>2021-08-13T09:16:06.221Z</time>
      </trkpt>
      <trkpt lat="46.82463" lon="8.41206">
        <ele>1158</ele>
        <time>2021-08-13T09:16:07.220Z</time>
      </trkpt>
      <trkpt lat="46.82462" lon="8.41207">
        <ele>1157</ele>
        <time>2021-08-13T09:16:08.221Z</time>
      </trkpt>
      <trkpt lat="46.82462" lon="8.41207">
        <ele>1157</ele>
        <time>2021-08-13T09:16:09.222Z</time>
      </trkpt>
      <trkpt lat="46.82462" lon="8.41208">
        <ele>1158</ele>
        <time>2021-08-13T09:16:10.221Z</time>
      </trkpt>
      <trkpt lat="46.82462" lon="8.41208">
        <ele>1158</ele>
        <time>2021-08-13T09:16:11.221Z</time>
      </trkpt>
      <trkpt lat="46.82459" lon="8.4121">
        <ele>1157</ele>
        <time>2021-08-13T09:16:12.222Z</time>
      </trkpt>
      <trkpt lat="46.82459" lon="8.41211">
        <ele>1157</ele>
        <time>2021-08-13T09:16:13.222Z</time>
      </trkpt>
      <trkpt lat="46.82459" lon="8.41212">
        <ele>1157</ele>
        <time>2021-08-13T09:16:14.222Z</time>
      </trkpt>
      <trkpt lat="46.82459" lon="8.41213">
        <ele>1157</ele>
        <time>2021-08-13T09:16:15.222Z</time>
      </trkpt>
      <trkpt lat="46.82459" lon="8.41214">
        <ele>1157</ele>
        <time>2021-08-13T09:16:16.222Z</time>
      </trkpt>
      <trkpt lat="46.82459" lon="8.41215">
        <ele>1156</ele>
        <time>2021-08-13T09:16:17.222Z</time>
      </trkpt>
      <trkpt lat="46.82459" lon="8.41215">
        <ele>1156</ele>
        <time>2021-08-13T09:16:18.222Z</time>
      </trkpt>
      <trkpt lat="46.8246" lon="8.41214">
        <ele>1153</ele>
        <time>2021-08-13T09:16:19.223Z</time>
      </trkpt>
      <trkpt lat="46.8246" lon="8.41215">
        <ele>1153</ele>
        <time>2021-08-13T09:16:20.223Z</time>
      </trkpt>
      <trkpt lat="46.82459" lon="8.41216">
        <ele>1153</ele>
        <time>2021-08-13T09:16:21.223Z</time>
      </trkpt>
      <trkpt lat="46.82459" lon="8.41217">
        <ele>1153</ele>
        <time>2021-08-13T09:16:22.223Z</time>
      </trkpt>
      <trkpt lat="46.82459" lon="8.41217">
        <ele>1152</ele>
        <time>2021-08-13T09:16:23.223Z</time>
      </trkpt>
      <trkpt lat="46.82458" lon="8.41217">
        <ele>1152</ele>
        <time>2021-08-13T09:16:24.223Z</time>
      </trkpt>
      <trkpt lat="46.82458" lon="8.41217">
        <ele>1152</ele>
        <time>2021-08-13T09:16:25.223Z</time>
      </trkpt>
      <trkpt lat="46.82457" lon="8.41218">
        <ele>1152</ele>
        <time>2021-08-13T09:16:26.222Z</time>
      </trkpt>
      <trkpt lat="46.82457" lon="8.41219">
        <ele>1151</ele>
        <time>2021-08-13T09:16:27.222Z</time>
      </trkpt>
      <trkpt lat="46.82457" lon="8.4122">
        <ele>1151</ele>
        <time>2021-08-13T09:16:28.223Z</time>
      </trkpt>
      <trkpt lat="46.82456" lon="8.41221">
        <ele>1151</ele>
        <time>2021-08-13T09:16:29.223Z</time>
      </trkpt>
      <trkpt lat="46.82456" lon="8.41222">
        <ele>1151</ele>
        <time>2021-08-13T09:16:30.222Z</time>
      </trkpt>
      <trkpt lat="46.82456" lon="8.41222">
        <ele>1151</ele>
        <time>2021-08-13T09:16:31.222Z</time>
      </trkpt>
      <trkpt lat="46.82453" lon="8.4123">
        <ele>1152</ele>
        <time>2021-08-13T09:16:32.223Z</time>
      </trkpt>
      <trkpt lat="46.82453" lon="8.41232">
        <ele>1152</ele>
        <time>2021-08-13T09:16:33.222Z</time>
      </trkpt>
      <trkpt lat="46.82453" lon="8.41234">
        <ele>1152</ele>
        <time>2021-08-13T09:16:34.222Z</time>
      </trkpt>
      <trkpt lat="46.82453" lon="8.41237">
        <ele>1152</ele>
        <time>2021-08-13T09:16:35.222Z</time>
      </trkpt>
      <trkpt lat="46.82452" lon="8.41239">
        <ele>1153</ele>
        <time>2021-08-13T09:16:36.223Z</time>
      </trkpt>
      <trkpt lat="46.82452" lon="8.41241">
        <ele>1152</ele>
        <time>2021-08-13T09:16:37.223Z</time>
      </trkpt>
      <trkpt lat="46.82452" lon="8.41241">
        <ele>1152</ele>
        <time>2021-08-13T09:16:38.223Z</time>
      </trkpt>
      <trkpt lat="46.82451" lon="8.41242">
        <ele>1151</ele>
        <time>2021-08-13T09:16:39.223Z</time>
      </trkpt>
      <trkpt lat="46.8245" lon="8.41242">
        <ele>1150</ele>
        <time>2021-08-13T09:16:40.222Z</time>
      </trkpt>
      <trkpt lat="46.8245" lon="8.41242">
        <ele>1150</ele>
        <time>2021-08-13T09:16:41.222Z</time>
      </trkpt>
      <trkpt lat="46.82449" lon="8.41242">
        <ele>1149</ele>
        <time>2021-08-13T09:16:42.223Z</time>
      </trkpt>
      <trkpt lat="46.82448" lon="8.41243">
        <ele>1148</ele>
        <time>2021-08-13T09:16:43.223Z</time>
      </trkpt>
      <trkpt lat="46.82448" lon="8.41243">
        <ele>1148</ele>
        <time>2021-08-13T09:16:44.223Z</time>
      </trkpt>
      <trkpt lat="46.82448" lon="8.41244">
        <ele>1148</ele>
        <time>2021-08-13T09:16:45.223Z</time>
      </trkpt>
      <trkpt lat="46.82448" lon="8.41245">
        <ele>1147</ele>
        <time>2021-08-13T09:16:46.222Z</time>
      </trkpt>
      <trkpt lat="46.82448" lon="8.41246">
        <ele>1147</ele>
        <time>2021-08-13T09:16:47.222Z</time>
      </trkpt>
      <trkpt lat="46.82447" lon="8.41248">
        <ele>1147</ele>
        <time>2021-08-13T09:16:48.223Z</time>
      </trkpt>
      <trkpt lat="46.82447" lon="8.41249">
        <ele>1147</ele>
        <time>2021-08-13T09:16:49.222Z</time>
      </trkpt>
      <trkpt lat="46.82446" lon="8.4125">
        <ele>1147</ele>
        <time>2021-08-13T09:16:50.223Z</time>
      </trkpt>
      <trkpt lat="46.82446" lon="8.41251">
        <ele>1147</ele>
        <time>2021-08-13T09:16:51.223Z</time>
      </trkpt>
      <trkpt lat="46.82445" lon="8.41252">
        <ele>1147</ele>
        <time>2021-08-13T09:16:52.223Z</time>
      </trkpt>
      <trkpt lat="46.82445" lon="8.41253">
        <ele>1146</ele>
        <time>2021-08-13T09:16:53.222Z</time>
      </trkpt>
      <trkpt lat="46.82445" lon="8.41255">
        <ele>1145</ele>
        <time>2021-08-13T09:16:54.224Z</time>
      </trkpt>
      <trkpt lat="46.82445" lon="8.41256">
        <ele>1145</ele>
        <time>2021-08-13T09:16:55.224Z</time>
      </trkpt>
      <trkpt lat="46.82445" lon="8.41257">
        <ele>1144</ele>
        <time>2021-08-13T09:16:56.223Z</time>
      </trkpt>
      <trkpt lat="46.82444" lon="8.41259">
        <ele>1144</ele>
        <time>2021-08-13T09:16:57.224Z</time>
      </trkpt>
      <trkpt lat="46.82444" lon="8.4126">
        <ele>1143</ele>
        <time>2021-08-13T09:16:58.224Z</time>
      </trkpt>
      <trkpt lat="46.82444" lon="8.41262">
        <ele>1143</ele>
        <time>2021-08-13T09:16:59.224Z</time>
      </trkpt>
      <trkpt lat="46.82443" lon="8.41264">
        <ele>1143</ele>
        <time>2021-08-13T09:17:00.223Z</time>
      </trkpt>
      <trkpt lat="46.82443" lon="8.41265">
        <ele>1143</ele>
        <time>2021-08-13T09:17:01.224Z</time>
      </trkpt>
      <trkpt lat="46.82443" lon="8.41267">
        <ele>1142</ele>
        <time>2021-08-13T09:17:02.223Z</time>
      </trkpt>
      <trkpt lat="46.82443" lon="8.41268">
        <ele>1141</ele>
        <time>2021-08-13T09:17:03.224Z</time>
      </trkpt>
      <trkpt lat="46.82443" lon="8.4127">
        <ele>1141</ele>
        <time>2021-08-13T09:17:04.224Z</time>
      </trkpt>
      <trkpt lat="46.82443" lon="8.41272">
        <ele>1140</ele>
        <time>2021-08-13T09:17:05.224Z</time>
      </trkpt>
      <trkpt lat="46.82443" lon="8.41274">
        <ele>1140</ele>
        <time>2021-08-13T09:17:06.223Z</time>
      </trkpt>
      <trkpt lat="46.82444" lon="8.41276">
        <ele>1139</ele>
        <time>2021-08-13T09:17:07.223Z</time>
      </trkpt>
      <trkpt lat="46.82443" lon="8.41278">
        <ele>1139</ele>
        <time>2021-08-13T09:17:08.224Z</time>
      </trkpt>
      <trkpt lat="46.82443" lon="8.41279">
        <ele>1139</ele>
        <time>2021-08-13T09:17:09.224Z</time>
      </trkpt>
      <trkpt lat="46.82443" lon="8.41281">
        <ele>1138</ele>
        <time>2021-08-13T09:17:10.223Z</time>
      </trkpt>
      <trkpt lat="46.82443" lon="8.41284">
        <ele>1138</ele>
        <time>2021-08-13T09:17:11.224Z</time>
      </trkpt>
      <trkpt lat="46.82442" lon="8.41285">
        <ele>1138</ele>
        <time>2021-08-13T09:17:12.224Z</time>
      </trkpt>
      <trkpt lat="46.82442" lon="8.41287">
        <ele>1138</ele>
        <time>2021-08-13T09:17:13.223Z</time>
      </trkpt>
      <trkpt lat="46.82442" lon="8.4129">
        <ele>1137</ele>
        <time>2021-08-13T09:17:14.223Z</time>
      </trkpt>
      <trkpt lat="46.82442" lon="8.41291">
        <ele>1137</ele>
        <time>2021-08-13T09:17:15.223Z</time>
      </trkpt>
      <trkpt lat="46.82442" lon="8.41292">
        <ele>1136</ele>
        <time>2021-08-13T09:17:16.224Z</time>
      </trkpt>
      <trkpt lat="46.82442" lon="8.41293">
        <ele>1136</ele>
        <time>2021-08-13T09:17:17.224Z</time>
      </trkpt>
      <trkpt lat="46.82441" lon="8.41294">
        <ele>1135</ele>
        <time>2021-08-13T09:17:18.224Z</time>
      </trkpt>
      <trkpt lat="46.82441" lon="8.41295">
        <ele>1134</ele>
        <time>2021-08-13T09:17:19.223Z</time>
      </trkpt>
      <trkpt lat="46.82441" lon="8.41296">
        <ele>1134</ele>
        <time>2021-08-13T09:17:20.224Z</time>
      </trkpt>
      <trkpt lat="46.8244" lon="8.41297">
        <ele>1133</ele>
        <time>2021-08-13T09:17:21.224Z</time>
      </trkpt>
      <trkpt lat="46.8244" lon="8.41298">
        <ele>1133</ele>
        <time>2021-08-13T09:17:22.224Z</time>
      </trkpt>
      <trkpt lat="46.82439" lon="8.41299">
        <ele>1132</ele>
        <time>2021-08-13T09:17:23.223Z</time>
      </trkpt>
      <trkpt lat="46.82439" lon="8.413">
        <ele>1132</ele>
        <time>2021-08-13T09:17:24.224Z</time>
      </trkpt>
      <trkpt lat="46.82439" lon="8.41301">
        <ele>1132</ele>
        <time>2021-08-13T09:17:25.224Z</time>
      </trkpt>
      <trkpt lat="46.82439" lon="8.41302">
        <ele>1131</ele>
        <time>2021-08-13T09:17:26.224Z</time>
      </trkpt>
      <trkpt lat="46.82439" lon="8.41304">
        <ele>1130</ele>
        <time>2021-08-13T09:17:27.224Z</time>
      </trkpt>
      <trkpt lat="46.82438" lon="8.41305">
        <ele>1130</ele>
        <time>2021-08-13T09:17:28.224Z</time>
      </trkpt>
      <trkpt lat="46.82438" lon="8.41307">
        <ele>1130</ele>
        <time>2021-08-13T09:17:29.224Z</time>
      </trkpt>
      <trkpt lat="46.82437" lon="8.41309">
        <ele>1130</ele>
        <time>2021-08-13T09:17:30.224Z</time>
      </trkpt>
      <trkpt lat="46.82437" lon="8.4131">
        <ele>1130</ele>
        <time>2021-08-13T09:17:31.224Z</time>
      </trkpt>
      <trkpt lat="46.82437" lon="8.41311">
        <ele>1130</ele>
        <time>2021-08-13T09:17:32.224Z</time>
      </trkpt>
      <trkpt lat="46.82437" lon="8.41312">
        <ele>1131</ele>
        <time>2021-08-13T09:17:33.223Z</time>
      </trkpt>
      <trkpt lat="46.82436" lon="8.41314">
        <ele>1131</ele>
        <time>2021-08-13T09:17:34.224Z</time>
      </trkpt>
      <trkpt lat="46.82435" lon="8.41315">
        <ele>1131</ele>
        <time>2021-08-13T09:17:35.224Z</time>
      </trkpt>
      <trkpt lat="46.82435" lon="8.41317">
        <ele>1131</ele>
        <time>2021-08-13T09:17:36.223Z</time>
      </trkpt>
      <trkpt lat="46.82434" lon="8.41318">
        <ele>1131</ele>
        <time>2021-08-13T09:17:37.223Z</time>
      </trkpt>
      <trkpt lat="46.82434" lon="8.41319">
        <ele>1131</ele>
        <time>2021-08-13T09:17:38.224Z</time>
      </trkpt>
      <trkpt lat="46.82434" lon="8.4132">
        <ele>1131</ele>
        <time>2021-08-13T09:17:39.224Z</time>
      </trkpt>
      <trkpt lat="46.82434" lon="8.41321">
        <ele>1131</ele>
        <time>2021-08-13T09:17:40.223Z</time>
      </trkpt>
      <trkpt lat="46.82434" lon="8.41322">
        <ele>1131</ele>
        <time>2021-08-13T09:17:41.223Z</time>
      </trkpt>
      <trkpt lat="46.82433" lon="8.41324">
        <ele>1131</ele>
        <time>2021-08-13T09:17:42.223Z</time>
      </trkpt>
      <trkpt lat="46.82433" lon="8.41326">
        <ele>1131</ele>
        <time>2021-08-13T09:17:43.223Z</time>
      </trkpt>
      <trkpt lat="46.82433" lon="8.41327">
        <ele>1131</ele>
        <time>2021-08-13T09:17:44.223Z</time>
      </trkpt>
      <trkpt lat="46.82433" lon="8.41328">
        <ele>1131</ele>
        <time>2021-08-13T09:17:45.223Z</time>
      </trkpt>
      <trkpt lat="46.82433" lon="8.41328">
        <ele>1131</ele>
        <time>2021-08-13T09:17:46.223Z</time>
      </trkpt>
      <trkpt lat="46.82434" lon="8.41329">
        <ele>1131</ele>
        <time>2021-08-13T09:17:47.224Z</time>
      </trkpt>
      <trkpt lat="46.82434" lon="8.41329">
        <ele>1131</ele>
        <time>2021-08-13T09:17:48.223Z</time>
      </trkpt>
      <trkpt lat="46.82434" lon="8.41333">
        <ele>1135</ele>
        <time>2021-08-13T09:17:49.225Z</time>
      </trkpt>
      <trkpt lat="46.82434" lon="8.41334">
        <ele>1136</ele>
        <time>2021-08-13T09:17:50.224Z</time>
      </trkpt>
      <trkpt lat="46.82435" lon="8.41336">
        <ele>1136</ele>
        <time>2021-08-13T09:17:51.224Z</time>
      </trkpt>
      <trkpt lat="46.82435" lon="8.41337">
        <ele>1137</ele>
        <time>2021-08-13T09:17:52.225Z</time>
      </trkpt>
      <trkpt lat="46.82435" lon="8.41339">
        <ele>1137</ele>
        <time>2021-08-13T09:17:53.225Z</time>
      </trkpt>
      <trkpt lat="46.82434" lon="8.41341">
        <ele>1137</ele>
        <time>2021-08-13T09:17:54.225Z</time>
      </trkpt>
      <trkpt lat="46.82434" lon="8.41342">
        <ele>1137</ele>
        <time>2021-08-13T09:17:55.224Z</time>
      </trkpt>
      <trkpt lat="46.82434" lon="8.41343">
        <ele>1137</ele>
        <time>2021-08-13T09:17:56.224Z</time>
      </trkpt>
      <trkpt lat="46.82435" lon="8.41343">
        <ele>1137</ele>
        <time>2021-08-13T09:17:57.225Z</time>
      </trkpt>
      <trkpt lat="46.82434" lon="8.41344">
        <ele>1137</ele>
        <time>2021-08-13T09:17:58.224Z</time>
      </trkpt>
      <trkpt lat="46.82434" lon="8.41346">
        <ele>1136</ele>
        <time>2021-08-13T09:17:59.225Z</time>
      </trkpt>
      <trkpt lat="46.82434" lon="8.41347">
        <ele>1136</ele>
        <time>2021-08-13T09:18:00.225Z</time>
      </trkpt>
      <trkpt lat="46.82433" lon="8.41348">
        <ele>1136</ele>
        <time>2021-08-13T09:18:01.225Z</time>
      </trkpt>
      <trkpt lat="46.82432" lon="8.41349">
        <ele>1135</ele>
        <time>2021-08-13T09:18:02.224Z</time>
      </trkpt>
      <trkpt lat="46.82432" lon="8.4135">
        <ele>1135</ele>
        <time>2021-08-13T09:18:03.225Z</time>
      </trkpt>
      <trkpt lat="46.82432" lon="8.41351">
        <ele>1134</ele>
        <time>2021-08-13T09:18:04.225Z</time>
      </trkpt>
      <trkpt lat="46.82432" lon="8.41352">
        <ele>1135</ele>
        <time>2021-08-13T09:18:05.225Z</time>
      </trkpt>
      <trkpt lat="46.82433" lon="8.41352">
        <ele>1135</ele>
        <time>2021-08-13T09:18:06.225Z</time>
      </trkpt>
      <trkpt lat="46.82433" lon="8.41353">
        <ele>1135</ele>
        <time>2021-08-13T09:18:07.224Z</time>
      </trkpt>
      <trkpt lat="46.82433" lon="8.41353">
        <ele>1135</ele>
        <time>2021-08-13T09:18:08.225Z</time>
      </trkpt>
      <trkpt lat="46.82434" lon="8.41354">
        <ele>1135</ele>
        <time>2021-08-13T09:18:09.225Z</time>
      </trkpt>
      <trkpt lat="46.82434" lon="8.41355">
        <ele>1134</ele>
        <time>2021-08-13T09:18:10.225Z</time>
      </trkpt>
      <trkpt lat="46.82434" lon="8.41357">
        <ele>1134</ele>
        <time>2021-08-13T09:18:11.225Z</time>
      </trkpt>
      <trkpt lat="46.82433" lon="8.41358">
        <ele>1133</ele>
        <time>2021-08-13T09:18:12.224Z</time>
      </trkpt>
      <trkpt lat="46.82433" lon="8.41359">
        <ele>1133</ele>
        <time>2021-08-13T09:18:13.225Z</time>
      </trkpt>
      <trkpt lat="46.82433" lon="8.4136">
        <ele>1132</ele>
        <time>2021-08-13T09:18:14.225Z</time>
      </trkpt>
      <trkpt lat="46.82433" lon="8.41361">
        <ele>1132</ele>
        <time>2021-08-13T09:18:15.225Z</time>
      </trkpt>
      <trkpt lat="46.82433" lon="8.41362">
        <ele>1132</ele>
        <time>2021-08-13T09:18:16.224Z</time>
      </trkpt>
      <trkpt lat="46.82432" lon="8.41363">
        <ele>1132</ele>
        <time>2021-08-13T09:18:17.224Z</time>
      </trkpt>
      <trkpt lat="46.82431" lon="8.41365">
        <ele>1133</ele>
        <time>2021-08-13T09:18:18.225Z</time>
      </trkpt>
      <trkpt lat="46.82431" lon="8.41366">
        <ele>1133</ele>
        <time>2021-08-13T09:18:19.224Z</time>
      </trkpt>
      <trkpt lat="46.82431" lon="8.41368">
        <ele>1133</ele>
        <time>2021-08-13T09:18:20.224Z</time>
      </trkpt>
      <trkpt lat="46.8243" lon="8.41368">
        <ele>1133</ele>
        <time>2021-08-13T09:18:21.224Z</time>
      </trkpt>
      <trkpt lat="46.8243" lon="8.41369">
        <ele>1133</ele>
        <time>2021-08-13T09:18:22.224Z</time>
      </trkpt>
      <trkpt lat="46.82429" lon="8.41369">
        <ele>1133</ele>
        <time>2021-08-13T09:18:23.224Z</time>
      </trkpt>
      <trkpt lat="46.82428" lon="8.41368">
        <ele>1132</ele>
        <time>2021-08-13T09:18:24.224Z</time>
      </trkpt>
      <trkpt lat="46.82427" lon="8.41367">
        <ele>1132</ele>
        <time>2021-08-13T09:18:25.225Z</time>
      </trkpt>
      <trkpt lat="46.82427" lon="8.41366">
        <ele>1131</ele>
        <time>2021-08-13T09:18:26.224Z</time>
      </trkpt>
      <trkpt lat="46.82426" lon="8.41365">
        <ele>1131</ele>
        <time>2021-08-13T09:18:27.224Z</time>
      </trkpt>
      <trkpt lat="46.82426" lon="8.41364">
        <ele>1130</ele>
        <time>2021-08-13T09:18:28.224Z</time>
      </trkpt>
      <trkpt lat="46.82426" lon="8.41364">
        <ele>1129</ele>
        <time>2021-08-13T09:18:29.225Z</time>
      </trkpt>
      <trkpt lat="46.82425" lon="8.41364">
        <ele>1129</ele>
        <time>2021-08-13T09:18:30.224Z</time>
      </trkpt>
      <trkpt lat="46.82425" lon="8.41364">
        <ele>1129</ele>
        <time>2021-08-13T09:18:31.224Z</time>
      </trkpt>
      <trkpt lat="46.82425" lon="8.41364">
        <ele>1128</ele>
        <time>2021-08-13T09:18:32.224Z</time>
      </trkpt>
      <trkpt lat="46.82424" lon="8.41365">
        <ele>1128</ele>
        <time>2021-08-13T09:18:33.224Z</time>
      </trkpt>
      <trkpt lat="46.82422" lon="8.41365">
        <ele>1128</ele>
        <time>2021-08-13T09:18:34.225Z</time>
      </trkpt>
      <trkpt lat="46.82421" lon="8.41365">
        <ele>1128</ele>
        <time>2021-08-13T09:18:35.225Z</time>
      </trkpt>
      <trkpt lat="46.8242" lon="8.41365">
        <ele>1128</ele>
        <time>2021-08-13T09:18:36.225Z</time>
      </trkpt>
      <trkpt lat="46.8242" lon="8.41365">
        <ele>1128</ele>
        <time>2021-08-13T09:18:37.224Z</time>
      </trkpt>
      <trkpt lat="46.82419" lon="8.41366">
        <ele>1128</ele>
        <time>2021-08-13T09:18:38.224Z</time>
      </trkpt>
      <trkpt lat="46.82417" lon="8.41366">
        <ele>1129</ele>
        <time>2021-08-13T09:18:39.224Z</time>
      </trkpt>
      <trkpt lat="46.82416" lon="8.41366">
        <ele>1129</ele>
        <time>2021-08-13T09:18:40.225Z</time>
      </trkpt>
      <trkpt lat="46.82415" lon="8.41366">
        <ele>1129</ele>
        <time>2021-08-13T09:18:41.224Z</time>
      </trkpt>
      <trkpt lat="46.82414" lon="8.41367">
        <ele>1129</ele>
        <time>2021-08-13T09:18:42.225Z</time>
      </trkpt>
      <trkpt lat="46.82413" lon="8.41367">
        <ele>1129</ele>
        <time>2021-08-13T09:18:43.225Z</time>
      </trkpt>
      <trkpt lat="46.82412" lon="8.41367">
        <ele>1128</ele>
        <time>2021-08-13T09:18:44.225Z</time>
      </trkpt>
      <trkpt lat="46.82411" lon="8.41367">
        <ele>1127</ele>
        <time>2021-08-13T09:18:45.225Z</time>
      </trkpt>
      <trkpt lat="46.8241" lon="8.41367">
        <ele>1127</ele>
        <time>2021-08-13T09:18:46.224Z</time>
      </trkpt>
      <trkpt lat="46.82409" lon="8.41367">
        <ele>1127</ele>
        <time>2021-08-13T09:18:47.225Z</time>
      </trkpt>
      <trkpt lat="46.82408" lon="8.41366">
        <ele>1127</ele>
        <time>2021-08-13T09:18:48.225Z</time>
      </trkpt>
      <trkpt lat="46.82407" lon="8.41366">
        <ele>1126</ele>
        <time>2021-08-13T09:18:49.225Z</time>
      </trkpt>
      <trkpt lat="46.82406" lon="8.41366">
        <ele>1126</ele>
        <time>2021-08-13T09:18:50.224Z</time>
      </trkpt>
      <trkpt lat="46.82406" lon="8.41366">
        <ele>1126</ele>
        <time>2021-08-13T09:18:51.224Z</time>
      </trkpt>
      <trkpt lat="46.82406" lon="8.41366">
        <ele>1125</ele>
        <time>2021-08-13T09:18:52.225Z</time>
      </trkpt>
      <trkpt lat="46.82406" lon="8.41366">
        <ele>1124</ele>
        <time>2021-08-13T09:18:53.225Z</time>
      </trkpt>
      <trkpt lat="46.82407" lon="8.41365">
        <ele>1123</ele>
        <time>2021-08-13T09:18:54.225Z</time>
      </trkpt>
      <trkpt lat="46.82407" lon="8.41364">
        <ele>1123</ele>
        <time>2021-08-13T09:18:55.225Z</time>
      </trkpt>
      <trkpt lat="46.82407" lon="8.41364">
        <ele>1122</ele>
        <time>2021-08-13T09:18:56.225Z</time>
      </trkpt>
      <trkpt lat="46.82408" lon="8.41363">
        <ele>1122</ele>
        <time>2021-08-13T09:18:57.225Z</time>
      </trkpt>
      <trkpt lat="46.82408" lon="8.41361">
        <ele>1122</ele>
        <time>2021-08-13T09:18:58.224Z</time>
      </trkpt>
      <trkpt lat="46.82408" lon="8.4136">
        <ele>1122</ele>
        <time>2021-08-13T09:18:59.224Z</time>
      </trkpt>
      <trkpt lat="46.82408" lon="8.41359">
        <ele>1122</ele>
        <time>2021-08-13T09:19:00.225Z</time>
      </trkpt>
      <trkpt lat="46.82408" lon="8.41357">
        <ele>1122</ele>
        <time>2021-08-13T09:19:01.225Z</time>
      </trkpt>
      <trkpt lat="46.82408" lon="8.41356">
        <ele>1122</ele>
        <time>2021-08-13T09:19:02.224Z</time>
      </trkpt>
      <trkpt lat="46.82408" lon="8.41355">
        <ele>1122</ele>
        <time>2021-08-13T09:19:03.224Z</time>
      </trkpt>
      <trkpt lat="46.82407" lon="8.41354">
        <ele>1123</ele>
        <time>2021-08-13T09:19:04.225Z</time>
      </trkpt>
      <trkpt lat="46.82405" lon="8.41353">
        <ele>1123</ele>
        <time>2021-08-13T09:19:05.225Z</time>
      </trkpt>
      <trkpt lat="46.82404" lon="8.41352">
        <ele>1124</ele>
        <time>2021-08-13T09:19:06.225Z</time>
      </trkpt>
      <trkpt lat="46.82402" lon="8.41351">
        <ele>1124</ele>
        <time>2021-08-13T09:19:07.225Z</time>
      </trkpt>
      <trkpt lat="46.82401" lon="8.41351">
        <ele>1125</ele>
        <time>2021-08-13T09:19:08.225Z</time>
      </trkpt>
      <trkpt lat="46.824" lon="8.4135">
        <ele>1126</ele>
        <time>2021-08-13T09:19:09.225Z</time>
      </trkpt>
      <trkpt lat="46.82399" lon="8.41348">
        <ele>1126</ele>
        <time>2021-08-13T09:19:10.225Z</time>
      </trkpt>
      <trkpt lat="46.82397" lon="8.41347">
        <ele>1127</ele>
        <time>2021-08-13T09:19:11.224Z</time>
      </trkpt>
      <trkpt lat="46.82396" lon="8.41345">
        <ele>1128</ele>
        <time>2021-08-13T09:19:12.225Z</time>
      </trkpt>
      <trkpt lat="46.82395" lon="8.41344">
        <ele>1128</ele>
        <time>2021-08-13T09:19:13.224Z</time>
      </trkpt>
      <trkpt lat="46.82395" lon="8.41343">
        <ele>1129</ele>
        <time>2021-08-13T09:19:14.225Z</time>
      </trkpt>
      <trkpt lat="46.82395" lon="8.41341">
        <ele>1129</ele>
        <time>2021-08-13T09:19:15.225Z</time>
      </trkpt>
      <trkpt lat="46.82396" lon="8.4134">
        <ele>1129</ele>
        <time>2021-08-13T09:19:16.224Z</time>
      </trkpt>
      <trkpt lat="46.82397" lon="8.41339">
        <ele>1130</ele>
        <time>2021-08-13T09:19:17.225Z</time>
      </trkpt>
      <trkpt lat="46.82397" lon="8.41338">
        <ele>1130</ele>
        <time>2021-08-13T09:19:18.225Z</time>
      </trkpt>
      <trkpt lat="46.82398" lon="8.41338">
        <ele>1129</ele>
        <time>2021-08-13T09:19:19.224Z</time>
      </trkpt>
      <trkpt lat="46.82398" lon="8.41337">
        <ele>1129</ele>
        <time>2021-08-13T09:19:20.225Z</time>
      </trkpt>
      <trkpt lat="46.82398" lon="8.41336">
        <ele>1128</ele>
        <time>2021-08-13T09:19:21.225Z</time>
      </trkpt>
      <trkpt lat="46.82398" lon="8.41335">
        <ele>1128</ele>
        <time>2021-08-13T09:19:22.224Z</time>
      </trkpt>
      <trkpt lat="46.82397" lon="8.41334">
        <ele>1128</ele>
        <time>2021-08-13T09:19:23.225Z</time>
      </trkpt>
      <trkpt lat="46.82396" lon="8.41334">
        <ele>1128</ele>
        <time>2021-08-13T09:19:24.224Z</time>
      </trkpt>
      <trkpt lat="46.82395" lon="8.41334">
        <ele>1127</ele>
        <time>2021-08-13T09:19:25.225Z</time>
      </trkpt>
      <trkpt lat="46.82395" lon="8.41335">
        <ele>1127</ele>
        <time>2021-08-13T09:19:26.225Z</time>
      </trkpt>
      <trkpt lat="46.82394" lon="8.41336">
        <ele>1126</ele>
        <time>2021-08-13T09:19:27.224Z</time>
      </trkpt>
      <trkpt lat="46.82393" lon="8.41336">
        <ele>1126</ele>
        <time>2021-08-13T09:19:28.225Z</time>
      </trkpt>
      <trkpt lat="46.82393" lon="8.41337">
        <ele>1126</ele>
        <time>2021-08-13T09:19:29.224Z</time>
      </trkpt>
      <trkpt lat="46.82393" lon="8.41338">
        <ele>1125</ele>
        <time>2021-08-13T09:19:30.225Z</time>
      </trkpt>
      <trkpt lat="46.82393" lon="8.41339">
        <ele>1125</ele>
        <time>2021-08-13T09:19:31.224Z</time>
      </trkpt>
      <trkpt lat="46.82391" lon="8.41341">
        <ele>1122</ele>
        <time>2021-08-13T09:19:32.225Z</time>
      </trkpt>
      <trkpt lat="46.82391" lon="8.41341">
        <ele>1121</ele>
        <time>2021-08-13T09:19:33.225Z</time>
      </trkpt>
      <trkpt lat="46.82391" lon="8.4134">
        <ele>1120</ele>
        <time>2021-08-13T09:19:34.226Z</time>
      </trkpt>
      <trkpt lat="46.82392" lon="8.41339">
        <ele>1120</ele>
        <time>2021-08-13T09:19:35.226Z</time>
      </trkpt>
      <trkpt lat="46.82391" lon="8.41338">
        <ele>1120</ele>
        <time>2021-08-13T09:19:36.225Z</time>
      </trkpt>
      <trkpt lat="46.8239" lon="8.41336">
        <ele>1119</ele>
        <time>2021-08-13T09:19:37.226Z</time>
      </trkpt>
      <trkpt lat="46.82388" lon="8.41335">
        <ele>1119</ele>
        <time>2021-08-13T09:19:38.225Z</time>
      </trkpt>
      <trkpt lat="46.82387" lon="8.41333">
        <ele>1120</ele>
        <time>2021-08-13T09:19:39.226Z</time>
      </trkpt>
      <trkpt lat="46.82387" lon="8.41331">
        <ele>1120</ele>
        <time>2021-08-13T09:19:40.226Z</time>
      </trkpt>
      <trkpt lat="46.82387" lon="8.4133">
        <ele>1120</ele>
        <time>2021-08-13T09:19:41.226Z</time>
      </trkpt>
      <trkpt lat="46.82386" lon="8.41329">
        <ele>1120</ele>
        <time>2021-08-13T09:19:42.226Z</time>
      </trkpt>
      <trkpt lat="46.82386" lon="8.41328">
        <ele>1120</ele>
        <time>2021-08-13T09:19:43.225Z</time>
      </trkpt>
      <trkpt lat="46.82385" lon="8.41327">
        <ele>1120</ele>
        <time>2021-08-13T09:19:44.226Z</time>
      </trkpt>
      <trkpt lat="46.82385" lon="8.41326">
        <ele>1120</ele>
        <time>2021-08-13T09:19:45.226Z</time>
      </trkpt>
      <trkpt lat="46.82385" lon="8.41325">
        <ele>1120</ele>
        <time>2021-08-13T09:19:46.226Z</time>
      </trkpt>
      <trkpt lat="46.82384" lon="8.41323">
        <ele>1119</ele>
        <time>2021-08-13T09:19:47.226Z</time>
      </trkpt>
      <trkpt lat="46.82384" lon="8.41323">
        <ele>1119</ele>
        <time>2021-08-13T09:19:48.226Z</time>
      </trkpt>
      <trkpt lat="46.82383" lon="8.41322">
        <ele>1119</ele>
        <time>2021-08-13T09:19:49.226Z</time>
      </trkpt>
      <trkpt lat="46.82382" lon="8.41321">
        <ele>1119</ele>
        <time>2021-08-13T09:19:50.226Z</time>
      </trkpt>
      <trkpt lat="46.82382" lon="8.4132">
        <ele>1119</ele>
        <time>2021-08-13T09:19:51.226Z</time>
      </trkpt>
      <trkpt lat="46.82381" lon="8.41319">
        <ele>1119</ele>
        <time>2021-08-13T09:19:52.226Z</time>
      </trkpt>
      <trkpt lat="46.82381" lon="8.41318">
        <ele>1118</ele>
        <time>2021-08-13T09:19:53.226Z</time>
      </trkpt>
      <trkpt lat="46.82381" lon="8.41318">
        <ele>1117</ele>
        <time>2021-08-13T09:19:54.226Z</time>
      </trkpt>
      <trkpt lat="46.8238" lon="8.41318">
        <ele>1117</ele>
        <time>2021-08-13T09:19:55.226Z</time>
      </trkpt>
      <trkpt lat="46.8238" lon="8.41318">
        <ele>1117</ele>
        <time>2021-08-13T09:19:56.225Z</time>
      </trkpt>
      <trkpt lat="46.8238" lon="8.41318">
        <ele>1116</ele>
        <time>2021-08-13T09:19:57.226Z</time>
      </trkpt>
      <trkpt lat="46.8238" lon="8.41317">
        <ele>1115</ele>
        <time>2021-08-13T09:19:58.226Z</time>
      </trkpt>
      <trkpt lat="46.82379" lon="8.41316">
        <ele>1115</ele>
        <time>2021-08-13T09:19:59.227Z</time>
      </trkpt>
      <trkpt lat="46.82379" lon="8.41314">
        <ele>1115</ele>
        <time>2021-08-13T09:20:00.226Z</time>
      </trkpt>
      <trkpt lat="46.82379" lon="8.41313">
        <ele>1115</ele>
        <time>2021-08-13T09:20:01.226Z</time>
      </trkpt>
      <trkpt lat="46.82379" lon="8.41313">
        <ele>1115</ele>
        <time>2021-08-13T09:20:02.226Z</time>
      </trkpt>
      <trkpt lat="46.82379" lon="8.41313">
        <ele>1115</ele>
        <time>2021-08-13T09:20:03.226Z</time>
      </trkpt>
      <trkpt lat="46.82379" lon="8.41314">
        <ele>1115</ele>
        <time>2021-08-13T09:20:04.227Z</time>
      </trkpt>
      <trkpt lat="46.82379" lon="8.41314">
        <ele>1114</ele>
        <time>2021-08-13T09:20:05.226Z</time>
      </trkpt>
      <trkpt lat="46.82378" lon="8.41314">
        <ele>1114</ele>
        <time>2021-08-13T09:20:06.226Z</time>
      </trkpt>
      <trkpt lat="46.82378" lon="8.41313">
        <ele>1113</ele>
        <time>2021-08-13T09:20:07.226Z</time>
      </trkpt>
      <trkpt lat="46.82378" lon="8.41313">
        <ele>1113</ele>
        <time>2021-08-13T09:20:08.226Z</time>
      </trkpt>
      <trkpt lat="46.82378" lon="8.41314">
        <ele>1112</ele>
        <time>2021-08-13T09:20:09.227Z</time>
      </trkpt>
      <trkpt lat="46.82378" lon="8.41315">
        <ele>1111</ele>
        <time>2021-08-13T09:20:10.228Z</time>
      </trkpt>
      <trkpt lat="46.82379" lon="8.41315">
        <ele>1111</ele>
        <time>2021-08-13T09:20:11.228Z</time>
      </trkpt>
      <trkpt lat="46.82379" lon="8.41314">
        <ele>1111</ele>
        <time>2021-08-13T09:20:12.229Z</time>
      </trkpt>
      <trkpt lat="46.82379" lon="8.41313">
        <ele>1111</ele>
        <time>2021-08-13T09:20:13.228Z</time>
      </trkpt>
      <trkpt lat="46.82379" lon="8.41312">
        <ele>1111</ele>
        <time>2021-08-13T09:20:14.228Z</time>
      </trkpt>
      <trkpt lat="46.82378" lon="8.4131">
        <ele>1111</ele>
        <time>2021-08-13T09:20:15.229Z</time>
      </trkpt>
      <trkpt lat="46.82377" lon="8.4131">
        <ele>1111</ele>
        <time>2021-08-13T09:20:16.229Z</time>
      </trkpt>
      <trkpt lat="46.82376" lon="8.41309">
        <ele>1111</ele>
        <time>2021-08-13T09:20:17.228Z</time>
      </trkpt>
      <trkpt lat="46.82376" lon="8.41309">
        <ele>1111</ele>
        <time>2021-08-13T09:20:18.228Z</time>
      </trkpt>
      <trkpt lat="46.82375" lon="8.41308">
        <ele>1111</ele>
        <time>2021-08-13T09:20:19.228Z</time>
      </trkpt>
      <trkpt lat="46.82375" lon="8.41307">
        <ele>1111</ele>
        <time>2021-08-13T09:20:20.228Z</time>
      </trkpt>
      <trkpt lat="46.82374" lon="8.41307">
        <ele>1111</ele>
        <time>2021-08-13T09:20:21.229Z</time>
      </trkpt>
      <trkpt lat="46.82374" lon="8.41306">
        <ele>1110</ele>
        <time>2021-08-13T09:20:22.228Z</time>
      </trkpt>
      <trkpt lat="46.82373" lon="8.41306">
        <ele>1110</ele>
        <time>2021-08-13T09:20:23.229Z</time>
      </trkpt>
      <trkpt lat="46.82372" lon="8.41305">
        <ele>1110</ele>
        <time>2021-08-13T09:20:24.228Z</time>
      </trkpt>
      <trkpt lat="46.82372" lon="8.41304">
        <ele>1110</ele>
        <time>2021-08-13T09:20:25.228Z</time>
      </trkpt>
      <trkpt lat="46.82371" lon="8.41303">
        <ele>1109</ele>
        <time>2021-08-13T09:20:26.229Z</time>
      </trkpt>
      <trkpt lat="46.82371" lon="8.41302">
        <ele>1109</ele>
        <time>2021-08-13T09:20:27.228Z</time>
      </trkpt>
      <trkpt lat="46.8237" lon="8.413">
        <ele>1108</ele>
        <time>2021-08-13T09:20:28.229Z</time>
      </trkpt>
      <trkpt lat="46.8237" lon="8.41299">
        <ele>1108</ele>
        <time>2021-08-13T09:20:29.228Z</time>
      </trkpt>
      <trkpt lat="46.82369" lon="8.41297">
        <ele>1107</ele>
        <time>2021-08-13T09:20:30.229Z</time>
      </trkpt>
      <trkpt lat="46.82368" lon="8.41297">
        <ele>1107</ele>
        <time>2021-08-13T09:20:31.228Z</time>
      </trkpt>
      <trkpt lat="46.82368" lon="8.41296">
        <ele>1107</ele>
        <time>2021-08-13T09:20:32.229Z</time>
      </trkpt>
      <trkpt lat="46.82368" lon="8.41296">
        <ele>1106</ele>
        <time>2021-08-13T09:20:33.229Z</time>
      </trkpt>
      <trkpt lat="46.82367" lon="8.41295">
        <ele>1106</ele>
        <time>2021-08-13T09:20:34.228Z</time>
      </trkpt>
      <trkpt lat="46.82366" lon="8.41294">
        <ele>1106</ele>
        <time>2021-08-13T09:20:35.229Z</time>
      </trkpt>
      <trkpt lat="46.82366" lon="8.41294">
        <ele>1105</ele>
        <time>2021-08-13T09:20:36.228Z</time>
      </trkpt>
      <trkpt lat="46.82366" lon="8.41293">
        <ele>1105</ele>
        <time>2021-08-13T09:20:37.229Z</time>
      </trkpt>
      <trkpt lat="46.82365" lon="8.41293">
        <ele>1104</ele>
        <time>2021-08-13T09:20:38.229Z</time>
      </trkpt>
      <trkpt lat="46.82364" lon="8.41292">
        <ele>1104</ele>
        <time>2021-08-13T09:20:39.229Z</time>
      </trkpt>
      <trkpt lat="46.82363" lon="8.41292">
        <ele>1104</ele>
        <time>2021-08-13T09:20:40.229Z</time>
      </trkpt>
      <trkpt lat="46.82363" lon="8.41291">
        <ele>1103</ele>
        <time>2021-08-13T09:20:41.228Z</time>
      </trkpt>
      <trkpt lat="46.82362" lon="8.41291">
        <ele>1103</ele>
        <time>2021-08-13T09:20:42.229Z</time>
      </trkpt>
      <trkpt lat="46.82361" lon="8.4129">
        <ele>1103</ele>
        <time>2021-08-13T09:20:43.229Z</time>
      </trkpt>
      <trkpt lat="46.8236" lon="8.41289">
        <ele>1103</ele>
        <time>2021-08-13T09:20:44.229Z</time>
      </trkpt>
      <trkpt lat="46.82359" lon="8.41288">
        <ele>1103</ele>
        <time>2021-08-13T09:20:45.229Z</time>
      </trkpt>
      <trkpt lat="46.82358" lon="8.41287">
        <ele>1103</ele>
        <time>2021-08-13T09:20:46.229Z</time>
      </trkpt>
      <trkpt lat="46.82357" lon="8.41285">
        <ele>1102</ele>
        <time>2021-08-13T09:20:52.352Z</time>
      </trkpt>
      <trkpt lat="46.82356" lon="8.41284">
        <ele>1102</ele>
        <time>2021-08-13T09:20:53.352Z</time>
      </trkpt>
      <trkpt lat="46.82356" lon="8.41282">
        <ele>1102</ele>
        <time>2021-08-13T09:20:54.352Z</time>
      </trkpt>
      <trkpt lat="46.82355" lon="8.41282">
        <ele>1102</ele>
        <time>2021-08-13T09:20:55.351Z</time>
      </trkpt>
      <trkpt lat="46.82354" lon="8.41281">
        <ele>1102</ele>
        <time>2021-08-13T09:20:56.352Z</time>
      </trkpt>
      <trkpt lat="46.82352" lon="8.41281">
        <ele>1102</ele>
        <time>2021-08-13T09:20:57.351Z</time>
      </trkpt>
      <trkpt lat="46.82351" lon="8.4128">
        <ele>1101</ele>
        <time>2021-08-13T09:20:58.352Z</time>
      </trkpt>
      <trkpt lat="46.8235" lon="8.41279">
        <ele>1101</ele>
        <time>2021-08-13T09:20:59.352Z</time>
      </trkpt>
      <trkpt lat="46.82349" lon="8.41278">
        <ele>1100</ele>
        <time>2021-08-13T09:21:00.352Z</time>
      </trkpt>
      <trkpt lat="46.82348" lon="8.41277">
        <ele>1100</ele>
        <time>2021-08-13T09:21:01.352Z</time>
      </trkpt>
      <trkpt lat="46.82347" lon="8.41276">
        <ele>1099</ele>
        <time>2021-08-13T09:21:02.351Z</time>
      </trkpt>
      <trkpt lat="46.82346" lon="8.41275">
        <ele>1099</ele>
        <time>2021-08-13T09:21:03.352Z</time>
      </trkpt>
      <trkpt lat="46.82345" lon="8.41274">
        <ele>1098</ele>
        <time>2021-08-13T09:21:04.352Z</time>
      </trkpt>
      <trkpt lat="46.82344" lon="8.41272">
        <ele>1098</ele>
        <time>2021-08-13T09:21:05.352Z</time>
      </trkpt>
      <trkpt lat="46.82343" lon="8.41271">
        <ele>1097</ele>
        <time>2021-08-13T09:21:06.351Z</time>
      </trkpt>
      <trkpt lat="46.82341" lon="8.4127">
        <ele>1097</ele>
        <time>2021-08-13T09:21:07.351Z</time>
      </trkpt>
      <trkpt lat="46.8234" lon="8.41268">
        <ele>1096</ele>
        <time>2021-08-13T09:21:08.352Z</time>
      </trkpt>
      <trkpt lat="46.82339" lon="8.41266">
        <ele>1095</ele>
        <time>2021-08-13T09:21:09.352Z</time>
      </trkpt>
      <trkpt lat="46.82337" lon="8.41264">
        <ele>1094</ele>
        <time>2021-08-13T09:21:10.352Z</time>
      </trkpt>
      <trkpt lat="46.82336" lon="8.41263">
        <ele>1094</ele>
        <time>2021-08-13T09:21:11.352Z</time>
      </trkpt>
      <trkpt lat="46.82335" lon="8.41261">
        <ele>1093</ele>
        <time>2021-08-13T09:21:12.352Z</time>
      </trkpt>
      <trkpt lat="46.82334" lon="8.4126">
        <ele>1092</ele>
        <time>2021-08-13T09:21:13.351Z</time>
      </trkpt>
      <trkpt lat="46.82332" lon="8.41257">
        <ele>1091</ele>
        <time>2021-08-13T09:21:14.352Z</time>
      </trkpt>
      <trkpt lat="46.82331" lon="8.41255">
        <ele>1090</ele>
        <time>2021-08-13T09:21:15.352Z</time>
      </trkpt>
      <trkpt lat="46.82329" lon="8.41253">
        <ele>1090</ele>
        <time>2021-08-13T09:21:16.352Z</time>
      </trkpt>
      <trkpt lat="46.82328" lon="8.41251">
        <ele>1089</ele>
        <time>2021-08-13T09:21:17.351Z</time>
      </trkpt>
      <trkpt lat="46.82326" lon="8.41249">
        <ele>1089</ele>
        <time>2021-08-13T09:21:18.352Z</time>
      </trkpt>
      <trkpt lat="46.82324" lon="8.41246">
        <ele>1089</ele>
        <time>2021-08-13T09:21:19.352Z</time>
      </trkpt>
      <trkpt lat="46.82323" lon="8.41244">
        <ele>1088</ele>
        <time>2021-08-13T09:21:20.352Z</time>
      </trkpt>
      <trkpt lat="46.82322" lon="8.41242">
        <ele>1088</ele>
        <time>2021-08-13T09:21:21.352Z</time>
      </trkpt>
      <trkpt lat="46.82321" lon="8.4124">
        <ele>1087</ele>
        <time>2021-08-13T09:21:22.351Z</time>
      </trkpt>
      <trkpt lat="46.82321" lon="8.41238">
        <ele>1087</ele>
        <time>2021-08-13T09:21:23.352Z</time>
      </trkpt>
      <trkpt lat="46.8232" lon="8.41237">
        <ele>1086</ele>
        <time>2021-08-13T09:21:24.352Z</time>
      </trkpt>
      <trkpt lat="46.8232" lon="8.41234">
        <ele>1085</ele>
        <time>2021-08-13T09:21:25.351Z</time>
      </trkpt>
      <trkpt lat="46.8232" lon="8.41232">
        <ele>1085</ele>
        <time>2021-08-13T09:21:26.352Z</time>
      </trkpt>
      <trkpt lat="46.82319" lon="8.4123">
        <ele>1084</ele>
        <time>2021-08-13T09:21:27.352Z</time>
      </trkpt>
      <trkpt lat="46.82319" lon="8.41228">
        <ele>1084</ele>
        <time>2021-08-13T09:21:28.352Z</time>
      </trkpt>
      <trkpt lat="46.82318" lon="8.41226">
        <ele>1084</ele>
        <time>2021-08-13T09:21:29.351Z</time>
      </trkpt>
      <trkpt lat="46.82317" lon="8.41224">
        <ele>1083</ele>
        <time>2021-08-13T09:21:30.352Z</time>
      </trkpt>
      <trkpt lat="46.82316" lon="8.41222">
        <ele>1082</ele>
        <time>2021-08-13T09:21:31.352Z</time>
      </trkpt>
      <trkpt lat="46.82316" lon="8.4122">
        <ele>1082</ele>
        <time>2021-08-13T09:21:32.351Z</time>
      </trkpt>
      <trkpt lat="46.82315" lon="8.41217">
        <ele>1081</ele>
        <time>2021-08-13T09:21:33.352Z</time>
      </trkpt>
      <trkpt lat="46.82314" lon="8.41215">
        <ele>1081</ele>
        <time>2021-08-13T09:21:34.352Z</time>
      </trkpt>
      <trkpt lat="46.82314" lon="8.41212">
        <ele>1080</ele>
        <time>2021-08-13T09:21:35.351Z</time>
      </trkpt>
      <trkpt lat="46.82313" lon="8.4121">
        <ele>1080</ele>
        <time>2021-08-13T09:21:36.352Z</time>
      </trkpt>
      <trkpt lat="46.82313" lon="8.41207">
        <ele>1079</ele>
        <time>2021-08-13T09:21:37.352Z</time>
      </trkpt>
      <trkpt lat="46.82312" lon="8.41205">
        <ele>1078</ele>
        <time>2021-08-13T09:21:38.351Z</time>
      </trkpt>
      <trkpt lat="46.82311" lon="8.41203">
        <ele>1078</ele>
        <time>2021-08-13T09:21:39.351Z</time>
      </trkpt>
      <trkpt lat="46.8231" lon="8.41201">
        <ele>1077</ele>
        <time>2021-08-13T09:21:40.352Z</time>
      </trkpt>
      <trkpt lat="46.82309" lon="8.41199">
        <ele>1077</ele>
        <time>2021-08-13T09:21:41.352Z</time>
      </trkpt>
      <trkpt lat="46.82308" lon="8.41197">
        <ele>1077</ele>
        <time>2021-08-13T09:21:42.351Z</time>
      </trkpt>
      <trkpt lat="46.82308" lon="8.41195">
        <ele>1076</ele>
        <time>2021-08-13T09:21:43.352Z</time>
      </trkpt>
      <trkpt lat="46.82307" lon="8.41193">
        <ele>1076</ele>
        <time>2021-08-13T09:21:44.352Z</time>
      </trkpt>
      <trkpt lat="46.82307" lon="8.41191">
        <ele>1075</ele>
        <time>2021-08-13T09:21:45.352Z</time>
      </trkpt>
      <trkpt lat="46.82306" lon="8.4119">
        <ele>1075</ele>
        <time>2021-08-13T09:21:46.352Z</time>
      </trkpt>
      <trkpt lat="46.82306" lon="8.41188">
        <ele>1075</ele>
        <time>2021-08-13T09:21:47.352Z</time>
      </trkpt>
      <trkpt lat="46.82305" lon="8.41186">
        <ele>1074</ele>
        <time>2021-08-13T09:21:48.352Z</time>
      </trkpt>
      <trkpt lat="46.82305" lon="8.41185">
        <ele>1074</ele>
        <time>2021-08-13T09:21:49.352Z</time>
      </trkpt>
      <trkpt lat="46.82304" lon="8.41183">
        <ele>1074</ele>
        <time>2021-08-13T09:21:50.351Z</time>
      </trkpt>
      <trkpt lat="46.82303" lon="8.41181">
        <ele>1073</ele>
        <time>2021-08-13T09:21:51.351Z</time>
      </trkpt>
      <trkpt lat="46.82303" lon="8.41179">
        <ele>1073</ele>
        <time>2021-08-13T09:21:52.351Z</time>
      </trkpt>
      <trkpt lat="46.82302" lon="8.41176">
        <ele>1073</ele>
        <time>2021-08-13T09:21:53.352Z</time>
      </trkpt>
      <trkpt lat="46.82301" lon="8.41174">
        <ele>1073</ele>
        <time>2021-08-13T09:21:54.351Z</time>
      </trkpt>
      <trkpt lat="46.823" lon="8.41172">
        <ele>1073</ele>
        <time>2021-08-13T09:21:55.352Z</time>
      </trkpt>
      <trkpt lat="46.82299" lon="8.4117">
        <ele>1073</ele>
        <time>2021-08-13T09:21:56.351Z</time>
      </trkpt>
      <trkpt lat="46.82299" lon="8.41167">
        <ele>1073</ele>
        <time>2021-08-13T09:21:57.352Z</time>
      </trkpt>
      <trkpt lat="46.82298" lon="8.41165">
        <ele>1073</ele>
        <time>2021-08-13T09:21:58.352Z</time>
      </trkpt>
      <trkpt lat="46.82297" lon="8.41162">
        <ele>1073</ele>
        <time>2021-08-13T09:21:59.352Z</time>
      </trkpt>
      <trkpt lat="46.82296" lon="8.41159">
        <ele>1073</ele>
        <time>2021-08-13T09:22:00.352Z</time>
      </trkpt>
      <trkpt lat="46.82295" lon="8.41156">
        <ele>1073</ele>
        <time>2021-08-13T09:22:01.352Z</time>
      </trkpt>
      <trkpt lat="46.82295" lon="8.41154">
        <ele>1073</ele>
        <time>2021-08-13T09:22:02.352Z</time>
      </trkpt>
      <trkpt lat="46.82294" lon="8.41152">
        <ele>1073</ele>
        <time>2021-08-13T09:22:03.352Z</time>
      </trkpt>
      <trkpt lat="46.82294" lon="8.4115">
        <ele>1073</ele>
        <time>2021-08-13T09:22:04.352Z</time>
      </trkpt>
      <trkpt lat="46.82293" lon="8.41148">
        <ele>1073</ele>
        <time>2021-08-13T09:22:05.352Z</time>
      </trkpt>
      <trkpt lat="46.82292" lon="8.41147">
        <ele>1072</ele>
        <time>2021-08-13T09:22:06.351Z</time>
      </trkpt>
      <trkpt lat="46.82291" lon="8.41145">
        <ele>1072</ele>
        <time>2021-08-13T09:22:13.519Z</time>
      </trkpt>
      <trkpt lat="46.82291" lon="8.41143">
        <ele>1072</ele>
        <time>2021-08-13T09:22:14.520Z</time>
      </trkpt>
      <trkpt lat="46.8229" lon="8.41142">
        <ele>1072</ele>
        <time>2021-08-13T09:22:20.392Z</time>
      </trkpt>
      <trkpt lat="46.8229" lon="8.4114">
        <ele>1071</ele>
        <time>2021-08-13T09:22:21.393Z</time>
      </trkpt>
      <trkpt lat="46.82289" lon="8.41138">
        <ele>1071</ele>
        <time>2021-08-13T09:22:22.393Z</time>
      </trkpt>
      <trkpt lat="46.82289" lon="8.41136">
        <ele>1071</ele>
        <time>2021-08-13T09:22:23.393Z</time>
      </trkpt>
      <trkpt lat="46.82288" lon="8.41134">
        <ele>1072</ele>
        <time>2021-08-13T09:22:24.393Z</time>
      </trkpt>
      <trkpt lat="46.82287" lon="8.41133">
        <ele>1072</ele>
        <time>2021-08-13T09:22:25.393Z</time>
      </trkpt>
      <trkpt lat="46.82286" lon="8.4113">
        <ele>1072</ele>
        <time>2021-08-13T09:22:26.393Z</time>
      </trkpt>
      <trkpt lat="46.82286" lon="8.41129">
        <ele>1072</ele>
        <time>2021-08-13T09:22:27.393Z</time>
      </trkpt>
      <trkpt lat="46.82286" lon="8.41127">
        <ele>1072</ele>
        <time>2021-08-13T09:22:28.393Z</time>
      </trkpt>
      <trkpt lat="46.82285" lon="8.41125">
        <ele>1072</ele>
        <time>2021-08-13T09:22:29.393Z</time>
      </trkpt>
      <trkpt lat="46.82285" lon="8.41123">
        <ele>1072</ele>
        <time>2021-08-13T09:22:30.392Z</time>
      </trkpt>
      <trkpt lat="46.82285" lon="8.41121">
        <ele>1072</ele>
        <time>2021-08-13T09:22:31.392Z</time>
      </trkpt>
      <trkpt lat="46.82285" lon="8.41119">
        <ele>1072</ele>
        <time>2021-08-13T09:22:32.392Z</time>
      </trkpt>
      <trkpt lat="46.82285" lon="8.41117">
        <ele>1072</ele>
        <time>2021-08-13T09:22:33.393Z</time>
      </trkpt>
      <trkpt lat="46.82285" lon="8.41115">
        <ele>1072</ele>
        <time>2021-08-13T09:22:34.393Z</time>
      </trkpt>
      <trkpt lat="46.82285" lon="8.41113">
        <ele>1072</ele>
        <time>2021-08-13T09:22:35.393Z</time>
      </trkpt>
      <trkpt lat="46.82285" lon="8.41111">
        <ele>1072</ele>
        <time>2021-08-13T09:22:36.393Z</time>
      </trkpt>
      <trkpt lat="46.82285" lon="8.4111">
        <ele>1071</ele>
        <time>2021-08-13T09:22:37.393Z</time>
      </trkpt>
      <trkpt lat="46.82285" lon="8.41108">
        <ele>1071</ele>
        <time>2021-08-13T09:22:38.393Z</time>
      </trkpt>
      <trkpt lat="46.82285" lon="8.41106">
        <ele>1071</ele>
        <time>2021-08-13T09:22:39.393Z</time>
      </trkpt>
      <trkpt lat="46.82285" lon="8.41104">
        <ele>1070</ele>
        <time>2021-08-13T09:22:40.393Z</time>
      </trkpt>
      <trkpt lat="46.82284" lon="8.41102">
        <ele>1070</ele>
        <time>2021-08-13T09:22:41.393Z</time>
      </trkpt>
      <trkpt lat="46.82284" lon="8.411">
        <ele>1069</ele>
        <time>2021-08-13T09:22:42.393Z</time>
      </trkpt>
      <trkpt lat="46.82283" lon="8.41098">
        <ele>1069</ele>
        <time>2021-08-13T09:22:43.393Z</time>
      </trkpt>
      <trkpt lat="46.82283" lon="8.41096">
        <ele>1069</ele>
        <time>2021-08-13T09:22:44.393Z</time>
      </trkpt>
      <trkpt lat="46.82283" lon="8.41094">
        <ele>1069</ele>
        <time>2021-08-13T09:22:45.393Z</time>
      </trkpt>
      <trkpt lat="46.82283" lon="8.41092">
        <ele>1069</ele>
        <time>2021-08-13T09:22:46.392Z</time>
      </trkpt>
      <trkpt lat="46.82283" lon="8.4109">
        <ele>1069</ele>
        <time>2021-08-13T09:22:47.393Z</time>
      </trkpt>
      <trkpt lat="46.82283" lon="8.41088">
        <ele>1069</ele>
        <time>2021-08-13T09:22:48.393Z</time>
      </trkpt>
      <trkpt lat="46.82283" lon="8.41086">
        <ele>1069</ele>
        <time>2021-08-13T09:22:49.392Z</time>
      </trkpt>
      <trkpt lat="46.82284" lon="8.41083">
        <ele>1068</ele>
        <time>2021-08-13T09:22:50.393Z</time>
      </trkpt>
      <trkpt lat="46.82284" lon="8.41081">
        <ele>1068</ele>
        <time>2021-08-13T09:22:51.393Z</time>
      </trkpt>
      <trkpt lat="46.82285" lon="8.41079">
        <ele>1068</ele>
        <time>2021-08-13T09:22:52.393Z</time>
      </trkpt>
      <trkpt lat="46.82284" lon="8.41077">
        <ele>1067</ele>
        <time>2021-08-13T09:22:53.393Z</time>
      </trkpt>
      <trkpt lat="46.82285" lon="8.41074">
        <ele>1067</ele>
        <time>2021-08-13T09:22:54.393Z</time>
      </trkpt>
      <trkpt lat="46.82285" lon="8.41071">
        <ele>1066</ele>
        <time>2021-08-13T09:22:55.393Z</time>
      </trkpt>
      <trkpt lat="46.82285" lon="8.41068">
        <ele>1066</ele>
        <time>2021-08-13T09:22:56.393Z</time>
      </trkpt>
      <trkpt lat="46.82285" lon="8.41065">
        <ele>1065</ele>
        <time>2021-08-13T09:22:57.392Z</time>
      </trkpt>
      <trkpt lat="46.82284" lon="8.41062">
        <ele>1065</ele>
        <time>2021-08-13T09:22:58.393Z</time>
      </trkpt>
      <trkpt lat="46.82284" lon="8.4106">
        <ele>1064</ele>
        <time>2021-08-13T09:22:59.392Z</time>
      </trkpt>
      <trkpt lat="46.82283" lon="8.41058">
        <ele>1064</ele>
        <time>2021-08-13T09:23:00.393Z</time>
      </trkpt>
      <trkpt lat="46.82282" lon="8.41056">
        <ele>1064</ele>
        <time>2021-08-13T09:23:01.392Z</time>
      </trkpt>
      <trkpt lat="46.82282" lon="8.41054">
        <ele>1064</ele>
        <time>2021-08-13T09:23:02.393Z</time>
      </trkpt>
      <trkpt lat="46.82282" lon="8.41052">
        <ele>1064</ele>
        <time>2021-08-13T09:23:03.392Z</time>
      </trkpt>
      <trkpt lat="46.82282" lon="8.41049">
        <ele>1064</ele>
        <time>2021-08-13T09:23:04.393Z</time>
      </trkpt>
      <trkpt lat="46.82281" lon="8.41047">
        <ele>1063</ele>
        <time>2021-08-13T09:23:05.393Z</time>
      </trkpt>
      <trkpt lat="46.82281" lon="8.41046">
        <ele>1063</ele>
        <time>2021-08-13T09:23:06.393Z</time>
      </trkpt>
      <trkpt lat="46.82279" lon="8.41044">
        <ele>1063</ele>
        <time>2021-08-13T09:23:07.393Z</time>
      </trkpt>
      <trkpt lat="46.8228" lon="8.41042">
        <ele>1063</ele>
        <time>2021-08-13T09:23:08.393Z</time>
      </trkpt>
      <trkpt lat="46.82279" lon="8.4104">
        <ele>1063</ele>
        <time>2021-08-13T09:23:09.392Z</time>
      </trkpt>
      <trkpt lat="46.82279" lon="8.41038">
        <ele>1063</ele>
        <time>2021-08-13T09:23:10.392Z</time>
      </trkpt>
      <trkpt lat="46.82278" lon="8.41037">
        <ele>1062</ele>
        <time>2021-08-13T09:23:11.393Z</time>
      </trkpt>
      <trkpt lat="46.82278" lon="8.41036">
        <ele>1062</ele>
        <time>2021-08-13T09:23:12.393Z</time>
      </trkpt>
      <trkpt lat="46.82277" lon="8.41036">
        <ele>1062</ele>
        <time>2021-08-13T09:23:13.393Z</time>
      </trkpt>
      <trkpt lat="46.82276" lon="8.41035">
        <ele>1062</ele>
        <time>2021-08-13T09:23:14.393Z</time>
      </trkpt>
      <trkpt lat="46.82274" lon="8.41034">
        <ele>1062</ele>
        <time>2021-08-13T09:23:15.393Z</time>
      </trkpt>
      <trkpt lat="46.82272" lon="8.41034">
        <ele>1062</ele>
        <time>2021-08-13T09:23:16.393Z</time>
      </trkpt>
      <trkpt lat="46.82269" lon="8.41033">
        <ele>1063</ele>
        <time>2021-08-13T09:23:17.393Z</time>
      </trkpt>
      <trkpt lat="46.82267" lon="8.41034">
        <ele>1063</ele>
        <time>2021-08-13T09:23:18.393Z</time>
      </trkpt>
      <trkpt lat="46.82266" lon="8.41035">
        <ele>1064</ele>
        <time>2021-08-13T09:23:19.392Z</time>
      </trkpt>
      <trkpt lat="46.82265" lon="8.41036">
        <ele>1064</ele>
        <time>2021-08-13T09:23:20.392Z</time>
      </trkpt>
      <trkpt lat="46.82264" lon="8.41037">
        <ele>1064</ele>
        <time>2021-08-13T09:23:39.483Z</time>
      </trkpt>
      <trkpt lat="46.82263" lon="8.41038">
        <ele>1064</ele>
        <time>2021-08-13T09:24:34.350Z</time>
      </trkpt>
      <trkpt lat="46.82262" lon="8.41039">
        <ele>1064</ele>
        <time>2021-08-13T09:24:35.351Z</time>
      </trkpt>
      <trkpt lat="46.82262" lon="8.4104">
        <ele>1064</ele>
        <time>2021-08-13T09:24:36.351Z</time>
      </trkpt>
      <trkpt lat="46.82262" lon="8.4104">
        <ele>1064</ele>
        <time>2021-08-13T09:24:37.351Z</time>
      </trkpt>
      <trkpt lat="46.82261" lon="8.41042">
        <ele>1065</ele>
        <time>2021-08-13T09:24:38.351Z</time>
      </trkpt>
      <trkpt lat="46.8226" lon="8.41042">
        <ele>1071</ele>
        <time>2021-08-13T09:24:39.352Z</time>
      </trkpt>
      <trkpt lat="46.82259" lon="8.41042">
        <ele>1072</ele>
        <time>2021-08-13T09:24:40.351Z</time>
      </trkpt>
      <trkpt lat="46.82259" lon="8.41042">
        <ele>1072</ele>
        <time>2021-08-13T09:24:41.351Z</time>
      </trkpt>
      <trkpt lat="46.82259" lon="8.4104">
        <ele>1069</ele>
        <time>2021-08-13T09:24:42.352Z</time>
      </trkpt>
      <trkpt lat="46.82259" lon="8.4104">
        <ele>1069</ele>
        <time>2021-08-13T09:24:43.351Z</time>
      </trkpt>
      <trkpt lat="46.8226" lon="8.4104">
        <ele>1068</ele>
        <time>2021-08-13T09:24:44.351Z</time>
      </trkpt>
      <trkpt lat="46.8226" lon="8.41043">
        <ele>1067</ele>
        <time>2021-08-13T09:24:45.352Z</time>
      </trkpt>
      <trkpt lat="46.8226" lon="8.41043">
        <ele>1067</ele>
        <time>2021-08-13T09:24:46.352Z</time>
      </trkpt>
      <trkpt lat="46.8226" lon="8.41045">
        <ele>1068</ele>
        <time>2021-08-13T09:24:47.353Z</time>
      </trkpt>
      <trkpt lat="46.8226" lon="8.41045">
        <ele>1068</ele>
        <time>2021-08-13T09:24:48.353Z</time>
      </trkpt>
      <trkpt lat="46.8226" lon="8.41045">
        <ele>1068</ele>
        <time>2021-08-13T09:24:49.352Z</time>
      </trkpt>
      <trkpt lat="46.82258" lon="8.41046">
        <ele>1066</ele>
        <time>2021-08-13T09:24:50.354Z</time>
      </trkpt>
      <trkpt lat="46.82257" lon="8.41047">
        <ele>1065</ele>
        <time>2021-08-13T09:24:51.354Z</time>
      </trkpt>
      <trkpt lat="46.82257" lon="8.41047">
        <ele>1064</ele>
        <time>2021-08-13T09:24:52.353Z</time>
      </trkpt>
      <trkpt lat="46.82256" lon="8.41048">
        <ele>1064</ele>
        <time>2021-08-13T09:24:53.353Z</time>
      </trkpt>
      <trkpt lat="46.82255" lon="8.41048">
        <ele>1063</ele>
        <time>2021-08-13T09:24:54.353Z</time>
      </trkpt>
      <trkpt lat="46.82253" lon="8.41048">
        <ele>1062</ele>
        <time>2021-08-13T09:24:55.353Z</time>
      </trkpt>
      <trkpt lat="46.82252" lon="8.41048">
        <ele>1062</ele>
        <time>2021-08-13T09:24:56.354Z</time>
      </trkpt>
      <trkpt lat="46.82251" lon="8.41047">
        <ele>1061</ele>
        <time>2021-08-13T09:24:57.354Z</time>
      </trkpt>
      <trkpt lat="46.82251" lon="8.41046">
        <ele>1061</ele>
        <time>2021-08-13T09:24:58.354Z</time>
      </trkpt>
      <trkpt lat="46.8225" lon="8.41044">
        <ele>1060</ele>
        <time>2021-08-13T09:24:59.354Z</time>
      </trkpt>
      <trkpt lat="46.8225" lon="8.41043">
        <ele>1059</ele>
        <time>2021-08-13T09:25:00.353Z</time>
      </trkpt>
      <trkpt lat="46.8225" lon="8.41041">
        <ele>1059</ele>
        <time>2021-08-13T09:25:01.354Z</time>
      </trkpt>
      <trkpt lat="46.82251" lon="8.41039">
        <ele>1058</ele>
        <time>2021-08-13T09:25:02.354Z</time>
      </trkpt>
      <trkpt lat="46.82251" lon="8.41037">
        <ele>1058</ele>
        <time>2021-08-13T09:25:03.354Z</time>
      </trkpt>
      <trkpt lat="46.82251" lon="8.41036">
        <ele>1057</ele>
        <time>2021-08-13T09:25:04.354Z</time>
      </trkpt>
      <trkpt lat="46.82251" lon="8.41035">
        <ele>1057</ele>
        <time>2021-08-13T09:25:05.353Z</time>
      </trkpt>
      <trkpt lat="46.82251" lon="8.41033">
        <ele>1057</ele>
        <time>2021-08-13T09:25:06.354Z</time>
      </trkpt>
      <trkpt lat="46.8225" lon="8.41032">
        <ele>1057</ele>
        <time>2021-08-13T09:25:07.354Z</time>
      </trkpt>
      <trkpt lat="46.8225" lon="8.41031">
        <ele>1057</ele>
        <time>2021-08-13T09:25:08.353Z</time>
      </trkpt>
      <trkpt lat="46.8225" lon="8.41029">
        <ele>1057</ele>
        <time>2021-08-13T09:25:09.353Z</time>
      </trkpt>
      <trkpt lat="46.8225" lon="8.41029">
        <ele>1057</ele>
        <time>2021-08-13T09:25:10.354Z</time>
      </trkpt>
      <trkpt lat="46.8225" lon="8.41028">
        <ele>1057</ele>
        <time>2021-08-13T09:25:11.354Z</time>
      </trkpt>
      <trkpt lat="46.82249" lon="8.41027">
        <ele>1057</ele>
        <time>2021-08-13T09:25:12.354Z</time>
      </trkpt>
      <trkpt lat="46.82249" lon="8.41026">
        <ele>1057</ele>
        <time>2021-08-13T09:25:13.353Z</time>
      </trkpt>
      <trkpt lat="46.82249" lon="8.41025">
        <ele>1057</ele>
        <time>2021-08-13T09:25:14.354Z</time>
      </trkpt>
      <trkpt lat="46.82249" lon="8.41024">
        <ele>1057</ele>
        <time>2021-08-13T09:25:15.354Z</time>
      </trkpt>
      <trkpt lat="46.82249" lon="8.41022">
        <ele>1057</ele>
        <time>2021-08-13T09:25:16.353Z</time>
      </trkpt>
      <trkpt lat="46.8225" lon="8.4102">
        <ele>1057</ele>
        <time>2021-08-13T09:25:17.354Z</time>
      </trkpt>
      <trkpt lat="46.8225" lon="8.41018">
        <ele>1057</ele>
        <time>2021-08-13T09:25:18.353Z</time>
      </trkpt>
      <trkpt lat="46.82249" lon="8.41017">
        <ele>1056</ele>
        <time>2021-08-13T09:25:19.354Z</time>
      </trkpt>
      <trkpt lat="46.82248" lon="8.41016">
        <ele>1056</ele>
        <time>2021-08-13T09:25:20.353Z</time>
      </trkpt>
      <trkpt lat="46.82247" lon="8.41015">
        <ele>1055</ele>
        <time>2021-08-13T09:25:21.354Z</time>
      </trkpt>
      <trkpt lat="46.82247" lon="8.41015">
        <ele>1055</ele>
        <time>2021-08-13T09:25:22.354Z</time>
      </trkpt>
      <trkpt lat="46.82246" lon="8.41014">
        <ele>1055</ele>
        <time>2021-08-13T09:25:23.354Z</time>
      </trkpt>
      <trkpt lat="46.82246" lon="8.41014">
        <ele>1055</ele>
        <time>2021-08-13T09:25:24.354Z</time>
      </trkpt>
      <trkpt lat="46.82245" lon="8.41013">
        <ele>1055</ele>
        <time>2021-08-13T09:25:25.353Z</time>
      </trkpt>
      <trkpt lat="46.82243" lon="8.41012">
        <ele>1056</ele>
        <time>2021-08-13T09:25:26.355Z</time>
      </trkpt>
      <trkpt lat="46.82242" lon="8.41012">
        <ele>1056</ele>
        <time>2021-08-13T09:25:27.354Z</time>
      </trkpt>
      <trkpt lat="46.82242" lon="8.41012">
        <ele>1056</ele>
        <time>2021-08-13T09:25:28.354Z</time>
      </trkpt>
      <trkpt lat="46.82241" lon="8.41012">
        <ele>1056</ele>
        <time>2021-08-13T09:25:29.354Z</time>
      </trkpt>
      <trkpt lat="46.8224" lon="8.41011">
        <ele>1056</ele>
        <time>2021-08-13T09:25:30.355Z</time>
      </trkpt>
      <trkpt lat="46.8224" lon="8.41011">
        <ele>1056</ele>
        <time>2021-08-13T09:25:31.355Z</time>
      </trkpt>
      <trkpt lat="46.82239" lon="8.41011">
        <ele>1056</ele>
        <time>2021-08-13T09:25:32.354Z</time>
      </trkpt>
      <trkpt lat="46.82239" lon="8.41011">
        <ele>1056</ele>
        <time>2021-08-13T09:25:33.355Z</time>
      </trkpt>
      <trkpt lat="46.82238" lon="8.41011">
        <ele>1056</ele>
        <time>2021-08-13T09:25:34.354Z</time>
      </trkpt>
      <trkpt lat="46.82237" lon="8.41011">
        <ele>1056</ele>
        <time>2021-08-13T09:25:35.355Z</time>
      </trkpt>
      <trkpt lat="46.82236" lon="8.41011">
        <ele>1056</ele>
        <time>2021-08-13T09:25:36.355Z</time>
      </trkpt>
      <trkpt lat="46.82236" lon="8.4101">
        <ele>1056</ele>
        <time>2021-08-13T09:25:37.354Z</time>
      </trkpt>
      <trkpt lat="46.82235" lon="8.41009">
        <ele>1056</ele>
        <time>2021-08-13T09:25:38.355Z</time>
      </trkpt>
      <trkpt lat="46.82234" lon="8.41009">
        <ele>1056</ele>
        <time>2021-08-13T09:25:39.354Z</time>
      </trkpt>
      <trkpt lat="46.82233" lon="8.41008">
        <ele>1056</ele>
        <time>2021-08-13T09:25:40.355Z</time>
      </trkpt>
      <trkpt lat="46.82232" lon="8.41008">
        <ele>1056</ele>
        <time>2021-08-13T09:25:41.355Z</time>
      </trkpt>
      <trkpt lat="46.82231" lon="8.41008">
        <ele>1056</ele>
        <time>2021-08-13T09:25:42.355Z</time>
      </trkpt>
      <trkpt lat="46.82231" lon="8.41007">
        <ele>1055</ele>
        <time>2021-08-13T09:25:43.355Z</time>
      </trkpt>
      <trkpt lat="46.82231" lon="8.41006">
        <ele>1055</ele>
        <time>2021-08-13T09:25:44.355Z</time>
      </trkpt>
      <trkpt lat="46.82231" lon="8.41005">
        <ele>1055</ele>
        <time>2021-08-13T09:25:45.355Z</time>
      </trkpt>
      <trkpt lat="46.82231" lon="8.41004">
        <ele>1055</ele>
        <time>2021-08-13T09:25:46.354Z</time>
      </trkpt>
      <trkpt lat="46.8223" lon="8.41003">
        <ele>1055</ele>
        <time>2021-08-13T09:25:47.355Z</time>
      </trkpt>
      <trkpt lat="46.82229" lon="8.41003">
        <ele>1055</ele>
        <time>2021-08-13T09:25:48.355Z</time>
      </trkpt>
      <trkpt lat="46.82227" lon="8.41002">
        <ele>1055</ele>
        <time>2021-08-13T09:25:49.355Z</time>
      </trkpt>
      <trkpt lat="46.82226" lon="8.41001">
        <ele>1055</ele>
        <time>2021-08-13T09:25:50.354Z</time>
      </trkpt>
      <trkpt lat="46.82226" lon="8.41">
        <ele>1055</ele>
        <time>2021-08-13T09:25:51.355Z</time>
      </trkpt>
      <trkpt lat="46.82226" lon="8.40999">
        <ele>1055</ele>
        <time>2021-08-13T09:25:52.355Z</time>
      </trkpt>
      <trkpt lat="46.82225" lon="8.40998">
        <ele>1055</ele>
        <time>2021-08-13T09:25:53.354Z</time>
      </trkpt>
      <trkpt lat="46.82224" lon="8.40997">
        <ele>1055</ele>
        <time>2021-08-13T09:25:54.355Z</time>
      </trkpt>
      <trkpt lat="46.82223" lon="8.40996">
        <ele>1055</ele>
        <time>2021-08-13T09:25:55.355Z</time>
      </trkpt>
      <trkpt lat="46.82222" lon="8.40996">
        <ele>1054</ele>
        <time>2021-08-13T09:25:56.355Z</time>
      </trkpt>
      <trkpt lat="46.82221" lon="8.40995">
        <ele>1054</ele>
        <time>2021-08-13T09:25:57.355Z</time>
      </trkpt>
      <trkpt lat="46.8222" lon="8.40995">
        <ele>1054</ele>
        <time>2021-08-13T09:25:58.355Z</time>
      </trkpt>
      <trkpt lat="46.82219" lon="8.40994">
        <ele>1054</ele>
        <time>2021-08-13T09:25:59.355Z</time>
      </trkpt>
      <trkpt lat="46.82218" lon="8.40993">
        <ele>1054</ele>
        <time>2021-08-13T09:26:00.354Z</time>
      </trkpt>
      <trkpt lat="46.82217" lon="8.40992">
        <ele>1053</ele>
        <time>2021-08-13T09:26:01.354Z</time>
      </trkpt>
      <trkpt lat="46.82217" lon="8.40992">
        <ele>1053</ele>
        <time>2021-08-13T09:26:02.355Z</time>
      </trkpt>
      <trkpt lat="46.82216" lon="8.40991">
        <ele>1052</ele>
        <time>2021-08-13T09:26:03.355Z</time>
      </trkpt>
      <trkpt lat="46.82216" lon="8.4099">
        <ele>1052</ele>
        <time>2021-08-13T09:26:04.354Z</time>
      </trkpt>
      <trkpt lat="46.82215" lon="8.40989">
        <ele>1051</ele>
        <time>2021-08-13T09:26:05.355Z</time>
      </trkpt>
      <trkpt lat="46.82215" lon="8.40989">
        <ele>1051</ele>
        <time>2021-08-13T09:26:06.355Z</time>
      </trkpt>
      <trkpt lat="46.82214" lon="8.40988">
        <ele>1050</ele>
        <time>2021-08-13T09:26:07.354Z</time>
      </trkpt>
      <trkpt lat="46.82213" lon="8.40988">
        <ele>1049</ele>
        <time>2021-08-13T09:26:08.355Z</time>
      </trkpt>
      <trkpt lat="46.82213" lon="8.40987">
        <ele>1049</ele>
        <time>2021-08-13T09:26:09.354Z</time>
      </trkpt>
      <trkpt lat="46.82212" lon="8.40987">
        <ele>1048</ele>
        <time>2021-08-13T09:26:10.354Z</time>
      </trkpt>
      <trkpt lat="46.82211" lon="8.40986">
        <ele>1047</ele>
        <time>2021-08-13T09:26:11.355Z</time>
      </trkpt>
      <trkpt lat="46.8221" lon="8.40986">
        <ele>1047</ele>
        <time>2021-08-13T09:26:12.354Z</time>
      </trkpt>
      <trkpt lat="46.82208" lon="8.40985">
        <ele>1047</ele>
        <time>2021-08-13T09:26:13.355Z</time>
      </trkpt>
      <trkpt lat="46.82207" lon="8.40984">
        <ele>1046</ele>
        <time>2021-08-13T09:26:14.354Z</time>
      </trkpt>
      <trkpt lat="46.82206" lon="8.40983">
        <ele>1046</ele>
        <time>2021-08-13T09:26:15.355Z</time>
      </trkpt>
      <trkpt lat="46.82205" lon="8.40981">
        <ele>1045</ele>
        <time>2021-08-13T09:26:16.355Z</time>
      </trkpt>
      <trkpt lat="46.82204" lon="8.4098">
        <ele>1045</ele>
        <time>2021-08-13T09:26:17.355Z</time>
      </trkpt>
      <trkpt lat="46.82204" lon="8.4098">
        <ele>1044</ele>
        <time>2021-08-13T09:26:18.355Z</time>
      </trkpt>
      <trkpt lat="46.82203" lon="8.40981">
        <ele>1043</ele>
        <time>2021-08-13T09:26:19.354Z</time>
      </trkpt>
      <trkpt lat="46.82202" lon="8.4098">
        <ele>1043</ele>
        <time>2021-08-13T09:26:20.354Z</time>
      </trkpt>
      <trkpt lat="46.82202" lon="8.4098">
        <ele>1042</ele>
        <time>2021-08-13T09:26:21.355Z</time>
      </trkpt>
      <trkpt lat="46.82201" lon="8.4098">
        <ele>1042</ele>
        <time>2021-08-13T09:26:22.354Z</time>
      </trkpt>
      <trkpt lat="46.82201" lon="8.40979">
        <ele>1042</ele>
        <time>2021-08-13T09:26:23.355Z</time>
      </trkpt>
      <trkpt lat="46.822" lon="8.40978">
        <ele>1042</ele>
        <time>2021-08-13T09:26:24.355Z</time>
      </trkpt>
      <trkpt lat="46.822" lon="8.40977">
        <ele>1042</ele>
        <time>2021-08-13T09:26:25.354Z</time>
      </trkpt>
      <trkpt lat="46.82198" lon="8.40975">
        <ele>1041</ele>
        <time>2021-08-13T09:26:26.355Z</time>
      </trkpt>
      <trkpt lat="46.82197" lon="8.40973">
        <ele>1041</ele>
        <time>2021-08-13T09:26:27.355Z</time>
      </trkpt>
      <trkpt lat="46.82196" lon="8.40972">
        <ele>1041</ele>
        <time>2021-08-13T09:26:28.355Z</time>
      </trkpt>
      <trkpt lat="46.82195" lon="8.40971">
        <ele>1040</ele>
        <time>2021-08-13T09:26:29.355Z</time>
      </trkpt>
      <trkpt lat="46.82194" lon="8.4097">
        <ele>1040</ele>
        <time>2021-08-13T09:26:30.355Z</time>
      </trkpt>
      <trkpt lat="46.82193" lon="8.40969">
        <ele>1040</ele>
        <time>2021-08-13T09:26:31.355Z</time>
      </trkpt>
      <trkpt lat="46.82193" lon="8.40968">
        <ele>1040</ele>
        <time>2021-08-13T09:26:32.355Z</time>
      </trkpt>
      <trkpt lat="46.82192" lon="8.40967">
        <ele>1040</ele>
        <time>2021-08-13T09:26:33.354Z</time>
      </trkpt>
      <trkpt lat="46.8219" lon="8.40967">
        <ele>1039</ele>
        <time>2021-08-13T09:26:34.355Z</time>
      </trkpt>
      <trkpt lat="46.82189" lon="8.40966">
        <ele>1039</ele>
        <time>2021-08-13T09:26:55.537Z</time>
      </trkpt>
      <trkpt lat="46.82188" lon="8.40965">
        <ele>1038</ele>
        <time>2021-08-13T09:26:56.536Z</time>
      </trkpt>
      <trkpt lat="46.82187" lon="8.40964">
        <ele>1038</ele>
        <time>2021-08-13T09:26:57.536Z</time>
      </trkpt>
      <trkpt lat="46.82186" lon="8.40963">
        <ele>1038</ele>
        <time>2021-08-13T09:26:58.537Z</time>
      </trkpt>
      <trkpt lat="46.82184" lon="8.40963">
        <ele>1038</ele>
        <time>2021-08-13T09:26:59.537Z</time>
      </trkpt>
      <trkpt lat="46.82183" lon="8.40962">
        <ele>1038</ele>
        <time>2021-08-13T09:27:00.537Z</time>
      </trkpt>
      <trkpt lat="46.82182" lon="8.40962">
        <ele>1037</ele>
        <time>2021-08-13T09:27:01.537Z</time>
      </trkpt>
      <trkpt lat="46.82181" lon="8.40961">
        <ele>1037</ele>
        <time>2021-08-13T09:27:02.536Z</time>
      </trkpt>
      <trkpt lat="46.82181" lon="8.40961">
        <ele>1037</ele>
        <time>2021-08-13T09:27:03.536Z</time>
      </trkpt>
      <trkpt lat="46.82182" lon="8.4096">
        <ele>1036</ele>
        <time>2021-08-13T09:27:04.537Z</time>
      </trkpt>
      <trkpt lat="46.82182" lon="8.40959">
        <ele>1036</ele>
        <time>2021-08-13T09:27:05.537Z</time>
      </trkpt>
      <trkpt lat="46.82181" lon="8.40959">
        <ele>1036</ele>
        <time>2021-08-13T09:27:06.536Z</time>
      </trkpt>
      <trkpt lat="46.8218" lon="8.40958">
        <ele>1036</ele>
        <time>2021-08-13T09:27:07.537Z</time>
      </trkpt>
      <trkpt lat="46.8218" lon="8.40957">
        <ele>1036</ele>
        <time>2021-08-13T09:27:08.537Z</time>
      </trkpt>
      <trkpt lat="46.82179" lon="8.40956">
        <ele>1037</ele>
        <time>2021-08-13T09:27:09.537Z</time>
      </trkpt>
      <trkpt lat="46.82178" lon="8.40956">
        <ele>1037</ele>
        <time>2021-08-13T09:27:10.537Z</time>
      </trkpt>
      <trkpt lat="46.82178" lon="8.40955">
        <ele>1037</ele>
        <time>2021-08-13T09:27:11.537Z</time>
      </trkpt>
      <trkpt lat="46.82177" lon="8.40955">
        <ele>1037</ele>
        <time>2021-08-13T09:27:12.536Z</time>
      </trkpt>
      <trkpt lat="46.82175" lon="8.40955">
        <ele>1037</ele>
        <time>2021-08-13T09:27:13.537Z</time>
      </trkpt>
      <trkpt lat="46.82174" lon="8.40954">
        <ele>1036</ele>
        <time>2021-08-13T09:27:14.537Z</time>
      </trkpt>
      <trkpt lat="46.82173" lon="8.40953">
        <ele>1037</ele>
        <time>2021-08-13T09:27:15.537Z</time>
      </trkpt>
      <trkpt lat="46.82173" lon="8.40953">
        <ele>1037</ele>
        <time>2021-08-13T09:27:16.536Z</time>
      </trkpt>
      <trkpt lat="46.82172" lon="8.40952">
        <ele>1037</ele>
        <time>2021-08-13T09:27:17.536Z</time>
      </trkpt>
      <trkpt lat="46.82171" lon="8.40951">
        <ele>1037</ele>
        <time>2021-08-13T09:27:18.537Z</time>
      </trkpt>
      <trkpt lat="46.8217" lon="8.40951">
        <ele>1037</ele>
        <time>2021-08-13T09:27:19.537Z</time>
      </trkpt>
      <trkpt lat="46.82169" lon="8.4095">
        <ele>1037</ele>
        <time>2021-08-13T09:27:20.537Z</time>
      </trkpt>
      <trkpt lat="46.82169" lon="8.40949">
        <ele>1037</ele>
        <time>2021-08-13T09:27:21.537Z</time>
      </trkpt>
      <trkpt lat="46.82168" lon="8.40949">
        <ele>1036</ele>
        <time>2021-08-13T09:27:22.537Z</time>
      </trkpt>
      <trkpt lat="46.82167" lon="8.40948">
        <ele>1036</ele>
        <time>2021-08-13T09:27:23.536Z</time>
      </trkpt>
      <trkpt lat="46.82166" lon="8.40947">
        <ele>1035</ele>
        <time>2021-08-13T09:27:24.536Z</time>
      </trkpt>
      <trkpt lat="46.82165" lon="8.40946">
        <ele>1035</ele>
        <time>2021-08-13T09:27:25.536Z</time>
      </trkpt>
      <trkpt lat="46.82165" lon="8.40946">
        <ele>1034</ele>
        <time>2021-08-13T09:27:26.537Z</time>
      </trkpt>
      <trkpt lat="46.82164" lon="8.40945">
        <ele>1034</ele>
        <time>2021-08-13T09:27:27.536Z</time>
      </trkpt>
      <trkpt lat="46.82164" lon="8.40944">
        <ele>1034</ele>
        <time>2021-08-13T09:27:28.536Z</time>
      </trkpt>
      <trkpt lat="46.82164" lon="8.40944">
        <ele>1034</ele>
        <time>2021-08-13T09:27:29.536Z</time>
      </trkpt>
      <trkpt lat="46.82163" lon="8.40943">
        <ele>1033</ele>
        <time>2021-08-13T09:27:30.537Z</time>
      </trkpt>
      <trkpt lat="46.82162" lon="8.40942">
        <ele>1033</ele>
        <time>2021-08-13T09:27:31.537Z</time>
      </trkpt>
      <trkpt lat="46.82161" lon="8.40941">
        <ele>1033</ele>
        <time>2021-08-13T09:27:32.537Z</time>
      </trkpt>
      <trkpt lat="46.82159" lon="8.4094">
        <ele>1033</ele>
        <time>2021-08-13T09:27:33.536Z</time>
      </trkpt>
      <trkpt lat="46.82158" lon="8.40939">
        <ele>1033</ele>
        <time>2021-08-13T09:27:34.537Z</time>
      </trkpt>
      <trkpt lat="46.82157" lon="8.40938">
        <ele>1032</ele>
        <time>2021-08-13T09:27:35.537Z</time>
      </trkpt>
      <trkpt lat="46.82157" lon="8.40938">
        <ele>1032</ele>
        <time>2021-08-13T09:27:36.537Z</time>
      </trkpt>
      <trkpt lat="46.82156" lon="8.40937">
        <ele>1032</ele>
        <time>2021-08-13T09:27:37.537Z</time>
      </trkpt>
      <trkpt lat="46.82155" lon="8.40936">
        <ele>1031</ele>
        <time>2021-08-13T09:27:38.536Z</time>
      </trkpt>
      <trkpt lat="46.82154" lon="8.40936">
        <ele>1031</ele>
        <time>2021-08-13T09:27:39.537Z</time>
      </trkpt>
      <trkpt lat="46.82153" lon="8.40935">
        <ele>1031</ele>
        <time>2021-08-13T09:27:40.537Z</time>
      </trkpt>
      <trkpt lat="46.82152" lon="8.40934">
        <ele>1031</ele>
        <time>2021-08-13T09:27:41.536Z</time>
      </trkpt>
      <trkpt lat="46.82151" lon="8.40933">
        <ele>1031</ele>
        <time>2021-08-13T09:27:42.537Z</time>
      </trkpt>
      <trkpt lat="46.8215" lon="8.40932">
        <ele>1031</ele>
        <time>2021-08-13T09:27:43.536Z</time>
      </trkpt>
      <trkpt lat="46.82149" lon="8.40932">
        <ele>1031</ele>
        <time>2021-08-13T09:27:44.536Z</time>
      </trkpt>
      <trkpt lat="46.82148" lon="8.40931">
        <ele>1030</ele>
        <time>2021-08-13T09:27:45.537Z</time>
      </trkpt>
      <trkpt lat="46.82147" lon="8.4093">
        <ele>1030</ele>
        <time>2021-08-13T09:27:46.536Z</time>
      </trkpt>
      <trkpt lat="46.82146" lon="8.40929">
        <ele>1030</ele>
        <time>2021-08-13T09:27:47.536Z</time>
      </trkpt>
      <trkpt lat="46.82145" lon="8.40928">
        <ele>1030</ele>
        <time>2021-08-13T09:27:48.536Z</time>
      </trkpt>
      <trkpt lat="46.82144" lon="8.40927">
        <ele>1030</ele>
        <time>2021-08-13T09:27:49.537Z</time>
      </trkpt>
      <trkpt lat="46.82143" lon="8.40927">
        <ele>1030</ele>
        <time>2021-08-13T09:27:50.537Z</time>
      </trkpt>
      <trkpt lat="46.82141" lon="8.40926">
        <ele>1030</ele>
        <time>2021-08-13T09:27:51.537Z</time>
      </trkpt>
      <trkpt lat="46.8214" lon="8.40926">
        <ele>1030</ele>
        <time>2021-08-13T09:27:52.537Z</time>
      </trkpt>
      <trkpt lat="46.82139" lon="8.40925">
        <ele>1030</ele>
        <time>2021-08-13T09:27:53.536Z</time>
      </trkpt>
      <trkpt lat="46.82138" lon="8.40924">
        <ele>1030</ele>
        <time>2021-08-13T09:27:54.536Z</time>
      </trkpt>
      <trkpt lat="46.82137" lon="8.40923">
        <ele>1030</ele>
        <time>2021-08-13T09:27:55.537Z</time>
      </trkpt>
      <trkpt lat="46.82136" lon="8.40923">
        <ele>1030</ele>
        <time>2021-08-13T09:27:56.537Z</time>
      </trkpt>
      <trkpt lat="46.82134" lon="8.40922">
        <ele>1031</ele>
        <time>2021-08-13T09:27:57.536Z</time>
      </trkpt>
      <trkpt lat="46.82133" lon="8.4092">
        <ele>1031</ele>
        <time>2021-08-13T09:27:58.537Z</time>
      </trkpt>
      <trkpt lat="46.82132" lon="8.40919">
        <ele>1031</ele>
        <time>2021-08-13T09:27:59.536Z</time>
      </trkpt>
      <trkpt lat="46.82131" lon="8.40919">
        <ele>1031</ele>
        <time>2021-08-13T09:28:00.537Z</time>
      </trkpt>
      <trkpt lat="46.82131" lon="8.40918">
        <ele>1031</ele>
        <time>2021-08-13T09:28:01.536Z</time>
      </trkpt>
      <trkpt lat="46.8213" lon="8.40918">
        <ele>1030</ele>
        <time>2021-08-13T09:28:02.537Z</time>
      </trkpt>
      <trkpt lat="46.8213" lon="8.40917">
        <ele>1029</ele>
        <time>2021-08-13T09:28:03.537Z</time>
      </trkpt>
      <trkpt lat="46.82129" lon="8.40915">
        <ele>1029</ele>
        <time>2021-08-13T09:28:04.536Z</time>
      </trkpt>
      <trkpt lat="46.82128" lon="8.40914">
        <ele>1028</ele>
        <time>2021-08-13T09:28:05.537Z</time>
      </trkpt>
      <trkpt lat="46.82127" lon="8.40912">
        <ele>1027</ele>
        <time>2021-08-13T09:28:06.537Z</time>
      </trkpt>
      <trkpt lat="46.82126" lon="8.40911">
        <ele>1026</ele>
        <time>2021-08-13T09:28:07.537Z</time>
      </trkpt>
      <trkpt lat="46.82125" lon="8.4091">
        <ele>1026</ele>
        <time>2021-08-13T09:28:08.537Z</time>
      </trkpt>
      <trkpt lat="46.82125" lon="8.40909">
        <ele>1025</ele>
        <time>2021-08-13T09:28:09.536Z</time>
      </trkpt>
      <trkpt lat="46.82125" lon="8.40908">
        <ele>1024</ele>
        <time>2021-08-13T09:28:10.537Z</time>
      </trkpt>
      <trkpt lat="46.82124" lon="8.40906">
        <ele>1023</ele>
        <time>2021-08-13T09:28:11.537Z</time>
      </trkpt>
      <trkpt lat="46.82123" lon="8.40906">
        <ele>1023</ele>
        <time>2021-08-13T09:28:12.537Z</time>
      </trkpt>
      <trkpt lat="46.82123" lon="8.40904">
        <ele>1022</ele>
        <time>2021-08-13T09:28:13.536Z</time>
      </trkpt>
      <trkpt lat="46.82123" lon="8.40903">
        <ele>1022</ele>
        <time>2021-08-13T09:28:14.536Z</time>
      </trkpt>
      <trkpt lat="46.82123" lon="8.40901">
        <ele>1021</ele>
        <time>2021-08-13T09:28:15.537Z</time>
      </trkpt>
      <trkpt lat="46.82122" lon="8.40899">
        <ele>1020</ele>
        <time>2021-08-13T09:28:16.537Z</time>
      </trkpt>
      <trkpt lat="46.82121" lon="8.40897">
        <ele>1020</ele>
        <time>2021-08-13T09:28:17.536Z</time>
      </trkpt>
      <trkpt lat="46.82121" lon="8.40895">
        <ele>1019</ele>
        <time>2021-08-13T09:28:18.536Z</time>
      </trkpt>
      <trkpt lat="46.8212" lon="8.40894">
        <ele>1018</ele>
        <time>2021-08-13T09:28:19.537Z</time>
      </trkpt>
      <trkpt lat="46.82118" lon="8.40893">
        <ele>1018</ele>
        <time>2021-08-13T09:28:20.537Z</time>
      </trkpt>
      <trkpt lat="46.82117" lon="8.40891">
        <ele>1018</ele>
        <time>2021-08-13T09:28:21.536Z</time>
      </trkpt>
      <trkpt lat="46.82116" lon="8.4089">
        <ele>1017</ele>
        <time>2021-08-13T09:28:22.536Z</time>
      </trkpt>
      <trkpt lat="46.82115" lon="8.40888">
        <ele>1018</ele>
        <time>2021-08-13T09:28:23.537Z</time>
      </trkpt>
      <trkpt lat="46.82114" lon="8.40888">
        <ele>1018</ele>
        <time>2021-08-13T09:28:24.537Z</time>
      </trkpt>
      <trkpt lat="46.82114" lon="8.40886">
        <ele>1018</ele>
        <time>2021-08-13T09:28:25.537Z</time>
      </trkpt>
      <trkpt lat="46.82113" lon="8.40885">
        <ele>1019</ele>
        <time>2021-08-13T09:28:26.537Z</time>
      </trkpt>
      <trkpt lat="46.82112" lon="8.40884">
        <ele>1019</ele>
        <time>2021-08-13T09:28:27.537Z</time>
      </trkpt>
      <trkpt lat="46.82111" lon="8.40882">
        <ele>1019</ele>
        <time>2021-08-13T09:28:28.537Z</time>
      </trkpt>
      <trkpt lat="46.82111" lon="8.40881">
        <ele>1018</ele>
        <time>2021-08-13T09:28:29.537Z</time>
      </trkpt>
      <trkpt lat="46.8211" lon="8.40879">
        <ele>1018</ele>
        <time>2021-08-13T09:28:30.537Z</time>
      </trkpt>
      <trkpt lat="46.82109" lon="8.40878">
        <ele>1018</ele>
        <time>2021-08-13T09:28:31.536Z</time>
      </trkpt>
      <trkpt lat="46.82108" lon="8.40876">
        <ele>1017</ele>
        <time>2021-08-13T09:28:32.536Z</time>
      </trkpt>
      <trkpt lat="46.82108" lon="8.40875">
        <ele>1017</ele>
        <time>2021-08-13T09:28:33.537Z</time>
      </trkpt>
      <trkpt lat="46.82108" lon="8.40874">
        <ele>1017</ele>
        <time>2021-08-13T09:28:34.537Z</time>
      </trkpt>
      <trkpt lat="46.82107" lon="8.40872">
        <ele>1016</ele>
        <time>2021-08-13T09:28:35.536Z</time>
      </trkpt>
      <trkpt lat="46.82107" lon="8.40871">
        <ele>1016</ele>
        <time>2021-08-13T09:28:36.537Z</time>
      </trkpt>
      <trkpt lat="46.82106" lon="8.4087">
        <ele>1015</ele>
        <time>2021-08-13T09:28:37.537Z</time>
      </trkpt>
      <trkpt lat="46.82106" lon="8.40869">
        <ele>1015</ele>
        <time>2021-08-13T09:28:38.537Z</time>
      </trkpt>
      <trkpt lat="46.82106" lon="8.40868">
        <ele>1014</ele>
        <time>2021-08-13T09:28:39.536Z</time>
      </trkpt>
      <trkpt lat="46.82106" lon="8.40867">
        <ele>1014</ele>
        <time>2021-08-13T09:28:40.537Z</time>
      </trkpt>
      <trkpt lat="46.82106" lon="8.40866">
        <ele>1013</ele>
        <time>2021-08-13T09:28:41.536Z</time>
      </trkpt>
      <trkpt lat="46.82106" lon="8.40865">
        <ele>1013</ele>
        <time>2021-08-13T09:28:42.537Z</time>
      </trkpt>
      <trkpt lat="46.82107" lon="8.40864">
        <ele>1013</ele>
        <time>2021-08-13T09:28:43.537Z</time>
      </trkpt>
      <trkpt lat="46.82107" lon="8.40863">
        <ele>1013</ele>
        <time>2021-08-13T09:28:44.536Z</time>
      </trkpt>
      <trkpt lat="46.82108" lon="8.40861">
        <ele>1013</ele>
        <time>2021-08-13T09:28:45.536Z</time>
      </trkpt>
      <trkpt lat="46.82109" lon="8.4086">
        <ele>1013</ele>
        <time>2021-08-13T09:28:46.536Z</time>
      </trkpt>
      <trkpt lat="46.82109" lon="8.40858">
        <ele>1013</ele>
        <time>2021-08-13T09:28:47.537Z</time>
      </trkpt>
      <trkpt lat="46.82108" lon="8.40856">
        <ele>1014</ele>
        <time>2021-08-13T09:28:48.537Z</time>
      </trkpt>
      <trkpt lat="46.82108" lon="8.40854">
        <ele>1015</ele>
        <time>2021-08-13T09:28:49.536Z</time>
      </trkpt>
      <trkpt lat="46.82108" lon="8.40852">
        <ele>1015</ele>
        <time>2021-08-13T09:28:50.536Z</time>
      </trkpt>
      <trkpt lat="46.82107" lon="8.4085">
        <ele>1016</ele>
        <time>2021-08-13T09:28:51.537Z</time>
      </trkpt>
      <trkpt lat="46.82107" lon="8.40849">
        <ele>1017</ele>
        <time>2021-08-13T09:28:52.536Z</time>
      </trkpt>
      <trkpt lat="46.82107" lon="8.40848">
        <ele>1017</ele>
        <time>2021-08-13T09:28:53.537Z</time>
      </trkpt>
      <trkpt lat="46.82107" lon="8.40846">
        <ele>1018</ele>
        <time>2021-08-13T09:28:54.537Z</time>
      </trkpt>
      <trkpt lat="46.82107" lon="8.40844">
        <ele>1018</ele>
        <time>2021-08-13T09:28:55.537Z</time>
      </trkpt>
      <trkpt lat="46.82108" lon="8.40842">
        <ele>1019</ele>
        <time>2021-08-13T09:28:56.536Z</time>
      </trkpt>
      <trkpt lat="46.82109" lon="8.40841">
        <ele>1019</ele>
        <time>2021-08-13T09:28:57.537Z</time>
      </trkpt>
      <trkpt lat="46.82109" lon="8.4084">
        <ele>1019</ele>
        <time>2021-08-13T09:28:58.536Z</time>
      </trkpt>
      <trkpt lat="46.82109" lon="8.40839">
        <ele>1020</ele>
        <time>2021-08-13T09:28:59.537Z</time>
      </trkpt>
      <trkpt lat="46.8211" lon="8.40839">
        <ele>1020</ele>
        <time>2021-08-13T09:29:00.537Z</time>
      </trkpt>
      <trkpt lat="46.8211" lon="8.40837">
        <ele>1020</ele>
        <time>2021-08-13T09:29:01.537Z</time>
      </trkpt>
      <trkpt lat="46.8211" lon="8.40836">
        <ele>1020</ele>
        <time>2021-08-13T09:29:02.537Z</time>
      </trkpt>
      <trkpt lat="46.8211" lon="8.40836">
        <ele>1020</ele>
        <time>2021-08-13T09:29:03.537Z</time>
      </trkpt>
      <trkpt lat="46.82109" lon="8.40835">
        <ele>1020</ele>
        <time>2021-08-13T09:29:04.536Z</time>
      </trkpt>
      <trkpt lat="46.821" lon="8.40836">
        <ele>1021</ele>
        <time>2021-08-13T09:29:05.537Z</time>
      </trkpt>
      <trkpt lat="46.821" lon="8.40835">
        <ele>1021</ele>
        <time>2021-08-13T09:29:06.536Z</time>
      </trkpt>
      <trkpt lat="46.82101" lon="8.40834">
        <ele>1021</ele>
        <time>2021-08-13T09:29:07.536Z</time>
      </trkpt>
      <trkpt lat="46.82101" lon="8.40833">
        <ele>1021</ele>
        <time>2021-08-13T09:29:08.537Z</time>
      </trkpt>
      <trkpt lat="46.82102" lon="8.40832">
        <ele>1021</ele>
        <time>2021-08-13T09:29:09.537Z</time>
      </trkpt>
      <trkpt lat="46.82102" lon="8.40831">
        <ele>1021</ele>
        <time>2021-08-13T09:29:10.537Z</time>
      </trkpt>
      <trkpt lat="46.82102" lon="8.4083">
        <ele>1020</ele>
        <time>2021-08-13T09:29:11.537Z</time>
      </trkpt>
      <trkpt lat="46.82103" lon="8.40829">
        <ele>1020</ele>
        <time>2021-08-13T09:29:12.537Z</time>
      </trkpt>
      <trkpt lat="46.82103" lon="8.40828">
        <ele>1020</ele>
        <time>2021-08-13T09:29:13.537Z</time>
      </trkpt>
      <trkpt lat="46.82103" lon="8.40827">
        <ele>1021</ele>
        <time>2021-08-13T09:29:14.536Z</time>
      </trkpt>
      <trkpt lat="46.82104" lon="8.40826">
        <ele>1021</ele>
        <time>2021-08-13T09:29:15.537Z</time>
      </trkpt>
      <trkpt lat="46.82105" lon="8.40825">
        <ele>1021</ele>
        <time>2021-08-13T09:29:16.537Z</time>
      </trkpt>
      <trkpt lat="46.82105" lon="8.40824">
        <ele>1021</ele>
        <time>2021-08-13T09:29:17.537Z</time>
      </trkpt>
      <trkpt lat="46.82106" lon="8.40822">
        <ele>1021</ele>
        <time>2021-08-13T09:29:18.537Z</time>
      </trkpt>
      <trkpt lat="46.82107" lon="8.40819">
        <ele>1022</ele>
        <time>2021-08-13T09:29:19.537Z</time>
      </trkpt>
      <trkpt lat="46.82108" lon="8.40816">
        <ele>1022</ele>
        <time>2021-08-13T09:29:20.537Z</time>
      </trkpt>
      <trkpt lat="46.82108" lon="8.40814">
        <ele>1022</ele>
        <time>2021-08-13T09:29:21.537Z</time>
      </trkpt>
      <trkpt lat="46.8211" lon="8.40812">
        <ele>1021</ele>
        <time>2021-08-13T09:29:22.536Z</time>
      </trkpt>
      <trkpt lat="46.8211" lon="8.40811">
        <ele>1021</ele>
        <time>2021-08-13T09:29:23.536Z</time>
      </trkpt>
      <trkpt lat="46.8211" lon="8.40811">
        <ele>1021</ele>
        <time>2021-08-13T09:29:24.536Z</time>
      </trkpt>
      <trkpt lat="46.8211" lon="8.4081">
        <ele>1020</ele>
        <time>2021-08-13T09:29:25.537Z</time>
      </trkpt>
      <trkpt lat="46.82111" lon="8.40809">
        <ele>1019</ele>
        <time>2021-08-13T09:29:26.537Z</time>
      </trkpt>
      <trkpt lat="46.82111" lon="8.40808">
        <ele>1018</ele>
        <time>2021-08-13T09:29:27.536Z</time>
      </trkpt>
      <trkpt lat="46.82111" lon="8.40807">
        <ele>1018</ele>
        <time>2021-08-13T09:29:28.537Z</time>
      </trkpt>
      <trkpt lat="46.8211" lon="8.40806">
        <ele>1017</ele>
        <time>2021-08-13T09:29:29.536Z</time>
      </trkpt>
      <trkpt lat="46.8211" lon="8.40804">
        <ele>1017</ele>
        <time>2021-08-13T09:29:30.536Z</time>
      </trkpt>
      <trkpt lat="46.8211" lon="8.40803">
        <ele>1016</ele>
        <time>2021-08-13T09:29:31.537Z</time>
      </trkpt>
      <trkpt lat="46.8211" lon="8.40802">
        <ele>1016</ele>
        <time>2021-08-13T09:29:32.537Z</time>
      </trkpt>
      <trkpt lat="46.82109" lon="8.40801">
        <ele>1016</ele>
        <time>2021-08-13T09:29:33.537Z</time>
      </trkpt>
      <trkpt lat="46.82109" lon="8.40799">
        <ele>1016</ele>
        <time>2021-08-13T09:29:34.537Z</time>
      </trkpt>
      <trkpt lat="46.82109" lon="8.40798">
        <ele>1016</ele>
        <time>2021-08-13T09:29:35.537Z</time>
      </trkpt>
      <trkpt lat="46.82109" lon="8.40796">
        <ele>1016</ele>
        <time>2021-08-13T09:29:36.536Z</time>
      </trkpt>
      <trkpt lat="46.82109" lon="8.40794">
        <ele>1016</ele>
        <time>2021-08-13T09:29:37.537Z</time>
      </trkpt>
      <trkpt lat="46.8211" lon="8.40793">
        <ele>1016</ele>
        <time>2021-08-13T09:29:38.537Z</time>
      </trkpt>
      <trkpt lat="46.8211" lon="8.40791">
        <ele>1017</ele>
        <time>2021-08-13T09:29:39.537Z</time>
      </trkpt>
      <trkpt lat="46.8211" lon="8.4079">
        <ele>1017</ele>
        <time>2021-08-13T09:29:40.536Z</time>
      </trkpt>
      <trkpt lat="46.8211" lon="8.40789">
        <ele>1017</ele>
        <time>2021-08-13T09:29:41.536Z</time>
      </trkpt>
      <trkpt lat="46.82111" lon="8.40788">
        <ele>1018</ele>
        <time>2021-08-13T09:29:42.536Z</time>
      </trkpt>
      <trkpt lat="46.82111" lon="8.40787">
        <ele>1018</ele>
        <time>2021-08-13T09:29:43.536Z</time>
      </trkpt>
      <trkpt lat="46.82111" lon="8.40786">
        <ele>1018</ele>
        <time>2021-08-13T09:29:44.537Z</time>
      </trkpt>
      <trkpt lat="46.82111" lon="8.40784">
        <ele>1019</ele>
        <time>2021-08-13T09:29:45.537Z</time>
      </trkpt>
      <trkpt lat="46.82111" lon="8.40783">
        <ele>1020</ele>
        <time>2021-08-13T09:29:46.537Z</time>
      </trkpt>
      <trkpt lat="46.82112" lon="8.40782">
        <ele>1020</ele>
        <time>2021-08-13T09:29:47.537Z</time>
      </trkpt>
      <trkpt lat="46.82114" lon="8.40781">
        <ele>1021</ele>
        <time>2021-08-13T09:29:48.537Z</time>
      </trkpt>
      <trkpt lat="46.82115" lon="8.4078">
        <ele>1021</ele>
        <time>2021-08-13T09:29:49.537Z</time>
      </trkpt>
      <trkpt lat="46.82117" lon="8.40779">
        <ele>1022</ele>
        <time>2021-08-13T09:29:50.537Z</time>
      </trkpt>
      <trkpt lat="46.82118" lon="8.40778">
        <ele>1022</ele>
        <time>2021-08-13T09:29:51.537Z</time>
      </trkpt>
      <trkpt lat="46.82119" lon="8.40776">
        <ele>1022</ele>
        <time>2021-08-13T09:29:52.537Z</time>
      </trkpt>
      <trkpt lat="46.82119" lon="8.40775">
        <ele>1022</ele>
        <time>2021-08-13T09:29:53.537Z</time>
      </trkpt>
      <trkpt lat="46.8212" lon="8.40774">
        <ele>1022</ele>
        <time>2021-08-13T09:29:54.537Z</time>
      </trkpt>
      <trkpt lat="46.82121" lon="8.40773">
        <ele>1022</ele>
        <time>2021-08-13T09:29:55.537Z</time>
      </trkpt>
      <trkpt lat="46.82121" lon="8.40773">
        <ele>1022</ele>
        <time>2021-08-13T09:29:56.536Z</time>
      </trkpt>
      <trkpt lat="46.82121" lon="8.40772">
        <ele>1022</ele>
        <time>2021-08-13T09:29:57.537Z</time>
      </trkpt>
      <trkpt lat="46.82122" lon="8.40772">
        <ele>1022</ele>
        <time>2021-08-13T09:29:58.536Z</time>
      </trkpt>
      <trkpt lat="46.82121" lon="8.40771">
        <ele>1022</ele>
        <time>2021-08-13T09:29:59.537Z</time>
      </trkpt>
      <trkpt lat="46.82121" lon="8.4077">
        <ele>1022</ele>
        <time>2021-08-13T09:30:00.537Z</time>
      </trkpt>
      <trkpt lat="46.8212" lon="8.40769">
        <ele>1022</ele>
        <time>2021-08-13T09:30:01.536Z</time>
      </trkpt>
      <trkpt lat="46.8212" lon="8.40768">
        <ele>1022</ele>
        <time>2021-08-13T09:30:02.537Z</time>
      </trkpt>
      <trkpt lat="46.8212" lon="8.40767">
        <ele>1022</ele>
        <time>2021-08-13T09:30:03.537Z</time>
      </trkpt>
      <trkpt lat="46.82121" lon="8.40765">
        <ele>1022</ele>
        <time>2021-08-13T09:30:04.536Z</time>
      </trkpt>
      <trkpt lat="46.82121" lon="8.40764">
        <ele>1022</ele>
        <time>2021-08-13T09:30:05.537Z</time>
      </trkpt>
      <trkpt lat="46.82121" lon="8.40762">
        <ele>1022</ele>
        <time>2021-08-13T09:30:06.537Z</time>
      </trkpt>
      <trkpt lat="46.8212" lon="8.4076">
        <ele>1022</ele>
        <time>2021-08-13T09:30:07.537Z</time>
      </trkpt>
      <trkpt lat="46.82121" lon="8.40758">
        <ele>1023</ele>
        <time>2021-08-13T09:30:08.537Z</time>
      </trkpt>
      <trkpt lat="46.82122" lon="8.40758">
        <ele>1023</ele>
        <time>2021-08-13T09:30:09.536Z</time>
      </trkpt>
      <trkpt lat="46.82123" lon="8.40756">
        <ele>1023</ele>
        <time>2021-08-13T09:30:10.537Z</time>
      </trkpt>
      <trkpt lat="46.82123" lon="8.40754">
        <ele>1023</ele>
        <time>2021-08-13T09:30:11.537Z</time>
      </trkpt>
      <trkpt lat="46.82124" lon="8.40753">
        <ele>1023</ele>
        <time>2021-08-13T09:30:12.537Z</time>
      </trkpt>
      <trkpt lat="46.82124" lon="8.40752">
        <ele>1023</ele>
        <time>2021-08-13T09:30:13.537Z</time>
      </trkpt>
      <trkpt lat="46.82125" lon="8.40751">
        <ele>1023</ele>
        <time>2021-08-13T09:30:14.537Z</time>
      </trkpt>
      <trkpt lat="46.82125" lon="8.4075">
        <ele>1023</ele>
        <time>2021-08-13T09:30:15.537Z</time>
      </trkpt>
      <trkpt lat="46.82125" lon="8.40748">
        <ele>1023</ele>
        <time>2021-08-13T09:30:16.537Z</time>
      </trkpt>
      <trkpt lat="46.82125" lon="8.40746">
        <ele>1023</ele>
        <time>2021-08-13T09:30:17.536Z</time>
      </trkpt>
      <trkpt lat="46.82125" lon="8.40745">
        <ele>1023</ele>
        <time>2021-08-13T09:30:18.537Z</time>
      </trkpt>
      <trkpt lat="46.82125" lon="8.40743">
        <ele>1023</ele>
        <time>2021-08-13T09:30:19.537Z</time>
      </trkpt>
      <trkpt lat="46.82125" lon="8.40742">
        <ele>1022</ele>
        <time>2021-08-13T09:30:20.537Z</time>
      </trkpt>
      <trkpt lat="46.82126" lon="8.40741">
        <ele>1022</ele>
        <time>2021-08-13T09:30:21.536Z</time>
      </trkpt>
      <trkpt lat="46.82126" lon="8.4074">
        <ele>1022</ele>
        <time>2021-08-13T09:30:22.537Z</time>
      </trkpt>
      <trkpt lat="46.82126" lon="8.40738">
        <ele>1021</ele>
        <time>2021-08-13T09:30:23.537Z</time>
      </trkpt>
      <trkpt lat="46.82126" lon="8.40737">
        <ele>1021</ele>
        <time>2021-08-13T09:30:24.537Z</time>
      </trkpt>
      <trkpt lat="46.82127" lon="8.40735">
        <ele>1020</ele>
        <time>2021-08-13T09:30:25.537Z</time>
      </trkpt>
      <trkpt lat="46.82128" lon="8.40733">
        <ele>1020</ele>
        <time>2021-08-13T09:30:26.537Z</time>
      </trkpt>
      <trkpt lat="46.82129" lon="8.40732">
        <ele>1021</ele>
        <time>2021-08-13T09:30:27.537Z</time>
      </trkpt>
      <trkpt lat="46.82129" lon="8.4073">
        <ele>1021</ele>
        <time>2021-08-13T09:30:28.537Z</time>
      </trkpt>
      <trkpt lat="46.82129" lon="8.40729">
        <ele>1021</ele>
        <time>2021-08-13T09:30:29.536Z</time>
      </trkpt>
      <trkpt lat="46.82129" lon="8.40727">
        <ele>1022</ele>
        <time>2021-08-13T09:30:30.537Z</time>
      </trkpt>
      <trkpt lat="46.8213" lon="8.40726">
        <ele>1022</ele>
        <time>2021-08-13T09:30:31.536Z</time>
      </trkpt>
      <trkpt lat="46.82131" lon="8.40724">
        <ele>1022</ele>
        <time>2021-08-13T09:30:32.537Z</time>
      </trkpt>
      <trkpt lat="46.82132" lon="8.40722">
        <ele>1022</ele>
        <time>2021-08-13T09:30:33.537Z</time>
      </trkpt>
      <trkpt lat="46.82132" lon="8.40721">
        <ele>1022</ele>
        <time>2021-08-13T09:30:34.536Z</time>
      </trkpt>
      <trkpt lat="46.82133" lon="8.40719">
        <ele>1022</ele>
        <time>2021-08-13T09:30:35.536Z</time>
      </trkpt>
      <trkpt lat="46.82133" lon="8.40718">
        <ele>1022</ele>
        <time>2021-08-13T09:30:36.537Z</time>
      </trkpt>
      <trkpt lat="46.82134" lon="8.40716">
        <ele>1022</ele>
        <time>2021-08-13T09:30:37.537Z</time>
      </trkpt>
      <trkpt lat="46.82134" lon="8.40714">
        <ele>1022</ele>
        <time>2021-08-13T09:30:38.536Z</time>
      </trkpt>
      <trkpt lat="46.82134" lon="8.40713">
        <ele>1022</ele>
        <time>2021-08-13T09:30:39.536Z</time>
      </trkpt>
      <trkpt lat="46.82134" lon="8.40712">
        <ele>1022</ele>
        <time>2021-08-13T09:30:40.536Z</time>
      </trkpt>
      <trkpt lat="46.82134" lon="8.4071">
        <ele>1022</ele>
        <time>2021-08-13T09:30:41.536Z</time>
      </trkpt>
      <trkpt lat="46.82135" lon="8.40709">
        <ele>1022</ele>
        <time>2021-08-13T09:30:42.537Z</time>
      </trkpt>
      <trkpt lat="46.82135" lon="8.40708">
        <ele>1022</ele>
        <time>2021-08-13T09:30:43.536Z</time>
      </trkpt>
      <trkpt lat="46.82135" lon="8.40707">
        <ele>1022</ele>
        <time>2021-08-13T09:30:44.536Z</time>
      </trkpt>
      <trkpt lat="46.82135" lon="8.40706">
        <ele>1022</ele>
        <time>2021-08-13T09:30:45.537Z</time>
      </trkpt>
      <trkpt lat="46.82136" lon="8.40705">
        <ele>1022</ele>
        <time>2021-08-13T09:30:46.536Z</time>
      </trkpt>
      <trkpt lat="46.82136" lon="8.40704">
        <ele>1022</ele>
        <time>2021-08-13T09:30:47.537Z</time>
      </trkpt>
      <trkpt lat="46.82137" lon="8.40702">
        <ele>1022</ele>
        <time>2021-08-13T09:30:48.537Z</time>
      </trkpt>
      <trkpt lat="46.82137" lon="8.40701">
        <ele>1023</ele>
        <time>2021-08-13T09:30:49.536Z</time>
      </trkpt>
      <trkpt lat="46.82138" lon="8.407">
        <ele>1023</ele>
        <time>2021-08-13T09:30:50.537Z</time>
      </trkpt>
      <trkpt lat="46.82139" lon="8.40699">
        <ele>1024</ele>
        <time>2021-08-13T09:30:51.537Z</time>
      </trkpt>
      <trkpt lat="46.8214" lon="8.40698">
        <ele>1024</ele>
        <time>2021-08-13T09:30:52.537Z</time>
      </trkpt>
      <trkpt lat="46.82141" lon="8.40695">
        <ele>1025</ele>
        <time>2021-08-13T09:30:53.536Z</time>
      </trkpt>
      <trkpt lat="46.82141" lon="8.40693">
        <ele>1025</ele>
        <time>2021-08-13T09:30:54.537Z</time>
      </trkpt>
      <trkpt lat="46.82141" lon="8.40692">
        <ele>1026</ele>
        <time>2021-08-13T09:30:55.537Z</time>
      </trkpt>
      <trkpt lat="46.82141" lon="8.40692">
        <ele>1026</ele>
        <time>2021-08-13T09:30:56.537Z</time>
      </trkpt>
      <trkpt lat="46.82141" lon="8.40692">
        <ele>1026</ele>
        <time>2021-08-13T09:30:57.537Z</time>
      </trkpt>
      <trkpt lat="46.8214" lon="8.40692">
        <ele>1026</ele>
        <time>2021-08-13T09:30:58.537Z</time>
      </trkpt>
      <trkpt lat="46.82139" lon="8.40691">
        <ele>1026</ele>
        <time>2021-08-13T09:30:59.537Z</time>
      </trkpt>
      <trkpt lat="46.82139" lon="8.4069">
        <ele>1026</ele>
        <time>2021-08-13T09:31:00.536Z</time>
      </trkpt>
      <trkpt lat="46.82139" lon="8.40688">
        <ele>1026</ele>
        <time>2021-08-13T09:31:01.536Z</time>
      </trkpt>
      <trkpt lat="46.8214" lon="8.40687">
        <ele>1026</ele>
        <time>2021-08-13T09:31:02.536Z</time>
      </trkpt>
      <trkpt lat="46.8214" lon="8.40686">
        <ele>1026</ele>
        <time>2021-08-13T09:31:03.536Z</time>
      </trkpt>
      <trkpt lat="46.8214" lon="8.40685">
        <ele>1026</ele>
        <time>2021-08-13T09:31:04.537Z</time>
      </trkpt>
      <trkpt lat="46.8214" lon="8.40684">
        <ele>1026</ele>
        <time>2021-08-13T09:31:05.537Z</time>
      </trkpt>
      <trkpt lat="46.8214" lon="8.40683">
        <ele>1025</ele>
        <time>2021-08-13T09:31:06.537Z</time>
      </trkpt>
      <trkpt lat="46.82139" lon="8.40682">
        <ele>1025</ele>
        <time>2021-08-13T09:31:07.537Z</time>
      </trkpt>
      <trkpt lat="46.82138" lon="8.40681">
        <ele>1024</ele>
        <time>2021-08-13T09:31:08.537Z</time>
      </trkpt>
      <trkpt lat="46.82139" lon="8.40679">
        <ele>1024</ele>
        <time>2021-08-13T09:31:09.537Z</time>
      </trkpt>
      <trkpt lat="46.8214" lon="8.40676">
        <ele>1023</ele>
        <time>2021-08-13T09:31:10.537Z</time>
      </trkpt>
      <trkpt lat="46.82141" lon="8.40674">
        <ele>1023</ele>
        <time>2021-08-13T09:31:11.537Z</time>
      </trkpt>
      <trkpt lat="46.82141" lon="8.40671">
        <ele>1022</ele>
        <time>2021-08-13T09:31:12.536Z</time>
      </trkpt>
      <trkpt lat="46.82141" lon="8.40669">
        <ele>1022</ele>
        <time>2021-08-13T09:31:13.536Z</time>
      </trkpt>
      <trkpt lat="46.82142" lon="8.40668">
        <ele>1022</ele>
        <time>2021-08-13T09:31:14.537Z</time>
      </trkpt>
      <trkpt lat="46.82142" lon="8.40666">
        <ele>1021</ele>
        <time>2021-08-13T09:31:15.537Z</time>
      </trkpt>
      <trkpt lat="46.82141" lon="8.40665">
        <ele>1021</ele>
        <time>2021-08-13T09:31:16.536Z</time>
      </trkpt>
      <trkpt lat="46.82139" lon="8.40664">
        <ele>1021</ele>
        <time>2021-08-13T09:31:17.537Z</time>
      </trkpt>
      <trkpt lat="46.82139" lon="8.40663">
        <ele>1021</ele>
        <time>2021-08-13T09:31:18.537Z</time>
      </trkpt>
      <trkpt lat="46.82139" lon="8.40663">
        <ele>1020</ele>
        <time>2021-08-13T09:31:19.536Z</time>
      </trkpt>
      <trkpt lat="46.8214" lon="8.40662">
        <ele>1020</ele>
        <time>2021-08-13T09:31:20.537Z</time>
      </trkpt>
      <trkpt lat="46.82141" lon="8.4066">
        <ele>1020</ele>
        <time>2021-08-13T09:31:21.536Z</time>
      </trkpt>
      <trkpt lat="46.82141" lon="8.40659">
        <ele>1020</ele>
        <time>2021-08-13T09:31:22.536Z</time>
      </trkpt>
      <trkpt lat="46.8214" lon="8.40657">
        <ele>1019</ele>
        <time>2021-08-13T09:31:23.537Z</time>
      </trkpt>
      <trkpt lat="46.8214" lon="8.40655">
        <ele>1019</ele>
        <time>2021-08-13T09:31:24.537Z</time>
      </trkpt>
      <trkpt lat="46.8214" lon="8.40654">
        <ele>1019</ele>
        <time>2021-08-13T09:31:25.537Z</time>
      </trkpt>
      <trkpt lat="46.82141" lon="8.40652">
        <ele>1018</ele>
        <time>2021-08-13T09:31:26.536Z</time>
      </trkpt>
      <trkpt lat="46.82141" lon="8.40651">
        <ele>1018</ele>
        <time>2021-08-13T09:31:27.537Z</time>
      </trkpt>
      <trkpt lat="46.82141" lon="8.4065">
        <ele>1018</ele>
        <time>2021-08-13T09:31:28.537Z</time>
      </trkpt>
      <trkpt lat="46.82141" lon="8.40648">
        <ele>1018</ele>
        <time>2021-08-13T09:31:29.537Z</time>
      </trkpt>
      <trkpt lat="46.82141" lon="8.40648">
        <ele>1017</ele>
        <time>2021-08-13T09:31:30.536Z</time>
      </trkpt>
      <trkpt lat="46.82141" lon="8.40647">
        <ele>1017</ele>
        <time>2021-08-13T09:31:31.537Z</time>
      </trkpt>
      <trkpt lat="46.82142" lon="8.40647">
        <ele>1017</ele>
        <time>2021-08-13T09:31:32.537Z</time>
      </trkpt>
      <trkpt lat="46.82142" lon="8.40647">
        <ele>1017</ele>
        <time>2021-08-13T09:31:33.536Z</time>
      </trkpt>
      <trkpt lat="46.82143" lon="8.40646">
        <ele>1017</ele>
        <time>2021-08-13T09:31:34.536Z</time>
      </trkpt>
      <trkpt lat="46.82144" lon="8.40645">
        <ele>1018</ele>
        <time>2021-08-13T09:31:35.536Z</time>
      </trkpt>
      <trkpt lat="46.82144" lon="8.40645">
        <ele>1018</ele>
        <time>2021-08-13T09:31:36.536Z</time>
      </trkpt>
      <trkpt lat="46.82145" lon="8.40645">
        <ele>1018</ele>
        <time>2021-08-13T09:31:37.536Z</time>
      </trkpt>
      <trkpt lat="46.82145" lon="8.40645">
        <ele>1018</ele>
        <time>2021-08-13T09:31:38.536Z</time>
      </trkpt>
      <trkpt lat="46.82146" lon="8.40645">
        <ele>1017</ele>
        <time>2021-08-13T09:31:39.536Z</time>
      </trkpt>
      <trkpt lat="46.82146" lon="8.40644">
        <ele>1017</ele>
        <time>2021-08-13T09:31:40.537Z</time>
      </trkpt>
      <trkpt lat="46.82145" lon="8.40645">
        <ele>1016</ele>
        <time>2021-08-13T09:31:41.538Z</time>
      </trkpt>
      <trkpt lat="46.82145" lon="8.40645">
        <ele>1016</ele>
        <time>2021-08-13T09:31:42.538Z</time>
      </trkpt>
      <trkpt lat="46.82145" lon="8.40645">
        <ele>1016</ele>
        <time>2021-08-13T09:31:43.537Z</time>
      </trkpt>
      <trkpt lat="46.82146" lon="8.40646">
        <ele>1016</ele>
        <time>2021-08-13T09:31:44.537Z</time>
      </trkpt>
      <trkpt lat="46.82146" lon="8.40646">
        <ele>1016</ele>
        <time>2021-08-13T09:31:45.537Z</time>
      </trkpt>
      <trkpt lat="46.82147" lon="8.40646">
        <ele>1016</ele>
        <time>2021-08-13T09:31:46.537Z</time>
      </trkpt>
      <trkpt lat="46.82147" lon="8.40645">
        <ele>1015</ele>
        <time>2021-08-13T09:31:47.537Z</time>
      </trkpt>
      <trkpt lat="46.82146" lon="8.40643">
        <ele>1015</ele>
        <time>2021-08-13T09:31:48.537Z</time>
      </trkpt>
      <trkpt lat="46.82146" lon="8.40642">
        <ele>1015</ele>
        <time>2021-08-13T09:31:49.537Z</time>
      </trkpt>
      <trkpt lat="46.82146" lon="8.40641">
        <ele>1015</ele>
        <time>2021-08-13T09:31:50.537Z</time>
      </trkpt>
      <trkpt lat="46.82146" lon="8.4064">
        <ele>1015</ele>
        <time>2021-08-13T09:31:51.537Z</time>
      </trkpt>
      <trkpt lat="46.82146" lon="8.4064">
        <ele>1015</ele>
        <time>2021-08-13T09:31:52.537Z</time>
      </trkpt>
      <trkpt lat="46.82146" lon="8.4064">
        <ele>1015</ele>
        <time>2021-08-13T09:31:53.538Z</time>
      </trkpt>
      <trkpt lat="46.82145" lon="8.40641">
        <ele>1016</ele>
        <time>2021-08-13T09:31:54.537Z</time>
      </trkpt>
      <trkpt lat="46.82146" lon="8.40642">
        <ele>1016</ele>
        <time>2021-08-13T09:31:55.537Z</time>
      </trkpt>
      <trkpt lat="46.82146" lon="8.40642">
        <ele>1016</ele>
        <time>2021-08-13T09:31:56.537Z</time>
      </trkpt>
      <trkpt lat="46.82147" lon="8.40643">
        <ele>1016</ele>
        <time>2021-08-13T09:31:57.538Z</time>
      </trkpt>
      <trkpt lat="46.82147" lon="8.40644">
        <ele>1016</ele>
        <time>2021-08-13T09:31:58.537Z</time>
      </trkpt>
      <trkpt lat="46.82146" lon="8.40643">
        <ele>1016</ele>
        <time>2021-08-13T09:31:59.538Z</time>
      </trkpt>
      <trkpt lat="46.82146" lon="8.40643">
        <ele>1016</ele>
        <time>2021-08-13T09:32:00.537Z</time>
      </trkpt>
      <trkpt lat="46.82146" lon="8.40643">
        <ele>1016</ele>
        <time>2021-08-13T09:32:01.537Z</time>
      </trkpt>
      <trkpt lat="46.82147" lon="8.40644">
        <ele>1016</ele>
        <time>2021-08-13T09:32:02.539Z</time>
      </trkpt>
      <trkpt lat="46.82148" lon="8.40644">
        <ele>1016</ele>
        <time>2021-08-13T09:32:03.539Z</time>
      </trkpt>
    </trkseg>
  </trk>
</gpx>